<?xml version="1.0" encoding="UTF-8"?>
<gpx version="1.1" creator="https://www.youtrack.es" xsi:schemaLocation="http://www.topografix.com/GPX/1/1 http://www.topografix.com/GPX/1/1/gpx.xsd http://www.garmin.com/xmlschemas/GpxExtensions/v3 http://www.garmin.com/xmlschemas/GpxExtensionsv3.xsd http://www.garmin.com/xmlschemas/TrackPointExtension/v1 http://www.garmin.com/xmlschemas/TrackPointExtensionv1.xsd" xmlns:gpxtpx="http://www.garmin.com/xmlschemas/TrackPointExtension/v1" xmlns:gpxx="http://www.garmin.com/xmlschemas/GpxExtensions/v3" xmlns:xsi="http://www.w3.org/2001/XMLSchema-instance">
  <metadata>
    <link href="https://www.youtrack.es">
      <text>YouTrack.es</text>
    </link>
    <time>2026-05-10T12:06:43Z</time>
  </metadata>
  <trk>
    <src>https://www.youtrack.es</src>
    <link href="https://www.youtrack.es/ruta/150-malaga-vendo-miel-casabermeja-colmenar-pto-leon">
      <text>YouTrack.es</text>
    </link>
    <trkseg>
      <trkpt lat="36.7289150" lon="-4.4244570">
        <ele>23.9</ele>
        <time>2018-03-28T08:18:23Z</time>
      </trkpt>
      <trkpt lat="36.7289360" lon="-4.4244650">
        <ele>23.9</ele>
        <time>2018-03-28T08:18:25Z</time>
      </trkpt>
      <trkpt lat="36.7289580" lon="-4.4244730">
        <ele>23.9</ele>
        <time>2018-03-28T08:18:26Z</time>
      </trkpt>
      <trkpt lat="36.7289790" lon="-4.4244810">
        <ele>23.9</ele>
        <time>2018-03-28T08:18:27Z</time>
      </trkpt>
      <trkpt lat="36.7290430" lon="-4.4245050">
        <ele>23.9</ele>
        <time>2018-03-28T08:18:28Z</time>
      </trkpt>
      <trkpt lat="36.7291220" lon="-4.4245220">
        <ele>23.9</ele>
        <time>2018-03-28T08:18:29Z</time>
      </trkpt>
      <trkpt lat="36.7291220" lon="-4.4245220">
        <ele>23.9</ele>
        <time>2018-03-28T08:18:30Z</time>
      </trkpt>
      <trkpt lat="36.7291850" lon="-4.4245400">
        <ele>23.9</ele>
        <time>2018-03-28T08:18:31Z</time>
      </trkpt>
      <trkpt lat="36.7291850" lon="-4.4245400">
        <ele>23.9</ele>
        <time>2018-03-28T08:18:32Z</time>
      </trkpt>
      <trkpt lat="36.7292580" lon="-4.4245630">
        <ele>23.9</ele>
        <time>2018-03-28T08:18:33Z</time>
      </trkpt>
      <trkpt lat="36.7292580" lon="-4.4245630">
        <ele>23.9</ele>
        <time>2018-03-28T08:18:34Z</time>
      </trkpt>
      <trkpt lat="36.7293410" lon="-4.4245790">
        <ele>23.9</ele>
        <time>2018-03-28T08:18:35Z</time>
      </trkpt>
      <trkpt lat="36.7293490" lon="-4.4245810">
        <ele>23.9</ele>
        <time>2018-03-28T08:18:36Z</time>
      </trkpt>
      <trkpt lat="36.7293650" lon="-4.4245850">
        <ele>23.9</ele>
        <time>2018-03-28T08:18:37Z</time>
      </trkpt>
      <trkpt lat="36.7294250" lon="-4.4246030">
        <ele>23.9</ele>
        <time>2018-03-28T08:18:38Z</time>
      </trkpt>
      <trkpt lat="36.7294530" lon="-4.4246150">
        <ele>23.9</ele>
        <time>2018-03-28T08:18:39Z</time>
      </trkpt>
      <trkpt lat="36.7294530" lon="-4.4246150">
        <ele>23.9</ele>
        <time>2018-03-28T08:18:40Z</time>
      </trkpt>
      <trkpt lat="36.7295020" lon="-4.4246380">
        <ele>23.9</ele>
        <time>2018-03-28T08:18:41Z</time>
      </trkpt>
      <trkpt lat="36.7295280" lon="-4.4246470">
        <ele>23.9</ele>
        <time>2018-03-28T08:18:42Z</time>
      </trkpt>
      <trkpt lat="36.7295280" lon="-4.4246470">
        <ele>23.9</ele>
        <time>2018-03-28T08:18:43Z</time>
      </trkpt>
      <trkpt lat="36.7296070" lon="-4.4246750">
        <ele>24.9</ele>
        <time>2018-03-28T08:18:44Z</time>
      </trkpt>
      <trkpt lat="36.7296470" lon="-4.4246880">
        <ele>24.9</ele>
        <time>2018-03-28T08:18:45Z</time>
      </trkpt>
      <trkpt lat="36.7296770" lon="-4.4247020">
        <ele>24.9</ele>
        <time>2018-03-28T08:18:46Z</time>
      </trkpt>
      <trkpt lat="36.7297080" lon="-4.4247170">
        <ele>24.9</ele>
        <time>2018-03-28T08:18:47Z</time>
      </trkpt>
      <trkpt lat="36.7297380" lon="-4.4247310">
        <ele>24.9</ele>
        <time>2018-03-28T08:18:48Z</time>
      </trkpt>
      <trkpt lat="36.7297570" lon="-4.4247420">
        <ele>24.9</ele>
        <time>2018-03-28T08:18:49Z</time>
      </trkpt>
      <trkpt lat="36.7298330" lon="-4.4247830">
        <ele>24.9</ele>
        <time>2018-03-28T08:18:50Z</time>
      </trkpt>
      <trkpt lat="36.7298730" lon="-4.4247970">
        <ele>24.9</ele>
        <time>2018-03-28T08:18:51Z</time>
      </trkpt>
      <trkpt lat="36.7298730" lon="-4.4247970">
        <ele>24.9</ele>
        <time>2018-03-28T08:18:52Z</time>
      </trkpt>
      <trkpt lat="36.7299480" lon="-4.4248230">
        <ele>24.9</ele>
        <time>2018-03-28T08:18:53Z</time>
      </trkpt>
      <trkpt lat="36.7299820" lon="-4.4248400">
        <ele>24.9</ele>
        <time>2018-03-28T08:18:54Z</time>
      </trkpt>
      <trkpt lat="36.7300230" lon="-4.4248450">
        <ele>25.9</ele>
        <time>2018-03-28T08:18:55Z</time>
      </trkpt>
      <trkpt lat="36.7300370" lon="-4.4248520">
        <ele>25.9</ele>
        <time>2018-03-28T08:18:56Z</time>
      </trkpt>
      <trkpt lat="36.7300500" lon="-4.4248590">
        <ele>25.9</ele>
        <time>2018-03-28T08:18:57Z</time>
      </trkpt>
      <trkpt lat="36.7300770" lon="-4.4248730">
        <ele>25.9</ele>
        <time>2018-03-28T08:18:58Z</time>
      </trkpt>
      <trkpt lat="36.7301170" lon="-4.4248980">
        <ele>25.9</ele>
        <time>2018-03-28T08:18:59Z</time>
      </trkpt>
      <trkpt lat="36.7301420" lon="-4.4249070">
        <ele>25.9</ele>
        <time>2018-03-28T08:19:00Z</time>
      </trkpt>
      <trkpt lat="36.7301420" lon="-4.4249070">
        <ele>25.9</ele>
        <time>2018-03-28T08:19:01Z</time>
      </trkpt>
      <trkpt lat="36.7301730" lon="-4.4249450">
        <ele>25.9</ele>
        <time>2018-03-28T08:19:02Z</time>
      </trkpt>
      <trkpt lat="36.7301730" lon="-4.4249450">
        <ele>25.9</ele>
        <time>2018-03-28T08:19:03Z</time>
      </trkpt>
      <trkpt lat="36.7301880" lon="-4.4250100">
        <ele>25.9</ele>
        <time>2018-03-28T08:19:04Z</time>
      </trkpt>
      <trkpt lat="36.7302050" lon="-4.4250480">
        <ele>25.9</ele>
        <time>2018-03-28T08:19:05Z</time>
      </trkpt>
      <trkpt lat="36.7302300" lon="-4.4250830">
        <ele>25.9</ele>
        <time>2018-03-28T08:19:06Z</time>
      </trkpt>
      <trkpt lat="36.7302630" lon="-4.4251220">
        <ele>25.9</ele>
        <time>2018-03-28T08:19:07Z</time>
      </trkpt>
      <trkpt lat="36.7302630" lon="-4.4251220">
        <ele>25.9</ele>
        <time>2018-03-28T08:19:08Z</time>
      </trkpt>
      <trkpt lat="36.7303350" lon="-4.4251920">
        <ele>25.9</ele>
        <time>2018-03-28T08:19:09Z</time>
      </trkpt>
      <trkpt lat="36.7303750" lon="-4.4252120">
        <ele>25.9</ele>
        <time>2018-03-28T08:19:10Z</time>
      </trkpt>
      <trkpt lat="36.7304180" lon="-4.4252270">
        <ele>25.9</ele>
        <time>2018-03-28T08:19:11Z</time>
      </trkpt>
      <trkpt lat="36.7304180" lon="-4.4252270">
        <ele>25.9</ele>
        <time>2018-03-28T08:19:12Z</time>
      </trkpt>
      <trkpt lat="36.7304920" lon="-4.4252500">
        <ele>25.9</ele>
        <time>2018-03-28T08:19:13Z</time>
      </trkpt>
      <trkpt lat="36.7304920" lon="-4.4252500">
        <ele>25.9</ele>
        <time>2018-03-28T08:19:14Z</time>
      </trkpt>
      <trkpt lat="36.7305480" lon="-4.4252500">
        <ele>25.9</ele>
        <time>2018-03-28T08:19:15Z</time>
      </trkpt>
      <trkpt lat="36.7305480" lon="-4.4252500">
        <ele>25.9</ele>
        <time>2018-03-28T08:19:16Z</time>
      </trkpt>
      <trkpt lat="36.7305730" lon="-4.4252480">
        <ele>25.9</ele>
        <time>2018-03-28T08:19:17Z</time>
      </trkpt>
      <trkpt lat="36.7305820" lon="-4.4252500">
        <ele>25.9</ele>
        <time>2018-03-28T08:19:18Z</time>
      </trkpt>
      <trkpt lat="36.7305820" lon="-4.4252500">
        <ele>25.9</ele>
        <time>2018-03-28T08:19:19Z</time>
      </trkpt>
      <trkpt lat="36.7305950" lon="-4.4252480">
        <ele>25.9</ele>
        <time>2018-03-28T08:19:20Z</time>
      </trkpt>
      <trkpt lat="36.7307770" lon="-4.4252300">
        <ele>25.9</ele>
        <time>2018-03-28T08:19:38Z</time>
      </trkpt>
      <trkpt lat="36.7307770" lon="-4.4252300">
        <ele>25.9</ele>
        <time>2018-03-28T08:19:39Z</time>
      </trkpt>
      <trkpt lat="36.7308220" lon="-4.4252250">
        <ele>25.9</ele>
        <time>2018-03-28T08:19:40Z</time>
      </trkpt>
      <trkpt lat="36.7308500" lon="-4.4252220">
        <ele>25.9</ele>
        <time>2018-03-28T08:19:41Z</time>
      </trkpt>
      <trkpt lat="36.7308780" lon="-4.4252180">
        <ele>25.9</ele>
        <time>2018-03-28T08:19:42Z</time>
      </trkpt>
      <trkpt lat="36.7308780" lon="-4.4252180">
        <ele>25.9</ele>
        <time>2018-03-28T08:19:43Z</time>
      </trkpt>
      <trkpt lat="36.7309450" lon="-4.4252070">
        <ele>25.9</ele>
        <time>2018-03-28T08:19:44Z</time>
      </trkpt>
      <trkpt lat="36.7309830" lon="-4.4252000">
        <ele>25.9</ele>
        <time>2018-03-28T08:19:45Z</time>
      </trkpt>
      <trkpt lat="36.7309830" lon="-4.4252000">
        <ele>25.9</ele>
        <time>2018-03-28T08:19:46Z</time>
      </trkpt>
      <trkpt lat="36.7310630" lon="-4.4251950">
        <ele>25.9</ele>
        <time>2018-03-28T08:19:47Z</time>
      </trkpt>
      <trkpt lat="36.7311030" lon="-4.4251900">
        <ele>25.9</ele>
        <time>2018-03-28T08:19:48Z</time>
      </trkpt>
      <trkpt lat="36.7311030" lon="-4.4251900">
        <ele>25.9</ele>
        <time>2018-03-28T08:19:49Z</time>
      </trkpt>
      <trkpt lat="36.7311900" lon="-4.4251800">
        <ele>25.9</ele>
        <time>2018-03-28T08:19:50Z</time>
      </trkpt>
      <trkpt lat="36.7312330" lon="-4.4251780">
        <ele>25.9</ele>
        <time>2018-03-28T08:19:51Z</time>
      </trkpt>
      <trkpt lat="36.7312330" lon="-4.4251780">
        <ele>25.9</ele>
        <time>2018-03-28T08:19:52Z</time>
      </trkpt>
      <trkpt lat="36.7313270" lon="-4.4251670">
        <ele>25.9</ele>
        <time>2018-03-28T08:19:53Z</time>
      </trkpt>
      <trkpt lat="36.7313270" lon="-4.4251670">
        <ele>25.9</ele>
        <time>2018-03-28T08:19:54Z</time>
      </trkpt>
      <trkpt lat="36.7314180" lon="-4.4251570">
        <ele>25.9</ele>
        <time>2018-03-28T08:19:55Z</time>
      </trkpt>
      <trkpt lat="36.7314180" lon="-4.4251570">
        <ele>26.9</ele>
        <time>2018-03-28T08:19:56Z</time>
      </trkpt>
      <trkpt lat="36.7314980" lon="-4.4251620">
        <ele>26.9</ele>
        <time>2018-03-28T08:19:57Z</time>
      </trkpt>
      <trkpt lat="36.7314980" lon="-4.4251620">
        <ele>26.9</ele>
        <time>2018-03-28T08:19:58Z</time>
      </trkpt>
      <trkpt lat="36.7315870" lon="-4.4251470">
        <ele>26.9</ele>
        <time>2018-03-28T08:19:59Z</time>
      </trkpt>
      <trkpt lat="36.7316350" lon="-4.4251420">
        <ele>26.9</ele>
        <time>2018-03-28T08:20:00Z</time>
      </trkpt>
      <trkpt lat="36.7316820" lon="-4.4251380">
        <ele>26.9</ele>
        <time>2018-03-28T08:20:01Z</time>
      </trkpt>
      <trkpt lat="36.7316820" lon="-4.4251380">
        <ele>26.9</ele>
        <time>2018-03-28T08:20:02Z</time>
      </trkpt>
      <trkpt lat="36.7317770" lon="-4.4251230">
        <ele>26.9</ele>
        <time>2018-03-28T08:20:03Z</time>
      </trkpt>
      <trkpt lat="36.7318220" lon="-4.4251150">
        <ele>26.9</ele>
        <time>2018-03-28T08:20:04Z</time>
      </trkpt>
      <trkpt lat="36.7318680" lon="-4.4251120">
        <ele>26.9</ele>
        <time>2018-03-28T08:20:05Z</time>
      </trkpt>
      <trkpt lat="36.7318680" lon="-4.4251120">
        <ele>26.9</ele>
        <time>2018-03-28T08:20:06Z</time>
      </trkpt>
      <trkpt lat="36.7319500" lon="-4.4251030">
        <ele>26.9</ele>
        <time>2018-03-28T08:20:07Z</time>
      </trkpt>
      <trkpt lat="36.7319500" lon="-4.4251030">
        <ele>26.9</ele>
        <time>2018-03-28T08:20:08Z</time>
      </trkpt>
      <trkpt lat="36.7320430" lon="-4.4250850">
        <ele>26.9</ele>
        <time>2018-03-28T08:20:09Z</time>
      </trkpt>
      <trkpt lat="36.7320430" lon="-4.4250850">
        <ele>26.9</ele>
        <time>2018-03-28T08:20:10Z</time>
      </trkpt>
      <trkpt lat="36.7321170" lon="-4.4250730">
        <ele>26.9</ele>
        <time>2018-03-28T08:20:11Z</time>
      </trkpt>
      <trkpt lat="36.7321470" lon="-4.4250750">
        <ele>26.9</ele>
        <time>2018-03-28T08:20:12Z</time>
      </trkpt>
      <trkpt lat="36.7321470" lon="-4.4250750">
        <ele>26.9</ele>
        <time>2018-03-28T08:20:13Z</time>
      </trkpt>
      <trkpt lat="36.7322200" lon="-4.4250730">
        <ele>26.9</ele>
        <time>2018-03-28T08:20:14Z</time>
      </trkpt>
      <trkpt lat="36.7322550" lon="-4.4250670">
        <ele>26.9</ele>
        <time>2018-03-28T08:20:15Z</time>
      </trkpt>
      <trkpt lat="36.7322890" lon="-4.4250620">
        <ele>26.9</ele>
        <time>2018-03-28T08:20:16Z</time>
      </trkpt>
      <trkpt lat="36.7323230" lon="-4.4250570">
        <ele>26.9</ele>
        <time>2018-03-28T08:20:17Z</time>
      </trkpt>
      <trkpt lat="36.7323520" lon="-4.4250600">
        <ele>26.9</ele>
        <time>2018-03-28T08:20:18Z</time>
      </trkpt>
      <trkpt lat="36.7323520" lon="-4.4250600">
        <ele>26.9</ele>
        <time>2018-03-28T08:20:19Z</time>
      </trkpt>
      <trkpt lat="36.7323930" lon="-4.4250620">
        <ele>26.9</ele>
        <time>2018-03-28T08:20:20Z</time>
      </trkpt>
      <trkpt lat="36.7323930" lon="-4.4250620">
        <ele>26.9</ele>
        <time>2018-03-28T08:20:21Z</time>
      </trkpt>
      <trkpt lat="36.7324250" lon="-4.4250600">
        <ele>26.9</ele>
        <time>2018-03-28T08:20:22Z</time>
      </trkpt>
      <trkpt lat="36.7324300" lon="-4.4250630">
        <ele>26.9</ele>
        <time>2018-03-28T08:20:23Z</time>
      </trkpt>
      <trkpt lat="36.7324320" lon="-4.4250630">
        <ele>26.9</ele>
        <time>2018-03-28T08:20:24Z</time>
      </trkpt>
      <trkpt lat="36.7324300" lon="-4.4250620">
        <ele>26.9</ele>
        <time>2018-03-28T08:20:25Z</time>
      </trkpt>
      <trkpt lat="36.7324300" lon="-4.4250620">
        <ele>26.9</ele>
        <time>2018-03-28T08:20:26Z</time>
      </trkpt>
      <trkpt lat="36.7324330" lon="-4.4250600">
        <ele>26.9</ele>
        <time>2018-03-28T08:20:28Z</time>
      </trkpt>
      <trkpt lat="36.7324330" lon="-4.4250600">
        <ele>26.9</ele>
        <time>2018-03-28T08:20:29Z</time>
      </trkpt>
      <trkpt lat="36.7325550" lon="-4.4250470">
        <ele>26.9</ele>
        <time>2018-03-28T08:21:29Z</time>
      </trkpt>
      <trkpt lat="36.7325850" lon="-4.4250450">
        <ele>26.9</ele>
        <time>2018-03-28T08:21:30Z</time>
      </trkpt>
      <trkpt lat="36.7326190" lon="-4.4250430">
        <ele>26.9</ele>
        <time>2018-03-28T08:21:31Z</time>
      </trkpt>
      <trkpt lat="36.7326520" lon="-4.4250400">
        <ele>26.9</ele>
        <time>2018-03-28T08:21:32Z</time>
      </trkpt>
      <trkpt lat="36.7326870" lon="-4.4250390">
        <ele>26.9</ele>
        <time>2018-03-28T08:21:33Z</time>
      </trkpt>
      <trkpt lat="36.7327220" lon="-4.4250380">
        <ele>26.9</ele>
        <time>2018-03-28T08:21:34Z</time>
      </trkpt>
      <trkpt lat="36.7327570" lon="-4.4250380">
        <ele>26.9</ele>
        <time>2018-03-28T08:21:35Z</time>
      </trkpt>
      <trkpt lat="36.7327920" lon="-4.4250370">
        <ele>26.9</ele>
        <time>2018-03-28T08:21:36Z</time>
      </trkpt>
      <trkpt lat="36.7328270" lon="-4.4250360">
        <ele>26.9</ele>
        <time>2018-03-28T08:21:37Z</time>
      </trkpt>
      <trkpt lat="36.7328620" lon="-4.4250350">
        <ele>26.9</ele>
        <time>2018-03-28T08:21:38Z</time>
      </trkpt>
      <trkpt lat="36.7329030" lon="-4.4250350">
        <ele>26.9</ele>
        <time>2018-03-28T08:21:39Z</time>
      </trkpt>
      <trkpt lat="36.7329830" lon="-4.4250330">
        <ele>26.9</ele>
        <time>2018-03-28T08:21:40Z</time>
      </trkpt>
      <trkpt lat="36.7329830" lon="-4.4250330">
        <ele>26.9</ele>
        <time>2018-03-28T08:21:41Z</time>
      </trkpt>
      <trkpt lat="36.7330820" lon="-4.4250220">
        <ele>26.9</ele>
        <time>2018-03-28T08:21:42Z</time>
      </trkpt>
      <trkpt lat="36.7331290" lon="-4.4250240">
        <ele>26.9</ele>
        <time>2018-03-28T08:21:43Z</time>
      </trkpt>
      <trkpt lat="36.7331750" lon="-4.4250270">
        <ele>26.9</ele>
        <time>2018-03-28T08:21:44Z</time>
      </trkpt>
      <trkpt lat="36.7332230" lon="-4.4250270">
        <ele>26.9</ele>
        <time>2018-03-28T08:21:45Z</time>
      </trkpt>
      <trkpt lat="36.7332230" lon="-4.4250270">
        <ele>26.9</ele>
        <time>2018-03-28T08:21:46Z</time>
      </trkpt>
      <trkpt lat="36.7333200" lon="-4.4250250">
        <ele>26.9</ele>
        <time>2018-03-28T08:21:47Z</time>
      </trkpt>
      <trkpt lat="36.7333960" lon="-4.4250260">
        <ele>26.9</ele>
        <time>2018-03-28T08:21:48Z</time>
      </trkpt>
      <trkpt lat="36.7334220" lon="-4.4250250">
        <ele>26.9</ele>
        <time>2018-03-28T08:21:49Z</time>
      </trkpt>
      <trkpt lat="36.7334730" lon="-4.4250230">
        <ele>26.9</ele>
        <time>2018-03-28T08:21:50Z</time>
      </trkpt>
      <trkpt lat="36.7334730" lon="-4.4250230">
        <ele>26.9</ele>
        <time>2018-03-28T08:21:51Z</time>
      </trkpt>
      <trkpt lat="36.7335900" lon="-4.4250160">
        <ele>26.9</ele>
        <time>2018-03-28T08:21:52Z</time>
      </trkpt>
      <trkpt lat="36.7336140" lon="-4.4250130">
        <ele>26.9</ele>
        <time>2018-03-28T08:21:53Z</time>
      </trkpt>
      <trkpt lat="36.7336630" lon="-4.4250080">
        <ele>26.9</ele>
        <time>2018-03-28T08:21:54Z</time>
      </trkpt>
      <trkpt lat="36.7336630" lon="-4.4250080">
        <ele>26.9</ele>
        <time>2018-03-28T08:21:55Z</time>
      </trkpt>
      <trkpt lat="36.7337630" lon="-4.4249950">
        <ele>26.9</ele>
        <time>2018-03-28T08:21:56Z</time>
      </trkpt>
      <trkpt lat="36.7338180" lon="-4.4249900">
        <ele>26.9</ele>
        <time>2018-03-28T08:21:57Z</time>
      </trkpt>
      <trkpt lat="36.7338180" lon="-4.4249900">
        <ele>26.9</ele>
        <time>2018-03-28T08:21:58Z</time>
      </trkpt>
      <trkpt lat="36.7339420" lon="-4.4249630">
        <ele>26.9</ele>
        <time>2018-03-28T08:21:59Z</time>
      </trkpt>
      <trkpt lat="36.7340020" lon="-4.4249580">
        <ele>26.9</ele>
        <time>2018-03-28T08:22:00Z</time>
      </trkpt>
      <trkpt lat="36.7340020" lon="-4.4249580">
        <ele>26.9</ele>
        <time>2018-03-28T08:22:01Z</time>
      </trkpt>
      <trkpt lat="36.7341200" lon="-4.4249380">
        <ele>26.9</ele>
        <time>2018-03-28T08:22:02Z</time>
      </trkpt>
      <trkpt lat="36.7341200" lon="-4.4249380">
        <ele>27.9</ele>
        <time>2018-03-28T08:22:03Z</time>
      </trkpt>
      <trkpt lat="36.7342280" lon="-4.4249300">
        <ele>27.9</ele>
        <time>2018-03-28T08:22:04Z</time>
      </trkpt>
      <trkpt lat="36.7342280" lon="-4.4249300">
        <ele>27.9</ele>
        <time>2018-03-28T08:22:05Z</time>
      </trkpt>
      <trkpt lat="36.7343420" lon="-4.4249200">
        <ele>27.9</ele>
        <time>2018-03-28T08:22:06Z</time>
      </trkpt>
      <trkpt lat="36.7343420" lon="-4.4249200">
        <ele>27.9</ele>
        <time>2018-03-28T08:22:07Z</time>
      </trkpt>
      <trkpt lat="36.7344530" lon="-4.4249130">
        <ele>27.9</ele>
        <time>2018-03-28T08:22:08Z</time>
      </trkpt>
      <trkpt lat="36.7344530" lon="-4.4249130">
        <ele>27.9</ele>
        <time>2018-03-28T08:22:09Z</time>
      </trkpt>
      <trkpt lat="36.7345620" lon="-4.4249070">
        <ele>27.9</ele>
        <time>2018-03-28T08:22:10Z</time>
      </trkpt>
      <trkpt lat="36.7345620" lon="-4.4249070">
        <ele>27.9</ele>
        <time>2018-03-28T08:22:11Z</time>
      </trkpt>
      <trkpt lat="36.7346680" lon="-4.4249020">
        <ele>27.9</ele>
        <time>2018-03-28T08:22:12Z</time>
      </trkpt>
      <trkpt lat="36.7346680" lon="-4.4249020">
        <ele>27.9</ele>
        <time>2018-03-28T08:22:13Z</time>
      </trkpt>
      <trkpt lat="36.7347720" lon="-4.4249030">
        <ele>27.9</ele>
        <time>2018-03-28T08:22:14Z</time>
      </trkpt>
      <trkpt lat="36.7347720" lon="-4.4249030">
        <ele>27.9</ele>
        <time>2018-03-28T08:22:15Z</time>
      </trkpt>
      <trkpt lat="36.7348800" lon="-4.4248920">
        <ele>27.9</ele>
        <time>2018-03-28T08:22:16Z</time>
      </trkpt>
      <trkpt lat="36.7349380" lon="-4.4248850">
        <ele>27.9</ele>
        <time>2018-03-28T08:22:17Z</time>
      </trkpt>
      <trkpt lat="36.7349900" lon="-4.4248800">
        <ele>27.9</ele>
        <time>2018-03-28T08:22:18Z</time>
      </trkpt>
      <trkpt lat="36.7349900" lon="-4.4248800">
        <ele>27.9</ele>
        <time>2018-03-28T08:22:19Z</time>
      </trkpt>
      <trkpt lat="36.7351050" lon="-4.4248680">
        <ele>27.9</ele>
        <time>2018-03-28T08:22:20Z</time>
      </trkpt>
      <trkpt lat="36.7351050" lon="-4.4248680">
        <ele>27.9</ele>
        <time>2018-03-28T08:22:21Z</time>
      </trkpt>
      <trkpt lat="36.7352300" lon="-4.4248520">
        <ele>27.9</ele>
        <time>2018-03-28T08:22:22Z</time>
      </trkpt>
      <trkpt lat="36.7352870" lon="-4.4248470">
        <ele>27.9</ele>
        <time>2018-03-28T08:22:23Z</time>
      </trkpt>
      <trkpt lat="36.7353430" lon="-4.4248430">
        <ele>27.9</ele>
        <time>2018-03-28T08:22:24Z</time>
      </trkpt>
      <trkpt lat="36.7353430" lon="-4.4248430">
        <ele>27.9</ele>
        <time>2018-03-28T08:22:25Z</time>
      </trkpt>
      <trkpt lat="36.7354570" lon="-4.4248380">
        <ele>27.9</ele>
        <time>2018-03-28T08:22:26Z</time>
      </trkpt>
      <trkpt lat="36.7354570" lon="-4.4248380">
        <ele>27.9</ele>
        <time>2018-03-28T08:22:27Z</time>
      </trkpt>
      <trkpt lat="36.7355720" lon="-4.4248320">
        <ele>27.9</ele>
        <time>2018-03-28T08:22:28Z</time>
      </trkpt>
      <trkpt lat="36.7356320" lon="-4.4248230">
        <ele>27.9</ele>
        <time>2018-03-28T08:22:29Z</time>
      </trkpt>
      <trkpt lat="36.7356950" lon="-4.4248220">
        <ele>27.9</ele>
        <time>2018-03-28T08:22:30Z</time>
      </trkpt>
      <trkpt lat="36.7356950" lon="-4.4248220">
        <ele>27.9</ele>
        <time>2018-03-28T08:22:31Z</time>
      </trkpt>
      <trkpt lat="36.7358130" lon="-4.4248180">
        <ele>27.9</ele>
        <time>2018-03-28T08:22:32Z</time>
      </trkpt>
      <trkpt lat="36.7358670" lon="-4.4248150">
        <ele>23.9</ele>
        <time>2018-03-28T08:22:33Z</time>
      </trkpt>
      <trkpt lat="36.7359280" lon="-4.4248100">
        <ele>23.9</ele>
        <time>2018-03-28T08:22:34Z</time>
      </trkpt>
      <trkpt lat="36.7359280" lon="-4.4248100">
        <ele>23.9</ele>
        <time>2018-03-28T08:22:35Z</time>
      </trkpt>
      <trkpt lat="36.7360500" lon="-4.4247980">
        <ele>23.9</ele>
        <time>2018-03-28T08:22:36Z</time>
      </trkpt>
      <trkpt lat="36.7361120" lon="-4.4247950">
        <ele>23.9</ele>
        <time>2018-03-28T08:22:37Z</time>
      </trkpt>
      <trkpt lat="36.7361120" lon="-4.4247950">
        <ele>23.9</ele>
        <time>2018-03-28T08:22:38Z</time>
      </trkpt>
      <trkpt lat="36.7362270" lon="-4.4247930">
        <ele>23.9</ele>
        <time>2018-03-28T08:22:39Z</time>
      </trkpt>
      <trkpt lat="36.7362270" lon="-4.4247930">
        <ele>23.9</ele>
        <time>2018-03-28T08:22:40Z</time>
      </trkpt>
      <trkpt lat="36.7363420" lon="-4.4247850">
        <ele>23.9</ele>
        <time>2018-03-28T08:22:41Z</time>
      </trkpt>
      <trkpt lat="36.7364000" lon="-4.4247780">
        <ele>23.9</ele>
        <time>2018-03-28T08:22:42Z</time>
      </trkpt>
      <trkpt lat="36.7364000" lon="-4.4247780">
        <ele>24.9</ele>
        <time>2018-03-28T08:22:43Z</time>
      </trkpt>
      <trkpt lat="36.7365230" lon="-4.4247680">
        <ele>24.9</ele>
        <time>2018-03-28T08:22:44Z</time>
      </trkpt>
      <trkpt lat="36.7365230" lon="-4.4247680">
        <ele>24.9</ele>
        <time>2018-03-28T08:22:45Z</time>
      </trkpt>
      <trkpt lat="36.7366420" lon="-4.4247580">
        <ele>24.9</ele>
        <time>2018-03-28T08:22:46Z</time>
      </trkpt>
      <trkpt lat="36.7366420" lon="-4.4247580">
        <ele>24.9</ele>
        <time>2018-03-28T08:22:47Z</time>
      </trkpt>
      <trkpt lat="36.7367600" lon="-4.4247480">
        <ele>24.9</ele>
        <time>2018-03-28T08:22:48Z</time>
      </trkpt>
      <trkpt lat="36.7367600" lon="-4.4247480">
        <ele>24.9</ele>
        <time>2018-03-28T08:22:49Z</time>
      </trkpt>
      <trkpt lat="36.7368780" lon="-4.4247420">
        <ele>24.9</ele>
        <time>2018-03-28T08:22:50Z</time>
      </trkpt>
      <trkpt lat="36.7368780" lon="-4.4247420">
        <ele>24.9</ele>
        <time>2018-03-28T08:22:51Z</time>
      </trkpt>
      <trkpt lat="36.7369950" lon="-4.4247400">
        <ele>24.9</ele>
        <time>2018-03-28T08:22:52Z</time>
      </trkpt>
      <trkpt lat="36.7369950" lon="-4.4247400">
        <ele>25.9</ele>
        <time>2018-03-28T08:22:53Z</time>
      </trkpt>
      <trkpt lat="36.7371150" lon="-4.4247350">
        <ele>25.9</ele>
        <time>2018-03-28T08:22:54Z</time>
      </trkpt>
      <trkpt lat="36.7371150" lon="-4.4247350">
        <ele>25.9</ele>
        <time>2018-03-28T08:22:55Z</time>
      </trkpt>
      <trkpt lat="36.7372270" lon="-4.4247300">
        <ele>25.9</ele>
        <time>2018-03-28T08:22:56Z</time>
      </trkpt>
      <trkpt lat="36.7372870" lon="-4.4247180">
        <ele>25.9</ele>
        <time>2018-03-28T08:22:57Z</time>
      </trkpt>
      <trkpt lat="36.7372870" lon="-4.4247180">
        <ele>25.9</ele>
        <time>2018-03-28T08:22:58Z</time>
      </trkpt>
      <trkpt lat="36.7374120" lon="-4.4246900">
        <ele>26.9</ele>
        <time>2018-03-28T08:22:59Z</time>
      </trkpt>
      <trkpt lat="36.7374750" lon="-4.4246620">
        <ele>26.9</ele>
        <time>2018-03-28T08:23:00Z</time>
      </trkpt>
      <trkpt lat="36.7374750" lon="-4.4246620">
        <ele>26.9</ele>
        <time>2018-03-28T08:23:01Z</time>
      </trkpt>
      <trkpt lat="36.7376180" lon="-4.4245970">
        <ele>26.9</ele>
        <time>2018-03-28T08:23:02Z</time>
      </trkpt>
      <trkpt lat="36.7376180" lon="-4.4245970">
        <ele>26.9</ele>
        <time>2018-03-28T08:23:03Z</time>
      </trkpt>
      <trkpt lat="36.7377600" lon="-4.4245300">
        <ele>26.9</ele>
        <time>2018-03-28T08:23:04Z</time>
      </trkpt>
      <trkpt lat="36.7377600" lon="-4.4245300">
        <ele>26.9</ele>
        <time>2018-03-28T08:23:05Z</time>
      </trkpt>
      <trkpt lat="36.7378850" lon="-4.4244620">
        <ele>26.9</ele>
        <time>2018-03-28T08:23:06Z</time>
      </trkpt>
      <trkpt lat="36.7379470" lon="-4.4244280">
        <ele>26.9</ele>
        <time>2018-03-28T08:23:07Z</time>
      </trkpt>
      <trkpt lat="36.7379470" lon="-4.4244280">
        <ele>26.9</ele>
        <time>2018-03-28T08:23:08Z</time>
      </trkpt>
      <trkpt lat="36.7380550" lon="-4.4243470">
        <ele>26.9</ele>
        <time>2018-03-28T08:23:09Z</time>
      </trkpt>
      <trkpt lat="36.7381130" lon="-4.4242980">
        <ele>26.9</ele>
        <time>2018-03-28T08:23:10Z</time>
      </trkpt>
      <trkpt lat="36.7381130" lon="-4.4242980">
        <ele>26.9</ele>
        <time>2018-03-28T08:23:11Z</time>
      </trkpt>
      <trkpt lat="36.7382280" lon="-4.4242070">
        <ele>26.9</ele>
        <time>2018-03-28T08:23:12Z</time>
      </trkpt>
      <trkpt lat="36.7382280" lon="-4.4242070">
        <ele>26.9</ele>
        <time>2018-03-28T08:23:13Z</time>
      </trkpt>
      <trkpt lat="36.7383430" lon="-4.4241300">
        <ele>26.9</ele>
        <time>2018-03-28T08:23:14Z</time>
      </trkpt>
      <trkpt lat="36.7383430" lon="-4.4241300">
        <ele>26.9</ele>
        <time>2018-03-28T08:23:15Z</time>
      </trkpt>
      <trkpt lat="36.7384530" lon="-4.4240450">
        <ele>26.9</ele>
        <time>2018-03-28T08:23:16Z</time>
      </trkpt>
      <trkpt lat="36.7384530" lon="-4.4240450">
        <ele>26.9</ele>
        <time>2018-03-28T08:23:17Z</time>
      </trkpt>
      <trkpt lat="36.7385680" lon="-4.4239600">
        <ele>26.9</ele>
        <time>2018-03-28T08:23:18Z</time>
      </trkpt>
      <trkpt lat="36.7385680" lon="-4.4239600">
        <ele>26.9</ele>
        <time>2018-03-28T08:23:19Z</time>
      </trkpt>
      <trkpt lat="36.7386770" lon="-4.4238820">
        <ele>26.9</ele>
        <time>2018-03-28T08:23:20Z</time>
      </trkpt>
      <trkpt lat="36.7387320" lon="-4.4238400">
        <ele>26.9</ele>
        <time>2018-03-28T08:23:21Z</time>
      </trkpt>
      <trkpt lat="36.7387320" lon="-4.4238400">
        <ele>26.9</ele>
        <time>2018-03-28T08:23:22Z</time>
      </trkpt>
      <trkpt lat="36.7388380" lon="-4.4237630">
        <ele>27.9</ele>
        <time>2018-03-28T08:23:23Z</time>
      </trkpt>
      <trkpt lat="36.7388930" lon="-4.4237270">
        <ele>27.9</ele>
        <time>2018-03-28T08:23:24Z</time>
      </trkpt>
      <trkpt lat="36.7388930" lon="-4.4237270">
        <ele>27.9</ele>
        <time>2018-03-28T08:23:25Z</time>
      </trkpt>
      <trkpt lat="36.7389930" lon="-4.4236520">
        <ele>27.9</ele>
        <time>2018-03-28T08:23:26Z</time>
      </trkpt>
      <trkpt lat="36.7390430" lon="-4.4236200">
        <ele>27.9</ele>
        <time>2018-03-28T08:23:27Z</time>
      </trkpt>
      <trkpt lat="36.7390430" lon="-4.4236200">
        <ele>27.9</ele>
        <time>2018-03-28T08:23:28Z</time>
      </trkpt>
      <trkpt lat="36.7391270" lon="-4.4235850">
        <ele>27.9</ele>
        <time>2018-03-28T08:23:29Z</time>
      </trkpt>
      <trkpt lat="36.7391630" lon="-4.4235730">
        <ele>27.9</ele>
        <time>2018-03-28T08:23:30Z</time>
      </trkpt>
      <trkpt lat="36.7391930" lon="-4.4235520">
        <ele>27.9</ele>
        <time>2018-03-28T08:23:31Z</time>
      </trkpt>
      <trkpt lat="36.7391930" lon="-4.4235520">
        <ele>27.9</ele>
        <time>2018-03-28T08:23:32Z</time>
      </trkpt>
      <trkpt lat="36.7392470" lon="-4.4235300">
        <ele>27.9</ele>
        <time>2018-03-28T08:23:33Z</time>
      </trkpt>
      <trkpt lat="36.7392470" lon="-4.4235300">
        <ele>27.9</ele>
        <time>2018-03-28T08:23:34Z</time>
      </trkpt>
      <trkpt lat="36.7392970" lon="-4.4235180">
        <ele>27.9</ele>
        <time>2018-03-28T08:23:35Z</time>
      </trkpt>
      <trkpt lat="36.7392970" lon="-4.4235180">
        <ele>27.9</ele>
        <time>2018-03-28T08:23:36Z</time>
      </trkpt>
      <trkpt lat="36.7393320" lon="-4.4235170">
        <ele>27.9</ele>
        <time>2018-03-28T08:23:37Z</time>
      </trkpt>
      <trkpt lat="36.7393320" lon="-4.4235170">
        <ele>27.9</ele>
        <time>2018-03-28T08:23:38Z</time>
      </trkpt>
      <trkpt lat="36.7393620" lon="-4.4235280">
        <ele>27.9</ele>
        <time>2018-03-28T08:23:39Z</time>
      </trkpt>
      <trkpt lat="36.7393620" lon="-4.4235280">
        <ele>27.9</ele>
        <time>2018-03-28T08:23:40Z</time>
      </trkpt>
      <trkpt lat="36.7393830" lon="-4.4235400">
        <ele>27.9</ele>
        <time>2018-03-28T08:23:41Z</time>
      </trkpt>
      <trkpt lat="36.7393900" lon="-4.4235400">
        <ele>27.9</ele>
        <time>2018-03-28T08:23:42Z</time>
      </trkpt>
      <trkpt lat="36.7393900" lon="-4.4235400">
        <ele>27.9</ele>
        <time>2018-03-28T08:23:43Z</time>
      </trkpt>
      <trkpt lat="36.7393920" lon="-4.4235420">
        <ele>27.9</ele>
        <time>2018-03-28T08:23:44Z</time>
      </trkpt>
      <trkpt lat="36.7393920" lon="-4.4235420">
        <ele>27.9</ele>
        <time>2018-03-28T08:23:45Z</time>
      </trkpt>
      <trkpt lat="36.7393920" lon="-4.4235420">
        <ele>27.9</ele>
        <time>2018-03-28T08:23:46Z</time>
      </trkpt>
      <trkpt lat="36.7393920" lon="-4.4235420">
        <ele>27.9</ele>
        <time>2018-03-28T08:23:47Z</time>
      </trkpt>
      <trkpt lat="36.7393920" lon="-4.4235420">
        <ele>27.9</ele>
        <time>2018-03-28T08:23:48Z</time>
      </trkpt>
      <trkpt lat="36.7393920" lon="-4.4235420">
        <ele>27.9</ele>
        <time>2018-03-28T08:23:49Z</time>
      </trkpt>
      <trkpt lat="36.7393920" lon="-4.4235420">
        <ele>27.9</ele>
        <time>2018-03-28T08:23:50Z</time>
      </trkpt>
      <trkpt lat="36.7393920" lon="-4.4235420">
        <ele>27.9</ele>
        <time>2018-03-28T08:23:51Z</time>
      </trkpt>
      <trkpt lat="36.7393920" lon="-4.4235420">
        <ele>27.9</ele>
        <time>2018-03-28T08:23:52Z</time>
      </trkpt>
      <trkpt lat="36.7393920" lon="-4.4235420">
        <ele>27.9</ele>
        <time>2018-03-28T08:23:53Z</time>
      </trkpt>
      <trkpt lat="36.7394410" lon="-4.4235380">
        <ele>27.9</ele>
        <time>2018-03-28T08:23:55Z</time>
      </trkpt>
      <trkpt lat="36.7394600" lon="-4.4235390">
        <ele>27.9</ele>
        <time>2018-03-28T08:23:56Z</time>
      </trkpt>
      <trkpt lat="36.7394780" lon="-4.4235400">
        <ele>27.9</ele>
        <time>2018-03-28T08:23:57Z</time>
      </trkpt>
      <trkpt lat="36.7394780" lon="-4.4235400">
        <ele>27.9</ele>
        <time>2018-03-28T08:23:58Z</time>
      </trkpt>
      <trkpt lat="36.7395480" lon="-4.4235330">
        <ele>27.9</ele>
        <time>2018-03-28T08:23:59Z</time>
      </trkpt>
      <trkpt lat="36.7395900" lon="-4.4235250">
        <ele>27.9</ele>
        <time>2018-03-28T08:24:00Z</time>
      </trkpt>
      <trkpt lat="36.7395900" lon="-4.4235250">
        <ele>27.9</ele>
        <time>2018-03-28T08:24:01Z</time>
      </trkpt>
      <trkpt lat="36.7396950" lon="-4.4234930">
        <ele>27.9</ele>
        <time>2018-03-28T08:24:02Z</time>
      </trkpt>
      <trkpt lat="36.7397500" lon="-4.4234780">
        <ele>27.9</ele>
        <time>2018-03-28T08:24:03Z</time>
      </trkpt>
      <trkpt lat="36.7397500" lon="-4.4234780">
        <ele>27.9</ele>
        <time>2018-03-28T08:24:04Z</time>
      </trkpt>
      <trkpt lat="36.7398630" lon="-4.4234520">
        <ele>27.9</ele>
        <time>2018-03-28T08:24:05Z</time>
      </trkpt>
      <trkpt lat="36.7398630" lon="-4.4234520">
        <ele>27.9</ele>
        <time>2018-03-28T08:24:06Z</time>
      </trkpt>
      <trkpt lat="36.7399720" lon="-4.4234330">
        <ele>27.9</ele>
        <time>2018-03-28T08:24:07Z</time>
      </trkpt>
      <trkpt lat="36.7399720" lon="-4.4234330">
        <ele>27.9</ele>
        <time>2018-03-28T08:24:08Z</time>
      </trkpt>
      <trkpt lat="36.7400880" lon="-4.4234120">
        <ele>27.9</ele>
        <time>2018-03-28T08:24:09Z</time>
      </trkpt>
      <trkpt lat="36.7400880" lon="-4.4234120">
        <ele>27.9</ele>
        <time>2018-03-28T08:24:10Z</time>
      </trkpt>
      <trkpt lat="36.7402070" lon="-4.4233930">
        <ele>27.9</ele>
        <time>2018-03-28T08:24:11Z</time>
      </trkpt>
      <trkpt lat="36.7402670" lon="-4.4233830">
        <ele>27.9</ele>
        <time>2018-03-28T08:24:12Z</time>
      </trkpt>
      <trkpt lat="36.7402670" lon="-4.4233830">
        <ele>27.9</ele>
        <time>2018-03-28T08:24:13Z</time>
      </trkpt>
      <trkpt lat="36.7403870" lon="-4.4233650">
        <ele>27.9</ele>
        <time>2018-03-28T08:24:14Z</time>
      </trkpt>
      <trkpt lat="36.7404470" lon="-4.4233570">
        <ele>27.9</ele>
        <time>2018-03-28T08:24:15Z</time>
      </trkpt>
      <trkpt lat="36.7404470" lon="-4.4233570">
        <ele>27.9</ele>
        <time>2018-03-28T08:24:16Z</time>
      </trkpt>
      <trkpt lat="36.7405680" lon="-4.4233430">
        <ele>28.9</ele>
        <time>2018-03-28T08:24:17Z</time>
      </trkpt>
      <trkpt lat="36.7406320" lon="-4.4233370">
        <ele>28.9</ele>
        <time>2018-03-28T08:24:18Z</time>
      </trkpt>
      <trkpt lat="36.7406320" lon="-4.4233370">
        <ele>28.9</ele>
        <time>2018-03-28T08:24:19Z</time>
      </trkpt>
      <trkpt lat="36.7407550" lon="-4.4233180">
        <ele>28.9</ele>
        <time>2018-03-28T08:24:20Z</time>
      </trkpt>
      <trkpt lat="36.7408170" lon="-4.4233070">
        <ele>28.9</ele>
        <time>2018-03-28T08:24:21Z</time>
      </trkpt>
      <trkpt lat="36.7408170" lon="-4.4233070">
        <ele>28.9</ele>
        <time>2018-03-28T08:24:22Z</time>
      </trkpt>
      <trkpt lat="36.7409380" lon="-4.4232870">
        <ele>28.9</ele>
        <time>2018-03-28T08:24:23Z</time>
      </trkpt>
      <trkpt lat="36.7409970" lon="-4.4232780">
        <ele>28.9</ele>
        <time>2018-03-28T08:24:24Z</time>
      </trkpt>
      <trkpt lat="36.7409970" lon="-4.4232780">
        <ele>28.9</ele>
        <time>2018-03-28T08:24:25Z</time>
      </trkpt>
      <trkpt lat="36.7411200" lon="-4.4232620">
        <ele>28.9</ele>
        <time>2018-03-28T08:24:26Z</time>
      </trkpt>
      <trkpt lat="36.7411200" lon="-4.4232620">
        <ele>28.9</ele>
        <time>2018-03-28T08:24:27Z</time>
      </trkpt>
      <trkpt lat="36.7412450" lon="-4.4232500">
        <ele>28.9</ele>
        <time>2018-03-28T08:24:28Z</time>
      </trkpt>
      <trkpt lat="36.7412450" lon="-4.4232500">
        <ele>28.9</ele>
        <time>2018-03-28T08:24:29Z</time>
      </trkpt>
      <trkpt lat="36.7413680" lon="-4.4232400">
        <ele>29.9</ele>
        <time>2018-03-28T08:24:30Z</time>
      </trkpt>
      <trkpt lat="36.7413680" lon="-4.4232400">
        <ele>29.9</ele>
        <time>2018-03-28T08:24:31Z</time>
      </trkpt>
      <trkpt lat="36.7415000" lon="-4.4232300">
        <ele>29.9</ele>
        <time>2018-03-28T08:24:32Z</time>
      </trkpt>
      <trkpt lat="36.7415000" lon="-4.4232300">
        <ele>29.9</ele>
        <time>2018-03-28T08:24:33Z</time>
      </trkpt>
      <trkpt lat="36.7416250" lon="-4.4232070">
        <ele>29.9</ele>
        <time>2018-03-28T08:24:34Z</time>
      </trkpt>
      <trkpt lat="36.7416250" lon="-4.4232070">
        <ele>29.9</ele>
        <time>2018-03-28T08:24:35Z</time>
      </trkpt>
      <trkpt lat="36.7417550" lon="-4.4231850">
        <ele>29.9</ele>
        <time>2018-03-28T08:24:36Z</time>
      </trkpt>
      <trkpt lat="36.7417550" lon="-4.4231850">
        <ele>29.9</ele>
        <time>2018-03-28T08:24:37Z</time>
      </trkpt>
      <trkpt lat="36.7418800" lon="-4.4231730">
        <ele>29.9</ele>
        <time>2018-03-28T08:24:38Z</time>
      </trkpt>
      <trkpt lat="36.7419420" lon="-4.4231680">
        <ele>29.9</ele>
        <time>2018-03-28T08:24:39Z</time>
      </trkpt>
      <trkpt lat="36.7419420" lon="-4.4231680">
        <ele>29.9</ele>
        <time>2018-03-28T08:24:40Z</time>
      </trkpt>
      <trkpt lat="36.7420680" lon="-4.4231480">
        <ele>29.9</ele>
        <time>2018-03-28T08:24:41Z</time>
      </trkpt>
      <trkpt lat="36.7421300" lon="-4.4231420">
        <ele>30.9</ele>
        <time>2018-03-28T08:24:42Z</time>
      </trkpt>
      <trkpt lat="36.7421300" lon="-4.4231420">
        <ele>30.9</ele>
        <time>2018-03-28T08:24:43Z</time>
      </trkpt>
      <trkpt lat="36.7422580" lon="-4.4231230">
        <ele>30.9</ele>
        <time>2018-03-28T08:24:44Z</time>
      </trkpt>
      <trkpt lat="36.7422580" lon="-4.4231230">
        <ele>30.9</ele>
        <time>2018-03-28T08:24:45Z</time>
      </trkpt>
      <trkpt lat="36.7423900" lon="-4.4230950">
        <ele>30.9</ele>
        <time>2018-03-28T08:24:46Z</time>
      </trkpt>
      <trkpt lat="36.7424550" lon="-4.4230850">
        <ele>30.9</ele>
        <time>2018-03-28T08:24:47Z</time>
      </trkpt>
      <trkpt lat="36.7425200" lon="-4.4230750">
        <ele>30.9</ele>
        <time>2018-03-28T08:24:48Z</time>
      </trkpt>
      <trkpt lat="36.7425200" lon="-4.4230750">
        <ele>30.9</ele>
        <time>2018-03-28T08:24:49Z</time>
      </trkpt>
      <trkpt lat="36.7426520" lon="-4.4230550">
        <ele>30.9</ele>
        <time>2018-03-28T08:24:50Z</time>
      </trkpt>
      <trkpt lat="36.7426520" lon="-4.4230550">
        <ele>30.9</ele>
        <time>2018-03-28T08:24:51Z</time>
      </trkpt>
      <trkpt lat="36.7428170" lon="-4.4230320">
        <ele>30.9</ele>
        <time>2018-03-28T08:24:52Z</time>
      </trkpt>
      <trkpt lat="36.7428490" lon="-4.4230270">
        <ele>30.9</ele>
        <time>2018-03-28T08:24:53Z</time>
      </trkpt>
      <trkpt lat="36.7429130" lon="-4.4230170">
        <ele>30.9</ele>
        <time>2018-03-28T08:24:54Z</time>
      </trkpt>
      <trkpt lat="36.7429130" lon="-4.4230170">
        <ele>30.9</ele>
        <time>2018-03-28T08:24:55Z</time>
      </trkpt>
      <trkpt lat="36.7430370" lon="-4.4229980">
        <ele>30.9</ele>
        <time>2018-03-28T08:24:56Z</time>
      </trkpt>
      <trkpt lat="36.7431020" lon="-4.4229870">
        <ele>30.9</ele>
        <time>2018-03-28T08:24:57Z</time>
      </trkpt>
      <trkpt lat="36.7431020" lon="-4.4229870">
        <ele>30.9</ele>
        <time>2018-03-28T08:24:58Z</time>
      </trkpt>
      <trkpt lat="36.7432280" lon="-4.4229700">
        <ele>30.9</ele>
        <time>2018-03-28T08:24:59Z</time>
      </trkpt>
      <trkpt lat="36.7432930" lon="-4.4229600">
        <ele>30.9</ele>
        <time>2018-03-28T08:25:00Z</time>
      </trkpt>
      <trkpt lat="36.7432930" lon="-4.4229600">
        <ele>30.9</ele>
        <time>2018-03-28T08:25:01Z</time>
      </trkpt>
      <trkpt lat="36.7434220" lon="-4.4229380">
        <ele>30.9</ele>
        <time>2018-03-28T08:25:02Z</time>
      </trkpt>
      <trkpt lat="36.7435180" lon="-4.4229230">
        <ele>30.9</ele>
        <time>2018-03-28T08:25:03Z</time>
      </trkpt>
      <trkpt lat="36.7435500" lon="-4.4229160">
        <ele>31.9</ele>
        <time>2018-03-28T08:25:04Z</time>
      </trkpt>
      <trkpt lat="36.7435830" lon="-4.4229090">
        <ele>31.9</ele>
        <time>2018-03-28T08:25:05Z</time>
      </trkpt>
      <trkpt lat="36.7436800" lon="-4.4228880">
        <ele>31.9</ele>
        <time>2018-03-28T08:25:06Z</time>
      </trkpt>
      <trkpt lat="36.7437120" lon="-4.4228840">
        <ele>31.9</ele>
        <time>2018-03-28T08:25:07Z</time>
      </trkpt>
      <trkpt lat="36.7437440" lon="-4.4228800">
        <ele>31.9</ele>
        <time>2018-03-28T08:25:08Z</time>
      </trkpt>
      <trkpt lat="36.7438080" lon="-4.4228720">
        <ele>31.9</ele>
        <time>2018-03-28T08:25:09Z</time>
      </trkpt>
      <trkpt lat="36.7439380" lon="-4.4228530">
        <ele>31.9</ele>
        <time>2018-03-28T08:25:10Z</time>
      </trkpt>
      <trkpt lat="36.7439380" lon="-4.4228530">
        <ele>31.9</ele>
        <time>2018-03-28T08:25:11Z</time>
      </trkpt>
      <trkpt lat="36.7441010" lon="-4.4228320">
        <ele>31.9</ele>
        <time>2018-03-28T08:25:12Z</time>
      </trkpt>
      <trkpt lat="36.7441330" lon="-4.4228260">
        <ele>32.9</ele>
        <time>2018-03-28T08:25:13Z</time>
      </trkpt>
      <trkpt lat="36.7441980" lon="-4.4228150">
        <ele>32.9</ele>
        <time>2018-03-28T08:25:14Z</time>
      </trkpt>
      <trkpt lat="36.7441980" lon="-4.4228150">
        <ele>32.9</ele>
        <time>2018-03-28T08:25:15Z</time>
      </trkpt>
      <trkpt lat="36.7443280" lon="-4.4228030">
        <ele>32.9</ele>
        <time>2018-03-28T08:25:16Z</time>
      </trkpt>
      <trkpt lat="36.7443930" lon="-4.4227960">
        <ele>32.9</ele>
        <time>2018-03-28T08:25:17Z</time>
      </trkpt>
      <trkpt lat="36.7444570" lon="-4.4227880">
        <ele>32.9</ele>
        <time>2018-03-28T08:25:18Z</time>
      </trkpt>
      <trkpt lat="36.7445220" lon="-4.4227810">
        <ele>32.9</ele>
        <time>2018-03-28T08:25:19Z</time>
      </trkpt>
      <trkpt lat="36.7446280" lon="-4.4227680">
        <ele>32.9</ele>
        <time>2018-03-28T08:25:20Z</time>
      </trkpt>
      <trkpt lat="36.7446700" lon="-4.4227640">
        <ele>32.9</ele>
        <time>2018-03-28T08:25:21Z</time>
      </trkpt>
      <trkpt lat="36.7447130" lon="-4.4227600">
        <ele>33.9</ele>
        <time>2018-03-28T08:25:22Z</time>
      </trkpt>
      <trkpt lat="36.7447770" lon="-4.4227520">
        <ele>33.9</ele>
        <time>2018-03-28T08:25:23Z</time>
      </trkpt>
      <trkpt lat="36.7447770" lon="-4.4227520">
        <ele>33.9</ele>
        <time>2018-03-28T08:25:24Z</time>
      </trkpt>
      <trkpt lat="36.7449050" lon="-4.4227320">
        <ele>33.9</ele>
        <time>2018-03-28T08:25:25Z</time>
      </trkpt>
      <trkpt lat="36.7449050" lon="-4.4227320">
        <ele>33.9</ele>
        <time>2018-03-28T08:25:26Z</time>
      </trkpt>
      <trkpt lat="36.7450650" lon="-4.4227100">
        <ele>33.9</ele>
        <time>2018-03-28T08:25:27Z</time>
      </trkpt>
      <trkpt lat="36.7450970" lon="-4.4227040">
        <ele>33.9</ele>
        <time>2018-03-28T08:25:28Z</time>
      </trkpt>
      <trkpt lat="36.7451600" lon="-4.4226930">
        <ele>33.9</ele>
        <time>2018-03-28T08:25:29Z</time>
      </trkpt>
      <trkpt lat="36.7451930" lon="-4.4226860">
        <ele>33.9</ele>
        <time>2018-03-28T08:25:30Z</time>
      </trkpt>
      <trkpt lat="36.7452250" lon="-4.4226780">
        <ele>33.9</ele>
        <time>2018-03-28T08:25:31Z</time>
      </trkpt>
      <trkpt lat="36.7452900" lon="-4.4226630">
        <ele>33.9</ele>
        <time>2018-03-28T08:25:32Z</time>
      </trkpt>
      <trkpt lat="36.7454470" lon="-4.4226380">
        <ele>33.9</ele>
        <time>2018-03-28T08:25:33Z</time>
      </trkpt>
      <trkpt lat="36.7454770" lon="-4.4226330">
        <ele>33.9</ele>
        <time>2018-03-28T08:25:34Z</time>
      </trkpt>
      <trkpt lat="36.7455370" lon="-4.4226220">
        <ele>34.9</ele>
        <time>2018-03-28T08:25:35Z</time>
      </trkpt>
      <trkpt lat="36.7455950" lon="-4.4226150">
        <ele>34.9</ele>
        <time>2018-03-28T08:25:36Z</time>
      </trkpt>
      <trkpt lat="36.7455950" lon="-4.4226150">
        <ele>34.9</ele>
        <time>2018-03-28T08:25:37Z</time>
      </trkpt>
      <trkpt lat="36.7457150" lon="-4.4225980">
        <ele>34.9</ele>
        <time>2018-03-28T08:25:38Z</time>
      </trkpt>
      <trkpt lat="36.7457770" lon="-4.4225880">
        <ele>34.9</ele>
        <time>2018-03-28T08:25:39Z</time>
      </trkpt>
      <trkpt lat="36.7457770" lon="-4.4225880">
        <ele>34.9</ele>
        <time>2018-03-28T08:25:40Z</time>
      </trkpt>
      <trkpt lat="36.7459030" lon="-4.4225720">
        <ele>35.9</ele>
        <time>2018-03-28T08:25:41Z</time>
      </trkpt>
      <trkpt lat="36.7459650" lon="-4.4225670">
        <ele>35.9</ele>
        <time>2018-03-28T08:25:42Z</time>
      </trkpt>
      <trkpt lat="36.7459650" lon="-4.4225670">
        <ele>35.9</ele>
        <time>2018-03-28T08:25:43Z</time>
      </trkpt>
      <trkpt lat="36.7460870" lon="-4.4225570">
        <ele>35.9</ele>
        <time>2018-03-28T08:25:44Z</time>
      </trkpt>
      <trkpt lat="36.7460870" lon="-4.4225570">
        <ele>35.9</ele>
        <time>2018-03-28T08:25:45Z</time>
      </trkpt>
      <trkpt lat="36.7462100" lon="-4.4225450">
        <ele>35.9</ele>
        <time>2018-03-28T08:25:46Z</time>
      </trkpt>
      <trkpt lat="36.7462700" lon="-4.4225430">
        <ele>35.9</ele>
        <time>2018-03-28T08:25:47Z</time>
      </trkpt>
      <trkpt lat="36.7463300" lon="-4.4225400">
        <ele>35.9</ele>
        <time>2018-03-28T08:25:48Z</time>
      </trkpt>
      <trkpt lat="36.7463300" lon="-4.4225400">
        <ele>35.9</ele>
        <time>2018-03-28T08:25:49Z</time>
      </trkpt>
      <trkpt lat="36.7464570" lon="-4.4225330">
        <ele>35.9</ele>
        <time>2018-03-28T08:25:50Z</time>
      </trkpt>
      <trkpt lat="36.7464570" lon="-4.4225330">
        <ele>35.9</ele>
        <time>2018-03-28T08:25:51Z</time>
      </trkpt>
      <trkpt lat="36.7465870" lon="-4.4225330">
        <ele>35.9</ele>
        <time>2018-03-28T08:25:52Z</time>
      </trkpt>
      <trkpt lat="36.7466360" lon="-4.4225380">
        <ele>35.9</ele>
        <time>2018-03-28T08:25:53Z</time>
      </trkpt>
      <trkpt lat="36.7466850" lon="-4.4225440">
        <ele>35.9</ele>
        <time>2018-03-28T08:25:54Z</time>
      </trkpt>
      <trkpt lat="36.7467820" lon="-4.4225550">
        <ele>35.9</ele>
        <time>2018-03-28T08:25:55Z</time>
      </trkpt>
      <trkpt lat="36.7468110" lon="-4.4225620">
        <ele>35.9</ele>
        <time>2018-03-28T08:25:56Z</time>
      </trkpt>
      <trkpt lat="36.7468400" lon="-4.4225690">
        <ele>36.9</ele>
        <time>2018-03-28T08:25:57Z</time>
      </trkpt>
      <trkpt lat="36.7468980" lon="-4.4225830">
        <ele>36.9</ele>
        <time>2018-03-28T08:25:58Z</time>
      </trkpt>
      <trkpt lat="36.7470070" lon="-4.4226100">
        <ele>36.9</ele>
        <time>2018-03-28T08:25:59Z</time>
      </trkpt>
      <trkpt lat="36.7470070" lon="-4.4226100">
        <ele>36.9</ele>
        <time>2018-03-28T08:26:00Z</time>
      </trkpt>
      <trkpt lat="36.7471050" lon="-4.4226520">
        <ele>36.9</ele>
        <time>2018-03-28T08:26:01Z</time>
      </trkpt>
      <trkpt lat="36.7471050" lon="-4.4226520">
        <ele>36.9</ele>
        <time>2018-03-28T08:26:02Z</time>
      </trkpt>
      <trkpt lat="36.7472000" lon="-4.4226850">
        <ele>36.9</ele>
        <time>2018-03-28T08:26:03Z</time>
      </trkpt>
      <trkpt lat="36.7472000" lon="-4.4226850">
        <ele>36.9</ele>
        <time>2018-03-28T08:26:04Z</time>
      </trkpt>
      <trkpt lat="36.7472850" lon="-4.4227280">
        <ele>36.9</ele>
        <time>2018-03-28T08:26:05Z</time>
      </trkpt>
      <trkpt lat="36.7473230" lon="-4.4227480">
        <ele>36.9</ele>
        <time>2018-03-28T08:26:06Z</time>
      </trkpt>
      <trkpt lat="36.7473230" lon="-4.4227480">
        <ele>36.9</ele>
        <time>2018-03-28T08:26:07Z</time>
      </trkpt>
      <trkpt lat="36.7473920" lon="-4.4227800">
        <ele>36.9</ele>
        <time>2018-03-28T08:26:08Z</time>
      </trkpt>
      <trkpt lat="36.7474180" lon="-4.4227920">
        <ele>36.9</ele>
        <time>2018-03-28T08:26:09Z</time>
      </trkpt>
      <trkpt lat="36.7474180" lon="-4.4227920">
        <ele>36.9</ele>
        <time>2018-03-28T08:26:10Z</time>
      </trkpt>
      <trkpt lat="36.7474620" lon="-4.4228130">
        <ele>36.9</ele>
        <time>2018-03-28T08:26:11Z</time>
      </trkpt>
      <trkpt lat="36.7474820" lon="-4.4228230">
        <ele>36.9</ele>
        <time>2018-03-28T08:26:12Z</time>
      </trkpt>
      <trkpt lat="36.7474820" lon="-4.4228230">
        <ele>36.9</ele>
        <time>2018-03-28T08:26:13Z</time>
      </trkpt>
      <trkpt lat="36.7475170" lon="-4.4228430">
        <ele>36.9</ele>
        <time>2018-03-28T08:26:14Z</time>
      </trkpt>
      <trkpt lat="36.7475330" lon="-4.4228520">
        <ele>36.9</ele>
        <time>2018-03-28T08:26:15Z</time>
      </trkpt>
      <trkpt lat="36.7475330" lon="-4.4228520">
        <ele>36.9</ele>
        <time>2018-03-28T08:26:16Z</time>
      </trkpt>
      <trkpt lat="36.7475600" lon="-4.4228730">
        <ele>36.9</ele>
        <time>2018-03-28T08:26:17Z</time>
      </trkpt>
      <trkpt lat="36.7475600" lon="-4.4228730">
        <ele>36.9</ele>
        <time>2018-03-28T08:26:18Z</time>
      </trkpt>
      <trkpt lat="36.7475820" lon="-4.4228900">
        <ele>36.9</ele>
        <time>2018-03-28T08:26:19Z</time>
      </trkpt>
      <trkpt lat="36.7475820" lon="-4.4228900">
        <ele>36.9</ele>
        <time>2018-03-28T08:26:20Z</time>
      </trkpt>
      <trkpt lat="36.7475920" lon="-4.4228970">
        <ele>36.9</ele>
        <time>2018-03-28T08:26:21Z</time>
      </trkpt>
      <trkpt lat="36.7475920" lon="-4.4228970">
        <ele>36.9</ele>
        <time>2018-03-28T08:26:22Z</time>
      </trkpt>
      <trkpt lat="36.7475920" lon="-4.4228980">
        <ele>36.9</ele>
        <time>2018-03-28T08:26:23Z</time>
      </trkpt>
      <trkpt lat="36.7476060" lon="-4.4229050">
        <ele>36.9</ele>
        <time>2018-03-28T08:26:24Z</time>
      </trkpt>
      <trkpt lat="36.7476190" lon="-4.4229110">
        <ele>36.9</ele>
        <time>2018-03-28T08:26:25Z</time>
      </trkpt>
      <trkpt lat="36.7476330" lon="-4.4229180">
        <ele>36.9</ele>
        <time>2018-03-28T08:26:26Z</time>
      </trkpt>
      <trkpt lat="36.7476460" lon="-4.4229250">
        <ele>36.9</ele>
        <time>2018-03-28T08:26:27Z</time>
      </trkpt>
      <trkpt lat="36.7476600" lon="-4.4229320">
        <ele>36.9</ele>
        <time>2018-03-28T08:26:28Z</time>
      </trkpt>
      <trkpt lat="36.7476730" lon="-4.4229380">
        <ele>36.9</ele>
        <time>2018-03-28T08:26:29Z</time>
      </trkpt>
      <trkpt lat="36.7476870" lon="-4.4229450">
        <ele>36.9</ele>
        <time>2018-03-28T08:26:32Z</time>
      </trkpt>
      <trkpt lat="36.7477000" lon="-4.4229520">
        <ele>36.9</ele>
        <time>2018-03-28T08:26:33Z</time>
      </trkpt>
      <trkpt lat="36.7477630" lon="-4.4229880">
        <ele>36.9</ele>
        <time>2018-03-28T08:26:34Z</time>
      </trkpt>
      <trkpt lat="36.7477630" lon="-4.4229880">
        <ele>36.9</ele>
        <time>2018-03-28T08:26:35Z</time>
      </trkpt>
      <trkpt lat="36.7478420" lon="-4.4230280">
        <ele>36.9</ele>
        <time>2018-03-28T08:26:36Z</time>
      </trkpt>
      <trkpt lat="36.7478420" lon="-4.4230280">
        <ele>36.9</ele>
        <time>2018-03-28T08:26:37Z</time>
      </trkpt>
      <trkpt lat="36.7479330" lon="-4.4230780">
        <ele>36.9</ele>
        <time>2018-03-28T08:26:38Z</time>
      </trkpt>
      <trkpt lat="36.7479830" lon="-4.4231070">
        <ele>36.9</ele>
        <time>2018-03-28T08:26:39Z</time>
      </trkpt>
      <trkpt lat="36.7480380" lon="-4.4231370">
        <ele>36.9</ele>
        <time>2018-03-28T08:26:40Z</time>
      </trkpt>
      <trkpt lat="36.7480380" lon="-4.4231370">
        <ele>37.9</ele>
        <time>2018-03-28T08:26:41Z</time>
      </trkpt>
      <trkpt lat="36.7481400" lon="-4.4231900">
        <ele>37.9</ele>
        <time>2018-03-28T08:26:42Z</time>
      </trkpt>
      <trkpt lat="36.7481400" lon="-4.4231900">
        <ele>37.9</ele>
        <time>2018-03-28T08:26:43Z</time>
      </trkpt>
      <trkpt lat="36.7482420" lon="-4.4232470">
        <ele>37.9</ele>
        <time>2018-03-28T08:26:44Z</time>
      </trkpt>
      <trkpt lat="36.7482930" lon="-4.4232750">
        <ele>37.9</ele>
        <time>2018-03-28T08:26:45Z</time>
      </trkpt>
      <trkpt lat="36.7482930" lon="-4.4232750">
        <ele>37.9</ele>
        <time>2018-03-28T08:26:46Z</time>
      </trkpt>
      <trkpt lat="36.7484290" lon="-4.4233450">
        <ele>37.9</ele>
        <time>2018-03-28T08:26:47Z</time>
      </trkpt>
      <trkpt lat="36.7484550" lon="-4.4233610">
        <ele>37.9</ele>
        <time>2018-03-28T08:26:48Z</time>
      </trkpt>
      <trkpt lat="36.7485070" lon="-4.4233930">
        <ele>37.9</ele>
        <time>2018-03-28T08:26:49Z</time>
      </trkpt>
      <trkpt lat="36.7485070" lon="-4.4233930">
        <ele>37.9</ele>
        <time>2018-03-28T08:26:50Z</time>
      </trkpt>
      <trkpt lat="36.7486150" lon="-4.4234530">
        <ele>37.9</ele>
        <time>2018-03-28T08:26:51Z</time>
      </trkpt>
      <trkpt lat="36.7486680" lon="-4.4234850">
        <ele>37.9</ele>
        <time>2018-03-28T08:26:52Z</time>
      </trkpt>
      <trkpt lat="36.7486680" lon="-4.4234850">
        <ele>37.9</ele>
        <time>2018-03-28T08:26:53Z</time>
      </trkpt>
      <trkpt lat="36.7487730" lon="-4.4235480">
        <ele>37.9</ele>
        <time>2018-03-28T08:26:54Z</time>
      </trkpt>
      <trkpt lat="36.7488140" lon="-4.4235700">
        <ele>37.9</ele>
        <time>2018-03-28T08:26:55Z</time>
      </trkpt>
      <trkpt lat="36.7488550" lon="-4.4235930">
        <ele>37.9</ele>
        <time>2018-03-28T08:26:56Z</time>
      </trkpt>
      <trkpt lat="36.7488960" lon="-4.4236150">
        <ele>37.9</ele>
        <time>2018-03-28T08:26:57Z</time>
      </trkpt>
      <trkpt lat="36.7489370" lon="-4.4236380">
        <ele>37.9</ele>
        <time>2018-03-28T08:26:58Z</time>
      </trkpt>
      <trkpt lat="36.7490400" lon="-4.4237020">
        <ele>37.9</ele>
        <time>2018-03-28T08:26:59Z</time>
      </trkpt>
      <trkpt lat="36.7490920" lon="-4.4237320">
        <ele>37.9</ele>
        <time>2018-03-28T08:27:00Z</time>
      </trkpt>
      <trkpt lat="36.7491320" lon="-4.4237550">
        <ele>38.9</ele>
        <time>2018-03-28T08:27:01Z</time>
      </trkpt>
      <trkpt lat="36.7491710" lon="-4.4237790">
        <ele>38.9</ele>
        <time>2018-03-28T08:27:02Z</time>
      </trkpt>
      <trkpt lat="36.7492900" lon="-4.4238400">
        <ele>38.9</ele>
        <time>2018-03-28T08:27:03Z</time>
      </trkpt>
      <trkpt lat="36.7493300" lon="-4.4238540">
        <ele>38.9</ele>
        <time>2018-03-28T08:27:04Z</time>
      </trkpt>
      <trkpt lat="36.7493700" lon="-4.4238670">
        <ele>38.9</ele>
        <time>2018-03-28T08:27:05Z</time>
      </trkpt>
      <trkpt lat="36.7494100" lon="-4.4238800">
        <ele>38.9</ele>
        <time>2018-03-28T08:27:06Z</time>
      </trkpt>
      <trkpt lat="36.7494500" lon="-4.4238940">
        <ele>38.9</ele>
        <time>2018-03-28T08:27:07Z</time>
      </trkpt>
      <trkpt lat="36.7494900" lon="-4.4239070">
        <ele>38.9</ele>
        <time>2018-03-28T08:27:08Z</time>
      </trkpt>
      <trkpt lat="36.7495720" lon="-4.4238980">
        <ele>38.9</ele>
        <time>2018-03-28T08:27:09Z</time>
      </trkpt>
      <trkpt lat="36.7496270" lon="-4.4238820">
        <ele>38.9</ele>
        <time>2018-03-28T08:27:10Z</time>
      </trkpt>
      <trkpt lat="36.7496270" lon="-4.4238820">
        <ele>39.9</ele>
        <time>2018-03-28T08:27:11Z</time>
      </trkpt>
      <trkpt lat="36.7497400" lon="-4.4238770">
        <ele>39.9</ele>
        <time>2018-03-28T08:27:12Z</time>
      </trkpt>
      <trkpt lat="36.7497830" lon="-4.4238990">
        <ele>39.9</ele>
        <time>2018-03-28T08:27:13Z</time>
      </trkpt>
      <trkpt lat="36.7498250" lon="-4.4239200">
        <ele>39.9</ele>
        <time>2018-03-28T08:27:14Z</time>
      </trkpt>
      <trkpt lat="36.7498680" lon="-4.4239420">
        <ele>39.9</ele>
        <time>2018-03-28T08:27:15Z</time>
      </trkpt>
      <trkpt lat="36.7498920" lon="-4.4239600">
        <ele>39.9</ele>
        <time>2018-03-28T08:27:16Z</time>
      </trkpt>
      <trkpt lat="36.7499820" lon="-4.4240470">
        <ele>39.9</ele>
        <time>2018-03-28T08:27:17Z</time>
      </trkpt>
      <trkpt lat="36.7500060" lon="-4.4240640">
        <ele>39.9</ele>
        <time>2018-03-28T08:27:18Z</time>
      </trkpt>
      <trkpt lat="36.7500300" lon="-4.4240820">
        <ele>39.9</ele>
        <time>2018-03-28T08:27:19Z</time>
      </trkpt>
      <trkpt lat="36.7500780" lon="-4.4241170">
        <ele>39.9</ele>
        <time>2018-03-28T08:27:20Z</time>
      </trkpt>
      <trkpt lat="36.7501800" lon="-4.4241770">
        <ele>39.9</ele>
        <time>2018-03-28T08:27:21Z</time>
      </trkpt>
      <trkpt lat="36.7502160" lon="-4.4242030">
        <ele>39.9</ele>
        <time>2018-03-28T08:27:22Z</time>
      </trkpt>
      <trkpt lat="36.7502510" lon="-4.4242290">
        <ele>39.9</ele>
        <time>2018-03-28T08:27:23Z</time>
      </trkpt>
      <trkpt lat="36.7503220" lon="-4.4242820">
        <ele>39.9</ele>
        <time>2018-03-28T08:27:24Z</time>
      </trkpt>
      <trkpt lat="36.7503220" lon="-4.4242820">
        <ele>39.9</ele>
        <time>2018-03-28T08:27:25Z</time>
      </trkpt>
      <trkpt lat="36.7504220" lon="-4.4243480">
        <ele>39.9</ele>
        <time>2018-03-28T08:27:26Z</time>
      </trkpt>
      <trkpt lat="36.7504750" lon="-4.4243850">
        <ele>39.9</ele>
        <time>2018-03-28T08:27:27Z</time>
      </trkpt>
      <trkpt lat="36.7504750" lon="-4.4243850">
        <ele>39.9</ele>
        <time>2018-03-28T08:27:28Z</time>
      </trkpt>
      <trkpt lat="36.7505940" lon="-4.4244520">
        <ele>39.9</ele>
        <time>2018-03-28T08:27:29Z</time>
      </trkpt>
      <trkpt lat="36.7506070" lon="-4.4244600">
        <ele>41.9</ele>
        <time>2018-03-28T08:27:30Z</time>
      </trkpt>
      <trkpt lat="36.7506330" lon="-4.4244750">
        <ele>41.9</ele>
        <time>2018-03-28T08:27:31Z</time>
      </trkpt>
      <trkpt lat="36.7507330" lon="-4.4245400">
        <ele>41.9</ele>
        <time>2018-03-28T08:27:32Z</time>
      </trkpt>
      <trkpt lat="36.7507330" lon="-4.4245400">
        <ele>41.9</ele>
        <time>2018-03-28T08:27:33Z</time>
      </trkpt>
      <trkpt lat="36.7508350" lon="-4.4246020">
        <ele>41.9</ele>
        <time>2018-03-28T08:27:34Z</time>
      </trkpt>
      <trkpt lat="36.7508870" lon="-4.4246330">
        <ele>41.9</ele>
        <time>2018-03-28T08:27:35Z</time>
      </trkpt>
      <trkpt lat="36.7509400" lon="-4.4246650">
        <ele>41.9</ele>
        <time>2018-03-28T08:27:36Z</time>
      </trkpt>
      <trkpt lat="36.7509400" lon="-4.4246650">
        <ele>41.9</ele>
        <time>2018-03-28T08:27:37Z</time>
      </trkpt>
      <trkpt lat="36.7510520" lon="-4.4247250">
        <ele>41.9</ele>
        <time>2018-03-28T08:27:38Z</time>
      </trkpt>
      <trkpt lat="36.7510520" lon="-4.4247250">
        <ele>41.9</ele>
        <time>2018-03-28T08:27:39Z</time>
      </trkpt>
      <trkpt lat="36.7511730" lon="-4.4247750">
        <ele>41.9</ele>
        <time>2018-03-28T08:27:40Z</time>
      </trkpt>
      <trkpt lat="36.7511730" lon="-4.4247750">
        <ele>41.9</ele>
        <time>2018-03-28T08:27:41Z</time>
      </trkpt>
      <trkpt lat="36.7512880" lon="-4.4248130">
        <ele>41.9</ele>
        <time>2018-03-28T08:27:42Z</time>
      </trkpt>
      <trkpt lat="36.7512880" lon="-4.4248130">
        <ele>42.9</ele>
        <time>2018-03-28T08:27:43Z</time>
      </trkpt>
      <trkpt lat="36.7514030" lon="-4.4248600">
        <ele>42.9</ele>
        <time>2018-03-28T08:27:44Z</time>
      </trkpt>
      <trkpt lat="36.7514030" lon="-4.4248600">
        <ele>42.9</ele>
        <time>2018-03-28T08:27:45Z</time>
      </trkpt>
      <trkpt lat="36.7515510" lon="-4.4249280">
        <ele>42.9</ele>
        <time>2018-03-28T08:27:46Z</time>
      </trkpt>
      <trkpt lat="36.7515790" lon="-4.4249440">
        <ele>42.9</ele>
        <time>2018-03-28T08:27:47Z</time>
      </trkpt>
      <trkpt lat="36.7516350" lon="-4.4249750">
        <ele>42.9</ele>
        <time>2018-03-28T08:27:48Z</time>
      </trkpt>
      <trkpt lat="36.7516620" lon="-4.4249900">
        <ele>42.9</ele>
        <time>2018-03-28T08:27:49Z</time>
      </trkpt>
      <trkpt lat="36.7516890" lon="-4.4250050">
        <ele>42.9</ele>
        <time>2018-03-28T08:27:50Z</time>
      </trkpt>
      <trkpt lat="36.7517420" lon="-4.4250350">
        <ele>42.9</ele>
        <time>2018-03-28T08:27:51Z</time>
      </trkpt>
      <trkpt lat="36.7518330" lon="-4.4250920">
        <ele>42.9</ele>
        <time>2018-03-28T08:27:52Z</time>
      </trkpt>
      <trkpt lat="36.7518750" lon="-4.4251170">
        <ele>42.9</ele>
        <time>2018-03-28T08:27:53Z</time>
      </trkpt>
      <trkpt lat="36.7519220" lon="-4.4251420">
        <ele>42.9</ele>
        <time>2018-03-28T08:27:54Z</time>
      </trkpt>
      <trkpt lat="36.7519220" lon="-4.4251420">
        <ele>42.9</ele>
        <time>2018-03-28T08:27:55Z</time>
      </trkpt>
      <trkpt lat="36.7520150" lon="-4.4251920">
        <ele>42.9</ele>
        <time>2018-03-28T08:27:56Z</time>
      </trkpt>
      <trkpt lat="36.7520150" lon="-4.4251920">
        <ele>42.9</ele>
        <time>2018-03-28T08:27:57Z</time>
      </trkpt>
      <trkpt lat="36.7521220" lon="-4.4252690">
        <ele>42.9</ele>
        <time>2018-03-28T08:27:58Z</time>
      </trkpt>
      <trkpt lat="36.7521410" lon="-4.4252880">
        <ele>42.9</ele>
        <time>2018-03-28T08:27:59Z</time>
      </trkpt>
      <trkpt lat="36.7521780" lon="-4.4253270">
        <ele>42.9</ele>
        <time>2018-03-28T08:28:00Z</time>
      </trkpt>
      <trkpt lat="36.7521780" lon="-4.4253270">
        <ele>42.9</ele>
        <time>2018-03-28T08:28:01Z</time>
      </trkpt>
      <trkpt lat="36.7522850" lon="-4.4253850">
        <ele>42.9</ele>
        <time>2018-03-28T08:28:02Z</time>
      </trkpt>
      <trkpt lat="36.7522850" lon="-4.4253850">
        <ele>42.9</ele>
        <time>2018-03-28T08:28:03Z</time>
      </trkpt>
      <trkpt lat="36.7523930" lon="-4.4254400">
        <ele>42.9</ele>
        <time>2018-03-28T08:28:04Z</time>
      </trkpt>
      <trkpt lat="36.7524470" lon="-4.4254680">
        <ele>42.9</ele>
        <time>2018-03-28T08:28:05Z</time>
      </trkpt>
      <trkpt lat="36.7524470" lon="-4.4254680">
        <ele>42.9</ele>
        <time>2018-03-28T08:28:06Z</time>
      </trkpt>
      <trkpt lat="36.7525530" lon="-4.4255270">
        <ele>42.9</ele>
        <time>2018-03-28T08:28:07Z</time>
      </trkpt>
      <trkpt lat="36.7525530" lon="-4.4255270">
        <ele>43.9</ele>
        <time>2018-03-28T08:28:08Z</time>
      </trkpt>
      <trkpt lat="36.7526730" lon="-4.4255860">
        <ele>43.9</ele>
        <time>2018-03-28T08:28:09Z</time>
      </trkpt>
      <trkpt lat="36.7526880" lon="-4.4255900">
        <ele>43.9</ele>
        <time>2018-03-28T08:28:10Z</time>
      </trkpt>
      <trkpt lat="36.7527180" lon="-4.4255980">
        <ele>43.9</ele>
        <time>2018-03-28T08:28:11Z</time>
      </trkpt>
      <trkpt lat="36.7528300" lon="-4.4256300">
        <ele>43.9</ele>
        <time>2018-03-28T08:28:12Z</time>
      </trkpt>
      <trkpt lat="36.7528300" lon="-4.4256300">
        <ele>43.9</ele>
        <time>2018-03-28T08:28:13Z</time>
      </trkpt>
      <trkpt lat="36.7529430" lon="-4.4256570">
        <ele>43.9</ele>
        <time>2018-03-28T08:28:14Z</time>
      </trkpt>
      <trkpt lat="36.7529430" lon="-4.4256570">
        <ele>43.9</ele>
        <time>2018-03-28T08:28:15Z</time>
      </trkpt>
      <trkpt lat="36.7530500" lon="-4.4256520">
        <ele>43.9</ele>
        <time>2018-03-28T08:28:16Z</time>
      </trkpt>
      <trkpt lat="36.7530500" lon="-4.4256520">
        <ele>44.9</ele>
        <time>2018-03-28T08:28:17Z</time>
      </trkpt>
      <trkpt lat="36.7531710" lon="-4.4256030">
        <ele>44.9</ele>
        <time>2018-03-28T08:28:18Z</time>
      </trkpt>
      <trkpt lat="36.7531890" lon="-4.4255790">
        <ele>44.9</ele>
        <time>2018-03-28T08:28:19Z</time>
      </trkpt>
      <trkpt lat="36.7532250" lon="-4.4255300">
        <ele>44.9</ele>
        <time>2018-03-28T08:28:20Z</time>
      </trkpt>
      <trkpt lat="36.7532250" lon="-4.4255300">
        <ele>44.9</ele>
        <time>2018-03-28T08:28:21Z</time>
      </trkpt>
      <trkpt lat="36.7532770" lon="-4.4253950">
        <ele>44.9</ele>
        <time>2018-03-28T08:28:22Z</time>
      </trkpt>
      <trkpt lat="36.7533020" lon="-4.4253270">
        <ele>45.9</ele>
        <time>2018-03-28T08:28:23Z</time>
      </trkpt>
      <trkpt lat="36.7533250" lon="-4.4252580">
        <ele>45.9</ele>
        <time>2018-03-28T08:28:24Z</time>
      </trkpt>
      <trkpt lat="36.7533370" lon="-4.4252240">
        <ele>45.9</ele>
        <time>2018-03-28T08:28:25Z</time>
      </trkpt>
      <trkpt lat="36.7533490" lon="-4.4251890">
        <ele>45.9</ele>
        <time>2018-03-28T08:28:26Z</time>
      </trkpt>
      <trkpt lat="36.7533890" lon="-4.4250750">
        <ele>45.9</ele>
        <time>2018-03-28T08:28:27Z</time>
      </trkpt>
      <trkpt lat="36.7534060" lon="-4.4250300">
        <ele>45.9</ele>
        <time>2018-03-28T08:28:28Z</time>
      </trkpt>
      <trkpt lat="36.7534220" lon="-4.4249850">
        <ele>45.9</ele>
        <time>2018-03-28T08:28:29Z</time>
      </trkpt>
      <trkpt lat="36.7534630" lon="-4.4248500">
        <ele>45.9</ele>
        <time>2018-03-28T08:28:30Z</time>
      </trkpt>
      <trkpt lat="36.7534690" lon="-4.4247980">
        <ele>45.9</ele>
        <time>2018-03-28T08:28:31Z</time>
      </trkpt>
      <trkpt lat="36.7534750" lon="-4.4247450">
        <ele>45.9</ele>
        <time>2018-03-28T08:28:32Z</time>
      </trkpt>
      <trkpt lat="36.7534870" lon="-4.4246400">
        <ele>45.9</ele>
        <time>2018-03-28T08:28:33Z</time>
      </trkpt>
      <trkpt lat="36.7534870" lon="-4.4246400">
        <ele>45.9</ele>
        <time>2018-03-28T08:28:34Z</time>
      </trkpt>
      <trkpt lat="36.7535280" lon="-4.4245080">
        <ele>45.9</ele>
        <time>2018-03-28T08:28:35Z</time>
      </trkpt>
      <trkpt lat="36.7535700" lon="-4.4244570">
        <ele>45.9</ele>
        <time>2018-03-28T08:28:36Z</time>
      </trkpt>
      <trkpt lat="36.7535700" lon="-4.4244570">
        <ele>45.9</ele>
        <time>2018-03-28T08:28:37Z</time>
      </trkpt>
      <trkpt lat="36.7536700" lon="-4.4244080">
        <ele>45.9</ele>
        <time>2018-03-28T08:28:38Z</time>
      </trkpt>
      <trkpt lat="36.7536700" lon="-4.4244080">
        <ele>45.9</ele>
        <time>2018-03-28T08:28:39Z</time>
      </trkpt>
      <trkpt lat="36.7537650" lon="-4.4244620">
        <ele>45.9</ele>
        <time>2018-03-28T08:28:40Z</time>
      </trkpt>
      <trkpt lat="36.7537650" lon="-4.4244620">
        <ele>45.9</ele>
        <time>2018-03-28T08:28:41Z</time>
      </trkpt>
      <trkpt lat="36.7538490" lon="-4.4245830">
        <ele>45.9</ele>
        <time>2018-03-28T08:28:42Z</time>
      </trkpt>
      <trkpt lat="36.7538600" lon="-4.4245940">
        <ele>45.9</ele>
        <time>2018-03-28T08:28:43Z</time>
      </trkpt>
      <trkpt lat="36.7538820" lon="-4.4246170">
        <ele>45.9</ele>
        <time>2018-03-28T08:28:44Z</time>
      </trkpt>
      <trkpt lat="36.7539900" lon="-4.4246870">
        <ele>45.9</ele>
        <time>2018-03-28T08:28:45Z</time>
      </trkpt>
      <trkpt lat="36.7540370" lon="-4.4247100">
        <ele>45.9</ele>
        <time>2018-03-28T08:28:46Z</time>
      </trkpt>
      <trkpt lat="36.7540840" lon="-4.4247330">
        <ele>45.9</ele>
        <time>2018-03-28T08:28:47Z</time>
      </trkpt>
      <trkpt lat="36.7542090" lon="-4.4247950">
        <ele>45.9</ele>
        <time>2018-03-28T08:28:48Z</time>
      </trkpt>
      <trkpt lat="36.7542410" lon="-4.4248110">
        <ele>45.9</ele>
        <time>2018-03-28T08:28:49Z</time>
      </trkpt>
      <trkpt lat="36.7543050" lon="-4.4248430">
        <ele>45.9</ele>
        <time>2018-03-28T08:28:50Z</time>
      </trkpt>
      <trkpt lat="36.7543670" lon="-4.4248800">
        <ele>45.9</ele>
        <time>2018-03-28T08:28:51Z</time>
      </trkpt>
      <trkpt lat="36.7544270" lon="-4.4249130">
        <ele>45.9</ele>
        <time>2018-03-28T08:28:52Z</time>
      </trkpt>
      <trkpt lat="36.7544270" lon="-4.4249130">
        <ele>45.9</ele>
        <time>2018-03-28T08:28:53Z</time>
      </trkpt>
      <trkpt lat="36.7545480" lon="-4.4249730">
        <ele>45.9</ele>
        <time>2018-03-28T08:28:54Z</time>
      </trkpt>
      <trkpt lat="36.7545480" lon="-4.4249730">
        <ele>45.9</ele>
        <time>2018-03-28T08:28:55Z</time>
      </trkpt>
      <trkpt lat="36.7546730" lon="-4.4250300">
        <ele>45.9</ele>
        <time>2018-03-28T08:28:56Z</time>
      </trkpt>
      <trkpt lat="36.7547050" lon="-4.4250400">
        <ele>45.9</ele>
        <time>2018-03-28T08:28:57Z</time>
      </trkpt>
      <trkpt lat="36.7547360" lon="-4.4250510">
        <ele>45.9</ele>
        <time>2018-03-28T08:28:58Z</time>
      </trkpt>
      <trkpt lat="36.7547980" lon="-4.4250730">
        <ele>45.9</ele>
        <time>2018-03-28T08:28:59Z</time>
      </trkpt>
      <trkpt lat="36.7549230" lon="-4.4251100">
        <ele>45.9</ele>
        <time>2018-03-28T08:29:00Z</time>
      </trkpt>
      <trkpt lat="36.7549230" lon="-4.4251100">
        <ele>45.9</ele>
        <time>2018-03-28T08:29:01Z</time>
      </trkpt>
      <trkpt lat="36.7550480" lon="-4.4251320">
        <ele>45.9</ele>
        <time>2018-03-28T08:29:02Z</time>
      </trkpt>
      <trkpt lat="36.7550480" lon="-4.4251320">
        <ele>45.9</ele>
        <time>2018-03-28T08:29:03Z</time>
      </trkpt>
      <trkpt lat="36.7551680" lon="-4.4251650">
        <ele>45.9</ele>
        <time>2018-03-28T08:29:04Z</time>
      </trkpt>
      <trkpt lat="36.7552250" lon="-4.4251850">
        <ele>45.9</ele>
        <time>2018-03-28T08:29:05Z</time>
      </trkpt>
      <trkpt lat="36.7552550" lon="-4.4251940">
        <ele>45.9</ele>
        <time>2018-03-28T08:29:06Z</time>
      </trkpt>
      <trkpt lat="36.7552840" lon="-4.4252040">
        <ele>45.9</ele>
        <time>2018-03-28T08:29:07Z</time>
      </trkpt>
      <trkpt lat="36.7553420" lon="-4.4252230">
        <ele>45.9</ele>
        <time>2018-03-28T08:29:08Z</time>
      </trkpt>
      <trkpt lat="36.7554550" lon="-4.4252670">
        <ele>45.9</ele>
        <time>2018-03-28T08:29:09Z</time>
      </trkpt>
      <trkpt lat="36.7554550" lon="-4.4252670">
        <ele>45.9</ele>
        <time>2018-03-28T08:29:10Z</time>
      </trkpt>
      <trkpt lat="36.7555720" lon="-4.4252800">
        <ele>45.9</ele>
        <time>2018-03-28T08:29:11Z</time>
      </trkpt>
      <trkpt lat="36.7556030" lon="-4.4252810">
        <ele>45.9</ele>
        <time>2018-03-28T08:29:12Z</time>
      </trkpt>
      <trkpt lat="36.7556330" lon="-4.4252820">
        <ele>45.9</ele>
        <time>2018-03-28T08:29:13Z</time>
      </trkpt>
      <trkpt lat="36.7557470" lon="-4.4252890">
        <ele>45.9</ele>
        <time>2018-03-28T08:29:14Z</time>
      </trkpt>
      <trkpt lat="36.7558010" lon="-4.4252940">
        <ele>45.9</ele>
        <time>2018-03-28T08:29:15Z</time>
      </trkpt>
      <trkpt lat="36.7558550" lon="-4.4252980">
        <ele>45.9</ele>
        <time>2018-03-28T08:29:16Z</time>
      </trkpt>
      <trkpt lat="36.7559070" lon="-4.4253030">
        <ele>46.9</ele>
        <time>2018-03-28T08:29:17Z</time>
      </trkpt>
      <trkpt lat="36.7559750" lon="-4.4253110">
        <ele>46.9</ele>
        <time>2018-03-28T08:29:18Z</time>
      </trkpt>
      <trkpt lat="36.7559970" lon="-4.4253150">
        <ele>46.9</ele>
        <time>2018-03-28T08:29:19Z</time>
      </trkpt>
      <trkpt lat="36.7560400" lon="-4.4253230">
        <ele>46.9</ele>
        <time>2018-03-28T08:29:20Z</time>
      </trkpt>
      <trkpt lat="36.7560850" lon="-4.4253280">
        <ele>46.9</ele>
        <time>2018-03-28T08:29:21Z</time>
      </trkpt>
      <trkpt lat="36.7561270" lon="-4.4253380">
        <ele>46.9</ele>
        <time>2018-03-28T08:29:22Z</time>
      </trkpt>
      <trkpt lat="36.7561680" lon="-4.4253480">
        <ele>46.9</ele>
        <time>2018-03-28T08:29:23Z</time>
      </trkpt>
      <trkpt lat="36.7561680" lon="-4.4253480">
        <ele>46.9</ele>
        <time>2018-03-28T08:29:24Z</time>
      </trkpt>
      <trkpt lat="36.7562420" lon="-4.4253820">
        <ele>46.9</ele>
        <time>2018-03-28T08:29:25Z</time>
      </trkpt>
      <trkpt lat="36.7562420" lon="-4.4253820">
        <ele>46.9</ele>
        <time>2018-03-28T08:29:26Z</time>
      </trkpt>
      <trkpt lat="36.7563200" lon="-4.4254050">
        <ele>46.9</ele>
        <time>2018-03-28T08:29:27Z</time>
      </trkpt>
      <trkpt lat="36.7563600" lon="-4.4254050">
        <ele>46.9</ele>
        <time>2018-03-28T08:29:28Z</time>
      </trkpt>
      <trkpt lat="36.7564020" lon="-4.4254030">
        <ele>47.9</ele>
        <time>2018-03-28T08:29:29Z</time>
      </trkpt>
      <trkpt lat="36.7564020" lon="-4.4254030">
        <ele>47.9</ele>
        <time>2018-03-28T08:29:30Z</time>
      </trkpt>
      <trkpt lat="36.7564770" lon="-4.4254270">
        <ele>47.9</ele>
        <time>2018-03-28T08:29:31Z</time>
      </trkpt>
      <trkpt lat="36.7564770" lon="-4.4254270">
        <ele>47.9</ele>
        <time>2018-03-28T08:29:32Z</time>
      </trkpt>
      <trkpt lat="36.7565470" lon="-4.4254350">
        <ele>47.9</ele>
        <time>2018-03-28T08:29:33Z</time>
      </trkpt>
      <trkpt lat="36.7565470" lon="-4.4254350">
        <ele>48.9</ele>
        <time>2018-03-28T08:29:34Z</time>
      </trkpt>
      <trkpt lat="36.7566250" lon="-4.4254380">
        <ele>48.9</ele>
        <time>2018-03-28T08:29:35Z</time>
      </trkpt>
      <trkpt lat="36.7566760" lon="-4.4254600">
        <ele>48.9</ele>
        <time>2018-03-28T08:29:36Z</time>
      </trkpt>
      <trkpt lat="36.7566940" lon="-4.4254660">
        <ele>48.9</ele>
        <time>2018-03-28T08:29:37Z</time>
      </trkpt>
      <trkpt lat="36.7567300" lon="-4.4254770">
        <ele>48.9</ele>
        <time>2018-03-28T08:29:38Z</time>
      </trkpt>
      <trkpt lat="36.7567630" lon="-4.4254900">
        <ele>50.9</ele>
        <time>2018-03-28T08:29:39Z</time>
      </trkpt>
      <trkpt lat="36.7567630" lon="-4.4254900">
        <ele>50.9</ele>
        <time>2018-03-28T08:29:40Z</time>
      </trkpt>
      <trkpt lat="36.7568250" lon="-4.4254980">
        <ele>50.9</ele>
        <time>2018-03-28T08:29:41Z</time>
      </trkpt>
      <trkpt lat="36.7568550" lon="-4.4255080">
        <ele>50.9</ele>
        <time>2018-03-28T08:29:42Z</time>
      </trkpt>
      <trkpt lat="36.7568550" lon="-4.4255080">
        <ele>51.9</ele>
        <time>2018-03-28T08:29:43Z</time>
      </trkpt>
      <trkpt lat="36.7569120" lon="-4.4255170">
        <ele>51.9</ele>
        <time>2018-03-28T08:29:44Z</time>
      </trkpt>
      <trkpt lat="36.7569370" lon="-4.4255180">
        <ele>51.9</ele>
        <time>2018-03-28T08:29:45Z</time>
      </trkpt>
      <trkpt lat="36.7569370" lon="-4.4255180">
        <ele>51.9</ele>
        <time>2018-03-28T08:29:46Z</time>
      </trkpt>
      <trkpt lat="36.7569850" lon="-4.4255480">
        <ele>52.9</ele>
        <time>2018-03-28T08:29:47Z</time>
      </trkpt>
      <trkpt lat="36.7570220" lon="-4.4255500">
        <ele>52.9</ele>
        <time>2018-03-28T08:29:48Z</time>
      </trkpt>
      <trkpt lat="36.7570550" lon="-4.4255500">
        <ele>52.9</ele>
        <time>2018-03-28T08:29:49Z</time>
      </trkpt>
      <trkpt lat="36.7570550" lon="-4.4255500">
        <ele>52.9</ele>
        <time>2018-03-28T08:29:50Z</time>
      </trkpt>
      <trkpt lat="36.7571180" lon="-4.4255570">
        <ele>52.9</ele>
        <time>2018-03-28T08:29:51Z</time>
      </trkpt>
      <trkpt lat="36.7571180" lon="-4.4255570">
        <ele>52.9</ele>
        <time>2018-03-28T08:29:52Z</time>
      </trkpt>
      <trkpt lat="36.7571800" lon="-4.4255620">
        <ele>53.9</ele>
        <time>2018-03-28T08:29:53Z</time>
      </trkpt>
      <trkpt lat="36.7572130" lon="-4.4255700">
        <ele>53.9</ele>
        <time>2018-03-28T08:29:54Z</time>
      </trkpt>
      <trkpt lat="36.7572130" lon="-4.4255700">
        <ele>54.9</ele>
        <time>2018-03-28T08:29:55Z</time>
      </trkpt>
      <trkpt lat="36.7572870" lon="-4.4255750">
        <ele>54.9</ele>
        <time>2018-03-28T08:29:56Z</time>
      </trkpt>
      <trkpt lat="36.7572870" lon="-4.4255750">
        <ele>54.9</ele>
        <time>2018-03-28T08:29:57Z</time>
      </trkpt>
      <trkpt lat="36.7573600" lon="-4.4255930">
        <ele>54.9</ele>
        <time>2018-03-28T08:29:58Z</time>
      </trkpt>
      <trkpt lat="36.7573600" lon="-4.4255930">
        <ele>55.9</ele>
        <time>2018-03-28T08:29:59Z</time>
      </trkpt>
      <trkpt lat="36.7574370" lon="-4.4256080">
        <ele>55.9</ele>
        <time>2018-03-28T08:30:00Z</time>
      </trkpt>
      <trkpt lat="36.7574370" lon="-4.4256080">
        <ele>55.9</ele>
        <time>2018-03-28T08:30:01Z</time>
      </trkpt>
      <trkpt lat="36.7575330" lon="-4.4256270">
        <ele>55.9</ele>
        <time>2018-03-28T08:30:02Z</time>
      </trkpt>
      <trkpt lat="36.7575520" lon="-4.4256320">
        <ele>56.9</ele>
        <time>2018-03-28T08:30:03Z</time>
      </trkpt>
      <trkpt lat="36.7575520" lon="-4.4256320">
        <ele>56.9</ele>
        <time>2018-03-28T08:30:04Z</time>
      </trkpt>
      <trkpt lat="36.7576270" lon="-4.4256520">
        <ele>56.9</ele>
        <time>2018-03-28T08:30:05Z</time>
      </trkpt>
      <trkpt lat="36.7576270" lon="-4.4256520">
        <ele>56.9</ele>
        <time>2018-03-28T08:30:06Z</time>
      </trkpt>
      <trkpt lat="36.7577070" lon="-4.4256700">
        <ele>56.9</ele>
        <time>2018-03-28T08:30:07Z</time>
      </trkpt>
      <trkpt lat="36.7577070" lon="-4.4256700">
        <ele>56.9</ele>
        <time>2018-03-28T08:30:08Z</time>
      </trkpt>
      <trkpt lat="36.7577820" lon="-4.4256900">
        <ele>57.9</ele>
        <time>2018-03-28T08:30:09Z</time>
      </trkpt>
      <trkpt lat="36.7578200" lon="-4.4257000">
        <ele>57.9</ele>
        <time>2018-03-28T08:30:10Z</time>
      </trkpt>
      <trkpt lat="36.7578200" lon="-4.4257000">
        <ele>57.9</ele>
        <time>2018-03-28T08:30:11Z</time>
      </trkpt>
      <trkpt lat="36.7579020" lon="-4.4257150">
        <ele>57.9</ele>
        <time>2018-03-28T08:30:12Z</time>
      </trkpt>
      <trkpt lat="36.7579020" lon="-4.4257150">
        <ele>58.9</ele>
        <time>2018-03-28T08:30:13Z</time>
      </trkpt>
      <trkpt lat="36.7579870" lon="-4.4257320">
        <ele>58.9</ele>
        <time>2018-03-28T08:30:14Z</time>
      </trkpt>
      <trkpt lat="36.7580300" lon="-4.4257400">
        <ele>58.9</ele>
        <time>2018-03-28T08:30:15Z</time>
      </trkpt>
      <trkpt lat="36.7580300" lon="-4.4257400">
        <ele>58.9</ele>
        <time>2018-03-28T08:30:16Z</time>
      </trkpt>
      <trkpt lat="36.7581120" lon="-4.4257580">
        <ele>58.9</ele>
        <time>2018-03-28T08:30:17Z</time>
      </trkpt>
      <trkpt lat="36.7581120" lon="-4.4257580">
        <ele>58.9</ele>
        <time>2018-03-28T08:30:18Z</time>
      </trkpt>
      <trkpt lat="36.7581900" lon="-4.4257750">
        <ele>59.9</ele>
        <time>2018-03-28T08:30:19Z</time>
      </trkpt>
      <trkpt lat="36.7581900" lon="-4.4257750">
        <ele>59.9</ele>
        <time>2018-03-28T08:30:20Z</time>
      </trkpt>
      <trkpt lat="36.7582730" lon="-4.4257980">
        <ele>59.9</ele>
        <time>2018-03-28T08:30:21Z</time>
      </trkpt>
      <trkpt lat="36.7583120" lon="-4.4258120">
        <ele>59.9</ele>
        <time>2018-03-28T08:30:22Z</time>
      </trkpt>
      <trkpt lat="36.7583520" lon="-4.4258280">
        <ele>59.9</ele>
        <time>2018-03-28T08:30:23Z</time>
      </trkpt>
      <trkpt lat="36.7583520" lon="-4.4258280">
        <ele>59.9</ele>
        <time>2018-03-28T08:30:24Z</time>
      </trkpt>
      <trkpt lat="36.7584420" lon="-4.4258670">
        <ele>59.9</ele>
        <time>2018-03-28T08:30:25Z</time>
      </trkpt>
      <trkpt lat="36.7584420" lon="-4.4258670">
        <ele>59.9</ele>
        <time>2018-03-28T08:30:26Z</time>
      </trkpt>
      <trkpt lat="36.7585420" lon="-4.4258650">
        <ele>59.9</ele>
        <time>2018-03-28T08:30:27Z</time>
      </trkpt>
      <trkpt lat="36.7585420" lon="-4.4258650">
        <ele>59.9</ele>
        <time>2018-03-28T08:30:28Z</time>
      </trkpt>
      <trkpt lat="36.7586430" lon="-4.4258350">
        <ele>59.9</ele>
        <time>2018-03-28T08:30:29Z</time>
      </trkpt>
      <trkpt lat="36.7586430" lon="-4.4258350">
        <ele>59.9</ele>
        <time>2018-03-28T08:30:30Z</time>
      </trkpt>
      <trkpt lat="36.7587500" lon="-4.4257850">
        <ele>59.9</ele>
        <time>2018-03-28T08:30:31Z</time>
      </trkpt>
      <trkpt lat="36.7588030" lon="-4.4257600">
        <ele>59.9</ele>
        <time>2018-03-28T08:30:32Z</time>
      </trkpt>
      <trkpt lat="36.7588030" lon="-4.4257600">
        <ele>59.9</ele>
        <time>2018-03-28T08:30:33Z</time>
      </trkpt>
      <trkpt lat="36.7589120" lon="-4.4257070">
        <ele>59.9</ele>
        <time>2018-03-28T08:30:34Z</time>
      </trkpt>
      <trkpt lat="36.7589120" lon="-4.4257070">
        <ele>59.9</ele>
        <time>2018-03-28T08:30:35Z</time>
      </trkpt>
      <trkpt lat="36.7590120" lon="-4.4256580">
        <ele>59.9</ele>
        <time>2018-03-28T08:30:36Z</time>
      </trkpt>
      <trkpt lat="36.7590120" lon="-4.4256580">
        <ele>59.9</ele>
        <time>2018-03-28T08:30:37Z</time>
      </trkpt>
      <trkpt lat="36.7591100" lon="-4.4256100">
        <ele>59.9</ele>
        <time>2018-03-28T08:30:38Z</time>
      </trkpt>
      <trkpt lat="36.7591580" lon="-4.4255850">
        <ele>59.9</ele>
        <time>2018-03-28T08:30:39Z</time>
      </trkpt>
      <trkpt lat="36.7591580" lon="-4.4255850">
        <ele>59.9</ele>
        <time>2018-03-28T08:30:40Z</time>
      </trkpt>
      <trkpt lat="36.7592570" lon="-4.4255320">
        <ele>59.9</ele>
        <time>2018-03-28T08:30:41Z</time>
      </trkpt>
      <trkpt lat="36.7593050" lon="-4.4255070">
        <ele>59.9</ele>
        <time>2018-03-28T08:30:42Z</time>
      </trkpt>
      <trkpt lat="36.7593050" lon="-4.4255070">
        <ele>59.9</ele>
        <time>2018-03-28T08:30:43Z</time>
      </trkpt>
      <trkpt lat="36.7594130" lon="-4.4254450">
        <ele>60.9</ele>
        <time>2018-03-28T08:30:44Z</time>
      </trkpt>
      <trkpt lat="36.7594630" lon="-4.4254150">
        <ele>60.9</ele>
        <time>2018-03-28T08:30:45Z</time>
      </trkpt>
      <trkpt lat="36.7594630" lon="-4.4254150">
        <ele>60.9</ele>
        <time>2018-03-28T08:30:46Z</time>
      </trkpt>
      <trkpt lat="36.7595630" lon="-4.4253630">
        <ele>60.9</ele>
        <time>2018-03-28T08:30:47Z</time>
      </trkpt>
      <trkpt lat="36.7595870" lon="-4.4253520">
        <ele>60.9</ele>
        <time>2018-03-28T08:30:48Z</time>
      </trkpt>
      <trkpt lat="36.7596110" lon="-4.4253400">
        <ele>60.9</ele>
        <time>2018-03-28T08:30:49Z</time>
      </trkpt>
      <trkpt lat="36.7596580" lon="-4.4253170">
        <ele>60.9</ele>
        <time>2018-03-28T08:30:50Z</time>
      </trkpt>
      <trkpt lat="36.7597480" lon="-4.4252730">
        <ele>60.9</ele>
        <time>2018-03-28T08:30:51Z</time>
      </trkpt>
      <trkpt lat="36.7597480" lon="-4.4252730">
        <ele>61.9</ele>
        <time>2018-03-28T08:30:52Z</time>
      </trkpt>
      <trkpt lat="36.7598270" lon="-4.4252350">
        <ele>61.9</ele>
        <time>2018-03-28T08:30:53Z</time>
      </trkpt>
      <trkpt lat="36.7598580" lon="-4.4252200">
        <ele>61.9</ele>
        <time>2018-03-28T08:30:54Z</time>
      </trkpt>
      <trkpt lat="36.7598580" lon="-4.4252200">
        <ele>61.9</ele>
        <time>2018-03-28T08:30:55Z</time>
      </trkpt>
      <trkpt lat="36.7599380" lon="-4.4251870">
        <ele>62.9</ele>
        <time>2018-03-28T08:30:56Z</time>
      </trkpt>
      <trkpt lat="36.7599380" lon="-4.4251870">
        <ele>62.9</ele>
        <time>2018-03-28T08:30:57Z</time>
      </trkpt>
      <trkpt lat="36.7600130" lon="-4.4251650">
        <ele>62.9</ele>
        <time>2018-03-28T08:30:58Z</time>
      </trkpt>
      <trkpt lat="36.7600130" lon="-4.4251650">
        <ele>62.9</ele>
        <time>2018-03-28T08:30:59Z</time>
      </trkpt>
      <trkpt lat="36.7601000" lon="-4.4251320">
        <ele>62.9</ele>
        <time>2018-03-28T08:31:00Z</time>
      </trkpt>
      <trkpt lat="36.7601000" lon="-4.4251320">
        <ele>62.9</ele>
        <time>2018-03-28T08:31:01Z</time>
      </trkpt>
      <trkpt lat="36.7601830" lon="-4.4250970">
        <ele>63.9</ele>
        <time>2018-03-28T08:31:02Z</time>
      </trkpt>
      <trkpt lat="36.7602230" lon="-4.4250780">
        <ele>63.9</ele>
        <time>2018-03-28T08:31:03Z</time>
      </trkpt>
      <trkpt lat="36.7602620" lon="-4.4250530">
        <ele>63.9</ele>
        <time>2018-03-28T08:31:04Z</time>
      </trkpt>
      <trkpt lat="36.7602620" lon="-4.4250530">
        <ele>63.9</ele>
        <time>2018-03-28T08:31:05Z</time>
      </trkpt>
      <trkpt lat="36.7603350" lon="-4.4249850">
        <ele>64.9</ele>
        <time>2018-03-28T08:31:06Z</time>
      </trkpt>
      <trkpt lat="36.7603350" lon="-4.4249850">
        <ele>64.9</ele>
        <time>2018-03-28T08:31:07Z</time>
      </trkpt>
      <trkpt lat="36.7604130" lon="-4.4249150">
        <ele>64.9</ele>
        <time>2018-03-28T08:31:08Z</time>
      </trkpt>
      <trkpt lat="36.7604530" lon="-4.4248830">
        <ele>64.9</ele>
        <time>2018-03-28T08:31:09Z</time>
      </trkpt>
      <trkpt lat="36.7604530" lon="-4.4248830">
        <ele>64.9</ele>
        <time>2018-03-28T08:31:10Z</time>
      </trkpt>
      <trkpt lat="36.7605350" lon="-4.4248100">
        <ele>65.9</ele>
        <time>2018-03-28T08:31:11Z</time>
      </trkpt>
      <trkpt lat="36.7605730" lon="-4.4247720">
        <ele>65.9</ele>
        <time>2018-03-28T08:31:12Z</time>
      </trkpt>
      <trkpt lat="36.7605730" lon="-4.4247720">
        <ele>65.9</ele>
        <time>2018-03-28T08:31:13Z</time>
      </trkpt>
      <trkpt lat="36.7606470" lon="-4.4246980">
        <ele>65.9</ele>
        <time>2018-03-28T08:31:14Z</time>
      </trkpt>
      <trkpt lat="36.7606470" lon="-4.4246980">
        <ele>65.9</ele>
        <time>2018-03-28T08:31:15Z</time>
      </trkpt>
      <trkpt lat="36.7607250" lon="-4.4246280">
        <ele>65.9</ele>
        <time>2018-03-28T08:31:16Z</time>
      </trkpt>
      <trkpt lat="36.7607650" lon="-4.4245970">
        <ele>66.9</ele>
        <time>2018-03-28T08:31:17Z</time>
      </trkpt>
      <trkpt lat="36.7607650" lon="-4.4245970">
        <ele>66.9</ele>
        <time>2018-03-28T08:31:18Z</time>
      </trkpt>
      <trkpt lat="36.7608430" lon="-4.4245330">
        <ele>66.9</ele>
        <time>2018-03-28T08:31:19Z</time>
      </trkpt>
      <trkpt lat="36.7608430" lon="-4.4245330">
        <ele>66.9</ele>
        <time>2018-03-28T08:31:20Z</time>
      </trkpt>
      <trkpt lat="36.7609180" lon="-4.4244720">
        <ele>66.9</ele>
        <time>2018-03-28T08:31:21Z</time>
      </trkpt>
      <trkpt lat="36.7609550" lon="-4.4244380">
        <ele>66.9</ele>
        <time>2018-03-28T08:31:22Z</time>
      </trkpt>
      <trkpt lat="36.7609950" lon="-4.4244080">
        <ele>66.9</ele>
        <time>2018-03-28T08:31:23Z</time>
      </trkpt>
      <trkpt lat="36.7609950" lon="-4.4244080">
        <ele>66.9</ele>
        <time>2018-03-28T08:31:24Z</time>
      </trkpt>
      <trkpt lat="36.7610730" lon="-4.4243480">
        <ele>66.9</ele>
        <time>2018-03-28T08:31:25Z</time>
      </trkpt>
      <trkpt lat="36.7610730" lon="-4.4243480">
        <ele>66.9</ele>
        <time>2018-03-28T08:31:26Z</time>
      </trkpt>
      <trkpt lat="36.7611550" lon="-4.4242850">
        <ele>67.9</ele>
        <time>2018-03-28T08:31:27Z</time>
      </trkpt>
      <trkpt lat="36.7611970" lon="-4.4242550">
        <ele>67.9</ele>
        <time>2018-03-28T08:31:28Z</time>
      </trkpt>
      <trkpt lat="36.7611970" lon="-4.4242550">
        <ele>67.9</ele>
        <time>2018-03-28T08:31:29Z</time>
      </trkpt>
      <trkpt lat="36.7612820" lon="-4.4242030">
        <ele>67.9</ele>
        <time>2018-03-28T08:31:30Z</time>
      </trkpt>
      <trkpt lat="36.7612820" lon="-4.4242030">
        <ele>67.9</ele>
        <time>2018-03-28T08:31:31Z</time>
      </trkpt>
      <trkpt lat="36.7613670" lon="-4.4241570">
        <ele>67.9</ele>
        <time>2018-03-28T08:31:32Z</time>
      </trkpt>
      <trkpt lat="36.7613670" lon="-4.4241570">
        <ele>68.9</ele>
        <time>2018-03-28T08:31:33Z</time>
      </trkpt>
      <trkpt lat="36.7614530" lon="-4.4241200">
        <ele>68.9</ele>
        <time>2018-03-28T08:31:34Z</time>
      </trkpt>
      <trkpt lat="36.7614970" lon="-4.4241030">
        <ele>68.9</ele>
        <time>2018-03-28T08:31:35Z</time>
      </trkpt>
      <trkpt lat="36.7614970" lon="-4.4241030">
        <ele>68.9</ele>
        <time>2018-03-28T08:31:36Z</time>
      </trkpt>
      <trkpt lat="36.7615850" lon="-4.4240680">
        <ele>68.9</ele>
        <time>2018-03-28T08:31:37Z</time>
      </trkpt>
      <trkpt lat="36.7615850" lon="-4.4240680">
        <ele>68.9</ele>
        <time>2018-03-28T08:31:38Z</time>
      </trkpt>
      <trkpt lat="36.7616730" lon="-4.4240380">
        <ele>68.9</ele>
        <time>2018-03-28T08:31:39Z</time>
      </trkpt>
      <trkpt lat="36.7617150" lon="-4.4240250">
        <ele>68.9</ele>
        <time>2018-03-28T08:31:40Z</time>
      </trkpt>
      <trkpt lat="36.7617150" lon="-4.4240250">
        <ele>68.9</ele>
        <time>2018-03-28T08:31:41Z</time>
      </trkpt>
      <trkpt lat="36.7617850" lon="-4.4239980">
        <ele>69.9</ele>
        <time>2018-03-28T08:31:42Z</time>
      </trkpt>
      <trkpt lat="36.7617850" lon="-4.4239980">
        <ele>69.9</ele>
        <time>2018-03-28T08:31:43Z</time>
      </trkpt>
      <trkpt lat="36.7618550" lon="-4.4239800">
        <ele>69.9</ele>
        <time>2018-03-28T08:31:44Z</time>
      </trkpt>
      <trkpt lat="36.7618850" lon="-4.4239720">
        <ele>69.9</ele>
        <time>2018-03-28T08:31:45Z</time>
      </trkpt>
      <trkpt lat="36.7618850" lon="-4.4239720">
        <ele>69.9</ele>
        <time>2018-03-28T08:31:46Z</time>
      </trkpt>
      <trkpt lat="36.7619450" lon="-4.4239600">
        <ele>70.9</ele>
        <time>2018-03-28T08:31:47Z</time>
      </trkpt>
      <trkpt lat="36.7619450" lon="-4.4239600">
        <ele>70.9</ele>
        <time>2018-03-28T08:31:48Z</time>
      </trkpt>
      <trkpt lat="36.7620050" lon="-4.4239480">
        <ele>71.9</ele>
        <time>2018-03-28T08:31:49Z</time>
      </trkpt>
      <trkpt lat="36.7620050" lon="-4.4239480">
        <ele>71.9</ele>
        <time>2018-03-28T08:31:50Z</time>
      </trkpt>
      <trkpt lat="36.7620600" lon="-4.4239380">
        <ele>71.9</ele>
        <time>2018-03-28T08:31:51Z</time>
      </trkpt>
      <trkpt lat="36.7620600" lon="-4.4239380">
        <ele>71.9</ele>
        <time>2018-03-28T08:31:52Z</time>
      </trkpt>
      <trkpt lat="36.7621150" lon="-4.4239330">
        <ele>72.9</ele>
        <time>2018-03-28T08:31:53Z</time>
      </trkpt>
      <trkpt lat="36.7621150" lon="-4.4239330">
        <ele>72.9</ele>
        <time>2018-03-28T08:31:54Z</time>
      </trkpt>
      <trkpt lat="36.7621700" lon="-4.4239250">
        <ele>73.9</ele>
        <time>2018-03-28T08:31:55Z</time>
      </trkpt>
      <trkpt lat="36.7621700" lon="-4.4239250">
        <ele>73.9</ele>
        <time>2018-03-28T08:31:56Z</time>
      </trkpt>
      <trkpt lat="36.7622220" lon="-4.4239220">
        <ele>73.9</ele>
        <time>2018-03-28T08:31:57Z</time>
      </trkpt>
      <trkpt lat="36.7622470" lon="-4.4239200">
        <ele>73.9</ele>
        <time>2018-03-28T08:31:58Z</time>
      </trkpt>
      <trkpt lat="36.7622470" lon="-4.4239200">
        <ele>74.9</ele>
        <time>2018-03-28T08:31:59Z</time>
      </trkpt>
      <trkpt lat="36.7623000" lon="-4.4239170">
        <ele>74.9</ele>
        <time>2018-03-28T08:32:00Z</time>
      </trkpt>
      <trkpt lat="36.7623000" lon="-4.4239170">
        <ele>74.9</ele>
        <time>2018-03-28T08:32:01Z</time>
      </trkpt>
      <trkpt lat="36.7623520" lon="-4.4239150">
        <ele>74.9</ele>
        <time>2018-03-28T08:32:02Z</time>
      </trkpt>
      <trkpt lat="36.7623520" lon="-4.4239150">
        <ele>74.9</ele>
        <time>2018-03-28T08:32:03Z</time>
      </trkpt>
      <trkpt lat="36.7624020" lon="-4.4239130">
        <ele>74.9</ele>
        <time>2018-03-28T08:32:04Z</time>
      </trkpt>
      <trkpt lat="36.7624270" lon="-4.4239090">
        <ele>75.9</ele>
        <time>2018-03-28T08:32:05Z</time>
      </trkpt>
      <trkpt lat="36.7624520" lon="-4.4239050">
        <ele>75.9</ele>
        <time>2018-03-28T08:32:06Z</time>
      </trkpt>
      <trkpt lat="36.7624520" lon="-4.4239050">
        <ele>75.9</ele>
        <time>2018-03-28T08:32:07Z</time>
      </trkpt>
      <trkpt lat="36.7625050" lon="-4.4238930">
        <ele>75.9</ele>
        <time>2018-03-28T08:32:08Z</time>
      </trkpt>
      <trkpt lat="36.7625300" lon="-4.4238920">
        <ele>76.9</ele>
        <time>2018-03-28T08:32:09Z</time>
      </trkpt>
      <trkpt lat="36.7625300" lon="-4.4238920">
        <ele>76.9</ele>
        <time>2018-03-28T08:32:10Z</time>
      </trkpt>
      <trkpt lat="36.7625770" lon="-4.4238830">
        <ele>77.9</ele>
        <time>2018-03-28T08:32:11Z</time>
      </trkpt>
      <trkpt lat="36.7625770" lon="-4.4238830">
        <ele>77.9</ele>
        <time>2018-03-28T08:32:12Z</time>
      </trkpt>
      <trkpt lat="36.7626270" lon="-4.4238730">
        <ele>77.9</ele>
        <time>2018-03-28T08:32:13Z</time>
      </trkpt>
      <trkpt lat="36.7626520" lon="-4.4238680">
        <ele>78.9</ele>
        <time>2018-03-28T08:32:14Z</time>
      </trkpt>
      <trkpt lat="36.7626520" lon="-4.4238680">
        <ele>78.9</ele>
        <time>2018-03-28T08:32:15Z</time>
      </trkpt>
      <trkpt lat="36.7627000" lon="-4.4238580">
        <ele>78.9</ele>
        <time>2018-03-28T08:32:16Z</time>
      </trkpt>
      <trkpt lat="36.7627000" lon="-4.4238580">
        <ele>78.9</ele>
        <time>2018-03-28T08:32:17Z</time>
      </trkpt>
      <trkpt lat="36.7627520" lon="-4.4238470">
        <ele>78.9</ele>
        <time>2018-03-28T08:32:18Z</time>
      </trkpt>
      <trkpt lat="36.7627520" lon="-4.4238470">
        <ele>79.9</ele>
        <time>2018-03-28T08:32:19Z</time>
      </trkpt>
      <trkpt lat="36.7628020" lon="-4.4238400">
        <ele>79.9</ele>
        <time>2018-03-28T08:32:20Z</time>
      </trkpt>
      <trkpt lat="36.7628020" lon="-4.4238400">
        <ele>79.9</ele>
        <time>2018-03-28T08:32:21Z</time>
      </trkpt>
      <trkpt lat="36.7628530" lon="-4.4238300">
        <ele>79.9</ele>
        <time>2018-03-28T08:32:22Z</time>
      </trkpt>
      <trkpt lat="36.7628530" lon="-4.4238300">
        <ele>81.9</ele>
        <time>2018-03-28T08:32:23Z</time>
      </trkpt>
      <trkpt lat="36.7629050" lon="-4.4238280">
        <ele>81.9</ele>
        <time>2018-03-28T08:32:24Z</time>
      </trkpt>
      <trkpt lat="36.7629050" lon="-4.4238280">
        <ele>81.9</ele>
        <time>2018-03-28T08:32:25Z</time>
      </trkpt>
      <trkpt lat="36.7629620" lon="-4.4238220">
        <ele>81.9</ele>
        <time>2018-03-28T08:32:26Z</time>
      </trkpt>
      <trkpt lat="36.7629620" lon="-4.4238220">
        <ele>82.9</ele>
        <time>2018-03-28T08:32:27Z</time>
      </trkpt>
      <trkpt lat="36.7630170" lon="-4.4238100">
        <ele>82.9</ele>
        <time>2018-03-28T08:32:28Z</time>
      </trkpt>
      <trkpt lat="36.7630430" lon="-4.4238020">
        <ele>82.9</ele>
        <time>2018-03-28T08:32:29Z</time>
      </trkpt>
      <trkpt lat="36.7630430" lon="-4.4238020">
        <ele>82.9</ele>
        <time>2018-03-28T08:32:30Z</time>
      </trkpt>
      <trkpt lat="36.7630920" lon="-4.4237900">
        <ele>83.9</ele>
        <time>2018-03-28T08:32:31Z</time>
      </trkpt>
      <trkpt lat="36.7630920" lon="-4.4237900">
        <ele>83.9</ele>
        <time>2018-03-28T08:32:32Z</time>
      </trkpt>
      <trkpt lat="36.7631430" lon="-4.4237800">
        <ele>83.9</ele>
        <time>2018-03-28T08:32:33Z</time>
      </trkpt>
      <trkpt lat="36.7631430" lon="-4.4237800">
        <ele>83.9</ele>
        <time>2018-03-28T08:32:34Z</time>
      </trkpt>
      <trkpt lat="36.7631930" lon="-4.4237700">
        <ele>83.9</ele>
        <time>2018-03-28T08:32:35Z</time>
      </trkpt>
      <trkpt lat="36.7632180" lon="-4.4237650">
        <ele>83.9</ele>
        <time>2018-03-28T08:32:36Z</time>
      </trkpt>
      <trkpt lat="36.7632180" lon="-4.4237650">
        <ele>83.9</ele>
        <time>2018-03-28T08:32:37Z</time>
      </trkpt>
      <trkpt lat="36.7632680" lon="-4.4237480">
        <ele>83.9</ele>
        <time>2018-03-28T08:32:38Z</time>
      </trkpt>
      <trkpt lat="36.7632680" lon="-4.4237480">
        <ele>85.9</ele>
        <time>2018-03-28T08:32:39Z</time>
      </trkpt>
      <trkpt lat="36.7633180" lon="-4.4237320">
        <ele>85.9</ele>
        <time>2018-03-28T08:32:40Z</time>
      </trkpt>
      <trkpt lat="36.7633430" lon="-4.4237230">
        <ele>85.9</ele>
        <time>2018-03-28T08:32:41Z</time>
      </trkpt>
      <trkpt lat="36.7633430" lon="-4.4237230">
        <ele>85.9</ele>
        <time>2018-03-28T08:32:42Z</time>
      </trkpt>
      <trkpt lat="36.7633950" lon="-4.4237080">
        <ele>85.9</ele>
        <time>2018-03-28T08:32:43Z</time>
      </trkpt>
      <trkpt lat="36.7633950" lon="-4.4237080">
        <ele>85.9</ele>
        <time>2018-03-28T08:32:44Z</time>
      </trkpt>
      <trkpt lat="36.7634430" lon="-4.4236950">
        <ele>85.9</ele>
        <time>2018-03-28T08:32:45Z</time>
      </trkpt>
      <trkpt lat="36.7634670" lon="-4.4236880">
        <ele>87.9</ele>
        <time>2018-03-28T08:32:46Z</time>
      </trkpt>
      <trkpt lat="36.7634670" lon="-4.4236880">
        <ele>87.9</ele>
        <time>2018-03-28T08:32:47Z</time>
      </trkpt>
      <trkpt lat="36.7635180" lon="-4.4236680">
        <ele>87.9</ele>
        <time>2018-03-28T08:32:48Z</time>
      </trkpt>
      <trkpt lat="36.7635180" lon="-4.4236680">
        <ele>87.9</ele>
        <time>2018-03-28T08:32:49Z</time>
      </trkpt>
      <trkpt lat="36.7635670" lon="-4.4236580">
        <ele>88.9</ele>
        <time>2018-03-28T08:32:50Z</time>
      </trkpt>
      <trkpt lat="36.7635670" lon="-4.4236580">
        <ele>88.9</ele>
        <time>2018-03-28T08:32:51Z</time>
      </trkpt>
      <trkpt lat="36.7636220" lon="-4.4236420">
        <ele>88.9</ele>
        <time>2018-03-28T08:32:52Z</time>
      </trkpt>
      <trkpt lat="36.7636470" lon="-4.4236380">
        <ele>88.9</ele>
        <time>2018-03-28T08:32:53Z</time>
      </trkpt>
      <trkpt lat="36.7636730" lon="-4.4236330">
        <ele>89.9</ele>
        <time>2018-03-28T08:32:54Z</time>
      </trkpt>
      <trkpt lat="36.7636730" lon="-4.4236330">
        <ele>89.9</ele>
        <time>2018-03-28T08:32:55Z</time>
      </trkpt>
      <trkpt lat="36.7637270" lon="-4.4236150">
        <ele>89.9</ele>
        <time>2018-03-28T08:32:56Z</time>
      </trkpt>
      <trkpt lat="36.7637270" lon="-4.4236150">
        <ele>89.9</ele>
        <time>2018-03-28T08:32:57Z</time>
      </trkpt>
      <trkpt lat="36.7637870" lon="-4.4236030">
        <ele>89.9</ele>
        <time>2018-03-28T08:32:58Z</time>
      </trkpt>
      <trkpt lat="36.7638150" lon="-4.4235970">
        <ele>89.9</ele>
        <time>2018-03-28T08:32:59Z</time>
      </trkpt>
      <trkpt lat="36.7638150" lon="-4.4235970">
        <ele>90.9</ele>
        <time>2018-03-28T08:33:00Z</time>
      </trkpt>
      <trkpt lat="36.7638730" lon="-4.4235850">
        <ele>90.9</ele>
        <time>2018-03-28T08:33:01Z</time>
      </trkpt>
      <trkpt lat="36.7638730" lon="-4.4235850">
        <ele>90.9</ele>
        <time>2018-03-28T08:33:02Z</time>
      </trkpt>
      <trkpt lat="36.7639320" lon="-4.4235730">
        <ele>90.9</ele>
        <time>2018-03-28T08:33:03Z</time>
      </trkpt>
      <trkpt lat="36.7639320" lon="-4.4235730">
        <ele>91.9</ele>
        <time>2018-03-28T08:33:04Z</time>
      </trkpt>
      <trkpt lat="36.7639880" lon="-4.4235650">
        <ele>91.9</ele>
        <time>2018-03-28T08:33:05Z</time>
      </trkpt>
      <trkpt lat="36.7639880" lon="-4.4235650">
        <ele>91.9</ele>
        <time>2018-03-28T08:33:06Z</time>
      </trkpt>
      <trkpt lat="36.7640480" lon="-4.4235620">
        <ele>91.9</ele>
        <time>2018-03-28T08:33:07Z</time>
      </trkpt>
      <trkpt lat="36.7640820" lon="-4.4235580">
        <ele>91.9</ele>
        <time>2018-03-28T08:33:08Z</time>
      </trkpt>
      <trkpt lat="36.7641130" lon="-4.4235520">
        <ele>91.9</ele>
        <time>2018-03-28T08:33:09Z</time>
      </trkpt>
      <trkpt lat="36.7641470" lon="-4.4235450">
        <ele>91.9</ele>
        <time>2018-03-28T08:33:10Z</time>
      </trkpt>
      <trkpt lat="36.7641470" lon="-4.4235450">
        <ele>91.9</ele>
        <time>2018-03-28T08:33:11Z</time>
      </trkpt>
      <trkpt lat="36.7642150" lon="-4.4235350">
        <ele>92.9</ele>
        <time>2018-03-28T08:33:12Z</time>
      </trkpt>
      <trkpt lat="36.7642500" lon="-4.4235320">
        <ele>92.9</ele>
        <time>2018-03-28T08:33:13Z</time>
      </trkpt>
      <trkpt lat="36.7642500" lon="-4.4235320">
        <ele>92.9</ele>
        <time>2018-03-28T08:33:14Z</time>
      </trkpt>
      <trkpt lat="36.7643250" lon="-4.4235200">
        <ele>92.9</ele>
        <time>2018-03-28T08:33:15Z</time>
      </trkpt>
      <trkpt lat="36.7643250" lon="-4.4235200">
        <ele>92.9</ele>
        <time>2018-03-28T08:33:16Z</time>
      </trkpt>
      <trkpt lat="36.7644050" lon="-4.4235120">
        <ele>92.9</ele>
        <time>2018-03-28T08:33:17Z</time>
      </trkpt>
      <trkpt lat="36.7644450" lon="-4.4234930">
        <ele>92.9</ele>
        <time>2018-03-28T08:33:18Z</time>
      </trkpt>
      <trkpt lat="36.7644450" lon="-4.4234930">
        <ele>92.9</ele>
        <time>2018-03-28T08:33:19Z</time>
      </trkpt>
      <trkpt lat="36.7645320" lon="-4.4234780">
        <ele>92.9</ele>
        <time>2018-03-28T08:33:20Z</time>
      </trkpt>
      <trkpt lat="36.7645320" lon="-4.4234780">
        <ele>92.9</ele>
        <time>2018-03-28T08:33:21Z</time>
      </trkpt>
      <trkpt lat="36.7646230" lon="-4.4234650">
        <ele>92.9</ele>
        <time>2018-03-28T08:33:22Z</time>
      </trkpt>
      <trkpt lat="36.7646680" lon="-4.4234580">
        <ele>92.9</ele>
        <time>2018-03-28T08:33:23Z</time>
      </trkpt>
      <trkpt lat="36.7646680" lon="-4.4234580">
        <ele>92.9</ele>
        <time>2018-03-28T08:33:24Z</time>
      </trkpt>
      <trkpt lat="36.7647530" lon="-4.4234470">
        <ele>92.9</ele>
        <time>2018-03-28T08:33:25Z</time>
      </trkpt>
      <trkpt lat="36.7647530" lon="-4.4234470">
        <ele>92.9</ele>
        <time>2018-03-28T08:33:26Z</time>
      </trkpt>
      <trkpt lat="36.7648370" lon="-4.4234350">
        <ele>92.9</ele>
        <time>2018-03-28T08:33:27Z</time>
      </trkpt>
      <trkpt lat="36.7648800" lon="-4.4234300">
        <ele>92.9</ele>
        <time>2018-03-28T08:33:28Z</time>
      </trkpt>
      <trkpt lat="36.7649230" lon="-4.4234270">
        <ele>92.9</ele>
        <time>2018-03-28T08:33:29Z</time>
      </trkpt>
      <trkpt lat="36.7649230" lon="-4.4234270">
        <ele>92.9</ele>
        <time>2018-03-28T08:33:30Z</time>
      </trkpt>
      <trkpt lat="36.7650100" lon="-4.4234170">
        <ele>92.9</ele>
        <time>2018-03-28T08:33:31Z</time>
      </trkpt>
      <trkpt lat="36.7650530" lon="-4.4234120">
        <ele>92.9</ele>
        <time>2018-03-28T08:33:32Z</time>
      </trkpt>
      <trkpt lat="36.7650530" lon="-4.4234120">
        <ele>92.9</ele>
        <time>2018-03-28T08:33:33Z</time>
      </trkpt>
      <trkpt lat="36.7651380" lon="-4.4233980">
        <ele>92.9</ele>
        <time>2018-03-28T08:33:34Z</time>
      </trkpt>
      <trkpt lat="36.7651380" lon="-4.4233980">
        <ele>92.9</ele>
        <time>2018-03-28T08:33:35Z</time>
      </trkpt>
      <trkpt lat="36.7652230" lon="-4.4233880">
        <ele>92.9</ele>
        <time>2018-03-28T08:33:36Z</time>
      </trkpt>
      <trkpt lat="36.7652230" lon="-4.4233880">
        <ele>92.9</ele>
        <time>2018-03-28T08:33:37Z</time>
      </trkpt>
      <trkpt lat="36.7653150" lon="-4.4233820">
        <ele>92.9</ele>
        <time>2018-03-28T08:33:38Z</time>
      </trkpt>
      <trkpt lat="36.7653840" lon="-4.4233760">
        <ele>92.9</ele>
        <time>2018-03-28T08:33:39Z</time>
      </trkpt>
      <trkpt lat="36.7654070" lon="-4.4233740">
        <ele>92.9</ele>
        <time>2018-03-28T08:33:40Z</time>
      </trkpt>
      <trkpt lat="36.7654530" lon="-4.4233700">
        <ele>92.9</ele>
        <time>2018-03-28T08:33:41Z</time>
      </trkpt>
      <trkpt lat="36.7655000" lon="-4.4233680">
        <ele>92.9</ele>
        <time>2018-03-28T08:33:42Z</time>
      </trkpt>
      <trkpt lat="36.7655000" lon="-4.4233680">
        <ele>92.9</ele>
        <time>2018-03-28T08:33:43Z</time>
      </trkpt>
      <trkpt lat="36.7655970" lon="-4.4233700">
        <ele>93.9</ele>
        <time>2018-03-28T08:33:44Z</time>
      </trkpt>
      <trkpt lat="36.7655970" lon="-4.4233700">
        <ele>93.9</ele>
        <time>2018-03-28T08:33:45Z</time>
      </trkpt>
      <trkpt lat="36.7657170" lon="-4.4233680">
        <ele>93.9</ele>
        <time>2018-03-28T08:33:46Z</time>
      </trkpt>
      <trkpt lat="36.7657410" lon="-4.4233680">
        <ele>93.9</ele>
        <time>2018-03-28T08:33:47Z</time>
      </trkpt>
      <trkpt lat="36.7657880" lon="-4.4233680">
        <ele>93.9</ele>
        <time>2018-03-28T08:33:48Z</time>
      </trkpt>
      <trkpt lat="36.7657880" lon="-4.4233680">
        <ele>93.9</ele>
        <time>2018-03-28T08:33:49Z</time>
      </trkpt>
      <trkpt lat="36.7658870" lon="-4.4233670">
        <ele>93.9</ele>
        <time>2018-03-28T08:33:50Z</time>
      </trkpt>
      <trkpt lat="36.7659320" lon="-4.4233720">
        <ele>93.9</ele>
        <time>2018-03-28T08:33:51Z</time>
      </trkpt>
      <trkpt lat="36.7659320" lon="-4.4233720">
        <ele>93.9</ele>
        <time>2018-03-28T08:33:52Z</time>
      </trkpt>
      <trkpt lat="36.7660270" lon="-4.4233830">
        <ele>93.9</ele>
        <time>2018-03-28T08:33:53Z</time>
      </trkpt>
      <trkpt lat="36.7660750" lon="-4.4233870">
        <ele>93.9</ele>
        <time>2018-03-28T08:33:54Z</time>
      </trkpt>
      <trkpt lat="36.7660750" lon="-4.4233870">
        <ele>94.9</ele>
        <time>2018-03-28T08:33:55Z</time>
      </trkpt>
      <trkpt lat="36.7661730" lon="-4.4233950">
        <ele>94.9</ele>
        <time>2018-03-28T08:33:56Z</time>
      </trkpt>
      <trkpt lat="36.7662200" lon="-4.4234020">
        <ele>94.9</ele>
        <time>2018-03-28T08:33:57Z</time>
      </trkpt>
      <trkpt lat="36.7662200" lon="-4.4234020">
        <ele>94.9</ele>
        <time>2018-03-28T08:33:58Z</time>
      </trkpt>
      <trkpt lat="36.7663170" lon="-4.4234200">
        <ele>94.9</ele>
        <time>2018-03-28T08:33:59Z</time>
      </trkpt>
      <trkpt lat="36.7663650" lon="-4.4234300">
        <ele>94.9</ele>
        <time>2018-03-28T08:34:00Z</time>
      </trkpt>
      <trkpt lat="36.7663650" lon="-4.4234300">
        <ele>95.9</ele>
        <time>2018-03-28T08:34:01Z</time>
      </trkpt>
      <trkpt lat="36.7664580" lon="-4.4234570">
        <ele>95.9</ele>
        <time>2018-03-28T08:34:02Z</time>
      </trkpt>
      <trkpt lat="36.7665050" lon="-4.4234700">
        <ele>95.9</ele>
        <time>2018-03-28T08:34:03Z</time>
      </trkpt>
      <trkpt lat="36.7665050" lon="-4.4234700">
        <ele>95.9</ele>
        <time>2018-03-28T08:34:04Z</time>
      </trkpt>
      <trkpt lat="36.7665950" lon="-4.4235000">
        <ele>95.9</ele>
        <time>2018-03-28T08:34:05Z</time>
      </trkpt>
      <trkpt lat="36.7665950" lon="-4.4235000">
        <ele>95.9</ele>
        <time>2018-03-28T08:34:06Z</time>
      </trkpt>
      <trkpt lat="36.7666870" lon="-4.4235330">
        <ele>96.9</ele>
        <time>2018-03-28T08:34:07Z</time>
      </trkpt>
      <trkpt lat="36.7667320" lon="-4.4235500">
        <ele>96.9</ele>
        <time>2018-03-28T08:34:08Z</time>
      </trkpt>
      <trkpt lat="36.7667320" lon="-4.4235500">
        <ele>96.9</ele>
        <time>2018-03-28T08:34:09Z</time>
      </trkpt>
      <trkpt lat="36.7668220" lon="-4.4235850">
        <ele>96.9</ele>
        <time>2018-03-28T08:34:10Z</time>
      </trkpt>
      <trkpt lat="36.7668220" lon="-4.4235850">
        <ele>97.9</ele>
        <time>2018-03-28T08:34:11Z</time>
      </trkpt>
      <trkpt lat="36.7669120" lon="-4.4236270">
        <ele>97.9</ele>
        <time>2018-03-28T08:34:12Z</time>
      </trkpt>
      <trkpt lat="36.7669120" lon="-4.4236270">
        <ele>97.9</ele>
        <time>2018-03-28T08:34:13Z</time>
      </trkpt>
      <trkpt lat="36.7670020" lon="-4.4236700">
        <ele>98.9</ele>
        <time>2018-03-28T08:34:14Z</time>
      </trkpt>
      <trkpt lat="36.7670450" lon="-4.4236930">
        <ele>98.9</ele>
        <time>2018-03-28T08:34:15Z</time>
      </trkpt>
      <trkpt lat="36.7670920" lon="-4.4237170">
        <ele>98.9</ele>
        <time>2018-03-28T08:34:16Z</time>
      </trkpt>
      <trkpt lat="36.7671350" lon="-4.4237410">
        <ele>98.9</ele>
        <time>2018-03-28T08:34:17Z</time>
      </trkpt>
      <trkpt lat="36.7671780" lon="-4.4237650">
        <ele>98.9</ele>
        <time>2018-03-28T08:34:18Z</time>
      </trkpt>
      <trkpt lat="36.7672200" lon="-4.4237880">
        <ele>98.9</ele>
        <time>2018-03-28T08:34:19Z</time>
      </trkpt>
      <trkpt lat="36.7672200" lon="-4.4237880">
        <ele>98.9</ele>
        <time>2018-03-28T08:34:20Z</time>
      </trkpt>
      <trkpt lat="36.7673020" lon="-4.4238320">
        <ele>98.9</ele>
        <time>2018-03-28T08:34:21Z</time>
      </trkpt>
      <trkpt lat="36.7673310" lon="-4.4238480">
        <ele>98.9</ele>
        <time>2018-03-28T08:34:22Z</time>
      </trkpt>
      <trkpt lat="36.7673600" lon="-4.4238640">
        <ele>98.9</ele>
        <time>2018-03-28T08:34:23Z</time>
      </trkpt>
      <trkpt lat="36.7674170" lon="-4.4238970">
        <ele>98.9</ele>
        <time>2018-03-28T08:34:24Z</time>
      </trkpt>
      <trkpt lat="36.7674170" lon="-4.4238970">
        <ele>99.9</ele>
        <time>2018-03-28T08:34:25Z</time>
      </trkpt>
      <trkpt lat="36.7674920" lon="-4.4239420">
        <ele>99.9</ele>
        <time>2018-03-28T08:34:26Z</time>
      </trkpt>
      <trkpt lat="36.7674920" lon="-4.4239420">
        <ele>99.9</ele>
        <time>2018-03-28T08:34:27Z</time>
      </trkpt>
      <trkpt lat="36.7675670" lon="-4.4239920">
        <ele>99.9</ele>
        <time>2018-03-28T08:34:28Z</time>
      </trkpt>
      <trkpt lat="36.7675670" lon="-4.4239920">
        <ele>100.9</ele>
        <time>2018-03-28T08:34:29Z</time>
      </trkpt>
      <trkpt lat="36.7676420" lon="-4.4240320">
        <ele>100.9</ele>
        <time>2018-03-28T08:34:30Z</time>
      </trkpt>
      <trkpt lat="36.7676420" lon="-4.4240320">
        <ele>100.9</ele>
        <time>2018-03-28T08:34:31Z</time>
      </trkpt>
      <trkpt lat="36.7677150" lon="-4.4240720">
        <ele>100.9</ele>
        <time>2018-03-28T08:34:32Z</time>
      </trkpt>
      <trkpt lat="36.7677150" lon="-4.4240720">
        <ele>101.9</ele>
        <time>2018-03-28T08:34:33Z</time>
      </trkpt>
      <trkpt lat="36.7677880" lon="-4.4241180">
        <ele>101.9</ele>
        <time>2018-03-28T08:34:34Z</time>
      </trkpt>
      <trkpt lat="36.7677880" lon="-4.4241180">
        <ele>101.9</ele>
        <time>2018-03-28T08:34:35Z</time>
      </trkpt>
      <trkpt lat="36.7678680" lon="-4.4241630">
        <ele>101.9</ele>
        <time>2018-03-28T08:34:36Z</time>
      </trkpt>
      <trkpt lat="36.7678680" lon="-4.4241630">
        <ele>101.9</ele>
        <time>2018-03-28T08:34:37Z</time>
      </trkpt>
      <trkpt lat="36.7679430" lon="-4.4242080">
        <ele>101.9</ele>
        <time>2018-03-28T08:34:38Z</time>
      </trkpt>
      <trkpt lat="36.7679800" lon="-4.4242320">
        <ele>102.9</ele>
        <time>2018-03-28T08:34:39Z</time>
      </trkpt>
      <trkpt lat="36.7679800" lon="-4.4242320">
        <ele>102.9</ele>
        <time>2018-03-28T08:34:40Z</time>
      </trkpt>
      <trkpt lat="36.7680570" lon="-4.4242750">
        <ele>102.9</ele>
        <time>2018-03-28T08:34:41Z</time>
      </trkpt>
      <trkpt lat="36.7680950" lon="-4.4242980">
        <ele>102.9</ele>
        <time>2018-03-28T08:34:42Z</time>
      </trkpt>
      <trkpt lat="36.7680950" lon="-4.4242980">
        <ele>103.9</ele>
        <time>2018-03-28T08:34:43Z</time>
      </trkpt>
      <trkpt lat="36.7681720" lon="-4.4243450">
        <ele>103.9</ele>
        <time>2018-03-28T08:34:44Z</time>
      </trkpt>
      <trkpt lat="36.7681720" lon="-4.4243450">
        <ele>103.9</ele>
        <time>2018-03-28T08:34:45Z</time>
      </trkpt>
      <trkpt lat="36.7682500" lon="-4.4243870">
        <ele>103.9</ele>
        <time>2018-03-28T08:34:46Z</time>
      </trkpt>
      <trkpt lat="36.7682500" lon="-4.4243870">
        <ele>103.9</ele>
        <time>2018-03-28T08:34:47Z</time>
      </trkpt>
      <trkpt lat="36.7683270" lon="-4.4244280">
        <ele>103.9</ele>
        <time>2018-03-28T08:34:48Z</time>
      </trkpt>
      <trkpt lat="36.7683270" lon="-4.4244280">
        <ele>103.9</ele>
        <time>2018-03-28T08:34:49Z</time>
      </trkpt>
      <trkpt lat="36.7684000" lon="-4.4244700">
        <ele>103.9</ele>
        <time>2018-03-28T08:34:50Z</time>
      </trkpt>
      <trkpt lat="36.7684000" lon="-4.4244700">
        <ele>103.9</ele>
        <time>2018-03-28T08:34:51Z</time>
      </trkpt>
      <trkpt lat="36.7684700" lon="-4.4245100">
        <ele>103.9</ele>
        <time>2018-03-28T08:34:52Z</time>
      </trkpt>
      <trkpt lat="36.7684700" lon="-4.4245100">
        <ele>104.9</ele>
        <time>2018-03-28T08:34:53Z</time>
      </trkpt>
      <trkpt lat="36.7685450" lon="-4.4245480">
        <ele>104.9</ele>
        <time>2018-03-28T08:34:54Z</time>
      </trkpt>
      <trkpt lat="36.7685450" lon="-4.4245480">
        <ele>104.9</ele>
        <time>2018-03-28T08:34:55Z</time>
      </trkpt>
      <trkpt lat="36.7686170" lon="-4.4245920">
        <ele>104.9</ele>
        <time>2018-03-28T08:34:56Z</time>
      </trkpt>
      <trkpt lat="36.7686170" lon="-4.4245920">
        <ele>105.9</ele>
        <time>2018-03-28T08:34:57Z</time>
      </trkpt>
      <trkpt lat="36.7686830" lon="-4.4246400">
        <ele>105.9</ele>
        <time>2018-03-28T08:34:58Z</time>
      </trkpt>
      <trkpt lat="36.7686830" lon="-4.4246400">
        <ele>105.9</ele>
        <time>2018-03-28T08:34:59Z</time>
      </trkpt>
      <trkpt lat="36.7687480" lon="-4.4246830">
        <ele>105.9</ele>
        <time>2018-03-28T08:35:00Z</time>
      </trkpt>
      <trkpt lat="36.7687480" lon="-4.4246830">
        <ele>106.9</ele>
        <time>2018-03-28T08:35:01Z</time>
      </trkpt>
      <trkpt lat="36.7688130" lon="-4.4247150">
        <ele>106.9</ele>
        <time>2018-03-28T08:35:02Z</time>
      </trkpt>
      <trkpt lat="36.7688500" lon="-4.4247280">
        <ele>106.9</ele>
        <time>2018-03-28T08:35:03Z</time>
      </trkpt>
      <trkpt lat="36.7688500" lon="-4.4247280">
        <ele>106.9</ele>
        <time>2018-03-28T08:35:04Z</time>
      </trkpt>
      <trkpt lat="36.7689290" lon="-4.4247680">
        <ele>107.9</ele>
        <time>2018-03-28T08:35:05Z</time>
      </trkpt>
      <trkpt lat="36.7689400" lon="-4.4247730">
        <ele>107.9</ele>
        <time>2018-03-28T08:35:06Z</time>
      </trkpt>
      <trkpt lat="36.7689520" lon="-4.4247790">
        <ele>107.9</ele>
        <time>2018-03-28T08:35:07Z</time>
      </trkpt>
      <trkpt lat="36.7689870" lon="-4.4247970">
        <ele>107.9</ele>
        <time>2018-03-28T08:35:08Z</time>
      </trkpt>
      <trkpt lat="36.7690550" lon="-4.4248350">
        <ele>108.9</ele>
        <time>2018-03-28T08:35:09Z</time>
      </trkpt>
      <trkpt lat="36.7690550" lon="-4.4248350">
        <ele>108.9</ele>
        <time>2018-03-28T08:35:10Z</time>
      </trkpt>
      <trkpt lat="36.7691200" lon="-4.4248700">
        <ele>108.9</ele>
        <time>2018-03-28T08:35:11Z</time>
      </trkpt>
      <trkpt lat="36.7691520" lon="-4.4248880">
        <ele>108.9</ele>
        <time>2018-03-28T08:35:12Z</time>
      </trkpt>
      <trkpt lat="36.7691520" lon="-4.4248880">
        <ele>108.9</ele>
        <time>2018-03-28T08:35:13Z</time>
      </trkpt>
      <trkpt lat="36.7692180" lon="-4.4249220">
        <ele>109.9</ele>
        <time>2018-03-28T08:35:14Z</time>
      </trkpt>
      <trkpt lat="36.7692180" lon="-4.4249220">
        <ele>109.9</ele>
        <time>2018-03-28T08:35:15Z</time>
      </trkpt>
      <trkpt lat="36.7692880" lon="-4.4249480">
        <ele>109.9</ele>
        <time>2018-03-28T08:35:16Z</time>
      </trkpt>
      <trkpt lat="36.7692880" lon="-4.4249480">
        <ele>109.9</ele>
        <time>2018-03-28T08:35:17Z</time>
      </trkpt>
      <trkpt lat="36.7693570" lon="-4.4249800">
        <ele>110.9</ele>
        <time>2018-03-28T08:35:18Z</time>
      </trkpt>
      <trkpt lat="36.7693570" lon="-4.4249800">
        <ele>110.9</ele>
        <time>2018-03-28T08:35:19Z</time>
      </trkpt>
      <trkpt lat="36.7694270" lon="-4.4250100">
        <ele>110.9</ele>
        <time>2018-03-28T08:35:20Z</time>
      </trkpt>
      <trkpt lat="36.7694270" lon="-4.4250100">
        <ele>110.9</ele>
        <time>2018-03-28T08:35:21Z</time>
      </trkpt>
      <trkpt lat="36.7694950" lon="-4.4250400">
        <ele>112.9</ele>
        <time>2018-03-28T08:35:22Z</time>
      </trkpt>
      <trkpt lat="36.7694950" lon="-4.4250400">
        <ele>112.9</ele>
        <time>2018-03-28T08:35:23Z</time>
      </trkpt>
      <trkpt lat="36.7695630" lon="-4.4250680">
        <ele>112.9</ele>
        <time>2018-03-28T08:35:24Z</time>
      </trkpt>
      <trkpt lat="36.7695630" lon="-4.4250680">
        <ele>112.9</ele>
        <time>2018-03-28T08:35:25Z</time>
      </trkpt>
      <trkpt lat="36.7696330" lon="-4.4250950">
        <ele>113.9</ele>
        <time>2018-03-28T08:35:26Z</time>
      </trkpt>
      <trkpt lat="36.7696330" lon="-4.4250950">
        <ele>113.9</ele>
        <time>2018-03-28T08:35:27Z</time>
      </trkpt>
      <trkpt lat="36.7697000" lon="-4.4251230">
        <ele>113.9</ele>
        <time>2018-03-28T08:35:28Z</time>
      </trkpt>
      <trkpt lat="36.7697000" lon="-4.4251230">
        <ele>113.9</ele>
        <time>2018-03-28T08:35:29Z</time>
      </trkpt>
      <trkpt lat="36.7697720" lon="-4.4251470">
        <ele>114.9</ele>
        <time>2018-03-28T08:35:30Z</time>
      </trkpt>
      <trkpt lat="36.7697720" lon="-4.4251470">
        <ele>114.9</ele>
        <time>2018-03-28T08:35:31Z</time>
      </trkpt>
      <trkpt lat="36.7698430" lon="-4.4251670">
        <ele>115.9</ele>
        <time>2018-03-28T08:35:32Z</time>
      </trkpt>
      <trkpt lat="36.7698430" lon="-4.4251670">
        <ele>115.9</ele>
        <time>2018-03-28T08:35:33Z</time>
      </trkpt>
      <trkpt lat="36.7699150" lon="-4.4251880">
        <ele>115.9</ele>
        <time>2018-03-28T08:35:34Z</time>
      </trkpt>
      <trkpt lat="36.7699150" lon="-4.4251880">
        <ele>115.9</ele>
        <time>2018-03-28T08:35:35Z</time>
      </trkpt>
      <trkpt lat="36.7699880" lon="-4.4252120">
        <ele>116.9</ele>
        <time>2018-03-28T08:35:36Z</time>
      </trkpt>
      <trkpt lat="36.7700230" lon="-4.4252230">
        <ele>116.9</ele>
        <time>2018-03-28T08:35:37Z</time>
      </trkpt>
      <trkpt lat="36.7700230" lon="-4.4252230">
        <ele>116.9</ele>
        <time>2018-03-28T08:35:38Z</time>
      </trkpt>
      <trkpt lat="36.7700950" lon="-4.4252450">
        <ele>116.9</ele>
        <time>2018-03-28T08:35:39Z</time>
      </trkpt>
      <trkpt lat="36.7700950" lon="-4.4252450">
        <ele>116.9</ele>
        <time>2018-03-28T08:35:40Z</time>
      </trkpt>
      <trkpt lat="36.7701680" lon="-4.4252620">
        <ele>116.9</ele>
        <time>2018-03-28T08:35:41Z</time>
      </trkpt>
      <trkpt lat="36.7702050" lon="-4.4252680">
        <ele>116.9</ele>
        <time>2018-03-28T08:35:42Z</time>
      </trkpt>
      <trkpt lat="36.7702050" lon="-4.4252680">
        <ele>116.9</ele>
        <time>2018-03-28T08:35:43Z</time>
      </trkpt>
      <trkpt lat="36.7702780" lon="-4.4252820">
        <ele>116.9</ele>
        <time>2018-03-28T08:35:44Z</time>
      </trkpt>
      <trkpt lat="36.7702780" lon="-4.4252820">
        <ele>117.9</ele>
        <time>2018-03-28T08:35:45Z</time>
      </trkpt>
      <trkpt lat="36.7703500" lon="-4.4252950">
        <ele>117.9</ele>
        <time>2018-03-28T08:35:46Z</time>
      </trkpt>
      <trkpt lat="36.7703500" lon="-4.4252950">
        <ele>117.9</ele>
        <time>2018-03-28T08:35:47Z</time>
      </trkpt>
      <trkpt lat="36.7704220" lon="-4.4253120">
        <ele>117.9</ele>
        <time>2018-03-28T08:35:48Z</time>
      </trkpt>
      <trkpt lat="36.7704220" lon="-4.4253120">
        <ele>118.9</ele>
        <time>2018-03-28T08:35:49Z</time>
      </trkpt>
      <trkpt lat="36.7704930" lon="-4.4253200">
        <ele>118.9</ele>
        <time>2018-03-28T08:35:50Z</time>
      </trkpt>
      <trkpt lat="36.7704930" lon="-4.4253200">
        <ele>118.9</ele>
        <time>2018-03-28T08:35:51Z</time>
      </trkpt>
      <trkpt lat="36.7705630" lon="-4.4253270">
        <ele>118.9</ele>
        <time>2018-03-28T08:35:52Z</time>
      </trkpt>
      <trkpt lat="36.7705630" lon="-4.4253270">
        <ele>118.9</ele>
        <time>2018-03-28T08:35:53Z</time>
      </trkpt>
      <trkpt lat="36.7706330" lon="-4.4253380">
        <ele>118.9</ele>
        <time>2018-03-28T08:35:54Z</time>
      </trkpt>
      <trkpt lat="36.7706330" lon="-4.4253380">
        <ele>119.9</ele>
        <time>2018-03-28T08:35:55Z</time>
      </trkpt>
      <trkpt lat="36.7707030" lon="-4.4253500">
        <ele>119.9</ele>
        <time>2018-03-28T08:35:56Z</time>
      </trkpt>
      <trkpt lat="36.7707030" lon="-4.4253500">
        <ele>119.9</ele>
        <time>2018-03-28T08:35:57Z</time>
      </trkpt>
      <trkpt lat="36.7707680" lon="-4.4253670">
        <ele>119.9</ele>
        <time>2018-03-28T08:35:58Z</time>
      </trkpt>
      <trkpt lat="36.7707680" lon="-4.4253670">
        <ele>120.9</ele>
        <time>2018-03-28T08:35:59Z</time>
      </trkpt>
      <trkpt lat="36.7708370" lon="-4.4253820">
        <ele>120.9</ele>
        <time>2018-03-28T08:36:00Z</time>
      </trkpt>
      <trkpt lat="36.7708370" lon="-4.4253820">
        <ele>120.9</ele>
        <time>2018-03-28T08:36:01Z</time>
      </trkpt>
      <trkpt lat="36.7709070" lon="-4.4253830">
        <ele>120.9</ele>
        <time>2018-03-28T08:36:02Z</time>
      </trkpt>
      <trkpt lat="36.7709420" lon="-4.4253830">
        <ele>120.9</ele>
        <time>2018-03-28T08:36:03Z</time>
      </trkpt>
      <trkpt lat="36.7709420" lon="-4.4253830">
        <ele>120.9</ele>
        <time>2018-03-28T08:36:04Z</time>
      </trkpt>
      <trkpt lat="36.7710130" lon="-4.4253850">
        <ele>121.9</ele>
        <time>2018-03-28T08:36:05Z</time>
      </trkpt>
      <trkpt lat="36.7710480" lon="-4.4253870">
        <ele>121.9</ele>
        <time>2018-03-28T08:36:06Z</time>
      </trkpt>
      <trkpt lat="36.7710480" lon="-4.4253870">
        <ele>121.9</ele>
        <time>2018-03-28T08:36:07Z</time>
      </trkpt>
      <trkpt lat="36.7711170" lon="-4.4253970">
        <ele>121.9</ele>
        <time>2018-03-28T08:36:08Z</time>
      </trkpt>
      <trkpt lat="36.7711500" lon="-4.4253980">
        <ele>122.9</ele>
        <time>2018-03-28T08:36:09Z</time>
      </trkpt>
      <trkpt lat="36.7711500" lon="-4.4253980">
        <ele>122.9</ele>
        <time>2018-03-28T08:36:10Z</time>
      </trkpt>
      <trkpt lat="36.7712220" lon="-4.4253970">
        <ele>122.9</ele>
        <time>2018-03-28T08:36:11Z</time>
      </trkpt>
      <trkpt lat="36.7712580" lon="-4.4253970">
        <ele>122.9</ele>
        <time>2018-03-28T08:36:12Z</time>
      </trkpt>
      <trkpt lat="36.7712580" lon="-4.4253970">
        <ele>122.9</ele>
        <time>2018-03-28T08:36:13Z</time>
      </trkpt>
      <trkpt lat="36.7713320" lon="-4.4253930">
        <ele>122.9</ele>
        <time>2018-03-28T08:36:14Z</time>
      </trkpt>
      <trkpt lat="36.7713680" lon="-4.4253920">
        <ele>122.9</ele>
        <time>2018-03-28T08:36:15Z</time>
      </trkpt>
      <trkpt lat="36.7713680" lon="-4.4253920">
        <ele>122.9</ele>
        <time>2018-03-28T08:36:16Z</time>
      </trkpt>
      <trkpt lat="36.7714400" lon="-4.4253880">
        <ele>122.9</ele>
        <time>2018-03-28T08:36:17Z</time>
      </trkpt>
      <trkpt lat="36.7714750" lon="-4.4253870">
        <ele>123.9</ele>
        <time>2018-03-28T08:36:18Z</time>
      </trkpt>
      <trkpt lat="36.7714750" lon="-4.4253870">
        <ele>123.9</ele>
        <time>2018-03-28T08:36:19Z</time>
      </trkpt>
      <trkpt lat="36.7715430" lon="-4.4253780">
        <ele>123.9</ele>
        <time>2018-03-28T08:36:20Z</time>
      </trkpt>
      <trkpt lat="36.7715430" lon="-4.4253780">
        <ele>123.9</ele>
        <time>2018-03-28T08:36:21Z</time>
      </trkpt>
      <trkpt lat="36.7716170" lon="-4.4253700">
        <ele>123.9</ele>
        <time>2018-03-28T08:36:22Z</time>
      </trkpt>
      <trkpt lat="36.7716170" lon="-4.4253700">
        <ele>123.9</ele>
        <time>2018-03-28T08:36:23Z</time>
      </trkpt>
      <trkpt lat="36.7716870" lon="-4.4253630">
        <ele>124.9</ele>
        <time>2018-03-28T08:36:24Z</time>
      </trkpt>
      <trkpt lat="36.7717230" lon="-4.4253620">
        <ele>124.9</ele>
        <time>2018-03-28T08:36:25Z</time>
      </trkpt>
      <trkpt lat="36.7717230" lon="-4.4253620">
        <ele>124.9</ele>
        <time>2018-03-28T08:36:26Z</time>
      </trkpt>
      <trkpt lat="36.7717970" lon="-4.4253620">
        <ele>124.9</ele>
        <time>2018-03-28T08:36:27Z</time>
      </trkpt>
      <trkpt lat="36.7717970" lon="-4.4253620">
        <ele>125.9</ele>
        <time>2018-03-28T08:36:28Z</time>
      </trkpt>
      <trkpt lat="36.7718700" lon="-4.4253580">
        <ele>125.9</ele>
        <time>2018-03-28T08:36:29Z</time>
      </trkpt>
      <trkpt lat="36.7718700" lon="-4.4253580">
        <ele>125.9</ele>
        <time>2018-03-28T08:36:30Z</time>
      </trkpt>
      <trkpt lat="36.7719430" lon="-4.4253550">
        <ele>125.9</ele>
        <time>2018-03-28T08:36:31Z</time>
      </trkpt>
      <trkpt lat="36.7719430" lon="-4.4253550">
        <ele>126.9</ele>
        <time>2018-03-28T08:36:32Z</time>
      </trkpt>
      <trkpt lat="36.7720130" lon="-4.4253500">
        <ele>126.9</ele>
        <time>2018-03-28T08:36:33Z</time>
      </trkpt>
      <trkpt lat="36.7720130" lon="-4.4253500">
        <ele>126.9</ele>
        <time>2018-03-28T08:36:34Z</time>
      </trkpt>
      <trkpt lat="36.7720820" lon="-4.4253470">
        <ele>126.9</ele>
        <time>2018-03-28T08:36:35Z</time>
      </trkpt>
      <trkpt lat="36.7721170" lon="-4.4253450">
        <ele>126.9</ele>
        <time>2018-03-28T08:36:36Z</time>
      </trkpt>
      <trkpt lat="36.7721170" lon="-4.4253450">
        <ele>126.9</ele>
        <time>2018-03-28T08:36:37Z</time>
      </trkpt>
      <trkpt lat="36.7721850" lon="-4.4253370">
        <ele>127.9</ele>
        <time>2018-03-28T08:36:38Z</time>
      </trkpt>
      <trkpt lat="36.7721850" lon="-4.4253370">
        <ele>127.9</ele>
        <time>2018-03-28T08:36:39Z</time>
      </trkpt>
      <trkpt lat="36.7722530" lon="-4.4253350">
        <ele>127.9</ele>
        <time>2018-03-28T08:36:40Z</time>
      </trkpt>
      <trkpt lat="36.7722530" lon="-4.4253350">
        <ele>127.9</ele>
        <time>2018-03-28T08:36:41Z</time>
      </trkpt>
      <trkpt lat="36.7723230" lon="-4.4253350">
        <ele>128.9</ele>
        <time>2018-03-28T08:36:42Z</time>
      </trkpt>
      <trkpt lat="36.7723230" lon="-4.4253350">
        <ele>128.9</ele>
        <time>2018-03-28T08:36:43Z</time>
      </trkpt>
      <trkpt lat="36.7723930" lon="-4.4253300">
        <ele>128.9</ele>
        <time>2018-03-28T08:36:44Z</time>
      </trkpt>
      <trkpt lat="36.7724280" lon="-4.4253300">
        <ele>128.9</ele>
        <time>2018-03-28T08:36:45Z</time>
      </trkpt>
      <trkpt lat="36.7724280" lon="-4.4253300">
        <ele>128.9</ele>
        <time>2018-03-28T08:36:46Z</time>
      </trkpt>
      <trkpt lat="36.7725050" lon="-4.4253280">
        <ele>129.9</ele>
        <time>2018-03-28T08:36:47Z</time>
      </trkpt>
      <trkpt lat="36.7725130" lon="-4.4253280">
        <ele>129.9</ele>
        <time>2018-03-28T08:36:48Z</time>
      </trkpt>
      <trkpt lat="36.7725280" lon="-4.4253280">
        <ele>129.9</ele>
        <time>2018-03-28T08:36:49Z</time>
      </trkpt>
      <trkpt lat="36.7725950" lon="-4.4253230">
        <ele>129.9</ele>
        <time>2018-03-28T08:36:50Z</time>
      </trkpt>
      <trkpt lat="36.7726330" lon="-4.4253150">
        <ele>130.9</ele>
        <time>2018-03-28T08:36:51Z</time>
      </trkpt>
      <trkpt lat="36.7726330" lon="-4.4253150">
        <ele>130.9</ele>
        <time>2018-03-28T08:36:52Z</time>
      </trkpt>
      <trkpt lat="36.7727030" lon="-4.4253100">
        <ele>130.9</ele>
        <time>2018-03-28T08:36:53Z</time>
      </trkpt>
      <trkpt lat="36.7727370" lon="-4.4253070">
        <ele>130.9</ele>
        <time>2018-03-28T08:36:54Z</time>
      </trkpt>
      <trkpt lat="36.7727370" lon="-4.4253070">
        <ele>130.9</ele>
        <time>2018-03-28T08:36:55Z</time>
      </trkpt>
      <trkpt lat="36.7728000" lon="-4.4253000">
        <ele>130.9</ele>
        <time>2018-03-28T08:36:56Z</time>
      </trkpt>
      <trkpt lat="36.7728300" lon="-4.4252970">
        <ele>130.9</ele>
        <time>2018-03-28T08:36:57Z</time>
      </trkpt>
      <trkpt lat="36.7728300" lon="-4.4252970">
        <ele>130.9</ele>
        <time>2018-03-28T08:36:58Z</time>
      </trkpt>
      <trkpt lat="36.7728950" lon="-4.4252820">
        <ele>131.9</ele>
        <time>2018-03-28T08:36:59Z</time>
      </trkpt>
      <trkpt lat="36.7729280" lon="-4.4252750">
        <ele>131.9</ele>
        <time>2018-03-28T08:37:00Z</time>
      </trkpt>
      <trkpt lat="36.7729280" lon="-4.4252750">
        <ele>131.9</ele>
        <time>2018-03-28T08:37:01Z</time>
      </trkpt>
      <trkpt lat="36.7729950" lon="-4.4252480">
        <ele>131.9</ele>
        <time>2018-03-28T08:37:02Z</time>
      </trkpt>
      <trkpt lat="36.7730270" lon="-4.4252320">
        <ele>131.9</ele>
        <time>2018-03-28T08:37:03Z</time>
      </trkpt>
      <trkpt lat="36.7730270" lon="-4.4252320">
        <ele>131.9</ele>
        <time>2018-03-28T08:37:04Z</time>
      </trkpt>
      <trkpt lat="36.7730920" lon="-4.4251970">
        <ele>132.9</ele>
        <time>2018-03-28T08:37:05Z</time>
      </trkpt>
      <trkpt lat="36.7730920" lon="-4.4251970">
        <ele>132.9</ele>
        <time>2018-03-28T08:37:06Z</time>
      </trkpt>
      <trkpt lat="36.7731570" lon="-4.4251670">
        <ele>132.9</ele>
        <time>2018-03-28T08:37:07Z</time>
      </trkpt>
      <trkpt lat="36.7731900" lon="-4.4251470">
        <ele>132.9</ele>
        <time>2018-03-28T08:37:08Z</time>
      </trkpt>
      <trkpt lat="36.7731900" lon="-4.4251470">
        <ele>133.9</ele>
        <time>2018-03-28T08:37:09Z</time>
      </trkpt>
      <trkpt lat="36.7732530" lon="-4.4251020">
        <ele>133.9</ele>
        <time>2018-03-28T08:37:10Z</time>
      </trkpt>
      <trkpt lat="36.7732530" lon="-4.4251020">
        <ele>133.9</ele>
        <time>2018-03-28T08:37:11Z</time>
      </trkpt>
      <trkpt lat="36.7733130" lon="-4.4250520">
        <ele>133.9</ele>
        <time>2018-03-28T08:37:12Z</time>
      </trkpt>
      <trkpt lat="36.7733130" lon="-4.4250520">
        <ele>133.9</ele>
        <time>2018-03-28T08:37:13Z</time>
      </trkpt>
      <trkpt lat="36.7733860" lon="-4.4249730">
        <ele>133.9</ele>
        <time>2018-03-28T08:37:14Z</time>
      </trkpt>
      <trkpt lat="36.7734000" lon="-4.4249570">
        <ele>134.9</ele>
        <time>2018-03-28T08:37:15Z</time>
      </trkpt>
      <trkpt lat="36.7734280" lon="-4.4249250">
        <ele>134.9</ele>
        <time>2018-03-28T08:37:16Z</time>
      </trkpt>
      <trkpt lat="36.7734580" lon="-4.4248900">
        <ele>134.9</ele>
        <time>2018-03-28T08:37:17Z</time>
      </trkpt>
      <trkpt lat="36.7734870" lon="-4.4248530">
        <ele>134.9</ele>
        <time>2018-03-28T08:37:18Z</time>
      </trkpt>
      <trkpt lat="36.7734870" lon="-4.4248530">
        <ele>134.9</ele>
        <time>2018-03-28T08:37:19Z</time>
      </trkpt>
      <trkpt lat="36.7735480" lon="-4.4247680">
        <ele>134.9</ele>
        <time>2018-03-28T08:37:20Z</time>
      </trkpt>
      <trkpt lat="36.7735480" lon="-4.4247680">
        <ele>134.9</ele>
        <time>2018-03-28T08:37:21Z</time>
      </trkpt>
      <trkpt lat="36.7736030" lon="-4.4246830">
        <ele>134.9</ele>
        <time>2018-03-28T08:37:22Z</time>
      </trkpt>
      <trkpt lat="36.7736030" lon="-4.4246830">
        <ele>134.9</ele>
        <time>2018-03-28T08:37:23Z</time>
      </trkpt>
      <trkpt lat="36.7736730" lon="-4.4246120">
        <ele>134.9</ele>
        <time>2018-03-28T08:37:24Z</time>
      </trkpt>
      <trkpt lat="36.7736730" lon="-4.4246120">
        <ele>134.9</ele>
        <time>2018-03-28T08:37:25Z</time>
      </trkpt>
      <trkpt lat="36.7737600" lon="-4.4246020">
        <ele>134.9</ele>
        <time>2018-03-28T08:37:26Z</time>
      </trkpt>
      <trkpt lat="36.7738080" lon="-4.4246230">
        <ele>134.9</ele>
        <time>2018-03-28T08:37:27Z</time>
      </trkpt>
      <trkpt lat="36.7738080" lon="-4.4246230">
        <ele>134.9</ele>
        <time>2018-03-28T08:37:28Z</time>
      </trkpt>
      <trkpt lat="36.7738550" lon="-4.4247230">
        <ele>134.9</ele>
        <time>2018-03-28T08:37:29Z</time>
      </trkpt>
      <trkpt lat="36.7738570" lon="-4.4247900">
        <ele>134.9</ele>
        <time>2018-03-28T08:37:30Z</time>
      </trkpt>
      <trkpt lat="36.7738570" lon="-4.4247900">
        <ele>134.9</ele>
        <time>2018-03-28T08:37:31Z</time>
      </trkpt>
      <trkpt lat="36.7738120" lon="-4.4249000">
        <ele>134.9</ele>
        <time>2018-03-28T08:37:32Z</time>
      </trkpt>
      <trkpt lat="36.7738120" lon="-4.4249000">
        <ele>134.9</ele>
        <time>2018-03-28T08:37:33Z</time>
      </trkpt>
      <trkpt lat="36.7737420" lon="-4.4249930">
        <ele>134.9</ele>
        <time>2018-03-28T08:37:34Z</time>
      </trkpt>
      <trkpt lat="36.7737420" lon="-4.4249930">
        <ele>133.9</ele>
        <time>2018-03-28T08:37:35Z</time>
      </trkpt>
      <trkpt lat="36.7736770" lon="-4.4251000">
        <ele>133.9</ele>
        <time>2018-03-28T08:37:36Z</time>
      </trkpt>
      <trkpt lat="36.7736770" lon="-4.4251000">
        <ele>133.9</ele>
        <time>2018-03-28T08:37:37Z</time>
      </trkpt>
      <trkpt lat="36.7736600" lon="-4.4252130">
        <ele>133.9</ele>
        <time>2018-03-28T08:37:38Z</time>
      </trkpt>
      <trkpt lat="36.7736600" lon="-4.4252130">
        <ele>133.9</ele>
        <time>2018-03-28T08:37:39Z</time>
      </trkpt>
      <trkpt lat="36.7736700" lon="-4.4252600">
        <ele>133.9</ele>
        <time>2018-03-28T08:37:40Z</time>
      </trkpt>
      <trkpt lat="36.7736700" lon="-4.4252600">
        <ele>133.9</ele>
        <time>2018-03-28T08:37:41Z</time>
      </trkpt>
      <trkpt lat="36.7736370" lon="-4.4252630">
        <ele>133.9</ele>
        <time>2018-03-28T08:37:42Z</time>
      </trkpt>
      <trkpt lat="36.7736370" lon="-4.4252630">
        <ele>133.9</ele>
        <time>2018-03-28T08:37:43Z</time>
      </trkpt>
      <trkpt lat="36.7736180" lon="-4.4252150">
        <ele>133.9</ele>
        <time>2018-03-28T08:37:44Z</time>
      </trkpt>
      <trkpt lat="36.7736180" lon="-4.4252150">
        <ele>133.9</ele>
        <time>2018-03-28T08:37:45Z</time>
      </trkpt>
      <trkpt lat="36.7736230" lon="-4.4251520">
        <ele>133.9</ele>
        <time>2018-03-28T08:37:46Z</time>
      </trkpt>
      <trkpt lat="36.7736230" lon="-4.4251520">
        <ele>133.9</ele>
        <time>2018-03-28T08:37:47Z</time>
      </trkpt>
      <trkpt lat="36.7736380" lon="-4.4250750">
        <ele>133.9</ele>
        <time>2018-03-28T08:37:48Z</time>
      </trkpt>
      <trkpt lat="36.7736380" lon="-4.4250750">
        <ele>133.9</ele>
        <time>2018-03-28T08:37:49Z</time>
      </trkpt>
      <trkpt lat="36.7736800" lon="-4.4250000">
        <ele>133.9</ele>
        <time>2018-03-28T08:37:50Z</time>
      </trkpt>
      <trkpt lat="36.7736800" lon="-4.4250000">
        <ele>133.9</ele>
        <time>2018-03-28T08:37:51Z</time>
      </trkpt>
      <trkpt lat="36.7737320" lon="-4.4249230">
        <ele>133.9</ele>
        <time>2018-03-28T08:37:52Z</time>
      </trkpt>
      <trkpt lat="36.7737670" lon="-4.4248880">
        <ele>133.9</ele>
        <time>2018-03-28T08:37:53Z</time>
      </trkpt>
      <trkpt lat="36.7738050" lon="-4.4248550">
        <ele>133.9</ele>
        <time>2018-03-28T08:37:54Z</time>
      </trkpt>
      <trkpt lat="36.7738050" lon="-4.4248550">
        <ele>133.9</ele>
        <time>2018-03-28T08:37:55Z</time>
      </trkpt>
      <trkpt lat="36.7738970" lon="-4.4248150">
        <ele>133.9</ele>
        <time>2018-03-28T08:37:56Z</time>
      </trkpt>
      <trkpt lat="36.7739470" lon="-4.4248150">
        <ele>133.9</ele>
        <time>2018-03-28T08:37:57Z</time>
      </trkpt>
      <trkpt lat="36.7739470" lon="-4.4248150">
        <ele>133.9</ele>
        <time>2018-03-28T08:37:58Z</time>
      </trkpt>
      <trkpt lat="36.7740550" lon="-4.4248450">
        <ele>133.9</ele>
        <time>2018-03-28T08:37:59Z</time>
      </trkpt>
      <trkpt lat="36.7741100" lon="-4.4248700">
        <ele>133.9</ele>
        <time>2018-03-28T08:38:00Z</time>
      </trkpt>
      <trkpt lat="36.7741100" lon="-4.4248700">
        <ele>133.9</ele>
        <time>2018-03-28T08:38:01Z</time>
      </trkpt>
      <trkpt lat="36.7742230" lon="-4.4249400">
        <ele>133.9</ele>
        <time>2018-03-28T08:38:02Z</time>
      </trkpt>
      <trkpt lat="36.7742230" lon="-4.4249400">
        <ele>133.9</ele>
        <time>2018-03-28T08:38:03Z</time>
      </trkpt>
      <trkpt lat="36.7743280" lon="-4.4250480">
        <ele>133.9</ele>
        <time>2018-03-28T08:38:04Z</time>
      </trkpt>
      <trkpt lat="36.7743280" lon="-4.4250480">
        <ele>132.9</ele>
        <time>2018-03-28T08:38:05Z</time>
      </trkpt>
      <trkpt lat="36.7744150" lon="-4.4251950">
        <ele>132.9</ele>
        <time>2018-03-28T08:38:06Z</time>
      </trkpt>
      <trkpt lat="36.7744550" lon="-4.4252780">
        <ele>132.9</ele>
        <time>2018-03-28T08:38:07Z</time>
      </trkpt>
      <trkpt lat="36.7744550" lon="-4.4252780">
        <ele>132.9</ele>
        <time>2018-03-28T08:38:08Z</time>
      </trkpt>
      <trkpt lat="36.7745100" lon="-4.4254670">
        <ele>131.9</ele>
        <time>2018-03-28T08:38:09Z</time>
      </trkpt>
      <trkpt lat="36.7745100" lon="-4.4254670">
        <ele>131.9</ele>
        <time>2018-03-28T08:38:10Z</time>
      </trkpt>
      <trkpt lat="36.7745330" lon="-4.4256550">
        <ele>130.9</ele>
        <time>2018-03-28T08:38:11Z</time>
      </trkpt>
      <trkpt lat="36.7745400" lon="-4.4257470">
        <ele>130.9</ele>
        <time>2018-03-28T08:38:12Z</time>
      </trkpt>
      <trkpt lat="36.7745400" lon="-4.4257470">
        <ele>130.9</ele>
        <time>2018-03-28T08:38:13Z</time>
      </trkpt>
      <trkpt lat="36.7744490" lon="-4.4259940">
        <ele>130.9</ele>
        <time>2018-03-28T08:38:14Z</time>
      </trkpt>
      <trkpt lat="36.7744310" lon="-4.4260310">
        <ele>130.9</ele>
        <time>2018-03-28T08:38:15Z</time>
      </trkpt>
      <trkpt lat="36.7743950" lon="-4.4261050">
        <ele>130.9</ele>
        <time>2018-03-28T08:38:16Z</time>
      </trkpt>
      <trkpt lat="36.7743950" lon="-4.4261050">
        <ele>130.9</ele>
        <time>2018-03-28T08:38:17Z</time>
      </trkpt>
      <trkpt lat="36.7743170" lon="-4.4262300">
        <ele>130.9</ele>
        <time>2018-03-28T08:38:18Z</time>
      </trkpt>
      <trkpt lat="36.7742830" lon="-4.4262920">
        <ele>130.9</ele>
        <time>2018-03-28T08:38:19Z</time>
      </trkpt>
      <trkpt lat="36.7742830" lon="-4.4262920">
        <ele>130.9</ele>
        <time>2018-03-28T08:38:20Z</time>
      </trkpt>
      <trkpt lat="36.7742400" lon="-4.4264320">
        <ele>130.9</ele>
        <time>2018-03-28T08:38:21Z</time>
      </trkpt>
      <trkpt lat="36.7742370" lon="-4.4265030">
        <ele>130.9</ele>
        <time>2018-03-28T08:38:22Z</time>
      </trkpt>
      <trkpt lat="36.7742430" lon="-4.4265360">
        <ele>130.9</ele>
        <time>2018-03-28T08:38:23Z</time>
      </trkpt>
      <trkpt lat="36.7742490" lon="-4.4265700">
        <ele>130.9</ele>
        <time>2018-03-28T08:38:24Z</time>
      </trkpt>
      <trkpt lat="36.7742600" lon="-4.4266370">
        <ele>130.9</ele>
        <time>2018-03-28T08:38:25Z</time>
      </trkpt>
      <trkpt lat="36.7742680" lon="-4.4267820">
        <ele>130.9</ele>
        <time>2018-03-28T08:38:26Z</time>
      </trkpt>
      <trkpt lat="36.7742550" lon="-4.4268580">
        <ele>130.9</ele>
        <time>2018-03-28T08:38:27Z</time>
      </trkpt>
      <trkpt lat="36.7742550" lon="-4.4268580">
        <ele>129.9</ele>
        <time>2018-03-28T08:38:28Z</time>
      </trkpt>
      <trkpt lat="36.7742150" lon="-4.4270050">
        <ele>129.9</ele>
        <time>2018-03-28T08:38:29Z</time>
      </trkpt>
      <trkpt lat="36.7741850" lon="-4.4270730">
        <ele>129.9</ele>
        <time>2018-03-28T08:38:30Z</time>
      </trkpt>
      <trkpt lat="36.7741850" lon="-4.4270730">
        <ele>129.9</ele>
        <time>2018-03-28T08:38:31Z</time>
      </trkpt>
      <trkpt lat="36.7741350" lon="-4.4272250">
        <ele>129.9</ele>
        <time>2018-03-28T08:38:32Z</time>
      </trkpt>
      <trkpt lat="36.7741150" lon="-4.4273070">
        <ele>129.9</ele>
        <time>2018-03-28T08:38:33Z</time>
      </trkpt>
      <trkpt lat="36.7741150" lon="-4.4273070">
        <ele>129.9</ele>
        <time>2018-03-28T08:38:34Z</time>
      </trkpt>
      <trkpt lat="36.7740850" lon="-4.4274750">
        <ele>129.9</ele>
        <time>2018-03-28T08:38:35Z</time>
      </trkpt>
      <trkpt lat="36.7740730" lon="-4.4275630">
        <ele>128.9</ele>
        <time>2018-03-28T08:38:36Z</time>
      </trkpt>
      <trkpt lat="36.7740730" lon="-4.4275630">
        <ele>128.9</ele>
        <time>2018-03-28T08:38:37Z</time>
      </trkpt>
      <trkpt lat="36.7740430" lon="-4.4277300">
        <ele>128.9</ele>
        <time>2018-03-28T08:38:38Z</time>
      </trkpt>
      <trkpt lat="36.7740430" lon="-4.4277300">
        <ele>128.9</ele>
        <time>2018-03-28T08:38:39Z</time>
      </trkpt>
      <trkpt lat="36.7740120" lon="-4.4278950">
        <ele>128.9</ele>
        <time>2018-03-28T08:38:40Z</time>
      </trkpt>
      <trkpt lat="36.7740120" lon="-4.4278950">
        <ele>128.9</ele>
        <time>2018-03-28T08:38:41Z</time>
      </trkpt>
      <trkpt lat="36.7739800" lon="-4.4280580">
        <ele>128.9</ele>
        <time>2018-03-28T08:38:42Z</time>
      </trkpt>
      <trkpt lat="36.7739800" lon="-4.4280580">
        <ele>128.9</ele>
        <time>2018-03-28T08:38:43Z</time>
      </trkpt>
      <trkpt lat="36.7739600" lon="-4.4282300">
        <ele>128.9</ele>
        <time>2018-03-28T08:38:44Z</time>
      </trkpt>
      <trkpt lat="36.7739600" lon="-4.4282300">
        <ele>128.9</ele>
        <time>2018-03-28T08:38:45Z</time>
      </trkpt>
      <trkpt lat="36.7739270" lon="-4.4283970">
        <ele>128.9</ele>
        <time>2018-03-28T08:38:46Z</time>
      </trkpt>
      <trkpt lat="36.7739150" lon="-4.4284800">
        <ele>127.9</ele>
        <time>2018-03-28T08:38:47Z</time>
      </trkpt>
      <trkpt lat="36.7739150" lon="-4.4284800">
        <ele>127.9</ele>
        <time>2018-03-28T08:38:48Z</time>
      </trkpt>
      <trkpt lat="36.7739020" lon="-4.4286420">
        <ele>127.9</ele>
        <time>2018-03-28T08:38:49Z</time>
      </trkpt>
      <trkpt lat="36.7739020" lon="-4.4286420">
        <ele>127.9</ele>
        <time>2018-03-28T08:38:50Z</time>
      </trkpt>
      <trkpt lat="36.7739080" lon="-4.4288180">
        <ele>127.9</ele>
        <time>2018-03-28T08:38:51Z</time>
      </trkpt>
      <trkpt lat="36.7739170" lon="-4.4289070">
        <ele>127.9</ele>
        <time>2018-03-28T08:38:52Z</time>
      </trkpt>
      <trkpt lat="36.7739170" lon="-4.4289070">
        <ele>127.9</ele>
        <time>2018-03-28T08:38:53Z</time>
      </trkpt>
      <trkpt lat="36.7739530" lon="-4.4290830">
        <ele>127.9</ele>
        <time>2018-03-28T08:38:54Z</time>
      </trkpt>
      <trkpt lat="36.7739530" lon="-4.4290830">
        <ele>126.9</ele>
        <time>2018-03-28T08:38:55Z</time>
      </trkpt>
      <trkpt lat="36.7740230" lon="-4.4292380">
        <ele>126.9</ele>
        <time>2018-03-28T08:38:56Z</time>
      </trkpt>
      <trkpt lat="36.7740230" lon="-4.4292380">
        <ele>126.9</ele>
        <time>2018-03-28T08:38:57Z</time>
      </trkpt>
      <trkpt lat="36.7741150" lon="-4.4293900">
        <ele>126.9</ele>
        <time>2018-03-28T08:38:58Z</time>
      </trkpt>
      <trkpt lat="36.7741150" lon="-4.4293900">
        <ele>125.9</ele>
        <time>2018-03-28T08:38:59Z</time>
      </trkpt>
      <trkpt lat="36.7741880" lon="-4.4295570">
        <ele>125.9</ele>
        <time>2018-03-28T08:39:00Z</time>
      </trkpt>
      <trkpt lat="36.7741880" lon="-4.4295570">
        <ele>125.9</ele>
        <time>2018-03-28T08:39:01Z</time>
      </trkpt>
      <trkpt lat="36.7742480" lon="-4.4297230">
        <ele>125.9</ele>
        <time>2018-03-28T08:39:02Z</time>
      </trkpt>
      <trkpt lat="36.7742480" lon="-4.4297230">
        <ele>125.9</ele>
        <time>2018-03-28T08:39:03Z</time>
      </trkpt>
      <trkpt lat="36.7742750" lon="-4.4299000">
        <ele>125.9</ele>
        <time>2018-03-28T08:39:04Z</time>
      </trkpt>
      <trkpt lat="36.7742750" lon="-4.4299000">
        <ele>125.9</ele>
        <time>2018-03-28T08:39:05Z</time>
      </trkpt>
      <trkpt lat="36.7742980" lon="-4.4300730">
        <ele>125.9</ele>
        <time>2018-03-28T08:39:06Z</time>
      </trkpt>
      <trkpt lat="36.7743380" lon="-4.4301450">
        <ele>124.9</ele>
        <time>2018-03-28T08:39:07Z</time>
      </trkpt>
      <trkpt lat="36.7743380" lon="-4.4301450">
        <ele>124.9</ele>
        <time>2018-03-28T08:39:08Z</time>
      </trkpt>
      <trkpt lat="36.7744480" lon="-4.4302120">
        <ele>124.9</ele>
        <time>2018-03-28T08:39:09Z</time>
      </trkpt>
      <trkpt lat="36.7744480" lon="-4.4302120">
        <ele>124.9</ele>
        <time>2018-03-28T08:39:10Z</time>
      </trkpt>
      <trkpt lat="36.7745650" lon="-4.4302150">
        <ele>124.9</ele>
        <time>2018-03-28T08:39:11Z</time>
      </trkpt>
      <trkpt lat="36.7746280" lon="-4.4302120">
        <ele>124.9</ele>
        <time>2018-03-28T08:39:12Z</time>
      </trkpt>
      <trkpt lat="36.7746280" lon="-4.4302120">
        <ele>124.9</ele>
        <time>2018-03-28T08:39:13Z</time>
      </trkpt>
      <trkpt lat="36.7747620" lon="-4.4301920">
        <ele>124.9</ele>
        <time>2018-03-28T08:39:14Z</time>
      </trkpt>
      <trkpt lat="36.7747620" lon="-4.4301920">
        <ele>124.9</ele>
        <time>2018-03-28T08:39:15Z</time>
      </trkpt>
      <trkpt lat="36.7748970" lon="-4.4301820">
        <ele>124.9</ele>
        <time>2018-03-28T08:39:16Z</time>
      </trkpt>
      <trkpt lat="36.7748970" lon="-4.4301820">
        <ele>124.9</ele>
        <time>2018-03-28T08:39:17Z</time>
      </trkpt>
      <trkpt lat="36.7750180" lon="-4.4302100">
        <ele>124.9</ele>
        <time>2018-03-28T08:39:18Z</time>
      </trkpt>
      <trkpt lat="36.7750180" lon="-4.4302100">
        <ele>124.9</ele>
        <time>2018-03-28T08:39:19Z</time>
      </trkpt>
      <trkpt lat="36.7751220" lon="-4.4303220">
        <ele>124.9</ele>
        <time>2018-03-28T08:39:20Z</time>
      </trkpt>
      <trkpt lat="36.7751220" lon="-4.4303220">
        <ele>124.9</ele>
        <time>2018-03-28T08:39:21Z</time>
      </trkpt>
      <trkpt lat="36.7751930" lon="-4.4304700">
        <ele>124.9</ele>
        <time>2018-03-28T08:39:22Z</time>
      </trkpt>
      <trkpt lat="36.7751930" lon="-4.4304700">
        <ele>124.9</ele>
        <time>2018-03-28T08:39:23Z</time>
      </trkpt>
      <trkpt lat="36.7752470" lon="-4.4306270">
        <ele>124.9</ele>
        <time>2018-03-28T08:39:24Z</time>
      </trkpt>
      <trkpt lat="36.7752470" lon="-4.4306270">
        <ele>124.9</ele>
        <time>2018-03-28T08:39:25Z</time>
      </trkpt>
      <trkpt lat="36.7752820" lon="-4.4307820">
        <ele>124.9</ele>
        <time>2018-03-28T08:39:26Z</time>
      </trkpt>
      <trkpt lat="36.7752780" lon="-4.4308620">
        <ele>124.9</ele>
        <time>2018-03-28T08:39:27Z</time>
      </trkpt>
      <trkpt lat="36.7752780" lon="-4.4308620">
        <ele>124.9</ele>
        <time>2018-03-28T08:39:28Z</time>
      </trkpt>
      <trkpt lat="36.7752180" lon="-4.4309980">
        <ele>124.9</ele>
        <time>2018-03-28T08:39:29Z</time>
      </trkpt>
      <trkpt lat="36.7751700" lon="-4.4310430">
        <ele>124.9</ele>
        <time>2018-03-28T08:39:30Z</time>
      </trkpt>
      <trkpt lat="36.7751370" lon="-4.4310510">
        <ele>124.9</ele>
        <time>2018-03-28T08:39:31Z</time>
      </trkpt>
      <trkpt lat="36.7751040" lon="-4.4310590">
        <ele>124.9</ele>
        <time>2018-03-28T08:39:32Z</time>
      </trkpt>
      <trkpt lat="36.7750380" lon="-4.4310750">
        <ele>124.9</ele>
        <time>2018-03-28T08:39:33Z</time>
      </trkpt>
      <trkpt lat="36.7749150" lon="-4.4311050">
        <ele>124.9</ele>
        <time>2018-03-28T08:39:34Z</time>
      </trkpt>
      <trkpt lat="36.7749150" lon="-4.4311050">
        <ele>124.9</ele>
        <time>2018-03-28T08:39:35Z</time>
      </trkpt>
      <trkpt lat="36.7747930" lon="-4.4311420">
        <ele>124.9</ele>
        <time>2018-03-28T08:39:36Z</time>
      </trkpt>
      <trkpt lat="36.7747930" lon="-4.4311420">
        <ele>123.9</ele>
        <time>2018-03-28T08:39:37Z</time>
      </trkpt>
      <trkpt lat="36.7746850" lon="-4.4312030">
        <ele>123.9</ele>
        <time>2018-03-28T08:39:38Z</time>
      </trkpt>
      <trkpt lat="36.7746850" lon="-4.4312030">
        <ele>123.9</ele>
        <time>2018-03-28T08:39:39Z</time>
      </trkpt>
      <trkpt lat="36.7745850" lon="-4.4313000">
        <ele>123.9</ele>
        <time>2018-03-28T08:39:40Z</time>
      </trkpt>
      <trkpt lat="36.7745850" lon="-4.4313000">
        <ele>123.9</ele>
        <time>2018-03-28T08:39:41Z</time>
      </trkpt>
      <trkpt lat="36.7745070" lon="-4.4314100">
        <ele>123.9</ele>
        <time>2018-03-28T08:39:42Z</time>
      </trkpt>
      <trkpt lat="36.7745070" lon="-4.4314100">
        <ele>123.9</ele>
        <time>2018-03-28T08:39:43Z</time>
      </trkpt>
      <trkpt lat="36.7744220" lon="-4.4315230">
        <ele>123.9</ele>
        <time>2018-03-28T08:39:44Z</time>
      </trkpt>
      <trkpt lat="36.7743750" lon="-4.4315750">
        <ele>123.9</ele>
        <time>2018-03-28T08:39:45Z</time>
      </trkpt>
      <trkpt lat="36.7743750" lon="-4.4315750">
        <ele>123.9</ele>
        <time>2018-03-28T08:39:46Z</time>
      </trkpt>
      <trkpt lat="36.7742830" lon="-4.4316750">
        <ele>123.9</ele>
        <time>2018-03-28T08:39:47Z</time>
      </trkpt>
      <trkpt lat="36.7742550" lon="-4.4317270">
        <ele>123.9</ele>
        <time>2018-03-28T08:39:48Z</time>
      </trkpt>
      <trkpt lat="36.7742550" lon="-4.4317270">
        <ele>123.9</ele>
        <time>2018-03-28T08:39:49Z</time>
      </trkpt>
      <trkpt lat="36.7742130" lon="-4.4318770">
        <ele>123.9</ele>
        <time>2018-03-28T08:39:50Z</time>
      </trkpt>
      <trkpt lat="36.7741950" lon="-4.4319570">
        <ele>123.9</ele>
        <time>2018-03-28T08:39:51Z</time>
      </trkpt>
      <trkpt lat="36.7741950" lon="-4.4319570">
        <ele>123.9</ele>
        <time>2018-03-28T08:39:52Z</time>
      </trkpt>
      <trkpt lat="36.7741880" lon="-4.4321250">
        <ele>123.9</ele>
        <time>2018-03-28T08:39:53Z</time>
      </trkpt>
      <trkpt lat="36.7741980" lon="-4.4322130">
        <ele>123.9</ele>
        <time>2018-03-28T08:39:54Z</time>
      </trkpt>
      <trkpt lat="36.7742130" lon="-4.4322980">
        <ele>123.9</ele>
        <time>2018-03-28T08:39:55Z</time>
      </trkpt>
      <trkpt lat="36.7742310" lon="-4.4323620">
        <ele>123.9</ele>
        <time>2018-03-28T08:39:56Z</time>
      </trkpt>
      <trkpt lat="36.7742480" lon="-4.4324260">
        <ele>123.9</ele>
        <time>2018-03-28T08:39:57Z</time>
      </trkpt>
      <trkpt lat="36.7742830" lon="-4.4325550">
        <ele>123.9</ele>
        <time>2018-03-28T08:39:58Z</time>
      </trkpt>
      <trkpt lat="36.7742830" lon="-4.4325550">
        <ele>123.9</ele>
        <time>2018-03-28T08:39:59Z</time>
      </trkpt>
      <trkpt lat="36.7743070" lon="-4.4327430">
        <ele>123.9</ele>
        <time>2018-03-28T08:40:00Z</time>
      </trkpt>
      <trkpt lat="36.7743070" lon="-4.4327430">
        <ele>123.9</ele>
        <time>2018-03-28T08:40:01Z</time>
      </trkpt>
      <trkpt lat="36.7743000" lon="-4.4329400">
        <ele>122.9</ele>
        <time>2018-03-28T08:40:02Z</time>
      </trkpt>
      <trkpt lat="36.7742830" lon="-4.4330370">
        <ele>122.9</ele>
        <time>2018-03-28T08:40:03Z</time>
      </trkpt>
      <trkpt lat="36.7742830" lon="-4.4330370">
        <ele>122.9</ele>
        <time>2018-03-28T08:40:04Z</time>
      </trkpt>
      <trkpt lat="36.7742420" lon="-4.4332200">
        <ele>122.9</ele>
        <time>2018-03-28T08:40:05Z</time>
      </trkpt>
      <trkpt lat="36.7742420" lon="-4.4332200">
        <ele>121.9</ele>
        <time>2018-03-28T08:40:06Z</time>
      </trkpt>
      <trkpt lat="36.7742170" lon="-4.4333800">
        <ele>121.9</ele>
        <time>2018-03-28T08:40:07Z</time>
      </trkpt>
      <trkpt lat="36.7742170" lon="-4.4333800">
        <ele>120.9</ele>
        <time>2018-03-28T08:40:08Z</time>
      </trkpt>
      <trkpt lat="36.7742170" lon="-4.4335750">
        <ele>120.9</ele>
        <time>2018-03-28T08:40:09Z</time>
      </trkpt>
      <trkpt lat="36.7742170" lon="-4.4335750">
        <ele>120.9</ele>
        <time>2018-03-28T08:40:10Z</time>
      </trkpt>
      <trkpt lat="36.7742330" lon="-4.4337600">
        <ele>120.9</ele>
        <time>2018-03-28T08:40:11Z</time>
      </trkpt>
      <trkpt lat="36.7742420" lon="-4.4338550">
        <ele>120.9</ele>
        <time>2018-03-28T08:40:12Z</time>
      </trkpt>
      <trkpt lat="36.7742420" lon="-4.4338550">
        <ele>120.9</ele>
        <time>2018-03-28T08:40:13Z</time>
      </trkpt>
      <trkpt lat="36.7742480" lon="-4.4340470">
        <ele>120.9</ele>
        <time>2018-03-28T08:40:14Z</time>
      </trkpt>
      <trkpt lat="36.7742480" lon="-4.4341400">
        <ele>120.9</ele>
        <time>2018-03-28T08:40:15Z</time>
      </trkpt>
      <trkpt lat="36.7742480" lon="-4.4341400">
        <ele>120.9</ele>
        <time>2018-03-28T08:40:16Z</time>
      </trkpt>
      <trkpt lat="36.7742370" lon="-4.4343250">
        <ele>120.9</ele>
        <time>2018-03-28T08:40:17Z</time>
      </trkpt>
      <trkpt lat="36.7742250" lon="-4.4344150">
        <ele>120.9</ele>
        <time>2018-03-28T08:40:18Z</time>
      </trkpt>
      <trkpt lat="36.7742250" lon="-4.4344150">
        <ele>120.9</ele>
        <time>2018-03-28T08:40:19Z</time>
      </trkpt>
      <trkpt lat="36.7742030" lon="-4.4345870">
        <ele>120.9</ele>
        <time>2018-03-28T08:40:20Z</time>
      </trkpt>
      <trkpt lat="36.7742030" lon="-4.4345870">
        <ele>120.9</ele>
        <time>2018-03-28T08:40:21Z</time>
      </trkpt>
      <trkpt lat="36.7741730" lon="-4.4347530">
        <ele>120.9</ele>
        <time>2018-03-28T08:40:22Z</time>
      </trkpt>
      <trkpt lat="36.7741550" lon="-4.4348330">
        <ele>120.9</ele>
        <time>2018-03-28T08:40:23Z</time>
      </trkpt>
      <trkpt lat="36.7741550" lon="-4.4348330">
        <ele>120.9</ele>
        <time>2018-03-28T08:40:24Z</time>
      </trkpt>
      <trkpt lat="36.7741270" lon="-4.4349870">
        <ele>120.9</ele>
        <time>2018-03-28T08:40:25Z</time>
      </trkpt>
      <trkpt lat="36.7741270" lon="-4.4349870">
        <ele>120.9</ele>
        <time>2018-03-28T08:40:26Z</time>
      </trkpt>
      <trkpt lat="36.7740920" lon="-4.4351300">
        <ele>120.9</ele>
        <time>2018-03-28T08:40:27Z</time>
      </trkpt>
      <trkpt lat="36.7740920" lon="-4.4351300">
        <ele>120.9</ele>
        <time>2018-03-28T08:40:28Z</time>
      </trkpt>
      <trkpt lat="36.7740570" lon="-4.4352700">
        <ele>120.9</ele>
        <time>2018-03-28T08:40:29Z</time>
      </trkpt>
      <trkpt lat="36.7740570" lon="-4.4352700">
        <ele>120.9</ele>
        <time>2018-03-28T08:40:30Z</time>
      </trkpt>
      <trkpt lat="36.7740220" lon="-4.4354100">
        <ele>120.9</ele>
        <time>2018-03-28T08:40:31Z</time>
      </trkpt>
      <trkpt lat="36.7740220" lon="-4.4354100">
        <ele>120.9</ele>
        <time>2018-03-28T08:40:32Z</time>
      </trkpt>
      <trkpt lat="36.7740000" lon="-4.4355500">
        <ele>120.9</ele>
        <time>2018-03-28T08:40:33Z</time>
      </trkpt>
      <trkpt lat="36.7740000" lon="-4.4355500">
        <ele>120.9</ele>
        <time>2018-03-28T08:40:34Z</time>
      </trkpt>
      <trkpt lat="36.7739780" lon="-4.4356900">
        <ele>120.9</ele>
        <time>2018-03-28T08:40:35Z</time>
      </trkpt>
      <trkpt lat="36.7739780" lon="-4.4356900">
        <ele>120.9</ele>
        <time>2018-03-28T08:40:36Z</time>
      </trkpt>
      <trkpt lat="36.7739730" lon="-4.4358370">
        <ele>120.9</ele>
        <time>2018-03-28T08:40:37Z</time>
      </trkpt>
      <trkpt lat="36.7739730" lon="-4.4358370">
        <ele>120.9</ele>
        <time>2018-03-28T08:40:38Z</time>
      </trkpt>
      <trkpt lat="36.7739950" lon="-4.4359630">
        <ele>120.9</ele>
        <time>2018-03-28T08:40:39Z</time>
      </trkpt>
      <trkpt lat="36.7739950" lon="-4.4359630">
        <ele>120.9</ele>
        <time>2018-03-28T08:40:40Z</time>
      </trkpt>
      <trkpt lat="36.7740500" lon="-4.4360480">
        <ele>120.9</ele>
        <time>2018-03-28T08:40:41Z</time>
      </trkpt>
      <trkpt lat="36.7740850" lon="-4.4360720">
        <ele>120.9</ele>
        <time>2018-03-28T08:40:42Z</time>
      </trkpt>
      <trkpt lat="36.7740850" lon="-4.4360720">
        <ele>120.9</ele>
        <time>2018-03-28T08:40:43Z</time>
      </trkpt>
      <trkpt lat="36.7741720" lon="-4.4360770">
        <ele>120.9</ele>
        <time>2018-03-28T08:40:44Z</time>
      </trkpt>
      <trkpt lat="36.7741720" lon="-4.4360770">
        <ele>121.9</ele>
        <time>2018-03-28T08:40:45Z</time>
      </trkpt>
      <trkpt lat="36.7742610" lon="-4.4360430">
        <ele>121.9</ele>
        <time>2018-03-28T08:40:46Z</time>
      </trkpt>
      <trkpt lat="36.7742700" lon="-4.4360360">
        <ele>121.9</ele>
        <time>2018-03-28T08:40:47Z</time>
      </trkpt>
      <trkpt lat="36.7742870" lon="-4.4360220">
        <ele>122.9</ele>
        <time>2018-03-28T08:40:48Z</time>
      </trkpt>
      <trkpt lat="36.7743500" lon="-4.4359450">
        <ele>122.9</ele>
        <time>2018-03-28T08:40:49Z</time>
      </trkpt>
      <trkpt lat="36.7743500" lon="-4.4359450">
        <ele>122.9</ele>
        <time>2018-03-28T08:40:50Z</time>
      </trkpt>
      <trkpt lat="36.7744180" lon="-4.4358470">
        <ele>122.9</ele>
        <time>2018-03-28T08:40:51Z</time>
      </trkpt>
      <trkpt lat="36.7744450" lon="-4.4358030">
        <ele>122.9</ele>
        <time>2018-03-28T08:40:52Z</time>
      </trkpt>
      <trkpt lat="36.7744450" lon="-4.4358030">
        <ele>122.9</ele>
        <time>2018-03-28T08:40:53Z</time>
      </trkpt>
      <trkpt lat="36.7744850" lon="-4.4357150">
        <ele>123.9</ele>
        <time>2018-03-28T08:40:54Z</time>
      </trkpt>
      <trkpt lat="36.7744850" lon="-4.4357150">
        <ele>123.9</ele>
        <time>2018-03-28T08:40:55Z</time>
      </trkpt>
      <trkpt lat="36.7745180" lon="-4.4356320">
        <ele>123.9</ele>
        <time>2018-03-28T08:40:56Z</time>
      </trkpt>
      <trkpt lat="36.7745180" lon="-4.4356320">
        <ele>123.9</ele>
        <time>2018-03-28T08:40:57Z</time>
      </trkpt>
      <trkpt lat="36.7745570" lon="-4.4355580">
        <ele>123.9</ele>
        <time>2018-03-28T08:40:58Z</time>
      </trkpt>
      <trkpt lat="36.7745570" lon="-4.4355580">
        <ele>123.9</ele>
        <time>2018-03-28T08:40:59Z</time>
      </trkpt>
      <trkpt lat="36.7746130" lon="-4.4354970">
        <ele>123.9</ele>
        <time>2018-03-28T08:41:00Z</time>
      </trkpt>
      <trkpt lat="36.7746130" lon="-4.4354970">
        <ele>124.9</ele>
        <time>2018-03-28T08:41:01Z</time>
      </trkpt>
      <trkpt lat="36.7746720" lon="-4.4354400">
        <ele>124.9</ele>
        <time>2018-03-28T08:41:02Z</time>
      </trkpt>
      <trkpt lat="36.7746720" lon="-4.4354400">
        <ele>124.9</ele>
        <time>2018-03-28T08:41:03Z</time>
      </trkpt>
      <trkpt lat="36.7747420" lon="-4.4354050">
        <ele>124.9</ele>
        <time>2018-03-28T08:41:04Z</time>
      </trkpt>
      <trkpt lat="36.7747420" lon="-4.4354050">
        <ele>124.9</ele>
        <time>2018-03-28T08:41:05Z</time>
      </trkpt>
      <trkpt lat="36.7748150" lon="-4.4353800">
        <ele>124.9</ele>
        <time>2018-03-28T08:41:06Z</time>
      </trkpt>
      <trkpt lat="36.7748150" lon="-4.4353800">
        <ele>124.9</ele>
        <time>2018-03-28T08:41:07Z</time>
      </trkpt>
      <trkpt lat="36.7748930" lon="-4.4353680">
        <ele>124.9</ele>
        <time>2018-03-28T08:41:08Z</time>
      </trkpt>
      <trkpt lat="36.7749370" lon="-4.4353650">
        <ele>124.9</ele>
        <time>2018-03-28T08:41:09Z</time>
      </trkpt>
      <trkpt lat="36.7749370" lon="-4.4353650">
        <ele>124.9</ele>
        <time>2018-03-28T08:41:10Z</time>
      </trkpt>
      <trkpt lat="36.7750170" lon="-4.4353580">
        <ele>126.9</ele>
        <time>2018-03-28T08:41:11Z</time>
      </trkpt>
      <trkpt lat="36.7750570" lon="-4.4353530">
        <ele>126.9</ele>
        <time>2018-03-28T08:41:12Z</time>
      </trkpt>
      <trkpt lat="36.7750570" lon="-4.4353530">
        <ele>126.9</ele>
        <time>2018-03-28T08:41:13Z</time>
      </trkpt>
      <trkpt lat="36.7751350" lon="-4.4353400">
        <ele>126.9</ele>
        <time>2018-03-28T08:41:14Z</time>
      </trkpt>
      <trkpt lat="36.7751350" lon="-4.4353400">
        <ele>126.9</ele>
        <time>2018-03-28T08:41:15Z</time>
      </trkpt>
      <trkpt lat="36.7752120" lon="-4.4353180">
        <ele>126.9</ele>
        <time>2018-03-28T08:41:16Z</time>
      </trkpt>
      <trkpt lat="36.7752120" lon="-4.4353180">
        <ele>126.9</ele>
        <time>2018-03-28T08:41:17Z</time>
      </trkpt>
      <trkpt lat="36.7752900" lon="-4.4352980">
        <ele>126.9</ele>
        <time>2018-03-28T08:41:18Z</time>
      </trkpt>
      <trkpt lat="36.7753270" lon="-4.4352850">
        <ele>126.9</ele>
        <time>2018-03-28T08:41:19Z</time>
      </trkpt>
      <trkpt lat="36.7753270" lon="-4.4352850">
        <ele>126.9</ele>
        <time>2018-03-28T08:41:20Z</time>
      </trkpt>
      <trkpt lat="36.7754030" lon="-4.4352580">
        <ele>127.9</ele>
        <time>2018-03-28T08:41:21Z</time>
      </trkpt>
      <trkpt lat="36.7754030" lon="-4.4352580">
        <ele>127.9</ele>
        <time>2018-03-28T08:41:22Z</time>
      </trkpt>
      <trkpt lat="36.7754800" lon="-4.4352130">
        <ele>127.9</ele>
        <time>2018-03-28T08:41:23Z</time>
      </trkpt>
      <trkpt lat="36.7755180" lon="-4.4351930">
        <ele>127.9</ele>
        <time>2018-03-28T08:41:24Z</time>
      </trkpt>
      <trkpt lat="36.7755180" lon="-4.4351930">
        <ele>127.9</ele>
        <time>2018-03-28T08:41:25Z</time>
      </trkpt>
      <trkpt lat="36.7756070" lon="-4.4351350">
        <ele>128.9</ele>
        <time>2018-03-28T08:41:26Z</time>
      </trkpt>
      <trkpt lat="36.7756070" lon="-4.4351350">
        <ele>128.9</ele>
        <time>2018-03-28T08:41:27Z</time>
      </trkpt>
      <trkpt lat="36.7756880" lon="-4.4350870">
        <ele>128.9</ele>
        <time>2018-03-28T08:41:28Z</time>
      </trkpt>
      <trkpt lat="36.7757270" lon="-4.4350650">
        <ele>128.9</ele>
        <time>2018-03-28T08:41:29Z</time>
      </trkpt>
      <trkpt lat="36.7757630" lon="-4.4350450">
        <ele>128.9</ele>
        <time>2018-03-28T08:41:30Z</time>
      </trkpt>
      <trkpt lat="36.7757630" lon="-4.4350450">
        <ele>128.9</ele>
        <time>2018-03-28T08:41:31Z</time>
      </trkpt>
      <trkpt lat="36.7758330" lon="-4.4350080">
        <ele>129.9</ele>
        <time>2018-03-28T08:41:32Z</time>
      </trkpt>
      <trkpt lat="36.7758330" lon="-4.4350080">
        <ele>129.9</ele>
        <time>2018-03-28T08:41:33Z</time>
      </trkpt>
      <trkpt lat="36.7759000" lon="-4.4349780">
        <ele>129.9</ele>
        <time>2018-03-28T08:41:34Z</time>
      </trkpt>
      <trkpt lat="36.7759000" lon="-4.4349780">
        <ele>129.9</ele>
        <time>2018-03-28T08:41:35Z</time>
      </trkpt>
      <trkpt lat="36.7759700" lon="-4.4349570">
        <ele>130.9</ele>
        <time>2018-03-28T08:41:36Z</time>
      </trkpt>
      <trkpt lat="36.7759700" lon="-4.4349570">
        <ele>130.9</ele>
        <time>2018-03-28T08:41:37Z</time>
      </trkpt>
      <trkpt lat="36.7760470" lon="-4.4349650">
        <ele>130.9</ele>
        <time>2018-03-28T08:41:38Z</time>
      </trkpt>
      <trkpt lat="36.7760830" lon="-4.4349770">
        <ele>130.9</ele>
        <time>2018-03-28T08:41:39Z</time>
      </trkpt>
      <trkpt lat="36.7760830" lon="-4.4349770">
        <ele>130.9</ele>
        <time>2018-03-28T08:41:40Z</time>
      </trkpt>
      <trkpt lat="36.7761530" lon="-4.4349930">
        <ele>130.9</ele>
        <time>2018-03-28T08:41:41Z</time>
      </trkpt>
      <trkpt lat="36.7761530" lon="-4.4349930">
        <ele>130.9</ele>
        <time>2018-03-28T08:41:42Z</time>
      </trkpt>
      <trkpt lat="36.7762180" lon="-4.4350170">
        <ele>130.9</ele>
        <time>2018-03-28T08:41:43Z</time>
      </trkpt>
      <trkpt lat="36.7762520" lon="-4.4350330">
        <ele>130.9</ele>
        <time>2018-03-28T08:41:44Z</time>
      </trkpt>
      <trkpt lat="36.7762520" lon="-4.4350330">
        <ele>130.9</ele>
        <time>2018-03-28T08:41:45Z</time>
      </trkpt>
      <trkpt lat="36.7763230" lon="-4.4350630">
        <ele>131.9</ele>
        <time>2018-03-28T08:41:46Z</time>
      </trkpt>
      <trkpt lat="36.7763230" lon="-4.4350630">
        <ele>131.9</ele>
        <time>2018-03-28T08:41:47Z</time>
      </trkpt>
      <trkpt lat="36.7764070" lon="-4.4350530">
        <ele>131.9</ele>
        <time>2018-03-28T08:41:48Z</time>
      </trkpt>
      <trkpt lat="36.7764420" lon="-4.4350430">
        <ele>131.9</ele>
        <time>2018-03-28T08:41:49Z</time>
      </trkpt>
      <trkpt lat="36.7764420" lon="-4.4350430">
        <ele>131.9</ele>
        <time>2018-03-28T08:41:50Z</time>
      </trkpt>
      <trkpt lat="36.7764980" lon="-4.4349980">
        <ele>131.9</ele>
        <time>2018-03-28T08:41:51Z</time>
      </trkpt>
      <trkpt lat="36.7764980" lon="-4.4349980">
        <ele>131.9</ele>
        <time>2018-03-28T08:41:52Z</time>
      </trkpt>
      <trkpt lat="36.7765400" lon="-4.4349250">
        <ele>131.9</ele>
        <time>2018-03-28T08:41:53Z</time>
      </trkpt>
      <trkpt lat="36.7765550" lon="-4.4348900">
        <ele>131.9</ele>
        <time>2018-03-28T08:41:54Z</time>
      </trkpt>
      <trkpt lat="36.7765550" lon="-4.4348900">
        <ele>133.9</ele>
        <time>2018-03-28T08:41:55Z</time>
      </trkpt>
      <trkpt lat="36.7765880" lon="-4.4348120">
        <ele>133.9</ele>
        <time>2018-03-28T08:41:56Z</time>
      </trkpt>
      <trkpt lat="36.7765880" lon="-4.4348120">
        <ele>133.9</ele>
        <time>2018-03-28T08:41:57Z</time>
      </trkpt>
      <trkpt lat="36.7766370" lon="-4.4347330">
        <ele>133.9</ele>
        <time>2018-03-28T08:41:58Z</time>
      </trkpt>
      <trkpt lat="36.7766370" lon="-4.4347330">
        <ele>134.9</ele>
        <time>2018-03-28T08:41:59Z</time>
      </trkpt>
      <trkpt lat="36.7767060" lon="-4.4346650">
        <ele>134.9</ele>
        <time>2018-03-28T08:42:00Z</time>
      </trkpt>
      <trkpt lat="36.7767210" lon="-4.4346530">
        <ele>134.9</ele>
        <time>2018-03-28T08:42:01Z</time>
      </trkpt>
      <trkpt lat="36.7767520" lon="-4.4346280">
        <ele>134.9</ele>
        <time>2018-03-28T08:42:02Z</time>
      </trkpt>
      <trkpt lat="36.7767850" lon="-4.4346100">
        <ele>134.9</ele>
        <time>2018-03-28T08:42:03Z</time>
      </trkpt>
      <trkpt lat="36.7767850" lon="-4.4346100">
        <ele>134.9</ele>
        <time>2018-03-28T08:42:04Z</time>
      </trkpt>
      <trkpt lat="36.7768580" lon="-4.4345880">
        <ele>134.9</ele>
        <time>2018-03-28T08:42:05Z</time>
      </trkpt>
      <trkpt lat="36.7768950" lon="-4.4345780">
        <ele>134.9</ele>
        <time>2018-03-28T08:42:06Z</time>
      </trkpt>
      <trkpt lat="36.7768950" lon="-4.4345780">
        <ele>134.9</ele>
        <time>2018-03-28T08:42:07Z</time>
      </trkpt>
      <trkpt lat="36.7769620" lon="-4.4345520">
        <ele>134.9</ele>
        <time>2018-03-28T08:42:08Z</time>
      </trkpt>
      <trkpt lat="36.7769620" lon="-4.4345520">
        <ele>135.9</ele>
        <time>2018-03-28T08:42:09Z</time>
      </trkpt>
      <trkpt lat="36.7770230" lon="-4.4345180">
        <ele>135.9</ele>
        <time>2018-03-28T08:42:10Z</time>
      </trkpt>
      <trkpt lat="36.7770230" lon="-4.4345180">
        <ele>135.9</ele>
        <time>2018-03-28T08:42:11Z</time>
      </trkpt>
      <trkpt lat="36.7770820" lon="-4.4344850">
        <ele>135.9</ele>
        <time>2018-03-28T08:42:12Z</time>
      </trkpt>
      <trkpt lat="36.7771230" lon="-4.4344470">
        <ele>135.9</ele>
        <time>2018-03-28T08:42:13Z</time>
      </trkpt>
      <trkpt lat="36.7771350" lon="-4.4344320">
        <ele>135.9</ele>
        <time>2018-03-28T08:42:14Z</time>
      </trkpt>
      <trkpt lat="36.7771600" lon="-4.4344020">
        <ele>136.9</ele>
        <time>2018-03-28T08:42:15Z</time>
      </trkpt>
      <trkpt lat="36.7772050" lon="-4.4343650">
        <ele>136.9</ele>
        <time>2018-03-28T08:42:16Z</time>
      </trkpt>
      <trkpt lat="36.7772190" lon="-4.4343530">
        <ele>136.9</ele>
        <time>2018-03-28T08:42:17Z</time>
      </trkpt>
      <trkpt lat="36.7772470" lon="-4.4343280">
        <ele>136.9</ele>
        <time>2018-03-28T08:42:18Z</time>
      </trkpt>
      <trkpt lat="36.7772470" lon="-4.4343280">
        <ele>136.9</ele>
        <time>2018-03-28T08:42:19Z</time>
      </trkpt>
      <trkpt lat="36.7773070" lon="-4.4342800">
        <ele>137.9</ele>
        <time>2018-03-28T08:42:20Z</time>
      </trkpt>
      <trkpt lat="36.7773380" lon="-4.4342630">
        <ele>137.9</ele>
        <time>2018-03-28T08:42:21Z</time>
      </trkpt>
      <trkpt lat="36.7773380" lon="-4.4342630">
        <ele>137.9</ele>
        <time>2018-03-28T08:42:22Z</time>
      </trkpt>
      <trkpt lat="36.7774070" lon="-4.4342480">
        <ele>137.9</ele>
        <time>2018-03-28T08:42:23Z</time>
      </trkpt>
      <trkpt lat="36.7774070" lon="-4.4342480">
        <ele>137.9</ele>
        <time>2018-03-28T08:42:24Z</time>
      </trkpt>
      <trkpt lat="36.7774750" lon="-4.4342530">
        <ele>137.9</ele>
        <time>2018-03-28T08:42:25Z</time>
      </trkpt>
      <trkpt lat="36.7774750" lon="-4.4342530">
        <ele>138.9</ele>
        <time>2018-03-28T08:42:26Z</time>
      </trkpt>
      <trkpt lat="36.7775450" lon="-4.4342870">
        <ele>138.9</ele>
        <time>2018-03-28T08:42:27Z</time>
      </trkpt>
      <trkpt lat="36.7775450" lon="-4.4342870">
        <ele>138.9</ele>
        <time>2018-03-28T08:42:28Z</time>
      </trkpt>
      <trkpt lat="36.7776080" lon="-4.4343280">
        <ele>138.9</ele>
        <time>2018-03-28T08:42:29Z</time>
      </trkpt>
      <trkpt lat="36.7776430" lon="-4.4343500">
        <ele>138.9</ele>
        <time>2018-03-28T08:42:30Z</time>
      </trkpt>
      <trkpt lat="36.7776430" lon="-4.4343500">
        <ele>138.9</ele>
        <time>2018-03-28T08:42:31Z</time>
      </trkpt>
      <trkpt lat="36.7777050" lon="-4.4343920">
        <ele>138.9</ele>
        <time>2018-03-28T08:42:32Z</time>
      </trkpt>
      <trkpt lat="36.7777380" lon="-4.4344070">
        <ele>138.9</ele>
        <time>2018-03-28T08:42:33Z</time>
      </trkpt>
      <trkpt lat="36.7777380" lon="-4.4344070">
        <ele>139.9</ele>
        <time>2018-03-28T08:42:34Z</time>
      </trkpt>
      <trkpt lat="36.7778030" lon="-4.4344180">
        <ele>139.9</ele>
        <time>2018-03-28T08:42:35Z</time>
      </trkpt>
      <trkpt lat="36.7778030" lon="-4.4344180">
        <ele>139.9</ele>
        <time>2018-03-28T08:42:36Z</time>
      </trkpt>
      <trkpt lat="36.7778720" lon="-4.4344080">
        <ele>139.9</ele>
        <time>2018-03-28T08:42:37Z</time>
      </trkpt>
      <trkpt lat="36.7778720" lon="-4.4344080">
        <ele>140.9</ele>
        <time>2018-03-28T08:42:38Z</time>
      </trkpt>
      <trkpt lat="36.7779570" lon="-4.4343810">
        <ele>140.9</ele>
        <time>2018-03-28T08:42:39Z</time>
      </trkpt>
      <trkpt lat="36.7779740" lon="-4.4343750">
        <ele>140.9</ele>
        <time>2018-03-28T08:42:40Z</time>
      </trkpt>
      <trkpt lat="36.7780070" lon="-4.4343620">
        <ele>140.9</ele>
        <time>2018-03-28T08:42:41Z</time>
      </trkpt>
      <trkpt lat="36.7780380" lon="-4.4343530">
        <ele>141.9</ele>
        <time>2018-03-28T08:42:42Z</time>
      </trkpt>
      <trkpt lat="36.7780380" lon="-4.4343530">
        <ele>141.9</ele>
        <time>2018-03-28T08:42:43Z</time>
      </trkpt>
      <trkpt lat="36.7781150" lon="-4.4343430">
        <ele>141.9</ele>
        <time>2018-03-28T08:42:44Z</time>
      </trkpt>
      <trkpt lat="36.7781150" lon="-4.4343430">
        <ele>141.9</ele>
        <time>2018-03-28T08:42:45Z</time>
      </trkpt>
      <trkpt lat="36.7781880" lon="-4.4343430">
        <ele>141.9</ele>
        <time>2018-03-28T08:42:46Z</time>
      </trkpt>
      <trkpt lat="36.7782230" lon="-4.4343520">
        <ele>141.9</ele>
        <time>2018-03-28T08:42:47Z</time>
      </trkpt>
      <trkpt lat="36.7782400" lon="-4.4343540">
        <ele>141.9</ele>
        <time>2018-03-28T08:42:48Z</time>
      </trkpt>
      <trkpt lat="36.7782560" lon="-4.4343560">
        <ele>142.9</ele>
        <time>2018-03-28T08:42:49Z</time>
      </trkpt>
      <trkpt lat="36.7782880" lon="-4.4343600">
        <ele>142.9</ele>
        <time>2018-03-28T08:42:50Z</time>
      </trkpt>
      <trkpt lat="36.7783430" lon="-4.4343900">
        <ele>142.9</ele>
        <time>2018-03-28T08:42:51Z</time>
      </trkpt>
      <trkpt lat="36.7783430" lon="-4.4343900">
        <ele>142.9</ele>
        <time>2018-03-28T08:42:52Z</time>
      </trkpt>
      <trkpt lat="36.7783960" lon="-4.4344400">
        <ele>143.9</ele>
        <time>2018-03-28T08:42:53Z</time>
      </trkpt>
      <trkpt lat="36.7784020" lon="-4.4344480">
        <ele>143.9</ele>
        <time>2018-03-28T08:42:54Z</time>
      </trkpt>
      <trkpt lat="36.7784130" lon="-4.4344630">
        <ele>143.9</ele>
        <time>2018-03-28T08:42:55Z</time>
      </trkpt>
      <trkpt lat="36.7784630" lon="-4.4345220">
        <ele>143.9</ele>
        <time>2018-03-28T08:42:56Z</time>
      </trkpt>
      <trkpt lat="36.7784630" lon="-4.4345220">
        <ele>143.9</ele>
        <time>2018-03-28T08:42:57Z</time>
      </trkpt>
      <trkpt lat="36.7785270" lon="-4.4345670">
        <ele>143.9</ele>
        <time>2018-03-28T08:42:58Z</time>
      </trkpt>
      <trkpt lat="36.7785270" lon="-4.4345670">
        <ele>143.9</ele>
        <time>2018-03-28T08:42:59Z</time>
      </trkpt>
      <trkpt lat="36.7785980" lon="-4.4345950">
        <ele>143.9</ele>
        <time>2018-03-28T08:43:00Z</time>
      </trkpt>
      <trkpt lat="36.7785980" lon="-4.4345950">
        <ele>144.9</ele>
        <time>2018-03-28T08:43:01Z</time>
      </trkpt>
      <trkpt lat="36.7786680" lon="-4.4346150">
        <ele>144.9</ele>
        <time>2018-03-28T08:43:02Z</time>
      </trkpt>
      <trkpt lat="36.7787070" lon="-4.4346230">
        <ele>144.9</ele>
        <time>2018-03-28T08:43:03Z</time>
      </trkpt>
      <trkpt lat="36.7787070" lon="-4.4346230">
        <ele>144.9</ele>
        <time>2018-03-28T08:43:04Z</time>
      </trkpt>
      <trkpt lat="36.7787900" lon="-4.4346450">
        <ele>144.9</ele>
        <time>2018-03-28T08:43:05Z</time>
      </trkpt>
      <trkpt lat="36.7787990" lon="-4.4346470">
        <ele>144.9</ele>
        <time>2018-03-28T08:43:06Z</time>
      </trkpt>
      <trkpt lat="36.7788170" lon="-4.4346520">
        <ele>145.9</ele>
        <time>2018-03-28T08:43:07Z</time>
      </trkpt>
      <trkpt lat="36.7788880" lon="-4.4346680">
        <ele>145.9</ele>
        <time>2018-03-28T08:43:08Z</time>
      </trkpt>
      <trkpt lat="36.7789410" lon="-4.4346810">
        <ele>145.9</ele>
        <time>2018-03-28T08:43:09Z</time>
      </trkpt>
      <trkpt lat="36.7789590" lon="-4.4346840">
        <ele>145.9</ele>
        <time>2018-03-28T08:43:10Z</time>
      </trkpt>
      <trkpt lat="36.7789950" lon="-4.4346900">
        <ele>145.9</ele>
        <time>2018-03-28T08:43:11Z</time>
      </trkpt>
      <trkpt lat="36.7789950" lon="-4.4346900">
        <ele>145.9</ele>
        <time>2018-03-28T08:43:12Z</time>
      </trkpt>
      <trkpt lat="36.7790670" lon="-4.4347070">
        <ele>145.9</ele>
        <time>2018-03-28T08:43:13Z</time>
      </trkpt>
      <trkpt lat="36.7790670" lon="-4.4347070">
        <ele>145.9</ele>
        <time>2018-03-28T08:43:14Z</time>
      </trkpt>
      <trkpt lat="36.7791400" lon="-4.4347200">
        <ele>145.9</ele>
        <time>2018-03-28T08:43:15Z</time>
      </trkpt>
      <trkpt lat="36.7791400" lon="-4.4347200">
        <ele>146.9</ele>
        <time>2018-03-28T08:43:16Z</time>
      </trkpt>
      <trkpt lat="36.7792100" lon="-4.4347320">
        <ele>146.9</ele>
        <time>2018-03-28T08:43:17Z</time>
      </trkpt>
      <trkpt lat="36.7792100" lon="-4.4347320">
        <ele>146.9</ele>
        <time>2018-03-28T08:43:18Z</time>
      </trkpt>
      <trkpt lat="36.7792830" lon="-4.4347470">
        <ele>146.9</ele>
        <time>2018-03-28T08:43:19Z</time>
      </trkpt>
      <trkpt lat="36.7792830" lon="-4.4347470">
        <ele>146.9</ele>
        <time>2018-03-28T08:43:20Z</time>
      </trkpt>
      <trkpt lat="36.7793640" lon="-4.4347700">
        <ele>146.9</ele>
        <time>2018-03-28T08:43:21Z</time>
      </trkpt>
      <trkpt lat="36.7793730" lon="-4.4347730">
        <ele>146.9</ele>
        <time>2018-03-28T08:43:22Z</time>
      </trkpt>
      <trkpt lat="36.7793900" lon="-4.4347780">
        <ele>146.9</ele>
        <time>2018-03-28T08:43:23Z</time>
      </trkpt>
      <trkpt lat="36.7794580" lon="-4.4348020">
        <ele>146.9</ele>
        <time>2018-03-28T08:43:24Z</time>
      </trkpt>
      <trkpt lat="36.7794580" lon="-4.4348020">
        <ele>146.9</ele>
        <time>2018-03-28T08:43:25Z</time>
      </trkpt>
      <trkpt lat="36.7795250" lon="-4.4348280">
        <ele>147.9</ele>
        <time>2018-03-28T08:43:26Z</time>
      </trkpt>
      <trkpt lat="36.7795580" lon="-4.4348370">
        <ele>147.9</ele>
        <time>2018-03-28T08:43:27Z</time>
      </trkpt>
      <trkpt lat="36.7795580" lon="-4.4348370">
        <ele>147.9</ele>
        <time>2018-03-28T08:43:28Z</time>
      </trkpt>
      <trkpt lat="36.7796280" lon="-4.4348470">
        <ele>147.9</ele>
        <time>2018-03-28T08:43:29Z</time>
      </trkpt>
      <trkpt lat="36.7796410" lon="-4.4348480">
        <ele>147.9</ele>
        <time>2018-03-28T08:43:30Z</time>
      </trkpt>
      <trkpt lat="36.7796670" lon="-4.4348500">
        <ele>147.9</ele>
        <time>2018-03-28T08:43:31Z</time>
      </trkpt>
      <trkpt lat="36.7796670" lon="-4.4348500">
        <ele>147.9</ele>
        <time>2018-03-28T08:43:32Z</time>
      </trkpt>
      <trkpt lat="36.7797230" lon="-4.4348520">
        <ele>147.9</ele>
        <time>2018-03-28T08:43:33Z</time>
      </trkpt>
      <trkpt lat="36.7797230" lon="-4.4348520">
        <ele>148.9</ele>
        <time>2018-03-28T08:43:34Z</time>
      </trkpt>
      <trkpt lat="36.7797820" lon="-4.4348520">
        <ele>148.9</ele>
        <time>2018-03-28T08:43:35Z</time>
      </trkpt>
      <trkpt lat="36.7798070" lon="-4.4348520">
        <ele>148.9</ele>
        <time>2018-03-28T08:43:36Z</time>
      </trkpt>
      <trkpt lat="36.7798300" lon="-4.4348480">
        <ele>148.9</ele>
        <time>2018-03-28T08:43:37Z</time>
      </trkpt>
      <trkpt lat="36.7798300" lon="-4.4348480">
        <ele>148.9</ele>
        <time>2018-03-28T08:43:38Z</time>
      </trkpt>
      <trkpt lat="36.7798730" lon="-4.4348430">
        <ele>148.9</ele>
        <time>2018-03-28T08:43:39Z</time>
      </trkpt>
      <trkpt lat="36.7798730" lon="-4.4348430">
        <ele>148.9</ele>
        <time>2018-03-28T08:43:40Z</time>
      </trkpt>
      <trkpt lat="36.7799130" lon="-4.4348280">
        <ele>148.9</ele>
        <time>2018-03-28T08:43:41Z</time>
      </trkpt>
      <trkpt lat="36.7799130" lon="-4.4348280">
        <ele>148.9</ele>
        <time>2018-03-28T08:43:42Z</time>
      </trkpt>
      <trkpt lat="36.7799130" lon="-4.4348280">
        <ele>148.9</ele>
        <time>2018-03-28T08:43:43Z</time>
      </trkpt>
      <trkpt lat="36.7802170" lon="-4.4350410">
        <ele>148.9</ele>
        <time>2018-03-28T08:43:44Z</time>
      </trkpt>
      <trkpt lat="36.7802360" lon="-4.4350420">
        <ele>148.9</ele>
        <time>2018-03-28T08:43:45Z</time>
      </trkpt>
      <trkpt lat="36.7802730" lon="-4.4350450">
        <ele>148.9</ele>
        <time>2018-03-28T08:43:46Z</time>
      </trkpt>
      <trkpt lat="36.7803950" lon="-4.4350450">
        <ele>148.9</ele>
        <time>2018-03-28T08:43:47Z</time>
      </trkpt>
      <trkpt lat="36.7804420" lon="-4.4350400">
        <ele>148.9</ele>
        <time>2018-03-28T08:43:48Z</time>
      </trkpt>
      <trkpt lat="36.7804420" lon="-4.4350400">
        <ele>148.9</ele>
        <time>2018-03-28T08:43:49Z</time>
      </trkpt>
      <trkpt lat="36.7805180" lon="-4.4350600">
        <ele>148.9</ele>
        <time>2018-03-28T08:43:50Z</time>
      </trkpt>
      <trkpt lat="36.7805180" lon="-4.4350600">
        <ele>148.9</ele>
        <time>2018-03-28T08:43:51Z</time>
      </trkpt>
      <trkpt lat="36.7806070" lon="-4.4350800">
        <ele>148.9</ele>
        <time>2018-03-28T08:43:52Z</time>
      </trkpt>
      <trkpt lat="36.7806310" lon="-4.4350840">
        <ele>148.9</ele>
        <time>2018-03-28T08:43:53Z</time>
      </trkpt>
      <trkpt lat="36.7806550" lon="-4.4350890">
        <ele>148.9</ele>
        <time>2018-03-28T08:43:54Z</time>
      </trkpt>
      <trkpt lat="36.7807020" lon="-4.4350980">
        <ele>148.9</ele>
        <time>2018-03-28T08:43:55Z</time>
      </trkpt>
      <trkpt lat="36.7807980" lon="-4.4350680">
        <ele>148.9</ele>
        <time>2018-03-28T08:43:56Z</time>
      </trkpt>
      <trkpt lat="36.7808420" lon="-4.4350270">
        <ele>148.9</ele>
        <time>2018-03-28T08:43:57Z</time>
      </trkpt>
      <trkpt lat="36.7808420" lon="-4.4350270">
        <ele>148.9</ele>
        <time>2018-03-28T08:43:58Z</time>
      </trkpt>
      <trkpt lat="36.7809120" lon="-4.4349320">
        <ele>148.9</ele>
        <time>2018-03-28T08:43:59Z</time>
      </trkpt>
      <trkpt lat="36.7809120" lon="-4.4349320">
        <ele>148.9</ele>
        <time>2018-03-28T08:44:00Z</time>
      </trkpt>
      <trkpt lat="36.7809870" lon="-4.4348450">
        <ele>148.9</ele>
        <time>2018-03-28T08:44:01Z</time>
      </trkpt>
      <trkpt lat="36.7809870" lon="-4.4348450">
        <ele>148.9</ele>
        <time>2018-03-28T08:44:02Z</time>
      </trkpt>
      <trkpt lat="36.7810620" lon="-4.4347750">
        <ele>148.9</ele>
        <time>2018-03-28T08:44:03Z</time>
      </trkpt>
      <trkpt lat="36.7811080" lon="-4.4347660">
        <ele>148.9</ele>
        <time>2018-03-28T08:44:04Z</time>
      </trkpt>
      <trkpt lat="36.7811540" lon="-4.4347570">
        <ele>147.9</ele>
        <time>2018-03-28T08:44:05Z</time>
      </trkpt>
      <trkpt lat="36.7812450" lon="-4.4347380">
        <ele>147.9</ele>
        <time>2018-03-28T08:44:06Z</time>
      </trkpt>
      <trkpt lat="36.7812790" lon="-4.4347470">
        <ele>147.9</ele>
        <time>2018-03-28T08:44:07Z</time>
      </trkpt>
      <trkpt lat="36.7813120" lon="-4.4347560">
        <ele>147.9</ele>
        <time>2018-03-28T08:44:08Z</time>
      </trkpt>
      <trkpt lat="36.7813780" lon="-4.4347750">
        <ele>147.9</ele>
        <time>2018-03-28T08:44:09Z</time>
      </trkpt>
      <trkpt lat="36.7814700" lon="-4.4349030">
        <ele>147.9</ele>
        <time>2018-03-28T08:44:10Z</time>
      </trkpt>
      <trkpt lat="36.7814700" lon="-4.4349030">
        <ele>147.9</ele>
        <time>2018-03-28T08:44:11Z</time>
      </trkpt>
      <trkpt lat="36.7815130" lon="-4.4350820">
        <ele>146.9</ele>
        <time>2018-03-28T08:44:12Z</time>
      </trkpt>
      <trkpt lat="36.7815130" lon="-4.4350820">
        <ele>146.9</ele>
        <time>2018-03-28T08:44:13Z</time>
      </trkpt>
      <trkpt lat="36.7815480" lon="-4.4352770">
        <ele>146.9</ele>
        <time>2018-03-28T08:44:14Z</time>
      </trkpt>
      <trkpt lat="36.7815480" lon="-4.4352770">
        <ele>146.9</ele>
        <time>2018-03-28T08:44:15Z</time>
      </trkpt>
      <trkpt lat="36.7816080" lon="-4.4354780">
        <ele>145.9</ele>
        <time>2018-03-28T08:44:16Z</time>
      </trkpt>
      <trkpt lat="36.7816080" lon="-4.4354780">
        <ele>145.9</ele>
        <time>2018-03-28T08:44:17Z</time>
      </trkpt>
      <trkpt lat="36.7816950" lon="-4.4356630">
        <ele>145.9</ele>
        <time>2018-03-28T08:44:18Z</time>
      </trkpt>
      <trkpt lat="36.7816950" lon="-4.4356630">
        <ele>143.9</ele>
        <time>2018-03-28T08:44:19Z</time>
      </trkpt>
      <trkpt lat="36.7817830" lon="-4.4358420">
        <ele>143.9</ele>
        <time>2018-03-28T08:44:20Z</time>
      </trkpt>
      <trkpt lat="36.7818250" lon="-4.4359150">
        <ele>143.9</ele>
        <time>2018-03-28T08:44:21Z</time>
      </trkpt>
      <trkpt lat="36.7818250" lon="-4.4359150">
        <ele>143.9</ele>
        <time>2018-03-28T08:44:22Z</time>
      </trkpt>
      <trkpt lat="36.7819080" lon="-4.4360500">
        <ele>143.9</ele>
        <time>2018-03-28T08:44:23Z</time>
      </trkpt>
      <trkpt lat="36.7819730" lon="-4.4360980">
        <ele>143.9</ele>
        <time>2018-03-28T08:44:24Z</time>
      </trkpt>
      <trkpt lat="36.7819730" lon="-4.4360980">
        <ele>141.9</ele>
        <time>2018-03-28T08:44:25Z</time>
      </trkpt>
      <trkpt lat="36.7821270" lon="-4.4360880">
        <ele>141.9</ele>
        <time>2018-03-28T08:44:26Z</time>
      </trkpt>
      <trkpt lat="36.7821270" lon="-4.4360880">
        <ele>141.9</ele>
        <time>2018-03-28T08:44:27Z</time>
      </trkpt>
      <trkpt lat="36.7822720" lon="-4.4360070">
        <ele>141.9</ele>
        <time>2018-03-28T08:44:28Z</time>
      </trkpt>
      <trkpt lat="36.7822720" lon="-4.4360070">
        <ele>140.9</ele>
        <time>2018-03-28T08:44:29Z</time>
      </trkpt>
      <trkpt lat="36.7824100" lon="-4.4359230">
        <ele>140.9</ele>
        <time>2018-03-28T08:44:30Z</time>
      </trkpt>
      <trkpt lat="36.7824100" lon="-4.4359230">
        <ele>140.9</ele>
        <time>2018-03-28T08:44:31Z</time>
      </trkpt>
      <trkpt lat="36.7825530" lon="-4.4358820">
        <ele>140.9</ele>
        <time>2018-03-28T08:44:32Z</time>
      </trkpt>
      <trkpt lat="36.7826230" lon="-4.4358670">
        <ele>140.9</ele>
        <time>2018-03-28T08:44:33Z</time>
      </trkpt>
      <trkpt lat="36.7826230" lon="-4.4358670">
        <ele>140.9</ele>
        <time>2018-03-28T08:44:34Z</time>
      </trkpt>
      <trkpt lat="36.7827650" lon="-4.4358180">
        <ele>140.9</ele>
        <time>2018-03-28T08:44:35Z</time>
      </trkpt>
      <trkpt lat="36.7828300" lon="-4.4357850">
        <ele>140.9</ele>
        <time>2018-03-28T08:44:36Z</time>
      </trkpt>
      <trkpt lat="36.7828300" lon="-4.4357850">
        <ele>140.9</ele>
        <time>2018-03-28T08:44:37Z</time>
      </trkpt>
      <trkpt lat="36.7829630" lon="-4.4357150">
        <ele>140.9</ele>
        <time>2018-03-28T08:44:38Z</time>
      </trkpt>
      <trkpt lat="36.7829630" lon="-4.4357150">
        <ele>140.9</ele>
        <time>2018-03-28T08:44:39Z</time>
      </trkpt>
      <trkpt lat="36.7830950" lon="-4.4356580">
        <ele>140.9</ele>
        <time>2018-03-28T08:44:40Z</time>
      </trkpt>
      <trkpt lat="36.7830950" lon="-4.4356580">
        <ele>140.9</ele>
        <time>2018-03-28T08:44:41Z</time>
      </trkpt>
      <trkpt lat="36.7832270" lon="-4.4356120">
        <ele>140.9</ele>
        <time>2018-03-28T08:44:42Z</time>
      </trkpt>
      <trkpt lat="36.7832270" lon="-4.4356120">
        <ele>140.9</ele>
        <time>2018-03-28T08:44:43Z</time>
      </trkpt>
      <trkpt lat="36.7833700" lon="-4.4356070">
        <ele>140.9</ele>
        <time>2018-03-28T08:44:44Z</time>
      </trkpt>
      <trkpt lat="36.7833700" lon="-4.4356070">
        <ele>140.9</ele>
        <time>2018-03-28T08:44:45Z</time>
      </trkpt>
      <trkpt lat="36.7835270" lon="-4.4356180">
        <ele>140.9</ele>
        <time>2018-03-28T08:44:46Z</time>
      </trkpt>
      <trkpt lat="36.7835270" lon="-4.4356180">
        <ele>140.9</ele>
        <time>2018-03-28T08:44:47Z</time>
      </trkpt>
      <trkpt lat="36.7836780" lon="-4.4356180">
        <ele>140.9</ele>
        <time>2018-03-28T08:44:48Z</time>
      </trkpt>
      <trkpt lat="36.7836780" lon="-4.4356180">
        <ele>140.9</ele>
        <time>2018-03-28T08:44:49Z</time>
      </trkpt>
      <trkpt lat="36.7838170" lon="-4.4356080">
        <ele>140.9</ele>
        <time>2018-03-28T08:44:50Z</time>
      </trkpt>
      <trkpt lat="36.7838490" lon="-4.4355940">
        <ele>140.9</ele>
        <time>2018-03-28T08:44:51Z</time>
      </trkpt>
      <trkpt lat="36.7838800" lon="-4.4355800">
        <ele>140.9</ele>
        <time>2018-03-28T08:44:52Z</time>
      </trkpt>
      <trkpt lat="36.7839430" lon="-4.4355520">
        <ele>140.9</ele>
        <time>2018-03-28T08:44:53Z</time>
      </trkpt>
      <trkpt lat="36.7840520" lon="-4.4354670">
        <ele>140.9</ele>
        <time>2018-03-28T08:44:54Z</time>
      </trkpt>
      <trkpt lat="36.7840520" lon="-4.4354670">
        <ele>140.9</ele>
        <time>2018-03-28T08:44:55Z</time>
      </trkpt>
      <trkpt lat="36.7841630" lon="-4.4353780">
        <ele>140.9</ele>
        <time>2018-03-28T08:44:56Z</time>
      </trkpt>
      <trkpt lat="36.7841630" lon="-4.4353780">
        <ele>140.9</ele>
        <time>2018-03-28T08:44:57Z</time>
      </trkpt>
      <trkpt lat="36.7842600" lon="-4.4352850">
        <ele>140.9</ele>
        <time>2018-03-28T08:44:58Z</time>
      </trkpt>
      <trkpt lat="36.7842600" lon="-4.4352850">
        <ele>140.9</ele>
        <time>2018-03-28T08:44:59Z</time>
      </trkpt>
      <trkpt lat="36.7843500" lon="-4.4351920">
        <ele>140.9</ele>
        <time>2018-03-28T08:45:00Z</time>
      </trkpt>
      <trkpt lat="36.7843500" lon="-4.4351920">
        <ele>140.9</ele>
        <time>2018-03-28T08:45:01Z</time>
      </trkpt>
      <trkpt lat="36.7844370" lon="-4.4351180">
        <ele>140.9</ele>
        <time>2018-03-28T08:45:02Z</time>
      </trkpt>
      <trkpt lat="36.7844370" lon="-4.4351180">
        <ele>140.9</ele>
        <time>2018-03-28T08:45:03Z</time>
      </trkpt>
      <trkpt lat="36.7845270" lon="-4.4350670">
        <ele>140.9</ele>
        <time>2018-03-28T08:45:04Z</time>
      </trkpt>
      <trkpt lat="36.7845520" lon="-4.4350610">
        <ele>140.9</ele>
        <time>2018-03-28T08:45:05Z</time>
      </trkpt>
      <trkpt lat="36.7845760" lon="-4.4350550">
        <ele>140.9</ele>
        <time>2018-03-28T08:45:06Z</time>
      </trkpt>
      <trkpt lat="36.7846250" lon="-4.4350430">
        <ele>141.9</ele>
        <time>2018-03-28T08:45:07Z</time>
      </trkpt>
      <trkpt lat="36.7847350" lon="-4.4350850">
        <ele>141.9</ele>
        <time>2018-03-28T08:45:08Z</time>
      </trkpt>
      <trkpt lat="36.7847350" lon="-4.4350850">
        <ele>141.9</ele>
        <time>2018-03-28T08:45:09Z</time>
      </trkpt>
      <trkpt lat="36.7848080" lon="-4.4351830">
        <ele>141.9</ele>
        <time>2018-03-28T08:45:10Z</time>
      </trkpt>
      <trkpt lat="36.7848080" lon="-4.4351830">
        <ele>141.9</ele>
        <time>2018-03-28T08:45:11Z</time>
      </trkpt>
      <trkpt lat="36.7848200" lon="-4.4353070">
        <ele>141.9</ele>
        <time>2018-03-28T08:45:12Z</time>
      </trkpt>
      <trkpt lat="36.7848200" lon="-4.4353070">
        <ele>141.9</ele>
        <time>2018-03-28T08:45:13Z</time>
      </trkpt>
      <trkpt lat="36.7848330" lon="-4.4354280">
        <ele>141.9</ele>
        <time>2018-03-28T08:45:14Z</time>
      </trkpt>
      <trkpt lat="36.7848330" lon="-4.4354280">
        <ele>141.9</ele>
        <time>2018-03-28T08:45:15Z</time>
      </trkpt>
      <trkpt lat="36.7848400" lon="-4.4355580">
        <ele>141.9</ele>
        <time>2018-03-28T08:45:16Z</time>
      </trkpt>
      <trkpt lat="36.7848380" lon="-4.4356180">
        <ele>141.9</ele>
        <time>2018-03-28T08:45:17Z</time>
      </trkpt>
      <trkpt lat="36.7848380" lon="-4.4356180">
        <ele>141.9</ele>
        <time>2018-03-28T08:45:18Z</time>
      </trkpt>
      <trkpt lat="36.7848350" lon="-4.4357300">
        <ele>142.9</ele>
        <time>2018-03-28T08:45:19Z</time>
      </trkpt>
      <trkpt lat="36.7848330" lon="-4.4357810">
        <ele>142.9</ele>
        <time>2018-03-28T08:45:20Z</time>
      </trkpt>
      <trkpt lat="36.7848300" lon="-4.4358320">
        <ele>142.9</ele>
        <time>2018-03-28T08:45:21Z</time>
      </trkpt>
      <trkpt lat="36.7848300" lon="-4.4358320">
        <ele>142.9</ele>
        <time>2018-03-28T08:45:22Z</time>
      </trkpt>
      <trkpt lat="36.7848280" lon="-4.4359300">
        <ele>142.9</ele>
        <time>2018-03-28T08:45:23Z</time>
      </trkpt>
      <trkpt lat="36.7848280" lon="-4.4359300">
        <ele>143.9</ele>
        <time>2018-03-28T08:45:24Z</time>
      </trkpt>
      <trkpt lat="36.7848250" lon="-4.4360230">
        <ele>143.9</ele>
        <time>2018-03-28T08:45:25Z</time>
      </trkpt>
      <trkpt lat="36.7848250" lon="-4.4360230">
        <ele>143.9</ele>
        <time>2018-03-28T08:45:26Z</time>
      </trkpt>
      <trkpt lat="36.7848200" lon="-4.4361100">
        <ele>143.9</ele>
        <time>2018-03-28T08:45:27Z</time>
      </trkpt>
      <trkpt lat="36.7848200" lon="-4.4361100">
        <ele>144.9</ele>
        <time>2018-03-28T08:45:28Z</time>
      </trkpt>
      <trkpt lat="36.7848170" lon="-4.4361950">
        <ele>144.9</ele>
        <time>2018-03-28T08:45:29Z</time>
      </trkpt>
      <trkpt lat="36.7848130" lon="-4.4362350">
        <ele>144.9</ele>
        <time>2018-03-28T08:45:30Z</time>
      </trkpt>
      <trkpt lat="36.7848130" lon="-4.4362350">
        <ele>144.9</ele>
        <time>2018-03-28T08:45:31Z</time>
      </trkpt>
      <trkpt lat="36.7848120" lon="-4.4363130">
        <ele>145.9</ele>
        <time>2018-03-28T08:45:32Z</time>
      </trkpt>
      <trkpt lat="36.7848120" lon="-4.4363530">
        <ele>145.9</ele>
        <time>2018-03-28T08:45:33Z</time>
      </trkpt>
      <trkpt lat="36.7848120" lon="-4.4363530">
        <ele>145.9</ele>
        <time>2018-03-28T08:45:34Z</time>
      </trkpt>
      <trkpt lat="36.7848120" lon="-4.4364370">
        <ele>145.9</ele>
        <time>2018-03-28T08:45:35Z</time>
      </trkpt>
      <trkpt lat="36.7848170" lon="-4.4364750">
        <ele>146.9</ele>
        <time>2018-03-28T08:45:36Z</time>
      </trkpt>
      <trkpt lat="36.7848200" lon="-4.4365130">
        <ele>146.9</ele>
        <time>2018-03-28T08:45:37Z</time>
      </trkpt>
      <trkpt lat="36.7848200" lon="-4.4365130">
        <ele>146.9</ele>
        <time>2018-03-28T08:45:38Z</time>
      </trkpt>
      <trkpt lat="36.7848170" lon="-4.4365870">
        <ele>146.9</ele>
        <time>2018-03-28T08:45:39Z</time>
      </trkpt>
      <trkpt lat="36.7848170" lon="-4.4366230">
        <ele>147.9</ele>
        <time>2018-03-28T08:45:40Z</time>
      </trkpt>
      <trkpt lat="36.7848170" lon="-4.4366230">
        <ele>147.9</ele>
        <time>2018-03-28T08:45:41Z</time>
      </trkpt>
      <trkpt lat="36.7848170" lon="-4.4366970">
        <ele>147.9</ele>
        <time>2018-03-28T08:45:42Z</time>
      </trkpt>
      <trkpt lat="36.7848170" lon="-4.4366970">
        <ele>147.9</ele>
        <time>2018-03-28T08:45:43Z</time>
      </trkpt>
      <trkpt lat="36.7848250" lon="-4.4367680">
        <ele>148.9</ele>
        <time>2018-03-28T08:45:44Z</time>
      </trkpt>
      <trkpt lat="36.7848250" lon="-4.4367680">
        <ele>148.9</ele>
        <time>2018-03-28T08:45:45Z</time>
      </trkpt>
      <trkpt lat="36.7848350" lon="-4.4368450">
        <ele>148.9</ele>
        <time>2018-03-28T08:45:46Z</time>
      </trkpt>
      <trkpt lat="36.7848380" lon="-4.4368820">
        <ele>148.9</ele>
        <time>2018-03-28T08:45:47Z</time>
      </trkpt>
      <trkpt lat="36.7848380" lon="-4.4369200">
        <ele>149.9</ele>
        <time>2018-03-28T08:45:48Z</time>
      </trkpt>
      <trkpt lat="36.7848380" lon="-4.4369200">
        <ele>149.9</ele>
        <time>2018-03-28T08:45:49Z</time>
      </trkpt>
      <trkpt lat="36.7848420" lon="-4.4369950">
        <ele>149.9</ele>
        <time>2018-03-28T08:45:50Z</time>
      </trkpt>
      <trkpt lat="36.7848420" lon="-4.4369950">
        <ele>149.9</ele>
        <time>2018-03-28T08:45:51Z</time>
      </trkpt>
      <trkpt lat="36.7848480" lon="-4.4370670">
        <ele>149.9</ele>
        <time>2018-03-28T08:45:52Z</time>
      </trkpt>
      <trkpt lat="36.7848480" lon="-4.4370670">
        <ele>149.9</ele>
        <time>2018-03-28T08:45:53Z</time>
      </trkpt>
      <trkpt lat="36.7848550" lon="-4.4371380">
        <ele>149.9</ele>
        <time>2018-03-28T08:45:54Z</time>
      </trkpt>
      <trkpt lat="36.7848550" lon="-4.4371380">
        <ele>151.9</ele>
        <time>2018-03-28T08:45:55Z</time>
      </trkpt>
      <trkpt lat="36.7848600" lon="-4.4372080">
        <ele>151.9</ele>
        <time>2018-03-28T08:45:56Z</time>
      </trkpt>
      <trkpt lat="36.7848600" lon="-4.4372080">
        <ele>151.9</ele>
        <time>2018-03-28T08:45:57Z</time>
      </trkpt>
      <trkpt lat="36.7848680" lon="-4.4372820">
        <ele>151.9</ele>
        <time>2018-03-28T08:45:58Z</time>
      </trkpt>
      <trkpt lat="36.7848700" lon="-4.4373180">
        <ele>152.9</ele>
        <time>2018-03-28T08:45:59Z</time>
      </trkpt>
      <trkpt lat="36.7848650" lon="-4.4373550">
        <ele>152.9</ele>
        <time>2018-03-28T08:46:00Z</time>
      </trkpt>
      <trkpt lat="36.7848650" lon="-4.4373550">
        <ele>152.9</ele>
        <time>2018-03-28T08:46:01Z</time>
      </trkpt>
      <trkpt lat="36.7848470" lon="-4.4374280">
        <ele>152.9</ele>
        <time>2018-03-28T08:46:02Z</time>
      </trkpt>
      <trkpt lat="36.7848470" lon="-4.4374280">
        <ele>153.9</ele>
        <time>2018-03-28T08:46:03Z</time>
      </trkpt>
      <trkpt lat="36.7848250" lon="-4.4375030">
        <ele>153.9</ele>
        <time>2018-03-28T08:46:04Z</time>
      </trkpt>
      <trkpt lat="36.7848150" lon="-4.4375430">
        <ele>153.9</ele>
        <time>2018-03-28T08:46:05Z</time>
      </trkpt>
      <trkpt lat="36.7848150" lon="-4.4375430">
        <ele>153.9</ele>
        <time>2018-03-28T08:46:06Z</time>
      </trkpt>
      <trkpt lat="36.7847870" lon="-4.4376200">
        <ele>153.9</ele>
        <time>2018-03-28T08:46:07Z</time>
      </trkpt>
      <trkpt lat="36.7847870" lon="-4.4376200">
        <ele>153.9</ele>
        <time>2018-03-28T08:46:08Z</time>
      </trkpt>
      <trkpt lat="36.7847580" lon="-4.4376950">
        <ele>153.9</ele>
        <time>2018-03-28T08:46:09Z</time>
      </trkpt>
      <trkpt lat="36.7847580" lon="-4.4376950">
        <ele>153.9</ele>
        <time>2018-03-28T08:46:10Z</time>
      </trkpt>
      <trkpt lat="36.7847350" lon="-4.4377780">
        <ele>153.9</ele>
        <time>2018-03-28T08:46:11Z</time>
      </trkpt>
      <trkpt lat="36.7847250" lon="-4.4378220">
        <ele>154.9</ele>
        <time>2018-03-28T08:46:12Z</time>
      </trkpt>
      <trkpt lat="36.7847250" lon="-4.4378220">
        <ele>154.9</ele>
        <time>2018-03-28T08:46:13Z</time>
      </trkpt>
      <trkpt lat="36.7847100" lon="-4.4379240">
        <ele>154.9</ele>
        <time>2018-03-28T08:46:14Z</time>
      </trkpt>
      <trkpt lat="36.7847100" lon="-4.4379450">
        <ele>154.9</ele>
        <time>2018-03-28T08:46:15Z</time>
      </trkpt>
      <trkpt lat="36.7847100" lon="-4.4379450">
        <ele>154.9</ele>
        <time>2018-03-28T08:46:16Z</time>
      </trkpt>
      <trkpt lat="36.7847130" lon="-4.4380250">
        <ele>155.9</ele>
        <time>2018-03-28T08:46:17Z</time>
      </trkpt>
      <trkpt lat="36.7847130" lon="-4.4380650">
        <ele>155.9</ele>
        <time>2018-03-28T08:46:18Z</time>
      </trkpt>
      <trkpt lat="36.7847100" lon="-4.4381080">
        <ele>155.9</ele>
        <time>2018-03-28T08:46:19Z</time>
      </trkpt>
      <trkpt lat="36.7847100" lon="-4.4381080">
        <ele>155.9</ele>
        <time>2018-03-28T08:46:20Z</time>
      </trkpt>
      <trkpt lat="36.7847000" lon="-4.4381920">
        <ele>155.9</ele>
        <time>2018-03-28T08:46:21Z</time>
      </trkpt>
      <trkpt lat="36.7847000" lon="-4.4382330">
        <ele>156.9</ele>
        <time>2018-03-28T08:46:22Z</time>
      </trkpt>
      <trkpt lat="36.7847000" lon="-4.4382730">
        <ele>156.9</ele>
        <time>2018-03-28T08:46:23Z</time>
      </trkpt>
      <trkpt lat="36.7846980" lon="-4.4383120">
        <ele>156.9</ele>
        <time>2018-03-28T08:46:24Z</time>
      </trkpt>
      <trkpt lat="36.7846930" lon="-4.4383520">
        <ele>156.9</ele>
        <time>2018-03-28T08:46:25Z</time>
      </trkpt>
      <trkpt lat="36.7846930" lon="-4.4383520">
        <ele>156.9</ele>
        <time>2018-03-28T08:46:26Z</time>
      </trkpt>
      <trkpt lat="36.7846830" lon="-4.4384320">
        <ele>156.9</ele>
        <time>2018-03-28T08:46:27Z</time>
      </trkpt>
      <trkpt lat="36.7846830" lon="-4.4384320">
        <ele>157.9</ele>
        <time>2018-03-28T08:46:28Z</time>
      </trkpt>
      <trkpt lat="36.7846750" lon="-4.4385100">
        <ele>157.9</ele>
        <time>2018-03-28T08:46:29Z</time>
      </trkpt>
      <trkpt lat="36.7846750" lon="-4.4385100">
        <ele>157.9</ele>
        <time>2018-03-28T08:46:30Z</time>
      </trkpt>
      <trkpt lat="36.7846720" lon="-4.4386190">
        <ele>157.9</ele>
        <time>2018-03-28T08:46:31Z</time>
      </trkpt>
      <trkpt lat="36.7846710" lon="-4.4386400">
        <ele>157.9</ele>
        <time>2018-03-28T08:46:32Z</time>
      </trkpt>
      <trkpt lat="36.7846680" lon="-4.4386820">
        <ele>157.9</ele>
        <time>2018-03-28T08:46:33Z</time>
      </trkpt>
      <trkpt lat="36.7846680" lon="-4.4386820">
        <ele>157.9</ele>
        <time>2018-03-28T08:46:34Z</time>
      </trkpt>
      <trkpt lat="36.7846670" lon="-4.4387650">
        <ele>157.9</ele>
        <time>2018-03-28T08:46:35Z</time>
      </trkpt>
      <trkpt lat="36.7846670" lon="-4.4387650">
        <ele>158.9</ele>
        <time>2018-03-28T08:46:36Z</time>
      </trkpt>
      <trkpt lat="36.7846770" lon="-4.4388480">
        <ele>158.9</ele>
        <time>2018-03-28T08:46:37Z</time>
      </trkpt>
      <trkpt lat="36.7846820" lon="-4.4388660">
        <ele>158.9</ele>
        <time>2018-03-28T08:46:38Z</time>
      </trkpt>
      <trkpt lat="36.7846860" lon="-4.4388840">
        <ele>158.9</ele>
        <time>2018-03-28T08:46:39Z</time>
      </trkpt>
      <trkpt lat="36.7846950" lon="-4.4389200">
        <ele>159.9</ele>
        <time>2018-03-28T08:46:40Z</time>
      </trkpt>
      <trkpt lat="36.7847380" lon="-4.4389700">
        <ele>159.9</ele>
        <time>2018-03-28T08:46:41Z</time>
      </trkpt>
      <trkpt lat="36.7847700" lon="-4.4389880">
        <ele>159.9</ele>
        <time>2018-03-28T08:46:42Z</time>
      </trkpt>
      <trkpt lat="36.7847700" lon="-4.4389880">
        <ele>159.9</ele>
        <time>2018-03-28T08:46:43Z</time>
      </trkpt>
      <trkpt lat="36.7848320" lon="-4.4389980">
        <ele>159.9</ele>
        <time>2018-03-28T08:46:44Z</time>
      </trkpt>
      <trkpt lat="36.7848580" lon="-4.4389900">
        <ele>159.9</ele>
        <time>2018-03-28T08:46:45Z</time>
      </trkpt>
      <trkpt lat="36.7848850" lon="-4.4389770">
        <ele>160.9</ele>
        <time>2018-03-28T08:46:46Z</time>
      </trkpt>
      <trkpt lat="36.7848850" lon="-4.4389770">
        <ele>160.9</ele>
        <time>2018-03-28T08:46:47Z</time>
      </trkpt>
      <trkpt lat="36.7849330" lon="-4.4389300">
        <ele>160.9</ele>
        <time>2018-03-28T08:46:48Z</time>
      </trkpt>
      <trkpt lat="36.7849330" lon="-4.4389300">
        <ele>160.9</ele>
        <time>2018-03-28T08:46:49Z</time>
      </trkpt>
      <trkpt lat="36.7849720" lon="-4.4388720">
        <ele>160.9</ele>
        <time>2018-03-28T08:46:50Z</time>
      </trkpt>
      <trkpt lat="36.7849900" lon="-4.4388420">
        <ele>160.9</ele>
        <time>2018-03-28T08:46:51Z</time>
      </trkpt>
      <trkpt lat="36.7849900" lon="-4.4388420">
        <ele>160.9</ele>
        <time>2018-03-28T08:46:52Z</time>
      </trkpt>
      <trkpt lat="36.7850320" lon="-4.4387930">
        <ele>161.9</ele>
        <time>2018-03-28T08:46:53Z</time>
      </trkpt>
      <trkpt lat="36.7850530" lon="-4.4387720">
        <ele>161.9</ele>
        <time>2018-03-28T08:46:54Z</time>
      </trkpt>
      <trkpt lat="36.7850530" lon="-4.4387720">
        <ele>161.9</ele>
        <time>2018-03-28T08:46:55Z</time>
      </trkpt>
      <trkpt lat="36.7850930" lon="-4.4387200">
        <ele>161.9</ele>
        <time>2018-03-28T08:46:56Z</time>
      </trkpt>
      <trkpt lat="36.7850930" lon="-4.4387200">
        <ele>162.9</ele>
        <time>2018-03-28T08:46:57Z</time>
      </trkpt>
      <trkpt lat="36.7851350" lon="-4.4386770">
        <ele>162.9</ele>
        <time>2018-03-28T08:46:58Z</time>
      </trkpt>
      <trkpt lat="36.7851350" lon="-4.4386770">
        <ele>162.9</ele>
        <time>2018-03-28T08:46:59Z</time>
      </trkpt>
      <trkpt lat="36.7851830" lon="-4.4386420">
        <ele>162.9</ele>
        <time>2018-03-28T08:47:00Z</time>
      </trkpt>
      <trkpt lat="36.7851830" lon="-4.4386420">
        <ele>163.9</ele>
        <time>2018-03-28T08:47:01Z</time>
      </trkpt>
      <trkpt lat="36.7852320" lon="-4.4386230">
        <ele>163.9</ele>
        <time>2018-03-28T08:47:02Z</time>
      </trkpt>
      <trkpt lat="36.7852320" lon="-4.4386230">
        <ele>163.9</ele>
        <time>2018-03-28T08:47:03Z</time>
      </trkpt>
      <trkpt lat="36.7853120" lon="-4.4386390">
        <ele>163.9</ele>
        <time>2018-03-28T08:47:04Z</time>
      </trkpt>
      <trkpt lat="36.7853270" lon="-4.4386470">
        <ele>164.9</ele>
        <time>2018-03-28T08:47:05Z</time>
      </trkpt>
      <trkpt lat="36.7853270" lon="-4.4386470">
        <ele>164.9</ele>
        <time>2018-03-28T08:47:06Z</time>
      </trkpt>
      <trkpt lat="36.7853780" lon="-4.4386920">
        <ele>164.9</ele>
        <time>2018-03-28T08:47:07Z</time>
      </trkpt>
      <trkpt lat="36.7853780" lon="-4.4386920">
        <ele>164.9</ele>
        <time>2018-03-28T08:47:08Z</time>
      </trkpt>
      <trkpt lat="36.7854380" lon="-4.4387350">
        <ele>164.9</ele>
        <time>2018-03-28T08:47:09Z</time>
      </trkpt>
      <trkpt lat="36.7854680" lon="-4.4387570">
        <ele>164.9</ele>
        <time>2018-03-28T08:47:10Z</time>
      </trkpt>
      <trkpt lat="36.7854680" lon="-4.4387570">
        <ele>165.9</ele>
        <time>2018-03-28T08:47:11Z</time>
      </trkpt>
      <trkpt lat="36.7855330" lon="-4.4387800">
        <ele>165.9</ele>
        <time>2018-03-28T08:47:12Z</time>
      </trkpt>
      <trkpt lat="36.7855330" lon="-4.4387800">
        <ele>165.9</ele>
        <time>2018-03-28T08:47:13Z</time>
      </trkpt>
      <trkpt lat="36.7856000" lon="-4.4387700">
        <ele>165.9</ele>
        <time>2018-03-28T08:47:14Z</time>
      </trkpt>
      <trkpt lat="36.7856000" lon="-4.4387700">
        <ele>166.9</ele>
        <time>2018-03-28T08:47:15Z</time>
      </trkpt>
      <trkpt lat="36.7856520" lon="-4.4387230">
        <ele>166.9</ele>
        <time>2018-03-28T08:47:16Z</time>
      </trkpt>
      <trkpt lat="36.7856680" lon="-4.4386920">
        <ele>166.9</ele>
        <time>2018-03-28T08:47:17Z</time>
      </trkpt>
      <trkpt lat="36.7856800" lon="-4.4386570">
        <ele>167.9</ele>
        <time>2018-03-28T08:47:18Z</time>
      </trkpt>
      <trkpt lat="36.7856800" lon="-4.4386570">
        <ele>167.9</ele>
        <time>2018-03-28T08:47:19Z</time>
      </trkpt>
      <trkpt lat="36.7857020" lon="-4.4385830">
        <ele>167.9</ele>
        <time>2018-03-28T08:47:20Z</time>
      </trkpt>
      <trkpt lat="36.7857020" lon="-4.4385830">
        <ele>168.9</ele>
        <time>2018-03-28T08:47:21Z</time>
      </trkpt>
      <trkpt lat="36.7857320" lon="-4.4385150">
        <ele>168.9</ele>
        <time>2018-03-28T08:47:22Z</time>
      </trkpt>
      <trkpt lat="36.7857600" lon="-4.4384880">
        <ele>169.9</ele>
        <time>2018-03-28T08:47:23Z</time>
      </trkpt>
      <trkpt lat="36.7857880" lon="-4.4384670">
        <ele>169.9</ele>
        <time>2018-03-28T08:47:24Z</time>
      </trkpt>
      <trkpt lat="36.7857880" lon="-4.4384670">
        <ele>169.9</ele>
        <time>2018-03-28T08:47:25Z</time>
      </trkpt>
      <trkpt lat="36.7858500" lon="-4.4384500">
        <ele>169.9</ele>
        <time>2018-03-28T08:47:26Z</time>
      </trkpt>
      <trkpt lat="36.7858500" lon="-4.4384500">
        <ele>170.9</ele>
        <time>2018-03-28T08:47:27Z</time>
      </trkpt>
      <trkpt lat="36.7859070" lon="-4.4384580">
        <ele>170.9</ele>
        <time>2018-03-28T08:47:28Z</time>
      </trkpt>
      <trkpt lat="36.7859320" lon="-4.4384690">
        <ele>170.9</ele>
        <time>2018-03-28T08:47:29Z</time>
      </trkpt>
      <trkpt lat="36.7859570" lon="-4.4384800">
        <ele>170.9</ele>
        <time>2018-03-28T08:47:30Z</time>
      </trkpt>
      <trkpt lat="36.7859570" lon="-4.4384800">
        <ele>171.9</ele>
        <time>2018-03-28T08:47:31Z</time>
      </trkpt>
      <trkpt lat="36.7860120" lon="-4.4384980">
        <ele>171.9</ele>
        <time>2018-03-28T08:47:32Z</time>
      </trkpt>
      <trkpt lat="36.7860370" lon="-4.4385020">
        <ele>171.9</ele>
        <time>2018-03-28T08:47:33Z</time>
      </trkpt>
      <trkpt lat="36.7860370" lon="-4.4385020">
        <ele>171.9</ele>
        <time>2018-03-28T08:47:34Z</time>
      </trkpt>
      <trkpt lat="36.7860900" lon="-4.4385230">
        <ele>171.9</ele>
        <time>2018-03-28T08:47:35Z</time>
      </trkpt>
      <trkpt lat="36.7861150" lon="-4.4385300">
        <ele>171.9</ele>
        <time>2018-03-28T08:47:36Z</time>
      </trkpt>
      <trkpt lat="36.7861150" lon="-4.4385300">
        <ele>171.9</ele>
        <time>2018-03-28T08:47:37Z</time>
      </trkpt>
      <trkpt lat="36.7861630" lon="-4.4385550">
        <ele>171.9</ele>
        <time>2018-03-28T08:47:38Z</time>
      </trkpt>
      <trkpt lat="36.7861630" lon="-4.4385550">
        <ele>172.9</ele>
        <time>2018-03-28T08:47:39Z</time>
      </trkpt>
      <trkpt lat="36.7862150" lon="-4.4385780">
        <ele>172.9</ele>
        <time>2018-03-28T08:47:40Z</time>
      </trkpt>
      <trkpt lat="36.7862150" lon="-4.4385780">
        <ele>172.9</ele>
        <time>2018-03-28T08:47:41Z</time>
      </trkpt>
      <trkpt lat="36.7862650" lon="-4.4386080">
        <ele>172.9</ele>
        <time>2018-03-28T08:47:42Z</time>
      </trkpt>
      <trkpt lat="36.7862900" lon="-4.4386250">
        <ele>172.9</ele>
        <time>2018-03-28T08:47:43Z</time>
      </trkpt>
      <trkpt lat="36.7862900" lon="-4.4386250">
        <ele>172.9</ele>
        <time>2018-03-28T08:47:44Z</time>
      </trkpt>
      <trkpt lat="36.7863380" lon="-4.4386670">
        <ele>173.9</ele>
        <time>2018-03-28T08:47:45Z</time>
      </trkpt>
      <trkpt lat="36.7863380" lon="-4.4386670">
        <ele>173.9</ele>
        <time>2018-03-28T08:47:46Z</time>
      </trkpt>
      <trkpt lat="36.7863780" lon="-4.4387150">
        <ele>173.9</ele>
        <time>2018-03-28T08:47:47Z</time>
      </trkpt>
      <trkpt lat="36.7863950" lon="-4.4387430">
        <ele>173.9</ele>
        <time>2018-03-28T08:47:48Z</time>
      </trkpt>
      <trkpt lat="36.7863950" lon="-4.4387430">
        <ele>173.9</ele>
        <time>2018-03-28T08:47:49Z</time>
      </trkpt>
      <trkpt lat="36.7864220" lon="-4.4387970">
        <ele>174.9</ele>
        <time>2018-03-28T08:47:50Z</time>
      </trkpt>
      <trkpt lat="36.7864220" lon="-4.4387970">
        <ele>174.9</ele>
        <time>2018-03-28T08:47:51Z</time>
      </trkpt>
      <trkpt lat="36.7864620" lon="-4.4388630">
        <ele>174.9</ele>
        <time>2018-03-28T08:47:52Z</time>
      </trkpt>
      <trkpt lat="36.7864700" lon="-4.4388770">
        <ele>174.9</ele>
        <time>2018-03-28T08:47:53Z</time>
      </trkpt>
      <trkpt lat="36.7864700" lon="-4.4388770">
        <ele>175.9</ele>
        <time>2018-03-28T08:47:54Z</time>
      </trkpt>
      <trkpt lat="36.7865020" lon="-4.4389330">
        <ele>175.9</ele>
        <time>2018-03-28T08:47:55Z</time>
      </trkpt>
      <trkpt lat="36.7865020" lon="-4.4389330">
        <ele>175.9</ele>
        <time>2018-03-28T08:47:56Z</time>
      </trkpt>
      <trkpt lat="36.7865250" lon="-4.4389950">
        <ele>175.9</ele>
        <time>2018-03-28T08:47:57Z</time>
      </trkpt>
      <trkpt lat="36.7865250" lon="-4.4389950">
        <ele>176.9</ele>
        <time>2018-03-28T08:47:58Z</time>
      </trkpt>
      <trkpt lat="36.7865480" lon="-4.4390620">
        <ele>176.9</ele>
        <time>2018-03-28T08:47:59Z</time>
      </trkpt>
      <trkpt lat="36.7865580" lon="-4.4390930">
        <ele>176.9</ele>
        <time>2018-03-28T08:48:00Z</time>
      </trkpt>
      <trkpt lat="36.7865580" lon="-4.4390930">
        <ele>176.9</ele>
        <time>2018-03-28T08:48:01Z</time>
      </trkpt>
      <trkpt lat="36.7865700" lon="-4.4391530">
        <ele>176.9</ele>
        <time>2018-03-28T08:48:02Z</time>
      </trkpt>
      <trkpt lat="36.7865720" lon="-4.4391830">
        <ele>176.9</ele>
        <time>2018-03-28T08:48:03Z</time>
      </trkpt>
      <trkpt lat="36.7865720" lon="-4.4391830">
        <ele>176.9</ele>
        <time>2018-03-28T08:48:04Z</time>
      </trkpt>
      <trkpt lat="36.7865720" lon="-4.4392500">
        <ele>176.9</ele>
        <time>2018-03-28T08:48:05Z</time>
      </trkpt>
      <trkpt lat="36.7865680" lon="-4.4392850">
        <ele>176.9</ele>
        <time>2018-03-28T08:48:06Z</time>
      </trkpt>
      <trkpt lat="36.7865680" lon="-4.4392850">
        <ele>176.9</ele>
        <time>2018-03-28T08:48:07Z</time>
      </trkpt>
      <trkpt lat="36.7865720" lon="-4.4393580">
        <ele>176.9</ele>
        <time>2018-03-28T08:48:08Z</time>
      </trkpt>
      <trkpt lat="36.7865720" lon="-4.4393580">
        <ele>176.9</ele>
        <time>2018-03-28T08:48:09Z</time>
      </trkpt>
      <trkpt lat="36.7865620" lon="-4.4394300">
        <ele>176.9</ele>
        <time>2018-03-28T08:48:10Z</time>
      </trkpt>
      <trkpt lat="36.7865620" lon="-4.4394300">
        <ele>176.9</ele>
        <time>2018-03-28T08:48:11Z</time>
      </trkpt>
      <trkpt lat="36.7865480" lon="-4.4395080">
        <ele>176.9</ele>
        <time>2018-03-28T08:48:12Z</time>
      </trkpt>
      <trkpt lat="36.7865480" lon="-4.4395080">
        <ele>176.9</ele>
        <time>2018-03-28T08:48:13Z</time>
      </trkpt>
      <trkpt lat="36.7865300" lon="-4.4395770">
        <ele>176.9</ele>
        <time>2018-03-28T08:48:14Z</time>
      </trkpt>
      <trkpt lat="36.7865300" lon="-4.4395770">
        <ele>176.9</ele>
        <time>2018-03-28T08:48:15Z</time>
      </trkpt>
      <trkpt lat="36.7865130" lon="-4.4396500">
        <ele>176.9</ele>
        <time>2018-03-28T08:48:16Z</time>
      </trkpt>
      <trkpt lat="36.7865130" lon="-4.4396500">
        <ele>176.9</ele>
        <time>2018-03-28T08:48:17Z</time>
      </trkpt>
      <trkpt lat="36.7865000" lon="-4.4397320">
        <ele>176.9</ele>
        <time>2018-03-28T08:48:18Z</time>
      </trkpt>
      <trkpt lat="36.7864920" lon="-4.4397730">
        <ele>176.9</ele>
        <time>2018-03-28T08:48:19Z</time>
      </trkpt>
      <trkpt lat="36.7864890" lon="-4.4398030">
        <ele>176.9</ele>
        <time>2018-03-28T08:48:20Z</time>
      </trkpt>
      <trkpt lat="36.7864850" lon="-4.4398330">
        <ele>177.9</ele>
        <time>2018-03-28T08:48:21Z</time>
      </trkpt>
      <trkpt lat="36.7864780" lon="-4.4398920">
        <ele>177.9</ele>
        <time>2018-03-28T08:48:22Z</time>
      </trkpt>
      <trkpt lat="36.7864820" lon="-4.4399420">
        <ele>177.9</ele>
        <time>2018-03-28T08:48:23Z</time>
      </trkpt>
      <trkpt lat="36.7864830" lon="-4.4399520">
        <ele>177.9</ele>
        <time>2018-03-28T08:48:24Z</time>
      </trkpt>
      <trkpt lat="36.7864850" lon="-4.4399730">
        <ele>177.9</ele>
        <time>2018-03-28T08:48:25Z</time>
      </trkpt>
      <trkpt lat="36.7865020" lon="-4.4400580">
        <ele>177.9</ele>
        <time>2018-03-28T08:48:26Z</time>
      </trkpt>
      <trkpt lat="36.7865150" lon="-4.4400980">
        <ele>177.9</ele>
        <time>2018-03-28T08:48:27Z</time>
      </trkpt>
      <trkpt lat="36.7865420" lon="-4.4401240">
        <ele>177.9</ele>
        <time>2018-03-28T08:48:28Z</time>
      </trkpt>
      <trkpt lat="36.7865680" lon="-4.4401500">
        <ele>177.9</ele>
        <time>2018-03-28T08:48:29Z</time>
      </trkpt>
      <trkpt lat="36.7865680" lon="-4.4401500">
        <ele>177.9</ele>
        <time>2018-03-28T08:48:30Z</time>
      </trkpt>
      <trkpt lat="36.7866280" lon="-4.4401670">
        <ele>177.9</ele>
        <time>2018-03-28T08:48:31Z</time>
      </trkpt>
      <trkpt lat="36.7866280" lon="-4.4401670">
        <ele>177.9</ele>
        <time>2018-03-28T08:48:32Z</time>
      </trkpt>
      <trkpt lat="36.7866820" lon="-4.4401430">
        <ele>177.9</ele>
        <time>2018-03-28T08:48:33Z</time>
      </trkpt>
      <trkpt lat="36.7866820" lon="-4.4401430">
        <ele>177.9</ele>
        <time>2018-03-28T08:48:34Z</time>
      </trkpt>
      <trkpt lat="36.7867380" lon="-4.4400980">
        <ele>178.9</ele>
        <time>2018-03-28T08:48:35Z</time>
      </trkpt>
      <trkpt lat="36.7867380" lon="-4.4400980">
        <ele>178.9</ele>
        <time>2018-03-28T08:48:36Z</time>
      </trkpt>
      <trkpt lat="36.7868070" lon="-4.4400520">
        <ele>178.9</ele>
        <time>2018-03-28T08:48:37Z</time>
      </trkpt>
      <trkpt lat="36.7868370" lon="-4.4400320">
        <ele>178.9</ele>
        <time>2018-03-28T08:48:38Z</time>
      </trkpt>
      <trkpt lat="36.7868670" lon="-4.4400100">
        <ele>179.9</ele>
        <time>2018-03-28T08:48:39Z</time>
      </trkpt>
      <trkpt lat="36.7868980" lon="-4.4399920">
        <ele>179.9</ele>
        <time>2018-03-28T08:48:40Z</time>
      </trkpt>
      <trkpt lat="36.7868980" lon="-4.4399920">
        <ele>179.9</ele>
        <time>2018-03-28T08:48:41Z</time>
      </trkpt>
      <trkpt lat="36.7869630" lon="-4.4399750">
        <ele>179.9</ele>
        <time>2018-03-28T08:48:42Z</time>
      </trkpt>
      <trkpt lat="36.7869630" lon="-4.4399750">
        <ele>180.9</ele>
        <time>2018-03-28T08:48:43Z</time>
      </trkpt>
      <trkpt lat="36.7870410" lon="-4.4399800">
        <ele>180.9</ele>
        <time>2018-03-28T08:48:44Z</time>
      </trkpt>
      <trkpt lat="36.7870600" lon="-4.4399840">
        <ele>180.9</ele>
        <time>2018-03-28T08:48:45Z</time>
      </trkpt>
      <trkpt lat="36.7870790" lon="-4.4399870">
        <ele>180.9</ele>
        <time>2018-03-28T08:48:46Z</time>
      </trkpt>
      <trkpt lat="36.7871070" lon="-4.4399930">
        <ele>180.9</ele>
        <time>2018-03-28T08:48:47Z</time>
      </trkpt>
      <trkpt lat="36.7871330" lon="-4.4400050">
        <ele>180.9</ele>
        <time>2018-03-28T08:48:48Z</time>
      </trkpt>
      <trkpt lat="36.7871330" lon="-4.4400050">
        <ele>180.9</ele>
        <time>2018-03-28T08:48:49Z</time>
      </trkpt>
      <trkpt lat="36.7871820" lon="-4.4400320">
        <ele>181.9</ele>
        <time>2018-03-28T08:48:50Z</time>
      </trkpt>
      <trkpt lat="36.7871820" lon="-4.4400320">
        <ele>181.9</ele>
        <time>2018-03-28T08:48:51Z</time>
      </trkpt>
      <trkpt lat="36.7872280" lon="-4.4400550">
        <ele>181.9</ele>
        <time>2018-03-28T08:48:52Z</time>
      </trkpt>
      <trkpt lat="36.7872280" lon="-4.4400550">
        <ele>181.9</ele>
        <time>2018-03-28T08:48:53Z</time>
      </trkpt>
      <trkpt lat="36.7872750" lon="-4.4400830">
        <ele>182.9</ele>
        <time>2018-03-28T08:48:54Z</time>
      </trkpt>
      <trkpt lat="36.7872750" lon="-4.4400830">
        <ele>182.9</ele>
        <time>2018-03-28T08:48:55Z</time>
      </trkpt>
      <trkpt lat="36.7873200" lon="-4.4401200">
        <ele>182.9</ele>
        <time>2018-03-28T08:48:56Z</time>
      </trkpt>
      <trkpt lat="36.7873200" lon="-4.4401200">
        <ele>182.9</ele>
        <time>2018-03-28T08:48:57Z</time>
      </trkpt>
      <trkpt lat="36.7873730" lon="-4.4401500">
        <ele>183.9</ele>
        <time>2018-03-28T08:48:58Z</time>
      </trkpt>
      <trkpt lat="36.7873980" lon="-4.4401630">
        <ele>183.9</ele>
        <time>2018-03-28T08:48:59Z</time>
      </trkpt>
      <trkpt lat="36.7874230" lon="-4.4401770">
        <ele>183.9</ele>
        <time>2018-03-28T08:49:00Z</time>
      </trkpt>
      <trkpt lat="36.7874230" lon="-4.4401770">
        <ele>183.9</ele>
        <time>2018-03-28T08:49:01Z</time>
      </trkpt>
      <trkpt lat="36.7874770" lon="-4.4402020">
        <ele>183.9</ele>
        <time>2018-03-28T08:49:02Z</time>
      </trkpt>
      <trkpt lat="36.7874770" lon="-4.4402020">
        <ele>183.9</ele>
        <time>2018-03-28T08:49:03Z</time>
      </trkpt>
      <trkpt lat="36.7875350" lon="-4.4402270">
        <ele>183.9</ele>
        <time>2018-03-28T08:49:04Z</time>
      </trkpt>
      <trkpt lat="36.7875350" lon="-4.4402270">
        <ele>183.9</ele>
        <time>2018-03-28T08:49:05Z</time>
      </trkpt>
      <trkpt lat="36.7875870" lon="-4.4402400">
        <ele>183.9</ele>
        <time>2018-03-28T08:49:06Z</time>
      </trkpt>
      <trkpt lat="36.7876230" lon="-4.4402340">
        <ele>183.9</ele>
        <time>2018-03-28T08:49:07Z</time>
      </trkpt>
      <trkpt lat="36.7876310" lon="-4.4402320">
        <ele>184.9</ele>
        <time>2018-03-28T08:49:08Z</time>
      </trkpt>
      <trkpt lat="36.7876390" lon="-4.4402310">
        <ele>184.9</ele>
        <time>2018-03-28T08:49:09Z</time>
      </trkpt>
      <trkpt lat="36.7876620" lon="-4.4402270">
        <ele>184.9</ele>
        <time>2018-03-28T08:49:10Z</time>
      </trkpt>
      <trkpt lat="36.7877200" lon="-4.4401780">
        <ele>184.9</ele>
        <time>2018-03-28T08:49:11Z</time>
      </trkpt>
      <trkpt lat="36.7877200" lon="-4.4401780">
        <ele>184.9</ele>
        <time>2018-03-28T08:49:12Z</time>
      </trkpt>
      <trkpt lat="36.7877870" lon="-4.4401400">
        <ele>184.9</ele>
        <time>2018-03-28T08:49:13Z</time>
      </trkpt>
      <trkpt lat="36.7877870" lon="-4.4401400">
        <ele>185.9</ele>
        <time>2018-03-28T08:49:14Z</time>
      </trkpt>
      <trkpt lat="36.7878550" lon="-4.4401150">
        <ele>185.9</ele>
        <time>2018-03-28T08:49:15Z</time>
      </trkpt>
      <trkpt lat="36.7878550" lon="-4.4401150">
        <ele>185.9</ele>
        <time>2018-03-28T08:49:16Z</time>
      </trkpt>
      <trkpt lat="36.7879200" lon="-4.4401120">
        <ele>185.9</ele>
        <time>2018-03-28T08:49:17Z</time>
      </trkpt>
      <trkpt lat="36.7879200" lon="-4.4401120">
        <ele>185.9</ele>
        <time>2018-03-28T08:49:18Z</time>
      </trkpt>
      <trkpt lat="36.7879820" lon="-4.4401250">
        <ele>186.9</ele>
        <time>2018-03-28T08:49:19Z</time>
      </trkpt>
      <trkpt lat="36.7880100" lon="-4.4401310">
        <ele>186.9</ele>
        <time>2018-03-28T08:49:20Z</time>
      </trkpt>
      <trkpt lat="36.7880380" lon="-4.4401380">
        <ele>186.9</ele>
        <time>2018-03-28T08:49:21Z</time>
      </trkpt>
      <trkpt lat="36.7880670" lon="-4.4401450">
        <ele>186.9</ele>
        <time>2018-03-28T08:49:22Z</time>
      </trkpt>
      <trkpt lat="36.7880920" lon="-4.4401530">
        <ele>187.9</ele>
        <time>2018-03-28T08:49:23Z</time>
      </trkpt>
      <trkpt lat="36.7881180" lon="-4.4401620">
        <ele>187.9</ele>
        <time>2018-03-28T08:49:24Z</time>
      </trkpt>
      <trkpt lat="36.7881180" lon="-4.4401620">
        <ele>187.9</ele>
        <time>2018-03-28T08:49:25Z</time>
      </trkpt>
      <trkpt lat="36.7881700" lon="-4.4401830">
        <ele>187.9</ele>
        <time>2018-03-28T08:49:26Z</time>
      </trkpt>
      <trkpt lat="36.7881940" lon="-4.4401990">
        <ele>188.9</ele>
        <time>2018-03-28T08:49:27Z</time>
      </trkpt>
      <trkpt lat="36.7882180" lon="-4.4402150">
        <ele>188.9</ele>
        <time>2018-03-28T08:49:28Z</time>
      </trkpt>
      <trkpt lat="36.7882180" lon="-4.4402150">
        <ele>188.9</ele>
        <time>2018-03-28T08:49:29Z</time>
      </trkpt>
      <trkpt lat="36.7882620" lon="-4.4402550">
        <ele>188.9</ele>
        <time>2018-03-28T08:49:30Z</time>
      </trkpt>
      <trkpt lat="36.7882620" lon="-4.4402550">
        <ele>189.9</ele>
        <time>2018-03-28T08:49:31Z</time>
      </trkpt>
      <trkpt lat="36.7883020" lon="-4.4402980">
        <ele>189.9</ele>
        <time>2018-03-28T08:49:32Z</time>
      </trkpt>
      <trkpt lat="36.7883020" lon="-4.4402980">
        <ele>189.9</ele>
        <time>2018-03-28T08:49:33Z</time>
      </trkpt>
      <trkpt lat="36.7883350" lon="-4.4403500">
        <ele>189.9</ele>
        <time>2018-03-28T08:49:34Z</time>
      </trkpt>
      <trkpt lat="36.7883350" lon="-4.4403500">
        <ele>189.9</ele>
        <time>2018-03-28T08:49:35Z</time>
      </trkpt>
      <trkpt lat="36.7883680" lon="-4.4404070">
        <ele>190.9</ele>
        <time>2018-03-28T08:49:36Z</time>
      </trkpt>
      <trkpt lat="36.7883680" lon="-4.4404070">
        <ele>190.9</ele>
        <time>2018-03-28T08:49:37Z</time>
      </trkpt>
      <trkpt lat="36.7884050" lon="-4.4404830">
        <ele>190.9</ele>
        <time>2018-03-28T08:49:38Z</time>
      </trkpt>
      <trkpt lat="36.7884050" lon="-4.4404830">
        <ele>190.9</ele>
        <time>2018-03-28T08:49:39Z</time>
      </trkpt>
      <trkpt lat="36.7884470" lon="-4.4405430">
        <ele>191.9</ele>
        <time>2018-03-28T08:49:40Z</time>
      </trkpt>
      <trkpt lat="36.7884470" lon="-4.4405430">
        <ele>191.9</ele>
        <time>2018-03-28T08:49:41Z</time>
      </trkpt>
      <trkpt lat="36.7884850" lon="-4.4406050">
        <ele>191.9</ele>
        <time>2018-03-28T08:49:42Z</time>
      </trkpt>
      <trkpt lat="36.7884850" lon="-4.4406050">
        <ele>191.9</ele>
        <time>2018-03-28T08:49:43Z</time>
      </trkpt>
      <trkpt lat="36.7885220" lon="-4.4406620">
        <ele>191.9</ele>
        <time>2018-03-28T08:49:44Z</time>
      </trkpt>
      <trkpt lat="36.7885220" lon="-4.4406620">
        <ele>191.9</ele>
        <time>2018-03-28T08:49:45Z</time>
      </trkpt>
      <trkpt lat="36.7885620" lon="-4.4407050">
        <ele>192.9</ele>
        <time>2018-03-28T08:49:46Z</time>
      </trkpt>
      <trkpt lat="36.7885620" lon="-4.4407050">
        <ele>192.9</ele>
        <time>2018-03-28T08:49:47Z</time>
      </trkpt>
      <trkpt lat="36.7886050" lon="-4.4407480">
        <ele>192.9</ele>
        <time>2018-03-28T08:49:48Z</time>
      </trkpt>
      <trkpt lat="36.7886050" lon="-4.4407480">
        <ele>193.9</ele>
        <time>2018-03-28T08:49:49Z</time>
      </trkpt>
      <trkpt lat="36.7886480" lon="-4.4407830">
        <ele>193.9</ele>
        <time>2018-03-28T08:49:50Z</time>
      </trkpt>
      <trkpt lat="36.7886680" lon="-4.4408050">
        <ele>193.9</ele>
        <time>2018-03-28T08:49:51Z</time>
      </trkpt>
      <trkpt lat="36.7886680" lon="-4.4408050">
        <ele>193.9</ele>
        <time>2018-03-28T08:49:52Z</time>
      </trkpt>
      <trkpt lat="36.7887050" lon="-4.4408430">
        <ele>194.9</ele>
        <time>2018-03-28T08:49:53Z</time>
      </trkpt>
      <trkpt lat="36.7887200" lon="-4.4408670">
        <ele>194.9</ele>
        <time>2018-03-28T08:49:54Z</time>
      </trkpt>
      <trkpt lat="36.7887200" lon="-4.4408670">
        <ele>194.9</ele>
        <time>2018-03-28T08:49:55Z</time>
      </trkpt>
      <trkpt lat="36.7887470" lon="-4.4409170">
        <ele>194.9</ele>
        <time>2018-03-28T08:49:56Z</time>
      </trkpt>
      <trkpt lat="36.7887600" lon="-4.4409420">
        <ele>195.9</ele>
        <time>2018-03-28T08:49:57Z</time>
      </trkpt>
      <trkpt lat="36.7887600" lon="-4.4409420">
        <ele>195.9</ele>
        <time>2018-03-28T08:49:58Z</time>
      </trkpt>
      <trkpt lat="36.7887800" lon="-4.4410070">
        <ele>195.9</ele>
        <time>2018-03-28T08:49:59Z</time>
      </trkpt>
      <trkpt lat="36.7887880" lon="-4.4410400">
        <ele>195.9</ele>
        <time>2018-03-28T08:50:00Z</time>
      </trkpt>
      <trkpt lat="36.7887880" lon="-4.4410400">
        <ele>196.9</ele>
        <time>2018-03-28T08:50:01Z</time>
      </trkpt>
      <trkpt lat="36.7887920" lon="-4.4411130">
        <ele>196.9</ele>
        <time>2018-03-28T08:50:02Z</time>
      </trkpt>
      <trkpt lat="36.7887880" lon="-4.4411480">
        <ele>196.9</ele>
        <time>2018-03-28T08:50:03Z</time>
      </trkpt>
      <trkpt lat="36.7887880" lon="-4.4411480">
        <ele>196.9</ele>
        <time>2018-03-28T08:50:04Z</time>
      </trkpt>
      <trkpt lat="36.7887750" lon="-4.4412170">
        <ele>197.9</ele>
        <time>2018-03-28T08:50:05Z</time>
      </trkpt>
      <trkpt lat="36.7887750" lon="-4.4412170">
        <ele>197.9</ele>
        <time>2018-03-28T08:50:06Z</time>
      </trkpt>
      <trkpt lat="36.7887580" lon="-4.4412870">
        <ele>197.9</ele>
        <time>2018-03-28T08:50:07Z</time>
      </trkpt>
      <trkpt lat="36.7887580" lon="-4.4412870">
        <ele>197.9</ele>
        <time>2018-03-28T08:50:08Z</time>
      </trkpt>
      <trkpt lat="36.7887280" lon="-4.4413430">
        <ele>198.9</ele>
        <time>2018-03-28T08:50:09Z</time>
      </trkpt>
      <trkpt lat="36.7887280" lon="-4.4413430">
        <ele>198.9</ele>
        <time>2018-03-28T08:50:10Z</time>
      </trkpt>
      <trkpt lat="36.7887000" lon="-4.4414070">
        <ele>198.9</ele>
        <time>2018-03-28T08:50:11Z</time>
      </trkpt>
      <trkpt lat="36.7886880" lon="-4.4414400">
        <ele>198.9</ele>
        <time>2018-03-28T08:50:12Z</time>
      </trkpt>
      <trkpt lat="36.7886880" lon="-4.4414400">
        <ele>199.9</ele>
        <time>2018-03-28T08:50:13Z</time>
      </trkpt>
      <trkpt lat="36.7886770" lon="-4.4415080">
        <ele>199.9</ele>
        <time>2018-03-28T08:50:14Z</time>
      </trkpt>
      <trkpt lat="36.7886680" lon="-4.4415450">
        <ele>199.9</ele>
        <time>2018-03-28T08:50:15Z</time>
      </trkpt>
      <trkpt lat="36.7886680" lon="-4.4415450">
        <ele>199.9</ele>
        <time>2018-03-28T08:50:16Z</time>
      </trkpt>
      <trkpt lat="36.7886650" lon="-4.4416200">
        <ele>200.9</ele>
        <time>2018-03-28T08:50:17Z</time>
      </trkpt>
      <trkpt lat="36.7886680" lon="-4.4416550">
        <ele>200.9</ele>
        <time>2018-03-28T08:50:18Z</time>
      </trkpt>
      <trkpt lat="36.7886680" lon="-4.4416550">
        <ele>200.9</ele>
        <time>2018-03-28T08:50:19Z</time>
      </trkpt>
      <trkpt lat="36.7886800" lon="-4.4417270">
        <ele>200.9</ele>
        <time>2018-03-28T08:50:20Z</time>
      </trkpt>
      <trkpt lat="36.7886800" lon="-4.4417270">
        <ele>200.9</ele>
        <time>2018-03-28T08:50:21Z</time>
      </trkpt>
      <trkpt lat="36.7886850" lon="-4.4417970">
        <ele>201.9</ele>
        <time>2018-03-28T08:50:22Z</time>
      </trkpt>
      <trkpt lat="36.7886850" lon="-4.4417970">
        <ele>201.9</ele>
        <time>2018-03-28T08:50:23Z</time>
      </trkpt>
      <trkpt lat="36.7886920" lon="-4.4418730">
        <ele>201.9</ele>
        <time>2018-03-28T08:50:24Z</time>
      </trkpt>
      <trkpt lat="36.7886970" lon="-4.4419100">
        <ele>201.9</ele>
        <time>2018-03-28T08:50:25Z</time>
      </trkpt>
      <trkpt lat="36.7886970" lon="-4.4419100">
        <ele>202.9</ele>
        <time>2018-03-28T08:50:26Z</time>
      </trkpt>
      <trkpt lat="36.7887020" lon="-4.4419850">
        <ele>202.9</ele>
        <time>2018-03-28T08:50:27Z</time>
      </trkpt>
      <trkpt lat="36.7887020" lon="-4.4419850">
        <ele>202.9</ele>
        <time>2018-03-28T08:50:28Z</time>
      </trkpt>
      <trkpt lat="36.7886980" lon="-4.4420600">
        <ele>202.9</ele>
        <time>2018-03-28T08:50:29Z</time>
      </trkpt>
      <trkpt lat="36.7886930" lon="-4.4420980">
        <ele>202.9</ele>
        <time>2018-03-28T08:50:30Z</time>
      </trkpt>
      <trkpt lat="36.7886930" lon="-4.4420980">
        <ele>202.9</ele>
        <time>2018-03-28T08:50:31Z</time>
      </trkpt>
      <trkpt lat="36.7886820" lon="-4.4421800">
        <ele>203.9</ele>
        <time>2018-03-28T08:50:32Z</time>
      </trkpt>
      <trkpt lat="36.7886820" lon="-4.4421800">
        <ele>203.9</ele>
        <time>2018-03-28T08:50:33Z</time>
      </trkpt>
      <trkpt lat="36.7886650" lon="-4.4422550">
        <ele>203.9</ele>
        <time>2018-03-28T08:50:34Z</time>
      </trkpt>
      <trkpt lat="36.7886650" lon="-4.4422550">
        <ele>203.9</ele>
        <time>2018-03-28T08:50:35Z</time>
      </trkpt>
      <trkpt lat="36.7886420" lon="-4.4423300">
        <ele>203.9</ele>
        <time>2018-03-28T08:50:36Z</time>
      </trkpt>
      <trkpt lat="36.7886420" lon="-4.4423300">
        <ele>203.9</ele>
        <time>2018-03-28T08:50:37Z</time>
      </trkpt>
      <trkpt lat="36.7886170" lon="-4.4424030">
        <ele>203.9</ele>
        <time>2018-03-28T08:50:38Z</time>
      </trkpt>
      <trkpt lat="36.7886170" lon="-4.4424030">
        <ele>203.9</ele>
        <time>2018-03-28T08:50:39Z</time>
      </trkpt>
      <trkpt lat="36.7886030" lon="-4.4424900">
        <ele>204.9</ele>
        <time>2018-03-28T08:50:40Z</time>
      </trkpt>
      <trkpt lat="36.7886030" lon="-4.4424900">
        <ele>204.9</ele>
        <time>2018-03-28T08:50:41Z</time>
      </trkpt>
      <trkpt lat="36.7886020" lon="-4.4425770">
        <ele>204.9</ele>
        <time>2018-03-28T08:50:42Z</time>
      </trkpt>
      <trkpt lat="36.7886050" lon="-4.4426200">
        <ele>204.9</ele>
        <time>2018-03-28T08:50:43Z</time>
      </trkpt>
      <trkpt lat="36.7886050" lon="-4.4426200">
        <ele>204.9</ele>
        <time>2018-03-28T08:50:44Z</time>
      </trkpt>
      <trkpt lat="36.7886220" lon="-4.4427070">
        <ele>204.9</ele>
        <time>2018-03-28T08:50:45Z</time>
      </trkpt>
      <trkpt lat="36.7886220" lon="-4.4427070">
        <ele>204.9</ele>
        <time>2018-03-28T08:50:46Z</time>
      </trkpt>
      <trkpt lat="36.7886550" lon="-4.4427950">
        <ele>204.9</ele>
        <time>2018-03-28T08:50:47Z</time>
      </trkpt>
      <trkpt lat="36.7886730" lon="-4.4428370">
        <ele>204.9</ele>
        <time>2018-03-28T08:50:48Z</time>
      </trkpt>
      <trkpt lat="36.7886730" lon="-4.4428370">
        <ele>205.9</ele>
        <time>2018-03-28T08:50:49Z</time>
      </trkpt>
      <trkpt lat="36.7887130" lon="-4.4429220">
        <ele>205.9</ele>
        <time>2018-03-28T08:50:50Z</time>
      </trkpt>
      <trkpt lat="36.7887130" lon="-4.4429220">
        <ele>205.9</ele>
        <time>2018-03-28T08:50:51Z</time>
      </trkpt>
      <trkpt lat="36.7887550" lon="-4.4430000">
        <ele>205.9</ele>
        <time>2018-03-28T08:50:52Z</time>
      </trkpt>
      <trkpt lat="36.7887750" lon="-4.4430370">
        <ele>205.9</ele>
        <time>2018-03-28T08:50:53Z</time>
      </trkpt>
      <trkpt lat="36.7887750" lon="-4.4430370">
        <ele>205.9</ele>
        <time>2018-03-28T08:50:54Z</time>
      </trkpt>
      <trkpt lat="36.7888150" lon="-4.4431170">
        <ele>205.9</ele>
        <time>2018-03-28T08:50:55Z</time>
      </trkpt>
      <trkpt lat="36.7888150" lon="-4.4431170">
        <ele>205.9</ele>
        <time>2018-03-28T08:50:56Z</time>
      </trkpt>
      <trkpt lat="36.7888700" lon="-4.4431770">
        <ele>205.9</ele>
        <time>2018-03-28T08:50:57Z</time>
      </trkpt>
      <trkpt lat="36.7889070" lon="-4.4431920">
        <ele>205.9</ele>
        <time>2018-03-28T08:50:58Z</time>
      </trkpt>
      <trkpt lat="36.7889400" lon="-4.4431830">
        <ele>205.9</ele>
        <time>2018-03-28T08:50:59Z</time>
      </trkpt>
      <trkpt lat="36.7889400" lon="-4.4431830">
        <ele>205.9</ele>
        <time>2018-03-28T08:51:00Z</time>
      </trkpt>
      <trkpt lat="36.7889980" lon="-4.4431330">
        <ele>206.9</ele>
        <time>2018-03-28T08:51:01Z</time>
      </trkpt>
      <trkpt lat="36.7889980" lon="-4.4431330">
        <ele>206.9</ele>
        <time>2018-03-28T08:51:02Z</time>
      </trkpt>
      <trkpt lat="36.7890530" lon="-4.4430800">
        <ele>206.9</ele>
        <time>2018-03-28T08:51:03Z</time>
      </trkpt>
      <trkpt lat="36.7890530" lon="-4.4430800">
        <ele>206.9</ele>
        <time>2018-03-28T08:51:04Z</time>
      </trkpt>
      <trkpt lat="36.7891150" lon="-4.4430430">
        <ele>207.9</ele>
        <time>2018-03-28T08:51:05Z</time>
      </trkpt>
      <trkpt lat="36.7891500" lon="-4.4430370">
        <ele>207.9</ele>
        <time>2018-03-28T08:51:06Z</time>
      </trkpt>
      <trkpt lat="36.7891500" lon="-4.4430370">
        <ele>207.9</ele>
        <time>2018-03-28T08:51:07Z</time>
      </trkpt>
      <trkpt lat="36.7892270" lon="-4.4430500">
        <ele>207.9</ele>
        <time>2018-03-28T08:51:08Z</time>
      </trkpt>
      <trkpt lat="36.7892590" lon="-4.4430750">
        <ele>208.9</ele>
        <time>2018-03-28T08:51:09Z</time>
      </trkpt>
      <trkpt lat="36.7892900" lon="-4.4431000">
        <ele>208.9</ele>
        <time>2018-03-28T08:51:10Z</time>
      </trkpt>
      <trkpt lat="36.7892900" lon="-4.4431000">
        <ele>208.9</ele>
        <time>2018-03-28T08:51:11Z</time>
      </trkpt>
      <trkpt lat="36.7893530" lon="-4.4431600">
        <ele>208.9</ele>
        <time>2018-03-28T08:51:12Z</time>
      </trkpt>
      <trkpt lat="36.7893530" lon="-4.4431600">
        <ele>208.9</ele>
        <time>2018-03-28T08:51:13Z</time>
      </trkpt>
      <trkpt lat="36.7894020" lon="-4.4432350">
        <ele>208.9</ele>
        <time>2018-03-28T08:51:14Z</time>
      </trkpt>
      <trkpt lat="36.7894220" lon="-4.4432770">
        <ele>209.9</ele>
        <time>2018-03-28T08:51:15Z</time>
      </trkpt>
      <trkpt lat="36.7894220" lon="-4.4432770">
        <ele>209.9</ele>
        <time>2018-03-28T08:51:16Z</time>
      </trkpt>
      <trkpt lat="36.7894720" lon="-4.4433570">
        <ele>209.9</ele>
        <time>2018-03-28T08:51:17Z</time>
      </trkpt>
      <trkpt lat="36.7894980" lon="-4.4433980">
        <ele>209.9</ele>
        <time>2018-03-28T08:51:18Z</time>
      </trkpt>
      <trkpt lat="36.7894980" lon="-4.4433980">
        <ele>209.9</ele>
        <time>2018-03-28T08:51:19Z</time>
      </trkpt>
      <trkpt lat="36.7895400" lon="-4.4434920">
        <ele>209.9</ele>
        <time>2018-03-28T08:51:20Z</time>
      </trkpt>
      <trkpt lat="36.7895400" lon="-4.4434920">
        <ele>209.9</ele>
        <time>2018-03-28T08:51:21Z</time>
      </trkpt>
      <trkpt lat="36.7895750" lon="-4.4435950">
        <ele>210.9</ele>
        <time>2018-03-28T08:51:22Z</time>
      </trkpt>
      <trkpt lat="36.7895750" lon="-4.4435950">
        <ele>210.9</ele>
        <time>2018-03-28T08:51:23Z</time>
      </trkpt>
      <trkpt lat="36.7896020" lon="-4.4436980">
        <ele>210.9</ele>
        <time>2018-03-28T08:51:24Z</time>
      </trkpt>
      <trkpt lat="36.7896020" lon="-4.4436980">
        <ele>210.9</ele>
        <time>2018-03-28T08:51:25Z</time>
      </trkpt>
      <trkpt lat="36.7896270" lon="-4.4438000">
        <ele>210.9</ele>
        <time>2018-03-28T08:51:26Z</time>
      </trkpt>
      <trkpt lat="36.7896270" lon="-4.4438000">
        <ele>210.9</ele>
        <time>2018-03-28T08:51:27Z</time>
      </trkpt>
      <trkpt lat="36.7896570" lon="-4.4438980">
        <ele>211.9</ele>
        <time>2018-03-28T08:51:28Z</time>
      </trkpt>
      <trkpt lat="36.7896570" lon="-4.4438980">
        <ele>211.9</ele>
        <time>2018-03-28T08:51:29Z</time>
      </trkpt>
      <trkpt lat="36.7897130" lon="-4.4439720">
        <ele>211.9</ele>
        <time>2018-03-28T08:51:30Z</time>
      </trkpt>
      <trkpt lat="36.7897130" lon="-4.4439720">
        <ele>211.9</ele>
        <time>2018-03-28T08:51:31Z</time>
      </trkpt>
      <trkpt lat="36.7897950" lon="-4.4439970">
        <ele>211.9</ele>
        <time>2018-03-28T08:51:32Z</time>
      </trkpt>
      <trkpt lat="36.7898380" lon="-4.4439830">
        <ele>211.9</ele>
        <time>2018-03-28T08:51:33Z</time>
      </trkpt>
      <trkpt lat="36.7898380" lon="-4.4439830">
        <ele>211.9</ele>
        <time>2018-03-28T08:51:34Z</time>
      </trkpt>
      <trkpt lat="36.7899000" lon="-4.4439100">
        <ele>211.9</ele>
        <time>2018-03-28T08:51:35Z</time>
      </trkpt>
      <trkpt lat="36.7899130" lon="-4.4438570">
        <ele>211.9</ele>
        <time>2018-03-28T08:51:36Z</time>
      </trkpt>
      <trkpt lat="36.7899130" lon="-4.4438570">
        <ele>211.9</ele>
        <time>2018-03-28T08:51:37Z</time>
      </trkpt>
      <trkpt lat="36.7899320" lon="-4.4437450">
        <ele>211.9</ele>
        <time>2018-03-28T08:51:38Z</time>
      </trkpt>
      <trkpt lat="36.7899320" lon="-4.4437450">
        <ele>211.9</ele>
        <time>2018-03-28T08:51:39Z</time>
      </trkpt>
      <trkpt lat="36.7899430" lon="-4.4436330">
        <ele>211.9</ele>
        <time>2018-03-28T08:51:40Z</time>
      </trkpt>
      <trkpt lat="36.7899430" lon="-4.4436330">
        <ele>211.9</ele>
        <time>2018-03-28T08:51:41Z</time>
      </trkpt>
      <trkpt lat="36.7899220" lon="-4.4435350">
        <ele>211.9</ele>
        <time>2018-03-28T08:51:42Z</time>
      </trkpt>
      <trkpt lat="36.7899220" lon="-4.4435350">
        <ele>212.9</ele>
        <time>2018-03-28T08:51:43Z</time>
      </trkpt>
      <trkpt lat="36.7899380" lon="-4.4433930">
        <ele>212.9</ele>
        <time>2018-03-28T08:51:44Z</time>
      </trkpt>
      <trkpt lat="36.7899380" lon="-4.4433590">
        <ele>212.9</ele>
        <time>2018-03-28T08:51:45Z</time>
      </trkpt>
      <trkpt lat="36.7899390" lon="-4.4433240">
        <ele>212.9</ele>
        <time>2018-03-28T08:51:46Z</time>
      </trkpt>
      <trkpt lat="36.7899400" lon="-4.4432700">
        <ele>212.9</ele>
        <time>2018-03-28T08:51:47Z</time>
      </trkpt>
      <trkpt lat="36.7899300" lon="-4.4432180">
        <ele>213.9</ele>
        <time>2018-03-28T08:51:48Z</time>
      </trkpt>
      <trkpt lat="36.7899300" lon="-4.4432180">
        <ele>213.9</ele>
        <time>2018-03-28T08:51:49Z</time>
      </trkpt>
      <trkpt lat="36.7899180" lon="-4.4431170">
        <ele>213.9</ele>
        <time>2018-03-28T08:51:50Z</time>
      </trkpt>
      <trkpt lat="36.7899180" lon="-4.4431170">
        <ele>213.9</ele>
        <time>2018-03-28T08:51:51Z</time>
      </trkpt>
      <trkpt lat="36.7899170" lon="-4.4430180">
        <ele>214.9</ele>
        <time>2018-03-28T08:51:52Z</time>
      </trkpt>
      <trkpt lat="36.7899170" lon="-4.4430180">
        <ele>214.9</ele>
        <time>2018-03-28T08:51:53Z</time>
      </trkpt>
      <trkpt lat="36.7899450" lon="-4.4429250">
        <ele>214.9</ele>
        <time>2018-03-28T08:51:54Z</time>
      </trkpt>
      <trkpt lat="36.7899450" lon="-4.4429250">
        <ele>214.9</ele>
        <time>2018-03-28T08:51:55Z</time>
      </trkpt>
      <trkpt lat="36.7900030" lon="-4.4428580">
        <ele>214.9</ele>
        <time>2018-03-28T08:51:56Z</time>
      </trkpt>
      <trkpt lat="36.7900030" lon="-4.4428580">
        <ele>214.9</ele>
        <time>2018-03-28T08:51:57Z</time>
      </trkpt>
      <trkpt lat="36.7900730" lon="-4.4428020">
        <ele>214.9</ele>
        <time>2018-03-28T08:51:58Z</time>
      </trkpt>
      <trkpt lat="36.7900730" lon="-4.4428020">
        <ele>214.9</ele>
        <time>2018-03-28T08:51:59Z</time>
      </trkpt>
      <trkpt lat="36.7901500" lon="-4.4427520">
        <ele>214.9</ele>
        <time>2018-03-28T08:52:00Z</time>
      </trkpt>
      <trkpt lat="36.7901500" lon="-4.4427520">
        <ele>214.9</ele>
        <time>2018-03-28T08:52:01Z</time>
      </trkpt>
      <trkpt lat="36.7902300" lon="-4.4427120">
        <ele>214.9</ele>
        <time>2018-03-28T08:52:02Z</time>
      </trkpt>
      <trkpt lat="36.7902300" lon="-4.4427120">
        <ele>214.9</ele>
        <time>2018-03-28T08:52:03Z</time>
      </trkpt>
      <trkpt lat="36.7903200" lon="-4.4427080">
        <ele>214.9</ele>
        <time>2018-03-28T08:52:04Z</time>
      </trkpt>
      <trkpt lat="36.7903200" lon="-4.4427080">
        <ele>214.9</ele>
        <time>2018-03-28T08:52:05Z</time>
      </trkpt>
      <trkpt lat="36.7904170" lon="-4.4427130">
        <ele>214.9</ele>
        <time>2018-03-28T08:52:06Z</time>
      </trkpt>
      <trkpt lat="36.7904650" lon="-4.4427180">
        <ele>214.9</ele>
        <time>2018-03-28T08:52:07Z</time>
      </trkpt>
      <trkpt lat="36.7904650" lon="-4.4427180">
        <ele>214.9</ele>
        <time>2018-03-28T08:52:08Z</time>
      </trkpt>
      <trkpt lat="36.7905570" lon="-4.4426970">
        <ele>214.9</ele>
        <time>2018-03-28T08:52:09Z</time>
      </trkpt>
      <trkpt lat="36.7905950" lon="-4.4426620">
        <ele>214.9</ele>
        <time>2018-03-28T08:52:10Z</time>
      </trkpt>
      <trkpt lat="36.7905950" lon="-4.4426620">
        <ele>214.9</ele>
        <time>2018-03-28T08:52:11Z</time>
      </trkpt>
      <trkpt lat="36.7906350" lon="-4.4425630">
        <ele>214.9</ele>
        <time>2018-03-28T08:52:12Z</time>
      </trkpt>
      <trkpt lat="36.7906350" lon="-4.4425630">
        <ele>214.9</ele>
        <time>2018-03-28T08:52:13Z</time>
      </trkpt>
      <trkpt lat="36.7906620" lon="-4.4424470">
        <ele>214.9</ele>
        <time>2018-03-28T08:52:14Z</time>
      </trkpt>
      <trkpt lat="36.7906620" lon="-4.4423880">
        <ele>214.9</ele>
        <time>2018-03-28T08:52:15Z</time>
      </trkpt>
      <trkpt lat="36.7906620" lon="-4.4423880">
        <ele>214.9</ele>
        <time>2018-03-28T08:52:16Z</time>
      </trkpt>
      <trkpt lat="36.7906330" lon="-4.4422830">
        <ele>214.9</ele>
        <time>2018-03-28T08:52:17Z</time>
      </trkpt>
      <trkpt lat="36.7905860" lon="-4.4422270">
        <ele>214.9</ele>
        <time>2018-03-28T08:52:18Z</time>
      </trkpt>
      <trkpt lat="36.7905700" lon="-4.4422110">
        <ele>215.9</ele>
        <time>2018-03-28T08:52:19Z</time>
      </trkpt>
      <trkpt lat="36.7905370" lon="-4.4421800">
        <ele>215.9</ele>
        <time>2018-03-28T08:52:20Z</time>
      </trkpt>
      <trkpt lat="36.7905370" lon="-4.4421800">
        <ele>215.9</ele>
        <time>2018-03-28T08:52:21Z</time>
      </trkpt>
      <trkpt lat="36.7904780" lon="-4.4421300">
        <ele>215.9</ele>
        <time>2018-03-28T08:52:22Z</time>
      </trkpt>
      <trkpt lat="36.7904780" lon="-4.4421300">
        <ele>216.9</ele>
        <time>2018-03-28T08:52:23Z</time>
      </trkpt>
      <trkpt lat="36.7903990" lon="-4.4420710">
        <ele>216.9</ele>
        <time>2018-03-28T08:52:24Z</time>
      </trkpt>
      <trkpt lat="36.7903830" lon="-4.4420600">
        <ele>216.9</ele>
        <time>2018-03-28T08:52:25Z</time>
      </trkpt>
      <trkpt lat="36.7903500" lon="-4.4420370">
        <ele>216.9</ele>
        <time>2018-03-28T08:52:26Z</time>
      </trkpt>
      <trkpt lat="36.7903200" lon="-4.4420130">
        <ele>217.9</ele>
        <time>2018-03-28T08:52:27Z</time>
      </trkpt>
      <trkpt lat="36.7902980" lon="-4.4419960">
        <ele>217.9</ele>
        <time>2018-03-28T08:52:28Z</time>
      </trkpt>
      <trkpt lat="36.7902750" lon="-4.4419790">
        <ele>217.9</ele>
        <time>2018-03-28T08:52:29Z</time>
      </trkpt>
      <trkpt lat="36.7902300" lon="-4.4419450">
        <ele>217.9</ele>
        <time>2018-03-28T08:52:30Z</time>
      </trkpt>
      <trkpt lat="36.7902300" lon="-4.4419450">
        <ele>217.9</ele>
        <time>2018-03-28T08:52:31Z</time>
      </trkpt>
      <trkpt lat="36.7901750" lon="-4.4418970">
        <ele>217.9</ele>
        <time>2018-03-28T08:52:32Z</time>
      </trkpt>
      <trkpt lat="36.7901750" lon="-4.4418970">
        <ele>217.9</ele>
        <time>2018-03-28T08:52:33Z</time>
      </trkpt>
      <trkpt lat="36.7901300" lon="-4.4418400">
        <ele>217.9</ele>
        <time>2018-03-28T08:52:34Z</time>
      </trkpt>
      <trkpt lat="36.7901300" lon="-4.4418400">
        <ele>217.9</ele>
        <time>2018-03-28T08:52:35Z</time>
      </trkpt>
      <trkpt lat="36.7900980" lon="-4.4417670">
        <ele>217.9</ele>
        <time>2018-03-28T08:52:36Z</time>
      </trkpt>
      <trkpt lat="36.7900980" lon="-4.4417670">
        <ele>217.9</ele>
        <time>2018-03-28T08:52:37Z</time>
      </trkpt>
      <trkpt lat="36.7900830" lon="-4.4416850">
        <ele>217.9</ele>
        <time>2018-03-28T08:52:38Z</time>
      </trkpt>
      <trkpt lat="36.7900830" lon="-4.4416850">
        <ele>218.9</ele>
        <time>2018-03-28T08:52:39Z</time>
      </trkpt>
      <trkpt lat="36.7900870" lon="-4.4416050">
        <ele>218.9</ele>
        <time>2018-03-28T08:52:40Z</time>
      </trkpt>
      <trkpt lat="36.7900870" lon="-4.4416050">
        <ele>218.9</ele>
        <time>2018-03-28T08:52:41Z</time>
      </trkpt>
      <trkpt lat="36.7900920" lon="-4.4415250">
        <ele>218.9</ele>
        <time>2018-03-28T08:52:42Z</time>
      </trkpt>
      <trkpt lat="36.7900920" lon="-4.4415250">
        <ele>218.9</ele>
        <time>2018-03-28T08:52:43Z</time>
      </trkpt>
      <trkpt lat="36.7900880" lon="-4.4414330">
        <ele>218.9</ele>
        <time>2018-03-28T08:52:44Z</time>
      </trkpt>
      <trkpt lat="36.7900910" lon="-4.4414130">
        <ele>219.9</ele>
        <time>2018-03-28T08:52:45Z</time>
      </trkpt>
      <trkpt lat="36.7900970" lon="-4.4413730">
        <ele>219.9</ele>
        <time>2018-03-28T08:52:46Z</time>
      </trkpt>
      <trkpt lat="36.7901000" lon="-4.4413330">
        <ele>219.9</ele>
        <time>2018-03-28T08:52:47Z</time>
      </trkpt>
      <trkpt lat="36.7901170" lon="-4.4412970">
        <ele>219.9</ele>
        <time>2018-03-28T08:52:48Z</time>
      </trkpt>
      <trkpt lat="36.7987450" lon="-4.4427630">
        <ele>304.9</ele>
        <time>2018-03-28T09:01:31Z</time>
      </trkpt>
      <trkpt lat="36.7987620" lon="-4.4428120">
        <ele>304.9</ele>
        <time>2018-03-28T09:01:33Z</time>
      </trkpt>
      <trkpt lat="36.7987790" lon="-4.4428610">
        <ele>304.9</ele>
        <time>2018-03-28T09:01:34Z</time>
      </trkpt>
      <trkpt lat="36.7987960" lon="-4.4429100">
        <ele>304.9</ele>
        <time>2018-03-28T09:01:35Z</time>
      </trkpt>
      <trkpt lat="36.7988020" lon="-4.4429250">
        <ele>304.9</ele>
        <time>2018-03-28T09:01:36Z</time>
      </trkpt>
      <trkpt lat="36.7988230" lon="-4.4429920">
        <ele>304.9</ele>
        <time>2018-03-28T09:01:37Z</time>
      </trkpt>
      <trkpt lat="36.7988300" lon="-4.4430070">
        <ele>304.9</ele>
        <time>2018-03-28T09:01:38Z</time>
      </trkpt>
      <trkpt lat="36.7988370" lon="-4.4430230">
        <ele>304.9</ele>
        <time>2018-03-28T09:01:39Z</time>
      </trkpt>
      <trkpt lat="36.7988500" lon="-4.4430550">
        <ele>304.9</ele>
        <time>2018-03-28T09:01:40Z</time>
      </trkpt>
      <trkpt lat="36.7988830" lon="-4.4431150">
        <ele>305.9</ele>
        <time>2018-03-28T09:01:41Z</time>
      </trkpt>
      <trkpt lat="36.7989050" lon="-4.4431400">
        <ele>305.9</ele>
        <time>2018-03-28T09:01:42Z</time>
      </trkpt>
      <trkpt lat="36.7989050" lon="-4.4431400">
        <ele>305.9</ele>
        <time>2018-03-28T09:01:43Z</time>
      </trkpt>
      <trkpt lat="36.7989470" lon="-4.4431930">
        <ele>305.9</ele>
        <time>2018-03-28T09:01:44Z</time>
      </trkpt>
      <trkpt lat="36.7989650" lon="-4.4432200">
        <ele>305.9</ele>
        <time>2018-03-28T09:01:45Z</time>
      </trkpt>
      <trkpt lat="36.7989800" lon="-4.4432400">
        <ele>305.9</ele>
        <time>2018-03-28T09:01:46Z</time>
      </trkpt>
      <trkpt lat="36.7989940" lon="-4.4432610">
        <ele>306.9</ele>
        <time>2018-03-28T09:01:47Z</time>
      </trkpt>
      <trkpt lat="36.7990220" lon="-4.4433020">
        <ele>306.9</ele>
        <time>2018-03-28T09:01:48Z</time>
      </trkpt>
      <trkpt lat="36.7990220" lon="-4.4433020">
        <ele>306.9</ele>
        <time>2018-03-28T09:01:49Z</time>
      </trkpt>
      <trkpt lat="36.7990500" lon="-4.4433650">
        <ele>306.9</ele>
        <time>2018-03-28T09:01:50Z</time>
      </trkpt>
      <trkpt lat="36.7990500" lon="-4.4433650">
        <ele>307.9</ele>
        <time>2018-03-28T09:01:51Z</time>
      </trkpt>
      <trkpt lat="36.7990800" lon="-4.4434490">
        <ele>307.9</ele>
        <time>2018-03-28T09:01:52Z</time>
      </trkpt>
      <trkpt lat="36.7990840" lon="-4.4434660">
        <ele>307.9</ele>
        <time>2018-03-28T09:01:53Z</time>
      </trkpt>
      <trkpt lat="36.7990930" lon="-4.4435000">
        <ele>307.9</ele>
        <time>2018-03-28T09:01:54Z</time>
      </trkpt>
      <trkpt lat="36.7990930" lon="-4.4435000">
        <ele>307.9</ele>
        <time>2018-03-28T09:01:55Z</time>
      </trkpt>
      <trkpt lat="36.7991070" lon="-4.4435650">
        <ele>307.9</ele>
        <time>2018-03-28T09:01:56Z</time>
      </trkpt>
      <trkpt lat="36.7991070" lon="-4.4435650">
        <ele>308.9</ele>
        <time>2018-03-28T09:01:57Z</time>
      </trkpt>
      <trkpt lat="36.7991150" lon="-4.4436430">
        <ele>308.9</ele>
        <time>2018-03-28T09:01:58Z</time>
      </trkpt>
      <trkpt lat="36.7991190" lon="-4.4436810">
        <ele>308.9</ele>
        <time>2018-03-28T09:01:59Z</time>
      </trkpt>
      <trkpt lat="36.7991230" lon="-4.4437200">
        <ele>308.9</ele>
        <time>2018-03-28T09:02:00Z</time>
      </trkpt>
      <trkpt lat="36.7991230" lon="-4.4437200">
        <ele>309.9</ele>
        <time>2018-03-28T09:02:01Z</time>
      </trkpt>
      <trkpt lat="36.7991300" lon="-4.4437980">
        <ele>309.9</ele>
        <time>2018-03-28T09:02:02Z</time>
      </trkpt>
      <trkpt lat="36.7991340" lon="-4.4438550">
        <ele>309.9</ele>
        <time>2018-03-28T09:02:03Z</time>
      </trkpt>
      <trkpt lat="36.7991350" lon="-4.4438730">
        <ele>310.9</ele>
        <time>2018-03-28T09:02:04Z</time>
      </trkpt>
      <trkpt lat="36.7991370" lon="-4.4439100">
        <ele>310.9</ele>
        <time>2018-03-28T09:02:05Z</time>
      </trkpt>
      <trkpt lat="36.7991370" lon="-4.4439430">
        <ele>310.9</ele>
        <time>2018-03-28T09:02:06Z</time>
      </trkpt>
      <trkpt lat="36.7991430" lon="-4.4439680">
        <ele>310.9</ele>
        <time>2018-03-28T09:02:07Z</time>
      </trkpt>
      <trkpt lat="36.7991490" lon="-4.4439930">
        <ele>311.9</ele>
        <time>2018-03-28T09:02:08Z</time>
      </trkpt>
      <trkpt lat="36.7991600" lon="-4.4440430">
        <ele>311.9</ele>
        <time>2018-03-28T09:02:09Z</time>
      </trkpt>
      <trkpt lat="36.7991780" lon="-4.4440610">
        <ele>311.9</ele>
        <time>2018-03-28T09:02:10Z</time>
      </trkpt>
      <trkpt lat="36.7991950" lon="-4.4440790">
        <ele>311.9</ele>
        <time>2018-03-28T09:02:11Z</time>
      </trkpt>
      <trkpt lat="36.7992300" lon="-4.4441150">
        <ele>311.9</ele>
        <time>2018-03-28T09:02:12Z</time>
      </trkpt>
      <trkpt lat="36.7992300" lon="-4.4441150">
        <ele>311.9</ele>
        <time>2018-03-28T09:02:13Z</time>
      </trkpt>
      <trkpt lat="36.7992920" lon="-4.4441220">
        <ele>312.9</ele>
        <time>2018-03-28T09:02:14Z</time>
      </trkpt>
      <trkpt lat="36.7992920" lon="-4.4441220">
        <ele>312.9</ele>
        <time>2018-03-28T09:02:15Z</time>
      </trkpt>
      <trkpt lat="36.7993520" lon="-4.4440920">
        <ele>312.9</ele>
        <time>2018-03-28T09:02:16Z</time>
      </trkpt>
      <trkpt lat="36.7993520" lon="-4.4440920">
        <ele>312.9</ele>
        <time>2018-03-28T09:02:17Z</time>
      </trkpt>
      <trkpt lat="36.7994070" lon="-4.4440470">
        <ele>312.9</ele>
        <time>2018-03-28T09:02:18Z</time>
      </trkpt>
      <trkpt lat="36.7994330" lon="-4.4440230">
        <ele>312.9</ele>
        <time>2018-03-28T09:02:19Z</time>
      </trkpt>
      <trkpt lat="36.7994580" lon="-4.4439980">
        <ele>312.9</ele>
        <time>2018-03-28T09:02:20Z</time>
      </trkpt>
      <trkpt lat="36.7994580" lon="-4.4439980">
        <ele>312.9</ele>
        <time>2018-03-28T09:02:21Z</time>
      </trkpt>
      <trkpt lat="36.7995210" lon="-4.4439440">
        <ele>312.9</ele>
        <time>2018-03-28T09:02:22Z</time>
      </trkpt>
      <trkpt lat="36.7995330" lon="-4.4439320">
        <ele>312.9</ele>
        <time>2018-03-28T09:02:23Z</time>
      </trkpt>
      <trkpt lat="36.7995570" lon="-4.4439080">
        <ele>313.9</ele>
        <time>2018-03-28T09:02:24Z</time>
      </trkpt>
      <trkpt lat="36.7995570" lon="-4.4439080">
        <ele>313.9</ele>
        <time>2018-03-28T09:02:25Z</time>
      </trkpt>
      <trkpt lat="36.7996120" lon="-4.4438620">
        <ele>313.9</ele>
        <time>2018-03-28T09:02:26Z</time>
      </trkpt>
      <trkpt lat="36.7996400" lon="-4.4438400">
        <ele>313.9</ele>
        <time>2018-03-28T09:02:27Z</time>
      </trkpt>
      <trkpt lat="36.7996400" lon="-4.4438400">
        <ele>313.9</ele>
        <time>2018-03-28T09:02:28Z</time>
      </trkpt>
      <trkpt lat="36.7996880" lon="-4.4438030">
        <ele>314.9</ele>
        <time>2018-03-28T09:02:29Z</time>
      </trkpt>
      <trkpt lat="36.7997360" lon="-4.4437820">
        <ele>314.9</ele>
        <time>2018-03-28T09:02:30Z</time>
      </trkpt>
      <trkpt lat="36.7997520" lon="-4.4437740">
        <ele>314.9</ele>
        <time>2018-03-28T09:02:31Z</time>
      </trkpt>
      <trkpt lat="36.7997830" lon="-4.4437580">
        <ele>314.9</ele>
        <time>2018-03-28T09:02:32Z</time>
      </trkpt>
      <trkpt lat="36.7997830" lon="-4.4437580">
        <ele>314.9</ele>
        <time>2018-03-28T09:02:33Z</time>
      </trkpt>
      <trkpt lat="36.7998320" lon="-4.4437280">
        <ele>314.9</ele>
        <time>2018-03-28T09:02:34Z</time>
      </trkpt>
      <trkpt lat="36.7998320" lon="-4.4437280">
        <ele>314.9</ele>
        <time>2018-03-28T09:02:35Z</time>
      </trkpt>
      <trkpt lat="36.7998850" lon="-4.4436980">
        <ele>314.9</ele>
        <time>2018-03-28T09:02:36Z</time>
      </trkpt>
      <trkpt lat="36.7998850" lon="-4.4436980">
        <ele>315.9</ele>
        <time>2018-03-28T09:02:37Z</time>
      </trkpt>
      <trkpt lat="36.7999380" lon="-4.4436680">
        <ele>315.9</ele>
        <time>2018-03-28T09:02:38Z</time>
      </trkpt>
      <trkpt lat="36.7999380" lon="-4.4436680">
        <ele>315.9</ele>
        <time>2018-03-28T09:02:39Z</time>
      </trkpt>
      <trkpt lat="36.7999930" lon="-4.4436430">
        <ele>315.9</ele>
        <time>2018-03-28T09:02:40Z</time>
      </trkpt>
      <trkpt lat="36.7999930" lon="-4.4436430">
        <ele>315.9</ele>
        <time>2018-03-28T09:02:41Z</time>
      </trkpt>
      <trkpt lat="36.8000500" lon="-4.4436450">
        <ele>315.9</ele>
        <time>2018-03-28T09:02:42Z</time>
      </trkpt>
      <trkpt lat="36.8000790" lon="-4.4436560">
        <ele>315.9</ele>
        <time>2018-03-28T09:02:43Z</time>
      </trkpt>
      <trkpt lat="36.8001070" lon="-4.4436670">
        <ele>315.9</ele>
        <time>2018-03-28T09:02:44Z</time>
      </trkpt>
      <trkpt lat="36.8001350" lon="-4.4436850">
        <ele>316.9</ele>
        <time>2018-03-28T09:02:45Z</time>
      </trkpt>
      <trkpt lat="36.8001350" lon="-4.4436850">
        <ele>316.9</ele>
        <time>2018-03-28T09:02:46Z</time>
      </trkpt>
      <trkpt lat="36.8001870" lon="-4.4437380">
        <ele>316.9</ele>
        <time>2018-03-28T09:02:47Z</time>
      </trkpt>
      <trkpt lat="36.8002070" lon="-4.4437680">
        <ele>316.9</ele>
        <time>2018-03-28T09:02:48Z</time>
      </trkpt>
      <trkpt lat="36.8002070" lon="-4.4437680">
        <ele>316.9</ele>
        <time>2018-03-28T09:02:49Z</time>
      </trkpt>
      <trkpt lat="36.8002400" lon="-4.4438380">
        <ele>316.9</ele>
        <time>2018-03-28T09:02:50Z</time>
      </trkpt>
      <trkpt lat="36.8002400" lon="-4.4438380">
        <ele>316.9</ele>
        <time>2018-03-28T09:02:51Z</time>
      </trkpt>
      <trkpt lat="36.8002650" lon="-4.4439130">
        <ele>316.9</ele>
        <time>2018-03-28T09:02:52Z</time>
      </trkpt>
      <trkpt lat="36.8002650" lon="-4.4439130">
        <ele>316.9</ele>
        <time>2018-03-28T09:02:53Z</time>
      </trkpt>
      <trkpt lat="36.8002820" lon="-4.4440000">
        <ele>316.9</ele>
        <time>2018-03-28T09:02:54Z</time>
      </trkpt>
      <trkpt lat="36.8002920" lon="-4.4440410">
        <ele>317.9</ele>
        <time>2018-03-28T09:02:55Z</time>
      </trkpt>
      <trkpt lat="36.8003020" lon="-4.4440830">
        <ele>317.9</ele>
        <time>2018-03-28T09:02:56Z</time>
      </trkpt>
      <trkpt lat="36.8003020" lon="-4.4440830">
        <ele>317.9</ele>
        <time>2018-03-28T09:02:57Z</time>
      </trkpt>
      <trkpt lat="36.8003220" lon="-4.4441620">
        <ele>317.9</ele>
        <time>2018-03-28T09:02:58Z</time>
      </trkpt>
      <trkpt lat="36.8003220" lon="-4.4441620">
        <ele>317.9</ele>
        <time>2018-03-28T09:02:59Z</time>
      </trkpt>
      <trkpt lat="36.8003400" lon="-4.4442400">
        <ele>318.9</ele>
        <time>2018-03-28T09:03:00Z</time>
      </trkpt>
      <trkpt lat="36.8003520" lon="-4.4442800">
        <ele>318.9</ele>
        <time>2018-03-28T09:03:01Z</time>
      </trkpt>
      <trkpt lat="36.8003620" lon="-4.4443200">
        <ele>318.9</ele>
        <time>2018-03-28T09:03:02Z</time>
      </trkpt>
      <trkpt lat="36.8003720" lon="-4.4443600">
        <ele>318.9</ele>
        <time>2018-03-28T09:03:03Z</time>
      </trkpt>
      <trkpt lat="36.8003820" lon="-4.4444000">
        <ele>318.9</ele>
        <time>2018-03-28T09:03:04Z</time>
      </trkpt>
      <trkpt lat="36.8003820" lon="-4.4444000">
        <ele>318.9</ele>
        <time>2018-03-28T09:03:05Z</time>
      </trkpt>
      <trkpt lat="36.8004130" lon="-4.4444730">
        <ele>319.9</ele>
        <time>2018-03-28T09:03:06Z</time>
      </trkpt>
      <trkpt lat="36.8004130" lon="-4.4444730">
        <ele>319.9</ele>
        <time>2018-03-28T09:03:07Z</time>
      </trkpt>
      <trkpt lat="36.8004630" lon="-4.4445330">
        <ele>319.9</ele>
        <time>2018-03-28T09:03:08Z</time>
      </trkpt>
      <trkpt lat="36.8004900" lon="-4.4445600">
        <ele>319.9</ele>
        <time>2018-03-28T09:03:09Z</time>
      </trkpt>
      <trkpt lat="36.8005190" lon="-4.4445840">
        <ele>320.9</ele>
        <time>2018-03-28T09:03:10Z</time>
      </trkpt>
      <trkpt lat="36.8005470" lon="-4.4446080">
        <ele>320.9</ele>
        <time>2018-03-28T09:03:11Z</time>
      </trkpt>
      <trkpt lat="36.8005770" lon="-4.4446320">
        <ele>320.9</ele>
        <time>2018-03-28T09:03:12Z</time>
      </trkpt>
      <trkpt lat="36.8005770" lon="-4.4446320">
        <ele>320.9</ele>
        <time>2018-03-28T09:03:13Z</time>
      </trkpt>
      <trkpt lat="36.8006400" lon="-4.4446700">
        <ele>320.9</ele>
        <time>2018-03-28T09:03:14Z</time>
      </trkpt>
      <trkpt lat="36.8006400" lon="-4.4446700">
        <ele>320.9</ele>
        <time>2018-03-28T09:03:15Z</time>
      </trkpt>
      <trkpt lat="36.8007020" lon="-4.4447070">
        <ele>320.9</ele>
        <time>2018-03-28T09:03:16Z</time>
      </trkpt>
      <trkpt lat="36.8007190" lon="-4.4447160">
        <ele>320.9</ele>
        <time>2018-03-28T09:03:17Z</time>
      </trkpt>
      <trkpt lat="36.8007350" lon="-4.4447250">
        <ele>320.9</ele>
        <time>2018-03-28T09:03:18Z</time>
      </trkpt>
      <trkpt lat="36.8007670" lon="-4.4447430">
        <ele>320.9</ele>
        <time>2018-03-28T09:03:19Z</time>
      </trkpt>
      <trkpt lat="36.8008270" lon="-4.4447920">
        <ele>320.9</ele>
        <time>2018-03-28T09:03:20Z</time>
      </trkpt>
      <trkpt lat="36.8008270" lon="-4.4447920">
        <ele>320.9</ele>
        <time>2018-03-28T09:03:21Z</time>
      </trkpt>
      <trkpt lat="36.8008730" lon="-4.4448570">
        <ele>320.9</ele>
        <time>2018-03-28T09:03:22Z</time>
      </trkpt>
      <trkpt lat="36.8008810" lon="-4.4448890">
        <ele>320.9</ele>
        <time>2018-03-28T09:03:23Z</time>
      </trkpt>
      <trkpt lat="36.8008880" lon="-4.4449220">
        <ele>320.9</ele>
        <time>2018-03-28T09:03:24Z</time>
      </trkpt>
      <trkpt lat="36.8009030" lon="-4.4450110">
        <ele>320.9</ele>
        <time>2018-03-28T09:03:25Z</time>
      </trkpt>
      <trkpt lat="36.8009030" lon="-4.4450330">
        <ele>320.9</ele>
        <time>2018-03-28T09:03:26Z</time>
      </trkpt>
      <trkpt lat="36.8009030" lon="-4.4450780">
        <ele>320.9</ele>
        <time>2018-03-28T09:03:27Z</time>
      </trkpt>
      <trkpt lat="36.8009030" lon="-4.4451120">
        <ele>320.9</ele>
        <time>2018-03-28T09:03:28Z</time>
      </trkpt>
      <trkpt lat="36.8009020" lon="-4.4451450">
        <ele>320.9</ele>
        <time>2018-03-28T09:03:29Z</time>
      </trkpt>
      <trkpt lat="36.8009000" lon="-4.4452120">
        <ele>321.9</ele>
        <time>2018-03-28T09:03:30Z</time>
      </trkpt>
      <trkpt lat="36.8009000" lon="-4.4452120">
        <ele>321.9</ele>
        <time>2018-03-28T09:03:31Z</time>
      </trkpt>
      <trkpt lat="36.8009020" lon="-4.4453070">
        <ele>321.9</ele>
        <time>2018-03-28T09:03:32Z</time>
      </trkpt>
      <trkpt lat="36.8009000" lon="-4.4453550">
        <ele>321.9</ele>
        <time>2018-03-28T09:03:33Z</time>
      </trkpt>
      <trkpt lat="36.8008970" lon="-4.4454030">
        <ele>321.9</ele>
        <time>2018-03-28T09:03:34Z</time>
      </trkpt>
      <trkpt lat="36.8008970" lon="-4.4454030">
        <ele>322.9</ele>
        <time>2018-03-28T09:03:35Z</time>
      </trkpt>
      <trkpt lat="36.8008970" lon="-4.4454970">
        <ele>322.9</ele>
        <time>2018-03-28T09:03:36Z</time>
      </trkpt>
      <trkpt lat="36.8008970" lon="-4.4454970">
        <ele>322.9</ele>
        <time>2018-03-28T09:03:37Z</time>
      </trkpt>
      <trkpt lat="36.8009120" lon="-4.4455880">
        <ele>322.9</ele>
        <time>2018-03-28T09:03:38Z</time>
      </trkpt>
      <trkpt lat="36.8009120" lon="-4.4455880">
        <ele>322.9</ele>
        <time>2018-03-28T09:03:39Z</time>
      </trkpt>
      <trkpt lat="36.8009570" lon="-4.4456580">
        <ele>322.9</ele>
        <time>2018-03-28T09:03:40Z</time>
      </trkpt>
      <trkpt lat="36.8009920" lon="-4.4456720">
        <ele>323.9</ele>
        <time>2018-03-28T09:03:41Z</time>
      </trkpt>
      <trkpt lat="36.8010270" lon="-4.4456870">
        <ele>323.9</ele>
        <time>2018-03-28T09:03:42Z</time>
      </trkpt>
      <trkpt lat="36.8010270" lon="-4.4456870">
        <ele>323.9</ele>
        <time>2018-03-28T09:03:43Z</time>
      </trkpt>
      <trkpt lat="36.8010880" lon="-4.4456720">
        <ele>323.9</ele>
        <time>2018-03-28T09:03:44Z</time>
      </trkpt>
      <trkpt lat="36.8011140" lon="-4.4456440">
        <ele>324.9</ele>
        <time>2018-03-28T09:03:45Z</time>
      </trkpt>
      <trkpt lat="36.8011400" lon="-4.4456150">
        <ele>324.9</ele>
        <time>2018-03-28T09:03:46Z</time>
      </trkpt>
      <trkpt lat="36.8011670" lon="-4.4455880">
        <ele>324.9</ele>
        <time>2018-03-28T09:03:47Z</time>
      </trkpt>
      <trkpt lat="36.8011840" lon="-4.4455800">
        <ele>324.9</ele>
        <time>2018-03-28T09:03:48Z</time>
      </trkpt>
      <trkpt lat="36.8012000" lon="-4.4455710">
        <ele>325.9</ele>
        <time>2018-03-28T09:03:49Z</time>
      </trkpt>
      <trkpt lat="36.8012320" lon="-4.4455530">
        <ele>325.9</ele>
        <time>2018-03-28T09:03:50Z</time>
      </trkpt>
      <trkpt lat="36.8013000" lon="-4.4455420">
        <ele>325.9</ele>
        <time>2018-03-28T09:03:51Z</time>
      </trkpt>
      <trkpt lat="36.8013000" lon="-4.4455420">
        <ele>325.9</ele>
        <time>2018-03-28T09:03:52Z</time>
      </trkpt>
      <trkpt lat="36.8013680" lon="-4.4455550">
        <ele>326.9</ele>
        <time>2018-03-28T09:03:53Z</time>
      </trkpt>
      <trkpt lat="36.8013980" lon="-4.4455700">
        <ele>326.9</ele>
        <time>2018-03-28T09:03:54Z</time>
      </trkpt>
      <trkpt lat="36.8014280" lon="-4.4455960">
        <ele>326.9</ele>
        <time>2018-03-28T09:03:55Z</time>
      </trkpt>
      <trkpt lat="36.8014570" lon="-4.4456220">
        <ele>326.9</ele>
        <time>2018-03-28T09:03:56Z</time>
      </trkpt>
      <trkpt lat="36.8014570" lon="-4.4456220">
        <ele>326.9</ele>
        <time>2018-03-28T09:03:57Z</time>
      </trkpt>
      <trkpt lat="36.8015020" lon="-4.4456880">
        <ele>327.9</ele>
        <time>2018-03-28T09:03:58Z</time>
      </trkpt>
      <trkpt lat="36.8015210" lon="-4.4457240">
        <ele>327.9</ele>
        <time>2018-03-28T09:03:59Z</time>
      </trkpt>
      <trkpt lat="36.8015400" lon="-4.4457600">
        <ele>327.9</ele>
        <time>2018-03-28T09:04:00Z</time>
      </trkpt>
      <trkpt lat="36.8015400" lon="-4.4457600">
        <ele>327.9</ele>
        <time>2018-03-28T09:04:01Z</time>
      </trkpt>
      <trkpt lat="36.8015650" lon="-4.4458320">
        <ele>327.9</ele>
        <time>2018-03-28T09:04:02Z</time>
      </trkpt>
      <trkpt lat="36.8015680" lon="-4.4458730">
        <ele>327.9</ele>
        <time>2018-03-28T09:04:03Z</time>
      </trkpt>
      <trkpt lat="36.8015820" lon="-4.4459130">
        <ele>328.9</ele>
        <time>2018-03-28T09:04:04Z</time>
      </trkpt>
      <trkpt lat="36.8015820" lon="-4.4459130">
        <ele>328.9</ele>
        <time>2018-03-28T09:04:05Z</time>
      </trkpt>
      <trkpt lat="36.8016070" lon="-4.4459950">
        <ele>328.9</ele>
        <time>2018-03-28T09:04:06Z</time>
      </trkpt>
      <trkpt lat="36.8016190" lon="-4.4460240">
        <ele>328.9</ele>
        <time>2018-03-28T09:04:07Z</time>
      </trkpt>
      <trkpt lat="36.8016310" lon="-4.4460540">
        <ele>329.9</ele>
        <time>2018-03-28T09:04:08Z</time>
      </trkpt>
      <trkpt lat="36.8016550" lon="-4.4461130">
        <ele>329.9</ele>
        <time>2018-03-28T09:04:09Z</time>
      </trkpt>
      <trkpt lat="36.8016780" lon="-4.4461280">
        <ele>329.9</ele>
        <time>2018-03-28T09:04:10Z</time>
      </trkpt>
      <trkpt lat="36.8017000" lon="-4.4461440">
        <ele>329.9</ele>
        <time>2018-03-28T09:04:11Z</time>
      </trkpt>
      <trkpt lat="36.8017450" lon="-4.4461750">
        <ele>329.9</ele>
        <time>2018-03-28T09:04:12Z</time>
      </trkpt>
      <trkpt lat="36.8017450" lon="-4.4461750">
        <ele>329.9</ele>
        <time>2018-03-28T09:04:13Z</time>
      </trkpt>
      <trkpt lat="36.8018120" lon="-4.4461620">
        <ele>329.9</ele>
        <time>2018-03-28T09:04:14Z</time>
      </trkpt>
      <trkpt lat="36.8018430" lon="-4.4461450">
        <ele>329.9</ele>
        <time>2018-03-28T09:04:15Z</time>
      </trkpt>
      <trkpt lat="36.8018730" lon="-4.4461280">
        <ele>330.9</ele>
        <time>2018-03-28T09:04:16Z</time>
      </trkpt>
      <trkpt lat="36.8018730" lon="-4.4461280">
        <ele>330.9</ele>
        <time>2018-03-28T09:04:17Z</time>
      </trkpt>
      <trkpt lat="36.8019370" lon="-4.4460820">
        <ele>330.9</ele>
        <time>2018-03-28T09:04:18Z</time>
      </trkpt>
      <trkpt lat="36.8019370" lon="-4.4460820">
        <ele>330.9</ele>
        <time>2018-03-28T09:04:19Z</time>
      </trkpt>
      <trkpt lat="36.8019720" lon="-4.4459900">
        <ele>331.9</ele>
        <time>2018-03-28T09:04:20Z</time>
      </trkpt>
      <trkpt lat="36.8019840" lon="-4.4459110">
        <ele>331.9</ele>
        <time>2018-03-28T09:04:21Z</time>
      </trkpt>
      <trkpt lat="36.8019850" lon="-4.4458820">
        <ele>331.9</ele>
        <time>2018-03-28T09:04:22Z</time>
      </trkpt>
      <trkpt lat="36.8019850" lon="-4.4458820">
        <ele>331.9</ele>
        <time>2018-03-28T09:04:23Z</time>
      </trkpt>
      <trkpt lat="36.8019780" lon="-4.4458000">
        <ele>331.9</ele>
        <time>2018-03-28T09:04:24Z</time>
      </trkpt>
      <trkpt lat="36.8019780" lon="-4.4458000">
        <ele>331.9</ele>
        <time>2018-03-28T09:04:25Z</time>
      </trkpt>
      <trkpt lat="36.8019650" lon="-4.4457100">
        <ele>332.9</ele>
        <time>2018-03-28T09:04:26Z</time>
      </trkpt>
      <trkpt lat="36.8019600" lon="-4.4456690">
        <ele>332.9</ele>
        <time>2018-03-28T09:04:27Z</time>
      </trkpt>
      <trkpt lat="36.8019550" lon="-4.4456280">
        <ele>332.9</ele>
        <time>2018-03-28T09:04:28Z</time>
      </trkpt>
      <trkpt lat="36.8019550" lon="-4.4456280">
        <ele>332.9</ele>
        <time>2018-03-28T09:04:29Z</time>
      </trkpt>
      <trkpt lat="36.8019390" lon="-4.4455240">
        <ele>333.9</ele>
        <time>2018-03-28T09:04:30Z</time>
      </trkpt>
      <trkpt lat="36.8019350" lon="-4.4455030">
        <ele>333.9</ele>
        <time>2018-03-28T09:04:31Z</time>
      </trkpt>
      <trkpt lat="36.8019280" lon="-4.4454620">
        <ele>334.9</ele>
        <time>2018-03-28T09:04:32Z</time>
      </trkpt>
      <trkpt lat="36.8019220" lon="-4.4454170">
        <ele>334.9</ele>
        <time>2018-03-28T09:04:33Z</time>
      </trkpt>
      <trkpt lat="36.8019180" lon="-4.4453800">
        <ele>334.9</ele>
        <time>2018-03-28T09:04:34Z</time>
      </trkpt>
      <trkpt lat="36.8019120" lon="-4.4453420">
        <ele>334.9</ele>
        <time>2018-03-28T09:04:35Z</time>
      </trkpt>
      <trkpt lat="36.8019050" lon="-4.4453050">
        <ele>335.9</ele>
        <time>2018-03-28T09:04:36Z</time>
      </trkpt>
      <trkpt lat="36.8019020" lon="-4.4452770">
        <ele>335.9</ele>
        <time>2018-03-28T09:04:37Z</time>
      </trkpt>
      <trkpt lat="36.8018980" lon="-4.4452500">
        <ele>335.9</ele>
        <time>2018-03-28T09:04:38Z</time>
      </trkpt>
      <trkpt lat="36.8018900" lon="-4.4451950">
        <ele>335.9</ele>
        <time>2018-03-28T09:04:39Z</time>
      </trkpt>
      <trkpt lat="36.8018870" lon="-4.4451560">
        <ele>335.9</ele>
        <time>2018-03-28T09:04:40Z</time>
      </trkpt>
      <trkpt lat="36.8018830" lon="-4.4451170">
        <ele>335.9</ele>
        <time>2018-03-28T09:04:41Z</time>
      </trkpt>
      <trkpt lat="36.8018830" lon="-4.4451170">
        <ele>335.9</ele>
        <time>2018-03-28T09:04:42Z</time>
      </trkpt>
      <trkpt lat="36.8018820" lon="-4.4450370">
        <ele>335.9</ele>
        <time>2018-03-28T09:04:43Z</time>
      </trkpt>
      <trkpt lat="36.8018820" lon="-4.4450370">
        <ele>335.9</ele>
        <time>2018-03-28T09:04:44Z</time>
      </trkpt>
      <trkpt lat="36.8018780" lon="-4.4449550">
        <ele>335.9</ele>
        <time>2018-03-28T09:04:45Z</time>
      </trkpt>
      <trkpt lat="36.8018780" lon="-4.4449550">
        <ele>336.9</ele>
        <time>2018-03-28T09:04:46Z</time>
      </trkpt>
      <trkpt lat="36.8018880" lon="-4.4448620">
        <ele>336.9</ele>
        <time>2018-03-28T09:04:47Z</time>
      </trkpt>
      <trkpt lat="36.8018960" lon="-4.4448200">
        <ele>336.9</ele>
        <time>2018-03-28T09:04:48Z</time>
      </trkpt>
      <trkpt lat="36.8019030" lon="-4.4447770">
        <ele>336.9</ele>
        <time>2018-03-28T09:04:49Z</time>
      </trkpt>
      <trkpt lat="36.8019130" lon="-4.4447370">
        <ele>336.9</ele>
        <time>2018-03-28T09:04:50Z</time>
      </trkpt>
      <trkpt lat="36.8019200" lon="-4.4447180">
        <ele>336.9</ele>
        <time>2018-03-28T09:04:51Z</time>
      </trkpt>
      <trkpt lat="36.8019270" lon="-4.4446990">
        <ele>337.9</ele>
        <time>2018-03-28T09:04:52Z</time>
      </trkpt>
      <trkpt lat="36.8019610" lon="-4.4446250">
        <ele>337.9</ele>
        <time>2018-03-28T09:04:53Z</time>
      </trkpt>
      <trkpt lat="36.8019820" lon="-4.4445900">
        <ele>337.9</ele>
        <time>2018-03-28T09:04:54Z</time>
      </trkpt>
      <trkpt lat="36.8019820" lon="-4.4445900">
        <ele>337.9</ele>
        <time>2018-03-28T09:04:55Z</time>
      </trkpt>
      <trkpt lat="36.8020330" lon="-4.4445320">
        <ele>337.9</ele>
        <time>2018-03-28T09:04:56Z</time>
      </trkpt>
      <trkpt lat="36.8020330" lon="-4.4445320">
        <ele>337.9</ele>
        <time>2018-03-28T09:04:57Z</time>
      </trkpt>
      <trkpt lat="36.8020880" lon="-4.4444800">
        <ele>337.9</ele>
        <time>2018-03-28T09:04:58Z</time>
      </trkpt>
      <trkpt lat="36.8020880" lon="-4.4444800">
        <ele>338.9</ele>
        <time>2018-03-28T09:04:59Z</time>
      </trkpt>
      <trkpt lat="36.8021650" lon="-4.4444290">
        <ele>338.9</ele>
        <time>2018-03-28T09:05:00Z</time>
      </trkpt>
      <trkpt lat="36.8021790" lon="-4.4444200">
        <ele>338.9</ele>
        <time>2018-03-28T09:05:01Z</time>
      </trkpt>
      <trkpt lat="36.8022080" lon="-4.4444020">
        <ele>338.9</ele>
        <time>2018-03-28T09:05:02Z</time>
      </trkpt>
      <trkpt lat="36.8022370" lon="-4.4443830">
        <ele>338.9</ele>
        <time>2018-03-28T09:05:03Z</time>
      </trkpt>
      <trkpt lat="36.8022670" lon="-4.4443680">
        <ele>338.9</ele>
        <time>2018-03-28T09:05:04Z</time>
      </trkpt>
      <trkpt lat="36.8022670" lon="-4.4443680">
        <ele>339.9</ele>
        <time>2018-03-28T09:05:05Z</time>
      </trkpt>
      <trkpt lat="36.8023280" lon="-4.4443430">
        <ele>339.9</ele>
        <time>2018-03-28T09:05:06Z</time>
      </trkpt>
      <trkpt lat="36.8023280" lon="-4.4443430">
        <ele>339.9</ele>
        <time>2018-03-28T09:05:07Z</time>
      </trkpt>
      <trkpt lat="36.8023930" lon="-4.4443250">
        <ele>339.9</ele>
        <time>2018-03-28T09:05:08Z</time>
      </trkpt>
      <trkpt lat="36.8024100" lon="-4.4443230">
        <ele>340.9</ele>
        <time>2018-03-28T09:05:09Z</time>
      </trkpt>
      <trkpt lat="36.8024260" lon="-4.4443210">
        <ele>340.9</ele>
        <time>2018-03-28T09:05:10Z</time>
      </trkpt>
      <trkpt lat="36.8024930" lon="-4.4443160">
        <ele>340.9</ele>
        <time>2018-03-28T09:05:11Z</time>
      </trkpt>
      <trkpt lat="36.8025270" lon="-4.4443150">
        <ele>340.9</ele>
        <time>2018-03-28T09:05:12Z</time>
      </trkpt>
      <trkpt lat="36.8025270" lon="-4.4443150">
        <ele>340.9</ele>
        <time>2018-03-28T09:05:13Z</time>
      </trkpt>
      <trkpt lat="36.8026080" lon="-4.4443300">
        <ele>340.9</ele>
        <time>2018-03-28T09:05:14Z</time>
      </trkpt>
      <trkpt lat="36.8026240" lon="-4.4443340">
        <ele>340.9</ele>
        <time>2018-03-28T09:05:15Z</time>
      </trkpt>
      <trkpt lat="36.8026400" lon="-4.4443370">
        <ele>340.9</ele>
        <time>2018-03-28T09:05:16Z</time>
      </trkpt>
      <trkpt lat="36.8026870" lon="-4.4443480">
        <ele>341.9</ele>
        <time>2018-03-28T09:05:17Z</time>
      </trkpt>
      <trkpt lat="36.8026870" lon="-4.4443480">
        <ele>341.9</ele>
        <time>2018-03-28T09:05:18Z</time>
      </trkpt>
      <trkpt lat="36.8027530" lon="-4.4443720">
        <ele>341.9</ele>
        <time>2018-03-28T09:05:19Z</time>
      </trkpt>
      <trkpt lat="36.8027830" lon="-4.4443850">
        <ele>341.9</ele>
        <time>2018-03-28T09:05:20Z</time>
      </trkpt>
      <trkpt lat="36.8028150" lon="-4.4443950">
        <ele>342.9</ele>
        <time>2018-03-28T09:05:21Z</time>
      </trkpt>
      <trkpt lat="36.8028440" lon="-4.4443980">
        <ele>342.9</ele>
        <time>2018-03-28T09:05:22Z</time>
      </trkpt>
      <trkpt lat="36.8028720" lon="-4.4444020">
        <ele>342.9</ele>
        <time>2018-03-28T09:05:23Z</time>
      </trkpt>
      <trkpt lat="36.8028980" lon="-4.4443880">
        <ele>342.9</ele>
        <time>2018-03-28T09:05:24Z</time>
      </trkpt>
      <trkpt lat="36.8029230" lon="-4.4443630">
        <ele>342.9</ele>
        <time>2018-03-28T09:05:25Z</time>
      </trkpt>
      <trkpt lat="36.8029450" lon="-4.4443300">
        <ele>342.9</ele>
        <time>2018-03-28T09:05:26Z</time>
      </trkpt>
      <trkpt lat="36.8029450" lon="-4.4443300">
        <ele>343.9</ele>
        <time>2018-03-28T09:05:27Z</time>
      </trkpt>
      <trkpt lat="36.8029730" lon="-4.4442520">
        <ele>343.9</ele>
        <time>2018-03-28T09:05:28Z</time>
      </trkpt>
      <trkpt lat="36.8029780" lon="-4.4442300">
        <ele>343.9</ele>
        <time>2018-03-28T09:05:29Z</time>
      </trkpt>
      <trkpt lat="36.8029830" lon="-4.4442080">
        <ele>343.9</ele>
        <time>2018-03-28T09:05:30Z</time>
      </trkpt>
      <trkpt lat="36.8029930" lon="-4.4441630">
        <ele>343.9</ele>
        <time>2018-03-28T09:05:31Z</time>
      </trkpt>
      <trkpt lat="36.8030130" lon="-4.4440720">
        <ele>343.9</ele>
        <time>2018-03-28T09:05:32Z</time>
      </trkpt>
      <trkpt lat="36.8030230" lon="-4.4440280">
        <ele>343.9</ele>
        <time>2018-03-28T09:05:33Z</time>
      </trkpt>
      <trkpt lat="36.8030350" lon="-4.4439880">
        <ele>344.9</ele>
        <time>2018-03-28T09:05:34Z</time>
      </trkpt>
      <trkpt lat="36.8030540" lon="-4.4439540">
        <ele>344.9</ele>
        <time>2018-03-28T09:05:35Z</time>
      </trkpt>
      <trkpt lat="36.8030730" lon="-4.4439200">
        <ele>344.9</ele>
        <time>2018-03-28T09:05:36Z</time>
      </trkpt>
      <trkpt lat="36.8030980" lon="-4.4438920">
        <ele>344.9</ele>
        <time>2018-03-28T09:05:37Z</time>
      </trkpt>
      <trkpt lat="36.8030980" lon="-4.4438920">
        <ele>345.9</ele>
        <time>2018-03-28T09:05:38Z</time>
      </trkpt>
      <trkpt lat="36.8031520" lon="-4.4438400">
        <ele>345.9</ele>
        <time>2018-03-28T09:05:39Z</time>
      </trkpt>
      <trkpt lat="36.8031520" lon="-4.4438400">
        <ele>345.9</ele>
        <time>2018-03-28T09:05:40Z</time>
      </trkpt>
      <trkpt lat="36.8032130" lon="-4.4437880">
        <ele>345.9</ele>
        <time>2018-03-28T09:05:41Z</time>
      </trkpt>
      <trkpt lat="36.8032470" lon="-4.4437630">
        <ele>345.9</ele>
        <time>2018-03-28T09:05:42Z</time>
      </trkpt>
      <trkpt lat="36.8032780" lon="-4.4437400">
        <ele>345.9</ele>
        <time>2018-03-28T09:05:43Z</time>
      </trkpt>
      <trkpt lat="36.8033080" lon="-4.4437180">
        <ele>345.9</ele>
        <time>2018-03-28T09:05:44Z</time>
      </trkpt>
      <trkpt lat="36.8033370" lon="-4.4436950">
        <ele>345.9</ele>
        <time>2018-03-28T09:05:45Z</time>
      </trkpt>
      <trkpt lat="36.8033370" lon="-4.4436950">
        <ele>345.9</ele>
        <time>2018-03-28T09:05:46Z</time>
      </trkpt>
      <trkpt lat="36.8033990" lon="-4.4436480">
        <ele>345.9</ele>
        <time>2018-03-28T09:05:47Z</time>
      </trkpt>
      <trkpt lat="36.8034060" lon="-4.4436430">
        <ele>345.9</ele>
        <time>2018-03-28T09:05:48Z</time>
      </trkpt>
      <trkpt lat="36.8034500" lon="-4.4436160">
        <ele>345.9</ele>
        <time>2018-03-28T09:05:49Z</time>
      </trkpt>
      <trkpt lat="36.8034800" lon="-4.4435980">
        <ele>345.9</ele>
        <time>2018-03-28T09:05:50Z</time>
      </trkpt>
      <trkpt lat="36.8034800" lon="-4.4435980">
        <ele>347.9</ele>
        <time>2018-03-28T09:05:51Z</time>
      </trkpt>
      <trkpt lat="36.8035430" lon="-4.4435780">
        <ele>347.9</ele>
        <time>2018-03-28T09:05:52Z</time>
      </trkpt>
      <trkpt lat="36.8035590" lon="-4.4435760">
        <ele>347.9</ele>
        <time>2018-03-28T09:05:53Z</time>
      </trkpt>
      <trkpt lat="36.8035740" lon="-4.4435730">
        <ele>347.9</ele>
        <time>2018-03-28T09:05:54Z</time>
      </trkpt>
      <trkpt lat="36.8036360" lon="-4.4435710">
        <ele>347.9</ele>
        <time>2018-03-28T09:05:55Z</time>
      </trkpt>
      <trkpt lat="36.8036670" lon="-4.4435750">
        <ele>347.9</ele>
        <time>2018-03-28T09:05:56Z</time>
      </trkpt>
      <trkpt lat="36.8036980" lon="-4.4435780">
        <ele>347.9</ele>
        <time>2018-03-28T09:05:57Z</time>
      </trkpt>
      <trkpt lat="36.8036980" lon="-4.4435780">
        <ele>347.9</ele>
        <time>2018-03-28T09:05:58Z</time>
      </trkpt>
      <trkpt lat="36.8037620" lon="-4.4435920">
        <ele>347.9</ele>
        <time>2018-03-28T09:05:59Z</time>
      </trkpt>
      <trkpt lat="36.8037930" lon="-4.4436000">
        <ele>347.9</ele>
        <time>2018-03-28T09:06:00Z</time>
      </trkpt>
      <trkpt lat="36.8037930" lon="-4.4436000">
        <ele>348.9</ele>
        <time>2018-03-28T09:06:01Z</time>
      </trkpt>
      <trkpt lat="36.8038430" lon="-4.4436130">
        <ele>348.9</ele>
        <time>2018-03-28T09:06:02Z</time>
      </trkpt>
      <trkpt lat="36.8038630" lon="-4.4436190">
        <ele>348.9</ele>
        <time>2018-03-28T09:06:03Z</time>
      </trkpt>
      <trkpt lat="36.8038820" lon="-4.4436250">
        <ele>348.9</ele>
        <time>2018-03-28T09:06:04Z</time>
      </trkpt>
      <trkpt lat="36.8039200" lon="-4.4436380">
        <ele>348.9</ele>
        <time>2018-03-28T09:06:05Z</time>
      </trkpt>
      <trkpt lat="36.8039200" lon="-4.4436380">
        <ele>348.9</ele>
        <time>2018-03-28T09:06:06Z</time>
      </trkpt>
      <trkpt lat="36.8039830" lon="-4.4436450">
        <ele>348.9</ele>
        <time>2018-03-28T09:06:07Z</time>
      </trkpt>
      <trkpt lat="36.8039830" lon="-4.4436450">
        <ele>348.9</ele>
        <time>2018-03-28T09:06:08Z</time>
      </trkpt>
      <trkpt lat="36.8040420" lon="-4.4436530">
        <ele>348.9</ele>
        <time>2018-03-28T09:06:09Z</time>
      </trkpt>
      <trkpt lat="36.8040420" lon="-4.4436530">
        <ele>349.9</ele>
        <time>2018-03-28T09:06:10Z</time>
      </trkpt>
      <trkpt lat="36.8041000" lon="-4.4436600">
        <ele>349.9</ele>
        <time>2018-03-28T09:06:11Z</time>
      </trkpt>
      <trkpt lat="36.8041270" lon="-4.4436630">
        <ele>349.9</ele>
        <time>2018-03-28T09:06:12Z</time>
      </trkpt>
      <trkpt lat="36.8041550" lon="-4.4436680">
        <ele>349.9</ele>
        <time>2018-03-28T09:06:13Z</time>
      </trkpt>
      <trkpt lat="36.8041820" lon="-4.4436730">
        <ele>350.9</ele>
        <time>2018-03-28T09:06:14Z</time>
      </trkpt>
      <trkpt lat="36.8041820" lon="-4.4436730">
        <ele>350.9</ele>
        <time>2018-03-28T09:06:15Z</time>
      </trkpt>
      <trkpt lat="36.8042370" lon="-4.4436850">
        <ele>350.9</ele>
        <time>2018-03-28T09:06:16Z</time>
      </trkpt>
      <trkpt lat="36.8042630" lon="-4.4436920">
        <ele>350.9</ele>
        <time>2018-03-28T09:06:17Z</time>
      </trkpt>
      <trkpt lat="36.8042870" lon="-4.4437050">
        <ele>351.9</ele>
        <time>2018-03-28T09:06:18Z</time>
      </trkpt>
      <trkpt lat="36.8042870" lon="-4.4437050">
        <ele>351.9</ele>
        <time>2018-03-28T09:06:19Z</time>
      </trkpt>
      <trkpt lat="36.8043320" lon="-4.4437480">
        <ele>351.9</ele>
        <time>2018-03-28T09:06:20Z</time>
      </trkpt>
      <trkpt lat="36.8043550" lon="-4.4437680">
        <ele>351.9</ele>
        <time>2018-03-28T09:06:21Z</time>
      </trkpt>
      <trkpt lat="36.8043550" lon="-4.4437680">
        <ele>352.9</ele>
        <time>2018-03-28T09:06:22Z</time>
      </trkpt>
      <trkpt lat="36.8043920" lon="-4.4438220">
        <ele>352.9</ele>
        <time>2018-03-28T09:06:23Z</time>
      </trkpt>
      <trkpt lat="36.8044090" lon="-4.4438500">
        <ele>352.9</ele>
        <time>2018-03-28T09:06:24Z</time>
      </trkpt>
      <trkpt lat="36.8044250" lon="-4.4438780">
        <ele>352.9</ele>
        <time>2018-03-28T09:06:25Z</time>
      </trkpt>
      <trkpt lat="36.8044250" lon="-4.4438780">
        <ele>353.9</ele>
        <time>2018-03-28T09:06:26Z</time>
      </trkpt>
      <trkpt lat="36.8044550" lon="-4.4439350">
        <ele>353.9</ele>
        <time>2018-03-28T09:06:27Z</time>
      </trkpt>
      <trkpt lat="36.8044670" lon="-4.4439630">
        <ele>353.9</ele>
        <time>2018-03-28T09:06:28Z</time>
      </trkpt>
      <trkpt lat="36.8044670" lon="-4.4439630">
        <ele>354.9</ele>
        <time>2018-03-28T09:06:29Z</time>
      </trkpt>
      <trkpt lat="36.8044900" lon="-4.4440270">
        <ele>354.9</ele>
        <time>2018-03-28T09:06:30Z</time>
      </trkpt>
      <trkpt lat="36.8045040" lon="-4.4440530">
        <ele>354.9</ele>
        <time>2018-03-28T09:06:31Z</time>
      </trkpt>
      <trkpt lat="36.8045170" lon="-4.4440800">
        <ele>354.9</ele>
        <time>2018-03-28T09:06:32Z</time>
      </trkpt>
      <trkpt lat="36.8045170" lon="-4.4440800">
        <ele>355.9</ele>
        <time>2018-03-28T09:06:33Z</time>
      </trkpt>
      <trkpt lat="36.8045470" lon="-4.4441380">
        <ele>355.9</ele>
        <time>2018-03-28T09:06:34Z</time>
      </trkpt>
      <trkpt lat="36.8045720" lon="-4.4441810">
        <ele>355.9</ele>
        <time>2018-03-28T09:06:35Z</time>
      </trkpt>
      <trkpt lat="36.8045800" lon="-4.4441950">
        <ele>355.9</ele>
        <time>2018-03-28T09:06:36Z</time>
      </trkpt>
      <trkpt lat="36.8045970" lon="-4.4442230">
        <ele>356.9</ele>
        <time>2018-03-28T09:06:37Z</time>
      </trkpt>
      <trkpt lat="36.8045970" lon="-4.4442230">
        <ele>356.9</ele>
        <time>2018-03-28T09:06:38Z</time>
      </trkpt>
      <trkpt lat="36.8046430" lon="-4.4442630">
        <ele>356.9</ele>
        <time>2018-03-28T09:06:39Z</time>
      </trkpt>
      <trkpt lat="36.8046430" lon="-4.4442630">
        <ele>356.9</ele>
        <time>2018-03-28T09:06:40Z</time>
      </trkpt>
      <trkpt lat="36.8046950" lon="-4.4442880">
        <ele>357.9</ele>
        <time>2018-03-28T09:06:41Z</time>
      </trkpt>
      <trkpt lat="36.8047230" lon="-4.4442880">
        <ele>357.9</ele>
        <time>2018-03-28T09:06:42Z</time>
      </trkpt>
      <trkpt lat="36.8047500" lon="-4.4442780">
        <ele>357.9</ele>
        <time>2018-03-28T09:06:43Z</time>
      </trkpt>
      <trkpt lat="36.8047770" lon="-4.4442680">
        <ele>357.9</ele>
        <time>2018-03-28T09:06:44Z</time>
      </trkpt>
      <trkpt lat="36.8048000" lon="-4.4442480">
        <ele>358.9</ele>
        <time>2018-03-28T09:06:45Z</time>
      </trkpt>
      <trkpt lat="36.8048220" lon="-4.4442280">
        <ele>358.9</ele>
        <time>2018-03-28T09:06:46Z</time>
      </trkpt>
      <trkpt lat="36.8048420" lon="-4.4442040">
        <ele>358.9</ele>
        <time>2018-03-28T09:06:47Z</time>
      </trkpt>
      <trkpt lat="36.8048620" lon="-4.4441800">
        <ele>358.9</ele>
        <time>2018-03-28T09:06:48Z</time>
      </trkpt>
      <trkpt lat="36.8048620" lon="-4.4441800">
        <ele>359.9</ele>
        <time>2018-03-28T09:06:49Z</time>
      </trkpt>
      <trkpt lat="36.8048950" lon="-4.4441270">
        <ele>359.9</ele>
        <time>2018-03-28T09:06:50Z</time>
      </trkpt>
      <trkpt lat="36.8049090" lon="-4.4440960">
        <ele>359.9</ele>
        <time>2018-03-28T09:06:51Z</time>
      </trkpt>
      <trkpt lat="36.8049230" lon="-4.4440650">
        <ele>359.9</ele>
        <time>2018-03-28T09:06:52Z</time>
      </trkpt>
      <trkpt lat="36.8049450" lon="-4.4440170">
        <ele>359.9</ele>
        <time>2018-03-28T09:06:53Z</time>
      </trkpt>
      <trkpt lat="36.8049520" lon="-4.4440000">
        <ele>359.9</ele>
        <time>2018-03-28T09:06:54Z</time>
      </trkpt>
      <trkpt lat="36.8049520" lon="-4.4440000">
        <ele>360.9</ele>
        <time>2018-03-28T09:06:55Z</time>
      </trkpt>
      <trkpt lat="36.8049800" lon="-4.4439330">
        <ele>360.9</ele>
        <time>2018-03-28T09:06:56Z</time>
      </trkpt>
      <trkpt lat="36.8049930" lon="-4.4439000">
        <ele>360.9</ele>
        <time>2018-03-28T09:06:57Z</time>
      </trkpt>
      <trkpt lat="36.8050050" lon="-4.4438670">
        <ele>360.9</ele>
        <time>2018-03-28T09:06:58Z</time>
      </trkpt>
      <trkpt lat="36.8050050" lon="-4.4438670">
        <ele>360.9</ele>
        <time>2018-03-28T09:06:59Z</time>
      </trkpt>
      <trkpt lat="36.8050250" lon="-4.4437980">
        <ele>361.9</ele>
        <time>2018-03-28T09:07:00Z</time>
      </trkpt>
      <trkpt lat="36.8050370" lon="-4.4437630">
        <ele>361.9</ele>
        <time>2018-03-28T09:07:01Z</time>
      </trkpt>
      <trkpt lat="36.8050480" lon="-4.4437270">
        <ele>361.9</ele>
        <time>2018-03-28T09:07:02Z</time>
      </trkpt>
      <trkpt lat="36.8050600" lon="-4.4436900">
        <ele>361.9</ele>
        <time>2018-03-28T09:07:03Z</time>
      </trkpt>
      <trkpt lat="36.8050690" lon="-4.4436640">
        <ele>361.9</ele>
        <time>2018-03-28T09:07:04Z</time>
      </trkpt>
      <trkpt lat="36.8050770" lon="-4.4436380">
        <ele>361.9</ele>
        <time>2018-03-28T09:07:05Z</time>
      </trkpt>
      <trkpt lat="36.8050930" lon="-4.4435850">
        <ele>362.9</ele>
        <time>2018-03-28T09:07:06Z</time>
      </trkpt>
      <trkpt lat="36.8050930" lon="-4.4435850">
        <ele>362.9</ele>
        <time>2018-03-28T09:07:07Z</time>
      </trkpt>
      <trkpt lat="36.8051150" lon="-4.4435200">
        <ele>362.9</ele>
        <time>2018-03-28T09:07:08Z</time>
      </trkpt>
      <trkpt lat="36.8051150" lon="-4.4435200">
        <ele>362.9</ele>
        <time>2018-03-28T09:07:09Z</time>
      </trkpt>
      <trkpt lat="36.8051480" lon="-4.4434620">
        <ele>362.9</ele>
        <time>2018-03-28T09:07:10Z</time>
      </trkpt>
      <trkpt lat="36.8051480" lon="-4.4434620">
        <ele>362.9</ele>
        <time>2018-03-28T09:07:11Z</time>
      </trkpt>
      <trkpt lat="36.8051880" lon="-4.4434130">
        <ele>363.9</ele>
        <time>2018-03-28T09:07:12Z</time>
      </trkpt>
      <trkpt lat="36.8051880" lon="-4.4434130">
        <ele>363.9</ele>
        <time>2018-03-28T09:07:13Z</time>
      </trkpt>
      <trkpt lat="36.8052420" lon="-4.4433980">
        <ele>363.9</ele>
        <time>2018-03-28T09:07:14Z</time>
      </trkpt>
      <trkpt lat="36.8052420" lon="-4.4433980">
        <ele>363.9</ele>
        <time>2018-03-28T09:07:15Z</time>
      </trkpt>
      <trkpt lat="36.8053020" lon="-4.4433970">
        <ele>363.9</ele>
        <time>2018-03-28T09:07:16Z</time>
      </trkpt>
      <trkpt lat="36.8053020" lon="-4.4433970">
        <ele>363.9</ele>
        <time>2018-03-28T09:07:17Z</time>
      </trkpt>
      <trkpt lat="36.8053600" lon="-4.4434030">
        <ele>364.9</ele>
        <time>2018-03-28T09:07:18Z</time>
      </trkpt>
      <trkpt lat="36.8053910" lon="-4.4434070">
        <ele>364.9</ele>
        <time>2018-03-28T09:07:19Z</time>
      </trkpt>
      <trkpt lat="36.8054220" lon="-4.4434120">
        <ele>364.9</ele>
        <time>2018-03-28T09:07:20Z</time>
      </trkpt>
      <trkpt lat="36.8054530" lon="-4.4434200">
        <ele>364.9</ele>
        <time>2018-03-28T09:07:21Z</time>
      </trkpt>
      <trkpt lat="36.8054830" lon="-4.4434280">
        <ele>364.9</ele>
        <time>2018-03-28T09:07:22Z</time>
      </trkpt>
      <trkpt lat="36.8055120" lon="-4.4434370">
        <ele>364.9</ele>
        <time>2018-03-28T09:07:23Z</time>
      </trkpt>
      <trkpt lat="36.8055400" lon="-4.4434470">
        <ele>364.9</ele>
        <time>2018-03-28T09:07:24Z</time>
      </trkpt>
      <trkpt lat="36.8055700" lon="-4.4434550">
        <ele>364.9</ele>
        <time>2018-03-28T09:07:25Z</time>
      </trkpt>
      <trkpt lat="36.8055700" lon="-4.4434550">
        <ele>364.9</ele>
        <time>2018-03-28T09:07:26Z</time>
      </trkpt>
      <trkpt lat="36.8056270" lon="-4.4434720">
        <ele>364.9</ele>
        <time>2018-03-28T09:07:27Z</time>
      </trkpt>
      <trkpt lat="36.8056550" lon="-4.4434820">
        <ele>365.9</ele>
        <time>2018-03-28T09:07:28Z</time>
      </trkpt>
      <trkpt lat="36.8056830" lon="-4.4434900">
        <ele>365.9</ele>
        <time>2018-03-28T09:07:29Z</time>
      </trkpt>
      <trkpt lat="36.8057130" lon="-4.4434940">
        <ele>365.9</ele>
        <time>2018-03-28T09:07:30Z</time>
      </trkpt>
      <trkpt lat="36.8057430" lon="-4.4434980">
        <ele>365.9</ele>
        <time>2018-03-28T09:07:31Z</time>
      </trkpt>
      <trkpt lat="36.8057430" lon="-4.4434980">
        <ele>365.9</ele>
        <time>2018-03-28T09:07:32Z</time>
      </trkpt>
      <trkpt lat="36.8058020" lon="-4.4434750">
        <ele>365.9</ele>
        <time>2018-03-28T09:07:33Z</time>
      </trkpt>
      <trkpt lat="36.8058250" lon="-4.4434480">
        <ele>366.9</ele>
        <time>2018-03-28T09:07:34Z</time>
      </trkpt>
      <trkpt lat="36.8058340" lon="-4.4434320">
        <ele>366.9</ele>
        <time>2018-03-28T09:07:35Z</time>
      </trkpt>
      <trkpt lat="36.8058420" lon="-4.4434150">
        <ele>366.9</ele>
        <time>2018-03-28T09:07:36Z</time>
      </trkpt>
      <trkpt lat="36.8058580" lon="-4.4433820">
        <ele>366.9</ele>
        <time>2018-03-28T09:07:37Z</time>
      </trkpt>
      <trkpt lat="36.8058780" lon="-4.4433070">
        <ele>367.9</ele>
        <time>2018-03-28T09:07:38Z</time>
      </trkpt>
      <trkpt lat="36.8058910" lon="-4.4432710">
        <ele>367.9</ele>
        <time>2018-03-28T09:07:39Z</time>
      </trkpt>
      <trkpt lat="36.8059030" lon="-4.4432350">
        <ele>367.9</ele>
        <time>2018-03-28T09:07:40Z</time>
      </trkpt>
      <trkpt lat="36.8059030" lon="-4.4432350">
        <ele>367.9</ele>
        <time>2018-03-28T09:07:41Z</time>
      </trkpt>
      <trkpt lat="36.8059300" lon="-4.4431650">
        <ele>367.9</ele>
        <time>2018-03-28T09:07:42Z</time>
      </trkpt>
      <trkpt lat="36.8059300" lon="-4.4431650">
        <ele>367.9</ele>
        <time>2018-03-28T09:07:43Z</time>
      </trkpt>
      <trkpt lat="36.8059550" lon="-4.4431000">
        <ele>368.9</ele>
        <time>2018-03-28T09:07:44Z</time>
      </trkpt>
      <trkpt lat="36.8059550" lon="-4.4431000">
        <ele>368.9</ele>
        <time>2018-03-28T09:07:45Z</time>
      </trkpt>
      <trkpt lat="36.8059900" lon="-4.4430400">
        <ele>368.9</ele>
        <time>2018-03-28T09:07:46Z</time>
      </trkpt>
      <trkpt lat="36.8059900" lon="-4.4430400">
        <ele>368.9</ele>
        <time>2018-03-28T09:07:47Z</time>
      </trkpt>
      <trkpt lat="36.8060300" lon="-4.4429930">
        <ele>369.9</ele>
        <time>2018-03-28T09:07:48Z</time>
      </trkpt>
      <trkpt lat="36.8060600" lon="-4.4429820">
        <ele>369.9</ele>
        <time>2018-03-28T09:07:49Z</time>
      </trkpt>
      <trkpt lat="36.8060900" lon="-4.4429700">
        <ele>369.9</ele>
        <time>2018-03-28T09:07:50Z</time>
      </trkpt>
      <trkpt lat="36.8061170" lon="-4.4429700">
        <ele>369.9</ele>
        <time>2018-03-28T09:07:51Z</time>
      </trkpt>
      <trkpt lat="36.8061420" lon="-4.4429780">
        <ele>370.9</ele>
        <time>2018-03-28T09:07:52Z</time>
      </trkpt>
      <trkpt lat="36.8061420" lon="-4.4429780">
        <ele>370.9</ele>
        <time>2018-03-28T09:07:53Z</time>
      </trkpt>
      <trkpt lat="36.8061820" lon="-4.4430180">
        <ele>370.9</ele>
        <time>2018-03-28T09:07:54Z</time>
      </trkpt>
      <trkpt lat="36.8061820" lon="-4.4430180">
        <ele>370.9</ele>
        <time>2018-03-28T09:07:55Z</time>
      </trkpt>
      <trkpt lat="36.8062020" lon="-4.4430900">
        <ele>371.9</ele>
        <time>2018-03-28T09:07:56Z</time>
      </trkpt>
      <trkpt lat="36.8062020" lon="-4.4430900">
        <ele>371.9</ele>
        <time>2018-03-28T09:07:57Z</time>
      </trkpt>
      <trkpt lat="36.8062080" lon="-4.4431670">
        <ele>371.9</ele>
        <time>2018-03-28T09:07:58Z</time>
      </trkpt>
      <trkpt lat="36.8062080" lon="-4.4431670">
        <ele>371.9</ele>
        <time>2018-03-28T09:07:59Z</time>
      </trkpt>
      <trkpt lat="36.8062170" lon="-4.4432380">
        <ele>372.9</ele>
        <time>2018-03-28T09:08:00Z</time>
      </trkpt>
      <trkpt lat="36.8062200" lon="-4.4432720">
        <ele>372.9</ele>
        <time>2018-03-28T09:08:01Z</time>
      </trkpt>
      <trkpt lat="36.8062230" lon="-4.4433070">
        <ele>372.9</ele>
        <time>2018-03-28T09:08:02Z</time>
      </trkpt>
      <trkpt lat="36.8062230" lon="-4.4433070">
        <ele>372.9</ele>
        <time>2018-03-28T09:08:03Z</time>
      </trkpt>
      <trkpt lat="36.8062280" lon="-4.4433770">
        <ele>373.9</ele>
        <time>2018-03-28T09:08:04Z</time>
      </trkpt>
      <trkpt lat="36.8062280" lon="-4.4433770">
        <ele>373.9</ele>
        <time>2018-03-28T09:08:05Z</time>
      </trkpt>
      <trkpt lat="36.8062350" lon="-4.4434430">
        <ele>373.9</ele>
        <time>2018-03-28T09:08:06Z</time>
      </trkpt>
      <trkpt lat="36.8062350" lon="-4.4434430">
        <ele>373.9</ele>
        <time>2018-03-28T09:08:07Z</time>
      </trkpt>
      <trkpt lat="36.8062470" lon="-4.4435080">
        <ele>373.9</ele>
        <time>2018-03-28T09:08:08Z</time>
      </trkpt>
      <trkpt lat="36.8062470" lon="-4.4435080">
        <ele>373.9</ele>
        <time>2018-03-28T09:08:09Z</time>
      </trkpt>
      <trkpt lat="36.8062570" lon="-4.4435770">
        <ele>374.9</ele>
        <time>2018-03-28T09:08:10Z</time>
      </trkpt>
      <trkpt lat="36.8062600" lon="-4.4436100">
        <ele>374.9</ele>
        <time>2018-03-28T09:08:11Z</time>
      </trkpt>
      <trkpt lat="36.8062700" lon="-4.4436590">
        <ele>374.9</ele>
        <time>2018-03-28T09:08:12Z</time>
      </trkpt>
      <trkpt lat="36.8062720" lon="-4.4436750">
        <ele>374.9</ele>
        <time>2018-03-28T09:08:13Z</time>
      </trkpt>
      <trkpt lat="36.8062770" lon="-4.4437070">
        <ele>374.9</ele>
        <time>2018-03-28T09:08:14Z</time>
      </trkpt>
      <trkpt lat="36.8062860" lon="-4.4437390">
        <ele>374.9</ele>
        <time>2018-03-28T09:08:15Z</time>
      </trkpt>
      <trkpt lat="36.8062940" lon="-4.4437720">
        <ele>375.9</ele>
        <time>2018-03-28T09:08:16Z</time>
      </trkpt>
      <trkpt lat="36.8063030" lon="-4.4438040">
        <ele>375.9</ele>
        <time>2018-03-28T09:08:17Z</time>
      </trkpt>
      <trkpt lat="36.8063120" lon="-4.4438350">
        <ele>375.9</ele>
        <time>2018-03-28T09:08:18Z</time>
      </trkpt>
      <trkpt lat="36.8063120" lon="-4.4438350">
        <ele>375.9</ele>
        <time>2018-03-28T09:08:19Z</time>
      </trkpt>
      <trkpt lat="36.8063430" lon="-4.4439110">
        <ele>376.9</ele>
        <time>2018-03-28T09:08:20Z</time>
      </trkpt>
      <trkpt lat="36.8063480" lon="-4.4439270">
        <ele>376.9</ele>
        <time>2018-03-28T09:08:21Z</time>
      </trkpt>
      <trkpt lat="36.8063480" lon="-4.4439270">
        <ele>376.9</ele>
        <time>2018-03-28T09:08:22Z</time>
      </trkpt>
      <trkpt lat="36.8063780" lon="-4.4439930">
        <ele>376.9</ele>
        <time>2018-03-28T09:08:23Z</time>
      </trkpt>
      <trkpt lat="36.8063930" lon="-4.4440230">
        <ele>377.9</ele>
        <time>2018-03-28T09:08:24Z</time>
      </trkpt>
      <trkpt lat="36.8064010" lon="-4.4440380">
        <ele>377.9</ele>
        <time>2018-03-28T09:08:25Z</time>
      </trkpt>
      <trkpt lat="36.8064090" lon="-4.4440530">
        <ele>377.9</ele>
        <time>2018-03-28T09:08:26Z</time>
      </trkpt>
      <trkpt lat="36.8064430" lon="-4.4441110">
        <ele>377.9</ele>
        <time>2018-03-28T09:08:27Z</time>
      </trkpt>
      <trkpt lat="36.8064600" lon="-4.4441400">
        <ele>377.9</ele>
        <time>2018-03-28T09:08:28Z</time>
      </trkpt>
      <trkpt lat="36.8064690" lon="-4.4441530">
        <ele>378.9</ele>
        <time>2018-03-28T09:08:29Z</time>
      </trkpt>
      <trkpt lat="36.8064780" lon="-4.4441660">
        <ele>378.9</ele>
        <time>2018-03-28T09:08:30Z</time>
      </trkpt>
      <trkpt lat="36.8065180" lon="-4.4442150">
        <ele>378.9</ele>
        <time>2018-03-28T09:08:31Z</time>
      </trkpt>
      <trkpt lat="36.8065400" lon="-4.4442380">
        <ele>378.9</ele>
        <time>2018-03-28T09:08:32Z</time>
      </trkpt>
      <trkpt lat="36.8065630" lon="-4.4442600">
        <ele>378.9</ele>
        <time>2018-03-28T09:08:33Z</time>
      </trkpt>
      <trkpt lat="36.8065850" lon="-4.4442830">
        <ele>378.9</ele>
        <time>2018-03-28T09:08:34Z</time>
      </trkpt>
      <trkpt lat="36.8065850" lon="-4.4442830">
        <ele>378.9</ele>
        <time>2018-03-28T09:08:35Z</time>
      </trkpt>
      <trkpt lat="36.8066320" lon="-4.4443250">
        <ele>379.9</ele>
        <time>2018-03-28T09:08:36Z</time>
      </trkpt>
      <trkpt lat="36.8066650" lon="-4.4443540">
        <ele>379.9</ele>
        <time>2018-03-28T09:08:37Z</time>
      </trkpt>
      <trkpt lat="36.8066760" lon="-4.4443630">
        <ele>379.9</ele>
        <time>2018-03-28T09:08:38Z</time>
      </trkpt>
      <trkpt lat="36.8066880" lon="-4.4443720">
        <ele>379.9</ele>
        <time>2018-03-28T09:08:39Z</time>
      </trkpt>
      <trkpt lat="36.8067220" lon="-4.4444000">
        <ele>380.9</ele>
        <time>2018-03-28T09:08:40Z</time>
      </trkpt>
      <trkpt lat="36.8067470" lon="-4.4444170">
        <ele>380.9</ele>
        <time>2018-03-28T09:08:41Z</time>
      </trkpt>
      <trkpt lat="36.8067720" lon="-4.4444350">
        <ele>380.9</ele>
        <time>2018-03-28T09:08:42Z</time>
      </trkpt>
      <trkpt lat="36.8067720" lon="-4.4444350">
        <ele>380.9</ele>
        <time>2018-03-28T09:08:43Z</time>
      </trkpt>
      <trkpt lat="36.8068220" lon="-4.4444670">
        <ele>381.9</ele>
        <time>2018-03-28T09:08:44Z</time>
      </trkpt>
      <trkpt lat="36.8068470" lon="-4.4444820">
        <ele>381.9</ele>
        <time>2018-03-28T09:08:45Z</time>
      </trkpt>
      <trkpt lat="36.8068470" lon="-4.4444820">
        <ele>381.9</ele>
        <time>2018-03-28T09:08:46Z</time>
      </trkpt>
      <trkpt lat="36.8069110" lon="-4.4445050">
        <ele>381.9</ele>
        <time>2018-03-28T09:08:47Z</time>
      </trkpt>
      <trkpt lat="36.8069250" lon="-4.4445080">
        <ele>381.9</ele>
        <time>2018-03-28T09:08:48Z</time>
      </trkpt>
      <trkpt lat="36.8069390" lon="-4.4445090">
        <ele>382.9</ele>
        <time>2018-03-28T09:08:49Z</time>
      </trkpt>
      <trkpt lat="36.8069530" lon="-4.4445100">
        <ele>382.9</ele>
        <time>2018-03-28T09:08:50Z</time>
      </trkpt>
      <trkpt lat="36.8070080" lon="-4.4445110">
        <ele>382.9</ele>
        <time>2018-03-28T09:08:51Z</time>
      </trkpt>
      <trkpt lat="36.8070350" lon="-4.4445100">
        <ele>382.9</ele>
        <time>2018-03-28T09:08:52Z</time>
      </trkpt>
      <trkpt lat="36.8070350" lon="-4.4445100">
        <ele>383.9</ele>
        <time>2018-03-28T09:08:53Z</time>
      </trkpt>
      <trkpt lat="36.8070850" lon="-4.4444970">
        <ele>383.9</ele>
        <time>2018-03-28T09:08:54Z</time>
      </trkpt>
      <trkpt lat="36.8070850" lon="-4.4444970">
        <ele>383.9</ele>
        <time>2018-03-28T09:08:55Z</time>
      </trkpt>
      <trkpt lat="36.8071380" lon="-4.4444850">
        <ele>383.9</ele>
        <time>2018-03-28T09:08:56Z</time>
      </trkpt>
      <trkpt lat="36.8071510" lon="-4.4444820">
        <ele>383.9</ele>
        <time>2018-03-28T09:08:57Z</time>
      </trkpt>
      <trkpt lat="36.8071630" lon="-4.4444790">
        <ele>383.9</ele>
        <time>2018-03-28T09:08:58Z</time>
      </trkpt>
      <trkpt lat="36.8072130" lon="-4.4444680">
        <ele>383.9</ele>
        <time>2018-03-28T09:08:59Z</time>
      </trkpt>
      <trkpt lat="36.8072380" lon="-4.4444620">
        <ele>384.9</ele>
        <time>2018-03-28T09:09:00Z</time>
      </trkpt>
      <trkpt lat="36.8072630" lon="-4.4444580">
        <ele>384.9</ele>
        <time>2018-03-28T09:09:01Z</time>
      </trkpt>
      <trkpt lat="36.8072870" lon="-4.4444530">
        <ele>384.9</ele>
        <time>2018-03-28T09:09:02Z</time>
      </trkpt>
      <trkpt lat="36.8073130" lon="-4.4444520">
        <ele>384.9</ele>
        <time>2018-03-28T09:09:03Z</time>
      </trkpt>
      <trkpt lat="36.8073400" lon="-4.4444530">
        <ele>384.9</ele>
        <time>2018-03-28T09:09:04Z</time>
      </trkpt>
      <trkpt lat="36.8073630" lon="-4.4444620">
        <ele>385.9</ele>
        <time>2018-03-28T09:09:05Z</time>
      </trkpt>
      <trkpt lat="36.8073630" lon="-4.4444620">
        <ele>385.9</ele>
        <time>2018-03-28T09:09:06Z</time>
      </trkpt>
      <trkpt lat="36.8074130" lon="-4.4444800">
        <ele>385.9</ele>
        <time>2018-03-28T09:09:07Z</time>
      </trkpt>
      <trkpt lat="36.8074350" lon="-4.4444920">
        <ele>385.9</ele>
        <time>2018-03-28T09:09:08Z</time>
      </trkpt>
      <trkpt lat="36.8074350" lon="-4.4444920">
        <ele>386.9</ele>
        <time>2018-03-28T09:09:09Z</time>
      </trkpt>
      <trkpt lat="36.8074720" lon="-4.4445330">
        <ele>386.9</ele>
        <time>2018-03-28T09:09:10Z</time>
      </trkpt>
      <trkpt lat="36.8074720" lon="-4.4445330">
        <ele>386.9</ele>
        <time>2018-03-28T09:09:11Z</time>
      </trkpt>
      <trkpt lat="36.8074980" lon="-4.4445880">
        <ele>386.9</ele>
        <time>2018-03-28T09:09:12Z</time>
      </trkpt>
      <trkpt lat="36.8074980" lon="-4.4445880">
        <ele>386.9</ele>
        <time>2018-03-28T09:09:13Z</time>
      </trkpt>
      <trkpt lat="36.8074850" lon="-4.4446700">
        <ele>386.9</ele>
        <time>2018-03-28T09:09:14Z</time>
      </trkpt>
      <trkpt lat="36.8074830" lon="-4.4447020">
        <ele>386.9</ele>
        <time>2018-03-28T09:09:15Z</time>
      </trkpt>
      <trkpt lat="36.8074800" lon="-4.4447320">
        <ele>386.9</ele>
        <time>2018-03-28T09:09:16Z</time>
      </trkpt>
      <trkpt lat="36.8074800" lon="-4.4447320">
        <ele>387.9</ele>
        <time>2018-03-28T09:09:17Z</time>
      </trkpt>
      <trkpt lat="36.8074680" lon="-4.4447880">
        <ele>387.9</ele>
        <time>2018-03-28T09:09:18Z</time>
      </trkpt>
      <trkpt lat="36.8074680" lon="-4.4447880">
        <ele>387.9</ele>
        <time>2018-03-28T09:09:19Z</time>
      </trkpt>
      <trkpt lat="36.8074420" lon="-4.4448380">
        <ele>387.9</ele>
        <time>2018-03-28T09:09:20Z</time>
      </trkpt>
      <trkpt lat="36.8074250" lon="-4.4448650">
        <ele>387.9</ele>
        <time>2018-03-28T09:09:21Z</time>
      </trkpt>
      <trkpt lat="36.8073990" lon="-4.4449010">
        <ele>387.9</ele>
        <time>2018-03-28T09:09:22Z</time>
      </trkpt>
      <trkpt lat="36.8073900" lon="-4.4449130">
        <ele>388.9</ele>
        <time>2018-03-28T09:09:23Z</time>
      </trkpt>
      <trkpt lat="36.8073740" lon="-4.4449370">
        <ele>388.9</ele>
        <time>2018-03-28T09:09:24Z</time>
      </trkpt>
      <trkpt lat="36.8073570" lon="-4.4449620">
        <ele>388.9</ele>
        <time>2018-03-28T09:09:25Z</time>
      </trkpt>
      <trkpt lat="36.8073410" lon="-4.4449860">
        <ele>388.9</ele>
        <time>2018-03-28T09:09:26Z</time>
      </trkpt>
      <trkpt lat="36.8073250" lon="-4.4450100">
        <ele>388.9</ele>
        <time>2018-03-28T09:09:27Z</time>
      </trkpt>
      <trkpt lat="36.8073150" lon="-4.4450400">
        <ele>388.9</ele>
        <time>2018-03-28T09:09:28Z</time>
      </trkpt>
      <trkpt lat="36.8073050" lon="-4.4450700">
        <ele>389.9</ele>
        <time>2018-03-28T09:09:29Z</time>
      </trkpt>
      <trkpt lat="36.8072930" lon="-4.4451050">
        <ele>389.9</ele>
        <time>2018-03-28T09:09:30Z</time>
      </trkpt>
      <trkpt lat="36.8072850" lon="-4.4451370">
        <ele>389.9</ele>
        <time>2018-03-28T09:09:31Z</time>
      </trkpt>
      <trkpt lat="36.8072850" lon="-4.4451370">
        <ele>389.9</ele>
        <time>2018-03-28T09:09:32Z</time>
      </trkpt>
      <trkpt lat="36.8072730" lon="-4.4452020">
        <ele>390.9</ele>
        <time>2018-03-28T09:09:33Z</time>
      </trkpt>
      <trkpt lat="36.8072730" lon="-4.4452020">
        <ele>390.9</ele>
        <time>2018-03-28T09:09:34Z</time>
      </trkpt>
      <trkpt lat="36.8072780" lon="-4.4452730">
        <ele>390.9</ele>
        <time>2018-03-28T09:09:35Z</time>
      </trkpt>
      <trkpt lat="36.8072840" lon="-4.4452960">
        <ele>390.9</ele>
        <time>2018-03-28T09:09:36Z</time>
      </trkpt>
      <trkpt lat="36.8072890" lon="-4.4453190">
        <ele>391.9</ele>
        <time>2018-03-28T09:09:37Z</time>
      </trkpt>
      <trkpt lat="36.8072950" lon="-4.4453420">
        <ele>391.9</ele>
        <time>2018-03-28T09:09:38Z</time>
      </trkpt>
      <trkpt lat="36.8073170" lon="-4.4454070">
        <ele>391.9</ele>
        <time>2018-03-28T09:09:39Z</time>
      </trkpt>
      <trkpt lat="36.8073290" lon="-4.4454400">
        <ele>391.9</ele>
        <time>2018-03-28T09:09:40Z</time>
      </trkpt>
      <trkpt lat="36.8073400" lon="-4.4454730">
        <ele>391.9</ele>
        <time>2018-03-28T09:09:41Z</time>
      </trkpt>
      <trkpt lat="36.8073400" lon="-4.4454730">
        <ele>391.9</ele>
        <time>2018-03-28T09:09:42Z</time>
      </trkpt>
      <trkpt lat="36.8073700" lon="-4.4455330">
        <ele>392.9</ele>
        <time>2018-03-28T09:09:43Z</time>
      </trkpt>
      <trkpt lat="36.8073890" lon="-4.4455610">
        <ele>392.9</ele>
        <time>2018-03-28T09:09:44Z</time>
      </trkpt>
      <trkpt lat="36.8074070" lon="-4.4455900">
        <ele>392.9</ele>
        <time>2018-03-28T09:09:45Z</time>
      </trkpt>
      <trkpt lat="36.8074070" lon="-4.4455900">
        <ele>392.9</ele>
        <time>2018-03-28T09:09:46Z</time>
      </trkpt>
      <trkpt lat="36.8074370" lon="-4.4456480">
        <ele>392.9</ele>
        <time>2018-03-28T09:09:47Z</time>
      </trkpt>
      <trkpt lat="36.8074370" lon="-4.4456480">
        <ele>392.9</ele>
        <time>2018-03-28T09:09:48Z</time>
      </trkpt>
      <trkpt lat="36.8074670" lon="-4.4457080">
        <ele>392.9</ele>
        <time>2018-03-28T09:09:49Z</time>
      </trkpt>
      <trkpt lat="36.8074830" lon="-4.4457370">
        <ele>392.9</ele>
        <time>2018-03-28T09:09:50Z</time>
      </trkpt>
      <trkpt lat="36.8074990" lon="-4.4457660">
        <ele>393.9</ele>
        <time>2018-03-28T09:09:51Z</time>
      </trkpt>
      <trkpt lat="36.8075150" lon="-4.4457950">
        <ele>393.9</ele>
        <time>2018-03-28T09:09:52Z</time>
      </trkpt>
      <trkpt lat="36.8075300" lon="-4.4458230">
        <ele>393.9</ele>
        <time>2018-03-28T09:09:53Z</time>
      </trkpt>
      <trkpt lat="36.8075430" lon="-4.4458520">
        <ele>394.9</ele>
        <time>2018-03-28T09:09:54Z</time>
      </trkpt>
      <trkpt lat="36.8075430" lon="-4.4458520">
        <ele>394.9</ele>
        <time>2018-03-28T09:09:55Z</time>
      </trkpt>
      <trkpt lat="36.8075670" lon="-4.4459070">
        <ele>394.9</ele>
        <time>2018-03-28T09:09:56Z</time>
      </trkpt>
      <trkpt lat="36.8075810" lon="-4.4459370">
        <ele>394.9</ele>
        <time>2018-03-28T09:09:57Z</time>
      </trkpt>
      <trkpt lat="36.8075950" lon="-4.4459670">
        <ele>394.9</ele>
        <time>2018-03-28T09:09:58Z</time>
      </trkpt>
      <trkpt lat="36.8076070" lon="-4.4460030">
        <ele>394.9</ele>
        <time>2018-03-28T09:09:59Z</time>
      </trkpt>
      <trkpt lat="36.8076200" lon="-4.4460400">
        <ele>395.9</ele>
        <time>2018-03-28T09:10:00Z</time>
      </trkpt>
      <trkpt lat="36.8076200" lon="-4.4460400">
        <ele>395.9</ele>
        <time>2018-03-28T09:10:01Z</time>
      </trkpt>
      <trkpt lat="36.8076470" lon="-4.4461020">
        <ele>395.9</ele>
        <time>2018-03-28T09:10:02Z</time>
      </trkpt>
      <trkpt lat="36.8076470" lon="-4.4461020">
        <ele>395.9</ele>
        <time>2018-03-28T09:10:03Z</time>
      </trkpt>
      <trkpt lat="36.8076800" lon="-4.4461580">
        <ele>396.9</ele>
        <time>2018-03-28T09:10:04Z</time>
      </trkpt>
      <trkpt lat="36.8076800" lon="-4.4461580">
        <ele>396.9</ele>
        <time>2018-03-28T09:10:05Z</time>
      </trkpt>
      <trkpt lat="36.8077130" lon="-4.4462130">
        <ele>396.9</ele>
        <time>2018-03-28T09:10:06Z</time>
      </trkpt>
      <trkpt lat="36.8077330" lon="-4.4462400">
        <ele>396.9</ele>
        <time>2018-03-28T09:10:07Z</time>
      </trkpt>
      <trkpt lat="36.8077520" lon="-4.4462680">
        <ele>396.9</ele>
        <time>2018-03-28T09:10:08Z</time>
      </trkpt>
      <trkpt lat="36.8077650" lon="-4.4462860">
        <ele>396.9</ele>
        <time>2018-03-28T09:10:09Z</time>
      </trkpt>
      <trkpt lat="36.8077770" lon="-4.4463050">
        <ele>397.9</ele>
        <time>2018-03-28T09:10:10Z</time>
      </trkpt>
      <trkpt lat="36.8077900" lon="-4.4463230">
        <ele>397.9</ele>
        <time>2018-03-28T09:10:11Z</time>
      </trkpt>
      <trkpt lat="36.8078330" lon="-4.4463720">
        <ele>397.9</ele>
        <time>2018-03-28T09:10:12Z</time>
      </trkpt>
      <trkpt lat="36.8078500" lon="-4.4463890">
        <ele>397.9</ele>
        <time>2018-03-28T09:10:13Z</time>
      </trkpt>
      <trkpt lat="36.8078660" lon="-4.4464070">
        <ele>397.9</ele>
        <time>2018-03-28T09:10:14Z</time>
      </trkpt>
      <trkpt lat="36.8078980" lon="-4.4464420">
        <ele>397.9</ele>
        <time>2018-03-28T09:10:15Z</time>
      </trkpt>
      <trkpt lat="36.8078980" lon="-4.4464420">
        <ele>398.9</ele>
        <time>2018-03-28T09:10:16Z</time>
      </trkpt>
      <trkpt lat="36.8079350" lon="-4.4464920">
        <ele>398.9</ele>
        <time>2018-03-28T09:10:17Z</time>
      </trkpt>
      <trkpt lat="36.8079530" lon="-4.4465180">
        <ele>398.9</ele>
        <time>2018-03-28T09:10:18Z</time>
      </trkpt>
      <trkpt lat="36.8079700" lon="-4.4465450">
        <ele>398.9</ele>
        <time>2018-03-28T09:10:19Z</time>
      </trkpt>
      <trkpt lat="36.8079700" lon="-4.4465450">
        <ele>398.9</ele>
        <time>2018-03-28T09:10:20Z</time>
      </trkpt>
      <trkpt lat="36.8080030" lon="-4.4465950">
        <ele>399.9</ele>
        <time>2018-03-28T09:10:21Z</time>
      </trkpt>
      <trkpt lat="36.8080190" lon="-4.4466240">
        <ele>399.9</ele>
        <time>2018-03-28T09:10:22Z</time>
      </trkpt>
      <trkpt lat="36.8080350" lon="-4.4466530">
        <ele>399.9</ele>
        <time>2018-03-28T09:10:23Z</time>
      </trkpt>
      <trkpt lat="36.8080350" lon="-4.4466530">
        <ele>399.9</ele>
        <time>2018-03-28T09:10:24Z</time>
      </trkpt>
      <trkpt lat="36.8080580" lon="-4.4467150">
        <ele>399.9</ele>
        <time>2018-03-28T09:10:25Z</time>
      </trkpt>
      <trkpt lat="36.8080630" lon="-4.4467500">
        <ele>399.9</ele>
        <time>2018-03-28T09:10:26Z</time>
      </trkpt>
      <trkpt lat="36.8080630" lon="-4.4467500">
        <ele>399.9</ele>
        <time>2018-03-28T09:10:27Z</time>
      </trkpt>
      <trkpt lat="36.8080630" lon="-4.4468280">
        <ele>399.9</ele>
        <time>2018-03-28T09:10:28Z</time>
      </trkpt>
      <trkpt lat="36.8080600" lon="-4.4468430">
        <ele>400.9</ele>
        <time>2018-03-28T09:10:29Z</time>
      </trkpt>
      <trkpt lat="36.8080600" lon="-4.4468430">
        <ele>400.9</ele>
        <time>2018-03-28T09:10:30Z</time>
      </trkpt>
      <trkpt lat="36.8080530" lon="-4.4469000">
        <ele>400.9</ele>
        <time>2018-03-28T09:10:31Z</time>
      </trkpt>
      <trkpt lat="36.8080530" lon="-4.4469000">
        <ele>400.9</ele>
        <time>2018-03-28T09:10:32Z</time>
      </trkpt>
      <trkpt lat="36.8080430" lon="-4.4469550">
        <ele>400.9</ele>
        <time>2018-03-28T09:10:33Z</time>
      </trkpt>
      <trkpt lat="36.8080380" lon="-4.4469780">
        <ele>400.9</ele>
        <time>2018-03-28T09:10:34Z</time>
      </trkpt>
      <trkpt lat="36.8080380" lon="-4.4469780">
        <ele>401.9</ele>
        <time>2018-03-28T09:10:35Z</time>
      </trkpt>
      <trkpt lat="36.8080200" lon="-4.4470330">
        <ele>401.9</ele>
        <time>2018-03-28T09:10:36Z</time>
      </trkpt>
      <trkpt lat="36.8080060" lon="-4.4470610">
        <ele>401.9</ele>
        <time>2018-03-28T09:10:37Z</time>
      </trkpt>
      <trkpt lat="36.8079920" lon="-4.4470880">
        <ele>401.9</ele>
        <time>2018-03-28T09:10:38Z</time>
      </trkpt>
      <trkpt lat="36.8079750" lon="-4.4471170">
        <ele>402.9</ele>
        <time>2018-03-28T09:10:39Z</time>
      </trkpt>
      <trkpt lat="36.8079750" lon="-4.4471170">
        <ele>402.9</ele>
        <time>2018-03-28T09:10:40Z</time>
      </trkpt>
      <trkpt lat="36.8079400" lon="-4.4471600">
        <ele>402.9</ele>
        <time>2018-03-28T09:10:41Z</time>
      </trkpt>
      <trkpt lat="36.8079180" lon="-4.4471780">
        <ele>402.9</ele>
        <time>2018-03-28T09:10:42Z</time>
      </trkpt>
      <trkpt lat="36.8079180" lon="-4.4471780">
        <ele>403.9</ele>
        <time>2018-03-28T09:10:43Z</time>
      </trkpt>
      <trkpt lat="36.8078700" lon="-4.4472080">
        <ele>403.9</ele>
        <time>2018-03-28T09:10:44Z</time>
      </trkpt>
      <trkpt lat="36.8078700" lon="-4.4472080">
        <ele>403.9</ele>
        <time>2018-03-28T09:10:45Z</time>
      </trkpt>
      <trkpt lat="36.8078100" lon="-4.4472300">
        <ele>403.9</ele>
        <time>2018-03-28T09:10:46Z</time>
      </trkpt>
      <trkpt lat="36.8077840" lon="-4.4472360">
        <ele>403.9</ele>
        <time>2018-03-28T09:10:47Z</time>
      </trkpt>
      <trkpt lat="36.8077570" lon="-4.4472420">
        <ele>403.9</ele>
        <time>2018-03-28T09:10:48Z</time>
      </trkpt>
      <trkpt lat="36.8077570" lon="-4.4472420">
        <ele>404.9</ele>
        <time>2018-03-28T09:10:49Z</time>
      </trkpt>
      <trkpt lat="36.8077100" lon="-4.4472620">
        <ele>404.9</ele>
        <time>2018-03-28T09:10:50Z</time>
      </trkpt>
      <trkpt lat="36.8077100" lon="-4.4472620">
        <ele>404.9</ele>
        <time>2018-03-28T09:10:51Z</time>
      </trkpt>
      <trkpt lat="36.8076580" lon="-4.4472700">
        <ele>405.9</ele>
        <time>2018-03-28T09:10:52Z</time>
      </trkpt>
      <trkpt lat="36.8076580" lon="-4.4472700">
        <ele>405.9</ele>
        <time>2018-03-28T09:10:53Z</time>
      </trkpt>
      <trkpt lat="36.8076080" lon="-4.4472620">
        <ele>405.9</ele>
        <time>2018-03-28T09:10:54Z</time>
      </trkpt>
      <trkpt lat="36.8075830" lon="-4.4472570">
        <ele>405.9</ele>
        <time>2018-03-28T09:10:55Z</time>
      </trkpt>
      <trkpt lat="36.8075580" lon="-4.4472520">
        <ele>405.9</ele>
        <time>2018-03-28T09:10:56Z</time>
      </trkpt>
      <trkpt lat="36.8075580" lon="-4.4472520">
        <ele>405.9</ele>
        <time>2018-03-28T09:10:57Z</time>
      </trkpt>
      <trkpt lat="36.8075050" lon="-4.4472580">
        <ele>406.9</ele>
        <time>2018-03-28T09:10:58Z</time>
      </trkpt>
      <trkpt lat="36.8074770" lon="-4.4472600">
        <ele>406.9</ele>
        <time>2018-03-28T09:10:59Z</time>
      </trkpt>
      <trkpt lat="36.8074490" lon="-4.4472630">
        <ele>406.9</ele>
        <time>2018-03-28T09:11:00Z</time>
      </trkpt>
      <trkpt lat="36.8074210" lon="-4.4472650">
        <ele>406.9</ele>
        <time>2018-03-28T09:11:01Z</time>
      </trkpt>
      <trkpt lat="36.8073930" lon="-4.4472680">
        <ele>406.9</ele>
        <time>2018-03-28T09:11:02Z</time>
      </trkpt>
      <trkpt lat="36.8073730" lon="-4.4472700">
        <ele>406.9</ele>
        <time>2018-03-28T09:11:03Z</time>
      </trkpt>
      <trkpt lat="36.8073530" lon="-4.4472720">
        <ele>406.9</ele>
        <time>2018-03-28T09:11:04Z</time>
      </trkpt>
      <trkpt lat="36.8073120" lon="-4.4472750">
        <ele>406.9</ele>
        <time>2018-03-28T09:11:05Z</time>
      </trkpt>
      <trkpt lat="36.8072850" lon="-4.4472730">
        <ele>406.9</ele>
        <time>2018-03-28T09:11:06Z</time>
      </trkpt>
      <trkpt lat="36.8072850" lon="-4.4472730">
        <ele>406.9</ele>
        <time>2018-03-28T09:11:07Z</time>
      </trkpt>
      <trkpt lat="36.8064300" lon="-4.4481570">
        <ele>415.9</ele>
        <time>2018-03-28T09:11:55Z</time>
      </trkpt>
      <trkpt lat="36.8064300" lon="-4.4481570">
        <ele>416.9</ele>
        <time>2018-03-28T09:11:57Z</time>
      </trkpt>
      <trkpt lat="36.8064300" lon="-4.4481570">
        <ele>416.9</ele>
        <time>2018-03-28T09:11:58Z</time>
      </trkpt>
      <trkpt lat="36.8065320" lon="-4.4482220">
        <ele>416.9</ele>
        <time>2018-03-28T09:11:59Z</time>
      </trkpt>
      <trkpt lat="36.8065320" lon="-4.4482220">
        <ele>416.9</ele>
        <time>2018-03-28T09:12:00Z</time>
      </trkpt>
      <trkpt lat="36.8065930" lon="-4.4482450">
        <ele>416.9</ele>
        <time>2018-03-28T09:12:01Z</time>
      </trkpt>
      <trkpt lat="36.8065930" lon="-4.4482450">
        <ele>416.9</ele>
        <time>2018-03-28T09:12:02Z</time>
      </trkpt>
      <trkpt lat="36.8066530" lon="-4.4482680">
        <ele>416.9</ele>
        <time>2018-03-28T09:12:03Z</time>
      </trkpt>
      <trkpt lat="36.8066530" lon="-4.4482680">
        <ele>417.9</ele>
        <time>2018-03-28T09:12:04Z</time>
      </trkpt>
      <trkpt lat="36.8067070" lon="-4.4482920">
        <ele>417.9</ele>
        <time>2018-03-28T09:12:05Z</time>
      </trkpt>
      <trkpt lat="36.8067330" lon="-4.4483070">
        <ele>417.9</ele>
        <time>2018-03-28T09:12:06Z</time>
      </trkpt>
      <trkpt lat="36.8067330" lon="-4.4483070">
        <ele>417.9</ele>
        <time>2018-03-28T09:12:07Z</time>
      </trkpt>
      <trkpt lat="36.8067870" lon="-4.4483280">
        <ele>417.9</ele>
        <time>2018-03-28T09:12:08Z</time>
      </trkpt>
      <trkpt lat="36.8067870" lon="-4.4483280">
        <ele>417.9</ele>
        <time>2018-03-28T09:12:09Z</time>
      </trkpt>
      <trkpt lat="36.8068370" lon="-4.4483530">
        <ele>418.9</ele>
        <time>2018-03-28T09:12:10Z</time>
      </trkpt>
      <trkpt lat="36.8068370" lon="-4.4483530">
        <ele>418.9</ele>
        <time>2018-03-28T09:12:11Z</time>
      </trkpt>
      <trkpt lat="36.8068870" lon="-4.4484020">
        <ele>419.9</ele>
        <time>2018-03-28T09:12:12Z</time>
      </trkpt>
      <trkpt lat="36.8068940" lon="-4.4484170">
        <ele>419.9</ele>
        <time>2018-03-28T09:12:13Z</time>
      </trkpt>
      <trkpt lat="36.8069070" lon="-4.4484470">
        <ele>419.9</ele>
        <time>2018-03-28T09:12:14Z</time>
      </trkpt>
      <trkpt lat="36.8069180" lon="-4.4484800">
        <ele>419.9</ele>
        <time>2018-03-28T09:12:15Z</time>
      </trkpt>
      <trkpt lat="36.8069180" lon="-4.4484800">
        <ele>419.9</ele>
        <time>2018-03-28T09:12:16Z</time>
      </trkpt>
      <trkpt lat="36.8069280" lon="-4.4485570">
        <ele>419.9</ele>
        <time>2018-03-28T09:12:17Z</time>
      </trkpt>
      <trkpt lat="36.8069320" lon="-4.4485930">
        <ele>420.9</ele>
        <time>2018-03-28T09:12:18Z</time>
      </trkpt>
      <trkpt lat="36.8069320" lon="-4.4485930">
        <ele>420.9</ele>
        <time>2018-03-28T09:12:19Z</time>
      </trkpt>
      <trkpt lat="36.8069400" lon="-4.4486550">
        <ele>420.9</ele>
        <time>2018-03-28T09:12:20Z</time>
      </trkpt>
      <trkpt lat="36.8069400" lon="-4.4486550">
        <ele>420.9</ele>
        <time>2018-03-28T09:12:21Z</time>
      </trkpt>
      <trkpt lat="36.8069370" lon="-4.4487200">
        <ele>420.9</ele>
        <time>2018-03-28T09:12:22Z</time>
      </trkpt>
      <trkpt lat="36.8069370" lon="-4.4487200">
        <ele>421.9</ele>
        <time>2018-03-28T09:12:23Z</time>
      </trkpt>
      <trkpt lat="36.8069290" lon="-4.4488060">
        <ele>421.9</ele>
        <time>2018-03-28T09:12:24Z</time>
      </trkpt>
      <trkpt lat="36.8069280" lon="-4.4488220">
        <ele>421.9</ele>
        <time>2018-03-28T09:12:25Z</time>
      </trkpt>
      <trkpt lat="36.8069250" lon="-4.4488530">
        <ele>421.9</ele>
        <time>2018-03-28T09:12:26Z</time>
      </trkpt>
      <trkpt lat="36.8069250" lon="-4.4488530">
        <ele>422.9</ele>
        <time>2018-03-28T09:12:27Z</time>
      </trkpt>
      <trkpt lat="36.8069180" lon="-4.4489220">
        <ele>422.9</ele>
        <time>2018-03-28T09:12:28Z</time>
      </trkpt>
      <trkpt lat="36.8069180" lon="-4.4489220">
        <ele>422.9</ele>
        <time>2018-03-28T09:12:29Z</time>
      </trkpt>
      <trkpt lat="36.8069220" lon="-4.4489900">
        <ele>422.9</ele>
        <time>2018-03-28T09:12:30Z</time>
      </trkpt>
      <trkpt lat="36.8069230" lon="-4.4490220">
        <ele>422.9</ele>
        <time>2018-03-28T09:12:31Z</time>
      </trkpt>
      <trkpt lat="36.8069230" lon="-4.4490550">
        <ele>422.9</ele>
        <time>2018-03-28T09:12:32Z</time>
      </trkpt>
      <trkpt lat="36.8069230" lon="-4.4490550">
        <ele>422.9</ele>
        <time>2018-03-28T09:12:33Z</time>
      </trkpt>
      <trkpt lat="36.8069320" lon="-4.4491170">
        <ele>422.9</ele>
        <time>2018-03-28T09:12:34Z</time>
      </trkpt>
      <trkpt lat="36.8069380" lon="-4.4491470">
        <ele>422.9</ele>
        <time>2018-03-28T09:12:35Z</time>
      </trkpt>
      <trkpt lat="36.8069380" lon="-4.4491470">
        <ele>424.9</ele>
        <time>2018-03-28T09:12:36Z</time>
      </trkpt>
      <trkpt lat="36.8069630" lon="-4.4492050">
        <ele>424.9</ele>
        <time>2018-03-28T09:12:37Z</time>
      </trkpt>
      <trkpt lat="36.8069630" lon="-4.4492050">
        <ele>424.9</ele>
        <time>2018-03-28T09:12:38Z</time>
      </trkpt>
      <trkpt lat="36.8069930" lon="-4.4492580">
        <ele>424.9</ele>
        <time>2018-03-28T09:12:39Z</time>
      </trkpt>
      <trkpt lat="36.8069930" lon="-4.4492580">
        <ele>424.9</ele>
        <time>2018-03-28T09:12:40Z</time>
      </trkpt>
      <trkpt lat="36.8070300" lon="-4.4493050">
        <ele>424.9</ele>
        <time>2018-03-28T09:12:41Z</time>
      </trkpt>
      <trkpt lat="36.8070300" lon="-4.4493050">
        <ele>424.9</ele>
        <time>2018-03-28T09:12:42Z</time>
      </trkpt>
      <trkpt lat="36.8070700" lon="-4.4493500">
        <ele>425.9</ele>
        <time>2018-03-28T09:12:43Z</time>
      </trkpt>
      <trkpt lat="36.8070890" lon="-4.4493710">
        <ele>425.9</ele>
        <time>2018-03-28T09:12:44Z</time>
      </trkpt>
      <trkpt lat="36.8071080" lon="-4.4493930">
        <ele>425.9</ele>
        <time>2018-03-28T09:12:45Z</time>
      </trkpt>
      <trkpt lat="36.8071080" lon="-4.4493930">
        <ele>425.9</ele>
        <time>2018-03-28T09:12:46Z</time>
      </trkpt>
      <trkpt lat="36.8071670" lon="-4.4494460">
        <ele>426.9</ele>
        <time>2018-03-28T09:12:47Z</time>
      </trkpt>
      <trkpt lat="36.8071810" lon="-4.4494580">
        <ele>426.9</ele>
        <time>2018-03-28T09:12:48Z</time>
      </trkpt>
      <trkpt lat="36.8071960" lon="-4.4494710">
        <ele>426.9</ele>
        <time>2018-03-28T09:12:49Z</time>
      </trkpt>
      <trkpt lat="36.8072170" lon="-4.4494900">
        <ele>427.9</ele>
        <time>2018-03-28T09:12:50Z</time>
      </trkpt>
      <trkpt lat="36.8072170" lon="-4.4494900">
        <ele>427.9</ele>
        <time>2018-03-28T09:12:51Z</time>
      </trkpt>
      <trkpt lat="36.8072600" lon="-4.4495250">
        <ele>427.9</ele>
        <time>2018-03-28T09:12:52Z</time>
      </trkpt>
      <trkpt lat="36.8072780" lon="-4.4495510">
        <ele>427.9</ele>
        <time>2018-03-28T09:12:53Z</time>
      </trkpt>
      <trkpt lat="36.8072950" lon="-4.4495770">
        <ele>428.9</ele>
        <time>2018-03-28T09:12:54Z</time>
      </trkpt>
      <trkpt lat="36.8072950" lon="-4.4495770">
        <ele>428.9</ele>
        <time>2018-03-28T09:12:55Z</time>
      </trkpt>
      <trkpt lat="36.8073220" lon="-4.4496330">
        <ele>428.9</ele>
        <time>2018-03-28T09:12:56Z</time>
      </trkpt>
      <trkpt lat="36.8073220" lon="-4.4496330">
        <ele>428.9</ele>
        <time>2018-03-28T09:12:57Z</time>
      </trkpt>
      <trkpt lat="36.8073480" lon="-4.4496920">
        <ele>429.9</ele>
        <time>2018-03-28T09:12:58Z</time>
      </trkpt>
      <trkpt lat="36.8073600" lon="-4.4497220">
        <ele>429.9</ele>
        <time>2018-03-28T09:12:59Z</time>
      </trkpt>
      <trkpt lat="36.8073600" lon="-4.4497220">
        <ele>429.9</ele>
        <time>2018-03-28T09:13:00Z</time>
      </trkpt>
      <trkpt lat="36.8073800" lon="-4.4497830">
        <ele>429.9</ele>
        <time>2018-03-28T09:13:01Z</time>
      </trkpt>
      <trkpt lat="36.8073800" lon="-4.4497830">
        <ele>429.9</ele>
        <time>2018-03-28T09:13:02Z</time>
      </trkpt>
      <trkpt lat="36.8073950" lon="-4.4498480">
        <ele>429.9</ele>
        <time>2018-03-28T09:13:03Z</time>
      </trkpt>
      <trkpt lat="36.8073950" lon="-4.4498480">
        <ele>430.9</ele>
        <time>2018-03-28T09:13:04Z</time>
      </trkpt>
      <trkpt lat="36.8073970" lon="-4.4499150">
        <ele>430.9</ele>
        <time>2018-03-28T09:13:05Z</time>
      </trkpt>
      <trkpt lat="36.8073970" lon="-4.4499150">
        <ele>430.9</ele>
        <time>2018-03-28T09:13:06Z</time>
      </trkpt>
      <trkpt lat="36.8073900" lon="-4.4499780">
        <ele>430.9</ele>
        <time>2018-03-28T09:13:07Z</time>
      </trkpt>
      <trkpt lat="36.8073820" lon="-4.4500100">
        <ele>430.9</ele>
        <time>2018-03-28T09:13:08Z</time>
      </trkpt>
      <trkpt lat="36.8073820" lon="-4.4500100">
        <ele>430.9</ele>
        <time>2018-03-28T09:13:09Z</time>
      </trkpt>
      <trkpt lat="36.8073550" lon="-4.4500680">
        <ele>430.9</ele>
        <time>2018-03-28T09:13:10Z</time>
      </trkpt>
      <trkpt lat="36.8073550" lon="-4.4500680">
        <ele>430.9</ele>
        <time>2018-03-28T09:13:11Z</time>
      </trkpt>
      <trkpt lat="36.8073220" lon="-4.4501130">
        <ele>431.9</ele>
        <time>2018-03-28T09:13:12Z</time>
      </trkpt>
      <trkpt lat="36.8072980" lon="-4.4501320">
        <ele>431.9</ele>
        <time>2018-03-28T09:13:13Z</time>
      </trkpt>
      <trkpt lat="36.8072770" lon="-4.4501500">
        <ele>431.9</ele>
        <time>2018-03-28T09:13:14Z</time>
      </trkpt>
      <trkpt lat="36.8072770" lon="-4.4501500">
        <ele>431.9</ele>
        <time>2018-03-28T09:13:15Z</time>
      </trkpt>
      <trkpt lat="36.8072270" lon="-4.4501830">
        <ele>431.9</ele>
        <time>2018-03-28T09:13:16Z</time>
      </trkpt>
      <trkpt lat="36.8072270" lon="-4.4501830">
        <ele>431.9</ele>
        <time>2018-03-28T09:13:17Z</time>
      </trkpt>
      <trkpt lat="36.8071730" lon="-4.4502150">
        <ele>432.9</ele>
        <time>2018-03-28T09:13:18Z</time>
      </trkpt>
      <trkpt lat="36.8071730" lon="-4.4502150">
        <ele>432.9</ele>
        <time>2018-03-28T09:13:19Z</time>
      </trkpt>
      <trkpt lat="36.8071250" lon="-4.4502480">
        <ele>432.9</ele>
        <time>2018-03-28T09:13:20Z</time>
      </trkpt>
      <trkpt lat="36.8071250" lon="-4.4502480">
        <ele>432.9</ele>
        <time>2018-03-28T09:13:21Z</time>
      </trkpt>
      <trkpt lat="36.8070800" lon="-4.4502830">
        <ele>432.9</ele>
        <time>2018-03-28T09:13:22Z</time>
      </trkpt>
      <trkpt lat="36.8070800" lon="-4.4502830">
        <ele>432.9</ele>
        <time>2018-03-28T09:13:23Z</time>
      </trkpt>
      <trkpt lat="36.8070380" lon="-4.4503150">
        <ele>433.9</ele>
        <time>2018-03-28T09:13:24Z</time>
      </trkpt>
      <trkpt lat="36.8070380" lon="-4.4503150">
        <ele>433.9</ele>
        <time>2018-03-28T09:13:25Z</time>
      </trkpt>
      <trkpt lat="36.8069970" lon="-4.4503470">
        <ele>433.9</ele>
        <time>2018-03-28T09:13:26Z</time>
      </trkpt>
      <trkpt lat="36.8069750" lon="-4.4503630">
        <ele>433.9</ele>
        <time>2018-03-28T09:13:27Z</time>
      </trkpt>
      <trkpt lat="36.8069580" lon="-4.4503830">
        <ele>434.9</ele>
        <time>2018-03-28T09:13:28Z</time>
      </trkpt>
      <trkpt lat="36.8069580" lon="-4.4503830">
        <ele>434.9</ele>
        <time>2018-03-28T09:13:29Z</time>
      </trkpt>
      <trkpt lat="36.8069220" lon="-4.4504270">
        <ele>434.9</ele>
        <time>2018-03-28T09:13:30Z</time>
      </trkpt>
      <trkpt lat="36.8069220" lon="-4.4504270">
        <ele>434.9</ele>
        <time>2018-03-28T09:13:31Z</time>
      </trkpt>
      <trkpt lat="36.8068800" lon="-4.4504650">
        <ele>435.9</ele>
        <time>2018-03-28T09:13:32Z</time>
      </trkpt>
      <trkpt lat="36.8068800" lon="-4.4504650">
        <ele>435.9</ele>
        <time>2018-03-28T09:13:33Z</time>
      </trkpt>
      <trkpt lat="36.8068450" lon="-4.4505080">
        <ele>435.9</ele>
        <time>2018-03-28T09:13:34Z</time>
      </trkpt>
      <trkpt lat="36.8068450" lon="-4.4505080">
        <ele>435.9</ele>
        <time>2018-03-28T09:13:35Z</time>
      </trkpt>
      <trkpt lat="36.8068070" lon="-4.4505680">
        <ele>435.9</ele>
        <time>2018-03-28T09:13:36Z</time>
      </trkpt>
      <trkpt lat="36.8068070" lon="-4.4505680">
        <ele>435.9</ele>
        <time>2018-03-28T09:13:37Z</time>
      </trkpt>
      <trkpt lat="36.8067750" lon="-4.4506220">
        <ele>436.9</ele>
        <time>2018-03-28T09:13:38Z</time>
      </trkpt>
      <trkpt lat="36.8067750" lon="-4.4506220">
        <ele>436.9</ele>
        <time>2018-03-28T09:13:39Z</time>
      </trkpt>
      <trkpt lat="36.8067470" lon="-4.4506680">
        <ele>436.9</ele>
        <time>2018-03-28T09:13:40Z</time>
      </trkpt>
      <trkpt lat="36.8067300" lon="-4.4506860">
        <ele>436.9</ele>
        <time>2018-03-28T09:13:41Z</time>
      </trkpt>
      <trkpt lat="36.8067120" lon="-4.4507030">
        <ele>437.9</ele>
        <time>2018-03-28T09:13:42Z</time>
      </trkpt>
      <trkpt lat="36.8067120" lon="-4.4507030">
        <ele>437.9</ele>
        <time>2018-03-28T09:13:43Z</time>
      </trkpt>
      <trkpt lat="36.8066750" lon="-4.4507380">
        <ele>437.9</ele>
        <time>2018-03-28T09:13:44Z</time>
      </trkpt>
      <trkpt lat="36.8066750" lon="-4.4507380">
        <ele>437.9</ele>
        <time>2018-03-28T09:13:45Z</time>
      </trkpt>
      <trkpt lat="36.8066370" lon="-4.4507750">
        <ele>438.9</ele>
        <time>2018-03-28T09:13:46Z</time>
      </trkpt>
      <trkpt lat="36.8066370" lon="-4.4507750">
        <ele>438.9</ele>
        <time>2018-03-28T09:13:47Z</time>
      </trkpt>
      <trkpt lat="36.8065950" lon="-4.4507970">
        <ele>438.9</ele>
        <time>2018-03-28T09:13:48Z</time>
      </trkpt>
      <trkpt lat="36.8065950" lon="-4.4507970">
        <ele>438.9</ele>
        <time>2018-03-28T09:13:49Z</time>
      </trkpt>
      <trkpt lat="36.8065520" lon="-4.4508150">
        <ele>438.9</ele>
        <time>2018-03-28T09:13:50Z</time>
      </trkpt>
      <trkpt lat="36.8065520" lon="-4.4508150">
        <ele>439.9</ele>
        <time>2018-03-28T09:13:51Z</time>
      </trkpt>
      <trkpt lat="36.8065130" lon="-4.4508350">
        <ele>439.9</ele>
        <time>2018-03-28T09:13:52Z</time>
      </trkpt>
      <trkpt lat="36.8064960" lon="-4.4508520">
        <ele>439.9</ele>
        <time>2018-03-28T09:13:53Z</time>
      </trkpt>
      <trkpt lat="36.8064780" lon="-4.4508680">
        <ele>439.9</ele>
        <time>2018-03-28T09:13:54Z</time>
      </trkpt>
      <trkpt lat="36.8064780" lon="-4.4508680">
        <ele>439.9</ele>
        <time>2018-03-28T09:13:55Z</time>
      </trkpt>
      <trkpt lat="36.8064520" lon="-4.4509150">
        <ele>440.9</ele>
        <time>2018-03-28T09:13:56Z</time>
      </trkpt>
      <trkpt lat="36.8064480" lon="-4.4509470">
        <ele>440.9</ele>
        <time>2018-03-28T09:13:57Z</time>
      </trkpt>
      <trkpt lat="36.8064430" lon="-4.4509780">
        <ele>440.9</ele>
        <time>2018-03-28T09:13:58Z</time>
      </trkpt>
      <trkpt lat="36.8064510" lon="-4.4510100">
        <ele>440.9</ele>
        <time>2018-03-28T09:13:59Z</time>
      </trkpt>
      <trkpt lat="36.8064580" lon="-4.4510420">
        <ele>440.9</ele>
        <time>2018-03-28T09:14:00Z</time>
      </trkpt>
      <trkpt lat="36.8064580" lon="-4.4510420">
        <ele>440.9</ele>
        <time>2018-03-28T09:14:01Z</time>
      </trkpt>
      <trkpt lat="36.8064870" lon="-4.4510980">
        <ele>441.9</ele>
        <time>2018-03-28T09:14:02Z</time>
      </trkpt>
      <trkpt lat="36.8065080" lon="-4.4511200">
        <ele>441.9</ele>
        <time>2018-03-28T09:14:03Z</time>
      </trkpt>
      <trkpt lat="36.8065080" lon="-4.4511200">
        <ele>441.9</ele>
        <time>2018-03-28T09:14:04Z</time>
      </trkpt>
      <trkpt lat="36.8065520" lon="-4.4511500">
        <ele>441.9</ele>
        <time>2018-03-28T09:14:05Z</time>
      </trkpt>
      <trkpt lat="36.8065750" lon="-4.4511700">
        <ele>441.9</ele>
        <time>2018-03-28T09:14:06Z</time>
      </trkpt>
      <trkpt lat="36.8065750" lon="-4.4511700">
        <ele>441.9</ele>
        <time>2018-03-28T09:14:07Z</time>
      </trkpt>
      <trkpt lat="36.8066280" lon="-4.4512020">
        <ele>441.9</ele>
        <time>2018-03-28T09:14:08Z</time>
      </trkpt>
      <trkpt lat="36.8066580" lon="-4.4512130">
        <ele>441.9</ele>
        <time>2018-03-28T09:14:09Z</time>
      </trkpt>
      <trkpt lat="36.8066580" lon="-4.4512130">
        <ele>441.9</ele>
        <time>2018-03-28T09:14:10Z</time>
      </trkpt>
      <trkpt lat="36.8067200" lon="-4.4512280">
        <ele>441.9</ele>
        <time>2018-03-28T09:14:11Z</time>
      </trkpt>
      <trkpt lat="36.8067520" lon="-4.4512330">
        <ele>441.9</ele>
        <time>2018-03-28T09:14:12Z</time>
      </trkpt>
      <trkpt lat="36.8067520" lon="-4.4512330">
        <ele>441.9</ele>
        <time>2018-03-28T09:14:13Z</time>
      </trkpt>
      <trkpt lat="36.8068100" lon="-4.4512450">
        <ele>441.9</ele>
        <time>2018-03-28T09:14:14Z</time>
      </trkpt>
      <trkpt lat="36.8068100" lon="-4.4512450">
        <ele>441.9</ele>
        <time>2018-03-28T09:14:15Z</time>
      </trkpt>
      <trkpt lat="36.8068670" lon="-4.4512470">
        <ele>441.9</ele>
        <time>2018-03-28T09:14:16Z</time>
      </trkpt>
      <trkpt lat="36.8068670" lon="-4.4512470">
        <ele>442.9</ele>
        <time>2018-03-28T09:14:17Z</time>
      </trkpt>
      <trkpt lat="36.8069270" lon="-4.4512380">
        <ele>442.9</ele>
        <time>2018-03-28T09:14:18Z</time>
      </trkpt>
      <trkpt lat="36.8069570" lon="-4.4512300">
        <ele>442.9</ele>
        <time>2018-03-28T09:14:19Z</time>
      </trkpt>
      <trkpt lat="36.8069570" lon="-4.4512300">
        <ele>443.9</ele>
        <time>2018-03-28T09:14:20Z</time>
      </trkpt>
      <trkpt lat="36.8070170" lon="-4.4512170">
        <ele>443.9</ele>
        <time>2018-03-28T09:14:21Z</time>
      </trkpt>
      <trkpt lat="36.8070170" lon="-4.4512170">
        <ele>443.9</ele>
        <time>2018-03-28T09:14:22Z</time>
      </trkpt>
      <trkpt lat="36.8070800" lon="-4.4512130">
        <ele>443.9</ele>
        <time>2018-03-28T09:14:23Z</time>
      </trkpt>
      <trkpt lat="36.8071100" lon="-4.4512180">
        <ele>444.9</ele>
        <time>2018-03-28T09:14:24Z</time>
      </trkpt>
      <trkpt lat="36.8071100" lon="-4.4512180">
        <ele>444.9</ele>
        <time>2018-03-28T09:14:25Z</time>
      </trkpt>
      <trkpt lat="36.8071720" lon="-4.4512270">
        <ele>444.9</ele>
        <time>2018-03-28T09:14:26Z</time>
      </trkpt>
      <trkpt lat="36.8072000" lon="-4.4512370">
        <ele>444.9</ele>
        <time>2018-03-28T09:14:27Z</time>
      </trkpt>
      <trkpt lat="36.8072280" lon="-4.4512500">
        <ele>444.9</ele>
        <time>2018-03-28T09:14:28Z</time>
      </trkpt>
      <trkpt lat="36.8072280" lon="-4.4512500">
        <ele>444.9</ele>
        <time>2018-03-28T09:14:29Z</time>
      </trkpt>
      <trkpt lat="36.8072850" lon="-4.4512880">
        <ele>444.9</ele>
        <time>2018-03-28T09:14:30Z</time>
      </trkpt>
      <trkpt lat="36.8072990" lon="-4.4512970">
        <ele>444.9</ele>
        <time>2018-03-28T09:14:31Z</time>
      </trkpt>
      <trkpt lat="36.8073130" lon="-4.4513070">
        <ele>444.9</ele>
        <time>2018-03-28T09:14:32Z</time>
      </trkpt>
      <trkpt lat="36.8073400" lon="-4.4513270">
        <ele>444.9</ele>
        <time>2018-03-28T09:14:33Z</time>
      </trkpt>
      <trkpt lat="36.8073880" lon="-4.4513700">
        <ele>445.9</ele>
        <time>2018-03-28T09:14:34Z</time>
      </trkpt>
      <trkpt lat="36.8074180" lon="-4.4513900">
        <ele>445.9</ele>
        <time>2018-03-28T09:14:35Z</time>
      </trkpt>
      <trkpt lat="36.8074450" lon="-4.4514070">
        <ele>445.9</ele>
        <time>2018-03-28T09:14:36Z</time>
      </trkpt>
      <trkpt lat="36.8074450" lon="-4.4514070">
        <ele>445.9</ele>
        <time>2018-03-28T09:14:37Z</time>
      </trkpt>
      <trkpt lat="36.8074920" lon="-4.4514330">
        <ele>445.9</ele>
        <time>2018-03-28T09:14:38Z</time>
      </trkpt>
      <trkpt lat="36.8074920" lon="-4.4514330">
        <ele>445.9</ele>
        <time>2018-03-28T09:14:39Z</time>
      </trkpt>
      <trkpt lat="36.8075450" lon="-4.4514600">
        <ele>445.9</ele>
        <time>2018-03-28T09:14:40Z</time>
      </trkpt>
      <trkpt lat="36.8075450" lon="-4.4514600">
        <ele>445.9</ele>
        <time>2018-03-28T09:14:41Z</time>
      </trkpt>
      <trkpt lat="36.8076000" lon="-4.4514830">
        <ele>445.9</ele>
        <time>2018-03-28T09:14:42Z</time>
      </trkpt>
      <trkpt lat="36.8076000" lon="-4.4514830">
        <ele>445.9</ele>
        <time>2018-03-28T09:14:43Z</time>
      </trkpt>
      <trkpt lat="36.8076550" lon="-4.4514970">
        <ele>445.9</ele>
        <time>2018-03-28T09:14:44Z</time>
      </trkpt>
      <trkpt lat="36.8076550" lon="-4.4514970">
        <ele>445.9</ele>
        <time>2018-03-28T09:14:45Z</time>
      </trkpt>
      <trkpt lat="36.8077180" lon="-4.4514930">
        <ele>446.9</ele>
        <time>2018-03-28T09:14:46Z</time>
      </trkpt>
      <trkpt lat="36.8077180" lon="-4.4514930">
        <ele>446.9</ele>
        <time>2018-03-28T09:14:47Z</time>
      </trkpt>
      <trkpt lat="36.8077830" lon="-4.4514850">
        <ele>446.9</ele>
        <time>2018-03-28T09:14:48Z</time>
      </trkpt>
      <trkpt lat="36.8077830" lon="-4.4514850">
        <ele>446.9</ele>
        <time>2018-03-28T09:14:49Z</time>
      </trkpt>
      <trkpt lat="36.8078500" lon="-4.4514730">
        <ele>446.9</ele>
        <time>2018-03-28T09:14:50Z</time>
      </trkpt>
      <trkpt lat="36.8078800" lon="-4.4514650">
        <ele>446.9</ele>
        <time>2018-03-28T09:14:51Z</time>
      </trkpt>
      <trkpt lat="36.8078800" lon="-4.4514650">
        <ele>446.9</ele>
        <time>2018-03-28T09:14:52Z</time>
      </trkpt>
      <trkpt lat="36.8079420" lon="-4.4514500">
        <ele>446.9</ele>
        <time>2018-03-28T09:14:53Z</time>
      </trkpt>
      <trkpt lat="36.8079700" lon="-4.4514480">
        <ele>446.9</ele>
        <time>2018-03-28T09:14:54Z</time>
      </trkpt>
      <trkpt lat="36.8079700" lon="-4.4514480">
        <ele>447.9</ele>
        <time>2018-03-28T09:14:55Z</time>
      </trkpt>
      <trkpt lat="36.8080270" lon="-4.4514520">
        <ele>447.9</ele>
        <time>2018-03-28T09:14:56Z</time>
      </trkpt>
      <trkpt lat="36.8080270" lon="-4.4514520">
        <ele>447.9</ele>
        <time>2018-03-28T09:14:57Z</time>
      </trkpt>
      <trkpt lat="36.8080800" lon="-4.4514430">
        <ele>447.9</ele>
        <time>2018-03-28T09:14:58Z</time>
      </trkpt>
      <trkpt lat="36.8081070" lon="-4.4514370">
        <ele>447.9</ele>
        <time>2018-03-28T09:14:59Z</time>
      </trkpt>
      <trkpt lat="36.8081070" lon="-4.4514370">
        <ele>447.9</ele>
        <time>2018-03-28T09:15:00Z</time>
      </trkpt>
      <trkpt lat="36.8081670" lon="-4.4514330">
        <ele>447.9</ele>
        <time>2018-03-28T09:15:01Z</time>
      </trkpt>
      <trkpt lat="36.8081670" lon="-4.4514330">
        <ele>447.9</ele>
        <time>2018-03-28T09:15:02Z</time>
      </trkpt>
      <trkpt lat="36.8082220" lon="-4.4514320">
        <ele>447.9</ele>
        <time>2018-03-28T09:15:03Z</time>
      </trkpt>
      <trkpt lat="36.8082480" lon="-4.4514280">
        <ele>448.9</ele>
        <time>2018-03-28T09:15:04Z</time>
      </trkpt>
      <trkpt lat="36.8082480" lon="-4.4514280">
        <ele>448.9</ele>
        <time>2018-03-28T09:15:05Z</time>
      </trkpt>
      <trkpt lat="36.8083070" lon="-4.4514370">
        <ele>448.9</ele>
        <time>2018-03-28T09:15:06Z</time>
      </trkpt>
      <trkpt lat="36.8083070" lon="-4.4514370">
        <ele>448.9</ele>
        <time>2018-03-28T09:15:07Z</time>
      </trkpt>
      <trkpt lat="36.8083600" lon="-4.4514570">
        <ele>449.9</ele>
        <time>2018-03-28T09:15:08Z</time>
      </trkpt>
      <trkpt lat="36.8083600" lon="-4.4514570">
        <ele>449.9</ele>
        <time>2018-03-28T09:15:09Z</time>
      </trkpt>
      <trkpt lat="36.8084090" lon="-4.4515140">
        <ele>449.9</ele>
        <time>2018-03-28T09:15:10Z</time>
      </trkpt>
      <trkpt lat="36.8084150" lon="-4.4515300">
        <ele>449.9</ele>
        <time>2018-03-28T09:15:11Z</time>
      </trkpt>
      <trkpt lat="36.8084270" lon="-4.4515620">
        <ele>450.9</ele>
        <time>2018-03-28T09:15:12Z</time>
      </trkpt>
      <trkpt lat="36.8084270" lon="-4.4515620">
        <ele>450.9</ele>
        <time>2018-03-28T09:15:13Z</time>
      </trkpt>
      <trkpt lat="36.8084330" lon="-4.4516220">
        <ele>450.9</ele>
        <time>2018-03-28T09:15:14Z</time>
      </trkpt>
      <trkpt lat="36.8084300" lon="-4.4516530">
        <ele>450.9</ele>
        <time>2018-03-28T09:15:15Z</time>
      </trkpt>
      <trkpt lat="36.8084300" lon="-4.4516530">
        <ele>451.9</ele>
        <time>2018-03-28T09:15:16Z</time>
      </trkpt>
      <trkpt lat="36.8084120" lon="-4.4517130">
        <ele>451.9</ele>
        <time>2018-03-28T09:15:17Z</time>
      </trkpt>
      <trkpt lat="36.8084120" lon="-4.4517130">
        <ele>451.9</ele>
        <time>2018-03-28T09:15:18Z</time>
      </trkpt>
      <trkpt lat="36.8083800" lon="-4.4517650">
        <ele>451.9</ele>
        <time>2018-03-28T09:15:19Z</time>
      </trkpt>
      <trkpt lat="36.8083570" lon="-4.4517850">
        <ele>451.9</ele>
        <time>2018-03-28T09:15:20Z</time>
      </trkpt>
      <trkpt lat="36.8083570" lon="-4.4517850">
        <ele>453.9</ele>
        <time>2018-03-28T09:15:21Z</time>
      </trkpt>
      <trkpt lat="36.8083100" lon="-4.4518080">
        <ele>453.9</ele>
        <time>2018-03-28T09:15:22Z</time>
      </trkpt>
      <trkpt lat="36.8083100" lon="-4.4518080">
        <ele>453.9</ele>
        <time>2018-03-28T09:15:23Z</time>
      </trkpt>
      <trkpt lat="36.8082700" lon="-4.4518350">
        <ele>453.9</ele>
        <time>2018-03-28T09:15:24Z</time>
      </trkpt>
      <trkpt lat="36.8082700" lon="-4.4518350">
        <ele>454.9</ele>
        <time>2018-03-28T09:15:25Z</time>
      </trkpt>
      <trkpt lat="36.8082230" lon="-4.4518570">
        <ele>454.9</ele>
        <time>2018-03-28T09:15:26Z</time>
      </trkpt>
      <trkpt lat="36.8082230" lon="-4.4518570">
        <ele>454.9</ele>
        <time>2018-03-28T09:15:27Z</time>
      </trkpt>
      <trkpt lat="36.8081770" lon="-4.4518830">
        <ele>454.9</ele>
        <time>2018-03-28T09:15:28Z</time>
      </trkpt>
      <trkpt lat="36.8081550" lon="-4.4518980">
        <ele>455.9</ele>
        <time>2018-03-28T09:15:29Z</time>
      </trkpt>
      <trkpt lat="36.8081550" lon="-4.4518980">
        <ele>455.9</ele>
        <time>2018-03-28T09:15:30Z</time>
      </trkpt>
      <trkpt lat="36.8081100" lon="-4.4519280">
        <ele>455.9</ele>
        <time>2018-03-28T09:15:31Z</time>
      </trkpt>
      <trkpt lat="36.8081100" lon="-4.4519280">
        <ele>455.9</ele>
        <time>2018-03-28T09:15:32Z</time>
      </trkpt>
      <trkpt lat="36.8080600" lon="-4.4519500">
        <ele>456.9</ele>
        <time>2018-03-28T09:15:33Z</time>
      </trkpt>
      <trkpt lat="36.8080330" lon="-4.4519600">
        <ele>456.9</ele>
        <time>2018-03-28T09:15:34Z</time>
      </trkpt>
      <trkpt lat="36.8080330" lon="-4.4519600">
        <ele>456.9</ele>
        <time>2018-03-28T09:15:35Z</time>
      </trkpt>
      <trkpt lat="36.8079820" lon="-4.4519820">
        <ele>456.9</ele>
        <time>2018-03-28T09:15:36Z</time>
      </trkpt>
      <trkpt lat="36.8079820" lon="-4.4519820">
        <ele>456.9</ele>
        <time>2018-03-28T09:15:37Z</time>
      </trkpt>
      <trkpt lat="36.8079320" lon="-4.4520000">
        <ele>456.9</ele>
        <time>2018-03-28T09:15:38Z</time>
      </trkpt>
      <trkpt lat="36.8079320" lon="-4.4520000">
        <ele>456.9</ele>
        <time>2018-03-28T09:15:39Z</time>
      </trkpt>
      <trkpt lat="36.8078870" lon="-4.4520200">
        <ele>456.9</ele>
        <time>2018-03-28T09:15:40Z</time>
      </trkpt>
      <trkpt lat="36.8078870" lon="-4.4520200">
        <ele>456.9</ele>
        <time>2018-03-28T09:15:41Z</time>
      </trkpt>
      <trkpt lat="36.8078420" lon="-4.4520370">
        <ele>456.9</ele>
        <time>2018-03-28T09:15:42Z</time>
      </trkpt>
      <trkpt lat="36.8078420" lon="-4.4520370">
        <ele>457.9</ele>
        <time>2018-03-28T09:15:43Z</time>
      </trkpt>
      <trkpt lat="36.8077880" lon="-4.4520470">
        <ele>457.9</ele>
        <time>2018-03-28T09:15:44Z</time>
      </trkpt>
      <trkpt lat="36.8077880" lon="-4.4520470">
        <ele>457.9</ele>
        <time>2018-03-28T09:15:45Z</time>
      </trkpt>
      <trkpt lat="36.8077330" lon="-4.4520500">
        <ele>457.9</ele>
        <time>2018-03-28T09:15:46Z</time>
      </trkpt>
      <trkpt lat="36.8077330" lon="-4.4520500">
        <ele>458.9</ele>
        <time>2018-03-28T09:15:47Z</time>
      </trkpt>
      <trkpt lat="36.8076830" lon="-4.4520580">
        <ele>458.9</ele>
        <time>2018-03-28T09:15:48Z</time>
      </trkpt>
      <trkpt lat="36.8076830" lon="-4.4520580">
        <ele>458.9</ele>
        <time>2018-03-28T09:15:49Z</time>
      </trkpt>
      <trkpt lat="36.8076320" lon="-4.4520630">
        <ele>459.9</ele>
        <time>2018-03-28T09:15:50Z</time>
      </trkpt>
      <trkpt lat="36.8076320" lon="-4.4520630">
        <ele>459.9</ele>
        <time>2018-03-28T09:15:51Z</time>
      </trkpt>
      <trkpt lat="36.8075800" lon="-4.4520630">
        <ele>459.9</ele>
        <time>2018-03-28T09:15:52Z</time>
      </trkpt>
      <trkpt lat="36.8075530" lon="-4.4520680">
        <ele>459.9</ele>
        <time>2018-03-28T09:15:53Z</time>
      </trkpt>
      <trkpt lat="36.8075530" lon="-4.4520680">
        <ele>460.9</ele>
        <time>2018-03-28T09:15:54Z</time>
      </trkpt>
      <trkpt lat="36.8075030" lon="-4.4520780">
        <ele>460.9</ele>
        <time>2018-03-28T09:15:55Z</time>
      </trkpt>
      <trkpt lat="36.8074800" lon="-4.4520880">
        <ele>460.9</ele>
        <time>2018-03-28T09:15:56Z</time>
      </trkpt>
      <trkpt lat="36.8074800" lon="-4.4520880">
        <ele>460.9</ele>
        <time>2018-03-28T09:15:57Z</time>
      </trkpt>
      <trkpt lat="36.8074300" lon="-4.4521130">
        <ele>460.9</ele>
        <time>2018-03-28T09:15:58Z</time>
      </trkpt>
      <trkpt lat="36.8074300" lon="-4.4521130">
        <ele>460.9</ele>
        <time>2018-03-28T09:15:59Z</time>
      </trkpt>
      <trkpt lat="36.8073830" lon="-4.4521420">
        <ele>461.9</ele>
        <time>2018-03-28T09:16:00Z</time>
      </trkpt>
      <trkpt lat="36.8073830" lon="-4.4521420">
        <ele>461.9</ele>
        <time>2018-03-28T09:16:01Z</time>
      </trkpt>
      <trkpt lat="36.8073370" lon="-4.4521750">
        <ele>461.9</ele>
        <time>2018-03-28T09:16:02Z</time>
      </trkpt>
      <trkpt lat="36.8073370" lon="-4.4521750">
        <ele>461.9</ele>
        <time>2018-03-28T09:16:03Z</time>
      </trkpt>
      <trkpt lat="36.8072930" lon="-4.4522200">
        <ele>462.9</ele>
        <time>2018-03-28T09:16:04Z</time>
      </trkpt>
      <trkpt lat="36.8072930" lon="-4.4522200">
        <ele>462.9</ele>
        <time>2018-03-28T09:16:05Z</time>
      </trkpt>
      <trkpt lat="36.8072480" lon="-4.4522580">
        <ele>462.9</ele>
        <time>2018-03-28T09:16:06Z</time>
      </trkpt>
      <trkpt lat="36.8072480" lon="-4.4522580">
        <ele>462.9</ele>
        <time>2018-03-28T09:16:07Z</time>
      </trkpt>
      <trkpt lat="36.8072030" lon="-4.4522970">
        <ele>462.9</ele>
        <time>2018-03-28T09:16:08Z</time>
      </trkpt>
      <trkpt lat="36.8071780" lon="-4.4523170">
        <ele>462.9</ele>
        <time>2018-03-28T09:16:09Z</time>
      </trkpt>
      <trkpt lat="36.8071610" lon="-4.4523310">
        <ele>463.9</ele>
        <time>2018-03-28T09:16:10Z</time>
      </trkpt>
      <trkpt lat="36.8071430" lon="-4.4523440">
        <ele>463.9</ele>
        <time>2018-03-28T09:16:11Z</time>
      </trkpt>
      <trkpt lat="36.8071070" lon="-4.4523700">
        <ele>463.9</ele>
        <time>2018-03-28T09:16:12Z</time>
      </trkpt>
      <trkpt lat="36.8071070" lon="-4.4523700">
        <ele>463.9</ele>
        <time>2018-03-28T09:16:13Z</time>
      </trkpt>
      <trkpt lat="36.8070670" lon="-4.4524120">
        <ele>463.9</ele>
        <time>2018-03-28T09:16:14Z</time>
      </trkpt>
      <trkpt lat="36.8070670" lon="-4.4524120">
        <ele>463.9</ele>
        <time>2018-03-28T09:16:15Z</time>
      </trkpt>
      <trkpt lat="36.8070230" lon="-4.4524520">
        <ele>463.9</ele>
        <time>2018-03-28T09:16:16Z</time>
      </trkpt>
      <trkpt lat="36.8070230" lon="-4.4524520">
        <ele>463.9</ele>
        <time>2018-03-28T09:16:17Z</time>
      </trkpt>
      <trkpt lat="36.8069720" lon="-4.4524780">
        <ele>463.9</ele>
        <time>2018-03-28T09:16:18Z</time>
      </trkpt>
      <trkpt lat="36.8069430" lon="-4.4524880">
        <ele>463.9</ele>
        <time>2018-03-28T09:16:19Z</time>
      </trkpt>
      <trkpt lat="36.8069430" lon="-4.4524880">
        <ele>463.9</ele>
        <time>2018-03-28T09:16:20Z</time>
      </trkpt>
      <trkpt lat="36.8068880" lon="-4.4525030">
        <ele>463.9</ele>
        <time>2018-03-28T09:16:21Z</time>
      </trkpt>
      <trkpt lat="36.8068880" lon="-4.4525030">
        <ele>464.9</ele>
        <time>2018-03-28T09:16:22Z</time>
      </trkpt>
      <trkpt lat="36.8068320" lon="-4.4525080">
        <ele>464.9</ele>
        <time>2018-03-28T09:16:23Z</time>
      </trkpt>
      <trkpt lat="36.8068020" lon="-4.4525030">
        <ele>464.9</ele>
        <time>2018-03-28T09:16:24Z</time>
      </trkpt>
      <trkpt lat="36.8068020" lon="-4.4525030">
        <ele>464.9</ele>
        <time>2018-03-28T09:16:25Z</time>
      </trkpt>
      <trkpt lat="36.8067470" lon="-4.4524870">
        <ele>464.9</ele>
        <time>2018-03-28T09:16:26Z</time>
      </trkpt>
      <trkpt lat="36.8067470" lon="-4.4524870">
        <ele>464.9</ele>
        <time>2018-03-28T09:16:27Z</time>
      </trkpt>
      <trkpt lat="36.8066900" lon="-4.4524650">
        <ele>465.9</ele>
        <time>2018-03-28T09:16:28Z</time>
      </trkpt>
      <trkpt lat="36.8066900" lon="-4.4524650">
        <ele>465.9</ele>
        <time>2018-03-28T09:16:29Z</time>
      </trkpt>
      <trkpt lat="36.8066380" lon="-4.4524420">
        <ele>465.9</ele>
        <time>2018-03-28T09:16:30Z</time>
      </trkpt>
      <trkpt lat="36.8066380" lon="-4.4524420">
        <ele>465.9</ele>
        <time>2018-03-28T09:16:31Z</time>
      </trkpt>
      <trkpt lat="36.8065830" lon="-4.4524280">
        <ele>465.9</ele>
        <time>2018-03-28T09:16:32Z</time>
      </trkpt>
      <trkpt lat="36.8065550" lon="-4.4524230">
        <ele>465.9</ele>
        <time>2018-03-28T09:16:33Z</time>
      </trkpt>
      <trkpt lat="36.8065550" lon="-4.4524230">
        <ele>466.9</ele>
        <time>2018-03-28T09:16:34Z</time>
      </trkpt>
      <trkpt lat="36.8065000" lon="-4.4524280">
        <ele>466.9</ele>
        <time>2018-03-28T09:16:35Z</time>
      </trkpt>
      <trkpt lat="36.8064720" lon="-4.4524350">
        <ele>466.9</ele>
        <time>2018-03-28T09:16:36Z</time>
      </trkpt>
      <trkpt lat="36.8064450" lon="-4.4524450">
        <ele>466.9</ele>
        <time>2018-03-28T09:16:37Z</time>
      </trkpt>
      <trkpt lat="36.8064450" lon="-4.4524450">
        <ele>466.9</ele>
        <time>2018-03-28T09:16:38Z</time>
      </trkpt>
      <trkpt lat="36.8063930" lon="-4.4524770">
        <ele>466.9</ele>
        <time>2018-03-28T09:16:39Z</time>
      </trkpt>
      <trkpt lat="36.8063930" lon="-4.4524770">
        <ele>466.9</ele>
        <time>2018-03-28T09:16:40Z</time>
      </trkpt>
      <trkpt lat="36.8063450" lon="-4.4525150">
        <ele>466.9</ele>
        <time>2018-03-28T09:16:41Z</time>
      </trkpt>
      <trkpt lat="36.8063450" lon="-4.4525150">
        <ele>466.9</ele>
        <time>2018-03-28T09:16:42Z</time>
      </trkpt>
      <trkpt lat="36.8063020" lon="-4.4525570">
        <ele>466.9</ele>
        <time>2018-03-28T09:16:43Z</time>
      </trkpt>
      <trkpt lat="36.8063020" lon="-4.4525570">
        <ele>466.9</ele>
        <time>2018-03-28T09:16:44Z</time>
      </trkpt>
      <trkpt lat="36.8062570" lon="-4.4526000">
        <ele>467.9</ele>
        <time>2018-03-28T09:16:45Z</time>
      </trkpt>
      <trkpt lat="36.8062570" lon="-4.4526000">
        <ele>467.9</ele>
        <time>2018-03-28T09:16:46Z</time>
      </trkpt>
      <trkpt lat="36.8062170" lon="-4.4526520">
        <ele>467.9</ele>
        <time>2018-03-28T09:16:47Z</time>
      </trkpt>
      <trkpt lat="36.8061970" lon="-4.4526770">
        <ele>467.9</ele>
        <time>2018-03-28T09:16:48Z</time>
      </trkpt>
      <trkpt lat="36.8061970" lon="-4.4526770">
        <ele>467.9</ele>
        <time>2018-03-28T09:16:49Z</time>
      </trkpt>
      <trkpt lat="36.8061570" lon="-4.4527270">
        <ele>468.9</ele>
        <time>2018-03-28T09:16:50Z</time>
      </trkpt>
      <trkpt lat="36.8061570" lon="-4.4527270">
        <ele>468.9</ele>
        <time>2018-03-28T09:16:51Z</time>
      </trkpt>
      <trkpt lat="36.8061120" lon="-4.4527700">
        <ele>468.9</ele>
        <time>2018-03-28T09:16:52Z</time>
      </trkpt>
      <trkpt lat="36.8061120" lon="-4.4527700">
        <ele>468.9</ele>
        <time>2018-03-28T09:16:53Z</time>
      </trkpt>
      <trkpt lat="36.8060630" lon="-4.4528180">
        <ele>469.9</ele>
        <time>2018-03-28T09:16:54Z</time>
      </trkpt>
      <trkpt lat="36.8060630" lon="-4.4528180">
        <ele>469.9</ele>
        <time>2018-03-28T09:16:55Z</time>
      </trkpt>
      <trkpt lat="36.8060170" lon="-4.4528620">
        <ele>469.9</ele>
        <time>2018-03-28T09:16:56Z</time>
      </trkpt>
      <trkpt lat="36.8060170" lon="-4.4528620">
        <ele>469.9</ele>
        <time>2018-03-28T09:16:57Z</time>
      </trkpt>
      <trkpt lat="36.8059680" lon="-4.4529050">
        <ele>470.9</ele>
        <time>2018-03-28T09:16:58Z</time>
      </trkpt>
      <trkpt lat="36.8059450" lon="-4.4529300">
        <ele>470.9</ele>
        <time>2018-03-28T09:16:59Z</time>
      </trkpt>
      <trkpt lat="36.8059220" lon="-4.4529530">
        <ele>470.9</ele>
        <time>2018-03-28T09:17:00Z</time>
      </trkpt>
      <trkpt lat="36.8059220" lon="-4.4529530">
        <ele>470.9</ele>
        <time>2018-03-28T09:17:01Z</time>
      </trkpt>
      <trkpt lat="36.8058780" lon="-4.4530030">
        <ele>470.9</ele>
        <time>2018-03-28T09:17:02Z</time>
      </trkpt>
      <trkpt lat="36.8058570" lon="-4.4530300">
        <ele>470.9</ele>
        <time>2018-03-28T09:17:03Z</time>
      </trkpt>
      <trkpt lat="36.8058570" lon="-4.4530300">
        <ele>470.9</ele>
        <time>2018-03-28T09:17:04Z</time>
      </trkpt>
      <trkpt lat="36.8058120" lon="-4.4530800">
        <ele>470.9</ele>
        <time>2018-03-28T09:17:05Z</time>
      </trkpt>
      <trkpt lat="36.8057900" lon="-4.4531040">
        <ele>470.9</ele>
        <time>2018-03-28T09:17:06Z</time>
      </trkpt>
      <trkpt lat="36.8057670" lon="-4.4531280">
        <ele>470.9</ele>
        <time>2018-03-28T09:17:07Z</time>
      </trkpt>
      <trkpt lat="36.8057450" lon="-4.4531520">
        <ele>470.9</ele>
        <time>2018-03-28T09:17:08Z</time>
      </trkpt>
      <trkpt lat="36.8057220" lon="-4.4531750">
        <ele>470.9</ele>
        <time>2018-03-28T09:17:09Z</time>
      </trkpt>
      <trkpt lat="36.8057220" lon="-4.4531750">
        <ele>470.9</ele>
        <time>2018-03-28T09:17:10Z</time>
      </trkpt>
      <trkpt lat="36.8056750" lon="-4.4532200">
        <ele>470.9</ele>
        <time>2018-03-28T09:17:11Z</time>
      </trkpt>
      <trkpt lat="36.8056530" lon="-4.4532480">
        <ele>471.9</ele>
        <time>2018-03-28T09:17:12Z</time>
      </trkpt>
      <trkpt lat="36.8056530" lon="-4.4532480">
        <ele>471.9</ele>
        <time>2018-03-28T09:17:13Z</time>
      </trkpt>
      <trkpt lat="36.8056150" lon="-4.4533020">
        <ele>471.9</ele>
        <time>2018-03-28T09:17:14Z</time>
      </trkpt>
      <trkpt lat="36.8055950" lon="-4.4533300">
        <ele>471.9</ele>
        <time>2018-03-28T09:17:15Z</time>
      </trkpt>
      <trkpt lat="36.8055950" lon="-4.4533300">
        <ele>472.9</ele>
        <time>2018-03-28T09:17:16Z</time>
      </trkpt>
      <trkpt lat="36.8055550" lon="-4.4533880">
        <ele>472.9</ele>
        <time>2018-03-28T09:17:17Z</time>
      </trkpt>
      <trkpt lat="36.8055370" lon="-4.4534180">
        <ele>472.9</ele>
        <time>2018-03-28T09:17:18Z</time>
      </trkpt>
      <trkpt lat="36.8055370" lon="-4.4534180">
        <ele>472.9</ele>
        <time>2018-03-28T09:17:19Z</time>
      </trkpt>
      <trkpt lat="36.8055020" lon="-4.4534780">
        <ele>472.9</ele>
        <time>2018-03-28T09:17:20Z</time>
      </trkpt>
      <trkpt lat="36.8055020" lon="-4.4534780">
        <ele>473.9</ele>
        <time>2018-03-28T09:17:21Z</time>
      </trkpt>
      <trkpt lat="36.8054680" lon="-4.4535380">
        <ele>473.9</ele>
        <time>2018-03-28T09:17:22Z</time>
      </trkpt>
      <trkpt lat="36.8054680" lon="-4.4535380">
        <ele>473.9</ele>
        <time>2018-03-28T09:17:23Z</time>
      </trkpt>
      <trkpt lat="36.8054330" lon="-4.4535970">
        <ele>473.9</ele>
        <time>2018-03-28T09:17:24Z</time>
      </trkpt>
      <trkpt lat="36.8054330" lon="-4.4535970">
        <ele>473.9</ele>
        <time>2018-03-28T09:17:25Z</time>
      </trkpt>
      <trkpt lat="36.8053970" lon="-4.4536520">
        <ele>473.9</ele>
        <time>2018-03-28T09:17:26Z</time>
      </trkpt>
      <trkpt lat="36.8053800" lon="-4.4536770">
        <ele>473.9</ele>
        <time>2018-03-28T09:17:27Z</time>
      </trkpt>
      <trkpt lat="36.8053630" lon="-4.4537050">
        <ele>474.9</ele>
        <time>2018-03-28T09:17:28Z</time>
      </trkpt>
      <trkpt lat="36.8053630" lon="-4.4537050">
        <ele>474.9</ele>
        <time>2018-03-28T09:17:29Z</time>
      </trkpt>
      <trkpt lat="36.8053270" lon="-4.4537570">
        <ele>474.9</ele>
        <time>2018-03-28T09:17:30Z</time>
      </trkpt>
      <trkpt lat="36.8053170" lon="-4.4537690">
        <ele>474.9</ele>
        <time>2018-03-28T09:17:31Z</time>
      </trkpt>
      <trkpt lat="36.8053070" lon="-4.4537810">
        <ele>475.9</ele>
        <time>2018-03-28T09:17:32Z</time>
      </trkpt>
      <trkpt lat="36.8052870" lon="-4.4538050">
        <ele>475.9</ele>
        <time>2018-03-28T09:17:33Z</time>
      </trkpt>
      <trkpt lat="36.8052450" lon="-4.4538550">
        <ele>475.9</ele>
        <time>2018-03-28T09:17:34Z</time>
      </trkpt>
      <trkpt lat="36.8052450" lon="-4.4538550">
        <ele>475.9</ele>
        <time>2018-03-28T09:17:35Z</time>
      </trkpt>
      <trkpt lat="36.8051980" lon="-4.4539000">
        <ele>475.9</ele>
        <time>2018-03-28T09:17:36Z</time>
      </trkpt>
      <trkpt lat="36.8051980" lon="-4.4539000">
        <ele>475.9</ele>
        <time>2018-03-28T09:17:37Z</time>
      </trkpt>
      <trkpt lat="36.8051480" lon="-4.4539420">
        <ele>475.9</ele>
        <time>2018-03-28T09:17:38Z</time>
      </trkpt>
      <trkpt lat="36.8051480" lon="-4.4539420">
        <ele>475.9</ele>
        <time>2018-03-28T09:17:39Z</time>
      </trkpt>
      <trkpt lat="36.8050950" lon="-4.4539780">
        <ele>475.9</ele>
        <time>2018-03-28T09:17:40Z</time>
      </trkpt>
      <trkpt lat="36.8050950" lon="-4.4539780">
        <ele>475.9</ele>
        <time>2018-03-28T09:17:41Z</time>
      </trkpt>
      <trkpt lat="36.8050430" lon="-4.4540200">
        <ele>476.9</ele>
        <time>2018-03-28T09:17:42Z</time>
      </trkpt>
      <trkpt lat="36.8050430" lon="-4.4540200">
        <ele>476.9</ele>
        <time>2018-03-28T09:17:43Z</time>
      </trkpt>
      <trkpt lat="36.8049970" lon="-4.4540630">
        <ele>476.9</ele>
        <time>2018-03-28T09:17:44Z</time>
      </trkpt>
      <trkpt lat="36.8049900" lon="-4.4540780">
        <ele>476.9</ele>
        <time>2018-03-28T09:17:45Z</time>
      </trkpt>
      <trkpt lat="36.8049820" lon="-4.4540920">
        <ele>476.9</ele>
        <time>2018-03-28T09:17:46Z</time>
      </trkpt>
      <trkpt lat="36.8049670" lon="-4.4541200">
        <ele>477.9</ele>
        <time>2018-03-28T09:17:47Z</time>
      </trkpt>
      <trkpt lat="36.8049420" lon="-4.4541920">
        <ele>477.9</ele>
        <time>2018-03-28T09:17:48Z</time>
      </trkpt>
      <trkpt lat="36.8049420" lon="-4.4541920">
        <ele>477.9</ele>
        <time>2018-03-28T09:17:49Z</time>
      </trkpt>
      <trkpt lat="36.8049330" lon="-4.4542670">
        <ele>477.9</ele>
        <time>2018-03-28T09:17:50Z</time>
      </trkpt>
      <trkpt lat="36.8049330" lon="-4.4542670">
        <ele>477.9</ele>
        <time>2018-03-28T09:17:51Z</time>
      </trkpt>
      <trkpt lat="36.8049480" lon="-4.4543400">
        <ele>477.9</ele>
        <time>2018-03-28T09:17:52Z</time>
      </trkpt>
      <trkpt lat="36.8049650" lon="-4.4543730">
        <ele>478.9</ele>
        <time>2018-03-28T09:17:53Z</time>
      </trkpt>
      <trkpt lat="36.8049830" lon="-4.4544020">
        <ele>478.9</ele>
        <time>2018-03-28T09:17:54Z</time>
      </trkpt>
      <trkpt lat="36.8049830" lon="-4.4544020">
        <ele>478.9</ele>
        <time>2018-03-28T09:17:55Z</time>
      </trkpt>
      <trkpt lat="36.8050230" lon="-4.4544600">
        <ele>478.9</ele>
        <time>2018-03-28T09:17:56Z</time>
      </trkpt>
      <trkpt lat="36.8050470" lon="-4.4544900">
        <ele>478.9</ele>
        <time>2018-03-28T09:17:57Z</time>
      </trkpt>
      <trkpt lat="36.8050470" lon="-4.4544900">
        <ele>478.9</ele>
        <time>2018-03-28T09:17:58Z</time>
      </trkpt>
      <trkpt lat="36.8050900" lon="-4.4545450">
        <ele>478.9</ele>
        <time>2018-03-28T09:17:59Z</time>
      </trkpt>
      <trkpt lat="36.8051120" lon="-4.4545720">
        <ele>478.9</ele>
        <time>2018-03-28T09:18:00Z</time>
      </trkpt>
      <trkpt lat="36.8051120" lon="-4.4545720">
        <ele>479.9</ele>
        <time>2018-03-28T09:18:01Z</time>
      </trkpt>
      <trkpt lat="36.8051500" lon="-4.4546320">
        <ele>479.9</ele>
        <time>2018-03-28T09:18:02Z</time>
      </trkpt>
      <trkpt lat="36.8052520" lon="-4.4559430">
        <ele>481.9</ele>
        <time>2018-03-28T09:18:52Z</time>
      </trkpt>
      <trkpt lat="36.8052520" lon="-4.4559430">
        <ele>481.9</ele>
        <time>2018-03-28T09:18:53Z</time>
      </trkpt>
      <trkpt lat="36.8052450" lon="-4.4560230">
        <ele>481.9</ele>
        <time>2018-03-28T09:18:54Z</time>
      </trkpt>
      <trkpt lat="36.8052450" lon="-4.4560230">
        <ele>481.9</ele>
        <time>2018-03-28T09:18:55Z</time>
      </trkpt>
      <trkpt lat="36.8052550" lon="-4.4561070">
        <ele>481.9</ele>
        <time>2018-03-28T09:18:56Z</time>
      </trkpt>
      <trkpt lat="36.8052550" lon="-4.4561070">
        <ele>481.9</ele>
        <time>2018-03-28T09:18:57Z</time>
      </trkpt>
      <trkpt lat="36.8052920" lon="-4.4561930">
        <ele>481.9</ele>
        <time>2018-03-28T09:18:58Z</time>
      </trkpt>
      <trkpt lat="36.8052920" lon="-4.4561930">
        <ele>481.9</ele>
        <time>2018-03-28T09:18:59Z</time>
      </trkpt>
      <trkpt lat="36.8053520" lon="-4.4562650">
        <ele>481.9</ele>
        <time>2018-03-28T09:19:00Z</time>
      </trkpt>
      <trkpt lat="36.8053900" lon="-4.4562920">
        <ele>481.9</ele>
        <time>2018-03-28T09:19:01Z</time>
      </trkpt>
      <trkpt lat="36.8053900" lon="-4.4562920">
        <ele>481.9</ele>
        <time>2018-03-28T09:19:02Z</time>
      </trkpt>
      <trkpt lat="36.8054730" lon="-4.4563200">
        <ele>481.9</ele>
        <time>2018-03-28T09:19:03Z</time>
      </trkpt>
      <trkpt lat="36.8055170" lon="-4.4563200">
        <ele>481.9</ele>
        <time>2018-03-28T09:19:04Z</time>
      </trkpt>
      <trkpt lat="36.8055170" lon="-4.4563200">
        <ele>481.9</ele>
        <time>2018-03-28T09:19:05Z</time>
      </trkpt>
      <trkpt lat="36.8056130" lon="-4.4563170">
        <ele>481.9</ele>
        <time>2018-03-28T09:19:06Z</time>
      </trkpt>
      <trkpt lat="36.8056630" lon="-4.4563170">
        <ele>481.9</ele>
        <time>2018-03-28T09:19:07Z</time>
      </trkpt>
      <trkpt lat="36.8056630" lon="-4.4563170">
        <ele>481.9</ele>
        <time>2018-03-28T09:19:08Z</time>
      </trkpt>
      <trkpt lat="36.8057650" lon="-4.4563350">
        <ele>481.9</ele>
        <time>2018-03-28T09:19:09Z</time>
      </trkpt>
      <trkpt lat="36.8057650" lon="-4.4563350">
        <ele>482.9</ele>
        <time>2018-03-28T09:19:10Z</time>
      </trkpt>
      <trkpt lat="36.8058680" lon="-4.4563700">
        <ele>482.9</ele>
        <time>2018-03-28T09:19:11Z</time>
      </trkpt>
      <trkpt lat="36.8058680" lon="-4.4563700">
        <ele>482.9</ele>
        <time>2018-03-28T09:19:12Z</time>
      </trkpt>
      <trkpt lat="36.8059650" lon="-4.4564250">
        <ele>482.9</ele>
        <time>2018-03-28T09:19:13Z</time>
      </trkpt>
      <trkpt lat="36.8059650" lon="-4.4564250">
        <ele>482.9</ele>
        <time>2018-03-28T09:19:14Z</time>
      </trkpt>
      <trkpt lat="36.8060530" lon="-4.4565050">
        <ele>482.9</ele>
        <time>2018-03-28T09:19:15Z</time>
      </trkpt>
      <trkpt lat="36.8060530" lon="-4.4565050">
        <ele>482.9</ele>
        <time>2018-03-28T09:19:16Z</time>
      </trkpt>
      <trkpt lat="36.8061300" lon="-4.4566070">
        <ele>482.9</ele>
        <time>2018-03-28T09:19:17Z</time>
      </trkpt>
      <trkpt lat="36.8061300" lon="-4.4566070">
        <ele>482.9</ele>
        <time>2018-03-28T09:19:18Z</time>
      </trkpt>
      <trkpt lat="36.8061780" lon="-4.4567300">
        <ele>482.9</ele>
        <time>2018-03-28T09:19:19Z</time>
      </trkpt>
      <trkpt lat="36.8061780" lon="-4.4567300">
        <ele>482.9</ele>
        <time>2018-03-28T09:19:20Z</time>
      </trkpt>
      <trkpt lat="36.8062420" lon="-4.4568520">
        <ele>482.9</ele>
        <time>2018-03-28T09:19:21Z</time>
      </trkpt>
      <trkpt lat="36.8062870" lon="-4.4569100">
        <ele>482.9</ele>
        <time>2018-03-28T09:19:22Z</time>
      </trkpt>
      <trkpt lat="36.8063320" lon="-4.4569630">
        <ele>482.9</ele>
        <time>2018-03-28T09:19:23Z</time>
      </trkpt>
      <trkpt lat="36.8063320" lon="-4.4569630">
        <ele>482.9</ele>
        <time>2018-03-28T09:19:24Z</time>
      </trkpt>
      <trkpt lat="36.8064320" lon="-4.4570580">
        <ele>482.9</ele>
        <time>2018-03-28T09:19:25Z</time>
      </trkpt>
      <trkpt lat="36.8064830" lon="-4.4570980">
        <ele>482.9</ele>
        <time>2018-03-28T09:19:26Z</time>
      </trkpt>
      <trkpt lat="36.8064830" lon="-4.4570980">
        <ele>482.9</ele>
        <time>2018-03-28T09:19:27Z</time>
      </trkpt>
      <trkpt lat="36.8066030" lon="-4.4571500">
        <ele>482.9</ele>
        <time>2018-03-28T09:19:28Z</time>
      </trkpt>
      <trkpt lat="36.8066030" lon="-4.4571500">
        <ele>482.9</ele>
        <time>2018-03-28T09:19:29Z</time>
      </trkpt>
      <trkpt lat="36.8067320" lon="-4.4571530">
        <ele>482.9</ele>
        <time>2018-03-28T09:19:30Z</time>
      </trkpt>
      <trkpt lat="36.8067930" lon="-4.4571370">
        <ele>482.9</ele>
        <time>2018-03-28T09:19:31Z</time>
      </trkpt>
      <trkpt lat="36.8068240" lon="-4.4571230">
        <ele>482.9</ele>
        <time>2018-03-28T09:19:32Z</time>
      </trkpt>
      <trkpt lat="36.8068540" lon="-4.4571090">
        <ele>482.9</ele>
        <time>2018-03-28T09:19:33Z</time>
      </trkpt>
      <trkpt lat="36.8069150" lon="-4.4570800">
        <ele>482.9</ele>
        <time>2018-03-28T09:19:34Z</time>
      </trkpt>
      <trkpt lat="36.8070330" lon="-4.4570180">
        <ele>482.9</ele>
        <time>2018-03-28T09:19:35Z</time>
      </trkpt>
      <trkpt lat="36.8070330" lon="-4.4570180">
        <ele>482.9</ele>
        <time>2018-03-28T09:19:36Z</time>
      </trkpt>
      <trkpt lat="36.8071530" lon="-4.4569520">
        <ele>482.9</ele>
        <time>2018-03-28T09:19:37Z</time>
      </trkpt>
      <trkpt lat="36.8071530" lon="-4.4569520">
        <ele>482.9</ele>
        <time>2018-03-28T09:19:38Z</time>
      </trkpt>
      <trkpt lat="36.8072730" lon="-4.4569100">
        <ele>482.9</ele>
        <time>2018-03-28T09:19:39Z</time>
      </trkpt>
      <trkpt lat="36.8072730" lon="-4.4569100">
        <ele>482.9</ele>
        <time>2018-03-28T09:19:40Z</time>
      </trkpt>
      <trkpt lat="36.8073970" lon="-4.4569350">
        <ele>482.9</ele>
        <time>2018-03-28T09:19:41Z</time>
      </trkpt>
      <trkpt lat="36.8074520" lon="-4.4569770">
        <ele>482.9</ele>
        <time>2018-03-28T09:19:42Z</time>
      </trkpt>
      <trkpt lat="36.8074520" lon="-4.4569770">
        <ele>482.9</ele>
        <time>2018-03-28T09:19:43Z</time>
      </trkpt>
      <trkpt lat="36.8075450" lon="-4.4570870">
        <ele>482.9</ele>
        <time>2018-03-28T09:19:44Z</time>
      </trkpt>
      <trkpt lat="36.8075870" lon="-4.4571500">
        <ele>482.9</ele>
        <time>2018-03-28T09:19:45Z</time>
      </trkpt>
      <trkpt lat="36.8075870" lon="-4.4571500">
        <ele>482.9</ele>
        <time>2018-03-28T09:19:46Z</time>
      </trkpt>
      <trkpt lat="36.8076600" lon="-4.4572680">
        <ele>482.9</ele>
        <time>2018-03-28T09:19:47Z</time>
      </trkpt>
      <trkpt lat="36.8076600" lon="-4.4572680">
        <ele>482.9</ele>
        <time>2018-03-28T09:19:48Z</time>
      </trkpt>
      <trkpt lat="36.8077420" lon="-4.4574000">
        <ele>482.9</ele>
        <time>2018-03-28T09:19:49Z</time>
      </trkpt>
      <trkpt lat="36.8077850" lon="-4.4574650">
        <ele>482.9</ele>
        <time>2018-03-28T09:19:50Z</time>
      </trkpt>
      <trkpt lat="36.8078230" lon="-4.4575320">
        <ele>482.9</ele>
        <time>2018-03-28T09:19:51Z</time>
      </trkpt>
      <trkpt lat="36.8078230" lon="-4.4575320">
        <ele>482.9</ele>
        <time>2018-03-28T09:19:52Z</time>
      </trkpt>
      <trkpt lat="36.8078950" lon="-4.4576680">
        <ele>482.9</ele>
        <time>2018-03-28T09:19:53Z</time>
      </trkpt>
      <trkpt lat="36.8079200" lon="-4.4577360">
        <ele>482.9</ele>
        <time>2018-03-28T09:19:54Z</time>
      </trkpt>
      <trkpt lat="36.8079450" lon="-4.4578050">
        <ele>482.9</ele>
        <time>2018-03-28T09:19:55Z</time>
      </trkpt>
      <trkpt lat="36.8079450" lon="-4.4578050">
        <ele>482.9</ele>
        <time>2018-03-28T09:19:56Z</time>
      </trkpt>
      <trkpt lat="36.8079780" lon="-4.4579430">
        <ele>482.9</ele>
        <time>2018-03-28T09:19:57Z</time>
      </trkpt>
      <trkpt lat="36.8079780" lon="-4.4579430">
        <ele>482.9</ele>
        <time>2018-03-28T09:19:58Z</time>
      </trkpt>
      <trkpt lat="36.8079920" lon="-4.4580780">
        <ele>482.9</ele>
        <time>2018-03-28T09:19:59Z</time>
      </trkpt>
      <trkpt lat="36.8079880" lon="-4.4581470">
        <ele>482.9</ele>
        <time>2018-03-28T09:20:00Z</time>
      </trkpt>
      <trkpt lat="36.8079880" lon="-4.4581470">
        <ele>482.9</ele>
        <time>2018-03-28T09:20:01Z</time>
      </trkpt>
      <trkpt lat="36.8079620" lon="-4.4582870">
        <ele>482.9</ele>
        <time>2018-03-28T09:20:02Z</time>
      </trkpt>
      <trkpt lat="36.8079420" lon="-4.4583520">
        <ele>482.9</ele>
        <time>2018-03-28T09:20:03Z</time>
      </trkpt>
      <trkpt lat="36.8079420" lon="-4.4583520">
        <ele>482.9</ele>
        <time>2018-03-28T09:20:04Z</time>
      </trkpt>
      <trkpt lat="36.8079100" lon="-4.4584830">
        <ele>482.9</ele>
        <time>2018-03-28T09:20:05Z</time>
      </trkpt>
      <trkpt lat="36.8079100" lon="-4.4585600">
        <ele>482.9</ele>
        <time>2018-03-28T09:20:06Z</time>
      </trkpt>
      <trkpt lat="36.8079100" lon="-4.4585600">
        <ele>482.9</ele>
        <time>2018-03-28T09:20:07Z</time>
      </trkpt>
      <trkpt lat="36.8079630" lon="-4.4586950">
        <ele>482.9</ele>
        <time>2018-03-28T09:20:08Z</time>
      </trkpt>
      <trkpt lat="36.8080120" lon="-4.4587370">
        <ele>482.9</ele>
        <time>2018-03-28T09:20:09Z</time>
      </trkpt>
      <trkpt lat="36.8080120" lon="-4.4587370">
        <ele>482.9</ele>
        <time>2018-03-28T09:20:10Z</time>
      </trkpt>
      <trkpt lat="36.8081410" lon="-4.4588370">
        <ele>482.9</ele>
        <time>2018-03-28T09:20:11Z</time>
      </trkpt>
      <trkpt lat="36.8081670" lon="-4.4588570">
        <ele>482.9</ele>
        <time>2018-03-28T09:20:12Z</time>
      </trkpt>
      <trkpt lat="36.8082180" lon="-4.4588970">
        <ele>482.9</ele>
        <time>2018-03-28T09:20:13Z</time>
      </trkpt>
      <trkpt lat="36.8082180" lon="-4.4588970">
        <ele>482.9</ele>
        <time>2018-03-28T09:20:14Z</time>
      </trkpt>
      <trkpt lat="36.8083280" lon="-4.4589700">
        <ele>482.9</ele>
        <time>2018-03-28T09:20:15Z</time>
      </trkpt>
      <trkpt lat="36.8083280" lon="-4.4589700">
        <ele>482.9</ele>
        <time>2018-03-28T09:20:16Z</time>
      </trkpt>
      <trkpt lat="36.8084450" lon="-4.4590480">
        <ele>482.9</ele>
        <time>2018-03-28T09:20:17Z</time>
      </trkpt>
      <trkpt lat="36.8084450" lon="-4.4590480">
        <ele>482.9</ele>
        <time>2018-03-28T09:20:18Z</time>
      </trkpt>
      <trkpt lat="36.8085600" lon="-4.4591280">
        <ele>482.9</ele>
        <time>2018-03-28T09:20:19Z</time>
      </trkpt>
      <trkpt lat="36.8085600" lon="-4.4591280">
        <ele>482.9</ele>
        <time>2018-03-28T09:20:20Z</time>
      </trkpt>
      <trkpt lat="36.8086720" lon="-4.4592100">
        <ele>482.9</ele>
        <time>2018-03-28T09:20:21Z</time>
      </trkpt>
      <trkpt lat="36.8086720" lon="-4.4592100">
        <ele>482.9</ele>
        <time>2018-03-28T09:20:22Z</time>
      </trkpt>
      <trkpt lat="36.8087730" lon="-4.4592980">
        <ele>482.9</ele>
        <time>2018-03-28T09:20:23Z</time>
      </trkpt>
      <trkpt lat="36.8087730" lon="-4.4592980">
        <ele>482.9</ele>
        <time>2018-03-28T09:20:24Z</time>
      </trkpt>
      <trkpt lat="36.8088530" lon="-4.4594200">
        <ele>482.9</ele>
        <time>2018-03-28T09:20:25Z</time>
      </trkpt>
      <trkpt lat="36.8088530" lon="-4.4594200">
        <ele>482.9</ele>
        <time>2018-03-28T09:20:26Z</time>
      </trkpt>
      <trkpt lat="36.8089130" lon="-4.4595650">
        <ele>482.9</ele>
        <time>2018-03-28T09:20:27Z</time>
      </trkpt>
      <trkpt lat="36.8089130" lon="-4.4595650">
        <ele>482.9</ele>
        <time>2018-03-28T09:20:28Z</time>
      </trkpt>
      <trkpt lat="36.8089780" lon="-4.4597050">
        <ele>482.9</ele>
        <time>2018-03-28T09:20:29Z</time>
      </trkpt>
      <trkpt lat="36.8090230" lon="-4.4597630">
        <ele>482.9</ele>
        <time>2018-03-28T09:20:30Z</time>
      </trkpt>
      <trkpt lat="36.8090730" lon="-4.4598150">
        <ele>482.9</ele>
        <time>2018-03-28T09:20:31Z</time>
      </trkpt>
      <trkpt lat="36.8090730" lon="-4.4598150">
        <ele>482.9</ele>
        <time>2018-03-28T09:20:32Z</time>
      </trkpt>
      <trkpt lat="36.8091820" lon="-4.4599080">
        <ele>482.9</ele>
        <time>2018-03-28T09:20:33Z</time>
      </trkpt>
      <trkpt lat="36.8091820" lon="-4.4599080">
        <ele>482.9</ele>
        <time>2018-03-28T09:20:34Z</time>
      </trkpt>
      <trkpt lat="36.8092900" lon="-4.4599950">
        <ele>482.9</ele>
        <time>2018-03-28T09:20:35Z</time>
      </trkpt>
      <trkpt lat="36.8092900" lon="-4.4599950">
        <ele>482.9</ele>
        <time>2018-03-28T09:20:36Z</time>
      </trkpt>
      <trkpt lat="36.8093920" lon="-4.4600870">
        <ele>482.9</ele>
        <time>2018-03-28T09:20:37Z</time>
      </trkpt>
      <trkpt lat="36.8093920" lon="-4.4600870">
        <ele>482.9</ele>
        <time>2018-03-28T09:20:38Z</time>
      </trkpt>
      <trkpt lat="36.8094650" lon="-4.4602200">
        <ele>482.9</ele>
        <time>2018-03-28T09:20:39Z</time>
      </trkpt>
      <trkpt lat="36.8094650" lon="-4.4602200">
        <ele>482.9</ele>
        <time>2018-03-28T09:20:40Z</time>
      </trkpt>
      <trkpt lat="36.8094800" lon="-4.4603800">
        <ele>482.9</ele>
        <time>2018-03-28T09:20:41Z</time>
      </trkpt>
      <trkpt lat="36.8094800" lon="-4.4604210">
        <ele>482.9</ele>
        <time>2018-03-28T09:20:42Z</time>
      </trkpt>
      <trkpt lat="36.8094790" lon="-4.4604610">
        <ele>482.9</ele>
        <time>2018-03-28T09:20:43Z</time>
      </trkpt>
      <trkpt lat="36.8094780" lon="-4.4605420">
        <ele>482.9</ele>
        <time>2018-03-28T09:20:44Z</time>
      </trkpt>
      <trkpt lat="36.8094970" lon="-4.4607080">
        <ele>482.9</ele>
        <time>2018-03-28T09:20:45Z</time>
      </trkpt>
      <trkpt lat="36.8095050" lon="-4.4607480">
        <ele>482.9</ele>
        <time>2018-03-28T09:20:46Z</time>
      </trkpt>
      <trkpt lat="36.8095130" lon="-4.4607890">
        <ele>482.9</ele>
        <time>2018-03-28T09:20:47Z</time>
      </trkpt>
      <trkpt lat="36.8095280" lon="-4.4608700">
        <ele>482.9</ele>
        <time>2018-03-28T09:20:48Z</time>
      </trkpt>
      <trkpt lat="36.8095630" lon="-4.4610250">
        <ele>482.9</ele>
        <time>2018-03-28T09:20:49Z</time>
      </trkpt>
      <trkpt lat="36.8095630" lon="-4.4610250">
        <ele>482.9</ele>
        <time>2018-03-28T09:20:50Z</time>
      </trkpt>
      <trkpt lat="36.8095930" lon="-4.4611930">
        <ele>482.9</ele>
        <time>2018-03-28T09:20:51Z</time>
      </trkpt>
      <trkpt lat="36.8095930" lon="-4.4611930">
        <ele>482.9</ele>
        <time>2018-03-28T09:20:52Z</time>
      </trkpt>
      <trkpt lat="36.8096100" lon="-4.4613630">
        <ele>482.9</ele>
        <time>2018-03-28T09:20:53Z</time>
      </trkpt>
      <trkpt lat="36.8096080" lon="-4.4614480">
        <ele>482.9</ele>
        <time>2018-03-28T09:20:54Z</time>
      </trkpt>
      <trkpt lat="36.8096000" lon="-4.4615300">
        <ele>482.9</ele>
        <time>2018-03-28T09:20:55Z</time>
      </trkpt>
      <trkpt lat="36.8095940" lon="-4.4615700">
        <ele>482.9</ele>
        <time>2018-03-28T09:20:56Z</time>
      </trkpt>
      <trkpt lat="36.8095880" lon="-4.4616090">
        <ele>482.9</ele>
        <time>2018-03-28T09:20:57Z</time>
      </trkpt>
      <trkpt lat="36.8095750" lon="-4.4616880">
        <ele>482.9</ele>
        <time>2018-03-28T09:20:58Z</time>
      </trkpt>
      <trkpt lat="36.8095380" lon="-4.4618480">
        <ele>482.9</ele>
        <time>2018-03-28T09:20:59Z</time>
      </trkpt>
      <trkpt lat="36.8095380" lon="-4.4618480">
        <ele>482.9</ele>
        <time>2018-03-28T09:21:00Z</time>
      </trkpt>
      <trkpt lat="36.8094970" lon="-4.4620050">
        <ele>481.9</ele>
        <time>2018-03-28T09:21:01Z</time>
      </trkpt>
      <trkpt lat="36.8094970" lon="-4.4620050">
        <ele>481.9</ele>
        <time>2018-03-28T09:21:02Z</time>
      </trkpt>
      <trkpt lat="36.8095180" lon="-4.4621630">
        <ele>480.9</ele>
        <time>2018-03-28T09:21:03Z</time>
      </trkpt>
      <trkpt lat="36.8095180" lon="-4.4621630">
        <ele>480.9</ele>
        <time>2018-03-28T09:21:04Z</time>
      </trkpt>
      <trkpt lat="36.8096100" lon="-4.4622380">
        <ele>479.9</ele>
        <time>2018-03-28T09:21:05Z</time>
      </trkpt>
      <trkpt lat="36.8096650" lon="-4.4622350">
        <ele>479.9</ele>
        <time>2018-03-28T09:21:06Z</time>
      </trkpt>
      <trkpt lat="36.8096650" lon="-4.4622350">
        <ele>479.9</ele>
        <time>2018-03-28T09:21:07Z</time>
      </trkpt>
      <trkpt lat="36.8097580" lon="-4.4621550">
        <ele>479.9</ele>
        <time>2018-03-28T09:21:08Z</time>
      </trkpt>
      <trkpt lat="36.8097970" lon="-4.4620950">
        <ele>478.9</ele>
        <time>2018-03-28T09:21:09Z</time>
      </trkpt>
      <trkpt lat="36.8097970" lon="-4.4620950">
        <ele>478.9</ele>
        <time>2018-03-28T09:21:10Z</time>
      </trkpt>
      <trkpt lat="36.8098630" lon="-4.4619770">
        <ele>477.9</ele>
        <time>2018-03-28T09:21:11Z</time>
      </trkpt>
      <trkpt lat="36.8098630" lon="-4.4619770">
        <ele>477.9</ele>
        <time>2018-03-28T09:21:12Z</time>
      </trkpt>
      <trkpt lat="36.8099420" lon="-4.4618500">
        <ele>476.9</ele>
        <time>2018-03-28T09:21:13Z</time>
      </trkpt>
      <trkpt lat="36.8099420" lon="-4.4618500">
        <ele>476.9</ele>
        <time>2018-03-28T09:21:14Z</time>
      </trkpt>
      <trkpt lat="36.8100330" lon="-4.4617280">
        <ele>476.9</ele>
        <time>2018-03-28T09:21:15Z</time>
      </trkpt>
      <trkpt lat="36.8100330" lon="-4.4617280">
        <ele>476.9</ele>
        <time>2018-03-28T09:21:16Z</time>
      </trkpt>
      <trkpt lat="36.8101670" lon="-4.4616480">
        <ele>475.9</ele>
        <time>2018-03-28T09:21:17Z</time>
      </trkpt>
      <trkpt lat="36.8101670" lon="-4.4616480">
        <ele>475.9</ele>
        <time>2018-03-28T09:21:18Z</time>
      </trkpt>
      <trkpt lat="36.8103270" lon="-4.4616500">
        <ele>475.9</ele>
        <time>2018-03-28T09:21:19Z</time>
      </trkpt>
      <trkpt lat="36.8103270" lon="-4.4616500">
        <ele>474.9</ele>
        <time>2018-03-28T09:21:20Z</time>
      </trkpt>
      <trkpt lat="36.8104870" lon="-4.4617130">
        <ele>474.9</ele>
        <time>2018-03-28T09:21:21Z</time>
      </trkpt>
      <trkpt lat="36.8104870" lon="-4.4617130">
        <ele>473.9</ele>
        <time>2018-03-28T09:21:22Z</time>
      </trkpt>
      <trkpt lat="36.8106450" lon="-4.4617900">
        <ele>473.9</ele>
        <time>2018-03-28T09:21:23Z</time>
      </trkpt>
      <trkpt lat="36.8106450" lon="-4.4617900">
        <ele>472.9</ele>
        <time>2018-03-28T09:21:24Z</time>
      </trkpt>
      <trkpt lat="36.8108120" lon="-4.4618820">
        <ele>472.9</ele>
        <time>2018-03-28T09:21:25Z</time>
      </trkpt>
      <trkpt lat="36.8108120" lon="-4.4618820">
        <ele>471.9</ele>
        <time>2018-03-28T09:21:26Z</time>
      </trkpt>
      <trkpt lat="36.8109870" lon="-4.4619770">
        <ele>471.9</ele>
        <time>2018-03-28T09:21:27Z</time>
      </trkpt>
      <trkpt lat="36.8109870" lon="-4.4619770">
        <ele>470.9</ele>
        <time>2018-03-28T09:21:28Z</time>
      </trkpt>
      <trkpt lat="36.8111600" lon="-4.4620770">
        <ele>470.9</ele>
        <time>2018-03-28T09:21:29Z</time>
      </trkpt>
      <trkpt lat="36.8112420" lon="-4.4621220">
        <ele>469.9</ele>
        <time>2018-03-28T09:21:30Z</time>
      </trkpt>
      <trkpt lat="36.8113170" lon="-4.4621550">
        <ele>469.9</ele>
        <time>2018-03-28T09:21:31Z</time>
      </trkpt>
      <trkpt lat="36.8113170" lon="-4.4621550">
        <ele>468.9</ele>
        <time>2018-03-28T09:21:32Z</time>
      </trkpt>
      <trkpt lat="36.8114680" lon="-4.4621620">
        <ele>468.9</ele>
        <time>2018-03-28T09:21:33Z</time>
      </trkpt>
      <trkpt lat="36.8114680" lon="-4.4621620">
        <ele>467.9</ele>
        <time>2018-03-28T09:21:34Z</time>
      </trkpt>
      <trkpt lat="36.8116220" lon="-4.4620680">
        <ele>467.9</ele>
        <time>2018-03-28T09:21:35Z</time>
      </trkpt>
      <trkpt lat="36.8116220" lon="-4.4620680">
        <ele>466.9</ele>
        <time>2018-03-28T09:21:36Z</time>
      </trkpt>
      <trkpt lat="36.8117850" lon="-4.4620050">
        <ele>466.9</ele>
        <time>2018-03-28T09:21:37Z</time>
      </trkpt>
      <trkpt lat="36.8117850" lon="-4.4620050">
        <ele>466.9</ele>
        <time>2018-03-28T09:21:38Z</time>
      </trkpt>
      <trkpt lat="36.8119700" lon="-4.4620220">
        <ele>466.9</ele>
        <time>2018-03-28T09:21:39Z</time>
      </trkpt>
      <trkpt lat="36.8119700" lon="-4.4620220">
        <ele>465.9</ele>
        <time>2018-03-28T09:21:40Z</time>
      </trkpt>
      <trkpt lat="36.8121600" lon="-4.4620780">
        <ele>465.9</ele>
        <time>2018-03-28T09:21:41Z</time>
      </trkpt>
      <trkpt lat="36.8121600" lon="-4.4620780">
        <ele>464.9</ele>
        <time>2018-03-28T09:21:42Z</time>
      </trkpt>
      <trkpt lat="36.8123450" lon="-4.4621500">
        <ele>464.9</ele>
        <time>2018-03-28T09:21:43Z</time>
      </trkpt>
      <trkpt lat="36.8123450" lon="-4.4621500">
        <ele>463.9</ele>
        <time>2018-03-28T09:21:44Z</time>
      </trkpt>
      <trkpt lat="36.8125020" lon="-4.4622650">
        <ele>463.9</ele>
        <time>2018-03-28T09:21:45Z</time>
      </trkpt>
      <trkpt lat="36.8125020" lon="-4.4622650">
        <ele>462.9</ele>
        <time>2018-03-28T09:21:46Z</time>
      </trkpt>
      <trkpt lat="36.8126170" lon="-4.4624300">
        <ele>462.9</ele>
        <time>2018-03-28T09:21:47Z</time>
      </trkpt>
      <trkpt lat="36.8126580" lon="-4.4625180">
        <ele>462.9</ele>
        <time>2018-03-28T09:21:48Z</time>
      </trkpt>
      <trkpt lat="36.8126580" lon="-4.4625180">
        <ele>462.9</ele>
        <time>2018-03-28T09:21:49Z</time>
      </trkpt>
      <trkpt lat="36.8127200" lon="-4.4626980">
        <ele>462.9</ele>
        <time>2018-03-28T09:21:50Z</time>
      </trkpt>
      <trkpt lat="36.8127450" lon="-4.4627830">
        <ele>462.9</ele>
        <time>2018-03-28T09:21:51Z</time>
      </trkpt>
      <trkpt lat="36.8127450" lon="-4.4627830">
        <ele>462.9</ele>
        <time>2018-03-28T09:21:52Z</time>
      </trkpt>
      <trkpt lat="36.8131750" lon="-4.4669720">
        <ele>461.9</ele>
        <time>2018-03-28T09:23:22Z</time>
      </trkpt>
      <trkpt lat="36.8132250" lon="-4.4669530">
        <ele>461.9</ele>
        <time>2018-03-28T09:23:23Z</time>
      </trkpt>
      <trkpt lat="36.8132250" lon="-4.4669530">
        <ele>461.9</ele>
        <time>2018-03-28T09:23:24Z</time>
      </trkpt>
      <trkpt lat="36.8133320" lon="-4.4669420">
        <ele>461.9</ele>
        <time>2018-03-28T09:23:25Z</time>
      </trkpt>
      <trkpt lat="36.8133320" lon="-4.4669420">
        <ele>461.9</ele>
        <time>2018-03-28T09:23:26Z</time>
      </trkpt>
      <trkpt lat="36.8134430" lon="-4.4669730">
        <ele>461.9</ele>
        <time>2018-03-28T09:23:27Z</time>
      </trkpt>
      <trkpt lat="36.8134430" lon="-4.4669730">
        <ele>461.9</ele>
        <time>2018-03-28T09:23:28Z</time>
      </trkpt>
      <trkpt lat="36.8135580" lon="-4.4670330">
        <ele>461.9</ele>
        <time>2018-03-28T09:23:29Z</time>
      </trkpt>
      <trkpt lat="36.8135580" lon="-4.4670330">
        <ele>460.9</ele>
        <time>2018-03-28T09:23:30Z</time>
      </trkpt>
      <trkpt lat="36.8136730" lon="-4.4671200">
        <ele>460.9</ele>
        <time>2018-03-28T09:23:31Z</time>
      </trkpt>
      <trkpt lat="36.8136730" lon="-4.4671200">
        <ele>460.9</ele>
        <time>2018-03-28T09:23:32Z</time>
      </trkpt>
      <trkpt lat="36.8137930" lon="-4.4672070">
        <ele>460.9</ele>
        <time>2018-03-28T09:23:33Z</time>
      </trkpt>
      <trkpt lat="36.8137930" lon="-4.4672070">
        <ele>459.9</ele>
        <time>2018-03-28T09:23:34Z</time>
      </trkpt>
      <trkpt lat="36.8139330" lon="-4.4672820">
        <ele>459.9</ele>
        <time>2018-03-28T09:23:35Z</time>
      </trkpt>
      <trkpt lat="36.8139330" lon="-4.4672820">
        <ele>459.9</ele>
        <time>2018-03-28T09:23:36Z</time>
      </trkpt>
      <trkpt lat="36.8140880" lon="-4.4672930">
        <ele>459.9</ele>
        <time>2018-03-28T09:23:37Z</time>
      </trkpt>
      <trkpt lat="36.8140880" lon="-4.4672930">
        <ele>458.9</ele>
        <time>2018-03-28T09:23:38Z</time>
      </trkpt>
      <trkpt lat="36.8142580" lon="-4.4673030">
        <ele>458.9</ele>
        <time>2018-03-28T09:23:39Z</time>
      </trkpt>
      <trkpt lat="36.8142580" lon="-4.4673030">
        <ele>457.9</ele>
        <time>2018-03-28T09:23:40Z</time>
      </trkpt>
      <trkpt lat="36.8144280" lon="-4.4673380">
        <ele>457.9</ele>
        <time>2018-03-28T09:23:41Z</time>
      </trkpt>
      <trkpt lat="36.8145180" lon="-4.4673670">
        <ele>456.9</ele>
        <time>2018-03-28T09:23:42Z</time>
      </trkpt>
      <trkpt lat="36.8145180" lon="-4.4673670">
        <ele>456.9</ele>
        <time>2018-03-28T09:23:43Z</time>
      </trkpt>
      <trkpt lat="36.8147020" lon="-4.4674230">
        <ele>456.9</ele>
        <time>2018-03-28T09:23:44Z</time>
      </trkpt>
      <trkpt lat="36.8147020" lon="-4.4674230">
        <ele>455.9</ele>
        <time>2018-03-28T09:23:45Z</time>
      </trkpt>
      <trkpt lat="36.8148830" lon="-4.4674850">
        <ele>455.9</ele>
        <time>2018-03-28T09:23:46Z</time>
      </trkpt>
      <trkpt lat="36.8149680" lon="-4.4675180">
        <ele>454.9</ele>
        <time>2018-03-28T09:23:47Z</time>
      </trkpt>
      <trkpt lat="36.8150450" lon="-4.4675670">
        <ele>454.9</ele>
        <time>2018-03-28T09:23:48Z</time>
      </trkpt>
      <trkpt lat="36.8151180" lon="-4.4676300">
        <ele>453.9</ele>
        <time>2018-03-28T09:23:49Z</time>
      </trkpt>
      <trkpt lat="36.8151180" lon="-4.4676300">
        <ele>453.9</ele>
        <time>2018-03-28T09:23:50Z</time>
      </trkpt>
      <trkpt lat="36.8152500" lon="-4.4677470">
        <ele>453.9</ele>
        <time>2018-03-28T09:23:51Z</time>
      </trkpt>
      <trkpt lat="36.8152500" lon="-4.4677470">
        <ele>453.9</ele>
        <time>2018-03-28T09:23:52Z</time>
      </trkpt>
      <trkpt lat="36.8153980" lon="-4.4677920">
        <ele>451.9</ele>
        <time>2018-03-28T09:23:53Z</time>
      </trkpt>
      <trkpt lat="36.8153980" lon="-4.4677920">
        <ele>451.9</ele>
        <time>2018-03-28T09:23:54Z</time>
      </trkpt>
      <trkpt lat="36.8155280" lon="-4.4677230">
        <ele>450.9</ele>
        <time>2018-03-28T09:23:55Z</time>
      </trkpt>
      <trkpt lat="36.8155600" lon="-4.4677010">
        <ele>450.9</ele>
        <time>2018-03-28T09:23:56Z</time>
      </trkpt>
      <trkpt lat="36.8155920" lon="-4.4676790">
        <ele>449.9</ele>
        <time>2018-03-28T09:23:57Z</time>
      </trkpt>
      <trkpt lat="36.8156550" lon="-4.4676350">
        <ele>449.9</ele>
        <time>2018-03-28T09:23:58Z</time>
      </trkpt>
      <trkpt lat="36.8158100" lon="-4.4676430">
        <ele>449.9</ele>
        <time>2018-03-28T09:23:59Z</time>
      </trkpt>
      <trkpt lat="36.8158100" lon="-4.4676430">
        <ele>448.9</ele>
        <time>2018-03-28T09:24:00Z</time>
      </trkpt>
      <trkpt lat="36.8159800" lon="-4.4676950">
        <ele>448.9</ele>
        <time>2018-03-28T09:24:01Z</time>
      </trkpt>
      <trkpt lat="36.8159800" lon="-4.4676950">
        <ele>447.9</ele>
        <time>2018-03-28T09:24:02Z</time>
      </trkpt>
      <trkpt lat="36.8161530" lon="-4.4677180">
        <ele>447.9</ele>
        <time>2018-03-28T09:24:03Z</time>
      </trkpt>
      <trkpt lat="36.8161530" lon="-4.4677180">
        <ele>446.9</ele>
        <time>2018-03-28T09:24:04Z</time>
      </trkpt>
      <trkpt lat="36.8163080" lon="-4.4676780">
        <ele>446.9</ele>
        <time>2018-03-28T09:24:05Z</time>
      </trkpt>
      <trkpt lat="36.8163800" lon="-4.4676250">
        <ele>445.9</ele>
        <time>2018-03-28T09:24:06Z</time>
      </trkpt>
      <trkpt lat="36.8164520" lon="-4.4675570">
        <ele>445.9</ele>
        <time>2018-03-28T09:24:07Z</time>
      </trkpt>
      <trkpt lat="36.8164520" lon="-4.4675570">
        <ele>444.9</ele>
        <time>2018-03-28T09:24:08Z</time>
      </trkpt>
      <trkpt lat="36.8165980" lon="-4.4674180">
        <ele>444.9</ele>
        <time>2018-03-28T09:24:09Z</time>
      </trkpt>
      <trkpt lat="36.8165980" lon="-4.4674180">
        <ele>443.9</ele>
        <time>2018-03-28T09:24:10Z</time>
      </trkpt>
      <trkpt lat="36.8167700" lon="-4.4673230">
        <ele>443.9</ele>
        <time>2018-03-28T09:24:11Z</time>
      </trkpt>
      <trkpt lat="36.8167700" lon="-4.4673230">
        <ele>442.9</ele>
        <time>2018-03-28T09:24:12Z</time>
      </trkpt>
      <trkpt lat="36.8169680" lon="-4.4672980">
        <ele>442.9</ele>
        <time>2018-03-28T09:24:13Z</time>
      </trkpt>
      <trkpt lat="36.8169680" lon="-4.4672980">
        <ele>441.9</ele>
        <time>2018-03-28T09:24:14Z</time>
      </trkpt>
      <trkpt lat="36.8171780" lon="-4.4673020">
        <ele>441.9</ele>
        <time>2018-03-28T09:24:15Z</time>
      </trkpt>
      <trkpt lat="36.8172770" lon="-4.4673180">
        <ele>440.9</ele>
        <time>2018-03-28T09:24:16Z</time>
      </trkpt>
      <trkpt lat="36.8172770" lon="-4.4673180">
        <ele>440.9</ele>
        <time>2018-03-28T09:24:17Z</time>
      </trkpt>
      <trkpt lat="36.8174700" lon="-4.4674170">
        <ele>438.9</ele>
        <time>2018-03-28T09:24:18Z</time>
      </trkpt>
      <trkpt lat="36.8175520" lon="-4.4674920">
        <ele>438.9</ele>
        <time>2018-03-28T09:24:19Z</time>
      </trkpt>
      <trkpt lat="36.8176230" lon="-4.4675700">
        <ele>438.9</ele>
        <time>2018-03-28T09:24:20Z</time>
      </trkpt>
      <trkpt lat="36.8176230" lon="-4.4675700">
        <ele>437.9</ele>
        <time>2018-03-28T09:24:21Z</time>
      </trkpt>
      <trkpt lat="36.8177930" lon="-4.4677640">
        <ele>437.9</ele>
        <time>2018-03-28T09:24:22Z</time>
      </trkpt>
      <trkpt lat="36.8178270" lon="-4.4677970">
        <ele>436.9</ele>
        <time>2018-03-28T09:24:23Z</time>
      </trkpt>
      <trkpt lat="36.8178950" lon="-4.4678630">
        <ele>436.9</ele>
        <time>2018-03-28T09:24:24Z</time>
      </trkpt>
      <trkpt lat="36.8179650" lon="-4.4679170">
        <ele>436.9</ele>
        <time>2018-03-28T09:24:25Z</time>
      </trkpt>
      <trkpt lat="36.8179650" lon="-4.4679170">
        <ele>436.9</ele>
        <time>2018-03-28T09:24:26Z</time>
      </trkpt>
      <trkpt lat="36.8180930" lon="-4.4679920">
        <ele>436.9</ele>
        <time>2018-03-28T09:24:27Z</time>
      </trkpt>
      <trkpt lat="36.8180930" lon="-4.4679920">
        <ele>436.9</ele>
        <time>2018-03-28T09:24:28Z</time>
      </trkpt>
      <trkpt lat="36.8182070" lon="-4.4680220">
        <ele>436.9</ele>
        <time>2018-03-28T09:24:29Z</time>
      </trkpt>
      <trkpt lat="36.8182880" lon="-4.4680230">
        <ele>438.9</ele>
        <time>2018-03-28T09:24:30Z</time>
      </trkpt>
      <trkpt lat="36.8183130" lon="-4.4680200">
        <ele>438.9</ele>
        <time>2018-03-28T09:24:31Z</time>
      </trkpt>
      <trkpt lat="36.8183630" lon="-4.4680150">
        <ele>438.9</ele>
        <time>2018-03-28T09:24:32Z</time>
      </trkpt>
      <trkpt lat="36.8184120" lon="-4.4680070">
        <ele>438.9</ele>
        <time>2018-03-28T09:24:33Z</time>
      </trkpt>
      <trkpt lat="36.8184120" lon="-4.4680070">
        <ele>439.9</ele>
        <time>2018-03-28T09:24:34Z</time>
      </trkpt>
      <trkpt lat="36.8184120" lon="-4.4680070">
        <ele>439.9</ele>
        <time>2018-03-28T09:24:35Z</time>
      </trkpt>
      <trkpt lat="36.8185070" lon="-4.4679970">
        <ele>439.9</ele>
        <time>2018-03-28T09:24:36Z</time>
      </trkpt>
      <trkpt lat="36.8186080" lon="-4.4680030">
        <ele>439.9</ele>
        <time>2018-03-28T09:24:37Z</time>
      </trkpt>
      <trkpt lat="36.8186080" lon="-4.4680030">
        <ele>439.9</ele>
        <time>2018-03-28T09:24:38Z</time>
      </trkpt>
      <trkpt lat="36.8187030" lon="-4.4680620">
        <ele>439.9</ele>
        <time>2018-03-28T09:24:39Z</time>
      </trkpt>
      <trkpt lat="36.8187450" lon="-4.4681030">
        <ele>440.9</ele>
        <time>2018-03-28T09:24:40Z</time>
      </trkpt>
      <trkpt lat="36.8187450" lon="-4.4681030">
        <ele>440.9</ele>
        <time>2018-03-28T09:24:41Z</time>
      </trkpt>
      <trkpt lat="36.8188200" lon="-4.4681930">
        <ele>440.9</ele>
        <time>2018-03-28T09:24:42Z</time>
      </trkpt>
      <trkpt lat="36.8188570" lon="-4.4682350">
        <ele>440.9</ele>
        <time>2018-03-28T09:24:43Z</time>
      </trkpt>
      <trkpt lat="36.8188570" lon="-4.4682350">
        <ele>440.9</ele>
        <time>2018-03-28T09:24:44Z</time>
      </trkpt>
      <trkpt lat="36.8189470" lon="-4.4682950">
        <ele>440.9</ele>
        <time>2018-03-28T09:24:45Z</time>
      </trkpt>
      <trkpt lat="36.8189470" lon="-4.4682950">
        <ele>440.9</ele>
        <time>2018-03-28T09:24:46Z</time>
      </trkpt>
      <trkpt lat="36.8190810" lon="-4.4683260">
        <ele>440.9</ele>
        <time>2018-03-28T09:24:47Z</time>
      </trkpt>
      <trkpt lat="36.8191090" lon="-4.4683270">
        <ele>440.9</ele>
        <time>2018-03-28T09:24:48Z</time>
      </trkpt>
      <trkpt lat="36.8191650" lon="-4.4683300">
        <ele>440.9</ele>
        <time>2018-03-28T09:24:49Z</time>
      </trkpt>
      <trkpt lat="36.8191650" lon="-4.4683300">
        <ele>440.9</ele>
        <time>2018-03-28T09:24:50Z</time>
      </trkpt>
      <trkpt lat="36.8192720" lon="-4.4683130">
        <ele>440.9</ele>
        <time>2018-03-28T09:24:51Z</time>
      </trkpt>
      <trkpt lat="36.8192720" lon="-4.4683130">
        <ele>440.9</ele>
        <time>2018-03-28T09:24:52Z</time>
      </trkpt>
      <trkpt lat="36.8193780" lon="-4.4682950">
        <ele>440.9</ele>
        <time>2018-03-28T09:24:53Z</time>
      </trkpt>
      <trkpt lat="36.8193780" lon="-4.4682950">
        <ele>440.9</ele>
        <time>2018-03-28T09:24:54Z</time>
      </trkpt>
      <trkpt lat="36.8194780" lon="-4.4682770">
        <ele>440.9</ele>
        <time>2018-03-28T09:24:55Z</time>
      </trkpt>
      <trkpt lat="36.8194780" lon="-4.4682770">
        <ele>440.9</ele>
        <time>2018-03-28T09:24:56Z</time>
      </trkpt>
      <trkpt lat="36.8195780" lon="-4.4682750">
        <ele>441.9</ele>
        <time>2018-03-28T09:24:57Z</time>
      </trkpt>
      <trkpt lat="36.8195780" lon="-4.4682750">
        <ele>441.9</ele>
        <time>2018-03-28T09:24:58Z</time>
      </trkpt>
      <trkpt lat="36.8196780" lon="-4.4682800">
        <ele>441.9</ele>
        <time>2018-03-28T09:24:59Z</time>
      </trkpt>
      <trkpt lat="36.8196780" lon="-4.4682800">
        <ele>441.9</ele>
        <time>2018-03-28T09:25:00Z</time>
      </trkpt>
      <trkpt lat="36.8197280" lon="-4.4682870">
        <ele>441.9</ele>
        <time>2018-03-28T09:25:01Z</time>
      </trkpt>
      <trkpt lat="36.8197770" lon="-4.4682950">
        <ele>441.9</ele>
        <time>2018-03-28T09:25:02Z</time>
      </trkpt>
      <trkpt lat="36.8198230" lon="-4.4683080">
        <ele>441.9</ele>
        <time>2018-03-28T09:25:03Z</time>
      </trkpt>
      <trkpt lat="36.8199350" lon="-4.4683470">
        <ele>441.9</ele>
        <time>2018-03-28T09:25:04Z</time>
      </trkpt>
      <trkpt lat="36.8199570" lon="-4.4683550">
        <ele>441.9</ele>
        <time>2018-03-28T09:25:05Z</time>
      </trkpt>
      <trkpt lat="36.8200000" lon="-4.4683700">
        <ele>443.9</ele>
        <time>2018-03-28T09:25:06Z</time>
      </trkpt>
      <trkpt lat="36.8200000" lon="-4.4683700">
        <ele>443.9</ele>
        <time>2018-03-28T09:25:07Z</time>
      </trkpt>
      <trkpt lat="36.8200420" lon="-4.4683850">
        <ele>443.9</ele>
        <time>2018-03-28T09:25:08Z</time>
      </trkpt>
      <trkpt lat="36.8201230" lon="-4.4684100">
        <ele>443.9</ele>
        <time>2018-03-28T09:25:09Z</time>
      </trkpt>
      <trkpt lat="36.8201230" lon="-4.4684100">
        <ele>444.9</ele>
        <time>2018-03-28T09:25:10Z</time>
      </trkpt>
      <trkpt lat="36.8202150" lon="-4.4684230">
        <ele>444.9</ele>
        <time>2018-03-28T09:25:11Z</time>
      </trkpt>
      <trkpt lat="36.8202150" lon="-4.4684230">
        <ele>444.9</ele>
        <time>2018-03-28T09:25:12Z</time>
      </trkpt>
      <trkpt lat="36.8203070" lon="-4.4684280">
        <ele>444.9</ele>
        <time>2018-03-28T09:25:13Z</time>
      </trkpt>
      <trkpt lat="36.8203070" lon="-4.4684280">
        <ele>444.9</ele>
        <time>2018-03-28T09:25:14Z</time>
      </trkpt>
      <trkpt lat="36.8204020" lon="-4.4684250">
        <ele>444.9</ele>
        <time>2018-03-28T09:25:15Z</time>
      </trkpt>
      <trkpt lat="36.8204500" lon="-4.4684250">
        <ele>444.9</ele>
        <time>2018-03-28T09:25:16Z</time>
      </trkpt>
      <trkpt lat="36.8204980" lon="-4.4684180">
        <ele>444.9</ele>
        <time>2018-03-28T09:25:17Z</time>
      </trkpt>
      <trkpt lat="36.8204980" lon="-4.4684180">
        <ele>444.9</ele>
        <time>2018-03-28T09:25:18Z</time>
      </trkpt>
      <trkpt lat="36.8206020" lon="-4.4684000">
        <ele>444.9</ele>
        <time>2018-03-28T09:25:19Z</time>
      </trkpt>
      <trkpt lat="36.8206600" lon="-4.4683850">
        <ele>444.9</ele>
        <time>2018-03-28T09:25:20Z</time>
      </trkpt>
      <trkpt lat="36.8206600" lon="-4.4683850">
        <ele>444.9</ele>
        <time>2018-03-28T09:25:21Z</time>
      </trkpt>
      <trkpt lat="36.8207780" lon="-4.4683520">
        <ele>444.9</ele>
        <time>2018-03-28T09:25:22Z</time>
      </trkpt>
      <trkpt lat="36.8207780" lon="-4.4683520">
        <ele>444.9</ele>
        <time>2018-03-28T09:25:23Z</time>
      </trkpt>
      <trkpt lat="36.8209070" lon="-4.4683220">
        <ele>443.9</ele>
        <time>2018-03-28T09:25:24Z</time>
      </trkpt>
      <trkpt lat="36.8209730" lon="-4.4682980">
        <ele>443.9</ele>
        <time>2018-03-28T09:25:25Z</time>
      </trkpt>
      <trkpt lat="36.8210430" lon="-4.4682780">
        <ele>443.9</ele>
        <time>2018-03-28T09:25:26Z</time>
      </trkpt>
      <trkpt lat="36.8210430" lon="-4.4682780">
        <ele>443.9</ele>
        <time>2018-03-28T09:25:27Z</time>
      </trkpt>
      <trkpt lat="36.8211880" lon="-4.4682420">
        <ele>442.9</ele>
        <time>2018-03-28T09:25:28Z</time>
      </trkpt>
      <trkpt lat="36.8212620" lon="-4.4682230">
        <ele>442.9</ele>
        <time>2018-03-28T09:25:29Z</time>
      </trkpt>
      <trkpt lat="36.8212620" lon="-4.4682230">
        <ele>442.9</ele>
        <time>2018-03-28T09:25:30Z</time>
      </trkpt>
      <trkpt lat="36.8214050" lon="-4.4681820">
        <ele>441.9</ele>
        <time>2018-03-28T09:25:31Z</time>
      </trkpt>
      <trkpt lat="36.8214420" lon="-4.4681710">
        <ele>441.9</ele>
        <time>2018-03-28T09:25:32Z</time>
      </trkpt>
      <trkpt lat="36.8214780" lon="-4.4681600">
        <ele>441.9</ele>
        <time>2018-03-28T09:25:33Z</time>
      </trkpt>
      <trkpt lat="36.8215500" lon="-4.4681380">
        <ele>441.9</ele>
        <time>2018-03-28T09:25:34Z</time>
      </trkpt>
      <trkpt lat="36.8216850" lon="-4.4680900">
        <ele>441.9</ele>
        <time>2018-03-28T09:25:35Z</time>
      </trkpt>
      <trkpt lat="36.8217550" lon="-4.4680700">
        <ele>441.9</ele>
        <time>2018-03-28T09:25:36Z</time>
      </trkpt>
      <trkpt lat="36.8217550" lon="-4.4680700">
        <ele>440.9</ele>
        <time>2018-03-28T09:25:37Z</time>
      </trkpt>
      <trkpt lat="36.8218970" lon="-4.4680320">
        <ele>440.9</ele>
        <time>2018-03-28T09:25:38Z</time>
      </trkpt>
      <trkpt lat="36.8218970" lon="-4.4680320">
        <ele>440.9</ele>
        <time>2018-03-28T09:25:39Z</time>
      </trkpt>
      <trkpt lat="36.8220380" lon="-4.4679970">
        <ele>440.9</ele>
        <time>2018-03-28T09:25:40Z</time>
      </trkpt>
      <trkpt lat="36.8220380" lon="-4.4679970">
        <ele>440.9</ele>
        <time>2018-03-28T09:25:41Z</time>
      </trkpt>
      <trkpt lat="36.8221930" lon="-4.4680000">
        <ele>440.9</ele>
        <time>2018-03-28T09:25:42Z</time>
      </trkpt>
      <trkpt lat="36.8222700" lon="-4.4680420">
        <ele>439.9</ele>
        <time>2018-03-28T09:25:43Z</time>
      </trkpt>
      <trkpt lat="36.8222700" lon="-4.4680420">
        <ele>439.9</ele>
        <time>2018-03-28T09:25:44Z</time>
      </trkpt>
      <trkpt lat="36.8224250" lon="-4.4681630">
        <ele>439.9</ele>
        <time>2018-03-28T09:25:45Z</time>
      </trkpt>
      <trkpt lat="36.8225050" lon="-4.4682320">
        <ele>439.9</ele>
        <time>2018-03-28T09:25:46Z</time>
      </trkpt>
      <trkpt lat="36.8225050" lon="-4.4682320">
        <ele>438.9</ele>
        <time>2018-03-28T09:25:47Z</time>
      </trkpt>
      <trkpt lat="36.8226730" lon="-4.4683720">
        <ele>438.9</ele>
        <time>2018-03-28T09:25:48Z</time>
      </trkpt>
      <trkpt lat="36.8227600" lon="-4.4684470">
        <ele>438.9</ele>
        <time>2018-03-28T09:25:49Z</time>
      </trkpt>
      <trkpt lat="36.8227600" lon="-4.4684470">
        <ele>436.9</ele>
        <time>2018-03-28T09:25:50Z</time>
      </trkpt>
      <trkpt lat="36.8229380" lon="-4.4686000">
        <ele>436.9</ele>
        <time>2018-03-28T09:25:51Z</time>
      </trkpt>
      <trkpt lat="36.8229380" lon="-4.4686000">
        <ele>435.9</ele>
        <time>2018-03-28T09:25:52Z</time>
      </trkpt>
      <trkpt lat="36.8231200" lon="-4.4687570">
        <ele>435.9</ele>
        <time>2018-03-28T09:25:53Z</time>
      </trkpt>
      <trkpt lat="36.8231200" lon="-4.4687570">
        <ele>435.9</ele>
        <time>2018-03-28T09:25:54Z</time>
      </trkpt>
      <trkpt lat="36.8233030" lon="-4.4689170">
        <ele>435.9</ele>
        <time>2018-03-28T09:25:55Z</time>
      </trkpt>
      <trkpt lat="36.8233970" lon="-4.4689950">
        <ele>433.9</ele>
        <time>2018-03-28T09:25:56Z</time>
      </trkpt>
      <trkpt lat="36.8233970" lon="-4.4689950">
        <ele>433.9</ele>
        <time>2018-03-28T09:25:57Z</time>
      </trkpt>
      <trkpt lat="36.8235800" lon="-4.4691470">
        <ele>432.9</ele>
        <time>2018-03-28T09:25:58Z</time>
      </trkpt>
      <trkpt lat="36.8236730" lon="-4.4692050">
        <ele>431.9</ele>
        <time>2018-03-28T09:25:59Z</time>
      </trkpt>
      <trkpt lat="36.8236730" lon="-4.4692050">
        <ele>431.9</ele>
        <time>2018-03-28T09:26:00Z</time>
      </trkpt>
      <trkpt lat="36.8239110" lon="-4.4692610">
        <ele>430.9</ele>
        <time>2018-03-28T09:26:01Z</time>
      </trkpt>
      <trkpt lat="36.8239550" lon="-4.4692570">
        <ele>430.9</ele>
        <time>2018-03-28T09:26:02Z</time>
      </trkpt>
      <trkpt lat="36.8240420" lon="-4.4692480">
        <ele>430.9</ele>
        <time>2018-03-28T09:26:03Z</time>
      </trkpt>
      <trkpt lat="36.8241130" lon="-4.4692220">
        <ele>430.9</ele>
        <time>2018-03-28T09:26:04Z</time>
      </trkpt>
      <trkpt lat="36.8241130" lon="-4.4692220">
        <ele>430.9</ele>
        <time>2018-03-28T09:26:05Z</time>
      </trkpt>
      <trkpt lat="36.8242270" lon="-4.4691630">
        <ele>430.9</ele>
        <time>2018-03-28T09:26:06Z</time>
      </trkpt>
      <trkpt lat="36.8242750" lon="-4.4691350">
        <ele>431.9</ele>
        <time>2018-03-28T09:26:07Z</time>
      </trkpt>
      <trkpt lat="36.8243220" lon="-4.4691130">
        <ele>431.9</ele>
        <time>2018-03-28T09:26:08Z</time>
      </trkpt>
      <trkpt lat="36.8243220" lon="-4.4691130">
        <ele>432.9</ele>
        <time>2018-03-28T09:26:09Z</time>
      </trkpt>
      <trkpt lat="36.8244020" lon="-4.4690850">
        <ele>432.9</ele>
        <time>2018-03-28T09:26:10Z</time>
      </trkpt>
      <trkpt lat="36.8244020" lon="-4.4690850">
        <ele>433.9</ele>
        <time>2018-03-28T09:26:11Z</time>
      </trkpt>
      <trkpt lat="36.8244680" lon="-4.4690530">
        <ele>433.9</ele>
        <time>2018-03-28T09:26:12Z</time>
      </trkpt>
      <trkpt lat="36.8245020" lon="-4.4690370">
        <ele>433.9</ele>
        <time>2018-03-28T09:26:13Z</time>
      </trkpt>
      <trkpt lat="36.8245020" lon="-4.4690370">
        <ele>433.9</ele>
        <time>2018-03-28T09:26:14Z</time>
      </trkpt>
      <trkpt lat="36.8245680" lon="-4.4690250">
        <ele>434.9</ele>
        <time>2018-03-28T09:26:15Z</time>
      </trkpt>
      <trkpt lat="36.8246030" lon="-4.4690180">
        <ele>434.9</ele>
        <time>2018-03-28T09:26:16Z</time>
      </trkpt>
      <trkpt lat="36.8246030" lon="-4.4690180">
        <ele>434.9</ele>
        <time>2018-03-28T09:26:17Z</time>
      </trkpt>
      <trkpt lat="36.8246880" lon="-4.4689990">
        <ele>434.9</ele>
        <time>2018-03-28T09:26:18Z</time>
      </trkpt>
      <trkpt lat="36.8247100" lon="-4.4689960">
        <ele>435.9</ele>
        <time>2018-03-28T09:26:19Z</time>
      </trkpt>
      <trkpt lat="36.8247310" lon="-4.4689930">
        <ele>435.9</ele>
        <time>2018-03-28T09:26:20Z</time>
      </trkpt>
      <trkpt lat="36.8247630" lon="-4.4689900">
        <ele>435.9</ele>
        <time>2018-03-28T09:26:21Z</time>
      </trkpt>
      <trkpt lat="36.8247630" lon="-4.4689900">
        <ele>435.9</ele>
        <time>2018-03-28T09:26:22Z</time>
      </trkpt>
      <trkpt lat="36.8248270" lon="-4.4689980">
        <ele>436.9</ele>
        <time>2018-03-28T09:26:23Z</time>
      </trkpt>
      <trkpt lat="36.8248600" lon="-4.4690050">
        <ele>436.9</ele>
        <time>2018-03-28T09:26:24Z</time>
      </trkpt>
      <trkpt lat="36.8249080" lon="-4.4690150">
        <ele>436.9</ele>
        <time>2018-03-28T09:26:25Z</time>
      </trkpt>
      <trkpt lat="36.8249230" lon="-4.4690170">
        <ele>436.9</ele>
        <time>2018-03-28T09:26:26Z</time>
      </trkpt>
      <trkpt lat="36.8249390" lon="-4.4690200">
        <ele>437.9</ele>
        <time>2018-03-28T09:26:27Z</time>
      </trkpt>
      <trkpt lat="36.8250020" lon="-4.4690280">
        <ele>437.9</ele>
        <time>2018-03-28T09:26:28Z</time>
      </trkpt>
      <trkpt lat="36.8250180" lon="-4.4690280">
        <ele>437.9</ele>
        <time>2018-03-28T09:26:29Z</time>
      </trkpt>
      <trkpt lat="36.8250180" lon="-4.4690280">
        <ele>438.9</ele>
        <time>2018-03-28T09:26:30Z</time>
      </trkpt>
      <trkpt lat="36.8250800" lon="-4.4690180">
        <ele>438.9</ele>
        <time>2018-03-28T09:26:31Z</time>
      </trkpt>
      <trkpt lat="36.8250800" lon="-4.4690180">
        <ele>438.9</ele>
        <time>2018-03-28T09:26:32Z</time>
      </trkpt>
      <trkpt lat="36.8251370" lon="-4.4690030">
        <ele>438.9</ele>
        <time>2018-03-28T09:26:33Z</time>
      </trkpt>
      <trkpt lat="36.8251670" lon="-4.4689950">
        <ele>439.9</ele>
        <time>2018-03-28T09:26:34Z</time>
      </trkpt>
      <trkpt lat="36.8251670" lon="-4.4689950">
        <ele>439.9</ele>
        <time>2018-03-28T09:26:35Z</time>
      </trkpt>
      <trkpt lat="36.8252270" lon="-4.4689800">
        <ele>439.9</ele>
        <time>2018-03-28T09:26:36Z</time>
      </trkpt>
      <trkpt lat="36.8252550" lon="-4.4689730">
        <ele>439.9</ele>
        <time>2018-03-28T09:26:37Z</time>
      </trkpt>
      <trkpt lat="36.8252550" lon="-4.4689730">
        <ele>440.9</ele>
        <time>2018-03-28T09:26:38Z</time>
      </trkpt>
      <trkpt lat="36.8253200" lon="-4.4689720">
        <ele>440.9</ele>
        <time>2018-03-28T09:26:39Z</time>
      </trkpt>
      <trkpt lat="36.8253520" lon="-4.4689700">
        <ele>440.9</ele>
        <time>2018-03-28T09:26:40Z</time>
      </trkpt>
      <trkpt lat="36.8253520" lon="-4.4689700">
        <ele>440.9</ele>
        <time>2018-03-28T09:26:41Z</time>
      </trkpt>
      <trkpt lat="36.8254130" lon="-4.4689700">
        <ele>440.9</ele>
        <time>2018-03-28T09:26:42Z</time>
      </trkpt>
      <trkpt lat="36.8254450" lon="-4.4689700">
        <ele>440.9</ele>
        <time>2018-03-28T09:26:43Z</time>
      </trkpt>
      <trkpt lat="36.8254450" lon="-4.4689700">
        <ele>441.9</ele>
        <time>2018-03-28T09:26:44Z</time>
      </trkpt>
      <trkpt lat="36.8255070" lon="-4.4689680">
        <ele>441.9</ele>
        <time>2018-03-28T09:26:45Z</time>
      </trkpt>
      <trkpt lat="36.8255370" lon="-4.4689720">
        <ele>441.9</ele>
        <time>2018-03-28T09:26:46Z</time>
      </trkpt>
      <trkpt lat="36.8255370" lon="-4.4689720">
        <ele>441.9</ele>
        <time>2018-03-28T09:26:47Z</time>
      </trkpt>
      <trkpt lat="36.8255980" lon="-4.4689650">
        <ele>442.9</ele>
        <time>2018-03-28T09:26:48Z</time>
      </trkpt>
      <trkpt lat="36.8256300" lon="-4.4689650">
        <ele>442.9</ele>
        <time>2018-03-28T09:26:49Z</time>
      </trkpt>
      <trkpt lat="36.8256300" lon="-4.4689650">
        <ele>443.9</ele>
        <time>2018-03-28T09:26:50Z</time>
      </trkpt>
      <trkpt lat="36.8256880" lon="-4.4689630">
        <ele>443.9</ele>
        <time>2018-03-28T09:26:51Z</time>
      </trkpt>
      <trkpt lat="36.8256880" lon="-4.4689630">
        <ele>443.9</ele>
        <time>2018-03-28T09:26:52Z</time>
      </trkpt>
      <trkpt lat="36.8257480" lon="-4.4689550">
        <ele>443.9</ele>
        <time>2018-03-28T09:26:53Z</time>
      </trkpt>
      <trkpt lat="36.8257480" lon="-4.4689550">
        <ele>444.9</ele>
        <time>2018-03-28T09:26:54Z</time>
      </trkpt>
      <trkpt lat="36.8258130" lon="-4.4689420">
        <ele>444.9</ele>
        <time>2018-03-28T09:26:55Z</time>
      </trkpt>
      <trkpt lat="36.8258130" lon="-4.4689420">
        <ele>444.9</ele>
        <time>2018-03-28T09:26:56Z</time>
      </trkpt>
      <trkpt lat="36.8258730" lon="-4.4689350">
        <ele>445.9</ele>
        <time>2018-03-28T09:26:57Z</time>
      </trkpt>
      <trkpt lat="36.8258730" lon="-4.4689350">
        <ele>445.9</ele>
        <time>2018-03-28T09:26:58Z</time>
      </trkpt>
      <trkpt lat="36.8259270" lon="-4.4689250">
        <ele>445.9</ele>
        <time>2018-03-28T09:26:59Z</time>
      </trkpt>
      <trkpt lat="36.8259270" lon="-4.4689250">
        <ele>445.9</ele>
        <time>2018-03-28T09:27:00Z</time>
      </trkpt>
      <trkpt lat="36.8259830" lon="-4.4689200">
        <ele>446.9</ele>
        <time>2018-03-28T09:27:01Z</time>
      </trkpt>
      <trkpt lat="36.8259830" lon="-4.4689200">
        <ele>446.9</ele>
        <time>2018-03-28T09:27:02Z</time>
      </trkpt>
      <trkpt lat="36.8260400" lon="-4.4689030">
        <ele>446.9</ele>
        <time>2018-03-28T09:27:03Z</time>
      </trkpt>
      <trkpt lat="36.8260400" lon="-4.4689030">
        <ele>446.9</ele>
        <time>2018-03-28T09:27:04Z</time>
      </trkpt>
      <trkpt lat="36.8260950" lon="-4.4688900">
        <ele>447.9</ele>
        <time>2018-03-28T09:27:05Z</time>
      </trkpt>
      <trkpt lat="36.8260950" lon="-4.4688900">
        <ele>447.9</ele>
        <time>2018-03-28T09:27:06Z</time>
      </trkpt>
      <trkpt lat="36.8261480" lon="-4.4688830">
        <ele>447.9</ele>
        <time>2018-03-28T09:27:07Z</time>
      </trkpt>
      <trkpt lat="36.8261480" lon="-4.4688830">
        <ele>447.9</ele>
        <time>2018-03-28T09:27:08Z</time>
      </trkpt>
      <trkpt lat="36.8261930" lon="-4.4688620">
        <ele>448.9</ele>
        <time>2018-03-28T09:27:09Z</time>
      </trkpt>
      <trkpt lat="36.8262150" lon="-4.4688530">
        <ele>448.9</ele>
        <time>2018-03-28T09:27:10Z</time>
      </trkpt>
      <trkpt lat="36.8262150" lon="-4.4688530">
        <ele>448.9</ele>
        <time>2018-03-28T09:27:11Z</time>
      </trkpt>
      <trkpt lat="36.8262670" lon="-4.4688420">
        <ele>448.9</ele>
        <time>2018-03-28T09:27:12Z</time>
      </trkpt>
      <trkpt lat="36.8262930" lon="-4.4688370">
        <ele>449.9</ele>
        <time>2018-03-28T09:27:13Z</time>
      </trkpt>
      <trkpt lat="36.8262930" lon="-4.4688370">
        <ele>449.9</ele>
        <time>2018-03-28T09:27:14Z</time>
      </trkpt>
      <trkpt lat="36.8263470" lon="-4.4688280">
        <ele>449.9</ele>
        <time>2018-03-28T09:27:15Z</time>
      </trkpt>
      <trkpt lat="36.8263730" lon="-4.4688220">
        <ele>449.9</ele>
        <time>2018-03-28T09:27:16Z</time>
      </trkpt>
      <trkpt lat="36.8263980" lon="-4.4688180">
        <ele>450.9</ele>
        <time>2018-03-28T09:27:17Z</time>
      </trkpt>
      <trkpt lat="36.8263980" lon="-4.4688180">
        <ele>450.9</ele>
        <time>2018-03-28T09:27:18Z</time>
      </trkpt>
      <trkpt lat="36.8264530" lon="-4.4688080">
        <ele>450.9</ele>
        <time>2018-03-28T09:27:19Z</time>
      </trkpt>
      <trkpt lat="36.8264530" lon="-4.4688080">
        <ele>450.9</ele>
        <time>2018-03-28T09:27:20Z</time>
      </trkpt>
      <trkpt lat="36.8265100" lon="-4.4688030">
        <ele>450.9</ele>
        <time>2018-03-28T09:27:21Z</time>
      </trkpt>
      <trkpt lat="36.8265100" lon="-4.4688030">
        <ele>450.9</ele>
        <time>2018-03-28T09:27:22Z</time>
      </trkpt>
      <trkpt lat="36.8265580" lon="-4.4688020">
        <ele>450.9</ele>
        <time>2018-03-28T09:27:23Z</time>
      </trkpt>
      <trkpt lat="36.8265580" lon="-4.4688020">
        <ele>450.9</ele>
        <time>2018-03-28T09:27:24Z</time>
      </trkpt>
      <trkpt lat="36.8266100" lon="-4.4687930">
        <ele>451.9</ele>
        <time>2018-03-28T09:27:25Z</time>
      </trkpt>
      <trkpt lat="36.8266100" lon="-4.4687930">
        <ele>451.9</ele>
        <time>2018-03-28T09:27:26Z</time>
      </trkpt>
      <trkpt lat="36.8266600" lon="-4.4687770">
        <ele>451.9</ele>
        <time>2018-03-28T09:27:27Z</time>
      </trkpt>
      <trkpt lat="36.8266600" lon="-4.4687770">
        <ele>452.9</ele>
        <time>2018-03-28T09:27:28Z</time>
      </trkpt>
      <trkpt lat="36.8267130" lon="-4.4687650">
        <ele>452.9</ele>
        <time>2018-03-28T09:27:29Z</time>
      </trkpt>
      <trkpt lat="36.8267130" lon="-4.4687650">
        <ele>452.9</ele>
        <time>2018-03-28T09:27:30Z</time>
      </trkpt>
      <trkpt lat="36.8267630" lon="-4.4687550">
        <ele>452.9</ele>
        <time>2018-03-28T09:27:31Z</time>
      </trkpt>
      <trkpt lat="36.8267630" lon="-4.4687550">
        <ele>452.9</ele>
        <time>2018-03-28T09:27:32Z</time>
      </trkpt>
      <trkpt lat="36.8268170" lon="-4.4687430">
        <ele>452.9</ele>
        <time>2018-03-28T09:27:33Z</time>
      </trkpt>
      <trkpt lat="36.8268420" lon="-4.4687420">
        <ele>453.9</ele>
        <time>2018-03-28T09:27:34Z</time>
      </trkpt>
      <trkpt lat="36.8268420" lon="-4.4687420">
        <ele>453.9</ele>
        <time>2018-03-28T09:27:35Z</time>
      </trkpt>
      <trkpt lat="36.8268950" lon="-4.4687350">
        <ele>453.9</ele>
        <time>2018-03-28T09:27:36Z</time>
      </trkpt>
      <trkpt lat="36.8269250" lon="-4.4687300">
        <ele>453.9</ele>
        <time>2018-03-28T09:27:37Z</time>
      </trkpt>
      <trkpt lat="36.8269250" lon="-4.4687300">
        <ele>454.9</ele>
        <time>2018-03-28T09:27:38Z</time>
      </trkpt>
      <trkpt lat="36.8269780" lon="-4.4687280">
        <ele>454.9</ele>
        <time>2018-03-28T09:27:39Z</time>
      </trkpt>
      <trkpt lat="36.8269780" lon="-4.4687280">
        <ele>454.9</ele>
        <time>2018-03-28T09:27:40Z</time>
      </trkpt>
      <trkpt lat="36.8270330" lon="-4.4687170">
        <ele>454.9</ele>
        <time>2018-03-28T09:27:41Z</time>
      </trkpt>
      <trkpt lat="36.8270330" lon="-4.4687170">
        <ele>454.9</ele>
        <time>2018-03-28T09:27:42Z</time>
      </trkpt>
      <trkpt lat="36.8270880" lon="-4.4687080">
        <ele>455.9</ele>
        <time>2018-03-28T09:27:43Z</time>
      </trkpt>
      <trkpt lat="36.8271170" lon="-4.4687070">
        <ele>455.9</ele>
        <time>2018-03-28T09:27:44Z</time>
      </trkpt>
      <trkpt lat="36.8271450" lon="-4.4687050">
        <ele>455.9</ele>
        <time>2018-03-28T09:27:45Z</time>
      </trkpt>
      <trkpt lat="36.8271750" lon="-4.4687020">
        <ele>455.9</ele>
        <time>2018-03-28T09:27:46Z</time>
      </trkpt>
      <trkpt lat="36.8272040" lon="-4.4687020">
        <ele>455.9</ele>
        <time>2018-03-28T09:27:47Z</time>
      </trkpt>
      <trkpt lat="36.8272330" lon="-4.4687030">
        <ele>455.9</ele>
        <time>2018-03-28T09:27:48Z</time>
      </trkpt>
      <trkpt lat="36.8272650" lon="-4.4687050">
        <ele>456.9</ele>
        <time>2018-03-28T09:27:49Z</time>
      </trkpt>
      <trkpt lat="36.8272650" lon="-4.4687050">
        <ele>456.9</ele>
        <time>2018-03-28T09:27:50Z</time>
      </trkpt>
      <trkpt lat="36.8273300" lon="-4.4687100">
        <ele>456.9</ele>
        <time>2018-03-28T09:27:51Z</time>
      </trkpt>
      <trkpt lat="36.8273300" lon="-4.4687100">
        <ele>456.9</ele>
        <time>2018-03-28T09:27:52Z</time>
      </trkpt>
      <trkpt lat="36.8273980" lon="-4.4687170">
        <ele>456.9</ele>
        <time>2018-03-28T09:27:53Z</time>
      </trkpt>
      <trkpt lat="36.8273980" lon="-4.4687170">
        <ele>456.9</ele>
        <time>2018-03-28T09:27:54Z</time>
      </trkpt>
      <trkpt lat="36.8274680" lon="-4.4687200">
        <ele>456.9</ele>
        <time>2018-03-28T09:27:55Z</time>
      </trkpt>
      <trkpt lat="36.8274680" lon="-4.4687200">
        <ele>456.9</ele>
        <time>2018-03-28T09:27:56Z</time>
      </trkpt>
      <trkpt lat="36.8275380" lon="-4.4687200">
        <ele>456.9</ele>
        <time>2018-03-28T09:27:57Z</time>
      </trkpt>
      <trkpt lat="36.8275730" lon="-4.4687200">
        <ele>456.9</ele>
        <time>2018-03-28T09:27:58Z</time>
      </trkpt>
      <trkpt lat="36.8275730" lon="-4.4687200">
        <ele>456.9</ele>
        <time>2018-03-28T09:27:59Z</time>
      </trkpt>
      <trkpt lat="36.8276470" lon="-4.4687070">
        <ele>456.9</ele>
        <time>2018-03-28T09:28:00Z</time>
      </trkpt>
      <trkpt lat="36.8276830" lon="-4.4687070">
        <ele>456.9</ele>
        <time>2018-03-28T09:28:01Z</time>
      </trkpt>
      <trkpt lat="36.8276830" lon="-4.4687070">
        <ele>456.9</ele>
        <time>2018-03-28T09:28:02Z</time>
      </trkpt>
      <trkpt lat="36.8277600" lon="-4.4687130">
        <ele>456.9</ele>
        <time>2018-03-28T09:28:03Z</time>
      </trkpt>
      <trkpt lat="36.8277600" lon="-4.4687130">
        <ele>456.9</ele>
        <time>2018-03-28T09:28:04Z</time>
      </trkpt>
      <trkpt lat="36.8278400" lon="-4.4687150">
        <ele>456.9</ele>
        <time>2018-03-28T09:28:05Z</time>
      </trkpt>
      <trkpt lat="36.8278400" lon="-4.4687150">
        <ele>456.9</ele>
        <time>2018-03-28T09:28:06Z</time>
      </trkpt>
      <trkpt lat="36.8279220" lon="-4.4687220">
        <ele>456.9</ele>
        <time>2018-03-28T09:28:07Z</time>
      </trkpt>
      <trkpt lat="36.8279220" lon="-4.4687220">
        <ele>456.9</ele>
        <time>2018-03-28T09:28:08Z</time>
      </trkpt>
      <trkpt lat="36.8280020" lon="-4.4687350">
        <ele>456.9</ele>
        <time>2018-03-28T09:28:09Z</time>
      </trkpt>
      <trkpt lat="36.8280430" lon="-4.4687370">
        <ele>457.9</ele>
        <time>2018-03-28T09:28:10Z</time>
      </trkpt>
      <trkpt lat="36.8280430" lon="-4.4687370">
        <ele>457.9</ele>
        <time>2018-03-28T09:28:11Z</time>
      </trkpt>
      <trkpt lat="36.8281250" lon="-4.4687400">
        <ele>457.9</ele>
        <time>2018-03-28T09:28:12Z</time>
      </trkpt>
      <trkpt lat="36.8281630" lon="-4.4687400">
        <ele>457.9</ele>
        <time>2018-03-28T09:28:13Z</time>
      </trkpt>
      <trkpt lat="36.8281630" lon="-4.4687400">
        <ele>457.9</ele>
        <time>2018-03-28T09:28:14Z</time>
      </trkpt>
      <trkpt lat="36.8282420" lon="-4.4687370">
        <ele>457.9</ele>
        <time>2018-03-28T09:28:15Z</time>
      </trkpt>
      <trkpt lat="36.8282420" lon="-4.4687370">
        <ele>457.9</ele>
        <time>2018-03-28T09:28:16Z</time>
      </trkpt>
      <trkpt lat="36.8283200" lon="-4.4687200">
        <ele>457.9</ele>
        <time>2018-03-28T09:28:17Z</time>
      </trkpt>
      <trkpt lat="36.8283200" lon="-4.4687200">
        <ele>457.9</ele>
        <time>2018-03-28T09:28:18Z</time>
      </trkpt>
      <trkpt lat="36.8283900" lon="-4.4687000">
        <ele>457.9</ele>
        <time>2018-03-28T09:28:19Z</time>
      </trkpt>
      <trkpt lat="36.8283900" lon="-4.4687000">
        <ele>458.9</ele>
        <time>2018-03-28T09:28:20Z</time>
      </trkpt>
      <trkpt lat="36.8284480" lon="-4.4686630">
        <ele>458.9</ele>
        <time>2018-03-28T09:28:21Z</time>
      </trkpt>
      <trkpt lat="36.8284480" lon="-4.4686630">
        <ele>458.9</ele>
        <time>2018-03-28T09:28:22Z</time>
      </trkpt>
      <trkpt lat="36.8285070" lon="-4.4686270">
        <ele>458.9</ele>
        <time>2018-03-28T09:28:23Z</time>
      </trkpt>
      <trkpt lat="36.8285370" lon="-4.4686050">
        <ele>459.9</ele>
        <time>2018-03-28T09:28:24Z</time>
      </trkpt>
      <trkpt lat="36.8285650" lon="-4.4685830">
        <ele>459.9</ele>
        <time>2018-03-28T09:28:25Z</time>
      </trkpt>
      <trkpt lat="36.8285650" lon="-4.4685830">
        <ele>459.9</ele>
        <time>2018-03-28T09:28:26Z</time>
      </trkpt>
      <trkpt lat="36.8286220" lon="-4.4685380">
        <ele>459.9</ele>
        <time>2018-03-28T09:28:27Z</time>
      </trkpt>
      <trkpt lat="36.8286520" lon="-4.4685180">
        <ele>459.9</ele>
        <time>2018-03-28T09:28:28Z</time>
      </trkpt>
      <trkpt lat="36.8286520" lon="-4.4685180">
        <ele>460.9</ele>
        <time>2018-03-28T09:28:29Z</time>
      </trkpt>
      <trkpt lat="36.8287130" lon="-4.4684800">
        <ele>460.9</ele>
        <time>2018-03-28T09:28:30Z</time>
      </trkpt>
      <trkpt lat="36.8287420" lon="-4.4684650">
        <ele>460.9</ele>
        <time>2018-03-28T09:28:31Z</time>
      </trkpt>
      <trkpt lat="36.8287420" lon="-4.4684650">
        <ele>460.9</ele>
        <time>2018-03-28T09:28:32Z</time>
      </trkpt>
      <trkpt lat="36.8288070" lon="-4.4684420">
        <ele>461.9</ele>
        <time>2018-03-28T09:28:33Z</time>
      </trkpt>
      <trkpt lat="36.8288070" lon="-4.4684420">
        <ele>461.9</ele>
        <time>2018-03-28T09:28:34Z</time>
      </trkpt>
      <trkpt lat="36.8288820" lon="-4.4684580">
        <ele>461.9</ele>
        <time>2018-03-28T09:28:35Z</time>
      </trkpt>
      <trkpt lat="36.8288820" lon="-4.4684580">
        <ele>461.9</ele>
        <time>2018-03-28T09:28:36Z</time>
      </trkpt>
      <trkpt lat="36.8289450" lon="-4.4685050">
        <ele>462.9</ele>
        <time>2018-03-28T09:28:37Z</time>
      </trkpt>
      <trkpt lat="36.8289450" lon="-4.4685050">
        <ele>462.9</ele>
        <time>2018-03-28T09:28:38Z</time>
      </trkpt>
      <trkpt lat="36.8289900" lon="-4.4685800">
        <ele>462.9</ele>
        <time>2018-03-28T09:28:39Z</time>
      </trkpt>
      <trkpt lat="36.8289900" lon="-4.4685800">
        <ele>462.9</ele>
        <time>2018-03-28T09:28:40Z</time>
      </trkpt>
      <trkpt lat="36.8290300" lon="-4.4686600">
        <ele>462.9</ele>
        <time>2018-03-28T09:28:41Z</time>
      </trkpt>
      <trkpt lat="36.8290300" lon="-4.4686600">
        <ele>462.9</ele>
        <time>2018-03-28T09:28:42Z</time>
      </trkpt>
      <trkpt lat="36.8290680" lon="-4.4687400">
        <ele>462.9</ele>
        <time>2018-03-28T09:28:43Z</time>
      </trkpt>
      <trkpt lat="36.8290680" lon="-4.4687400">
        <ele>462.9</ele>
        <time>2018-03-28T09:28:44Z</time>
      </trkpt>
      <trkpt lat="36.8291120" lon="-4.4688130">
        <ele>462.9</ele>
        <time>2018-03-28T09:28:45Z</time>
      </trkpt>
      <trkpt lat="36.8291400" lon="-4.4688420">
        <ele>462.9</ele>
        <time>2018-03-28T09:28:46Z</time>
      </trkpt>
      <trkpt lat="36.8291400" lon="-4.4688420">
        <ele>463.9</ele>
        <time>2018-03-28T09:28:47Z</time>
      </trkpt>
      <trkpt lat="36.8291980" lon="-4.4688830">
        <ele>463.9</ele>
        <time>2018-03-28T09:28:48Z</time>
      </trkpt>
      <trkpt lat="36.8292320" lon="-4.4688970">
        <ele>463.9</ele>
        <time>2018-03-28T09:28:49Z</time>
      </trkpt>
      <trkpt lat="36.8292320" lon="-4.4688970">
        <ele>463.9</ele>
        <time>2018-03-28T09:28:50Z</time>
      </trkpt>
      <trkpt lat="36.8293030" lon="-4.4689170">
        <ele>463.9</ele>
        <time>2018-03-28T09:28:51Z</time>
      </trkpt>
      <trkpt lat="36.8293030" lon="-4.4689170">
        <ele>463.9</ele>
        <time>2018-03-28T09:28:52Z</time>
      </trkpt>
      <trkpt lat="36.8293750" lon="-4.4689420">
        <ele>463.9</ele>
        <time>2018-03-28T09:28:53Z</time>
      </trkpt>
      <trkpt lat="36.8294130" lon="-4.4689550">
        <ele>463.9</ele>
        <time>2018-03-28T09:28:54Z</time>
      </trkpt>
      <trkpt lat="36.8294520" lon="-4.4689670">
        <ele>464.9</ele>
        <time>2018-03-28T09:28:55Z</time>
      </trkpt>
      <trkpt lat="36.8294520" lon="-4.4689670">
        <ele>464.9</ele>
        <time>2018-03-28T09:28:56Z</time>
      </trkpt>
      <trkpt lat="36.8295280" lon="-4.4689870">
        <ele>464.9</ele>
        <time>2018-03-28T09:28:57Z</time>
      </trkpt>
      <trkpt lat="36.8295650" lon="-4.4689980">
        <ele>464.9</ele>
        <time>2018-03-28T09:28:58Z</time>
      </trkpt>
      <trkpt lat="36.8296030" lon="-4.4690080">
        <ele>464.9</ele>
        <time>2018-03-28T09:28:59Z</time>
      </trkpt>
      <trkpt lat="36.8296030" lon="-4.4690080">
        <ele>465.9</ele>
        <time>2018-03-28T09:29:00Z</time>
      </trkpt>
      <trkpt lat="36.8296780" lon="-4.4690200">
        <ele>465.9</ele>
        <time>2018-03-28T09:29:01Z</time>
      </trkpt>
      <trkpt lat="36.8296780" lon="-4.4690200">
        <ele>465.9</ele>
        <time>2018-03-28T09:29:02Z</time>
      </trkpt>
      <trkpt lat="36.8297530" lon="-4.4690180">
        <ele>465.9</ele>
        <time>2018-03-28T09:29:03Z</time>
      </trkpt>
      <trkpt lat="36.8297530" lon="-4.4690180">
        <ele>465.9</ele>
        <time>2018-03-28T09:29:04Z</time>
      </trkpt>
      <trkpt lat="36.8298250" lon="-4.4689950">
        <ele>465.9</ele>
        <time>2018-03-28T09:29:05Z</time>
      </trkpt>
      <trkpt lat="36.8298250" lon="-4.4689950">
        <ele>465.9</ele>
        <time>2018-03-28T09:29:06Z</time>
      </trkpt>
      <trkpt lat="36.8298870" lon="-4.4689420">
        <ele>465.9</ele>
        <time>2018-03-28T09:29:07Z</time>
      </trkpt>
      <trkpt lat="36.8298870" lon="-4.4689420">
        <ele>466.9</ele>
        <time>2018-03-28T09:29:08Z</time>
      </trkpt>
      <trkpt lat="36.8299300" lon="-4.4688670">
        <ele>466.9</ele>
        <time>2018-03-28T09:29:09Z</time>
      </trkpt>
      <trkpt lat="36.8299450" lon="-4.4688270">
        <ele>466.9</ele>
        <time>2018-03-28T09:29:10Z</time>
      </trkpt>
      <trkpt lat="36.8299620" lon="-4.4687900">
        <ele>466.9</ele>
        <time>2018-03-28T09:29:11Z</time>
      </trkpt>
      <trkpt lat="36.8299620" lon="-4.4687900">
        <ele>466.9</ele>
        <time>2018-03-28T09:29:12Z</time>
      </trkpt>
      <trkpt lat="36.8300020" lon="-4.4687200">
        <ele>466.9</ele>
        <time>2018-03-28T09:29:13Z</time>
      </trkpt>
      <trkpt lat="36.8300020" lon="-4.4687200">
        <ele>466.9</ele>
        <time>2018-03-28T09:29:14Z</time>
      </trkpt>
      <trkpt lat="36.8300250" lon="-4.4686530">
        <ele>467.9</ele>
        <time>2018-03-28T09:29:15Z</time>
      </trkpt>
      <trkpt lat="36.8300250" lon="-4.4686530">
        <ele>467.9</ele>
        <time>2018-03-28T09:29:16Z</time>
      </trkpt>
      <trkpt lat="36.8300550" lon="-4.4685900">
        <ele>467.9</ele>
        <time>2018-03-28T09:29:17Z</time>
      </trkpt>
      <trkpt lat="36.8300700" lon="-4.4685600">
        <ele>467.9</ele>
        <time>2018-03-28T09:29:18Z</time>
      </trkpt>
      <trkpt lat="36.8300850" lon="-4.4685270">
        <ele>468.9</ele>
        <time>2018-03-28T09:29:19Z</time>
      </trkpt>
      <trkpt lat="36.8300850" lon="-4.4685270">
        <ele>468.9</ele>
        <time>2018-03-28T09:29:20Z</time>
      </trkpt>
      <trkpt lat="36.8301170" lon="-4.4684600">
        <ele>468.9</ele>
        <time>2018-03-28T09:29:21Z</time>
      </trkpt>
      <trkpt lat="36.8301170" lon="-4.4684600">
        <ele>468.9</ele>
        <time>2018-03-28T09:29:22Z</time>
      </trkpt>
      <trkpt lat="36.8301450" lon="-4.4683930">
        <ele>469.9</ele>
        <time>2018-03-28T09:29:23Z</time>
      </trkpt>
      <trkpt lat="36.8301450" lon="-4.4683930">
        <ele>469.9</ele>
        <time>2018-03-28T09:29:24Z</time>
      </trkpt>
      <trkpt lat="36.8301780" lon="-4.4683280">
        <ele>469.9</ele>
        <time>2018-03-28T09:29:25Z</time>
      </trkpt>
      <trkpt lat="36.8301780" lon="-4.4683280">
        <ele>470.9</ele>
        <time>2018-03-28T09:29:26Z</time>
      </trkpt>
      <trkpt lat="36.8302120" lon="-4.4682600">
        <ele>470.9</ele>
        <time>2018-03-28T09:29:27Z</time>
      </trkpt>
      <trkpt lat="36.8302250" lon="-4.4682270">
        <ele>470.9</ele>
        <time>2018-03-28T09:29:28Z</time>
      </trkpt>
      <trkpt lat="36.8302250" lon="-4.4682270">
        <ele>470.9</ele>
        <time>2018-03-28T09:29:29Z</time>
      </trkpt>
      <trkpt lat="36.8302570" lon="-4.4681630">
        <ele>470.9</ele>
        <time>2018-03-28T09:29:30Z</time>
      </trkpt>
      <trkpt lat="36.8302570" lon="-4.4681630">
        <ele>471.9</ele>
        <time>2018-03-28T09:29:31Z</time>
      </trkpt>
      <trkpt lat="36.8302900" lon="-4.4681000">
        <ele>471.9</ele>
        <time>2018-03-28T09:29:32Z</time>
      </trkpt>
      <trkpt lat="36.8302900" lon="-4.4681000">
        <ele>472.9</ele>
        <time>2018-03-28T09:29:33Z</time>
      </trkpt>
      <trkpt lat="36.8303180" lon="-4.4680400">
        <ele>472.9</ele>
        <time>2018-03-28T09:29:34Z</time>
      </trkpt>
      <trkpt lat="36.8303180" lon="-4.4680400">
        <ele>472.9</ele>
        <time>2018-03-28T09:29:35Z</time>
      </trkpt>
      <trkpt lat="36.8303550" lon="-4.4679630">
        <ele>472.9</ele>
        <time>2018-03-28T09:29:36Z</time>
      </trkpt>
      <trkpt lat="36.8303620" lon="-4.4679480">
        <ele>473.9</ele>
        <time>2018-03-28T09:29:37Z</time>
      </trkpt>
      <trkpt lat="36.8303620" lon="-4.4679480">
        <ele>473.9</ele>
        <time>2018-03-28T09:29:38Z</time>
      </trkpt>
      <trkpt lat="36.8304100" lon="-4.4679000">
        <ele>473.9</ele>
        <time>2018-03-28T09:29:39Z</time>
      </trkpt>
      <trkpt lat="36.8304370" lon="-4.4678830">
        <ele>473.9</ele>
        <time>2018-03-28T09:29:40Z</time>
      </trkpt>
      <trkpt lat="36.8304370" lon="-4.4678830">
        <ele>474.9</ele>
        <time>2018-03-28T09:29:41Z</time>
      </trkpt>
      <trkpt lat="36.8304980" lon="-4.4678750">
        <ele>474.9</ele>
        <time>2018-03-28T09:29:42Z</time>
      </trkpt>
      <trkpt lat="36.8304980" lon="-4.4678750">
        <ele>474.9</ele>
        <time>2018-03-28T09:29:43Z</time>
      </trkpt>
      <trkpt lat="36.8305580" lon="-4.4679080">
        <ele>474.9</ele>
        <time>2018-03-28T09:29:44Z</time>
      </trkpt>
      <trkpt lat="36.8305920" lon="-4.4679320">
        <ele>474.9</ele>
        <time>2018-03-28T09:29:45Z</time>
      </trkpt>
      <trkpt lat="36.8305920" lon="-4.4679320">
        <ele>474.9</ele>
        <time>2018-03-28T09:29:46Z</time>
      </trkpt>
      <trkpt lat="36.8306530" lon="-4.4679800">
        <ele>475.9</ele>
        <time>2018-03-28T09:29:47Z</time>
      </trkpt>
      <trkpt lat="36.8306850" lon="-4.4680050">
        <ele>475.9</ele>
        <time>2018-03-28T09:29:48Z</time>
      </trkpt>
      <trkpt lat="36.8307130" lon="-4.4680270">
        <ele>475.9</ele>
        <time>2018-03-28T09:29:49Z</time>
      </trkpt>
      <trkpt lat="36.8307130" lon="-4.4680270">
        <ele>475.9</ele>
        <time>2018-03-28T09:29:50Z</time>
      </trkpt>
      <trkpt lat="36.8307700" lon="-4.4680630">
        <ele>475.9</ele>
        <time>2018-03-28T09:29:51Z</time>
      </trkpt>
      <trkpt lat="36.8308020" lon="-4.4680720">
        <ele>475.9</ele>
        <time>2018-03-28T09:29:52Z</time>
      </trkpt>
      <trkpt lat="36.8308020" lon="-4.4680720">
        <ele>476.9</ele>
        <time>2018-03-28T09:29:53Z</time>
      </trkpt>
      <trkpt lat="36.8308720" lon="-4.4680780">
        <ele>476.9</ele>
        <time>2018-03-28T09:29:54Z</time>
      </trkpt>
      <trkpt lat="36.8309020" lon="-4.4680750">
        <ele>476.9</ele>
        <time>2018-03-28T09:29:55Z</time>
      </trkpt>
      <trkpt lat="36.8309020" lon="-4.4680750">
        <ele>476.9</ele>
        <time>2018-03-28T09:29:56Z</time>
      </trkpt>
      <trkpt lat="36.8309550" lon="-4.4680650">
        <ele>476.9</ele>
        <time>2018-03-28T09:29:57Z</time>
      </trkpt>
      <trkpt lat="36.8309550" lon="-4.4680650">
        <ele>476.9</ele>
        <time>2018-03-28T09:29:58Z</time>
      </trkpt>
      <trkpt lat="36.8310050" lon="-4.4680470">
        <ele>476.9</ele>
        <time>2018-03-28T09:29:59Z</time>
      </trkpt>
      <trkpt lat="36.8310050" lon="-4.4680470">
        <ele>477.9</ele>
        <time>2018-03-28T09:30:00Z</time>
      </trkpt>
      <trkpt lat="36.8310520" lon="-4.4680150">
        <ele>477.9</ele>
        <time>2018-03-28T09:30:01Z</time>
      </trkpt>
      <trkpt lat="36.8310750" lon="-4.4679940">
        <ele>477.9</ele>
        <time>2018-03-28T09:30:02Z</time>
      </trkpt>
      <trkpt lat="36.8310970" lon="-4.4679720">
        <ele>477.9</ele>
        <time>2018-03-28T09:30:03Z</time>
      </trkpt>
      <trkpt lat="36.8311180" lon="-4.4679520">
        <ele>478.9</ele>
        <time>2018-03-28T09:30:04Z</time>
      </trkpt>
      <trkpt lat="36.8311180" lon="-4.4679520">
        <ele>478.9</ele>
        <time>2018-03-28T09:30:05Z</time>
      </trkpt>
      <trkpt lat="36.8311550" lon="-4.4679100">
        <ele>478.9</ele>
        <time>2018-03-28T09:30:06Z</time>
      </trkpt>
      <trkpt lat="36.8311550" lon="-4.4679100">
        <ele>478.9</ele>
        <time>2018-03-28T09:30:07Z</time>
      </trkpt>
      <trkpt lat="36.8311930" lon="-4.4678680">
        <ele>479.9</ele>
        <time>2018-03-28T09:30:08Z</time>
      </trkpt>
      <trkpt lat="36.8312130" lon="-4.4678480">
        <ele>479.9</ele>
        <time>2018-03-28T09:30:09Z</time>
      </trkpt>
      <trkpt lat="36.8312300" lon="-4.4678250">
        <ele>479.9</ele>
        <time>2018-03-28T09:30:10Z</time>
      </trkpt>
      <trkpt lat="36.8312300" lon="-4.4678250">
        <ele>479.9</ele>
        <time>2018-03-28T09:30:11Z</time>
      </trkpt>
      <trkpt lat="36.8312620" lon="-4.4677720">
        <ele>480.9</ele>
        <time>2018-03-28T09:30:12Z</time>
      </trkpt>
      <trkpt lat="36.8312780" lon="-4.4677450">
        <ele>480.9</ele>
        <time>2018-03-28T09:30:13Z</time>
      </trkpt>
      <trkpt lat="36.8312780" lon="-4.4677450">
        <ele>480.9</ele>
        <time>2018-03-28T09:30:14Z</time>
      </trkpt>
      <trkpt lat="36.8313180" lon="-4.4676930">
        <ele>480.9</ele>
        <time>2018-03-28T09:30:15Z</time>
      </trkpt>
      <trkpt lat="36.8313180" lon="-4.4676930">
        <ele>480.9</ele>
        <time>2018-03-28T09:30:16Z</time>
      </trkpt>
      <trkpt lat="36.8313520" lon="-4.4676370">
        <ele>480.9</ele>
        <time>2018-03-28T09:30:17Z</time>
      </trkpt>
      <trkpt lat="36.8313520" lon="-4.4676370">
        <ele>480.9</ele>
        <time>2018-03-28T09:30:18Z</time>
      </trkpt>
      <trkpt lat="36.8313830" lon="-4.4675820">
        <ele>480.9</ele>
        <time>2018-03-28T09:30:19Z</time>
      </trkpt>
      <trkpt lat="36.8313830" lon="-4.4675820">
        <ele>481.9</ele>
        <time>2018-03-28T09:30:20Z</time>
      </trkpt>
      <trkpt lat="36.8314130" lon="-4.4675250">
        <ele>481.9</ele>
        <time>2018-03-28T09:30:21Z</time>
      </trkpt>
      <trkpt lat="36.8314130" lon="-4.4675250">
        <ele>481.9</ele>
        <time>2018-03-28T09:30:22Z</time>
      </trkpt>
      <trkpt lat="36.8314480" lon="-4.4674700">
        <ele>481.9</ele>
        <time>2018-03-28T09:30:23Z</time>
      </trkpt>
      <trkpt lat="36.8314650" lon="-4.4674450">
        <ele>482.9</ele>
        <time>2018-03-28T09:30:24Z</time>
      </trkpt>
      <trkpt lat="36.8314830" lon="-4.4674180">
        <ele>482.9</ele>
        <time>2018-03-28T09:30:25Z</time>
      </trkpt>
      <trkpt lat="36.8314830" lon="-4.4674180">
        <ele>482.9</ele>
        <time>2018-03-28T09:30:26Z</time>
      </trkpt>
      <trkpt lat="36.8315150" lon="-4.4673700">
        <ele>483.9</ele>
        <time>2018-03-28T09:30:27Z</time>
      </trkpt>
      <trkpt lat="36.8315150" lon="-4.4673700">
        <ele>483.9</ele>
        <time>2018-03-28T09:30:28Z</time>
      </trkpt>
      <trkpt lat="36.8315370" lon="-4.4673200">
        <ele>483.9</ele>
        <time>2018-03-28T09:30:29Z</time>
      </trkpt>
      <trkpt lat="36.8315370" lon="-4.4673200">
        <ele>483.9</ele>
        <time>2018-03-28T09:30:30Z</time>
      </trkpt>
      <trkpt lat="36.8315650" lon="-4.4672770">
        <ele>484.9</ele>
        <time>2018-03-28T09:30:31Z</time>
      </trkpt>
      <trkpt lat="36.8315840" lon="-4.4672600">
        <ele>484.9</ele>
        <time>2018-03-28T09:30:32Z</time>
      </trkpt>
      <trkpt lat="36.8316030" lon="-4.4672420">
        <ele>484.9</ele>
        <time>2018-03-28T09:30:33Z</time>
      </trkpt>
      <trkpt lat="36.8316030" lon="-4.4672420">
        <ele>484.9</ele>
        <time>2018-03-28T09:30:34Z</time>
      </trkpt>
      <trkpt lat="36.8316470" lon="-4.4672180">
        <ele>485.9</ele>
        <time>2018-03-28T09:30:35Z</time>
      </trkpt>
      <trkpt lat="36.8316680" lon="-4.4672170">
        <ele>485.9</ele>
        <time>2018-03-28T09:30:36Z</time>
      </trkpt>
      <trkpt lat="36.8316920" lon="-4.4672230">
        <ele>485.9</ele>
        <time>2018-03-28T09:30:37Z</time>
      </trkpt>
      <trkpt lat="36.8316920" lon="-4.4672230">
        <ele>485.9</ele>
        <time>2018-03-28T09:30:38Z</time>
      </trkpt>
      <trkpt lat="36.8317300" lon="-4.4672550">
        <ele>485.9</ele>
        <time>2018-03-28T09:30:39Z</time>
      </trkpt>
      <trkpt lat="36.8317470" lon="-4.4672800">
        <ele>486.9</ele>
        <time>2018-03-28T09:30:40Z</time>
      </trkpt>
      <trkpt lat="36.8317470" lon="-4.4672800">
        <ele>486.9</ele>
        <time>2018-03-28T09:30:41Z</time>
      </trkpt>
      <trkpt lat="36.8317770" lon="-4.4673330">
        <ele>486.9</ele>
        <time>2018-03-28T09:30:42Z</time>
      </trkpt>
      <trkpt lat="36.8317870" lon="-4.4673650">
        <ele>486.9</ele>
        <time>2018-03-28T09:30:43Z</time>
      </trkpt>
      <trkpt lat="36.8317870" lon="-4.4673650">
        <ele>486.9</ele>
        <time>2018-03-28T09:30:44Z</time>
      </trkpt>
      <trkpt lat="36.8318050" lon="-4.4674300">
        <ele>486.9</ele>
        <time>2018-03-28T09:30:45Z</time>
      </trkpt>
      <trkpt lat="36.8318050" lon="-4.4674300">
        <ele>486.9</ele>
        <time>2018-03-28T09:30:46Z</time>
      </trkpt>
      <trkpt lat="36.8318150" lon="-4.4674970">
        <ele>486.9</ele>
        <time>2018-03-28T09:30:47Z</time>
      </trkpt>
      <trkpt lat="36.8318150" lon="-4.4674970">
        <ele>486.9</ele>
        <time>2018-03-28T09:30:48Z</time>
      </trkpt>
      <trkpt lat="36.8318230" lon="-4.4675580">
        <ele>486.9</ele>
        <time>2018-03-28T09:30:49Z</time>
      </trkpt>
      <trkpt lat="36.8318230" lon="-4.4675870">
        <ele>487.9</ele>
        <time>2018-03-28T09:30:50Z</time>
      </trkpt>
      <trkpt lat="36.8318230" lon="-4.4675870">
        <ele>487.9</ele>
        <time>2018-03-28T09:30:51Z</time>
      </trkpt>
      <trkpt lat="36.8318220" lon="-4.4676470">
        <ele>487.9</ele>
        <time>2018-03-28T09:30:52Z</time>
      </trkpt>
      <trkpt lat="36.8318220" lon="-4.4676470">
        <ele>487.9</ele>
        <time>2018-03-28T09:30:53Z</time>
      </trkpt>
      <trkpt lat="36.8318230" lon="-4.4677120">
        <ele>488.9</ele>
        <time>2018-03-28T09:30:54Z</time>
      </trkpt>
      <trkpt lat="36.8318230" lon="-4.4677120">
        <ele>488.9</ele>
        <time>2018-03-28T09:30:55Z</time>
      </trkpt>
      <trkpt lat="36.8318300" lon="-4.4677780">
        <ele>488.9</ele>
        <time>2018-03-28T09:30:56Z</time>
      </trkpt>
      <trkpt lat="36.8318300" lon="-4.4677780">
        <ele>488.9</ele>
        <time>2018-03-28T09:30:57Z</time>
      </trkpt>
      <trkpt lat="36.8318280" lon="-4.4678420">
        <ele>488.9</ele>
        <time>2018-03-28T09:30:58Z</time>
      </trkpt>
      <trkpt lat="36.8318300" lon="-4.4678730">
        <ele>488.9</ele>
        <time>2018-03-28T09:30:59Z</time>
      </trkpt>
      <trkpt lat="36.8318300" lon="-4.4678730">
        <ele>488.9</ele>
        <time>2018-03-28T09:31:00Z</time>
      </trkpt>
      <trkpt lat="36.8318400" lon="-4.4679370">
        <ele>489.9</ele>
        <time>2018-03-28T09:31:01Z</time>
      </trkpt>
      <trkpt lat="36.8318400" lon="-4.4679370">
        <ele>489.9</ele>
        <time>2018-03-28T09:31:02Z</time>
      </trkpt>
      <trkpt lat="36.8318520" lon="-4.4679980">
        <ele>489.9</ele>
        <time>2018-03-28T09:31:03Z</time>
      </trkpt>
      <trkpt lat="36.8318580" lon="-4.4680280">
        <ele>489.9</ele>
        <time>2018-03-28T09:31:04Z</time>
      </trkpt>
      <trkpt lat="36.8318580" lon="-4.4680280">
        <ele>489.9</ele>
        <time>2018-03-28T09:31:05Z</time>
      </trkpt>
      <trkpt lat="36.8318750" lon="-4.4680870">
        <ele>489.9</ele>
        <time>2018-03-28T09:31:06Z</time>
      </trkpt>
      <trkpt lat="36.8318830" lon="-4.4681150">
        <ele>490.9</ele>
        <time>2018-03-28T09:31:07Z</time>
      </trkpt>
      <trkpt lat="36.8318830" lon="-4.4681150">
        <ele>490.9</ele>
        <time>2018-03-28T09:31:08Z</time>
      </trkpt>
      <trkpt lat="36.8319030" lon="-4.4681730">
        <ele>490.9</ele>
        <time>2018-03-28T09:31:09Z</time>
      </trkpt>
      <trkpt lat="36.8319150" lon="-4.4682020">
        <ele>490.9</ele>
        <time>2018-03-28T09:31:10Z</time>
      </trkpt>
      <trkpt lat="36.8319150" lon="-4.4682020">
        <ele>490.9</ele>
        <time>2018-03-28T09:31:11Z</time>
      </trkpt>
      <trkpt lat="36.8319420" lon="-4.4682520">
        <ele>491.9</ele>
        <time>2018-03-28T09:31:12Z</time>
      </trkpt>
      <trkpt lat="36.8319420" lon="-4.4682520">
        <ele>491.9</ele>
        <time>2018-03-28T09:31:13Z</time>
      </trkpt>
      <trkpt lat="36.8319730" lon="-4.4683050">
        <ele>491.9</ele>
        <time>2018-03-28T09:31:14Z</time>
      </trkpt>
      <trkpt lat="36.8319730" lon="-4.4683050">
        <ele>491.9</ele>
        <time>2018-03-28T09:31:15Z</time>
      </trkpt>
      <trkpt lat="36.8320080" lon="-4.4683530">
        <ele>492.9</ele>
        <time>2018-03-28T09:31:16Z</time>
      </trkpt>
      <trkpt lat="36.8320270" lon="-4.4683800">
        <ele>492.9</ele>
        <time>2018-03-28T09:31:17Z</time>
      </trkpt>
      <trkpt lat="36.8320270" lon="-4.4683800">
        <ele>492.9</ele>
        <time>2018-03-28T09:31:18Z</time>
      </trkpt>
      <trkpt lat="36.8320680" lon="-4.4684230">
        <ele>492.9</ele>
        <time>2018-03-28T09:31:19Z</time>
      </trkpt>
      <trkpt lat="36.8320680" lon="-4.4684230">
        <ele>493.9</ele>
        <time>2018-03-28T09:31:20Z</time>
      </trkpt>
      <trkpt lat="36.8321130" lon="-4.4684620">
        <ele>493.9</ele>
        <time>2018-03-28T09:31:21Z</time>
      </trkpt>
      <trkpt lat="36.8321130" lon="-4.4684620">
        <ele>493.9</ele>
        <time>2018-03-28T09:31:22Z</time>
      </trkpt>
      <trkpt lat="36.8321630" lon="-4.4684870">
        <ele>493.9</ele>
        <time>2018-03-28T09:31:23Z</time>
      </trkpt>
      <trkpt lat="36.8321920" lon="-4.4684900">
        <ele>493.9</ele>
        <time>2018-03-28T09:31:24Z</time>
      </trkpt>
      <trkpt lat="36.8322180" lon="-4.4684900">
        <ele>493.9</ele>
        <time>2018-03-28T09:31:25Z</time>
      </trkpt>
      <trkpt lat="36.8322180" lon="-4.4684900">
        <ele>494.9</ele>
        <time>2018-03-28T09:31:26Z</time>
      </trkpt>
      <trkpt lat="36.8322750" lon="-4.4684930">
        <ele>494.9</ele>
        <time>2018-03-28T09:31:27Z</time>
      </trkpt>
      <trkpt lat="36.8322750" lon="-4.4684930">
        <ele>494.9</ele>
        <time>2018-03-28T09:31:28Z</time>
      </trkpt>
      <trkpt lat="36.8323280" lon="-4.4684980">
        <ele>494.9</ele>
        <time>2018-03-28T09:31:29Z</time>
      </trkpt>
      <trkpt lat="36.8323280" lon="-4.4684980">
        <ele>494.9</ele>
        <time>2018-03-28T09:31:30Z</time>
      </trkpt>
      <trkpt lat="36.8323780" lon="-4.4685070">
        <ele>494.9</ele>
        <time>2018-03-28T09:31:31Z</time>
      </trkpt>
      <trkpt lat="36.8323780" lon="-4.4685070">
        <ele>495.9</ele>
        <time>2018-03-28T09:31:32Z</time>
      </trkpt>
      <trkpt lat="36.8324280" lon="-4.4685150">
        <ele>495.9</ele>
        <time>2018-03-28T09:31:33Z</time>
      </trkpt>
      <trkpt lat="36.8324550" lon="-4.4685130">
        <ele>495.9</ele>
        <time>2018-03-28T09:31:34Z</time>
      </trkpt>
      <trkpt lat="36.8324550" lon="-4.4685130">
        <ele>495.9</ele>
        <time>2018-03-28T09:31:35Z</time>
      </trkpt>
      <trkpt lat="36.8325130" lon="-4.4685020">
        <ele>495.9</ele>
        <time>2018-03-28T09:31:36Z</time>
      </trkpt>
      <trkpt lat="36.8325430" lon="-4.4684870">
        <ele>495.9</ele>
        <time>2018-03-28T09:31:37Z</time>
      </trkpt>
      <trkpt lat="36.8325430" lon="-4.4684870">
        <ele>495.9</ele>
        <time>2018-03-28T09:31:38Z</time>
      </trkpt>
      <trkpt lat="36.8325900" lon="-4.4684570">
        <ele>495.9</ele>
        <time>2018-03-28T09:31:39Z</time>
      </trkpt>
      <trkpt lat="36.8325900" lon="-4.4684570">
        <ele>495.9</ele>
        <time>2018-03-28T09:31:40Z</time>
      </trkpt>
      <trkpt lat="36.8326380" lon="-4.4684270">
        <ele>496.9</ele>
        <time>2018-03-28T09:31:41Z</time>
      </trkpt>
      <trkpt lat="36.8326380" lon="-4.4684270">
        <ele>496.9</ele>
        <time>2018-03-28T09:31:42Z</time>
      </trkpt>
      <trkpt lat="36.8326820" lon="-4.4683930">
        <ele>496.9</ele>
        <time>2018-03-28T09:31:43Z</time>
      </trkpt>
      <trkpt lat="36.8326820" lon="-4.4683930">
        <ele>496.9</ele>
        <time>2018-03-28T09:31:44Z</time>
      </trkpt>
      <trkpt lat="36.8327180" lon="-4.4683470">
        <ele>497.9</ele>
        <time>2018-03-28T09:31:45Z</time>
      </trkpt>
      <trkpt lat="36.8327180" lon="-4.4683470">
        <ele>497.9</ele>
        <time>2018-03-28T09:31:46Z</time>
      </trkpt>
      <trkpt lat="36.8327500" lon="-4.4682900">
        <ele>497.9</ele>
        <time>2018-03-28T09:31:47Z</time>
      </trkpt>
      <trkpt lat="36.8327500" lon="-4.4682900">
        <ele>497.9</ele>
        <time>2018-03-28T09:31:48Z</time>
      </trkpt>
      <trkpt lat="36.8327830" lon="-4.4682400">
        <ele>498.9</ele>
        <time>2018-03-28T09:31:49Z</time>
      </trkpt>
      <trkpt lat="36.8327830" lon="-4.4682400">
        <ele>498.9</ele>
        <time>2018-03-28T09:31:50Z</time>
      </trkpt>
      <trkpt lat="36.8328180" lon="-4.4681920">
        <ele>498.9</ele>
        <time>2018-03-28T09:31:51Z</time>
      </trkpt>
      <trkpt lat="36.8328370" lon="-4.4681700">
        <ele>498.9</ele>
        <time>2018-03-28T09:31:52Z</time>
      </trkpt>
      <trkpt lat="36.8328370" lon="-4.4681700">
        <ele>499.9</ele>
        <time>2018-03-28T09:31:53Z</time>
      </trkpt>
      <trkpt lat="36.8328750" lon="-4.4681320">
        <ele>499.9</ele>
        <time>2018-03-28T09:31:54Z</time>
      </trkpt>
      <trkpt lat="36.8328980" lon="-4.4681130">
        <ele>499.9</ele>
        <time>2018-03-28T09:31:55Z</time>
      </trkpt>
      <trkpt lat="36.8328980" lon="-4.4681130">
        <ele>500.9</ele>
        <time>2018-03-28T09:31:56Z</time>
      </trkpt>
      <trkpt lat="36.8329420" lon="-4.4680850">
        <ele>500.9</ele>
        <time>2018-03-28T09:31:57Z</time>
      </trkpt>
      <trkpt lat="36.8329420" lon="-4.4680850">
        <ele>500.9</ele>
        <time>2018-03-28T09:31:58Z</time>
      </trkpt>
      <trkpt lat="36.8329960" lon="-4.4680470">
        <ele>500.9</ele>
        <time>2018-03-28T09:31:59Z</time>
      </trkpt>
      <trkpt lat="36.8330070" lon="-4.4680400">
        <ele>500.9</ele>
        <time>2018-03-28T09:32:00Z</time>
      </trkpt>
      <trkpt lat="36.8330320" lon="-4.4680280">
        <ele>500.9</ele>
        <time>2018-03-28T09:32:01Z</time>
      </trkpt>
      <trkpt lat="36.8330320" lon="-4.4680280">
        <ele>501.9</ele>
        <time>2018-03-28T09:32:02Z</time>
      </trkpt>
      <trkpt lat="36.8330780" lon="-4.4680170">
        <ele>501.9</ele>
        <time>2018-03-28T09:32:03Z</time>
      </trkpt>
      <trkpt lat="36.8330780" lon="-4.4680170">
        <ele>501.9</ele>
        <time>2018-03-28T09:32:04Z</time>
      </trkpt>
      <trkpt lat="36.8331320" lon="-4.4680170">
        <ele>501.9</ele>
        <time>2018-03-28T09:32:05Z</time>
      </trkpt>
      <trkpt lat="36.8331550" lon="-4.4680200">
        <ele>502.9</ele>
        <time>2018-03-28T09:32:06Z</time>
      </trkpt>
      <trkpt lat="36.8331770" lon="-4.4680200">
        <ele>502.9</ele>
        <time>2018-03-28T09:32:07Z</time>
      </trkpt>
      <trkpt lat="36.8331770" lon="-4.4680200">
        <ele>502.9</ele>
        <time>2018-03-28T09:32:08Z</time>
      </trkpt>
      <trkpt lat="36.8332230" lon="-4.4680480">
        <ele>502.9</ele>
        <time>2018-03-28T09:32:09Z</time>
      </trkpt>
      <trkpt lat="36.8332230" lon="-4.4680480">
        <ele>502.9</ele>
        <time>2018-03-28T09:32:10Z</time>
      </trkpt>
      <trkpt lat="36.8332580" lon="-4.4681020">
        <ele>502.9</ele>
        <time>2018-03-28T09:32:11Z</time>
      </trkpt>
      <trkpt lat="36.8332750" lon="-4.4681250">
        <ele>502.9</ele>
        <time>2018-03-28T09:32:12Z</time>
      </trkpt>
      <trkpt lat="36.8332900" lon="-4.4681500">
        <ele>503.9</ele>
        <time>2018-03-28T09:32:13Z</time>
      </trkpt>
      <trkpt lat="36.8332900" lon="-4.4681500">
        <ele>503.9</ele>
        <time>2018-03-28T09:32:14Z</time>
      </trkpt>
      <trkpt lat="36.8333150" lon="-4.4682070">
        <ele>503.9</ele>
        <time>2018-03-28T09:32:15Z</time>
      </trkpt>
      <trkpt lat="36.8333250" lon="-4.4682350">
        <ele>503.9</ele>
        <time>2018-03-28T09:32:16Z</time>
      </trkpt>
      <trkpt lat="36.8333250" lon="-4.4682350">
        <ele>504.9</ele>
        <time>2018-03-28T09:32:17Z</time>
      </trkpt>
      <trkpt lat="36.8333420" lon="-4.4682850">
        <ele>504.9</ele>
        <time>2018-03-28T09:32:18Z</time>
      </trkpt>
      <trkpt lat="36.8333500" lon="-4.4683100">
        <ele>504.9</ele>
        <time>2018-03-28T09:32:19Z</time>
      </trkpt>
      <trkpt lat="36.8333500" lon="-4.4683100">
        <ele>504.9</ele>
        <time>2018-03-28T09:32:20Z</time>
      </trkpt>
      <trkpt lat="36.8333680" lon="-4.4683620">
        <ele>504.9</ele>
        <time>2018-03-28T09:32:21Z</time>
      </trkpt>
      <trkpt lat="36.8333770" lon="-4.4683880">
        <ele>504.9</ele>
        <time>2018-03-28T09:32:22Z</time>
      </trkpt>
      <trkpt lat="36.8333820" lon="-4.4684150">
        <ele>505.9</ele>
        <time>2018-03-28T09:32:23Z</time>
      </trkpt>
      <trkpt lat="36.8333820" lon="-4.4684150">
        <ele>505.9</ele>
        <time>2018-03-28T09:32:24Z</time>
      </trkpt>
      <trkpt lat="36.8333930" lon="-4.4684700">
        <ele>505.9</ele>
        <time>2018-03-28T09:32:25Z</time>
      </trkpt>
      <trkpt lat="36.8333930" lon="-4.4684700">
        <ele>506.9</ele>
        <time>2018-03-28T09:32:26Z</time>
      </trkpt>
      <trkpt lat="36.8334180" lon="-4.4685200">
        <ele>506.9</ele>
        <time>2018-03-28T09:32:27Z</time>
      </trkpt>
      <trkpt lat="36.8334180" lon="-4.4685200">
        <ele>506.9</ele>
        <time>2018-03-28T09:32:28Z</time>
      </trkpt>
      <trkpt lat="36.8334450" lon="-4.4685700">
        <ele>506.9</ele>
        <time>2018-03-28T09:32:29Z</time>
      </trkpt>
      <trkpt lat="36.8334450" lon="-4.4685700">
        <ele>507.9</ele>
        <time>2018-03-28T09:32:30Z</time>
      </trkpt>
      <trkpt lat="36.8334680" lon="-4.4686270">
        <ele>507.9</ele>
        <time>2018-03-28T09:32:31Z</time>
      </trkpt>
      <trkpt lat="36.8334680" lon="-4.4686270">
        <ele>507.9</ele>
        <time>2018-03-28T09:32:32Z</time>
      </trkpt>
      <trkpt lat="36.8334880" lon="-4.4686830">
        <ele>507.9</ele>
        <time>2018-03-28T09:32:33Z</time>
      </trkpt>
      <trkpt lat="36.8334880" lon="-4.4686830">
        <ele>507.9</ele>
        <time>2018-03-28T09:32:34Z</time>
      </trkpt>
      <trkpt lat="36.8335050" lon="-4.4687430">
        <ele>507.9</ele>
        <time>2018-03-28T09:32:35Z</time>
      </trkpt>
      <trkpt lat="36.8335050" lon="-4.4687430">
        <ele>507.9</ele>
        <time>2018-03-28T09:32:36Z</time>
      </trkpt>
      <trkpt lat="36.8335270" lon="-4.4688030">
        <ele>507.9</ele>
        <time>2018-03-28T09:32:37Z</time>
      </trkpt>
      <trkpt lat="36.8335270" lon="-4.4688030">
        <ele>508.9</ele>
        <time>2018-03-28T09:32:38Z</time>
      </trkpt>
      <trkpt lat="36.8335450" lon="-4.4688670">
        <ele>508.9</ele>
        <time>2018-03-28T09:32:39Z</time>
      </trkpt>
      <trkpt lat="36.8335450" lon="-4.4688670">
        <ele>508.9</ele>
        <time>2018-03-28T09:32:40Z</time>
      </trkpt>
      <trkpt lat="36.8335580" lon="-4.4689270">
        <ele>508.9</ele>
        <time>2018-03-28T09:32:41Z</time>
      </trkpt>
      <trkpt lat="36.8335580" lon="-4.4689270">
        <ele>509.9</ele>
        <time>2018-03-28T09:32:42Z</time>
      </trkpt>
      <trkpt lat="36.8335680" lon="-4.4689870">
        <ele>509.9</ele>
        <time>2018-03-28T09:32:43Z</time>
      </trkpt>
      <trkpt lat="36.8335680" lon="-4.4689870">
        <ele>509.9</ele>
        <time>2018-03-28T09:32:44Z</time>
      </trkpt>
      <trkpt lat="36.8335770" lon="-4.4690450">
        <ele>509.9</ele>
        <time>2018-03-28T09:32:45Z</time>
      </trkpt>
      <trkpt lat="36.8335820" lon="-4.4690730">
        <ele>510.9</ele>
        <time>2018-03-28T09:32:46Z</time>
      </trkpt>
      <trkpt lat="36.8335900" lon="-4.4691020">
        <ele>510.9</ele>
        <time>2018-03-28T09:32:47Z</time>
      </trkpt>
      <trkpt lat="36.8335900" lon="-4.4691020">
        <ele>510.9</ele>
        <time>2018-03-28T09:32:48Z</time>
      </trkpt>
      <trkpt lat="36.8336100" lon="-4.4691500">
        <ele>510.9</ele>
        <time>2018-03-28T09:32:49Z</time>
      </trkpt>
      <trkpt lat="36.8336100" lon="-4.4691500">
        <ele>511.9</ele>
        <time>2018-03-28T09:32:50Z</time>
      </trkpt>
      <trkpt lat="36.8336400" lon="-4.4691920">
        <ele>511.9</ele>
        <time>2018-03-28T09:32:51Z</time>
      </trkpt>
      <trkpt lat="36.8336400" lon="-4.4691920">
        <ele>511.9</ele>
        <time>2018-03-28T09:32:52Z</time>
      </trkpt>
      <trkpt lat="36.8336780" lon="-4.4692270">
        <ele>511.9</ele>
        <time>2018-03-28T09:32:53Z</time>
      </trkpt>
      <trkpt lat="36.8336780" lon="-4.4692270">
        <ele>511.9</ele>
        <time>2018-03-28T09:32:54Z</time>
      </trkpt>
      <trkpt lat="36.8337250" lon="-4.4692480">
        <ele>512.9</ele>
        <time>2018-03-28T09:32:55Z</time>
      </trkpt>
      <trkpt lat="36.8337250" lon="-4.4692480">
        <ele>512.9</ele>
        <time>2018-03-28T09:32:56Z</time>
      </trkpt>
      <trkpt lat="36.8337730" lon="-4.4692520">
        <ele>512.9</ele>
        <time>2018-03-28T09:32:57Z</time>
      </trkpt>
      <trkpt lat="36.8337980" lon="-4.4692470">
        <ele>512.9</ele>
        <time>2018-03-28T09:32:58Z</time>
      </trkpt>
      <trkpt lat="36.8337980" lon="-4.4692470">
        <ele>513.9</ele>
        <time>2018-03-28T09:32:59Z</time>
      </trkpt>
      <trkpt lat="36.8338470" lon="-4.4692320">
        <ele>513.9</ele>
        <time>2018-03-28T09:33:00Z</time>
      </trkpt>
      <trkpt lat="36.8338720" lon="-4.4692250">
        <ele>513.9</ele>
        <time>2018-03-28T09:33:01Z</time>
      </trkpt>
      <trkpt lat="36.8338720" lon="-4.4692250">
        <ele>513.9</ele>
        <time>2018-03-28T09:33:02Z</time>
      </trkpt>
      <trkpt lat="36.8339180" lon="-4.4692100">
        <ele>514.9</ele>
        <time>2018-03-28T09:33:03Z</time>
      </trkpt>
      <trkpt lat="36.8339180" lon="-4.4692100">
        <ele>514.9</ele>
        <time>2018-03-28T09:33:04Z</time>
      </trkpt>
      <trkpt lat="36.8339670" lon="-4.4691950">
        <ele>515.9</ele>
        <time>2018-03-28T09:33:05Z</time>
      </trkpt>
      <trkpt lat="36.8339920" lon="-4.4691890">
        <ele>515.9</ele>
        <time>2018-03-28T09:33:06Z</time>
      </trkpt>
      <trkpt lat="36.8340170" lon="-4.4691820">
        <ele>515.9</ele>
        <time>2018-03-28T09:33:07Z</time>
      </trkpt>
      <trkpt lat="36.8340170" lon="-4.4691820">
        <ele>515.9</ele>
        <time>2018-03-28T09:33:08Z</time>
      </trkpt>
      <trkpt lat="36.8340670" lon="-4.4691680">
        <ele>515.9</ele>
        <time>2018-03-28T09:33:09Z</time>
      </trkpt>
      <trkpt lat="36.8340900" lon="-4.4691630">
        <ele>516.9</ele>
        <time>2018-03-28T09:33:10Z</time>
      </trkpt>
      <trkpt lat="36.8340900" lon="-4.4691630">
        <ele>516.9</ele>
        <time>2018-03-28T09:33:11Z</time>
      </trkpt>
      <trkpt lat="36.8341370" lon="-4.4691430">
        <ele>516.9</ele>
        <time>2018-03-28T09:33:12Z</time>
      </trkpt>
      <trkpt lat="36.8341580" lon="-4.4691300">
        <ele>516.9</ele>
        <time>2018-03-28T09:33:13Z</time>
      </trkpt>
      <trkpt lat="36.8341580" lon="-4.4691300">
        <ele>517.9</ele>
        <time>2018-03-28T09:33:14Z</time>
      </trkpt>
      <trkpt lat="36.8342030" lon="-4.4691020">
        <ele>517.9</ele>
        <time>2018-03-28T09:33:15Z</time>
      </trkpt>
      <trkpt lat="36.8342270" lon="-4.4690880">
        <ele>517.9</ele>
        <time>2018-03-28T09:33:16Z</time>
      </trkpt>
      <trkpt lat="36.8342480" lon="-4.4690780">
        <ele>517.9</ele>
        <time>2018-03-28T09:33:17Z</time>
      </trkpt>
      <trkpt lat="36.8342480" lon="-4.4690780">
        <ele>518.9</ele>
        <time>2018-03-28T09:33:18Z</time>
      </trkpt>
      <trkpt lat="36.8342970" lon="-4.4690620">
        <ele>518.9</ele>
        <time>2018-03-28T09:33:19Z</time>
      </trkpt>
      <trkpt lat="36.8342970" lon="-4.4690620">
        <ele>518.9</ele>
        <time>2018-03-28T09:33:20Z</time>
      </trkpt>
      <trkpt lat="36.8343450" lon="-4.4690420">
        <ele>518.9</ele>
        <time>2018-03-28T09:33:21Z</time>
      </trkpt>
      <trkpt lat="36.8343700" lon="-4.4690280">
        <ele>518.9</ele>
        <time>2018-03-28T09:33:22Z</time>
      </trkpt>
      <trkpt lat="36.8343700" lon="-4.4690280">
        <ele>518.9</ele>
        <time>2018-03-28T09:33:23Z</time>
      </trkpt>
      <trkpt lat="36.8344170" lon="-4.4690070">
        <ele>518.9</ele>
        <time>2018-03-28T09:33:24Z</time>
      </trkpt>
      <trkpt lat="36.8344380" lon="-4.4690000">
        <ele>519.9</ele>
        <time>2018-03-28T09:33:25Z</time>
      </trkpt>
      <trkpt lat="36.8344380" lon="-4.4690000">
        <ele>519.9</ele>
        <time>2018-03-28T09:33:26Z</time>
      </trkpt>
      <trkpt lat="36.8344870" lon="-4.4689880">
        <ele>519.9</ele>
        <time>2018-03-28T09:33:27Z</time>
      </trkpt>
      <trkpt lat="36.8344870" lon="-4.4689880">
        <ele>519.9</ele>
        <time>2018-03-28T09:33:28Z</time>
      </trkpt>
      <trkpt lat="36.8345330" lon="-4.4689850">
        <ele>520.9</ele>
        <time>2018-03-28T09:33:29Z</time>
      </trkpt>
      <trkpt lat="36.8345570" lon="-4.4689950">
        <ele>520.9</ele>
        <time>2018-03-28T09:33:30Z</time>
      </trkpt>
      <trkpt lat="36.8345570" lon="-4.4689950">
        <ele>520.9</ele>
        <time>2018-03-28T09:33:31Z</time>
      </trkpt>
      <trkpt lat="36.8346020" lon="-4.4690220">
        <ele>520.9</ele>
        <time>2018-03-28T09:33:32Z</time>
      </trkpt>
      <trkpt lat="36.8346020" lon="-4.4690220">
        <ele>521.9</ele>
        <time>2018-03-28T09:33:33Z</time>
      </trkpt>
      <trkpt lat="36.8346420" lon="-4.4690720">
        <ele>521.9</ele>
        <time>2018-03-28T09:33:34Z</time>
      </trkpt>
      <trkpt lat="36.8346590" lon="-4.4690960">
        <ele>521.9</ele>
        <time>2018-03-28T09:33:35Z</time>
      </trkpt>
      <trkpt lat="36.8346750" lon="-4.4691200">
        <ele>521.9</ele>
        <time>2018-03-28T09:33:36Z</time>
      </trkpt>
      <trkpt lat="36.8346920" lon="-4.4691430">
        <ele>522.9</ele>
        <time>2018-03-28T09:33:37Z</time>
      </trkpt>
      <trkpt lat="36.8346920" lon="-4.4691430">
        <ele>522.9</ele>
        <time>2018-03-28T09:33:38Z</time>
      </trkpt>
      <trkpt lat="36.8347170" lon="-4.4692050">
        <ele>522.9</ele>
        <time>2018-03-28T09:33:39Z</time>
      </trkpt>
      <trkpt lat="36.8347230" lon="-4.4692330">
        <ele>522.9</ele>
        <time>2018-03-28T09:33:40Z</time>
      </trkpt>
      <trkpt lat="36.8347230" lon="-4.4692330">
        <ele>523.9</ele>
        <time>2018-03-28T09:33:41Z</time>
      </trkpt>
      <trkpt lat="36.8347350" lon="-4.4693110">
        <ele>523.9</ele>
        <time>2018-03-28T09:33:42Z</time>
      </trkpt>
      <trkpt lat="36.8347370" lon="-4.4693270">
        <ele>523.9</ele>
        <time>2018-03-28T09:33:43Z</time>
      </trkpt>
      <trkpt lat="36.8347370" lon="-4.4693270">
        <ele>523.9</ele>
        <time>2018-03-28T09:33:44Z</time>
      </trkpt>
      <trkpt lat="36.8347400" lon="-4.4693900">
        <ele>524.9</ele>
        <time>2018-03-28T09:33:45Z</time>
      </trkpt>
      <trkpt lat="36.8347400" lon="-4.4693900">
        <ele>524.9</ele>
        <time>2018-03-28T09:33:46Z</time>
      </trkpt>
      <trkpt lat="36.8347450" lon="-4.4694580">
        <ele>524.9</ele>
        <time>2018-03-28T09:33:47Z</time>
      </trkpt>
      <trkpt lat="36.8347450" lon="-4.4694580">
        <ele>524.9</ele>
        <time>2018-03-28T09:33:48Z</time>
      </trkpt>
      <trkpt lat="36.8347530" lon="-4.4695250">
        <ele>524.9</ele>
        <time>2018-03-28T09:33:49Z</time>
      </trkpt>
      <trkpt lat="36.8347580" lon="-4.4695620">
        <ele>524.9</ele>
        <time>2018-03-28T09:33:50Z</time>
      </trkpt>
      <trkpt lat="36.8347670" lon="-4.4695950">
        <ele>525.9</ele>
        <time>2018-03-28T09:33:51Z</time>
      </trkpt>
      <trkpt lat="36.8347670" lon="-4.4695950">
        <ele>525.9</ele>
        <time>2018-03-28T09:33:52Z</time>
      </trkpt>
      <trkpt lat="36.8347880" lon="-4.4696620">
        <ele>525.9</ele>
        <time>2018-03-28T09:33:53Z</time>
      </trkpt>
      <trkpt lat="36.8347880" lon="-4.4696620">
        <ele>525.9</ele>
        <time>2018-03-28T09:33:54Z</time>
      </trkpt>
      <trkpt lat="36.8348120" lon="-4.4697280">
        <ele>525.9</ele>
        <time>2018-03-28T09:33:55Z</time>
      </trkpt>
      <trkpt lat="36.8348120" lon="-4.4697280">
        <ele>525.9</ele>
        <time>2018-03-28T09:33:56Z</time>
      </trkpt>
      <trkpt lat="36.8348330" lon="-4.4697900">
        <ele>526.9</ele>
        <time>2018-03-28T09:33:57Z</time>
      </trkpt>
      <trkpt lat="36.8348330" lon="-4.4697900">
        <ele>526.9</ele>
        <time>2018-03-28T09:33:58Z</time>
      </trkpt>
      <trkpt lat="36.8348550" lon="-4.4698520">
        <ele>526.9</ele>
        <time>2018-03-28T09:33:59Z</time>
      </trkpt>
      <trkpt lat="36.8348700" lon="-4.4698820">
        <ele>526.9</ele>
        <time>2018-03-28T09:34:00Z</time>
      </trkpt>
      <trkpt lat="36.8348820" lon="-4.4699150">
        <ele>527.9</ele>
        <time>2018-03-28T09:34:01Z</time>
      </trkpt>
      <trkpt lat="36.8348820" lon="-4.4699150">
        <ele>527.9</ele>
        <time>2018-03-28T09:34:02Z</time>
      </trkpt>
      <trkpt lat="36.8349100" lon="-4.4699750">
        <ele>527.9</ele>
        <time>2018-03-28T09:34:03Z</time>
      </trkpt>
      <trkpt lat="36.8349230" lon="-4.4700000">
        <ele>527.9</ele>
        <time>2018-03-28T09:34:04Z</time>
      </trkpt>
      <trkpt lat="36.8349230" lon="-4.4700000">
        <ele>527.9</ele>
        <time>2018-03-28T09:34:05Z</time>
      </trkpt>
      <trkpt lat="36.8349530" lon="-4.4700600">
        <ele>527.9</ele>
        <time>2018-03-28T09:34:06Z</time>
      </trkpt>
      <trkpt lat="36.8349680" lon="-4.4700920">
        <ele>527.9</ele>
        <time>2018-03-28T09:34:07Z</time>
      </trkpt>
      <trkpt lat="36.8349810" lon="-4.4701240">
        <ele>527.9</ele>
        <time>2018-03-28T09:34:08Z</time>
      </trkpt>
      <trkpt lat="36.8349930" lon="-4.4701570">
        <ele>527.9</ele>
        <time>2018-03-28T09:34:09Z</time>
      </trkpt>
      <trkpt lat="36.8349930" lon="-4.4701570">
        <ele>527.9</ele>
        <time>2018-03-28T09:34:10Z</time>
      </trkpt>
      <trkpt lat="36.8350250" lon="-4.4702200">
        <ele>528.9</ele>
        <time>2018-03-28T09:34:11Z</time>
      </trkpt>
      <trkpt lat="36.8350250" lon="-4.4702200">
        <ele>528.9</ele>
        <time>2018-03-28T09:34:12Z</time>
      </trkpt>
      <trkpt lat="36.8350680" lon="-4.4702680">
        <ele>528.9</ele>
        <time>2018-03-28T09:34:13Z</time>
      </trkpt>
      <trkpt lat="36.8350680" lon="-4.4702680">
        <ele>528.9</ele>
        <time>2018-03-28T09:34:14Z</time>
      </trkpt>
      <trkpt lat="36.8351200" lon="-4.4702980">
        <ele>528.9</ele>
        <time>2018-03-28T09:34:15Z</time>
      </trkpt>
      <trkpt lat="36.8351200" lon="-4.4702980">
        <ele>528.9</ele>
        <time>2018-03-28T09:34:16Z</time>
      </trkpt>
      <trkpt lat="36.8351720" lon="-4.4703080">
        <ele>528.9</ele>
        <time>2018-03-28T09:34:17Z</time>
      </trkpt>
      <trkpt lat="36.8351720" lon="-4.4703080">
        <ele>528.9</ele>
        <time>2018-03-28T09:34:18Z</time>
      </trkpt>
      <trkpt lat="36.8352270" lon="-4.4703050">
        <ele>529.9</ele>
        <time>2018-03-28T09:34:19Z</time>
      </trkpt>
      <trkpt lat="36.8352270" lon="-4.4703050">
        <ele>529.9</ele>
        <time>2018-03-28T09:34:20Z</time>
      </trkpt>
      <trkpt lat="36.8352750" lon="-4.4702820">
        <ele>529.9</ele>
        <time>2018-03-28T09:34:21Z</time>
      </trkpt>
      <trkpt lat="36.8352750" lon="-4.4702820">
        <ele>529.9</ele>
        <time>2018-03-28T09:34:22Z</time>
      </trkpt>
      <trkpt lat="36.8353200" lon="-4.4702480">
        <ele>530.9</ele>
        <time>2018-03-28T09:34:23Z</time>
      </trkpt>
      <trkpt lat="36.8353520" lon="-4.4702190">
        <ele>530.9</ele>
        <time>2018-03-28T09:34:24Z</time>
      </trkpt>
      <trkpt lat="36.8353620" lon="-4.4702080">
        <ele>530.9</ele>
        <time>2018-03-28T09:34:25Z</time>
      </trkpt>
      <trkpt lat="36.8353620" lon="-4.4702080">
        <ele>531.9</ele>
        <time>2018-03-28T09:34:26Z</time>
      </trkpt>
      <trkpt lat="36.8354080" lon="-4.4701800">
        <ele>531.9</ele>
        <time>2018-03-28T09:34:27Z</time>
      </trkpt>
      <trkpt lat="36.8354350" lon="-4.4701730">
        <ele>531.9</ele>
        <time>2018-03-28T09:34:28Z</time>
      </trkpt>
      <trkpt lat="36.8354350" lon="-4.4701730">
        <ele>531.9</ele>
        <time>2018-03-28T09:34:29Z</time>
      </trkpt>
      <trkpt lat="36.8354880" lon="-4.4701700">
        <ele>532.9</ele>
        <time>2018-03-28T09:34:30Z</time>
      </trkpt>
      <trkpt lat="36.8355170" lon="-4.4701730">
        <ele>532.9</ele>
        <time>2018-03-28T09:34:31Z</time>
      </trkpt>
      <trkpt lat="36.8355170" lon="-4.4701730">
        <ele>532.9</ele>
        <time>2018-03-28T09:34:32Z</time>
      </trkpt>
      <trkpt lat="36.8355720" lon="-4.4701820">
        <ele>532.9</ele>
        <time>2018-03-28T09:34:33Z</time>
      </trkpt>
      <trkpt lat="36.8355720" lon="-4.4701820">
        <ele>532.9</ele>
        <time>2018-03-28T09:34:34Z</time>
      </trkpt>
      <trkpt lat="36.8356220" lon="-4.4701980">
        <ele>532.9</ele>
        <time>2018-03-28T09:34:35Z</time>
      </trkpt>
      <trkpt lat="36.8356220" lon="-4.4701980">
        <ele>533.9</ele>
        <time>2018-03-28T09:34:36Z</time>
      </trkpt>
      <trkpt lat="36.8356770" lon="-4.4702130">
        <ele>533.9</ele>
        <time>2018-03-28T09:34:37Z</time>
      </trkpt>
      <trkpt lat="36.8356770" lon="-4.4702130">
        <ele>533.9</ele>
        <time>2018-03-28T09:34:38Z</time>
      </trkpt>
      <trkpt lat="36.8357250" lon="-4.4702350">
        <ele>533.9</ele>
        <time>2018-03-28T09:34:39Z</time>
      </trkpt>
      <trkpt lat="36.8357480" lon="-4.4702430">
        <ele>534.9</ele>
        <time>2018-03-28T09:34:40Z</time>
      </trkpt>
      <trkpt lat="36.8357480" lon="-4.4702430">
        <ele>534.9</ele>
        <time>2018-03-28T09:34:41Z</time>
      </trkpt>
      <trkpt lat="36.8357930" lon="-4.4702580">
        <ele>534.9</ele>
        <time>2018-03-28T09:34:42Z</time>
      </trkpt>
      <trkpt lat="36.8357930" lon="-4.4702580">
        <ele>534.9</ele>
        <time>2018-03-28T09:34:43Z</time>
      </trkpt>
      <trkpt lat="36.8358380" lon="-4.4702730">
        <ele>534.9</ele>
        <time>2018-03-28T09:34:44Z</time>
      </trkpt>
      <trkpt lat="36.8358380" lon="-4.4702730">
        <ele>534.9</ele>
        <time>2018-03-28T09:34:45Z</time>
      </trkpt>
      <trkpt lat="36.8358830" lon="-4.4702920">
        <ele>534.9</ele>
        <time>2018-03-28T09:34:46Z</time>
      </trkpt>
      <trkpt lat="36.8358830" lon="-4.4702920">
        <ele>534.9</ele>
        <time>2018-03-28T09:34:47Z</time>
      </trkpt>
      <trkpt lat="36.8359300" lon="-4.4703100">
        <ele>536.9</ele>
        <time>2018-03-28T09:34:48Z</time>
      </trkpt>
      <trkpt lat="36.8359300" lon="-4.4703100">
        <ele>536.9</ele>
        <time>2018-03-28T09:34:49Z</time>
      </trkpt>
      <trkpt lat="36.8359770" lon="-4.4703270">
        <ele>536.9</ele>
        <time>2018-03-28T09:34:50Z</time>
      </trkpt>
      <trkpt lat="36.8359770" lon="-4.4703270">
        <ele>536.9</ele>
        <time>2018-03-28T09:34:51Z</time>
      </trkpt>
      <trkpt lat="36.8360250" lon="-4.4703430">
        <ele>536.9</ele>
        <time>2018-03-28T09:34:52Z</time>
      </trkpt>
      <trkpt lat="36.8360250" lon="-4.4703430">
        <ele>536.9</ele>
        <time>2018-03-28T09:34:53Z</time>
      </trkpt>
      <trkpt lat="36.8360720" lon="-4.4703580">
        <ele>536.9</ele>
        <time>2018-03-28T09:34:54Z</time>
      </trkpt>
      <trkpt lat="36.8360970" lon="-4.4703630">
        <ele>536.9</ele>
        <time>2018-03-28T09:34:55Z</time>
      </trkpt>
      <trkpt lat="36.8360970" lon="-4.4703630">
        <ele>537.9</ele>
        <time>2018-03-28T09:34:56Z</time>
      </trkpt>
      <trkpt lat="36.8361430" lon="-4.4703700">
        <ele>537.9</ele>
        <time>2018-03-28T09:34:57Z</time>
      </trkpt>
      <trkpt lat="36.8361680" lon="-4.4703670">
        <ele>537.9</ele>
        <time>2018-03-28T09:34:58Z</time>
      </trkpt>
      <trkpt lat="36.8361680" lon="-4.4703670">
        <ele>537.9</ele>
        <time>2018-03-28T09:34:59Z</time>
      </trkpt>
      <trkpt lat="36.8362070" lon="-4.4703720">
        <ele>538.9</ele>
        <time>2018-03-28T09:35:00Z</time>
      </trkpt>
      <trkpt lat="36.8362300" lon="-4.4703620">
        <ele>538.9</ele>
        <time>2018-03-28T09:35:01Z</time>
      </trkpt>
      <trkpt lat="36.8362300" lon="-4.4703620">
        <ele>538.9</ele>
        <time>2018-03-28T09:35:02Z</time>
      </trkpt>
      <trkpt lat="36.8363180" lon="-4.4696170">
        <ele>545.9</ele>
        <time>2018-03-28T09:35:43Z</time>
      </trkpt>
      <trkpt lat="36.8363180" lon="-4.4696170">
        <ele>545.9</ele>
        <time>2018-03-28T09:35:44Z</time>
      </trkpt>
      <trkpt lat="36.8363080" lon="-4.4695670">
        <ele>545.9</ele>
        <time>2018-03-28T09:35:45Z</time>
      </trkpt>
      <trkpt lat="36.8363080" lon="-4.4695670">
        <ele>545.9</ele>
        <time>2018-03-28T09:35:46Z</time>
      </trkpt>
      <trkpt lat="36.8362730" lon="-4.4695080">
        <ele>545.9</ele>
        <time>2018-03-28T09:35:47Z</time>
      </trkpt>
      <trkpt lat="36.8362730" lon="-4.4695080">
        <ele>545.9</ele>
        <time>2018-03-28T09:35:48Z</time>
      </trkpt>
      <trkpt lat="36.8362400" lon="-4.4694480">
        <ele>545.9</ele>
        <time>2018-03-28T09:35:49Z</time>
      </trkpt>
      <trkpt lat="36.8362280" lon="-4.4694240">
        <ele>545.9</ele>
        <time>2018-03-28T09:35:50Z</time>
      </trkpt>
      <trkpt lat="36.8362150" lon="-4.4694000">
        <ele>545.9</ele>
        <time>2018-03-28T09:35:51Z</time>
      </trkpt>
      <trkpt lat="36.8362150" lon="-4.4694000">
        <ele>545.9</ele>
        <time>2018-03-28T09:35:52Z</time>
      </trkpt>
      <trkpt lat="36.8361980" lon="-4.4693480">
        <ele>545.9</ele>
        <time>2018-03-28T09:35:53Z</time>
      </trkpt>
      <trkpt lat="36.8361980" lon="-4.4693480">
        <ele>545.9</ele>
        <time>2018-03-28T09:35:54Z</time>
      </trkpt>
      <trkpt lat="36.8361920" lon="-4.4692920">
        <ele>546.9</ele>
        <time>2018-03-28T09:35:55Z</time>
      </trkpt>
      <trkpt lat="36.8361920" lon="-4.4692920">
        <ele>546.9</ele>
        <time>2018-03-28T09:35:56Z</time>
      </trkpt>
      <trkpt lat="36.8361770" lon="-4.4692370">
        <ele>546.9</ele>
        <time>2018-03-28T09:35:57Z</time>
      </trkpt>
      <trkpt lat="36.8361740" lon="-4.4692070">
        <ele>546.9</ele>
        <time>2018-03-28T09:35:58Z</time>
      </trkpt>
      <trkpt lat="36.8361700" lon="-4.4691770">
        <ele>547.9</ele>
        <time>2018-03-28T09:35:59Z</time>
      </trkpt>
      <trkpt lat="36.8361680" lon="-4.4691460">
        <ele>547.9</ele>
        <time>2018-03-28T09:36:00Z</time>
      </trkpt>
      <trkpt lat="36.8361650" lon="-4.4691150">
        <ele>547.9</ele>
        <time>2018-03-28T09:36:01Z</time>
      </trkpt>
      <trkpt lat="36.8361650" lon="-4.4691150">
        <ele>547.9</ele>
        <time>2018-03-28T09:36:02Z</time>
      </trkpt>
      <trkpt lat="36.8361550" lon="-4.4690520">
        <ele>547.9</ele>
        <time>2018-03-28T09:36:03Z</time>
      </trkpt>
      <trkpt lat="36.8361550" lon="-4.4690200">
        <ele>547.9</ele>
        <time>2018-03-28T09:36:04Z</time>
      </trkpt>
      <trkpt lat="36.8361550" lon="-4.4690200">
        <ele>548.9</ele>
        <time>2018-03-28T09:36:05Z</time>
      </trkpt>
      <trkpt lat="36.8361500" lon="-4.4689570">
        <ele>548.9</ele>
        <time>2018-03-28T09:36:06Z</time>
      </trkpt>
      <trkpt lat="36.8361500" lon="-4.4689250">
        <ele>548.9</ele>
        <time>2018-03-28T09:36:07Z</time>
      </trkpt>
      <trkpt lat="36.8361500" lon="-4.4689250">
        <ele>548.9</ele>
        <time>2018-03-28T09:36:08Z</time>
      </trkpt>
      <trkpt lat="36.8361520" lon="-4.4688620">
        <ele>548.9</ele>
        <time>2018-03-28T09:36:09Z</time>
      </trkpt>
      <trkpt lat="36.8361520" lon="-4.4688620">
        <ele>549.9</ele>
        <time>2018-03-28T09:36:10Z</time>
      </trkpt>
      <trkpt lat="36.8361530" lon="-4.4687970">
        <ele>549.9</ele>
        <time>2018-03-28T09:36:11Z</time>
      </trkpt>
      <trkpt lat="36.8361570" lon="-4.4687490">
        <ele>549.9</ele>
        <time>2018-03-28T09:36:12Z</time>
      </trkpt>
      <trkpt lat="36.8361570" lon="-4.4687330">
        <ele>549.9</ele>
        <time>2018-03-28T09:36:13Z</time>
      </trkpt>
      <trkpt lat="36.8361570" lon="-4.4687330">
        <ele>549.9</ele>
        <time>2018-03-28T09:36:14Z</time>
      </trkpt>
      <trkpt lat="36.8361530" lon="-4.4686670">
        <ele>550.9</ele>
        <time>2018-03-28T09:36:15Z</time>
      </trkpt>
      <trkpt lat="36.8361530" lon="-4.4686670">
        <ele>550.9</ele>
        <time>2018-03-28T09:36:16Z</time>
      </trkpt>
      <trkpt lat="36.8361500" lon="-4.4686050">
        <ele>550.9</ele>
        <time>2018-03-28T09:36:17Z</time>
      </trkpt>
      <trkpt lat="36.8361500" lon="-4.4685730">
        <ele>550.9</ele>
        <time>2018-03-28T09:36:18Z</time>
      </trkpt>
      <trkpt lat="36.8361480" lon="-4.4685400">
        <ele>551.9</ele>
        <time>2018-03-28T09:36:19Z</time>
      </trkpt>
      <trkpt lat="36.8361480" lon="-4.4685400">
        <ele>551.9</ele>
        <time>2018-03-28T09:36:20Z</time>
      </trkpt>
      <trkpt lat="36.8361280" lon="-4.4684730">
        <ele>551.9</ele>
        <time>2018-03-28T09:36:21Z</time>
      </trkpt>
      <trkpt lat="36.8361220" lon="-4.4684400">
        <ele>551.9</ele>
        <time>2018-03-28T09:36:22Z</time>
      </trkpt>
      <trkpt lat="36.8361220" lon="-4.4684400">
        <ele>551.9</ele>
        <time>2018-03-28T09:36:23Z</time>
      </trkpt>
      <trkpt lat="36.8361230" lon="-4.4683750">
        <ele>551.9</ele>
        <time>2018-03-28T09:36:24Z</time>
      </trkpt>
      <trkpt lat="36.8361250" lon="-4.4683430">
        <ele>552.9</ele>
        <time>2018-03-28T09:36:25Z</time>
      </trkpt>
      <trkpt lat="36.8361250" lon="-4.4683430">
        <ele>552.9</ele>
        <time>2018-03-28T09:36:26Z</time>
      </trkpt>
      <trkpt lat="36.8361270" lon="-4.4682700">
        <ele>552.9</ele>
        <time>2018-03-28T09:36:27Z</time>
      </trkpt>
      <trkpt lat="36.8361270" lon="-4.4682570">
        <ele>552.9</ele>
        <time>2018-03-28T09:36:28Z</time>
      </trkpt>
      <trkpt lat="36.8361270" lon="-4.4682570">
        <ele>554.9</ele>
        <time>2018-03-28T09:36:29Z</time>
      </trkpt>
      <trkpt lat="36.8361270" lon="-4.4681980">
        <ele>554.9</ele>
        <time>2018-03-28T09:36:30Z</time>
      </trkpt>
      <trkpt lat="36.8361270" lon="-4.4681680">
        <ele>555.9</ele>
        <time>2018-03-28T09:36:31Z</time>
      </trkpt>
      <trkpt lat="36.8361270" lon="-4.4681680">
        <ele>555.9</ele>
        <time>2018-03-28T09:36:32Z</time>
      </trkpt>
      <trkpt lat="36.8361280" lon="-4.4681050">
        <ele>555.9</ele>
        <time>2018-03-28T09:36:33Z</time>
      </trkpt>
      <trkpt lat="36.8361280" lon="-4.4681050">
        <ele>555.9</ele>
        <time>2018-03-28T09:36:34Z</time>
      </trkpt>
      <trkpt lat="36.8361280" lon="-4.4680420">
        <ele>555.9</ele>
        <time>2018-03-28T09:36:35Z</time>
      </trkpt>
      <trkpt lat="36.8361280" lon="-4.4680420">
        <ele>556.9</ele>
        <time>2018-03-28T09:36:36Z</time>
      </trkpt>
      <trkpt lat="36.8361300" lon="-4.4679830">
        <ele>556.9</ele>
        <time>2018-03-28T09:36:37Z</time>
      </trkpt>
      <trkpt lat="36.8361300" lon="-4.4679830">
        <ele>556.9</ele>
        <time>2018-03-28T09:36:38Z</time>
      </trkpt>
      <trkpt lat="36.8361320" lon="-4.4679230">
        <ele>556.9</ele>
        <time>2018-03-28T09:36:39Z</time>
      </trkpt>
      <trkpt lat="36.8361330" lon="-4.4678920">
        <ele>556.9</ele>
        <time>2018-03-28T09:36:40Z</time>
      </trkpt>
      <trkpt lat="36.8361330" lon="-4.4678920">
        <ele>557.9</ele>
        <time>2018-03-28T09:36:41Z</time>
      </trkpt>
      <trkpt lat="36.8361370" lon="-4.4678270">
        <ele>557.9</ele>
        <time>2018-03-28T09:36:42Z</time>
      </trkpt>
      <trkpt lat="36.8361380" lon="-4.4677950">
        <ele>557.9</ele>
        <time>2018-03-28T09:36:43Z</time>
      </trkpt>
      <trkpt lat="36.8361380" lon="-4.4677950">
        <ele>557.9</ele>
        <time>2018-03-28T09:36:44Z</time>
      </trkpt>
      <trkpt lat="36.8361450" lon="-4.4677300">
        <ele>558.9</ele>
        <time>2018-03-28T09:36:45Z</time>
      </trkpt>
      <trkpt lat="36.8361450" lon="-4.4677300">
        <ele>558.9</ele>
        <time>2018-03-28T09:36:46Z</time>
      </trkpt>
      <trkpt lat="36.8361520" lon="-4.4676670">
        <ele>558.9</ele>
        <time>2018-03-28T09:36:47Z</time>
      </trkpt>
      <trkpt lat="36.8361520" lon="-4.4676670">
        <ele>558.9</ele>
        <time>2018-03-28T09:36:48Z</time>
      </trkpt>
      <trkpt lat="36.8361550" lon="-4.4676030">
        <ele>559.9</ele>
        <time>2018-03-28T09:36:49Z</time>
      </trkpt>
      <trkpt lat="36.8361550" lon="-4.4676030">
        <ele>559.9</ele>
        <time>2018-03-28T09:36:50Z</time>
      </trkpt>
      <trkpt lat="36.8361570" lon="-4.4675330">
        <ele>559.9</ele>
        <time>2018-03-28T09:36:51Z</time>
      </trkpt>
      <trkpt lat="36.8361580" lon="-4.4674970">
        <ele>559.9</ele>
        <time>2018-03-28T09:36:52Z</time>
      </trkpt>
      <trkpt lat="36.8361580" lon="-4.4674970">
        <ele>560.9</ele>
        <time>2018-03-28T09:36:53Z</time>
      </trkpt>
      <trkpt lat="36.8361700" lon="-4.4674320">
        <ele>560.9</ele>
        <time>2018-03-28T09:36:54Z</time>
      </trkpt>
      <trkpt lat="36.8361700" lon="-4.4674320">
        <ele>560.9</ele>
        <time>2018-03-28T09:36:55Z</time>
      </trkpt>
      <trkpt lat="36.8362000" lon="-4.4673780">
        <ele>560.9</ele>
        <time>2018-03-28T09:36:56Z</time>
      </trkpt>
      <trkpt lat="36.8362000" lon="-4.4673780">
        <ele>561.9</ele>
        <time>2018-03-28T09:36:57Z</time>
      </trkpt>
      <trkpt lat="36.8362400" lon="-4.4673350">
        <ele>561.9</ele>
        <time>2018-03-28T09:36:58Z</time>
      </trkpt>
      <trkpt lat="36.8362400" lon="-4.4673350">
        <ele>561.9</ele>
        <time>2018-03-28T09:36:59Z</time>
      </trkpt>
      <trkpt lat="36.8362820" lon="-4.4672980">
        <ele>561.9</ele>
        <time>2018-03-28T09:37:00Z</time>
      </trkpt>
      <trkpt lat="36.8363050" lon="-4.4672830">
        <ele>561.9</ele>
        <time>2018-03-28T09:37:01Z</time>
      </trkpt>
      <trkpt lat="36.8363050" lon="-4.4672830">
        <ele>561.9</ele>
        <time>2018-03-28T09:37:02Z</time>
      </trkpt>
      <trkpt lat="36.8363530" lon="-4.4672700">
        <ele>561.9</ele>
        <time>2018-03-28T09:37:03Z</time>
      </trkpt>
      <trkpt lat="36.8363530" lon="-4.4672700">
        <ele>561.9</ele>
        <time>2018-03-28T09:37:04Z</time>
      </trkpt>
      <trkpt lat="36.8364080" lon="-4.4672770">
        <ele>561.9</ele>
        <time>2018-03-28T09:37:05Z</time>
      </trkpt>
      <trkpt lat="36.8364080" lon="-4.4672770">
        <ele>561.9</ele>
        <time>2018-03-28T09:37:06Z</time>
      </trkpt>
      <trkpt lat="36.8364570" lon="-4.4672870">
        <ele>561.9</ele>
        <time>2018-03-28T09:37:07Z</time>
      </trkpt>
      <trkpt lat="36.8364570" lon="-4.4672870">
        <ele>562.9</ele>
        <time>2018-03-28T09:37:08Z</time>
      </trkpt>
      <trkpt lat="36.8365100" lon="-4.4672950">
        <ele>562.9</ele>
        <time>2018-03-28T09:37:09Z</time>
      </trkpt>
      <trkpt lat="36.8365100" lon="-4.4672950">
        <ele>562.9</ele>
        <time>2018-03-28T09:37:10Z</time>
      </trkpt>
      <trkpt lat="36.8365600" lon="-4.4672980">
        <ele>563.9</ele>
        <time>2018-03-28T09:37:11Z</time>
      </trkpt>
      <trkpt lat="36.8365870" lon="-4.4672950">
        <ele>563.9</ele>
        <time>2018-03-28T09:37:12Z</time>
      </trkpt>
      <trkpt lat="36.8366120" lon="-4.4672930">
        <ele>563.9</ele>
        <time>2018-03-28T09:37:13Z</time>
      </trkpt>
      <trkpt lat="36.8366120" lon="-4.4672930">
        <ele>563.9</ele>
        <time>2018-03-28T09:37:14Z</time>
      </trkpt>
      <trkpt lat="36.8366570" lon="-4.4673170">
        <ele>563.9</ele>
        <time>2018-03-28T09:37:15Z</time>
      </trkpt>
      <trkpt lat="36.8366570" lon="-4.4673170">
        <ele>563.9</ele>
        <time>2018-03-28T09:37:16Z</time>
      </trkpt>
      <trkpt lat="36.8367050" lon="-4.4673420">
        <ele>563.9</ele>
        <time>2018-03-28T09:37:17Z</time>
      </trkpt>
      <trkpt lat="36.8367280" lon="-4.4673530">
        <ele>563.9</ele>
        <time>2018-03-28T09:37:18Z</time>
      </trkpt>
      <trkpt lat="36.8367520" lon="-4.4673620">
        <ele>563.9</ele>
        <time>2018-03-28T09:37:19Z</time>
      </trkpt>
      <trkpt lat="36.8367520" lon="-4.4673620">
        <ele>563.9</ele>
        <time>2018-03-28T09:37:20Z</time>
      </trkpt>
      <trkpt lat="36.8367930" lon="-4.4673880">
        <ele>564.9</ele>
        <time>2018-03-28T09:37:21Z</time>
      </trkpt>
      <trkpt lat="36.8368150" lon="-4.4674000">
        <ele>564.9</ele>
        <time>2018-03-28T09:37:22Z</time>
      </trkpt>
      <trkpt lat="36.8368150" lon="-4.4674000">
        <ele>564.9</ele>
        <time>2018-03-28T09:37:23Z</time>
      </trkpt>
      <trkpt lat="36.8368580" lon="-4.4674270">
        <ele>564.9</ele>
        <time>2018-03-28T09:37:24Z</time>
      </trkpt>
      <trkpt lat="36.8368820" lon="-4.4674370">
        <ele>564.9</ele>
        <time>2018-03-28T09:37:25Z</time>
      </trkpt>
      <trkpt lat="36.8368820" lon="-4.4674370">
        <ele>564.9</ele>
        <time>2018-03-28T09:37:26Z</time>
      </trkpt>
      <trkpt lat="36.8369220" lon="-4.4674420">
        <ele>565.9</ele>
        <time>2018-03-28T09:37:27Z</time>
      </trkpt>
      <trkpt lat="36.8369220" lon="-4.4674420">
        <ele>565.9</ele>
        <time>2018-03-28T09:37:28Z</time>
      </trkpt>
      <trkpt lat="36.8369680" lon="-4.4674350">
        <ele>565.9</ele>
        <time>2018-03-28T09:37:29Z</time>
      </trkpt>
      <trkpt lat="36.8369900" lon="-4.4674320">
        <ele>565.9</ele>
        <time>2018-03-28T09:37:30Z</time>
      </trkpt>
      <trkpt lat="36.8370120" lon="-4.4674220">
        <ele>566.9</ele>
        <time>2018-03-28T09:37:31Z</time>
      </trkpt>
      <trkpt lat="36.8370120" lon="-4.4674220">
        <ele>566.9</ele>
        <time>2018-03-28T09:37:32Z</time>
      </trkpt>
      <trkpt lat="36.8370520" lon="-4.4673920">
        <ele>566.9</ele>
        <time>2018-03-28T09:37:33Z</time>
      </trkpt>
      <trkpt lat="36.8370520" lon="-4.4673920">
        <ele>566.9</ele>
        <time>2018-03-28T09:37:34Z</time>
      </trkpt>
      <trkpt lat="36.8370880" lon="-4.4673620">
        <ele>567.9</ele>
        <time>2018-03-28T09:37:35Z</time>
      </trkpt>
      <trkpt lat="36.8370880" lon="-4.4673620">
        <ele>567.9</ele>
        <time>2018-03-28T09:37:36Z</time>
      </trkpt>
      <trkpt lat="36.8371220" lon="-4.4673300">
        <ele>567.9</ele>
        <time>2018-03-28T09:37:37Z</time>
      </trkpt>
      <trkpt lat="36.8371400" lon="-4.4673150">
        <ele>567.9</ele>
        <time>2018-03-28T09:37:38Z</time>
      </trkpt>
      <trkpt lat="36.8371400" lon="-4.4673150">
        <ele>568.9</ele>
        <time>2018-03-28T09:37:39Z</time>
      </trkpt>
      <trkpt lat="36.8371730" lon="-4.4672830">
        <ele>568.9</ele>
        <time>2018-03-28T09:37:40Z</time>
      </trkpt>
      <trkpt lat="36.8371730" lon="-4.4672830">
        <ele>568.9</ele>
        <time>2018-03-28T09:37:41Z</time>
      </trkpt>
      <trkpt lat="36.8372070" lon="-4.4672500">
        <ele>568.9</ele>
        <time>2018-03-28T09:37:42Z</time>
      </trkpt>
      <trkpt lat="36.8372220" lon="-4.4672350">
        <ele>568.9</ele>
        <time>2018-03-28T09:37:43Z</time>
      </trkpt>
      <trkpt lat="36.8372350" lon="-4.4672170">
        <ele>569.9</ele>
        <time>2018-03-28T09:37:44Z</time>
      </trkpt>
      <trkpt lat="36.8372480" lon="-4.4671980">
        <ele>569.9</ele>
        <time>2018-03-28T09:37:45Z</time>
      </trkpt>
      <trkpt lat="36.8372630" lon="-4.4671880">
        <ele>569.9</ele>
        <time>2018-03-28T09:37:46Z</time>
      </trkpt>
      <trkpt lat="36.8372630" lon="-4.4671880">
        <ele>569.9</ele>
        <time>2018-03-28T09:37:47Z</time>
      </trkpt>
      <trkpt lat="36.8373020" lon="-4.4671680">
        <ele>569.9</ele>
        <time>2018-03-28T09:37:48Z</time>
      </trkpt>
      <trkpt lat="36.8373230" lon="-4.4671600">
        <ele>569.9</ele>
        <time>2018-03-28T09:37:49Z</time>
      </trkpt>
      <trkpt lat="36.8373230" lon="-4.4671600">
        <ele>569.9</ele>
        <time>2018-03-28T09:37:50Z</time>
      </trkpt>
      <trkpt lat="36.8373620" lon="-4.4671380">
        <ele>569.9</ele>
        <time>2018-03-28T09:37:51Z</time>
      </trkpt>
      <trkpt lat="36.8373620" lon="-4.4671380">
        <ele>569.9</ele>
        <time>2018-03-28T09:37:52Z</time>
      </trkpt>
      <trkpt lat="36.8374020" lon="-4.4671230">
        <ele>569.9</ele>
        <time>2018-03-28T09:37:53Z</time>
      </trkpt>
      <trkpt lat="36.8374020" lon="-4.4671230">
        <ele>569.9</ele>
        <time>2018-03-28T09:37:54Z</time>
      </trkpt>
      <trkpt lat="36.8374470" lon="-4.4671230">
        <ele>569.9</ele>
        <time>2018-03-28T09:37:55Z</time>
      </trkpt>
      <trkpt lat="36.8374470" lon="-4.4671230">
        <ele>570.9</ele>
        <time>2018-03-28T09:37:56Z</time>
      </trkpt>
      <trkpt lat="36.8374950" lon="-4.4671320">
        <ele>570.9</ele>
        <time>2018-03-28T09:37:57Z</time>
      </trkpt>
      <trkpt lat="36.8374950" lon="-4.4671320">
        <ele>570.9</ele>
        <time>2018-03-28T09:37:58Z</time>
      </trkpt>
      <trkpt lat="36.8375380" lon="-4.4671620">
        <ele>570.9</ele>
        <time>2018-03-28T09:37:59Z</time>
      </trkpt>
      <trkpt lat="36.8375600" lon="-4.4671830">
        <ele>571.9</ele>
        <time>2018-03-28T09:38:00Z</time>
      </trkpt>
      <trkpt lat="36.8375830" lon="-4.4672030">
        <ele>571.9</ele>
        <time>2018-03-28T09:38:01Z</time>
      </trkpt>
      <trkpt lat="36.8375830" lon="-4.4672030">
        <ele>571.9</ele>
        <time>2018-03-28T09:38:02Z</time>
      </trkpt>
      <trkpt lat="36.8376300" lon="-4.4672420">
        <ele>571.9</ele>
        <time>2018-03-28T09:38:03Z</time>
      </trkpt>
      <trkpt lat="36.8376530" lon="-4.4672610">
        <ele>571.9</ele>
        <time>2018-03-28T09:38:04Z</time>
      </trkpt>
      <trkpt lat="36.8376750" lon="-4.4672800">
        <ele>571.9</ele>
        <time>2018-03-28T09:38:05Z</time>
      </trkpt>
      <trkpt lat="36.8376750" lon="-4.4672800">
        <ele>572.9</ele>
        <time>2018-03-28T09:38:06Z</time>
      </trkpt>
      <trkpt lat="36.8377170" lon="-4.4673220">
        <ele>572.9</ele>
        <time>2018-03-28T09:38:07Z</time>
      </trkpt>
      <trkpt lat="36.8377170" lon="-4.4673220">
        <ele>572.9</ele>
        <time>2018-03-28T09:38:08Z</time>
      </trkpt>
      <trkpt lat="36.8377570" lon="-4.4673650">
        <ele>572.9</ele>
        <time>2018-03-28T09:38:09Z</time>
      </trkpt>
      <trkpt lat="36.8377570" lon="-4.4673650">
        <ele>572.9</ele>
        <time>2018-03-28T09:38:10Z</time>
      </trkpt>
      <trkpt lat="36.8377970" lon="-4.4674080">
        <ele>573.9</ele>
        <time>2018-03-28T09:38:11Z</time>
      </trkpt>
      <trkpt lat="36.8377970" lon="-4.4674080">
        <ele>573.9</ele>
        <time>2018-03-28T09:38:12Z</time>
      </trkpt>
      <trkpt lat="36.8378370" lon="-4.4674520">
        <ele>573.9</ele>
        <time>2018-03-28T09:38:13Z</time>
      </trkpt>
      <trkpt lat="36.8378370" lon="-4.4674520">
        <ele>573.9</ele>
        <time>2018-03-28T09:38:14Z</time>
      </trkpt>
      <trkpt lat="36.8378780" lon="-4.4674880">
        <ele>573.9</ele>
        <time>2018-03-28T09:38:15Z</time>
      </trkpt>
      <trkpt lat="36.8378780" lon="-4.4674880">
        <ele>573.9</ele>
        <time>2018-03-28T09:38:16Z</time>
      </trkpt>
      <trkpt lat="36.8379200" lon="-4.4675170">
        <ele>573.9</ele>
        <time>2018-03-28T09:38:17Z</time>
      </trkpt>
      <trkpt lat="36.8379200" lon="-4.4675170">
        <ele>573.9</ele>
        <time>2018-03-28T09:38:18Z</time>
      </trkpt>
      <trkpt lat="36.8379650" lon="-4.4675330">
        <ele>574.9</ele>
        <time>2018-03-28T09:38:19Z</time>
      </trkpt>
      <trkpt lat="36.8379650" lon="-4.4675330">
        <ele>574.9</ele>
        <time>2018-03-28T09:38:20Z</time>
      </trkpt>
      <trkpt lat="36.8380170" lon="-4.4675350">
        <ele>574.9</ele>
        <time>2018-03-28T09:38:21Z</time>
      </trkpt>
      <trkpt lat="36.8380170" lon="-4.4675350">
        <ele>574.9</ele>
        <time>2018-03-28T09:38:22Z</time>
      </trkpt>
      <trkpt lat="36.8380680" lon="-4.4675350">
        <ele>575.9</ele>
        <time>2018-03-28T09:38:23Z</time>
      </trkpt>
      <trkpt lat="36.8380680" lon="-4.4675350">
        <ele>575.9</ele>
        <time>2018-03-28T09:38:24Z</time>
      </trkpt>
      <trkpt lat="36.8381150" lon="-4.4675330">
        <ele>575.9</ele>
        <time>2018-03-28T09:38:25Z</time>
      </trkpt>
      <trkpt lat="36.8381150" lon="-4.4675330">
        <ele>575.9</ele>
        <time>2018-03-28T09:38:26Z</time>
      </trkpt>
      <trkpt lat="36.8381650" lon="-4.4675320">
        <ele>577.9</ele>
        <time>2018-03-28T09:38:27Z</time>
      </trkpt>
      <trkpt lat="36.8381920" lon="-4.4675280">
        <ele>577.9</ele>
        <time>2018-03-28T09:38:28Z</time>
      </trkpt>
      <trkpt lat="36.8381920" lon="-4.4675280">
        <ele>577.9</ele>
        <time>2018-03-28T09:38:29Z</time>
      </trkpt>
      <trkpt lat="36.8382450" lon="-4.4675230">
        <ele>577.9</ele>
        <time>2018-03-28T09:38:30Z</time>
      </trkpt>
      <trkpt lat="36.8382700" lon="-4.4675200">
        <ele>577.9</ele>
        <time>2018-03-28T09:38:31Z</time>
      </trkpt>
      <trkpt lat="36.8382700" lon="-4.4675200">
        <ele>577.9</ele>
        <time>2018-03-28T09:38:32Z</time>
      </trkpt>
      <trkpt lat="36.8383230" lon="-4.4675120">
        <ele>577.9</ele>
        <time>2018-03-28T09:38:33Z</time>
      </trkpt>
      <trkpt lat="36.8383530" lon="-4.4675080">
        <ele>577.9</ele>
        <time>2018-03-28T09:38:34Z</time>
      </trkpt>
      <trkpt lat="36.8383530" lon="-4.4675080">
        <ele>578.9</ele>
        <time>2018-03-28T09:38:35Z</time>
      </trkpt>
      <trkpt lat="36.8384070" lon="-4.4675020">
        <ele>578.9</ele>
        <time>2018-03-28T09:38:36Z</time>
      </trkpt>
      <trkpt lat="36.8384070" lon="-4.4675020">
        <ele>578.9</ele>
        <time>2018-03-28T09:38:37Z</time>
      </trkpt>
      <trkpt lat="36.8384570" lon="-4.4674850">
        <ele>578.9</ele>
        <time>2018-03-28T09:38:38Z</time>
      </trkpt>
      <trkpt lat="36.8384570" lon="-4.4674850">
        <ele>579.9</ele>
        <time>2018-03-28T09:38:39Z</time>
      </trkpt>
      <trkpt lat="36.8385030" lon="-4.4674720">
        <ele>579.9</ele>
        <time>2018-03-28T09:38:40Z</time>
      </trkpt>
      <trkpt lat="36.8385250" lon="-4.4674600">
        <ele>579.9</ele>
        <time>2018-03-28T09:38:41Z</time>
      </trkpt>
      <trkpt lat="36.8385250" lon="-4.4674600">
        <ele>580.9</ele>
        <time>2018-03-28T09:38:42Z</time>
      </trkpt>
      <trkpt lat="36.8385700" lon="-4.4674250">
        <ele>580.9</ele>
        <time>2018-03-28T09:38:43Z</time>
      </trkpt>
      <trkpt lat="36.8385900" lon="-4.4674040">
        <ele>580.9</ele>
        <time>2018-03-28T09:38:44Z</time>
      </trkpt>
      <trkpt lat="36.8386100" lon="-4.4673820">
        <ele>580.9</ele>
        <time>2018-03-28T09:38:45Z</time>
      </trkpt>
      <trkpt lat="36.8386270" lon="-4.4673570">
        <ele>581.9</ele>
        <time>2018-03-28T09:38:46Z</time>
      </trkpt>
      <trkpt lat="36.8386420" lon="-4.4673300">
        <ele>581.9</ele>
        <time>2018-03-28T09:38:47Z</time>
      </trkpt>
      <trkpt lat="36.8386420" lon="-4.4673300">
        <ele>581.9</ele>
        <time>2018-03-28T09:38:48Z</time>
      </trkpt>
      <trkpt lat="36.8386650" lon="-4.4672750">
        <ele>581.9</ele>
        <time>2018-03-28T09:38:49Z</time>
      </trkpt>
      <trkpt lat="36.8386650" lon="-4.4672750">
        <ele>582.9</ele>
        <time>2018-03-28T09:38:50Z</time>
      </trkpt>
      <trkpt lat="36.8386850" lon="-4.4672200">
        <ele>582.9</ele>
        <time>2018-03-28T09:38:51Z</time>
      </trkpt>
      <trkpt lat="36.8386850" lon="-4.4672200">
        <ele>582.9</ele>
        <time>2018-03-28T09:38:52Z</time>
      </trkpt>
      <trkpt lat="36.8387050" lon="-4.4671670">
        <ele>582.9</ele>
        <time>2018-03-28T09:38:53Z</time>
      </trkpt>
      <trkpt lat="36.8387050" lon="-4.4671670">
        <ele>582.9</ele>
        <time>2018-03-28T09:38:54Z</time>
      </trkpt>
      <trkpt lat="36.8387230" lon="-4.4671150">
        <ele>582.9</ele>
        <time>2018-03-28T09:38:55Z</time>
      </trkpt>
      <trkpt lat="36.8387230" lon="-4.4671150">
        <ele>583.9</ele>
        <time>2018-03-28T09:38:56Z</time>
      </trkpt>
      <trkpt lat="36.8387450" lon="-4.4670670">
        <ele>583.9</ele>
        <time>2018-03-28T09:38:57Z</time>
      </trkpt>
      <trkpt lat="36.8387450" lon="-4.4670670">
        <ele>583.9</ele>
        <time>2018-03-28T09:38:58Z</time>
      </trkpt>
      <trkpt lat="36.8387700" lon="-4.4670120">
        <ele>583.9</ele>
        <time>2018-03-28T09:38:59Z</time>
      </trkpt>
      <trkpt lat="36.8387800" lon="-4.4669830">
        <ele>583.9</ele>
        <time>2018-03-28T09:39:00Z</time>
      </trkpt>
      <trkpt lat="36.8387800" lon="-4.4669830">
        <ele>583.9</ele>
        <time>2018-03-28T09:39:01Z</time>
      </trkpt>
      <trkpt lat="36.8388030" lon="-4.4669280">
        <ele>584.9</ele>
        <time>2018-03-28T09:39:02Z</time>
      </trkpt>
      <trkpt lat="36.8388030" lon="-4.4669280">
        <ele>584.9</ele>
        <time>2018-03-28T09:39:03Z</time>
      </trkpt>
      <trkpt lat="36.8388350" lon="-4.4668700">
        <ele>584.9</ele>
        <time>2018-03-28T09:39:04Z</time>
      </trkpt>
      <trkpt lat="36.8388350" lon="-4.4668700">
        <ele>584.9</ele>
        <time>2018-03-28T09:39:05Z</time>
      </trkpt>
      <trkpt lat="36.8388680" lon="-4.4668080">
        <ele>585.9</ele>
        <time>2018-03-28T09:39:06Z</time>
      </trkpt>
      <trkpt lat="36.8388830" lon="-4.4667800">
        <ele>585.9</ele>
        <time>2018-03-28T09:39:07Z</time>
      </trkpt>
      <trkpt lat="36.8388830" lon="-4.4667800">
        <ele>585.9</ele>
        <time>2018-03-28T09:39:08Z</time>
      </trkpt>
      <trkpt lat="36.8389170" lon="-4.4667300">
        <ele>586.9</ele>
        <time>2018-03-28T09:39:09Z</time>
      </trkpt>
      <trkpt lat="36.8389350" lon="-4.4667030">
        <ele>586.9</ele>
        <time>2018-03-28T09:39:10Z</time>
      </trkpt>
      <trkpt lat="36.8389550" lon="-4.4666780">
        <ele>586.9</ele>
        <time>2018-03-28T09:39:11Z</time>
      </trkpt>
      <trkpt lat="36.8389550" lon="-4.4666780">
        <ele>586.9</ele>
        <time>2018-03-28T09:39:12Z</time>
      </trkpt>
      <trkpt lat="36.8389920" lon="-4.4666170">
        <ele>586.9</ele>
        <time>2018-03-28T09:39:13Z</time>
      </trkpt>
      <trkpt lat="36.8389920" lon="-4.4666170">
        <ele>586.9</ele>
        <time>2018-03-28T09:39:14Z</time>
      </trkpt>
      <trkpt lat="36.8390370" lon="-4.4665630">
        <ele>586.9</ele>
        <time>2018-03-28T09:39:15Z</time>
      </trkpt>
      <trkpt lat="36.8390370" lon="-4.4665630">
        <ele>587.9</ele>
        <time>2018-03-28T09:39:16Z</time>
      </trkpt>
      <trkpt lat="36.8390870" lon="-4.4665050">
        <ele>587.9</ele>
        <time>2018-03-28T09:39:17Z</time>
      </trkpt>
      <trkpt lat="36.8390870" lon="-4.4665050">
        <ele>587.9</ele>
        <time>2018-03-28T09:39:18Z</time>
      </trkpt>
      <trkpt lat="36.8391520" lon="-4.4664600">
        <ele>587.9</ele>
        <time>2018-03-28T09:39:19Z</time>
      </trkpt>
      <trkpt lat="36.8391520" lon="-4.4664600">
        <ele>587.9</ele>
        <time>2018-03-28T09:39:20Z</time>
      </trkpt>
      <trkpt lat="36.8392300" lon="-4.4664420">
        <ele>587.9</ele>
        <time>2018-03-28T09:39:21Z</time>
      </trkpt>
      <trkpt lat="36.8392300" lon="-4.4664420">
        <ele>587.9</ele>
        <time>2018-03-28T09:39:22Z</time>
      </trkpt>
      <trkpt lat="36.8393080" lon="-4.4664580">
        <ele>587.9</ele>
        <time>2018-03-28T09:39:23Z</time>
      </trkpt>
      <trkpt lat="36.8393470" lon="-4.4664720">
        <ele>587.9</ele>
        <time>2018-03-28T09:39:24Z</time>
      </trkpt>
      <trkpt lat="36.8393470" lon="-4.4664720">
        <ele>587.9</ele>
        <time>2018-03-28T09:39:25Z</time>
      </trkpt>
      <trkpt lat="36.8394300" lon="-4.4665120">
        <ele>587.9</ele>
        <time>2018-03-28T09:39:26Z</time>
      </trkpt>
      <trkpt lat="36.8394300" lon="-4.4665120">
        <ele>587.9</ele>
        <time>2018-03-28T09:39:27Z</time>
      </trkpt>
      <trkpt lat="36.8395180" lon="-4.4665570">
        <ele>587.9</ele>
        <time>2018-03-28T09:39:28Z</time>
      </trkpt>
      <trkpt lat="36.8395670" lon="-4.4665830">
        <ele>587.9</ele>
        <time>2018-03-28T09:39:29Z</time>
      </trkpt>
      <trkpt lat="36.8395670" lon="-4.4665830">
        <ele>587.9</ele>
        <time>2018-03-28T09:39:30Z</time>
      </trkpt>
      <trkpt lat="36.8396620" lon="-4.4666400">
        <ele>587.9</ele>
        <time>2018-03-28T09:39:31Z</time>
      </trkpt>
      <trkpt lat="36.8396620" lon="-4.4666400">
        <ele>587.9</ele>
        <time>2018-03-28T09:39:32Z</time>
      </trkpt>
      <trkpt lat="36.8397600" lon="-4.4666800">
        <ele>587.9</ele>
        <time>2018-03-28T09:39:33Z</time>
      </trkpt>
      <trkpt lat="36.8398200" lon="-4.4666950">
        <ele>587.9</ele>
        <time>2018-03-28T09:39:34Z</time>
      </trkpt>
      <trkpt lat="36.8398200" lon="-4.4666950">
        <ele>587.9</ele>
        <time>2018-03-28T09:39:35Z</time>
      </trkpt>
      <trkpt lat="36.8399320" lon="-4.4667100">
        <ele>587.9</ele>
        <time>2018-03-28T09:39:36Z</time>
      </trkpt>
      <trkpt lat="36.8399900" lon="-4.4667050">
        <ele>587.9</ele>
        <time>2018-03-28T09:39:37Z</time>
      </trkpt>
      <trkpt lat="36.8399900" lon="-4.4667050">
        <ele>586.9</ele>
        <time>2018-03-28T09:39:38Z</time>
      </trkpt>
      <trkpt lat="36.8401020" lon="-4.4666780">
        <ele>586.9</ele>
        <time>2018-03-28T09:39:39Z</time>
      </trkpt>
      <trkpt lat="36.8401600" lon="-4.4666600">
        <ele>586.9</ele>
        <time>2018-03-28T09:39:40Z</time>
      </trkpt>
      <trkpt lat="36.8401600" lon="-4.4666600">
        <ele>586.9</ele>
        <time>2018-03-28T09:39:41Z</time>
      </trkpt>
      <trkpt lat="36.8403000" lon="-4.4665580">
        <ele>586.9</ele>
        <time>2018-03-28T09:39:42Z</time>
      </trkpt>
      <trkpt lat="36.8403220" lon="-4.4665300">
        <ele>586.9</ele>
        <time>2018-03-28T09:39:43Z</time>
      </trkpt>
      <trkpt lat="36.8403220" lon="-4.4665300">
        <ele>586.9</ele>
        <time>2018-03-28T09:39:44Z</time>
      </trkpt>
      <trkpt lat="36.8403970" lon="-4.4664050">
        <ele>585.9</ele>
        <time>2018-03-28T09:39:45Z</time>
      </trkpt>
      <trkpt lat="36.8404230" lon="-4.4663430">
        <ele>585.9</ele>
        <time>2018-03-28T09:39:46Z</time>
      </trkpt>
      <trkpt lat="36.8404230" lon="-4.4663430">
        <ele>585.9</ele>
        <time>2018-03-28T09:39:47Z</time>
      </trkpt>
      <trkpt lat="36.8404780" lon="-4.4662200">
        <ele>585.9</ele>
        <time>2018-03-28T09:39:48Z</time>
      </trkpt>
      <trkpt lat="36.8404980" lon="-4.4661580">
        <ele>585.9</ele>
        <time>2018-03-28T09:39:49Z</time>
      </trkpt>
      <trkpt lat="36.8405180" lon="-4.4660950">
        <ele>585.9</ele>
        <time>2018-03-28T09:39:50Z</time>
      </trkpt>
      <trkpt lat="36.8405180" lon="-4.4660950">
        <ele>585.9</ele>
        <time>2018-03-28T09:39:51Z</time>
      </trkpt>
      <trkpt lat="36.8405580" lon="-4.4659650">
        <ele>585.9</ele>
        <time>2018-03-28T09:39:52Z</time>
      </trkpt>
      <trkpt lat="36.8405580" lon="-4.4659650">
        <ele>585.9</ele>
        <time>2018-03-28T09:39:53Z</time>
      </trkpt>
      <trkpt lat="36.8405950" lon="-4.4658400">
        <ele>585.9</ele>
        <time>2018-03-28T09:39:54Z</time>
      </trkpt>
      <trkpt lat="36.8406120" lon="-4.4657830">
        <ele>585.9</ele>
        <time>2018-03-28T09:39:55Z</time>
      </trkpt>
      <trkpt lat="36.8406120" lon="-4.4657830">
        <ele>585.9</ele>
        <time>2018-03-28T09:39:56Z</time>
      </trkpt>
      <trkpt lat="36.8406570" lon="-4.4656880">
        <ele>585.9</ele>
        <time>2018-03-28T09:39:57Z</time>
      </trkpt>
      <trkpt lat="36.8406570" lon="-4.4656880">
        <ele>585.9</ele>
        <time>2018-03-28T09:39:58Z</time>
      </trkpt>
      <trkpt lat="36.8407150" lon="-4.4656170">
        <ele>585.9</ele>
        <time>2018-03-28T09:39:59Z</time>
      </trkpt>
      <trkpt lat="36.8407150" lon="-4.4656170">
        <ele>585.9</ele>
        <time>2018-03-28T09:40:00Z</time>
      </trkpt>
      <trkpt lat="36.8407800" lon="-4.4655750">
        <ele>586.9</ele>
        <time>2018-03-28T09:40:01Z</time>
      </trkpt>
      <trkpt lat="36.8407800" lon="-4.4655750">
        <ele>586.9</ele>
        <time>2018-03-28T09:40:02Z</time>
      </trkpt>
      <trkpt lat="36.8408500" lon="-4.4655470">
        <ele>586.9</ele>
        <time>2018-03-28T09:40:03Z</time>
      </trkpt>
      <trkpt lat="36.8408800" lon="-4.4655350">
        <ele>586.9</ele>
        <time>2018-03-28T09:40:04Z</time>
      </trkpt>
      <trkpt lat="36.8408800" lon="-4.4655350">
        <ele>587.9</ele>
        <time>2018-03-28T09:40:05Z</time>
      </trkpt>
      <trkpt lat="36.8409500" lon="-4.4655150">
        <ele>587.9</ele>
        <time>2018-03-28T09:40:06Z</time>
      </trkpt>
      <trkpt lat="36.8409870" lon="-4.4655070">
        <ele>587.9</ele>
        <time>2018-03-28T09:40:07Z</time>
      </trkpt>
      <trkpt lat="36.8409870" lon="-4.4655070">
        <ele>588.9</ele>
        <time>2018-03-28T09:40:08Z</time>
      </trkpt>
      <trkpt lat="36.8410600" lon="-4.4655030">
        <ele>588.9</ele>
        <time>2018-03-28T09:40:09Z</time>
      </trkpt>
      <trkpt lat="36.8410600" lon="-4.4655030">
        <ele>588.9</ele>
        <time>2018-03-28T09:40:10Z</time>
      </trkpt>
      <trkpt lat="36.8411320" lon="-4.4655050">
        <ele>588.9</ele>
        <time>2018-03-28T09:40:11Z</time>
      </trkpt>
      <trkpt lat="36.8411320" lon="-4.4655050">
        <ele>588.9</ele>
        <time>2018-03-28T09:40:12Z</time>
      </trkpt>
      <trkpt lat="36.8412020" lon="-4.4655100">
        <ele>588.9</ele>
        <time>2018-03-28T09:40:13Z</time>
      </trkpt>
      <trkpt lat="36.8412020" lon="-4.4655100">
        <ele>589.9</ele>
        <time>2018-03-28T09:40:14Z</time>
      </trkpt>
      <trkpt lat="36.8412750" lon="-4.4655250">
        <ele>589.9</ele>
        <time>2018-03-28T09:40:15Z</time>
      </trkpt>
      <trkpt lat="36.8412750" lon="-4.4655250">
        <ele>589.9</ele>
        <time>2018-03-28T09:40:16Z</time>
      </trkpt>
      <trkpt lat="36.8413470" lon="-4.4655270">
        <ele>589.9</ele>
        <time>2018-03-28T09:40:17Z</time>
      </trkpt>
      <trkpt lat="36.8413800" lon="-4.4655270">
        <ele>590.9</ele>
        <time>2018-03-28T09:40:18Z</time>
      </trkpt>
      <trkpt lat="36.8414130" lon="-4.4655220">
        <ele>590.9</ele>
        <time>2018-03-28T09:40:19Z</time>
      </trkpt>
      <trkpt lat="36.8414130" lon="-4.4655220">
        <ele>590.9</ele>
        <time>2018-03-28T09:40:20Z</time>
      </trkpt>
      <trkpt lat="36.8414820" lon="-4.4655020">
        <ele>590.9</ele>
        <time>2018-03-28T09:40:21Z</time>
      </trkpt>
      <trkpt lat="36.8414820" lon="-4.4655020">
        <ele>590.9</ele>
        <time>2018-03-28T09:40:22Z</time>
      </trkpt>
      <trkpt lat="36.8415550" lon="-4.4654700">
        <ele>590.9</ele>
        <time>2018-03-28T09:40:23Z</time>
      </trkpt>
      <trkpt lat="36.8415550" lon="-4.4654700">
        <ele>590.9</ele>
        <time>2018-03-28T09:40:24Z</time>
      </trkpt>
      <trkpt lat="36.8416270" lon="-4.4654470">
        <ele>590.9</ele>
        <time>2018-03-28T09:40:25Z</time>
      </trkpt>
      <trkpt lat="36.8416270" lon="-4.4654470">
        <ele>590.9</ele>
        <time>2018-03-28T09:40:26Z</time>
      </trkpt>
      <trkpt lat="36.8416980" lon="-4.4654170">
        <ele>590.9</ele>
        <time>2018-03-28T09:40:27Z</time>
      </trkpt>
      <trkpt lat="36.8416980" lon="-4.4654170">
        <ele>591.9</ele>
        <time>2018-03-28T09:40:28Z</time>
      </trkpt>
      <trkpt lat="36.8417600" lon="-4.4653780">
        <ele>591.9</ele>
        <time>2018-03-28T09:40:29Z</time>
      </trkpt>
      <trkpt lat="36.8417600" lon="-4.4653780">
        <ele>591.9</ele>
        <time>2018-03-28T09:40:30Z</time>
      </trkpt>
      <trkpt lat="36.8418200" lon="-4.4653400">
        <ele>591.9</ele>
        <time>2018-03-28T09:40:31Z</time>
      </trkpt>
      <trkpt lat="36.8418200" lon="-4.4653400">
        <ele>592.9</ele>
        <time>2018-03-28T09:40:32Z</time>
      </trkpt>
      <trkpt lat="36.8418680" lon="-4.4652880">
        <ele>592.9</ele>
        <time>2018-03-28T09:40:33Z</time>
      </trkpt>
      <trkpt lat="36.8418900" lon="-4.4652580">
        <ele>592.9</ele>
        <time>2018-03-28T09:40:34Z</time>
      </trkpt>
      <trkpt lat="36.8418900" lon="-4.4652580">
        <ele>592.9</ele>
        <time>2018-03-28T09:40:35Z</time>
      </trkpt>
      <trkpt lat="36.8419270" lon="-4.4651920">
        <ele>592.9</ele>
        <time>2018-03-28T09:40:36Z</time>
      </trkpt>
      <trkpt lat="36.8419430" lon="-4.4651570">
        <ele>593.9</ele>
        <time>2018-03-28T09:40:37Z</time>
      </trkpt>
      <trkpt lat="36.8419430" lon="-4.4651570">
        <ele>593.9</ele>
        <time>2018-03-28T09:40:38Z</time>
      </trkpt>
      <trkpt lat="36.8419670" lon="-4.4650920">
        <ele>593.9</ele>
        <time>2018-03-28T09:40:39Z</time>
      </trkpt>
      <trkpt lat="36.8419670" lon="-4.4650920">
        <ele>594.9</ele>
        <time>2018-03-28T09:40:40Z</time>
      </trkpt>
      <trkpt lat="36.8419850" lon="-4.4650200">
        <ele>594.9</ele>
        <time>2018-03-28T09:40:41Z</time>
      </trkpt>
      <trkpt lat="36.8419900" lon="-4.4649830">
        <ele>594.9</ele>
        <time>2018-03-28T09:40:42Z</time>
      </trkpt>
      <trkpt lat="36.8419900" lon="-4.4649830">
        <ele>594.9</ele>
        <time>2018-03-28T09:40:43Z</time>
      </trkpt>
      <trkpt lat="36.8420020" lon="-4.4649070">
        <ele>594.9</ele>
        <time>2018-03-28T09:40:44Z</time>
      </trkpt>
      <trkpt lat="36.8420080" lon="-4.4648690">
        <ele>594.9</ele>
        <time>2018-03-28T09:40:45Z</time>
      </trkpt>
      <trkpt lat="36.8420130" lon="-4.4648300">
        <ele>595.9</ele>
        <time>2018-03-28T09:40:46Z</time>
      </trkpt>
      <trkpt lat="36.8420170" lon="-4.4647970">
        <ele>595.9</ele>
        <time>2018-03-28T09:40:47Z</time>
      </trkpt>
      <trkpt lat="36.8420170" lon="-4.4647970">
        <ele>595.9</ele>
        <time>2018-03-28T09:40:48Z</time>
      </trkpt>
      <trkpt lat="36.8420270" lon="-4.4647320">
        <ele>595.9</ele>
        <time>2018-03-28T09:40:49Z</time>
      </trkpt>
      <trkpt lat="36.8420270" lon="-4.4647320">
        <ele>596.9</ele>
        <time>2018-03-28T09:40:50Z</time>
      </trkpt>
      <trkpt lat="36.8420450" lon="-4.4646650">
        <ele>596.9</ele>
        <time>2018-03-28T09:40:51Z</time>
      </trkpt>
      <trkpt lat="36.8420450" lon="-4.4646650">
        <ele>596.9</ele>
        <time>2018-03-28T09:40:52Z</time>
      </trkpt>
      <trkpt lat="36.8420570" lon="-4.4645980">
        <ele>596.9</ele>
        <time>2018-03-28T09:40:53Z</time>
      </trkpt>
      <trkpt lat="36.8420570" lon="-4.4645980">
        <ele>596.9</ele>
        <time>2018-03-28T09:40:54Z</time>
      </trkpt>
      <trkpt lat="36.8420720" lon="-4.4645280">
        <ele>596.9</ele>
        <time>2018-03-28T09:40:55Z</time>
      </trkpt>
      <trkpt lat="36.8420720" lon="-4.4645280">
        <ele>596.9</ele>
        <time>2018-03-28T09:40:56Z</time>
      </trkpt>
      <trkpt lat="36.8421050" lon="-4.4644650">
        <ele>596.9</ele>
        <time>2018-03-28T09:40:57Z</time>
      </trkpt>
      <trkpt lat="36.8421050" lon="-4.4644650">
        <ele>596.9</ele>
        <time>2018-03-28T09:40:58Z</time>
      </trkpt>
      <trkpt lat="36.8421450" lon="-4.4644020">
        <ele>596.9</ele>
        <time>2018-03-28T09:40:59Z</time>
      </trkpt>
      <trkpt lat="36.8421680" lon="-4.4643730">
        <ele>597.9</ele>
        <time>2018-03-28T09:41:00Z</time>
      </trkpt>
      <trkpt lat="36.8421680" lon="-4.4643730">
        <ele>597.9</ele>
        <time>2018-03-28T09:41:01Z</time>
      </trkpt>
      <trkpt lat="36.8422320" lon="-4.4643280">
        <ele>597.9</ele>
        <time>2018-03-28T09:41:02Z</time>
      </trkpt>
      <trkpt lat="36.8422320" lon="-4.4643280">
        <ele>597.9</ele>
        <time>2018-03-28T09:41:03Z</time>
      </trkpt>
      <trkpt lat="36.8423030" lon="-4.4642880">
        <ele>597.9</ele>
        <time>2018-03-28T09:41:04Z</time>
      </trkpt>
      <trkpt lat="36.8423420" lon="-4.4642720">
        <ele>597.9</ele>
        <time>2018-03-28T09:41:05Z</time>
      </trkpt>
      <trkpt lat="36.8423420" lon="-4.4642720">
        <ele>597.9</ele>
        <time>2018-03-28T09:41:06Z</time>
      </trkpt>
      <trkpt lat="36.8424200" lon="-4.4642330">
        <ele>597.9</ele>
        <time>2018-03-28T09:41:07Z</time>
      </trkpt>
      <trkpt lat="36.8424200" lon="-4.4642330">
        <ele>597.9</ele>
        <time>2018-03-28T09:41:08Z</time>
      </trkpt>
      <trkpt lat="36.8425080" lon="-4.4641870">
        <ele>597.9</ele>
        <time>2018-03-28T09:41:09Z</time>
      </trkpt>
      <trkpt lat="36.8425080" lon="-4.4641870">
        <ele>597.9</ele>
        <time>2018-03-28T09:41:10Z</time>
      </trkpt>
      <trkpt lat="36.8426170" lon="-4.4641000">
        <ele>597.9</ele>
        <time>2018-03-28T09:41:11Z</time>
      </trkpt>
      <trkpt lat="36.8426360" lon="-4.4640780">
        <ele>597.9</ele>
        <time>2018-03-28T09:41:12Z</time>
      </trkpt>
      <trkpt lat="36.8426750" lon="-4.4640330">
        <ele>597.9</ele>
        <time>2018-03-28T09:41:13Z</time>
      </trkpt>
      <trkpt lat="36.8426750" lon="-4.4640330">
        <ele>597.9</ele>
        <time>2018-03-28T09:41:14Z</time>
      </trkpt>
      <trkpt lat="36.8427270" lon="-4.4639170">
        <ele>597.9</ele>
        <time>2018-03-28T09:41:15Z</time>
      </trkpt>
      <trkpt lat="36.8427480" lon="-4.4638530">
        <ele>597.9</ele>
        <time>2018-03-28T09:41:16Z</time>
      </trkpt>
      <trkpt lat="36.8427610" lon="-4.4638220">
        <ele>597.9</ele>
        <time>2018-03-28T09:41:17Z</time>
      </trkpt>
      <trkpt lat="36.8427730" lon="-4.4637910">
        <ele>597.9</ele>
        <time>2018-03-28T09:41:18Z</time>
      </trkpt>
      <trkpt lat="36.8427980" lon="-4.4637280">
        <ele>597.9</ele>
        <time>2018-03-28T09:41:19Z</time>
      </trkpt>
      <trkpt lat="36.8428680" lon="-4.4636200">
        <ele>597.9</ele>
        <time>2018-03-28T09:41:20Z</time>
      </trkpt>
      <trkpt lat="36.8428680" lon="-4.4636200">
        <ele>597.9</ele>
        <time>2018-03-28T09:41:21Z</time>
      </trkpt>
      <trkpt lat="36.8429750" lon="-4.4635680">
        <ele>597.9</ele>
        <time>2018-03-28T09:41:22Z</time>
      </trkpt>
      <trkpt lat="36.8429750" lon="-4.4635680">
        <ele>597.9</ele>
        <time>2018-03-28T09:41:23Z</time>
      </trkpt>
      <trkpt lat="36.8431000" lon="-4.4635870">
        <ele>597.9</ele>
        <time>2018-03-28T09:41:24Z</time>
      </trkpt>
      <trkpt lat="36.8431630" lon="-4.4636130">
        <ele>597.9</ele>
        <time>2018-03-28T09:41:25Z</time>
      </trkpt>
      <trkpt lat="36.8431630" lon="-4.4636130">
        <ele>597.9</ele>
        <time>2018-03-28T09:41:26Z</time>
      </trkpt>
      <trkpt lat="36.8432880" lon="-4.4636750">
        <ele>596.9</ele>
        <time>2018-03-28T09:41:27Z</time>
      </trkpt>
      <trkpt lat="36.8433530" lon="-4.4637050">
        <ele>596.9</ele>
        <time>2018-03-28T09:41:28Z</time>
      </trkpt>
      <trkpt lat="36.8433530" lon="-4.4637050">
        <ele>596.9</ele>
        <time>2018-03-28T09:41:29Z</time>
      </trkpt>
      <trkpt lat="36.8434870" lon="-4.4637320">
        <ele>596.9</ele>
        <time>2018-03-28T09:41:30Z</time>
      </trkpt>
      <trkpt lat="36.8435210" lon="-4.4637280">
        <ele>596.9</ele>
        <time>2018-03-28T09:41:31Z</time>
      </trkpt>
      <trkpt lat="36.8435550" lon="-4.4637240">
        <ele>596.9</ele>
        <time>2018-03-28T09:41:32Z</time>
      </trkpt>
      <trkpt lat="36.8436220" lon="-4.4637150">
        <ele>596.9</ele>
        <time>2018-03-28T09:41:33Z</time>
      </trkpt>
      <trkpt lat="36.8437620" lon="-4.4637020">
        <ele>596.9</ele>
        <time>2018-03-28T09:41:34Z</time>
      </trkpt>
      <trkpt lat="36.8438320" lon="-4.4637150">
        <ele>595.9</ele>
        <time>2018-03-28T09:41:35Z</time>
      </trkpt>
      <trkpt lat="36.8438950" lon="-4.4637470">
        <ele>595.9</ele>
        <time>2018-03-28T09:41:36Z</time>
      </trkpt>
      <trkpt lat="36.8438950" lon="-4.4637470">
        <ele>595.9</ele>
        <time>2018-03-28T09:41:37Z</time>
      </trkpt>
      <trkpt lat="36.8440130" lon="-4.4638400">
        <ele>595.9</ele>
        <time>2018-03-28T09:41:38Z</time>
      </trkpt>
      <trkpt lat="36.8440130" lon="-4.4638400">
        <ele>595.9</ele>
        <time>2018-03-28T09:41:39Z</time>
      </trkpt>
      <trkpt lat="36.8441230" lon="-4.4639520">
        <ele>595.9</ele>
        <time>2018-03-28T09:41:40Z</time>
      </trkpt>
      <trkpt lat="36.8441230" lon="-4.4639520">
        <ele>595.9</ele>
        <time>2018-03-28T09:41:41Z</time>
      </trkpt>
      <trkpt lat="36.8442330" lon="-4.4640530">
        <ele>595.9</ele>
        <time>2018-03-28T09:41:42Z</time>
      </trkpt>
      <trkpt lat="36.8442880" lon="-4.4641050">
        <ele>595.9</ele>
        <time>2018-03-28T09:41:43Z</time>
      </trkpt>
      <trkpt lat="36.8442880" lon="-4.4641050">
        <ele>595.9</ele>
        <time>2018-03-28T09:41:44Z</time>
      </trkpt>
      <trkpt lat="36.8443970" lon="-4.4642020">
        <ele>595.9</ele>
        <time>2018-03-28T09:41:45Z</time>
      </trkpt>
      <trkpt lat="36.8443970" lon="-4.4642020">
        <ele>595.9</ele>
        <time>2018-03-28T09:41:46Z</time>
      </trkpt>
      <trkpt lat="36.8445080" lon="-4.4643020">
        <ele>595.9</ele>
        <time>2018-03-28T09:41:47Z</time>
      </trkpt>
      <trkpt lat="36.8445080" lon="-4.4643020">
        <ele>595.9</ele>
        <time>2018-03-28T09:41:48Z</time>
      </trkpt>
      <trkpt lat="36.8446030" lon="-4.4644200">
        <ele>595.9</ele>
        <time>2018-03-28T09:41:49Z</time>
      </trkpt>
      <trkpt lat="36.8446030" lon="-4.4644200">
        <ele>595.9</ele>
        <time>2018-03-28T09:41:50Z</time>
      </trkpt>
      <trkpt lat="36.8446700" lon="-4.4645720">
        <ele>595.9</ele>
        <time>2018-03-28T09:41:51Z</time>
      </trkpt>
      <trkpt lat="36.8446950" lon="-4.4646530">
        <ele>595.9</ele>
        <time>2018-03-28T09:41:52Z</time>
      </trkpt>
      <trkpt lat="36.8446950" lon="-4.4646530">
        <ele>594.9</ele>
        <time>2018-03-28T09:41:53Z</time>
      </trkpt>
      <trkpt lat="36.8447470" lon="-4.4648180">
        <ele>594.9</ele>
        <time>2018-03-28T09:41:54Z</time>
      </trkpt>
      <trkpt lat="36.8447830" lon="-4.4648970">
        <ele>594.9</ele>
        <time>2018-03-28T09:41:55Z</time>
      </trkpt>
      <trkpt lat="36.8447830" lon="-4.4648970">
        <ele>594.9</ele>
        <time>2018-03-28T09:41:56Z</time>
      </trkpt>
      <trkpt lat="36.8448570" lon="-4.4650530">
        <ele>594.9</ele>
        <time>2018-03-28T09:41:57Z</time>
      </trkpt>
      <trkpt lat="36.8448570" lon="-4.4650530">
        <ele>594.9</ele>
        <time>2018-03-28T09:41:58Z</time>
      </trkpt>
      <trkpt lat="36.8449380" lon="-4.4651980">
        <ele>594.9</ele>
        <time>2018-03-28T09:41:59Z</time>
      </trkpt>
      <trkpt lat="36.8449380" lon="-4.4651980">
        <ele>594.9</ele>
        <time>2018-03-28T09:42:00Z</time>
      </trkpt>
      <trkpt lat="36.8450170" lon="-4.4653500">
        <ele>594.9</ele>
        <time>2018-03-28T09:42:01Z</time>
      </trkpt>
      <trkpt lat="36.8450170" lon="-4.4653500">
        <ele>594.9</ele>
        <time>2018-03-28T09:42:02Z</time>
      </trkpt>
      <trkpt lat="36.8450980" lon="-4.4654850">
        <ele>593.9</ele>
        <time>2018-03-28T09:42:03Z</time>
      </trkpt>
      <trkpt lat="36.8450980" lon="-4.4654850">
        <ele>593.9</ele>
        <time>2018-03-28T09:42:04Z</time>
      </trkpt>
      <trkpt lat="36.8451850" lon="-4.4656180">
        <ele>593.9</ele>
        <time>2018-03-28T09:42:05Z</time>
      </trkpt>
      <trkpt lat="36.8451850" lon="-4.4656180">
        <ele>593.9</ele>
        <time>2018-03-28T09:42:06Z</time>
      </trkpt>
      <trkpt lat="36.8452800" lon="-4.4657370">
        <ele>593.9</ele>
        <time>2018-03-28T09:42:07Z</time>
      </trkpt>
      <trkpt lat="36.8452800" lon="-4.4657370">
        <ele>593.9</ele>
        <time>2018-03-28T09:42:08Z</time>
      </trkpt>
      <trkpt lat="36.8454050" lon="-4.4658300">
        <ele>593.9</ele>
        <time>2018-03-28T09:42:09Z</time>
      </trkpt>
      <trkpt lat="36.8454330" lon="-4.4658410">
        <ele>593.9</ele>
        <time>2018-03-28T09:42:10Z</time>
      </trkpt>
      <trkpt lat="36.8454880" lon="-4.4658630">
        <ele>593.9</ele>
        <time>2018-03-28T09:42:11Z</time>
      </trkpt>
      <trkpt lat="36.8455450" lon="-4.4658730">
        <ele>593.9</ele>
        <time>2018-03-28T09:42:12Z</time>
      </trkpt>
      <trkpt lat="36.8456030" lon="-4.4658600">
        <ele>593.9</ele>
        <time>2018-03-28T09:42:13Z</time>
      </trkpt>
      <trkpt lat="36.8456030" lon="-4.4658600">
        <ele>593.9</ele>
        <time>2018-03-28T09:42:14Z</time>
      </trkpt>
      <trkpt lat="36.8457170" lon="-4.4657930">
        <ele>593.9</ele>
        <time>2018-03-28T09:42:15Z</time>
      </trkpt>
      <trkpt lat="36.8457700" lon="-4.4657470">
        <ele>593.9</ele>
        <time>2018-03-28T09:42:16Z</time>
      </trkpt>
      <trkpt lat="36.8457700" lon="-4.4657470">
        <ele>593.9</ele>
        <time>2018-03-28T09:42:17Z</time>
      </trkpt>
      <trkpt lat="36.8458720" lon="-4.4656320">
        <ele>593.9</ele>
        <time>2018-03-28T09:42:18Z</time>
      </trkpt>
      <trkpt lat="36.8459230" lon="-4.4655730">
        <ele>593.9</ele>
        <time>2018-03-28T09:42:19Z</time>
      </trkpt>
      <trkpt lat="36.8459230" lon="-4.4655730">
        <ele>593.9</ele>
        <time>2018-03-28T09:42:20Z</time>
      </trkpt>
      <trkpt lat="36.8460280" lon="-4.4654700">
        <ele>593.9</ele>
        <time>2018-03-28T09:42:21Z</time>
      </trkpt>
      <trkpt lat="36.8460850" lon="-4.4654300">
        <ele>593.9</ele>
        <time>2018-03-28T09:42:22Z</time>
      </trkpt>
      <trkpt lat="36.8460850" lon="-4.4654300">
        <ele>593.9</ele>
        <time>2018-03-28T09:42:23Z</time>
      </trkpt>
      <trkpt lat="36.8462150" lon="-4.4653830">
        <ele>593.9</ele>
        <time>2018-03-28T09:42:24Z</time>
      </trkpt>
      <trkpt lat="36.8462290" lon="-4.4653790">
        <ele>593.9</ele>
        <time>2018-03-28T09:42:25Z</time>
      </trkpt>
      <trkpt lat="36.8462580" lon="-4.4653700">
        <ele>593.9</ele>
        <time>2018-03-28T09:42:26Z</time>
      </trkpt>
      <trkpt lat="36.8463750" lon="-4.4653780">
        <ele>593.9</ele>
        <time>2018-03-28T09:42:27Z</time>
      </trkpt>
      <trkpt lat="36.8463750" lon="-4.4653780">
        <ele>593.9</ele>
        <time>2018-03-28T09:42:28Z</time>
      </trkpt>
      <trkpt lat="36.8464820" lon="-4.4654380">
        <ele>593.9</ele>
        <time>2018-03-28T09:42:29Z</time>
      </trkpt>
      <trkpt lat="36.8464820" lon="-4.4654380">
        <ele>593.9</ele>
        <time>2018-03-28T09:42:30Z</time>
      </trkpt>
      <trkpt lat="36.8465830" lon="-4.4655350">
        <ele>593.9</ele>
        <time>2018-03-28T09:42:31Z</time>
      </trkpt>
      <trkpt lat="36.8465830" lon="-4.4655350">
        <ele>593.9</ele>
        <time>2018-03-28T09:42:32Z</time>
      </trkpt>
      <trkpt lat="36.8466730" lon="-4.4656530">
        <ele>593.9</ele>
        <time>2018-03-28T09:42:33Z</time>
      </trkpt>
      <trkpt lat="36.8466730" lon="-4.4656530">
        <ele>593.9</ele>
        <time>2018-03-28T09:42:34Z</time>
      </trkpt>
      <trkpt lat="36.8467600" lon="-4.4657730">
        <ele>593.9</ele>
        <time>2018-03-28T09:42:35Z</time>
      </trkpt>
      <trkpt lat="36.8467600" lon="-4.4657730">
        <ele>593.9</ele>
        <time>2018-03-28T09:42:36Z</time>
      </trkpt>
      <trkpt lat="36.8468580" lon="-4.4658680">
        <ele>593.9</ele>
        <time>2018-03-28T09:42:37Z</time>
      </trkpt>
      <trkpt lat="36.8468580" lon="-4.4658680">
        <ele>593.9</ele>
        <time>2018-03-28T09:42:38Z</time>
      </trkpt>
      <trkpt lat="36.8469770" lon="-4.4658730">
        <ele>593.9</ele>
        <time>2018-03-28T09:42:39Z</time>
      </trkpt>
      <trkpt lat="36.8469770" lon="-4.4658730">
        <ele>593.9</ele>
        <time>2018-03-28T09:42:40Z</time>
      </trkpt>
      <trkpt lat="36.8470850" lon="-4.4658050">
        <ele>593.9</ele>
        <time>2018-03-28T09:42:41Z</time>
      </trkpt>
      <trkpt lat="36.8471350" lon="-4.4657570">
        <ele>593.9</ele>
        <time>2018-03-28T09:42:42Z</time>
      </trkpt>
      <trkpt lat="36.8471350" lon="-4.4657570">
        <ele>593.9</ele>
        <time>2018-03-28T09:42:43Z</time>
      </trkpt>
      <trkpt lat="36.8472400" lon="-4.4656680">
        <ele>593.9</ele>
        <time>2018-03-28T09:42:44Z</time>
      </trkpt>
      <trkpt lat="36.8472400" lon="-4.4656680">
        <ele>593.9</ele>
        <time>2018-03-28T09:42:45Z</time>
      </trkpt>
      <trkpt lat="36.8473600" lon="-4.4656300">
        <ele>593.9</ele>
        <time>2018-03-28T09:42:46Z</time>
      </trkpt>
      <trkpt lat="36.8473600" lon="-4.4656300">
        <ele>593.9</ele>
        <time>2018-03-28T09:42:47Z</time>
      </trkpt>
      <trkpt lat="36.8474820" lon="-4.4656850">
        <ele>593.9</ele>
        <time>2018-03-28T09:42:48Z</time>
      </trkpt>
      <trkpt lat="36.8475370" lon="-4.4657300">
        <ele>593.9</ele>
        <time>2018-03-28T09:42:49Z</time>
      </trkpt>
      <trkpt lat="36.8475370" lon="-4.4657300">
        <ele>593.9</ele>
        <time>2018-03-28T09:42:50Z</time>
      </trkpt>
      <trkpt lat="36.8476380" lon="-4.4658220">
        <ele>593.9</ele>
        <time>2018-03-28T09:42:51Z</time>
      </trkpt>
      <trkpt lat="36.8476930" lon="-4.4658500">
        <ele>593.9</ele>
        <time>2018-03-28T09:42:52Z</time>
      </trkpt>
      <trkpt lat="36.8476930" lon="-4.4658500">
        <ele>593.9</ele>
        <time>2018-03-28T09:42:53Z</time>
      </trkpt>
      <trkpt lat="36.8478120" lon="-4.4658720">
        <ele>593.9</ele>
        <time>2018-03-28T09:42:54Z</time>
      </trkpt>
      <trkpt lat="36.8478720" lon="-4.4658500">
        <ele>593.9</ele>
        <time>2018-03-28T09:42:55Z</time>
      </trkpt>
      <trkpt lat="36.8478720" lon="-4.4658500">
        <ele>593.9</ele>
        <time>2018-03-28T09:42:56Z</time>
      </trkpt>
      <trkpt lat="36.8479850" lon="-4.4657800">
        <ele>593.9</ele>
        <time>2018-03-28T09:42:57Z</time>
      </trkpt>
      <trkpt lat="36.8479850" lon="-4.4657800">
        <ele>593.9</ele>
        <time>2018-03-28T09:42:58Z</time>
      </trkpt>
      <trkpt lat="36.8480930" lon="-4.4657320">
        <ele>593.9</ele>
        <time>2018-03-28T09:42:59Z</time>
      </trkpt>
      <trkpt lat="36.8481500" lon="-4.4657470">
        <ele>593.9</ele>
        <time>2018-03-28T09:43:00Z</time>
      </trkpt>
      <trkpt lat="36.8482020" lon="-4.4657750">
        <ele>593.9</ele>
        <time>2018-03-28T09:43:01Z</time>
      </trkpt>
      <trkpt lat="36.8482020" lon="-4.4657750">
        <ele>593.9</ele>
        <time>2018-03-28T09:43:02Z</time>
      </trkpt>
      <trkpt lat="36.8482970" lon="-4.4658520">
        <ele>593.9</ele>
        <time>2018-03-28T09:43:03Z</time>
      </trkpt>
      <trkpt lat="36.8482970" lon="-4.4658520">
        <ele>593.9</ele>
        <time>2018-03-28T09:43:04Z</time>
      </trkpt>
      <trkpt lat="36.8483900" lon="-4.4659070">
        <ele>594.9</ele>
        <time>2018-03-28T09:43:05Z</time>
      </trkpt>
      <trkpt lat="36.8484400" lon="-4.4659070">
        <ele>594.9</ele>
        <time>2018-03-28T09:43:06Z</time>
      </trkpt>
      <trkpt lat="36.8484920" lon="-4.4658920">
        <ele>594.9</ele>
        <time>2018-03-28T09:43:07Z</time>
      </trkpt>
      <trkpt lat="36.8484920" lon="-4.4658920">
        <ele>594.9</ele>
        <time>2018-03-28T09:43:08Z</time>
      </trkpt>
      <trkpt lat="36.8485950" lon="-4.4658530">
        <ele>594.9</ele>
        <time>2018-03-28T09:43:09Z</time>
      </trkpt>
      <trkpt lat="36.8486420" lon="-4.4658330">
        <ele>594.9</ele>
        <time>2018-03-28T09:43:10Z</time>
      </trkpt>
      <trkpt lat="36.8486420" lon="-4.4658330">
        <ele>595.9</ele>
        <time>2018-03-28T09:43:11Z</time>
      </trkpt>
      <trkpt lat="36.8487350" lon="-4.4657900">
        <ele>595.9</ele>
        <time>2018-03-28T09:43:12Z</time>
      </trkpt>
      <trkpt lat="36.8487350" lon="-4.4657900">
        <ele>595.9</ele>
        <time>2018-03-28T09:43:13Z</time>
      </trkpt>
      <trkpt lat="36.8488280" lon="-4.4657570">
        <ele>595.9</ele>
        <time>2018-03-28T09:43:14Z</time>
      </trkpt>
      <trkpt lat="36.8488280" lon="-4.4657570">
        <ele>595.9</ele>
        <time>2018-03-28T09:43:15Z</time>
      </trkpt>
      <trkpt lat="36.8489220" lon="-4.4657550">
        <ele>595.9</ele>
        <time>2018-03-28T09:43:16Z</time>
      </trkpt>
      <trkpt lat="36.8489670" lon="-4.4657620">
        <ele>595.9</ele>
        <time>2018-03-28T09:43:17Z</time>
      </trkpt>
      <trkpt lat="36.8489670" lon="-4.4657620">
        <ele>595.9</ele>
        <time>2018-03-28T09:43:18Z</time>
      </trkpt>
      <trkpt lat="36.8490520" lon="-4.4657720">
        <ele>595.9</ele>
        <time>2018-03-28T09:43:19Z</time>
      </trkpt>
      <trkpt lat="36.8490520" lon="-4.4657720">
        <ele>595.9</ele>
        <time>2018-03-28T09:43:20Z</time>
      </trkpt>
      <trkpt lat="36.8491270" lon="-4.4657950">
        <ele>596.9</ele>
        <time>2018-03-28T09:43:21Z</time>
      </trkpt>
      <trkpt lat="36.8491650" lon="-4.4658100">
        <ele>596.9</ele>
        <time>2018-03-28T09:43:22Z</time>
      </trkpt>
      <trkpt lat="36.8491650" lon="-4.4658100">
        <ele>596.9</ele>
        <time>2018-03-28T09:43:23Z</time>
      </trkpt>
      <trkpt lat="36.8492370" lon="-4.4658380">
        <ele>596.9</ele>
        <time>2018-03-28T09:43:24Z</time>
      </trkpt>
      <trkpt lat="36.8492370" lon="-4.4658380">
        <ele>597.9</ele>
        <time>2018-03-28T09:43:25Z</time>
      </trkpt>
      <trkpt lat="36.8493020" lon="-4.4658370">
        <ele>597.9</ele>
        <time>2018-03-28T09:43:26Z</time>
      </trkpt>
      <trkpt lat="36.8493020" lon="-4.4658370">
        <ele>597.9</ele>
        <time>2018-03-28T09:43:27Z</time>
      </trkpt>
      <trkpt lat="36.8493750" lon="-4.4658470">
        <ele>597.9</ele>
        <time>2018-03-28T09:43:28Z</time>
      </trkpt>
      <trkpt lat="36.8494070" lon="-4.4658400">
        <ele>598.9</ele>
        <time>2018-03-28T09:43:29Z</time>
      </trkpt>
      <trkpt lat="36.8494070" lon="-4.4658400">
        <ele>598.9</ele>
        <time>2018-03-28T09:43:30Z</time>
      </trkpt>
      <trkpt lat="36.8494720" lon="-4.4658320">
        <ele>598.9</ele>
        <time>2018-03-28T09:43:31Z</time>
      </trkpt>
      <trkpt lat="36.8494720" lon="-4.4658320">
        <ele>599.9</ele>
        <time>2018-03-28T09:43:32Z</time>
      </trkpt>
      <trkpt lat="36.8495350" lon="-4.4658320">
        <ele>599.9</ele>
        <time>2018-03-28T09:43:33Z</time>
      </trkpt>
      <trkpt lat="36.8495350" lon="-4.4658320">
        <ele>599.9</ele>
        <time>2018-03-28T09:43:34Z</time>
      </trkpt>
      <trkpt lat="36.8496030" lon="-4.4658550">
        <ele>599.9</ele>
        <time>2018-03-28T09:43:35Z</time>
      </trkpt>
      <trkpt lat="36.8496370" lon="-4.4658820">
        <ele>600.9</ele>
        <time>2018-03-28T09:43:36Z</time>
      </trkpt>
      <trkpt lat="36.8496700" lon="-4.4659100">
        <ele>600.9</ele>
        <time>2018-03-28T09:43:37Z</time>
      </trkpt>
      <trkpt lat="36.8496700" lon="-4.4659100">
        <ele>600.9</ele>
        <time>2018-03-28T09:43:38Z</time>
      </trkpt>
      <trkpt lat="36.8497220" lon="-4.4659770">
        <ele>600.9</ele>
        <time>2018-03-28T09:43:39Z</time>
      </trkpt>
      <trkpt lat="36.8497380" lon="-4.4660130">
        <ele>601.9</ele>
        <time>2018-03-28T09:43:40Z</time>
      </trkpt>
      <trkpt lat="36.8497520" lon="-4.4660540">
        <ele>601.9</ele>
        <time>2018-03-28T09:43:41Z</time>
      </trkpt>
      <trkpt lat="36.8497650" lon="-4.4660950">
        <ele>601.9</ele>
        <time>2018-03-28T09:43:42Z</time>
      </trkpt>
      <trkpt lat="36.8497650" lon="-4.4660950">
        <ele>601.9</ele>
        <time>2018-03-28T09:43:43Z</time>
      </trkpt>
      <trkpt lat="36.8497920" lon="-4.4661850">
        <ele>602.9</ele>
        <time>2018-03-28T09:43:44Z</time>
      </trkpt>
      <trkpt lat="36.8497920" lon="-4.4661850">
        <ele>602.9</ele>
        <time>2018-03-28T09:43:45Z</time>
      </trkpt>
      <trkpt lat="36.8498180" lon="-4.4662770">
        <ele>602.9</ele>
        <time>2018-03-28T09:43:46Z</time>
      </trkpt>
      <trkpt lat="36.8498350" lon="-4.4663320">
        <ele>602.9</ele>
        <time>2018-03-28T09:43:47Z</time>
      </trkpt>
      <trkpt lat="36.8498570" lon="-4.4663920">
        <ele>602.9</ele>
        <time>2018-03-28T09:43:48Z</time>
      </trkpt>
      <trkpt lat="36.8498780" lon="-4.4664520">
        <ele>602.9</ele>
        <time>2018-03-28T09:43:49Z</time>
      </trkpt>
      <trkpt lat="36.8498780" lon="-4.4664520">
        <ele>602.9</ele>
        <time>2018-03-28T09:43:50Z</time>
      </trkpt>
      <trkpt lat="36.8499600" lon="-4.4665580">
        <ele>602.9</ele>
        <time>2018-03-28T09:43:51Z</time>
      </trkpt>
      <trkpt lat="36.8499600" lon="-4.4665580">
        <ele>601.9</ele>
        <time>2018-03-28T09:43:52Z</time>
      </trkpt>
      <trkpt lat="36.8500730" lon="-4.4666520">
        <ele>601.9</ele>
        <time>2018-03-28T09:43:53Z</time>
      </trkpt>
      <trkpt lat="36.8501540" lon="-4.4666870">
        <ele>600.9</ele>
        <time>2018-03-28T09:43:54Z</time>
      </trkpt>
      <trkpt lat="36.8501700" lon="-4.4666910">
        <ele>600.9</ele>
        <time>2018-03-28T09:43:55Z</time>
      </trkpt>
      <trkpt lat="36.8502020" lon="-4.4667000">
        <ele>599.9</ele>
        <time>2018-03-28T09:43:56Z</time>
      </trkpt>
      <trkpt lat="36.8503380" lon="-4.4666980">
        <ele>599.9</ele>
        <time>2018-03-28T09:43:57Z</time>
      </trkpt>
      <trkpt lat="36.8504070" lon="-4.4666770">
        <ele>598.9</ele>
        <time>2018-03-28T09:43:58Z</time>
      </trkpt>
      <trkpt lat="36.8504070" lon="-4.4666770">
        <ele>598.9</ele>
        <time>2018-03-28T09:43:59Z</time>
      </trkpt>
      <trkpt lat="36.8505320" lon="-4.4666170">
        <ele>597.9</ele>
        <time>2018-03-28T09:44:00Z</time>
      </trkpt>
      <trkpt lat="36.8505950" lon="-4.4666020">
        <ele>597.9</ele>
        <time>2018-03-28T09:44:01Z</time>
      </trkpt>
      <trkpt lat="36.8505950" lon="-4.4666020">
        <ele>596.9</ele>
        <time>2018-03-28T09:44:02Z</time>
      </trkpt>
      <trkpt lat="36.8507420" lon="-4.4666680">
        <ele>595.9</ele>
        <time>2018-03-28T09:44:03Z</time>
      </trkpt>
      <trkpt lat="36.8507420" lon="-4.4666680">
        <ele>595.9</ele>
        <time>2018-03-28T09:44:04Z</time>
      </trkpt>
      <trkpt lat="36.8508820" lon="-4.4667830">
        <ele>593.9</ele>
        <time>2018-03-28T09:44:05Z</time>
      </trkpt>
      <trkpt lat="36.8509550" lon="-4.4668420">
        <ele>593.9</ele>
        <time>2018-03-28T09:44:06Z</time>
      </trkpt>
      <trkpt lat="36.8510330" lon="-4.4668970">
        <ele>592.9</ele>
        <time>2018-03-28T09:44:07Z</time>
      </trkpt>
      <trkpt lat="36.8511120" lon="-4.4669480">
        <ele>592.9</ele>
        <time>2018-03-28T09:44:08Z</time>
      </trkpt>
      <trkpt lat="36.8511730" lon="-4.4669860">
        <ele>591.9</ele>
        <time>2018-03-28T09:44:09Z</time>
      </trkpt>
      <trkpt lat="36.8512330" lon="-4.4670250">
        <ele>591.9</ele>
        <time>2018-03-28T09:44:10Z</time>
      </trkpt>
      <trkpt lat="36.8513530" lon="-4.4671030">
        <ele>590.9</ele>
        <time>2018-03-28T09:44:11Z</time>
      </trkpt>
      <trkpt lat="36.8513530" lon="-4.4671030">
        <ele>590.9</ele>
        <time>2018-03-28T09:44:12Z</time>
      </trkpt>
      <trkpt lat="36.8515120" lon="-4.4672170">
        <ele>590.9</ele>
        <time>2018-03-28T09:44:13Z</time>
      </trkpt>
      <trkpt lat="36.8515510" lon="-4.4672420">
        <ele>590.9</ele>
        <time>2018-03-28T09:44:14Z</time>
      </trkpt>
      <trkpt lat="36.8515900" lon="-4.4672670">
        <ele>589.9</ele>
        <time>2018-03-28T09:44:15Z</time>
      </trkpt>
      <trkpt lat="36.8516680" lon="-4.4673180">
        <ele>589.9</ele>
        <time>2018-03-28T09:44:16Z</time>
      </trkpt>
      <trkpt lat="36.8518100" lon="-4.4673730">
        <ele>589.9</ele>
        <time>2018-03-28T09:44:17Z</time>
      </trkpt>
      <trkpt lat="36.8518850" lon="-4.4673720">
        <ele>589.9</ele>
        <time>2018-03-28T09:44:18Z</time>
      </trkpt>
      <trkpt lat="36.8519480" lon="-4.4673430">
        <ele>588.9</ele>
        <time>2018-03-28T09:44:19Z</time>
      </trkpt>
      <trkpt lat="36.8519480" lon="-4.4673430">
        <ele>588.9</ele>
        <time>2018-03-28T09:44:20Z</time>
      </trkpt>
      <trkpt lat="36.8520150" lon="-4.4672200">
        <ele>588.9</ele>
        <time>2018-03-28T09:44:21Z</time>
      </trkpt>
      <trkpt lat="36.8520150" lon="-4.4672200">
        <ele>588.9</ele>
        <time>2018-03-28T09:44:22Z</time>
      </trkpt>
      <trkpt lat="36.8520150" lon="-4.4670160">
        <ele>587.9</ele>
        <time>2018-03-28T09:44:23Z</time>
      </trkpt>
      <trkpt lat="36.8520170" lon="-4.4669770">
        <ele>587.9</ele>
        <time>2018-03-28T09:44:24Z</time>
      </trkpt>
      <trkpt lat="36.8520200" lon="-4.4668980">
        <ele>587.9</ele>
        <time>2018-03-28T09:44:25Z</time>
      </trkpt>
      <trkpt lat="36.8520550" lon="-4.4668350">
        <ele>587.9</ele>
        <time>2018-03-28T09:44:26Z</time>
      </trkpt>
      <trkpt lat="36.8520550" lon="-4.4668350">
        <ele>587.9</ele>
        <time>2018-03-28T09:44:27Z</time>
      </trkpt>
      <trkpt lat="36.8521720" lon="-4.4667580">
        <ele>587.9</ele>
        <time>2018-03-28T09:44:28Z</time>
      </trkpt>
      <trkpt lat="36.8521870" lon="-4.4667570">
        <ele>587.9</ele>
        <time>2018-03-28T09:44:29Z</time>
      </trkpt>
      <trkpt lat="36.8522170" lon="-4.4667550">
        <ele>587.9</ele>
        <time>2018-03-28T09:44:30Z</time>
      </trkpt>
      <trkpt lat="36.8523380" lon="-4.4667930">
        <ele>587.9</ele>
        <time>2018-03-28T09:44:31Z</time>
      </trkpt>
      <trkpt lat="36.8524000" lon="-4.4668250">
        <ele>587.9</ele>
        <time>2018-03-28T09:44:32Z</time>
      </trkpt>
      <trkpt lat="36.8524000" lon="-4.4668250">
        <ele>587.9</ele>
        <time>2018-03-28T09:44:33Z</time>
      </trkpt>
      <trkpt lat="36.8525100" lon="-4.4669030">
        <ele>587.9</ele>
        <time>2018-03-28T09:44:34Z</time>
      </trkpt>
      <trkpt lat="36.8525100" lon="-4.4669030">
        <ele>587.9</ele>
        <time>2018-03-28T09:44:35Z</time>
      </trkpt>
      <trkpt lat="36.8526120" lon="-4.4669870">
        <ele>587.9</ele>
        <time>2018-03-28T09:44:36Z</time>
      </trkpt>
      <trkpt lat="36.8526120" lon="-4.4669870">
        <ele>588.9</ele>
        <time>2018-03-28T09:44:37Z</time>
      </trkpt>
      <trkpt lat="36.8527070" lon="-4.4670870">
        <ele>588.9</ele>
        <time>2018-03-28T09:44:38Z</time>
      </trkpt>
      <trkpt lat="36.8527070" lon="-4.4670870">
        <ele>588.9</ele>
        <time>2018-03-28T09:44:39Z</time>
      </trkpt>
      <trkpt lat="36.8527900" lon="-4.4671980">
        <ele>588.9</ele>
        <time>2018-03-28T09:44:40Z</time>
      </trkpt>
      <trkpt lat="36.8527900" lon="-4.4671980">
        <ele>588.9</ele>
        <time>2018-03-28T09:44:41Z</time>
      </trkpt>
      <trkpt lat="36.8528400" lon="-4.4673330">
        <ele>588.9</ele>
        <time>2018-03-28T09:44:42Z</time>
      </trkpt>
      <trkpt lat="36.8528550" lon="-4.4674030">
        <ele>589.9</ele>
        <time>2018-03-28T09:44:43Z</time>
      </trkpt>
      <trkpt lat="36.8528550" lon="-4.4674030">
        <ele>589.9</ele>
        <time>2018-03-28T09:44:44Z</time>
      </trkpt>
      <trkpt lat="36.8528630" lon="-4.4675570">
        <ele>589.9</ele>
        <time>2018-03-28T09:44:45Z</time>
      </trkpt>
      <trkpt lat="36.8528630" lon="-4.4675570">
        <ele>589.9</ele>
        <time>2018-03-28T09:44:46Z</time>
      </trkpt>
      <trkpt lat="36.8528630" lon="-4.4676980">
        <ele>589.9</ele>
        <time>2018-03-28T09:44:47Z</time>
      </trkpt>
      <trkpt lat="36.8528630" lon="-4.4676980">
        <ele>589.9</ele>
        <time>2018-03-28T09:44:48Z</time>
      </trkpt>
      <trkpt lat="36.8528580" lon="-4.4678300">
        <ele>590.9</ele>
        <time>2018-03-28T09:44:49Z</time>
      </trkpt>
      <trkpt lat="36.8528620" lon="-4.4679240">
        <ele>590.9</ele>
        <time>2018-03-28T09:44:50Z</time>
      </trkpt>
      <trkpt lat="36.8528660" lon="-4.4679560">
        <ele>590.9</ele>
        <time>2018-03-28T09:44:51Z</time>
      </trkpt>
      <trkpt lat="36.8528730" lon="-4.4680200">
        <ele>590.9</ele>
        <time>2018-03-28T09:44:52Z</time>
      </trkpt>
      <trkpt lat="36.8528730" lon="-4.4680200">
        <ele>590.9</ele>
        <time>2018-03-28T09:44:53Z</time>
      </trkpt>
      <trkpt lat="36.8529100" lon="-4.4681320">
        <ele>590.9</ele>
        <time>2018-03-28T09:44:54Z</time>
      </trkpt>
      <trkpt lat="36.8529420" lon="-4.4681820">
        <ele>591.9</ele>
        <time>2018-03-28T09:44:55Z</time>
      </trkpt>
      <trkpt lat="36.8529420" lon="-4.4681820">
        <ele>591.9</ele>
        <time>2018-03-28T09:44:56Z</time>
      </trkpt>
      <trkpt lat="36.8530230" lon="-4.4682570">
        <ele>591.9</ele>
        <time>2018-03-28T09:44:57Z</time>
      </trkpt>
      <trkpt lat="36.8530230" lon="-4.4682570">
        <ele>591.9</ele>
        <time>2018-03-28T09:44:58Z</time>
      </trkpt>
      <trkpt lat="36.8531270" lon="-4.4682930">
        <ele>591.9</ele>
        <time>2018-03-28T09:44:59Z</time>
      </trkpt>
      <trkpt lat="36.8531820" lon="-4.4682930">
        <ele>591.9</ele>
        <time>2018-03-28T09:45:00Z</time>
      </trkpt>
      <trkpt lat="36.8532400" lon="-4.4682920">
        <ele>591.9</ele>
        <time>2018-03-28T09:45:01Z</time>
      </trkpt>
      <trkpt lat="36.8532400" lon="-4.4682920">
        <ele>591.9</ele>
        <time>2018-03-28T09:45:02Z</time>
      </trkpt>
      <trkpt lat="36.8533600" lon="-4.4682930">
        <ele>591.9</ele>
        <time>2018-03-28T09:45:03Z</time>
      </trkpt>
      <trkpt lat="36.8534180" lon="-4.4682930">
        <ele>592.9</ele>
        <time>2018-03-28T09:45:04Z</time>
      </trkpt>
      <trkpt lat="36.8534180" lon="-4.4682930">
        <ele>592.9</ele>
        <time>2018-03-28T09:45:05Z</time>
      </trkpt>
      <trkpt lat="36.8535180" lon="-4.4683000">
        <ele>592.9</ele>
        <time>2018-03-28T09:45:06Z</time>
      </trkpt>
      <trkpt lat="36.8535680" lon="-4.4683080">
        <ele>592.9</ele>
        <time>2018-03-28T09:45:07Z</time>
      </trkpt>
      <trkpt lat="36.8535680" lon="-4.4683080">
        <ele>592.9</ele>
        <time>2018-03-28T09:45:08Z</time>
      </trkpt>
      <trkpt lat="36.8536570" lon="-4.4683470">
        <ele>592.9</ele>
        <time>2018-03-28T09:45:09Z</time>
      </trkpt>
      <trkpt lat="36.8537020" lon="-4.4683700">
        <ele>592.9</ele>
        <time>2018-03-28T09:45:10Z</time>
      </trkpt>
      <trkpt lat="36.8537470" lon="-4.4684000">
        <ele>592.9</ele>
        <time>2018-03-28T09:45:11Z</time>
      </trkpt>
      <trkpt lat="36.8537800" lon="-4.4684380">
        <ele>592.9</ele>
        <time>2018-03-28T09:45:12Z</time>
      </trkpt>
      <trkpt lat="36.8538130" lon="-4.4684830">
        <ele>592.9</ele>
        <time>2018-03-28T09:45:13Z</time>
      </trkpt>
      <trkpt lat="36.8538130" lon="-4.4684830">
        <ele>592.9</ele>
        <time>2018-03-28T09:45:14Z</time>
      </trkpt>
      <trkpt lat="36.8538820" lon="-4.4685780">
        <ele>592.9</ele>
        <time>2018-03-28T09:45:15Z</time>
      </trkpt>
      <trkpt lat="36.8538820" lon="-4.4685780">
        <ele>593.9</ele>
        <time>2018-03-28T09:45:16Z</time>
      </trkpt>
      <trkpt lat="36.8539300" lon="-4.4686880">
        <ele>593.9</ele>
        <time>2018-03-28T09:45:17Z</time>
      </trkpt>
      <trkpt lat="36.8539300" lon="-4.4686880">
        <ele>593.9</ele>
        <time>2018-03-28T09:45:18Z</time>
      </trkpt>
      <trkpt lat="36.8539800" lon="-4.4687870">
        <ele>593.9</ele>
        <time>2018-03-28T09:45:19Z</time>
      </trkpt>
      <trkpt lat="36.8539800" lon="-4.4687870">
        <ele>593.9</ele>
        <time>2018-03-28T09:45:20Z</time>
      </trkpt>
      <trkpt lat="36.8540270" lon="-4.4688850">
        <ele>593.9</ele>
        <time>2018-03-28T09:45:21Z</time>
      </trkpt>
      <trkpt lat="36.8540270" lon="-4.4688850">
        <ele>593.9</ele>
        <time>2018-03-28T09:45:22Z</time>
      </trkpt>
      <trkpt lat="36.8540770" lon="-4.4689820">
        <ele>593.9</ele>
        <time>2018-03-28T09:45:23Z</time>
      </trkpt>
      <trkpt lat="36.8541030" lon="-4.4690230">
        <ele>593.9</ele>
        <time>2018-03-28T09:45:24Z</time>
      </trkpt>
      <trkpt lat="36.8541030" lon="-4.4690230">
        <ele>593.9</ele>
        <time>2018-03-28T09:45:25Z</time>
      </trkpt>
      <trkpt lat="36.8541650" lon="-4.4690920">
        <ele>594.9</ele>
        <time>2018-03-28T09:45:26Z</time>
      </trkpt>
      <trkpt lat="36.8541980" lon="-4.4691150">
        <ele>594.9</ele>
        <time>2018-03-28T09:45:27Z</time>
      </trkpt>
      <trkpt lat="36.8541980" lon="-4.4691150">
        <ele>594.9</ele>
        <time>2018-03-28T09:45:28Z</time>
      </trkpt>
      <trkpt lat="36.8542580" lon="-4.4691620">
        <ele>594.9</ele>
        <time>2018-03-28T09:45:29Z</time>
      </trkpt>
      <trkpt lat="36.8542580" lon="-4.4691620">
        <ele>595.9</ele>
        <time>2018-03-28T09:45:30Z</time>
      </trkpt>
      <trkpt lat="36.8543130" lon="-4.4691870">
        <ele>595.9</ele>
        <time>2018-03-28T09:45:31Z</time>
      </trkpt>
      <trkpt lat="36.8543130" lon="-4.4691870">
        <ele>595.9</ele>
        <time>2018-03-28T09:45:32Z</time>
      </trkpt>
      <trkpt lat="36.8543680" lon="-4.4692030">
        <ele>596.9</ele>
        <time>2018-03-28T09:45:33Z</time>
      </trkpt>
      <trkpt lat="36.8543970" lon="-4.4692170">
        <ele>596.9</ele>
        <time>2018-03-28T09:45:34Z</time>
      </trkpt>
      <trkpt lat="36.8543970" lon="-4.4692170">
        <ele>596.9</ele>
        <time>2018-03-28T09:45:35Z</time>
      </trkpt>
      <trkpt lat="36.8544520" lon="-4.4692480">
        <ele>596.9</ele>
        <time>2018-03-28T09:45:36Z</time>
      </trkpt>
      <trkpt lat="36.8544770" lon="-4.4692630">
        <ele>597.9</ele>
        <time>2018-03-28T09:45:37Z</time>
      </trkpt>
      <trkpt lat="36.8544770" lon="-4.4692630">
        <ele>597.9</ele>
        <time>2018-03-28T09:45:38Z</time>
      </trkpt>
      <trkpt lat="36.8545280" lon="-4.4692930">
        <ele>597.9</ele>
        <time>2018-03-28T09:45:39Z</time>
      </trkpt>
      <trkpt lat="36.8545280" lon="-4.4692930">
        <ele>597.9</ele>
        <time>2018-03-28T09:45:40Z</time>
      </trkpt>
      <trkpt lat="36.8545830" lon="-4.4693220">
        <ele>598.9</ele>
        <time>2018-03-28T09:45:41Z</time>
      </trkpt>
      <trkpt lat="36.8545830" lon="-4.4693220">
        <ele>598.9</ele>
        <time>2018-03-28T09:45:42Z</time>
      </trkpt>
      <trkpt lat="36.8546420" lon="-4.4693500">
        <ele>598.9</ele>
        <time>2018-03-28T09:45:43Z</time>
      </trkpt>
      <trkpt lat="36.8546420" lon="-4.4693500">
        <ele>598.9</ele>
        <time>2018-03-28T09:45:44Z</time>
      </trkpt>
      <trkpt lat="36.8546950" lon="-4.4693750">
        <ele>598.9</ele>
        <time>2018-03-28T09:45:45Z</time>
      </trkpt>
      <trkpt lat="36.8546950" lon="-4.4693750">
        <ele>598.9</ele>
        <time>2018-03-28T09:45:46Z</time>
      </trkpt>
      <trkpt lat="36.8547470" lon="-4.4693970">
        <ele>599.9</ele>
        <time>2018-03-28T09:45:47Z</time>
      </trkpt>
      <trkpt lat="36.8547650" lon="-4.4694320">
        <ele>599.9</ele>
        <time>2018-03-28T09:45:48Z</time>
      </trkpt>
      <trkpt lat="36.8547650" lon="-4.4694320">
        <ele>599.9</ele>
        <time>2018-03-28T09:45:49Z</time>
      </trkpt>
      <trkpt lat="36.8548120" lon="-4.4694670">
        <ele>599.9</ele>
        <time>2018-03-28T09:45:50Z</time>
      </trkpt>
      <trkpt lat="36.8548120" lon="-4.4694670">
        <ele>600.9</ele>
        <time>2018-03-28T09:45:51Z</time>
      </trkpt>
      <trkpt lat="36.8548630" lon="-4.4694920">
        <ele>600.9</ele>
        <time>2018-03-28T09:45:52Z</time>
      </trkpt>
      <trkpt lat="36.8548630" lon="-4.4694920">
        <ele>600.9</ele>
        <time>2018-03-28T09:45:53Z</time>
      </trkpt>
      <trkpt lat="36.8549150" lon="-4.4695170">
        <ele>600.9</ele>
        <time>2018-03-28T09:45:54Z</time>
      </trkpt>
      <trkpt lat="36.8549150" lon="-4.4695170">
        <ele>601.9</ele>
        <time>2018-03-28T09:45:55Z</time>
      </trkpt>
      <trkpt lat="36.8549620" lon="-4.4695400">
        <ele>601.9</ele>
        <time>2018-03-28T09:45:56Z</time>
      </trkpt>
      <trkpt lat="36.8549850" lon="-4.4695530">
        <ele>601.9</ele>
        <time>2018-03-28T09:45:57Z</time>
      </trkpt>
      <trkpt lat="36.8550080" lon="-4.4695670">
        <ele>601.9</ele>
        <time>2018-03-28T09:45:58Z</time>
      </trkpt>
      <trkpt lat="36.8550330" lon="-4.4695800">
        <ele>602.9</ele>
        <time>2018-03-28T09:45:59Z</time>
      </trkpt>
      <trkpt lat="36.8550330" lon="-4.4695800">
        <ele>602.9</ele>
        <time>2018-03-28T09:46:00Z</time>
      </trkpt>
      <trkpt lat="36.8550900" lon="-4.4696130">
        <ele>602.9</ele>
        <time>2018-03-28T09:46:01Z</time>
      </trkpt>
      <trkpt lat="36.8550900" lon="-4.4696130">
        <ele>603.9</ele>
        <time>2018-03-28T09:46:02Z</time>
      </trkpt>
      <trkpt lat="36.8551480" lon="-4.4696250">
        <ele>603.9</ele>
        <time>2018-03-28T09:46:03Z</time>
      </trkpt>
      <trkpt lat="36.8551680" lon="-4.4696350">
        <ele>603.9</ele>
        <time>2018-03-28T09:46:04Z</time>
      </trkpt>
      <trkpt lat="36.8551680" lon="-4.4696350">
        <ele>603.9</ele>
        <time>2018-03-28T09:46:05Z</time>
      </trkpt>
      <trkpt lat="36.8552260" lon="-4.4696650">
        <ele>604.9</ele>
        <time>2018-03-28T09:46:06Z</time>
      </trkpt>
      <trkpt lat="36.8552370" lon="-4.4696720">
        <ele>604.9</ele>
        <time>2018-03-28T09:46:07Z</time>
      </trkpt>
      <trkpt lat="36.8552370" lon="-4.4696720">
        <ele>604.9</ele>
        <time>2018-03-28T09:46:08Z</time>
      </trkpt>
      <trkpt lat="36.8552700" lon="-4.4697120">
        <ele>604.9</ele>
        <time>2018-03-28T09:46:09Z</time>
      </trkpt>
      <trkpt lat="36.8552700" lon="-4.4697120">
        <ele>604.9</ele>
        <time>2018-03-28T09:46:10Z</time>
      </trkpt>
      <trkpt lat="36.8553000" lon="-4.4697650">
        <ele>604.9</ele>
        <time>2018-03-28T09:46:11Z</time>
      </trkpt>
      <trkpt lat="36.8553000" lon="-4.4697650">
        <ele>605.9</ele>
        <time>2018-03-28T09:46:12Z</time>
      </trkpt>
      <trkpt lat="36.8553280" lon="-4.4698150">
        <ele>605.9</ele>
        <time>2018-03-28T09:46:13Z</time>
      </trkpt>
      <trkpt lat="36.8553430" lon="-4.4698400">
        <ele>605.9</ele>
        <time>2018-03-28T09:46:14Z</time>
      </trkpt>
      <trkpt lat="36.8553430" lon="-4.4698400">
        <ele>605.9</ele>
        <time>2018-03-28T09:46:15Z</time>
      </trkpt>
      <trkpt lat="36.8553780" lon="-4.4698870">
        <ele>606.9</ele>
        <time>2018-03-28T09:46:16Z</time>
      </trkpt>
      <trkpt lat="36.8553970" lon="-4.4699170">
        <ele>606.9</ele>
        <time>2018-03-28T09:46:17Z</time>
      </trkpt>
      <trkpt lat="36.8554130" lon="-4.4699450">
        <ele>606.9</ele>
        <time>2018-03-28T09:46:18Z</time>
      </trkpt>
      <trkpt lat="36.8554130" lon="-4.4699450">
        <ele>606.9</ele>
        <time>2018-03-28T09:46:19Z</time>
      </trkpt>
      <trkpt lat="36.8554500" lon="-4.4699930">
        <ele>607.9</ele>
        <time>2018-03-28T09:46:20Z</time>
      </trkpt>
      <trkpt lat="36.8554700" lon="-4.4700120">
        <ele>607.9</ele>
        <time>2018-03-28T09:46:21Z</time>
      </trkpt>
      <trkpt lat="36.8554700" lon="-4.4700120">
        <ele>607.9</ele>
        <time>2018-03-28T09:46:22Z</time>
      </trkpt>
      <trkpt lat="36.8555130" lon="-4.4700420">
        <ele>607.9</ele>
        <time>2018-03-28T09:46:23Z</time>
      </trkpt>
      <trkpt lat="36.8555130" lon="-4.4700420">
        <ele>608.9</ele>
        <time>2018-03-28T09:46:24Z</time>
      </trkpt>
      <trkpt lat="36.8555600" lon="-4.4700700">
        <ele>608.9</ele>
        <time>2018-03-28T09:46:25Z</time>
      </trkpt>
      <trkpt lat="36.8555600" lon="-4.4700700">
        <ele>608.9</ele>
        <time>2018-03-28T09:46:26Z</time>
      </trkpt>
      <trkpt lat="36.8556080" lon="-4.4700830">
        <ele>608.9</ele>
        <time>2018-03-28T09:46:27Z</time>
      </trkpt>
      <trkpt lat="36.8556080" lon="-4.4700830">
        <ele>609.9</ele>
        <time>2018-03-28T09:46:28Z</time>
      </trkpt>
      <trkpt lat="36.8556530" lon="-4.4700930">
        <ele>609.9</ele>
        <time>2018-03-28T09:46:29Z</time>
      </trkpt>
      <trkpt lat="36.8556530" lon="-4.4700930">
        <ele>609.9</ele>
        <time>2018-03-28T09:46:30Z</time>
      </trkpt>
      <trkpt lat="36.8557080" lon="-4.4700980">
        <ele>609.9</ele>
        <time>2018-03-28T09:46:31Z</time>
      </trkpt>
      <trkpt lat="36.8557080" lon="-4.4700980">
        <ele>609.9</ele>
        <time>2018-03-28T09:46:32Z</time>
      </trkpt>
      <trkpt lat="36.8557650" lon="-4.4701030">
        <ele>610.9</ele>
        <time>2018-03-28T09:46:33Z</time>
      </trkpt>
      <trkpt lat="36.8557930" lon="-4.4701000">
        <ele>610.9</ele>
        <time>2018-03-28T09:46:34Z</time>
      </trkpt>
      <trkpt lat="36.8558170" lon="-4.4701050">
        <ele>610.9</ele>
        <time>2018-03-28T09:46:35Z</time>
      </trkpt>
      <trkpt lat="36.8558400" lon="-4.4701100">
        <ele>610.9</ele>
        <time>2018-03-28T09:46:36Z</time>
      </trkpt>
      <trkpt lat="36.8558630" lon="-4.4701120">
        <ele>611.9</ele>
        <time>2018-03-28T09:46:37Z</time>
      </trkpt>
      <trkpt lat="36.8558630" lon="-4.4701120">
        <ele>611.9</ele>
        <time>2018-03-28T09:46:38Z</time>
      </trkpt>
      <trkpt lat="36.8559080" lon="-4.4701000">
        <ele>611.9</ele>
        <time>2018-03-28T09:46:39Z</time>
      </trkpt>
      <trkpt lat="36.8559080" lon="-4.4701000">
        <ele>611.9</ele>
        <time>2018-03-28T09:46:40Z</time>
      </trkpt>
      <trkpt lat="36.8559550" lon="-4.4700830">
        <ele>611.9</ele>
        <time>2018-03-28T09:46:41Z</time>
      </trkpt>
      <trkpt lat="36.8559550" lon="-4.4700830">
        <ele>611.9</ele>
        <time>2018-03-28T09:46:42Z</time>
      </trkpt>
      <trkpt lat="36.8560020" lon="-4.4700580">
        <ele>612.9</ele>
        <time>2018-03-28T09:46:43Z</time>
      </trkpt>
      <trkpt lat="36.8560020" lon="-4.4700580">
        <ele>612.9</ele>
        <time>2018-03-28T09:46:44Z</time>
      </trkpt>
      <trkpt lat="36.8560450" lon="-4.4700280">
        <ele>612.9</ele>
        <time>2018-03-28T09:46:45Z</time>
      </trkpt>
      <trkpt lat="36.8560670" lon="-4.4700130">
        <ele>612.9</ele>
        <time>2018-03-28T09:46:46Z</time>
      </trkpt>
      <trkpt lat="36.8560670" lon="-4.4700130">
        <ele>612.9</ele>
        <time>2018-03-28T09:46:47Z</time>
      </trkpt>
      <trkpt lat="36.8561120" lon="-4.4699830">
        <ele>612.9</ele>
        <time>2018-03-28T09:46:48Z</time>
      </trkpt>
      <trkpt lat="36.8561320" lon="-4.4699680">
        <ele>612.9</ele>
        <time>2018-03-28T09:46:49Z</time>
      </trkpt>
      <trkpt lat="36.8561320" lon="-4.4699680">
        <ele>612.9</ele>
        <time>2018-03-28T09:46:50Z</time>
      </trkpt>
      <trkpt lat="36.8561890" lon="-4.4699310">
        <ele>612.9</ele>
        <time>2018-03-28T09:46:51Z</time>
      </trkpt>
      <trkpt lat="36.8562040" lon="-4.4699210">
        <ele>612.9</ele>
        <time>2018-03-28T09:46:52Z</time>
      </trkpt>
      <trkpt lat="36.8562180" lon="-4.4699120">
        <ele>613.9</ele>
        <time>2018-03-28T09:46:53Z</time>
      </trkpt>
      <trkpt lat="36.8562400" lon="-4.4698970">
        <ele>613.9</ele>
        <time>2018-03-28T09:46:54Z</time>
      </trkpt>
      <trkpt lat="36.8562630" lon="-4.4698820">
        <ele>613.9</ele>
        <time>2018-03-28T09:46:55Z</time>
      </trkpt>
      <trkpt lat="36.8562850" lon="-4.4698670">
        <ele>613.9</ele>
        <time>2018-03-28T09:46:56Z</time>
      </trkpt>
      <trkpt lat="36.8562850" lon="-4.4698670">
        <ele>614.9</ele>
        <time>2018-03-28T09:46:57Z</time>
      </trkpt>
      <trkpt lat="36.8563300" lon="-4.4698350">
        <ele>614.9</ele>
        <time>2018-03-28T09:46:58Z</time>
      </trkpt>
      <trkpt lat="36.8563520" lon="-4.4698180">
        <ele>614.9</ele>
        <time>2018-03-28T09:46:59Z</time>
      </trkpt>
      <trkpt lat="36.8563520" lon="-4.4698180">
        <ele>615.9</ele>
        <time>2018-03-28T09:47:00Z</time>
      </trkpt>
      <trkpt lat="36.8563980" lon="-4.4697880">
        <ele>615.9</ele>
        <time>2018-03-28T09:47:01Z</time>
      </trkpt>
      <trkpt lat="36.8563980" lon="-4.4697880">
        <ele>615.9</ele>
        <time>2018-03-28T09:47:02Z</time>
      </trkpt>
      <trkpt lat="36.8564450" lon="-4.4697580">
        <ele>615.9</ele>
        <time>2018-03-28T09:47:03Z</time>
      </trkpt>
      <trkpt lat="36.8564450" lon="-4.4697580">
        <ele>615.9</ele>
        <time>2018-03-28T09:47:04Z</time>
      </trkpt>
      <trkpt lat="36.8564880" lon="-4.4697270">
        <ele>615.9</ele>
        <time>2018-03-28T09:47:05Z</time>
      </trkpt>
      <trkpt lat="36.8564880" lon="-4.4697270">
        <ele>616.9</ele>
        <time>2018-03-28T09:47:06Z</time>
      </trkpt>
      <trkpt lat="36.8565330" lon="-4.4696900">
        <ele>616.9</ele>
        <time>2018-03-28T09:47:07Z</time>
      </trkpt>
      <trkpt lat="36.8565330" lon="-4.4696900">
        <ele>616.9</ele>
        <time>2018-03-28T09:47:08Z</time>
      </trkpt>
      <trkpt lat="36.8565770" lon="-4.4696570">
        <ele>616.9</ele>
        <time>2018-03-28T09:47:09Z</time>
      </trkpt>
      <trkpt lat="36.8566000" lon="-4.4696400">
        <ele>616.9</ele>
        <time>2018-03-28T09:47:10Z</time>
      </trkpt>
      <trkpt lat="36.8566000" lon="-4.4696400">
        <ele>616.9</ele>
        <time>2018-03-28T09:47:11Z</time>
      </trkpt>
      <trkpt lat="36.8566480" lon="-4.4696120">
        <ele>616.9</ele>
        <time>2018-03-28T09:47:12Z</time>
      </trkpt>
      <trkpt lat="36.8566720" lon="-4.4695980">
        <ele>616.9</ele>
        <time>2018-03-28T09:47:13Z</time>
      </trkpt>
      <trkpt lat="36.8566720" lon="-4.4695980">
        <ele>617.9</ele>
        <time>2018-03-28T09:47:14Z</time>
      </trkpt>
      <trkpt lat="36.8567170" lon="-4.4695700">
        <ele>617.9</ele>
        <time>2018-03-28T09:47:15Z</time>
      </trkpt>
      <trkpt lat="36.8567170" lon="-4.4695700">
        <ele>617.9</ele>
        <time>2018-03-28T09:47:16Z</time>
      </trkpt>
      <trkpt lat="36.8567570" lon="-4.4695300">
        <ele>617.9</ele>
        <time>2018-03-28T09:47:17Z</time>
      </trkpt>
      <trkpt lat="36.8567770" lon="-4.4695100">
        <ele>618.9</ele>
        <time>2018-03-28T09:47:18Z</time>
      </trkpt>
      <trkpt lat="36.8567980" lon="-4.4694900">
        <ele>618.9</ele>
        <time>2018-03-28T09:47:19Z</time>
      </trkpt>
      <trkpt lat="36.8567980" lon="-4.4694900">
        <ele>618.9</ele>
        <time>2018-03-28T09:47:20Z</time>
      </trkpt>
      <trkpt lat="36.8568420" lon="-4.4694520">
        <ele>618.9</ele>
        <time>2018-03-28T09:47:21Z</time>
      </trkpt>
      <trkpt lat="36.8568630" lon="-4.4694350">
        <ele>619.9</ele>
        <time>2018-03-28T09:47:22Z</time>
      </trkpt>
      <trkpt lat="36.8568630" lon="-4.4694350">
        <ele>619.9</ele>
        <time>2018-03-28T09:47:23Z</time>
      </trkpt>
      <trkpt lat="36.8569080" lon="-4.4694020">
        <ele>619.9</ele>
        <time>2018-03-28T09:47:24Z</time>
      </trkpt>
      <trkpt lat="36.8569330" lon="-4.4693830">
        <ele>619.9</ele>
        <time>2018-03-28T09:47:25Z</time>
      </trkpt>
      <trkpt lat="36.8569330" lon="-4.4693830">
        <ele>619.9</ele>
        <time>2018-03-28T09:47:26Z</time>
      </trkpt>
      <trkpt lat="36.8569780" lon="-4.4693500">
        <ele>619.9</ele>
        <time>2018-03-28T09:47:27Z</time>
      </trkpt>
      <trkpt lat="36.8569780" lon="-4.4693500">
        <ele>620.9</ele>
        <time>2018-03-28T09:47:28Z</time>
      </trkpt>
      <trkpt lat="36.8570220" lon="-4.4693180">
        <ele>620.9</ele>
        <time>2018-03-28T09:47:29Z</time>
      </trkpt>
      <trkpt lat="36.8570430" lon="-4.4693000">
        <ele>620.9</ele>
        <time>2018-03-28T09:47:30Z</time>
      </trkpt>
      <trkpt lat="36.8570630" lon="-4.4692800">
        <ele>620.9</ele>
        <time>2018-03-28T09:47:31Z</time>
      </trkpt>
      <trkpt lat="36.8570630" lon="-4.4692800">
        <ele>620.9</ele>
        <time>2018-03-28T09:47:32Z</time>
      </trkpt>
      <trkpt lat="36.8571050" lon="-4.4692370">
        <ele>621.9</ele>
        <time>2018-03-28T09:47:33Z</time>
      </trkpt>
      <trkpt lat="36.8571250" lon="-4.4692150">
        <ele>621.9</ele>
        <time>2018-03-28T09:47:34Z</time>
      </trkpt>
      <trkpt lat="36.8571250" lon="-4.4692150">
        <ele>621.9</ele>
        <time>2018-03-28T09:47:35Z</time>
      </trkpt>
      <trkpt lat="36.8571670" lon="-4.4691770">
        <ele>621.9</ele>
        <time>2018-03-28T09:47:36Z</time>
      </trkpt>
      <trkpt lat="36.8571670" lon="-4.4691770">
        <ele>622.9</ele>
        <time>2018-03-28T09:47:37Z</time>
      </trkpt>
      <trkpt lat="36.8572120" lon="-4.4691430">
        <ele>622.9</ele>
        <time>2018-03-28T09:47:38Z</time>
      </trkpt>
      <trkpt lat="36.8572120" lon="-4.4691430">
        <ele>622.9</ele>
        <time>2018-03-28T09:47:39Z</time>
      </trkpt>
      <trkpt lat="36.8572600" lon="-4.4691170">
        <ele>622.9</ele>
        <time>2018-03-28T09:47:40Z</time>
      </trkpt>
      <trkpt lat="36.8572600" lon="-4.4691170">
        <ele>622.9</ele>
        <time>2018-03-28T09:47:41Z</time>
      </trkpt>
      <trkpt lat="36.8573050" lon="-4.4690950">
        <ele>622.9</ele>
        <time>2018-03-28T09:47:42Z</time>
      </trkpt>
      <trkpt lat="36.8573050" lon="-4.4690950">
        <ele>623.9</ele>
        <time>2018-03-28T09:47:43Z</time>
      </trkpt>
      <trkpt lat="36.8573480" lon="-4.4690630">
        <ele>623.9</ele>
        <time>2018-03-28T09:47:44Z</time>
      </trkpt>
      <trkpt lat="36.8573480" lon="-4.4690630">
        <ele>623.9</ele>
        <time>2018-03-28T09:47:45Z</time>
      </trkpt>
      <trkpt lat="36.8573870" lon="-4.4690200">
        <ele>623.9</ele>
        <time>2018-03-28T09:47:46Z</time>
      </trkpt>
      <trkpt lat="36.8573870" lon="-4.4690200">
        <ele>623.9</ele>
        <time>2018-03-28T09:47:47Z</time>
      </trkpt>
      <trkpt lat="36.8574270" lon="-4.4689770">
        <ele>623.9</ele>
        <time>2018-03-28T09:47:48Z</time>
      </trkpt>
      <trkpt lat="36.8574480" lon="-4.4689580">
        <ele>624.9</ele>
        <time>2018-03-28T09:47:49Z</time>
      </trkpt>
      <trkpt lat="36.8574480" lon="-4.4689580">
        <ele>624.9</ele>
        <time>2018-03-28T09:47:50Z</time>
      </trkpt>
      <trkpt lat="36.8574950" lon="-4.4689280">
        <ele>624.9</ele>
        <time>2018-03-28T09:47:51Z</time>
      </trkpt>
      <trkpt lat="36.8575180" lon="-4.4689150">
        <ele>624.9</ele>
        <time>2018-03-28T09:47:52Z</time>
      </trkpt>
      <trkpt lat="36.8575180" lon="-4.4689150">
        <ele>625.9</ele>
        <time>2018-03-28T09:47:53Z</time>
      </trkpt>
      <trkpt lat="36.8575650" lon="-4.4688870">
        <ele>625.9</ele>
        <time>2018-03-28T09:47:54Z</time>
      </trkpt>
      <trkpt lat="36.8575880" lon="-4.4688750">
        <ele>625.9</ele>
        <time>2018-03-28T09:47:55Z</time>
      </trkpt>
      <trkpt lat="36.8575880" lon="-4.4688750">
        <ele>625.9</ele>
        <time>2018-03-28T09:47:56Z</time>
      </trkpt>
      <trkpt lat="36.8576330" lon="-4.4688500">
        <ele>626.9</ele>
        <time>2018-03-28T09:47:57Z</time>
      </trkpt>
      <trkpt lat="36.8576330" lon="-4.4688500">
        <ele>626.9</ele>
        <time>2018-03-28T09:47:58Z</time>
      </trkpt>
      <trkpt lat="36.8576780" lon="-4.4688230">
        <ele>626.9</ele>
        <time>2018-03-28T09:47:59Z</time>
      </trkpt>
      <trkpt lat="36.8577030" lon="-4.4688080">
        <ele>626.9</ele>
        <time>2018-03-28T09:48:00Z</time>
      </trkpt>
      <trkpt lat="36.8577030" lon="-4.4688080">
        <ele>627.9</ele>
        <time>2018-03-28T09:48:01Z</time>
      </trkpt>
      <trkpt lat="36.8577530" lon="-4.4687830">
        <ele>627.9</ele>
        <time>2018-03-28T09:48:02Z</time>
      </trkpt>
      <trkpt lat="36.8577530" lon="-4.4687830">
        <ele>627.9</ele>
        <time>2018-03-28T09:48:03Z</time>
      </trkpt>
      <trkpt lat="36.8578030" lon="-4.4687600">
        <ele>627.9</ele>
        <time>2018-03-28T09:48:04Z</time>
      </trkpt>
      <trkpt lat="36.8578430" lon="-4.4687440">
        <ele>628.9</ele>
        <time>2018-03-28T09:48:05Z</time>
      </trkpt>
      <trkpt lat="36.8578580" lon="-4.4687390">
        <ele>628.9</ele>
        <time>2018-03-28T09:48:06Z</time>
      </trkpt>
      <trkpt lat="36.8578730" lon="-4.4687330">
        <ele>628.9</ele>
        <time>2018-03-28T09:48:07Z</time>
      </trkpt>
      <trkpt lat="36.8578950" lon="-4.4687300">
        <ele>628.9</ele>
        <time>2018-03-28T09:48:08Z</time>
      </trkpt>
      <trkpt lat="36.8579200" lon="-4.4687300">
        <ele>628.9</ele>
        <time>2018-03-28T09:48:09Z</time>
      </trkpt>
      <trkpt lat="36.8579200" lon="-4.4687300">
        <ele>628.9</ele>
        <time>2018-03-28T09:48:10Z</time>
      </trkpt>
      <trkpt lat="36.8579680" lon="-4.4687250">
        <ele>628.9</ele>
        <time>2018-03-28T09:48:11Z</time>
      </trkpt>
      <trkpt lat="36.8579930" lon="-4.4687220">
        <ele>628.9</ele>
        <time>2018-03-28T09:48:12Z</time>
      </trkpt>
      <trkpt lat="36.8580200" lon="-4.4687150">
        <ele>628.9</ele>
        <time>2018-03-28T09:48:13Z</time>
      </trkpt>
      <trkpt lat="36.8580200" lon="-4.4687150">
        <ele>628.9</ele>
        <time>2018-03-28T09:48:14Z</time>
      </trkpt>
      <trkpt lat="36.8580750" lon="-4.4687080">
        <ele>630.9</ele>
        <time>2018-03-28T09:48:15Z</time>
      </trkpt>
      <trkpt lat="36.8581050" lon="-4.4687120">
        <ele>630.9</ele>
        <time>2018-03-28T09:48:16Z</time>
      </trkpt>
      <trkpt lat="36.8581050" lon="-4.4687120">
        <ele>630.9</ele>
        <time>2018-03-28T09:48:17Z</time>
      </trkpt>
      <trkpt lat="36.8581630" lon="-4.4687200">
        <ele>630.9</ele>
        <time>2018-03-28T09:48:18Z</time>
      </trkpt>
      <trkpt lat="36.8581920" lon="-4.4687230">
        <ele>630.9</ele>
        <time>2018-03-28T09:48:19Z</time>
      </trkpt>
      <trkpt lat="36.8581920" lon="-4.4687230">
        <ele>630.9</ele>
        <time>2018-03-28T09:48:20Z</time>
      </trkpt>
      <trkpt lat="36.8582450" lon="-4.4687280">
        <ele>630.9</ele>
        <time>2018-03-28T09:48:21Z</time>
      </trkpt>
      <trkpt lat="36.8582450" lon="-4.4687280">
        <ele>630.9</ele>
        <time>2018-03-28T09:48:22Z</time>
      </trkpt>
      <trkpt lat="36.8582820" lon="-4.4687280">
        <ele>631.9</ele>
        <time>2018-03-28T09:48:23Z</time>
      </trkpt>
      <trkpt lat="36.8582820" lon="-4.4687280">
        <ele>631.9</ele>
        <time>2018-03-28T09:48:24Z</time>
      </trkpt>
      <trkpt lat="36.8583400" lon="-4.4687280">
        <ele>632.9</ele>
        <time>2018-03-28T09:48:25Z</time>
      </trkpt>
      <trkpt lat="36.8583400" lon="-4.4687280">
        <ele>632.9</ele>
        <time>2018-03-28T09:48:26Z</time>
      </trkpt>
      <trkpt lat="36.8583930" lon="-4.4687300">
        <ele>632.9</ele>
        <time>2018-03-28T09:48:27Z</time>
      </trkpt>
      <trkpt lat="36.8583930" lon="-4.4687300">
        <ele>632.9</ele>
        <time>2018-03-28T09:48:28Z</time>
      </trkpt>
      <trkpt lat="36.8584470" lon="-4.4687250">
        <ele>633.9</ele>
        <time>2018-03-28T09:48:29Z</time>
      </trkpt>
      <trkpt lat="36.8584470" lon="-4.4687250">
        <ele>633.9</ele>
        <time>2018-03-28T09:48:30Z</time>
      </trkpt>
      <trkpt lat="36.8584950" lon="-4.4687100">
        <ele>633.9</ele>
        <time>2018-03-28T09:48:31Z</time>
      </trkpt>
      <trkpt lat="36.8584950" lon="-4.4687100">
        <ele>633.9</ele>
        <time>2018-03-28T09:48:32Z</time>
      </trkpt>
      <trkpt lat="36.8585430" lon="-4.4686950">
        <ele>634.9</ele>
        <time>2018-03-28T09:48:33Z</time>
      </trkpt>
      <trkpt lat="36.8585430" lon="-4.4686950">
        <ele>634.9</ele>
        <time>2018-03-28T09:48:34Z</time>
      </trkpt>
      <trkpt lat="36.8585870" lon="-4.4686750">
        <ele>634.9</ele>
        <time>2018-03-28T09:48:35Z</time>
      </trkpt>
      <trkpt lat="36.8585870" lon="-4.4686750">
        <ele>634.9</ele>
        <time>2018-03-28T09:48:36Z</time>
      </trkpt>
      <trkpt lat="36.8586320" lon="-4.4686680">
        <ele>635.9</ele>
        <time>2018-03-28T09:48:37Z</time>
      </trkpt>
      <trkpt lat="36.8586320" lon="-4.4686680">
        <ele>635.9</ele>
        <time>2018-03-28T09:48:38Z</time>
      </trkpt>
      <trkpt lat="36.8586800" lon="-4.4686600">
        <ele>635.9</ele>
        <time>2018-03-28T09:48:39Z</time>
      </trkpt>
      <trkpt lat="36.8586800" lon="-4.4686600">
        <ele>635.9</ele>
        <time>2018-03-28T09:48:40Z</time>
      </trkpt>
      <trkpt lat="36.8587280" lon="-4.4686450">
        <ele>635.9</ele>
        <time>2018-03-28T09:48:41Z</time>
      </trkpt>
      <trkpt lat="36.8587520" lon="-4.4686350">
        <ele>635.9</ele>
        <time>2018-03-28T09:48:42Z</time>
      </trkpt>
      <trkpt lat="36.8587720" lon="-4.4686180">
        <ele>635.9</ele>
        <time>2018-03-28T09:48:43Z</time>
      </trkpt>
      <trkpt lat="36.8587720" lon="-4.4686180">
        <ele>635.9</ele>
        <time>2018-03-28T09:48:44Z</time>
      </trkpt>
      <trkpt lat="36.8588030" lon="-4.4685720">
        <ele>636.9</ele>
        <time>2018-03-28T09:48:45Z</time>
      </trkpt>
      <trkpt lat="36.8588130" lon="-4.4685380">
        <ele>636.9</ele>
        <time>2018-03-28T09:48:46Z</time>
      </trkpt>
      <trkpt lat="36.8588130" lon="-4.4685380">
        <ele>636.9</ele>
        <time>2018-03-28T09:48:47Z</time>
      </trkpt>
      <trkpt lat="36.8588120" lon="-4.4684720">
        <ele>636.9</ele>
        <time>2018-03-28T09:48:48Z</time>
      </trkpt>
      <trkpt lat="36.8587980" lon="-4.4684420">
        <ele>637.9</ele>
        <time>2018-03-28T09:48:49Z</time>
      </trkpt>
      <trkpt lat="36.8587980" lon="-4.4684420">
        <ele>637.9</ele>
        <time>2018-03-28T09:48:50Z</time>
      </trkpt>
      <trkpt lat="36.8587620" lon="-4.4683920">
        <ele>637.9</ele>
        <time>2018-03-28T09:48:51Z</time>
      </trkpt>
      <trkpt lat="36.8587470" lon="-4.4683650">
        <ele>637.9</ele>
        <time>2018-03-28T09:48:52Z</time>
      </trkpt>
      <trkpt lat="36.8587470" lon="-4.4683650">
        <ele>637.9</ele>
        <time>2018-03-28T09:48:53Z</time>
      </trkpt>
      <trkpt lat="36.8587120" lon="-4.4683020">
        <ele>637.9</ele>
        <time>2018-03-28T09:48:54Z</time>
      </trkpt>
      <trkpt lat="36.8586950" lon="-4.4682700">
        <ele>638.9</ele>
        <time>2018-03-28T09:48:55Z</time>
      </trkpt>
      <trkpt lat="36.8586950" lon="-4.4682700">
        <ele>638.9</ele>
        <time>2018-03-28T09:48:56Z</time>
      </trkpt>
      <trkpt lat="36.8586650" lon="-4.4682100">
        <ele>638.9</ele>
        <time>2018-03-28T09:48:57Z</time>
      </trkpt>
      <trkpt lat="36.8586650" lon="-4.4682100">
        <ele>638.9</ele>
        <time>2018-03-28T09:48:58Z</time>
      </trkpt>
      <trkpt lat="36.8586480" lon="-4.4681470">
        <ele>639.9</ele>
        <time>2018-03-28T09:48:59Z</time>
      </trkpt>
      <trkpt lat="36.8586430" lon="-4.4681150">
        <ele>639.9</ele>
        <time>2018-03-28T09:49:00Z</time>
      </trkpt>
      <trkpt lat="36.8586400" lon="-4.4680830">
        <ele>639.9</ele>
        <time>2018-03-28T09:49:01Z</time>
      </trkpt>
      <trkpt lat="36.8586400" lon="-4.4680830">
        <ele>639.9</ele>
        <time>2018-03-28T09:49:02Z</time>
      </trkpt>
      <trkpt lat="36.8586350" lon="-4.4680080">
        <ele>639.9</ele>
        <time>2018-03-28T09:49:03Z</time>
      </trkpt>
      <trkpt lat="36.8586350" lon="-4.4680080">
        <ele>639.9</ele>
        <time>2018-03-28T09:49:04Z</time>
      </trkpt>
      <trkpt lat="36.8586470" lon="-4.4679320">
        <ele>640.9</ele>
        <time>2018-03-28T09:49:05Z</time>
      </trkpt>
      <trkpt lat="36.8586470" lon="-4.4679320">
        <ele>640.9</ele>
        <time>2018-03-28T09:49:06Z</time>
      </trkpt>
      <trkpt lat="36.8586780" lon="-4.4678650">
        <ele>640.9</ele>
        <time>2018-03-28T09:49:07Z</time>
      </trkpt>
      <trkpt lat="36.8586780" lon="-4.4678650">
        <ele>640.9</ele>
        <time>2018-03-28T09:49:08Z</time>
      </trkpt>
      <trkpt lat="36.8587220" lon="-4.4678120">
        <ele>641.9</ele>
        <time>2018-03-28T09:49:09Z</time>
      </trkpt>
      <trkpt lat="36.8587220" lon="-4.4678120">
        <ele>641.9</ele>
        <time>2018-03-28T09:49:10Z</time>
      </trkpt>
      <trkpt lat="36.8587630" lon="-4.4677620">
        <ele>641.9</ele>
        <time>2018-03-28T09:49:11Z</time>
      </trkpt>
      <trkpt lat="36.8587630" lon="-4.4677620">
        <ele>641.9</ele>
        <time>2018-03-28T09:49:12Z</time>
      </trkpt>
      <trkpt lat="36.8588070" lon="-4.4677120">
        <ele>642.9</ele>
        <time>2018-03-28T09:49:13Z</time>
      </trkpt>
      <trkpt lat="36.8588300" lon="-4.4676900">
        <ele>642.9</ele>
        <time>2018-03-28T09:49:14Z</time>
      </trkpt>
      <trkpt lat="36.8588520" lon="-4.4676670">
        <ele>642.9</ele>
        <time>2018-03-28T09:49:15Z</time>
      </trkpt>
      <trkpt lat="36.8588730" lon="-4.4676450">
        <ele>642.9</ele>
        <time>2018-03-28T09:49:16Z</time>
      </trkpt>
      <trkpt lat="36.8588730" lon="-4.4676450">
        <ele>642.9</ele>
        <time>2018-03-28T09:49:17Z</time>
      </trkpt>
      <trkpt lat="36.8589130" lon="-4.4676000">
        <ele>643.9</ele>
        <time>2018-03-28T09:49:18Z</time>
      </trkpt>
      <trkpt lat="36.8589330" lon="-4.4675780">
        <ele>643.9</ele>
        <time>2018-03-28T09:49:19Z</time>
      </trkpt>
      <trkpt lat="36.8589330" lon="-4.4675780">
        <ele>643.9</ele>
        <time>2018-03-28T09:49:20Z</time>
      </trkpt>
      <trkpt lat="36.8589680" lon="-4.4675330">
        <ele>643.9</ele>
        <time>2018-03-28T09:49:21Z</time>
      </trkpt>
      <trkpt lat="36.8589680" lon="-4.4675330">
        <ele>643.9</ele>
        <time>2018-03-28T09:49:22Z</time>
      </trkpt>
      <trkpt lat="36.8590070" lon="-4.4674930">
        <ele>643.9</ele>
        <time>2018-03-28T09:49:23Z</time>
      </trkpt>
      <trkpt lat="36.8590270" lon="-4.4674700">
        <ele>644.9</ele>
        <time>2018-03-28T09:49:24Z</time>
      </trkpt>
      <trkpt lat="36.8590470" lon="-4.4674480">
        <ele>644.9</ele>
        <time>2018-03-28T09:49:25Z</time>
      </trkpt>
      <trkpt lat="36.8590470" lon="-4.4674480">
        <ele>644.9</ele>
        <time>2018-03-28T09:49:26Z</time>
      </trkpt>
      <trkpt lat="36.8590820" lon="-4.4674080">
        <ele>645.9</ele>
        <time>2018-03-28T09:49:27Z</time>
      </trkpt>
      <trkpt lat="36.8590820" lon="-4.4674080">
        <ele>645.9</ele>
        <time>2018-03-28T09:49:28Z</time>
      </trkpt>
      <trkpt lat="36.8591200" lon="-4.4673780">
        <ele>646.9</ele>
        <time>2018-03-28T09:49:29Z</time>
      </trkpt>
      <trkpt lat="36.8591380" lon="-4.4673650">
        <ele>646.9</ele>
        <time>2018-03-28T09:49:30Z</time>
      </trkpt>
      <trkpt lat="36.8591570" lon="-4.4673520">
        <ele>646.9</ele>
        <time>2018-03-28T09:49:31Z</time>
      </trkpt>
      <trkpt lat="36.8591570" lon="-4.4673520">
        <ele>646.9</ele>
        <time>2018-03-28T09:49:32Z</time>
      </trkpt>
      <trkpt lat="36.8591920" lon="-4.4673250">
        <ele>646.9</ele>
        <time>2018-03-28T09:49:33Z</time>
      </trkpt>
      <trkpt lat="36.8591920" lon="-4.4673250">
        <ele>646.9</ele>
        <time>2018-03-28T09:49:34Z</time>
      </trkpt>
      <trkpt lat="36.8592280" lon="-4.4672920">
        <ele>648.9</ele>
        <time>2018-03-28T09:49:35Z</time>
      </trkpt>
      <trkpt lat="36.8592280" lon="-4.4672920">
        <ele>648.9</ele>
        <time>2018-03-28T09:49:36Z</time>
      </trkpt>
      <trkpt lat="36.8592670" lon="-4.4672570">
        <ele>648.9</ele>
        <time>2018-03-28T09:49:37Z</time>
      </trkpt>
      <trkpt lat="36.8592670" lon="-4.4672570">
        <ele>648.9</ele>
        <time>2018-03-28T09:49:38Z</time>
      </trkpt>
      <trkpt lat="36.8593030" lon="-4.4672170">
        <ele>648.9</ele>
        <time>2018-03-28T09:49:39Z</time>
      </trkpt>
      <trkpt lat="36.8593230" lon="-4.4671950">
        <ele>648.9</ele>
        <time>2018-03-28T09:49:40Z</time>
      </trkpt>
      <trkpt lat="36.8593230" lon="-4.4671950">
        <ele>648.9</ele>
        <time>2018-03-28T09:49:41Z</time>
      </trkpt>
      <trkpt lat="36.8593650" lon="-4.4671630">
        <ele>648.9</ele>
        <time>2018-03-28T09:49:42Z</time>
      </trkpt>
      <trkpt lat="36.8593850" lon="-4.4671470">
        <ele>649.9</ele>
        <time>2018-03-28T09:49:43Z</time>
      </trkpt>
      <trkpt lat="36.8593850" lon="-4.4671470">
        <ele>649.9</ele>
        <time>2018-03-28T09:49:44Z</time>
      </trkpt>
      <trkpt lat="36.8594270" lon="-4.4671150">
        <ele>649.9</ele>
        <time>2018-03-28T09:49:45Z</time>
      </trkpt>
      <trkpt lat="36.8594470" lon="-4.4670970">
        <ele>649.9</ele>
        <time>2018-03-28T09:49:46Z</time>
      </trkpt>
      <trkpt lat="36.8594470" lon="-4.4670970">
        <ele>650.9</ele>
        <time>2018-03-28T09:49:47Z</time>
      </trkpt>
      <trkpt lat="36.8594950" lon="-4.4670550">
        <ele>650.9</ele>
        <time>2018-03-28T09:49:48Z</time>
      </trkpt>
      <trkpt lat="36.8595050" lon="-4.4670470">
        <ele>650.9</ele>
        <time>2018-03-28T09:49:49Z</time>
      </trkpt>
      <trkpt lat="36.8595050" lon="-4.4670470">
        <ele>650.9</ele>
        <time>2018-03-28T09:49:50Z</time>
      </trkpt>
      <trkpt lat="36.8595470" lon="-4.4670220">
        <ele>650.9</ele>
        <time>2018-03-28T09:49:51Z</time>
      </trkpt>
      <trkpt lat="36.8595470" lon="-4.4670220">
        <ele>650.9</ele>
        <time>2018-03-28T09:49:52Z</time>
      </trkpt>
      <trkpt lat="36.8595830" lon="-4.4669950">
        <ele>651.9</ele>
        <time>2018-03-28T09:49:53Z</time>
      </trkpt>
      <trkpt lat="36.8595830" lon="-4.4669950">
        <ele>651.9</ele>
        <time>2018-03-28T09:49:54Z</time>
      </trkpt>
      <trkpt lat="36.8596230" lon="-4.4669700">
        <ele>651.9</ele>
        <time>2018-03-28T09:49:55Z</time>
      </trkpt>
      <trkpt lat="36.8596420" lon="-4.4669570">
        <ele>651.9</ele>
        <time>2018-03-28T09:49:56Z</time>
      </trkpt>
      <trkpt lat="36.8596600" lon="-4.4669430">
        <ele>651.9</ele>
        <time>2018-03-28T09:49:57Z</time>
      </trkpt>
      <trkpt lat="36.8596600" lon="-4.4669430">
        <ele>651.9</ele>
        <time>2018-03-28T09:49:58Z</time>
      </trkpt>
      <trkpt lat="36.8596970" lon="-4.4669050">
        <ele>651.9</ele>
        <time>2018-03-28T09:49:59Z</time>
      </trkpt>
      <trkpt lat="36.8597150" lon="-4.4668800">
        <ele>652.9</ele>
        <time>2018-03-28T09:50:00Z</time>
      </trkpt>
      <trkpt lat="36.8597150" lon="-4.4668800">
        <ele>652.9</ele>
        <time>2018-03-28T09:50:01Z</time>
      </trkpt>
      <trkpt lat="36.8597400" lon="-4.4668330">
        <ele>652.9</ele>
        <time>2018-03-28T09:50:02Z</time>
      </trkpt>
      <trkpt lat="36.8597500" lon="-4.4668050">
        <ele>652.9</ele>
        <time>2018-03-28T09:50:03Z</time>
      </trkpt>
      <trkpt lat="36.8597500" lon="-4.4668050">
        <ele>653.9</ele>
        <time>2018-03-28T09:50:04Z</time>
      </trkpt>
      <trkpt lat="36.8597620" lon="-4.4667450">
        <ele>653.9</ele>
        <time>2018-03-28T09:50:05Z</time>
      </trkpt>
      <trkpt lat="36.8597620" lon="-4.4667450">
        <ele>653.9</ele>
        <time>2018-03-28T09:50:06Z</time>
      </trkpt>
      <trkpt lat="36.8597530" lon="-4.4666900">
        <ele>653.9</ele>
        <time>2018-03-28T09:50:07Z</time>
      </trkpt>
      <trkpt lat="36.8597530" lon="-4.4666900">
        <ele>654.9</ele>
        <time>2018-03-28T09:50:08Z</time>
      </trkpt>
      <trkpt lat="36.8597470" lon="-4.4666350">
        <ele>654.9</ele>
        <time>2018-03-28T09:50:09Z</time>
      </trkpt>
      <trkpt lat="36.8597450" lon="-4.4666080">
        <ele>654.9</ele>
        <time>2018-03-28T09:50:10Z</time>
      </trkpt>
      <trkpt lat="36.8597450" lon="-4.4666080">
        <ele>654.9</ele>
        <time>2018-03-28T09:50:11Z</time>
      </trkpt>
      <trkpt lat="36.8597380" lon="-4.4665480">
        <ele>654.9</ele>
        <time>2018-03-28T09:50:12Z</time>
      </trkpt>
      <trkpt lat="36.8597350" lon="-4.4665170">
        <ele>654.9</ele>
        <time>2018-03-28T09:50:13Z</time>
      </trkpt>
      <trkpt lat="36.8597350" lon="-4.4665170">
        <ele>654.9</ele>
        <time>2018-03-28T09:50:14Z</time>
      </trkpt>
      <trkpt lat="36.8597230" lon="-4.4664470">
        <ele>654.9</ele>
        <time>2018-03-28T09:50:15Z</time>
      </trkpt>
      <trkpt lat="36.8597200" lon="-4.4664130">
        <ele>654.9</ele>
        <time>2018-03-28T09:50:16Z</time>
      </trkpt>
      <trkpt lat="36.8597200" lon="-4.4664130">
        <ele>655.9</ele>
        <time>2018-03-28T09:50:17Z</time>
      </trkpt>
      <trkpt lat="36.8597100" lon="-4.4663480">
        <ele>655.9</ele>
        <time>2018-03-28T09:50:18Z</time>
      </trkpt>
      <trkpt lat="36.8597050" lon="-4.4663170">
        <ele>655.9</ele>
        <time>2018-03-28T09:50:19Z</time>
      </trkpt>
      <trkpt lat="36.8597050" lon="-4.4663170">
        <ele>655.9</ele>
        <time>2018-03-28T09:50:20Z</time>
      </trkpt>
      <trkpt lat="36.8596930" lon="-4.4662520">
        <ele>655.9</ele>
        <time>2018-03-28T09:50:21Z</time>
      </trkpt>
      <trkpt lat="36.8596930" lon="-4.4662520">
        <ele>655.9</ele>
        <time>2018-03-28T09:50:22Z</time>
      </trkpt>
      <trkpt lat="36.8596800" lon="-4.4661850">
        <ele>655.9</ele>
        <time>2018-03-28T09:50:23Z</time>
      </trkpt>
      <trkpt lat="36.8596800" lon="-4.4661850">
        <ele>655.9</ele>
        <time>2018-03-28T09:50:24Z</time>
      </trkpt>
      <trkpt lat="36.8596720" lon="-4.4661200">
        <ele>655.9</ele>
        <time>2018-03-28T09:50:25Z</time>
      </trkpt>
      <trkpt lat="36.8596720" lon="-4.4661200">
        <ele>655.9</ele>
        <time>2018-03-28T09:50:26Z</time>
      </trkpt>
      <trkpt lat="36.8596630" lon="-4.4660580">
        <ele>655.9</ele>
        <time>2018-03-28T09:50:27Z</time>
      </trkpt>
      <trkpt lat="36.8596630" lon="-4.4660580">
        <ele>655.9</ele>
        <time>2018-03-28T09:50:28Z</time>
      </trkpt>
      <trkpt lat="36.8596550" lon="-4.4659920">
        <ele>657.9</ele>
        <time>2018-03-28T09:50:29Z</time>
      </trkpt>
      <trkpt lat="36.8596500" lon="-4.4659580">
        <ele>657.9</ele>
        <time>2018-03-28T09:50:30Z</time>
      </trkpt>
      <trkpt lat="36.8596470" lon="-4.4659280">
        <ele>657.9</ele>
        <time>2018-03-28T09:50:31Z</time>
      </trkpt>
      <trkpt lat="36.8596470" lon="-4.4659280">
        <ele>657.9</ele>
        <time>2018-03-28T09:50:32Z</time>
      </trkpt>
      <trkpt lat="36.8596430" lon="-4.4658680">
        <ele>657.9</ele>
        <time>2018-03-28T09:50:33Z</time>
      </trkpt>
      <trkpt lat="36.8596500" lon="-4.4658400">
        <ele>657.9</ele>
        <time>2018-03-28T09:50:34Z</time>
      </trkpt>
      <trkpt lat="36.8596570" lon="-4.4658100">
        <ele>657.9</ele>
        <time>2018-03-28T09:50:35Z</time>
      </trkpt>
      <trkpt lat="36.8596570" lon="-4.4658100">
        <ele>657.9</ele>
        <time>2018-03-28T09:50:36Z</time>
      </trkpt>
      <trkpt lat="36.8596820" lon="-4.4657500">
        <ele>657.9</ele>
        <time>2018-03-28T09:50:37Z</time>
      </trkpt>
      <trkpt lat="36.8596820" lon="-4.4657500">
        <ele>657.9</ele>
        <time>2018-03-28T09:50:38Z</time>
      </trkpt>
      <trkpt lat="36.8597120" lon="-4.4656950">
        <ele>658.9</ele>
        <time>2018-03-28T09:50:39Z</time>
      </trkpt>
      <trkpt lat="36.8597300" lon="-4.4656700">
        <ele>658.9</ele>
        <time>2018-03-28T09:50:40Z</time>
      </trkpt>
      <trkpt lat="36.8597300" lon="-4.4656700">
        <ele>658.9</ele>
        <time>2018-03-28T09:50:41Z</time>
      </trkpt>
      <trkpt lat="36.8597790" lon="-4.4656110">
        <ele>658.9</ele>
        <time>2018-03-28T09:50:42Z</time>
      </trkpt>
      <trkpt lat="36.8597900" lon="-4.4656030">
        <ele>658.9</ele>
        <time>2018-03-28T09:50:43Z</time>
      </trkpt>
      <trkpt lat="36.8597900" lon="-4.4656030">
        <ele>658.9</ele>
        <time>2018-03-28T09:50:44Z</time>
      </trkpt>
      <trkpt lat="36.8598400" lon="-4.4655770">
        <ele>659.9</ele>
        <time>2018-03-28T09:50:45Z</time>
      </trkpt>
      <trkpt lat="36.8598780" lon="-4.4655680">
        <ele>659.9</ele>
        <time>2018-03-28T09:50:46Z</time>
      </trkpt>
      <trkpt lat="36.8598900" lon="-4.4655650">
        <ele>659.9</ele>
        <time>2018-03-28T09:50:47Z</time>
      </trkpt>
      <trkpt lat="36.8599110" lon="-4.4655620">
        <ele>659.9</ele>
        <time>2018-03-28T09:50:48Z</time>
      </trkpt>
      <trkpt lat="36.8599320" lon="-4.4655580">
        <ele>659.9</ele>
        <time>2018-03-28T09:50:49Z</time>
      </trkpt>
      <trkpt lat="36.8599320" lon="-4.4655580">
        <ele>659.9</ele>
        <time>2018-03-28T09:50:50Z</time>
      </trkpt>
      <trkpt lat="36.8599800" lon="-4.4655630">
        <ele>660.9</ele>
        <time>2018-03-28T09:50:51Z</time>
      </trkpt>
      <trkpt lat="36.8600050" lon="-4.4655650">
        <ele>660.9</ele>
        <time>2018-03-28T09:50:52Z</time>
      </trkpt>
      <trkpt lat="36.8600050" lon="-4.4655650">
        <ele>660.9</ele>
        <time>2018-03-28T09:50:53Z</time>
      </trkpt>
      <trkpt lat="36.8600700" lon="-4.4655750">
        <ele>661.9</ele>
        <time>2018-03-28T09:50:54Z</time>
      </trkpt>
      <trkpt lat="36.8600820" lon="-4.4655780">
        <ele>661.9</ele>
        <time>2018-03-28T09:50:55Z</time>
      </trkpt>
      <trkpt lat="36.8600820" lon="-4.4655780">
        <ele>661.9</ele>
        <time>2018-03-28T09:50:56Z</time>
      </trkpt>
      <trkpt lat="36.8601350" lon="-4.4655930">
        <ele>661.9</ele>
        <time>2018-03-28T09:50:57Z</time>
      </trkpt>
      <trkpt lat="36.8601350" lon="-4.4655930">
        <ele>661.9</ele>
        <time>2018-03-28T09:50:58Z</time>
      </trkpt>
      <trkpt lat="36.8601900" lon="-4.4656120">
        <ele>661.9</ele>
        <time>2018-03-28T09:50:59Z</time>
      </trkpt>
      <trkpt lat="36.8602180" lon="-4.4656220">
        <ele>662.9</ele>
        <time>2018-03-28T09:51:00Z</time>
      </trkpt>
      <trkpt lat="36.8602470" lon="-4.4656320">
        <ele>662.9</ele>
        <time>2018-03-28T09:51:01Z</time>
      </trkpt>
      <trkpt lat="36.8602470" lon="-4.4656320">
        <ele>662.9</ele>
        <time>2018-03-28T09:51:02Z</time>
      </trkpt>
      <trkpt lat="36.8602980" lon="-4.4656480">
        <ele>662.9</ele>
        <time>2018-03-28T09:51:03Z</time>
      </trkpt>
      <trkpt lat="36.8602980" lon="-4.4656480">
        <ele>663.9</ele>
        <time>2018-03-28T09:51:04Z</time>
      </trkpt>
      <trkpt lat="36.8603500" lon="-4.4656630">
        <ele>663.9</ele>
        <time>2018-03-28T09:51:05Z</time>
      </trkpt>
      <trkpt lat="36.8603500" lon="-4.4656630">
        <ele>663.9</ele>
        <time>2018-03-28T09:51:06Z</time>
      </trkpt>
      <trkpt lat="36.8604020" lon="-4.4656750">
        <ele>663.9</ele>
        <time>2018-03-28T09:51:07Z</time>
      </trkpt>
      <trkpt lat="36.8604020" lon="-4.4656750">
        <ele>664.9</ele>
        <time>2018-03-28T09:51:08Z</time>
      </trkpt>
      <trkpt lat="36.8604520" lon="-4.4656630">
        <ele>664.9</ele>
        <time>2018-03-28T09:51:09Z</time>
      </trkpt>
      <trkpt lat="36.8604750" lon="-4.4656550">
        <ele>664.9</ele>
        <time>2018-03-28T09:51:10Z</time>
      </trkpt>
      <trkpt lat="36.8604750" lon="-4.4656550">
        <ele>664.9</ele>
        <time>2018-03-28T09:51:11Z</time>
      </trkpt>
      <trkpt lat="36.8605230" lon="-4.4656200">
        <ele>665.9</ele>
        <time>2018-03-28T09:51:12Z</time>
      </trkpt>
      <trkpt lat="36.8605230" lon="-4.4656200">
        <ele>665.9</ele>
        <time>2018-03-28T09:51:13Z</time>
      </trkpt>
      <trkpt lat="36.8605670" lon="-4.4655750">
        <ele>665.9</ele>
        <time>2018-03-28T09:51:14Z</time>
      </trkpt>
      <trkpt lat="36.8605670" lon="-4.4655750">
        <ele>665.9</ele>
        <time>2018-03-28T09:51:15Z</time>
      </trkpt>
      <trkpt lat="36.8606080" lon="-4.4655250">
        <ele>665.9</ele>
        <time>2018-03-28T09:51:16Z</time>
      </trkpt>
      <trkpt lat="36.8606080" lon="-4.4655250">
        <ele>665.9</ele>
        <time>2018-03-28T09:51:17Z</time>
      </trkpt>
      <trkpt lat="36.8606450" lon="-4.4654730">
        <ele>665.9</ele>
        <time>2018-03-28T09:51:18Z</time>
      </trkpt>
      <trkpt lat="36.8606450" lon="-4.4654730">
        <ele>665.9</ele>
        <time>2018-03-28T09:51:19Z</time>
      </trkpt>
      <trkpt lat="36.8606800" lon="-4.4654250">
        <ele>666.9</ele>
        <time>2018-03-28T09:51:20Z</time>
      </trkpt>
      <trkpt lat="36.8607000" lon="-4.4654000">
        <ele>666.9</ele>
        <time>2018-03-28T09:51:21Z</time>
      </trkpt>
      <trkpt lat="36.8607000" lon="-4.4654000">
        <ele>666.9</ele>
        <time>2018-03-28T09:51:22Z</time>
      </trkpt>
      <trkpt lat="36.8607420" lon="-4.4653500">
        <ele>667.9</ele>
        <time>2018-03-28T09:51:23Z</time>
      </trkpt>
      <trkpt lat="36.8607620" lon="-4.4653230">
        <ele>667.9</ele>
        <time>2018-03-28T09:51:24Z</time>
      </trkpt>
      <trkpt lat="36.8607620" lon="-4.4653230">
        <ele>667.9</ele>
        <time>2018-03-28T09:51:25Z</time>
      </trkpt>
      <trkpt lat="36.8608030" lon="-4.4652870">
        <ele>667.9</ele>
        <time>2018-03-28T09:51:26Z</time>
      </trkpt>
      <trkpt lat="36.8608030" lon="-4.4652870">
        <ele>667.9</ele>
        <time>2018-03-28T09:51:27Z</time>
      </trkpt>
      <trkpt lat="36.8608480" lon="-4.4652630">
        <ele>668.9</ele>
        <time>2018-03-28T09:51:28Z</time>
      </trkpt>
      <trkpt lat="36.8608480" lon="-4.4652630">
        <ele>668.9</ele>
        <time>2018-03-28T09:51:29Z</time>
      </trkpt>
      <trkpt lat="36.8609000" lon="-4.4652380">
        <ele>668.9</ele>
        <time>2018-03-28T09:51:30Z</time>
      </trkpt>
      <trkpt lat="36.8609230" lon="-4.4652250">
        <ele>668.9</ele>
        <time>2018-03-28T09:51:31Z</time>
      </trkpt>
      <trkpt lat="36.8609230" lon="-4.4652250">
        <ele>669.9</ele>
        <time>2018-03-28T09:51:32Z</time>
      </trkpt>
      <trkpt lat="36.8609700" lon="-4.4651970">
        <ele>669.9</ele>
        <time>2018-03-28T09:51:33Z</time>
      </trkpt>
      <trkpt lat="36.8609930" lon="-4.4651850">
        <ele>669.9</ele>
        <time>2018-03-28T09:51:34Z</time>
      </trkpt>
      <trkpt lat="36.8609930" lon="-4.4651850">
        <ele>669.9</ele>
        <time>2018-03-28T09:51:35Z</time>
      </trkpt>
      <trkpt lat="36.8610430" lon="-4.4651630">
        <ele>669.9</ele>
        <time>2018-03-28T09:51:36Z</time>
      </trkpt>
      <trkpt lat="36.8610430" lon="-4.4651630">
        <ele>669.9</ele>
        <time>2018-03-28T09:51:37Z</time>
      </trkpt>
      <trkpt lat="36.8610950" lon="-4.4651350">
        <ele>670.9</ele>
        <time>2018-03-28T09:51:38Z</time>
      </trkpt>
      <trkpt lat="36.8610950" lon="-4.4651350">
        <ele>670.9</ele>
        <time>2018-03-28T09:51:39Z</time>
      </trkpt>
      <trkpt lat="36.8611450" lon="-4.4650970">
        <ele>670.9</ele>
        <time>2018-03-28T09:51:40Z</time>
      </trkpt>
      <trkpt lat="36.8611450" lon="-4.4650970">
        <ele>670.9</ele>
        <time>2018-03-28T09:51:41Z</time>
      </trkpt>
      <trkpt lat="36.8611900" lon="-4.4650570">
        <ele>671.9</ele>
        <time>2018-03-28T09:51:42Z</time>
      </trkpt>
      <trkpt lat="36.8611900" lon="-4.4650570">
        <ele>671.9</ele>
        <time>2018-03-28T09:51:43Z</time>
      </trkpt>
      <trkpt lat="36.8612350" lon="-4.4650250">
        <ele>671.9</ele>
        <time>2018-03-28T09:51:44Z</time>
      </trkpt>
      <trkpt lat="36.8612350" lon="-4.4650250">
        <ele>671.9</ele>
        <time>2018-03-28T09:51:45Z</time>
      </trkpt>
      <trkpt lat="36.8612800" lon="-4.4650070">
        <ele>671.9</ele>
        <time>2018-03-28T09:51:46Z</time>
      </trkpt>
      <trkpt lat="36.8612800" lon="-4.4650070">
        <ele>672.9</ele>
        <time>2018-03-28T09:51:47Z</time>
      </trkpt>
      <trkpt lat="36.8613280" lon="-4.4649850">
        <ele>672.9</ele>
        <time>2018-03-28T09:51:48Z</time>
      </trkpt>
      <trkpt lat="36.8613280" lon="-4.4649850">
        <ele>672.9</ele>
        <time>2018-03-28T09:51:49Z</time>
      </trkpt>
      <trkpt lat="36.8613770" lon="-4.4649630">
        <ele>672.9</ele>
        <time>2018-03-28T09:51:50Z</time>
      </trkpt>
      <trkpt lat="36.8613980" lon="-4.4649530">
        <ele>672.9</ele>
        <time>2018-03-28T09:51:51Z</time>
      </trkpt>
      <trkpt lat="36.8614200" lon="-4.4649470">
        <ele>673.9</ele>
        <time>2018-03-28T09:51:52Z</time>
      </trkpt>
      <trkpt lat="36.8614200" lon="-4.4649470">
        <ele>673.9</ele>
        <time>2018-03-28T09:51:53Z</time>
      </trkpt>
      <trkpt lat="36.8614600" lon="-4.4649520">
        <ele>673.9</ele>
        <time>2018-03-28T09:51:54Z</time>
      </trkpt>
      <trkpt lat="36.8614830" lon="-4.4649580">
        <ele>673.9</ele>
        <time>2018-03-28T09:51:55Z</time>
      </trkpt>
      <trkpt lat="36.8614830" lon="-4.4649580">
        <ele>673.9</ele>
        <time>2018-03-28T09:51:56Z</time>
      </trkpt>
      <trkpt lat="36.8615330" lon="-4.4649700">
        <ele>674.9</ele>
        <time>2018-03-28T09:51:57Z</time>
      </trkpt>
      <trkpt lat="36.8615580" lon="-4.4649800">
        <ele>674.9</ele>
        <time>2018-03-28T09:51:58Z</time>
      </trkpt>
      <trkpt lat="36.8615580" lon="-4.4649800">
        <ele>674.9</ele>
        <time>2018-03-28T09:51:59Z</time>
      </trkpt>
      <trkpt lat="36.8616080" lon="-4.4650070">
        <ele>674.9</ele>
        <time>2018-03-28T09:52:00Z</time>
      </trkpt>
      <trkpt lat="36.8616080" lon="-4.4650070">
        <ele>674.9</ele>
        <time>2018-03-28T09:52:01Z</time>
      </trkpt>
      <trkpt lat="36.8616500" lon="-4.4650280">
        <ele>674.9</ele>
        <time>2018-03-28T09:52:02Z</time>
      </trkpt>
      <trkpt lat="36.8616500" lon="-4.4650280">
        <ele>674.9</ele>
        <time>2018-03-28T09:52:03Z</time>
      </trkpt>
      <trkpt lat="36.8616950" lon="-4.4650320">
        <ele>674.9</ele>
        <time>2018-03-28T09:52:04Z</time>
      </trkpt>
      <trkpt lat="36.8617180" lon="-4.4650280">
        <ele>674.9</ele>
        <time>2018-03-28T09:52:05Z</time>
      </trkpt>
      <trkpt lat="36.8617180" lon="-4.4650280">
        <ele>674.9</ele>
        <time>2018-03-28T09:52:06Z</time>
      </trkpt>
      <trkpt lat="36.8617630" lon="-4.4650130">
        <ele>675.9</ele>
        <time>2018-03-28T09:52:07Z</time>
      </trkpt>
      <trkpt lat="36.8617630" lon="-4.4650130">
        <ele>675.9</ele>
        <time>2018-03-28T09:52:08Z</time>
      </trkpt>
      <trkpt lat="36.8618080" lon="-4.4649920">
        <ele>675.9</ele>
        <time>2018-03-28T09:52:09Z</time>
      </trkpt>
      <trkpt lat="36.8618280" lon="-4.4649710">
        <ele>675.9</ele>
        <time>2018-03-28T09:52:10Z</time>
      </trkpt>
      <trkpt lat="36.8618480" lon="-4.4649500">
        <ele>676.9</ele>
        <time>2018-03-28T09:52:11Z</time>
      </trkpt>
      <trkpt lat="36.8618680" lon="-4.4649250">
        <ele>676.9</ele>
        <time>2018-03-28T09:52:12Z</time>
      </trkpt>
      <trkpt lat="36.8618880" lon="-4.4648980">
        <ele>676.9</ele>
        <time>2018-03-28T09:52:13Z</time>
      </trkpt>
      <trkpt lat="36.8618880" lon="-4.4648980">
        <ele>676.9</ele>
        <time>2018-03-28T09:52:14Z</time>
      </trkpt>
      <trkpt lat="36.8619300" lon="-4.4648470">
        <ele>677.9</ele>
        <time>2018-03-28T09:52:15Z</time>
      </trkpt>
      <trkpt lat="36.8619300" lon="-4.4648470">
        <ele>677.9</ele>
        <time>2018-03-28T09:52:16Z</time>
      </trkpt>
      <trkpt lat="36.8619820" lon="-4.4648030">
        <ele>677.9</ele>
        <time>2018-03-28T09:52:17Z</time>
      </trkpt>
      <trkpt lat="36.8619820" lon="-4.4648030">
        <ele>677.9</ele>
        <time>2018-03-28T09:52:18Z</time>
      </trkpt>
      <trkpt lat="36.8620230" lon="-4.4647750">
        <ele>678.9</ele>
        <time>2018-03-28T09:52:19Z</time>
      </trkpt>
      <trkpt lat="36.8620230" lon="-4.4647750">
        <ele>678.9</ele>
        <time>2018-03-28T09:52:20Z</time>
      </trkpt>
      <trkpt lat="36.8620650" lon="-4.4647530">
        <ele>678.9</ele>
        <time>2018-03-28T09:52:21Z</time>
      </trkpt>
      <trkpt lat="36.8620900" lon="-4.4647480">
        <ele>678.9</ele>
        <time>2018-03-28T09:52:22Z</time>
      </trkpt>
      <trkpt lat="36.8620900" lon="-4.4647480">
        <ele>679.9</ele>
        <time>2018-03-28T09:52:23Z</time>
      </trkpt>
      <trkpt lat="36.8621470" lon="-4.4647500">
        <ele>679.9</ele>
        <time>2018-03-28T09:52:24Z</time>
      </trkpt>
      <trkpt lat="36.8621470" lon="-4.4647500">
        <ele>679.9</ele>
        <time>2018-03-28T09:52:25Z</time>
      </trkpt>
      <trkpt lat="36.8622080" lon="-4.4647620">
        <ele>679.9</ele>
        <time>2018-03-28T09:52:26Z</time>
      </trkpt>
      <trkpt lat="36.8622080" lon="-4.4647620">
        <ele>679.9</ele>
        <time>2018-03-28T09:52:27Z</time>
      </trkpt>
      <trkpt lat="36.8622700" lon="-4.4647680">
        <ele>679.9</ele>
        <time>2018-03-28T09:52:28Z</time>
      </trkpt>
      <trkpt lat="36.8622700" lon="-4.4647680">
        <ele>679.9</ele>
        <time>2018-03-28T09:52:29Z</time>
      </trkpt>
      <trkpt lat="36.8623400" lon="-4.4647780">
        <ele>679.9</ele>
        <time>2018-03-28T09:52:30Z</time>
      </trkpt>
      <trkpt lat="36.8623400" lon="-4.4647780">
        <ele>679.9</ele>
        <time>2018-03-28T09:52:31Z</time>
      </trkpt>
      <trkpt lat="36.8624080" lon="-4.4647900">
        <ele>679.9</ele>
        <time>2018-03-28T09:52:32Z</time>
      </trkpt>
      <trkpt lat="36.8624080" lon="-4.4647900">
        <ele>679.9</ele>
        <time>2018-03-28T09:52:33Z</time>
      </trkpt>
      <trkpt lat="36.8624780" lon="-4.4648020">
        <ele>680.9</ele>
        <time>2018-03-28T09:52:34Z</time>
      </trkpt>
      <trkpt lat="36.8625150" lon="-4.4647980">
        <ele>680.9</ele>
        <time>2018-03-28T09:52:35Z</time>
      </trkpt>
      <trkpt lat="36.8625520" lon="-4.4647830">
        <ele>680.9</ele>
        <time>2018-03-28T09:52:36Z</time>
      </trkpt>
      <trkpt lat="36.8625800" lon="-4.4647570">
        <ele>680.9</ele>
        <time>2018-03-28T09:52:37Z</time>
      </trkpt>
      <trkpt lat="36.8626080" lon="-4.4647300">
        <ele>680.9</ele>
        <time>2018-03-28T09:52:38Z</time>
      </trkpt>
      <trkpt lat="36.8626080" lon="-4.4647300">
        <ele>680.9</ele>
        <time>2018-03-28T09:52:39Z</time>
      </trkpt>
      <trkpt lat="36.8626470" lon="-4.4646600">
        <ele>680.9</ele>
        <time>2018-03-28T09:52:40Z</time>
      </trkpt>
      <trkpt lat="36.8626620" lon="-4.4646220">
        <ele>680.9</ele>
        <time>2018-03-28T09:52:41Z</time>
      </trkpt>
      <trkpt lat="36.8626620" lon="-4.4646220">
        <ele>680.9</ele>
        <time>2018-03-28T09:52:42Z</time>
      </trkpt>
      <trkpt lat="36.8627050" lon="-4.4645580">
        <ele>680.9</ele>
        <time>2018-03-28T09:52:43Z</time>
      </trkpt>
      <trkpt lat="36.8627050" lon="-4.4645580">
        <ele>680.9</ele>
        <time>2018-03-28T09:52:44Z</time>
      </trkpt>
      <trkpt lat="36.8627580" lon="-4.4645050">
        <ele>680.9</ele>
        <time>2018-03-28T09:52:45Z</time>
      </trkpt>
      <trkpt lat="36.8627580" lon="-4.4645050">
        <ele>680.9</ele>
        <time>2018-03-28T09:52:46Z</time>
      </trkpt>
      <trkpt lat="36.8628220" lon="-4.4644630">
        <ele>680.9</ele>
        <time>2018-03-28T09:52:47Z</time>
      </trkpt>
      <trkpt lat="36.8628220" lon="-4.4644630">
        <ele>681.9</ele>
        <time>2018-03-28T09:52:48Z</time>
      </trkpt>
      <trkpt lat="36.8628850" lon="-4.4644280">
        <ele>681.9</ele>
        <time>2018-03-28T09:52:49Z</time>
      </trkpt>
      <trkpt lat="36.8628850" lon="-4.4644280">
        <ele>681.9</ele>
        <time>2018-03-28T09:52:50Z</time>
      </trkpt>
      <trkpt lat="36.8629430" lon="-4.4643820">
        <ele>681.9</ele>
        <time>2018-03-28T09:52:51Z</time>
      </trkpt>
      <trkpt lat="36.8629430" lon="-4.4643820">
        <ele>681.9</ele>
        <time>2018-03-28T09:52:52Z</time>
      </trkpt>
      <trkpt lat="36.8629930" lon="-4.4643270">
        <ele>682.9</ele>
        <time>2018-03-28T09:52:53Z</time>
      </trkpt>
      <trkpt lat="36.8629930" lon="-4.4643270">
        <ele>682.9</ele>
        <time>2018-03-28T09:52:54Z</time>
      </trkpt>
      <trkpt lat="36.8630370" lon="-4.4642650">
        <ele>682.9</ele>
        <time>2018-03-28T09:52:55Z</time>
      </trkpt>
      <trkpt lat="36.8630370" lon="-4.4642650">
        <ele>682.9</ele>
        <time>2018-03-28T09:52:56Z</time>
      </trkpt>
      <trkpt lat="36.8630770" lon="-4.4642020">
        <ele>682.9</ele>
        <time>2018-03-28T09:52:57Z</time>
      </trkpt>
      <trkpt lat="36.8631000" lon="-4.4641730">
        <ele>682.9</ele>
        <time>2018-03-28T09:52:58Z</time>
      </trkpt>
      <trkpt lat="36.8631000" lon="-4.4641730">
        <ele>683.9</ele>
        <time>2018-03-28T09:52:59Z</time>
      </trkpt>
      <trkpt lat="36.8631450" lon="-4.4641170">
        <ele>683.9</ele>
        <time>2018-03-28T09:53:00Z</time>
      </trkpt>
      <trkpt lat="36.8631680" lon="-4.4640880">
        <ele>683.9</ele>
        <time>2018-03-28T09:53:01Z</time>
      </trkpt>
      <trkpt lat="36.8631680" lon="-4.4640880">
        <ele>683.9</ele>
        <time>2018-03-28T09:53:02Z</time>
      </trkpt>
      <trkpt lat="36.8632150" lon="-4.4640330">
        <ele>684.9</ele>
        <time>2018-03-28T09:53:03Z</time>
      </trkpt>
      <trkpt lat="36.8632150" lon="-4.4640330">
        <ele>684.9</ele>
        <time>2018-03-28T09:53:04Z</time>
      </trkpt>
      <trkpt lat="36.8632650" lon="-4.4639820">
        <ele>684.9</ele>
        <time>2018-03-28T09:53:05Z</time>
      </trkpt>
      <trkpt lat="36.8632650" lon="-4.4639820">
        <ele>684.9</ele>
        <time>2018-03-28T09:53:06Z</time>
      </trkpt>
      <trkpt lat="36.8633130" lon="-4.4639320">
        <ele>684.9</ele>
        <time>2018-03-28T09:53:07Z</time>
      </trkpt>
      <trkpt lat="36.8633130" lon="-4.4639320">
        <ele>684.9</ele>
        <time>2018-03-28T09:53:08Z</time>
      </trkpt>
      <trkpt lat="36.8633620" lon="-4.4638850">
        <ele>685.9</ele>
        <time>2018-03-28T09:53:09Z</time>
      </trkpt>
      <trkpt lat="36.8633880" lon="-4.4638620">
        <ele>685.9</ele>
        <time>2018-03-28T09:53:10Z</time>
      </trkpt>
      <trkpt lat="36.8634130" lon="-4.4638350">
        <ele>685.9</ele>
        <time>2018-03-28T09:53:11Z</time>
      </trkpt>
      <trkpt lat="36.8634370" lon="-4.4638080">
        <ele>685.9</ele>
        <time>2018-03-28T09:53:12Z</time>
      </trkpt>
      <trkpt lat="36.8634600" lon="-4.4637820">
        <ele>685.9</ele>
        <time>2018-03-28T09:53:13Z</time>
      </trkpt>
      <trkpt lat="36.8634600" lon="-4.4637820">
        <ele>685.9</ele>
        <time>2018-03-28T09:53:14Z</time>
      </trkpt>
      <trkpt lat="36.8635070" lon="-4.4637300">
        <ele>686.9</ele>
        <time>2018-03-28T09:53:15Z</time>
      </trkpt>
      <trkpt lat="36.8635070" lon="-4.4637300">
        <ele>686.9</ele>
        <time>2018-03-28T09:53:16Z</time>
      </trkpt>
      <trkpt lat="36.8635550" lon="-4.4636780">
        <ele>686.9</ele>
        <time>2018-03-28T09:53:17Z</time>
      </trkpt>
      <trkpt lat="36.8635550" lon="-4.4636780">
        <ele>686.9</ele>
        <time>2018-03-28T09:53:18Z</time>
      </trkpt>
      <trkpt lat="36.8636070" lon="-4.4636280">
        <ele>686.9</ele>
        <time>2018-03-28T09:53:19Z</time>
      </trkpt>
      <trkpt lat="36.8636070" lon="-4.4636280">
        <ele>686.9</ele>
        <time>2018-03-28T09:53:20Z</time>
      </trkpt>
      <trkpt lat="36.8636680" lon="-4.4635930">
        <ele>686.9</ele>
        <time>2018-03-28T09:53:21Z</time>
      </trkpt>
      <trkpt lat="36.8636680" lon="-4.4635930">
        <ele>686.9</ele>
        <time>2018-03-28T09:53:22Z</time>
      </trkpt>
      <trkpt lat="36.8637420" lon="-4.4635730">
        <ele>686.9</ele>
        <time>2018-03-28T09:53:23Z</time>
      </trkpt>
      <trkpt lat="36.8637420" lon="-4.4635730">
        <ele>686.9</ele>
        <time>2018-03-28T09:53:24Z</time>
      </trkpt>
      <trkpt lat="36.8638230" lon="-4.4635830">
        <ele>686.9</ele>
        <time>2018-03-28T09:53:25Z</time>
      </trkpt>
      <trkpt lat="36.8638230" lon="-4.4635830">
        <ele>686.9</ele>
        <time>2018-03-28T09:53:26Z</time>
      </trkpt>
      <trkpt lat="36.8639150" lon="-4.4636070">
        <ele>686.9</ele>
        <time>2018-03-28T09:53:27Z</time>
      </trkpt>
      <trkpt lat="36.8639150" lon="-4.4636070">
        <ele>686.9</ele>
        <time>2018-03-28T09:53:28Z</time>
      </trkpt>
      <trkpt lat="36.8640170" lon="-4.4636370">
        <ele>686.9</ele>
        <time>2018-03-28T09:53:29Z</time>
      </trkpt>
      <trkpt lat="36.8640170" lon="-4.4636370">
        <ele>685.9</ele>
        <time>2018-03-28T09:53:30Z</time>
      </trkpt>
      <trkpt lat="36.8641600" lon="-4.4636700">
        <ele>685.9</ele>
        <time>2018-03-28T09:53:31Z</time>
      </trkpt>
      <trkpt lat="36.8641920" lon="-4.4636780">
        <ele>685.9</ele>
        <time>2018-03-28T09:53:32Z</time>
      </trkpt>
      <trkpt lat="36.8641920" lon="-4.4636780">
        <ele>685.9</ele>
        <time>2018-03-28T09:53:33Z</time>
      </trkpt>
      <trkpt lat="36.8643320" lon="-4.4637250">
        <ele>684.9</ele>
        <time>2018-03-28T09:53:34Z</time>
      </trkpt>
      <trkpt lat="36.8644100" lon="-4.4637470">
        <ele>684.9</ele>
        <time>2018-03-28T09:53:35Z</time>
      </trkpt>
      <trkpt lat="36.8644500" lon="-4.4637570">
        <ele>683.9</ele>
        <time>2018-03-28T09:53:36Z</time>
      </trkpt>
      <trkpt lat="36.8644900" lon="-4.4637670">
        <ele>683.9</ele>
        <time>2018-03-28T09:53:37Z</time>
      </trkpt>
      <trkpt lat="36.8645700" lon="-4.4637880">
        <ele>682.9</ele>
        <time>2018-03-28T09:53:38Z</time>
      </trkpt>
      <trkpt lat="36.8647530" lon="-4.4638350">
        <ele>682.9</ele>
        <time>2018-03-28T09:53:39Z</time>
      </trkpt>
      <trkpt lat="36.8647530" lon="-4.4638350">
        <ele>681.9</ele>
        <time>2018-03-28T09:53:40Z</time>
      </trkpt>
      <trkpt lat="36.8649220" lon="-4.4639150">
        <ele>681.9</ele>
        <time>2018-03-28T09:53:41Z</time>
      </trkpt>
      <trkpt lat="36.8650000" lon="-4.4639720">
        <ele>680.9</ele>
        <time>2018-03-28T09:53:42Z</time>
      </trkpt>
      <trkpt lat="36.8650650" lon="-4.4640320">
        <ele>680.9</ele>
        <time>2018-03-28T09:53:43Z</time>
      </trkpt>
      <trkpt lat="36.8651230" lon="-4.4640750">
        <ele>679.9</ele>
        <time>2018-03-28T09:53:44Z</time>
      </trkpt>
      <trkpt lat="36.8651230" lon="-4.4640750">
        <ele>679.9</ele>
        <time>2018-03-28T09:53:45Z</time>
      </trkpt>
      <trkpt lat="36.8652520" lon="-4.4640880">
        <ele>677.9</ele>
        <time>2018-03-28T09:53:46Z</time>
      </trkpt>
      <trkpt lat="36.8653150" lon="-4.4640520">
        <ele>677.9</ele>
        <time>2018-03-28T09:53:47Z</time>
      </trkpt>
      <trkpt lat="36.8653150" lon="-4.4640520">
        <ele>677.9</ele>
        <time>2018-03-28T09:53:48Z</time>
      </trkpt>
      <trkpt lat="36.8654380" lon="-4.4639470">
        <ele>676.9</ele>
        <time>2018-03-28T09:53:49Z</time>
      </trkpt>
      <trkpt lat="36.8654380" lon="-4.4639470">
        <ele>676.9</ele>
        <time>2018-03-28T09:53:50Z</time>
      </trkpt>
      <trkpt lat="36.8655920" lon="-4.4638880">
        <ele>675.9</ele>
        <time>2018-03-28T09:53:51Z</time>
      </trkpt>
      <trkpt lat="36.8655920" lon="-4.4638880">
        <ele>675.9</ele>
        <time>2018-03-28T09:53:52Z</time>
      </trkpt>
      <trkpt lat="36.8657620" lon="-4.4639130">
        <ele>674.9</ele>
        <time>2018-03-28T09:53:53Z</time>
      </trkpt>
      <trkpt lat="36.8657620" lon="-4.4639130">
        <ele>674.9</ele>
        <time>2018-03-28T09:53:54Z</time>
      </trkpt>
      <trkpt lat="36.8659100" lon="-4.4640400">
        <ele>674.9</ele>
        <time>2018-03-28T09:53:55Z</time>
      </trkpt>
      <trkpt lat="36.8659700" lon="-4.4641280">
        <ele>674.9</ele>
        <time>2018-03-28T09:53:56Z</time>
      </trkpt>
      <trkpt lat="36.8659700" lon="-4.4641280">
        <ele>672.9</ele>
        <time>2018-03-28T09:53:57Z</time>
      </trkpt>
      <trkpt lat="36.8660900" lon="-4.4643020">
        <ele>672.9</ele>
        <time>2018-03-28T09:53:58Z</time>
      </trkpt>
      <trkpt lat="36.8661620" lon="-4.4643650">
        <ele>671.9</ele>
        <time>2018-03-28T09:53:59Z</time>
      </trkpt>
      <trkpt lat="36.8661620" lon="-4.4643650">
        <ele>671.9</ele>
        <time>2018-03-28T09:54:00Z</time>
      </trkpt>
      <trkpt lat="36.8663200" lon="-4.4643830">
        <ele>671.9</ele>
        <time>2018-03-28T09:54:01Z</time>
      </trkpt>
      <trkpt lat="36.8663200" lon="-4.4643830">
        <ele>671.9</ele>
        <time>2018-03-28T09:54:02Z</time>
      </trkpt>
      <trkpt lat="36.8664520" lon="-4.4642650">
        <ele>671.9</ele>
        <time>2018-03-28T09:54:03Z</time>
      </trkpt>
      <trkpt lat="36.8664520" lon="-4.4642650">
        <ele>671.9</ele>
        <time>2018-03-28T09:54:04Z</time>
      </trkpt>
      <trkpt lat="36.8666070" lon="-4.4641220">
        <ele>669.9</ele>
        <time>2018-03-28T09:54:05Z</time>
      </trkpt>
      <trkpt lat="36.8666330" lon="-4.4641090">
        <ele>669.9</ele>
        <time>2018-03-28T09:54:06Z</time>
      </trkpt>
      <trkpt lat="36.8666580" lon="-4.4640960">
        <ele>668.9</ele>
        <time>2018-03-28T09:54:07Z</time>
      </trkpt>
      <trkpt lat="36.8667330" lon="-4.4640570">
        <ele>668.9</ele>
        <time>2018-03-28T09:54:08Z</time>
      </trkpt>
      <trkpt lat="36.8669020" lon="-4.4640280">
        <ele>667.9</ele>
        <time>2018-03-28T09:54:09Z</time>
      </trkpt>
      <trkpt lat="36.8669020" lon="-4.4640280">
        <ele>667.9</ele>
        <time>2018-03-28T09:54:10Z</time>
      </trkpt>
      <trkpt lat="36.8670750" lon="-4.4640180">
        <ele>667.9</ele>
        <time>2018-03-28T09:54:11Z</time>
      </trkpt>
      <trkpt lat="36.8670750" lon="-4.4640180">
        <ele>667.9</ele>
        <time>2018-03-28T09:54:12Z</time>
      </trkpt>
      <trkpt lat="36.8672580" lon="-4.4640100">
        <ele>667.9</ele>
        <time>2018-03-28T09:54:13Z</time>
      </trkpt>
      <trkpt lat="36.8673520" lon="-4.4640050">
        <ele>667.9</ele>
        <time>2018-03-28T09:54:14Z</time>
      </trkpt>
      <trkpt lat="36.8673520" lon="-4.4640050">
        <ele>666.9</ele>
        <time>2018-03-28T09:54:15Z</time>
      </trkpt>
      <trkpt lat="36.8675480" lon="-4.4640000">
        <ele>665.9</ele>
        <time>2018-03-28T09:54:16Z</time>
      </trkpt>
      <trkpt lat="36.8676480" lon="-4.4640000">
        <ele>665.9</ele>
        <time>2018-03-28T09:54:17Z</time>
      </trkpt>
      <trkpt lat="36.8676480" lon="-4.4640000">
        <ele>665.9</ele>
        <time>2018-03-28T09:54:18Z</time>
      </trkpt>
      <trkpt lat="36.8678450" lon="-4.4640020">
        <ele>665.9</ele>
        <time>2018-03-28T09:54:19Z</time>
      </trkpt>
      <trkpt lat="36.8678910" lon="-4.4640070">
        <ele>664.9</ele>
        <time>2018-03-28T09:54:20Z</time>
      </trkpt>
      <trkpt lat="36.8679360" lon="-4.4640120">
        <ele>664.9</ele>
        <time>2018-03-28T09:54:21Z</time>
      </trkpt>
      <trkpt lat="36.8680270" lon="-4.4640230">
        <ele>664.9</ele>
        <time>2018-03-28T09:54:22Z</time>
      </trkpt>
      <trkpt lat="36.8682120" lon="-4.4640600">
        <ele>664.9</ele>
        <time>2018-03-28T09:54:23Z</time>
      </trkpt>
      <trkpt lat="36.8683070" lon="-4.4640730">
        <ele>663.9</ele>
        <time>2018-03-28T09:54:24Z</time>
      </trkpt>
      <trkpt lat="36.8684020" lon="-4.4640730">
        <ele>663.9</ele>
        <time>2018-03-28T09:54:25Z</time>
      </trkpt>
      <trkpt lat="36.8684020" lon="-4.4640730">
        <ele>663.9</ele>
        <time>2018-03-28T09:54:26Z</time>
      </trkpt>
      <trkpt lat="36.8685830" lon="-4.4640170">
        <ele>663.9</ele>
        <time>2018-03-28T09:54:27Z</time>
      </trkpt>
      <trkpt lat="36.8686630" lon="-4.4639680">
        <ele>663.9</ele>
        <time>2018-03-28T09:54:28Z</time>
      </trkpt>
      <trkpt lat="36.8686630" lon="-4.4639680">
        <ele>663.9</ele>
        <time>2018-03-28T09:54:29Z</time>
      </trkpt>
      <trkpt lat="36.8688230" lon="-4.4639020">
        <ele>663.9</ele>
        <time>2018-03-28T09:54:30Z</time>
      </trkpt>
      <trkpt lat="36.8688230" lon="-4.4639020">
        <ele>663.9</ele>
        <time>2018-03-28T09:54:31Z</time>
      </trkpt>
      <trkpt lat="36.8690250" lon="-4.4639100">
        <ele>663.9</ele>
        <time>2018-03-28T09:54:32Z</time>
      </trkpt>
      <trkpt lat="36.8690640" lon="-4.4639190">
        <ele>663.9</ele>
        <time>2018-03-28T09:54:33Z</time>
      </trkpt>
      <trkpt lat="36.8691430" lon="-4.4639370">
        <ele>663.9</ele>
        <time>2018-03-28T09:54:34Z</time>
      </trkpt>
      <trkpt lat="36.8691430" lon="-4.4639370">
        <ele>663.9</ele>
        <time>2018-03-28T09:54:35Z</time>
      </trkpt>
      <trkpt lat="36.8693000" lon="-4.4639270">
        <ele>663.9</ele>
        <time>2018-03-28T09:54:36Z</time>
      </trkpt>
      <trkpt lat="36.8693770" lon="-4.4638980">
        <ele>662.9</ele>
        <time>2018-03-28T09:54:37Z</time>
      </trkpt>
      <trkpt lat="36.8693770" lon="-4.4638980">
        <ele>662.9</ele>
        <time>2018-03-28T09:54:38Z</time>
      </trkpt>
      <trkpt lat="36.8695270" lon="-4.4638280">
        <ele>662.9</ele>
        <time>2018-03-28T09:54:39Z</time>
      </trkpt>
      <trkpt lat="36.8695760" lon="-4.4637940">
        <ele>662.9</ele>
        <time>2018-03-28T09:54:40Z</time>
      </trkpt>
      <trkpt lat="36.8696250" lon="-4.4637600">
        <ele>662.9</ele>
        <time>2018-03-28T09:54:41Z</time>
      </trkpt>
      <trkpt lat="36.8697230" lon="-4.4636920">
        <ele>662.9</ele>
        <time>2018-03-28T09:54:42Z</time>
      </trkpt>
      <trkpt lat="36.8697650" lon="-4.4636230">
        <ele>662.9</ele>
        <time>2018-03-28T09:54:43Z</time>
      </trkpt>
      <trkpt lat="36.8697650" lon="-4.4636230">
        <ele>663.9</ele>
        <time>2018-03-28T09:54:44Z</time>
      </trkpt>
      <trkpt lat="36.8698220" lon="-4.4634670">
        <ele>663.9</ele>
        <time>2018-03-28T09:54:45Z</time>
      </trkpt>
      <trkpt lat="36.8698220" lon="-4.4634670">
        <ele>663.9</ele>
        <time>2018-03-28T09:54:46Z</time>
      </trkpt>
      <trkpt lat="36.8698730" lon="-4.4632980">
        <ele>663.9</ele>
        <time>2018-03-28T09:54:47Z</time>
      </trkpt>
      <trkpt lat="36.8698780" lon="-4.4632800">
        <ele>664.9</ele>
        <time>2018-03-28T09:54:48Z</time>
      </trkpt>
      <trkpt lat="36.8698880" lon="-4.4632450">
        <ele>664.9</ele>
        <time>2018-03-28T09:54:49Z</time>
      </trkpt>
      <trkpt lat="36.8699350" lon="-4.4631150">
        <ele>664.9</ele>
        <time>2018-03-28T09:54:50Z</time>
      </trkpt>
      <trkpt lat="36.8699650" lon="-4.4630630">
        <ele>664.9</ele>
        <time>2018-03-28T09:54:51Z</time>
      </trkpt>
      <trkpt lat="36.8699970" lon="-4.4630150">
        <ele>665.9</ele>
        <time>2018-03-28T09:54:52Z</time>
      </trkpt>
      <trkpt lat="36.8699970" lon="-4.4630150">
        <ele>665.9</ele>
        <time>2018-03-28T09:54:53Z</time>
      </trkpt>
      <trkpt lat="36.8700680" lon="-4.4629320">
        <ele>665.9</ele>
        <time>2018-03-28T09:54:54Z</time>
      </trkpt>
      <trkpt lat="36.8700680" lon="-4.4629320">
        <ele>665.9</ele>
        <time>2018-03-28T09:54:55Z</time>
      </trkpt>
      <trkpt lat="36.8701430" lon="-4.4628600">
        <ele>666.9</ele>
        <time>2018-03-28T09:54:56Z</time>
      </trkpt>
      <trkpt lat="36.8701430" lon="-4.4628600">
        <ele>666.9</ele>
        <time>2018-03-28T09:54:57Z</time>
      </trkpt>
      <trkpt lat="36.8702220" lon="-4.4627930">
        <ele>666.9</ele>
        <time>2018-03-28T09:54:58Z</time>
      </trkpt>
      <trkpt lat="36.8702630" lon="-4.4627580">
        <ele>666.9</ele>
        <time>2018-03-28T09:54:59Z</time>
      </trkpt>
      <trkpt lat="36.8702630" lon="-4.4627580">
        <ele>667.9</ele>
        <time>2018-03-28T09:55:00Z</time>
      </trkpt>
      <trkpt lat="36.8703430" lon="-4.4626880">
        <ele>667.9</ele>
        <time>2018-03-28T09:55:01Z</time>
      </trkpt>
      <trkpt lat="36.8703430" lon="-4.4626880">
        <ele>667.9</ele>
        <time>2018-03-28T09:55:02Z</time>
      </trkpt>
      <trkpt lat="36.8704170" lon="-4.4626250">
        <ele>667.9</ele>
        <time>2018-03-28T09:55:03Z</time>
      </trkpt>
      <trkpt lat="36.8704570" lon="-4.4625920">
        <ele>668.9</ele>
        <time>2018-03-28T09:55:04Z</time>
      </trkpt>
      <trkpt lat="36.8704570" lon="-4.4625920">
        <ele>668.9</ele>
        <time>2018-03-28T09:55:05Z</time>
      </trkpt>
      <trkpt lat="36.8705380" lon="-4.4625200">
        <ele>668.9</ele>
        <time>2018-03-28T09:55:06Z</time>
      </trkpt>
      <trkpt lat="36.8705800" lon="-4.4624850">
        <ele>668.9</ele>
        <time>2018-03-28T09:55:07Z</time>
      </trkpt>
      <trkpt lat="36.8705800" lon="-4.4624850">
        <ele>668.9</ele>
        <time>2018-03-28T09:55:08Z</time>
      </trkpt>
      <trkpt lat="36.8706680" lon="-4.4624180">
        <ele>668.9</ele>
        <time>2018-03-28T09:55:09Z</time>
      </trkpt>
      <trkpt lat="36.8706680" lon="-4.4624180">
        <ele>668.9</ele>
        <time>2018-03-28T09:55:10Z</time>
      </trkpt>
      <trkpt lat="36.8707680" lon="-4.4623720">
        <ele>668.9</ele>
        <time>2018-03-28T09:55:11Z</time>
      </trkpt>
      <trkpt lat="36.8708200" lon="-4.4623550">
        <ele>668.9</ele>
        <time>2018-03-28T09:55:12Z</time>
      </trkpt>
      <trkpt lat="36.8708750" lon="-4.4623430">
        <ele>669.9</ele>
        <time>2018-03-28T09:55:13Z</time>
      </trkpt>
      <trkpt lat="36.8708750" lon="-4.4623430">
        <ele>669.9</ele>
        <time>2018-03-28T09:55:14Z</time>
      </trkpt>
      <trkpt lat="36.8709880" lon="-4.4623170">
        <ele>669.9</ele>
        <time>2018-03-28T09:55:15Z</time>
      </trkpt>
      <trkpt lat="36.8709880" lon="-4.4623170">
        <ele>669.9</ele>
        <time>2018-03-28T09:55:16Z</time>
      </trkpt>
      <trkpt lat="36.8711030" lon="-4.4622880">
        <ele>669.9</ele>
        <time>2018-03-28T09:55:17Z</time>
      </trkpt>
      <trkpt lat="36.8711030" lon="-4.4622880">
        <ele>669.9</ele>
        <time>2018-03-28T09:55:18Z</time>
      </trkpt>
      <trkpt lat="36.8712200" lon="-4.4622580">
        <ele>669.9</ele>
        <time>2018-03-28T09:55:19Z</time>
      </trkpt>
      <trkpt lat="36.8712200" lon="-4.4622580">
        <ele>669.9</ele>
        <time>2018-03-28T09:55:20Z</time>
      </trkpt>
      <trkpt lat="36.8713380" lon="-4.4622330">
        <ele>669.9</ele>
        <time>2018-03-28T09:55:21Z</time>
      </trkpt>
      <trkpt lat="36.8713980" lon="-4.4622220">
        <ele>669.9</ele>
        <time>2018-03-28T09:55:22Z</time>
      </trkpt>
      <trkpt lat="36.8713980" lon="-4.4622220">
        <ele>669.9</ele>
        <time>2018-03-28T09:55:23Z</time>
      </trkpt>
      <trkpt lat="36.8715170" lon="-4.4621930">
        <ele>669.9</ele>
        <time>2018-03-28T09:55:24Z</time>
      </trkpt>
      <trkpt lat="36.8715770" lon="-4.4621830">
        <ele>669.9</ele>
        <time>2018-03-28T09:55:25Z</time>
      </trkpt>
      <trkpt lat="36.8716350" lon="-4.4621680">
        <ele>669.9</ele>
        <time>2018-03-28T09:55:26Z</time>
      </trkpt>
      <trkpt lat="36.8716350" lon="-4.4621680">
        <ele>669.9</ele>
        <time>2018-03-28T09:55:27Z</time>
      </trkpt>
      <trkpt lat="36.8717500" lon="-4.4621400">
        <ele>669.9</ele>
        <time>2018-03-28T09:55:28Z</time>
      </trkpt>
      <trkpt lat="36.8718070" lon="-4.4621250">
        <ele>668.9</ele>
        <time>2018-03-28T09:55:29Z</time>
      </trkpt>
      <trkpt lat="36.8718070" lon="-4.4621250">
        <ele>668.9</ele>
        <time>2018-03-28T09:55:30Z</time>
      </trkpt>
      <trkpt lat="36.8719250" lon="-4.4620980">
        <ele>668.9</ele>
        <time>2018-03-28T09:55:31Z</time>
      </trkpt>
      <trkpt lat="36.8719250" lon="-4.4620980">
        <ele>668.9</ele>
        <time>2018-03-28T09:55:32Z</time>
      </trkpt>
      <trkpt lat="36.8720470" lon="-4.4620670">
        <ele>668.9</ele>
        <time>2018-03-28T09:55:33Z</time>
      </trkpt>
      <trkpt lat="36.8720470" lon="-4.4620670">
        <ele>668.9</ele>
        <time>2018-03-28T09:55:34Z</time>
      </trkpt>
      <trkpt lat="36.8721700" lon="-4.4620230">
        <ele>668.9</ele>
        <time>2018-03-28T09:55:35Z</time>
      </trkpt>
      <trkpt lat="36.8721700" lon="-4.4620230">
        <ele>668.9</ele>
        <time>2018-03-28T09:55:36Z</time>
      </trkpt>
      <trkpt lat="36.8722850" lon="-4.4619430">
        <ele>668.9</ele>
        <time>2018-03-28T09:55:37Z</time>
      </trkpt>
      <trkpt lat="36.8722850" lon="-4.4619430">
        <ele>668.9</ele>
        <time>2018-03-28T09:55:38Z</time>
      </trkpt>
      <trkpt lat="36.8723900" lon="-4.4618480">
        <ele>668.9</ele>
        <time>2018-03-28T09:55:39Z</time>
      </trkpt>
      <trkpt lat="36.8724760" lon="-4.4618150">
        <ele>668.9</ele>
        <time>2018-03-28T09:55:40Z</time>
      </trkpt>
      <trkpt lat="36.8725040" lon="-4.4618110">
        <ele>668.9</ele>
        <time>2018-03-28T09:55:41Z</time>
      </trkpt>
      <trkpt lat="36.8725600" lon="-4.4618030">
        <ele>668.9</ele>
        <time>2018-03-28T09:55:42Z</time>
      </trkpt>
      <trkpt lat="36.8726230" lon="-4.4618150">
        <ele>668.9</ele>
        <time>2018-03-28T09:55:43Z</time>
      </trkpt>
      <trkpt lat="36.8726230" lon="-4.4618150">
        <ele>668.9</ele>
        <time>2018-03-28T09:55:44Z</time>
      </trkpt>
      <trkpt lat="36.8727570" lon="-4.4618530">
        <ele>668.9</ele>
        <time>2018-03-28T09:55:45Z</time>
      </trkpt>
      <trkpt lat="36.8727570" lon="-4.4618530">
        <ele>668.9</ele>
        <time>2018-03-28T09:55:46Z</time>
      </trkpt>
      <trkpt lat="36.8728970" lon="-4.4618830">
        <ele>668.9</ele>
        <time>2018-03-28T09:55:47Z</time>
      </trkpt>
      <trkpt lat="36.8728970" lon="-4.4618830">
        <ele>668.9</ele>
        <time>2018-03-28T09:55:48Z</time>
      </trkpt>
      <trkpt lat="36.8730330" lon="-4.4618930">
        <ele>668.9</ele>
        <time>2018-03-28T09:55:49Z</time>
      </trkpt>
      <trkpt lat="36.8730330" lon="-4.4618930">
        <ele>668.9</ele>
        <time>2018-03-28T09:55:50Z</time>
      </trkpt>
      <trkpt lat="36.8731700" lon="-4.4618820">
        <ele>668.9</ele>
        <time>2018-03-28T09:55:51Z</time>
      </trkpt>
      <trkpt lat="36.8732400" lon="-4.4618720">
        <ele>668.9</ele>
        <time>2018-03-28T09:55:52Z</time>
      </trkpt>
      <trkpt lat="36.8732760" lon="-4.4618660">
        <ele>668.9</ele>
        <time>2018-03-28T09:55:53Z</time>
      </trkpt>
      <trkpt lat="36.8733120" lon="-4.4618600">
        <ele>668.9</ele>
        <time>2018-03-28T09:55:54Z</time>
      </trkpt>
      <trkpt lat="36.8734180" lon="-4.4618410">
        <ele>668.9</ele>
        <time>2018-03-28T09:55:55Z</time>
      </trkpt>
      <trkpt lat="36.8734530" lon="-4.4618350">
        <ele>668.9</ele>
        <time>2018-03-28T09:55:56Z</time>
      </trkpt>
      <trkpt lat="36.8735230" lon="-4.4618230">
        <ele>668.9</ele>
        <time>2018-03-28T09:55:57Z</time>
      </trkpt>
      <trkpt lat="36.8736620" lon="-4.4617920">
        <ele>668.9</ele>
        <time>2018-03-28T09:55:58Z</time>
      </trkpt>
      <trkpt lat="36.8736620" lon="-4.4617920">
        <ele>668.9</ele>
        <time>2018-03-28T09:55:59Z</time>
      </trkpt>
      <trkpt lat="36.8737980" lon="-4.4617330">
        <ele>668.9</ele>
        <time>2018-03-28T09:56:00Z</time>
      </trkpt>
      <trkpt lat="36.8739010" lon="-4.4616820">
        <ele>668.9</ele>
        <time>2018-03-28T09:56:01Z</time>
      </trkpt>
      <trkpt lat="36.8739350" lon="-4.4616650">
        <ele>668.9</ele>
        <time>2018-03-28T09:56:02Z</time>
      </trkpt>
      <trkpt lat="36.8740200" lon="-4.4616240">
        <ele>668.9</ele>
        <time>2018-03-28T09:56:03Z</time>
      </trkpt>
      <trkpt lat="36.8740370" lon="-4.4616150">
        <ele>668.9</ele>
        <time>2018-03-28T09:56:04Z</time>
      </trkpt>
      <trkpt lat="36.8740700" lon="-4.4615970">
        <ele>668.9</ele>
        <time>2018-03-28T09:56:05Z</time>
      </trkpt>
      <trkpt lat="36.8741980" lon="-4.4615180">
        <ele>668.9</ele>
        <time>2018-03-28T09:56:06Z</time>
      </trkpt>
      <trkpt lat="36.8741980" lon="-4.4615180">
        <ele>668.9</ele>
        <time>2018-03-28T09:56:07Z</time>
      </trkpt>
      <trkpt lat="36.8743050" lon="-4.4613980">
        <ele>668.9</ele>
        <time>2018-03-28T09:56:08Z</time>
      </trkpt>
      <trkpt lat="36.8743050" lon="-4.4613980">
        <ele>668.9</ele>
        <time>2018-03-28T09:56:09Z</time>
      </trkpt>
      <trkpt lat="36.8743870" lon="-4.4612520">
        <ele>668.9</ele>
        <time>2018-03-28T09:56:10Z</time>
      </trkpt>
      <trkpt lat="36.8743870" lon="-4.4612520">
        <ele>668.9</ele>
        <time>2018-03-28T09:56:11Z</time>
      </trkpt>
      <trkpt lat="36.8744430" lon="-4.4610850">
        <ele>668.9</ele>
        <time>2018-03-28T09:56:12Z</time>
      </trkpt>
      <trkpt lat="36.8744430" lon="-4.4610850">
        <ele>668.9</ele>
        <time>2018-03-28T09:56:13Z</time>
      </trkpt>
      <trkpt lat="36.8745020" lon="-4.4609170">
        <ele>668.9</ele>
        <time>2018-03-28T09:56:14Z</time>
      </trkpt>
      <trkpt lat="36.8745020" lon="-4.4609170">
        <ele>667.9</ele>
        <time>2018-03-28T09:56:15Z</time>
      </trkpt>
      <trkpt lat="36.8745570" lon="-4.4607480">
        <ele>667.9</ele>
        <time>2018-03-28T09:56:16Z</time>
      </trkpt>
      <trkpt lat="36.8745760" lon="-4.4607060">
        <ele>667.9</ele>
        <time>2018-03-28T09:56:17Z</time>
      </trkpt>
      <trkpt lat="36.8745940" lon="-4.4606640">
        <ele>667.9</ele>
        <time>2018-03-28T09:56:18Z</time>
      </trkpt>
      <trkpt lat="36.8746300" lon="-4.4605800">
        <ele>667.9</ele>
        <time>2018-03-28T09:56:19Z</time>
      </trkpt>
      <trkpt lat="36.8747250" lon="-4.4604270">
        <ele>667.9</ele>
        <time>2018-03-28T09:56:20Z</time>
      </trkpt>
      <trkpt lat="36.8747250" lon="-4.4604270">
        <ele>666.9</ele>
        <time>2018-03-28T09:56:21Z</time>
      </trkpt>
      <trkpt lat="36.8748450" lon="-4.4602500">
        <ele>666.9</ele>
        <time>2018-03-28T09:56:22Z</time>
      </trkpt>
      <trkpt lat="36.8748600" lon="-4.4602310">
        <ele>666.9</ele>
        <time>2018-03-28T09:56:23Z</time>
      </trkpt>
      <trkpt lat="36.8748900" lon="-4.4601930">
        <ele>666.9</ele>
        <time>2018-03-28T09:56:24Z</time>
      </trkpt>
      <trkpt lat="36.8750170" lon="-4.4600600">
        <ele>666.9</ele>
        <time>2018-03-28T09:56:25Z</time>
      </trkpt>
      <trkpt lat="36.8750170" lon="-4.4600600">
        <ele>666.9</ele>
        <time>2018-03-28T09:56:26Z</time>
      </trkpt>
      <trkpt lat="36.8751450" lon="-4.4599270">
        <ele>665.9</ele>
        <time>2018-03-28T09:56:27Z</time>
      </trkpt>
      <trkpt lat="36.8751450" lon="-4.4599270">
        <ele>665.9</ele>
        <time>2018-03-28T09:56:28Z</time>
      </trkpt>
      <trkpt lat="36.8752200" lon="-4.4597520">
        <ele>665.9</ele>
        <time>2018-03-28T09:56:29Z</time>
      </trkpt>
      <trkpt lat="36.8752200" lon="-4.4597520">
        <ele>665.9</ele>
        <time>2018-03-28T09:56:30Z</time>
      </trkpt>
      <trkpt lat="36.8752200" lon="-4.4595550">
        <ele>665.9</ele>
        <time>2018-03-28T09:56:31Z</time>
      </trkpt>
      <trkpt lat="36.8752100" lon="-4.4595060">
        <ele>664.9</ele>
        <time>2018-03-28T09:56:32Z</time>
      </trkpt>
      <trkpt lat="36.8751990" lon="-4.4594580">
        <ele>664.9</ele>
        <time>2018-03-28T09:56:33Z</time>
      </trkpt>
      <trkpt lat="36.8751770" lon="-4.4593620">
        <ele>664.9</ele>
        <time>2018-03-28T09:56:34Z</time>
      </trkpt>
      <trkpt lat="36.8751220" lon="-4.4591700">
        <ele>664.9</ele>
        <time>2018-03-28T09:56:35Z</time>
      </trkpt>
      <trkpt lat="36.8751220" lon="-4.4591700">
        <ele>664.9</ele>
        <time>2018-03-28T09:56:36Z</time>
      </trkpt>
      <trkpt lat="36.8750680" lon="-4.4589280">
        <ele>664.9</ele>
        <time>2018-03-28T09:56:37Z</time>
      </trkpt>
      <trkpt lat="36.8750620" lon="-4.4588780">
        <ele>664.9</ele>
        <time>2018-03-28T09:56:38Z</time>
      </trkpt>
      <trkpt lat="36.8750590" lon="-4.4587310">
        <ele>664.9</ele>
        <time>2018-03-28T09:56:39Z</time>
      </trkpt>
      <trkpt lat="36.8750680" lon="-4.4586830">
        <ele>664.9</ele>
        <time>2018-03-28T09:56:40Z</time>
      </trkpt>
      <trkpt lat="36.8750850" lon="-4.4585870">
        <ele>664.9</ele>
        <time>2018-03-28T09:56:41Z</time>
      </trkpt>
      <trkpt lat="36.8750850" lon="-4.4585870">
        <ele>664.9</ele>
        <time>2018-03-28T09:56:42Z</time>
      </trkpt>
      <trkpt lat="36.8751600" lon="-4.4584200">
        <ele>664.9</ele>
        <time>2018-03-28T09:56:43Z</time>
      </trkpt>
      <trkpt lat="36.8751900" lon="-4.4583740">
        <ele>664.9</ele>
        <time>2018-03-28T09:56:44Z</time>
      </trkpt>
      <trkpt lat="36.8752190" lon="-4.4583270">
        <ele>664.9</ele>
        <time>2018-03-28T09:56:45Z</time>
      </trkpt>
      <trkpt lat="36.8752780" lon="-4.4582330">
        <ele>665.9</ele>
        <time>2018-03-28T09:56:46Z</time>
      </trkpt>
      <trkpt lat="36.8752780" lon="-4.4582330">
        <ele>665.9</ele>
        <time>2018-03-28T09:56:47Z</time>
      </trkpt>
      <trkpt lat="36.8753550" lon="-4.4581370">
        <ele>665.9</ele>
        <time>2018-03-28T09:56:48Z</time>
      </trkpt>
      <trkpt lat="36.8753900" lon="-4.4580930">
        <ele>665.9</ele>
        <time>2018-03-28T09:56:49Z</time>
      </trkpt>
      <trkpt lat="36.8753900" lon="-4.4580930">
        <ele>666.9</ele>
        <time>2018-03-28T09:56:50Z</time>
      </trkpt>
      <trkpt lat="36.8754620" lon="-4.4580200">
        <ele>666.9</ele>
        <time>2018-03-28T09:56:51Z</time>
      </trkpt>
      <trkpt lat="36.8754780" lon="-4.4580050">
        <ele>666.9</ele>
        <time>2018-03-28T09:56:52Z</time>
      </trkpt>
      <trkpt lat="36.8754930" lon="-4.4579890">
        <ele>666.9</ele>
        <time>2018-03-28T09:56:53Z</time>
      </trkpt>
      <trkpt lat="36.8755230" lon="-4.4579570">
        <ele>667.9</ele>
        <time>2018-03-28T09:56:54Z</time>
      </trkpt>
      <trkpt lat="36.8755800" lon="-4.4578880">
        <ele>667.9</ele>
        <time>2018-03-28T09:56:55Z</time>
      </trkpt>
      <trkpt lat="36.8755800" lon="-4.4578880">
        <ele>667.9</ele>
        <time>2018-03-28T09:56:56Z</time>
      </trkpt>
      <trkpt lat="36.8756280" lon="-4.4578200">
        <ele>667.9</ele>
        <time>2018-03-28T09:56:57Z</time>
      </trkpt>
      <trkpt lat="36.8756500" lon="-4.4577830">
        <ele>668.9</ele>
        <time>2018-03-28T09:56:58Z</time>
      </trkpt>
      <trkpt lat="36.8756500" lon="-4.4577830">
        <ele>668.9</ele>
        <time>2018-03-28T09:56:59Z</time>
      </trkpt>
      <trkpt lat="36.8756850" lon="-4.4577070">
        <ele>668.9</ele>
        <time>2018-03-28T09:57:00Z</time>
      </trkpt>
      <trkpt lat="36.8756970" lon="-4.4576670">
        <ele>668.9</ele>
        <time>2018-03-28T09:57:01Z</time>
      </trkpt>
      <trkpt lat="36.8756970" lon="-4.4576670">
        <ele>669.9</ele>
        <time>2018-03-28T09:57:02Z</time>
      </trkpt>
      <trkpt lat="36.8757270" lon="-4.4575870">
        <ele>669.9</ele>
        <time>2018-03-28T09:57:03Z</time>
      </trkpt>
      <trkpt lat="36.8757380" lon="-4.4575430">
        <ele>669.9</ele>
        <time>2018-03-28T09:57:04Z</time>
      </trkpt>
      <trkpt lat="36.8757480" lon="-4.4574990">
        <ele>669.9</ele>
        <time>2018-03-28T09:57:05Z</time>
      </trkpt>
      <trkpt lat="36.8757570" lon="-4.4574550">
        <ele>670.9</ele>
        <time>2018-03-28T09:57:06Z</time>
      </trkpt>
      <trkpt lat="36.8757670" lon="-4.4574110">
        <ele>670.9</ele>
        <time>2018-03-28T09:57:07Z</time>
      </trkpt>
      <trkpt lat="36.8757770" lon="-4.4573670">
        <ele>670.9</ele>
        <time>2018-03-28T09:57:08Z</time>
      </trkpt>
      <trkpt lat="36.8757770" lon="-4.4573670">
        <ele>671.9</ele>
        <time>2018-03-28T09:57:09Z</time>
      </trkpt>
      <trkpt lat="36.8757950" lon="-4.4572900">
        <ele>671.9</ele>
        <time>2018-03-28T09:57:10Z</time>
      </trkpt>
      <trkpt lat="36.8757950" lon="-4.4572900">
        <ele>671.9</ele>
        <time>2018-03-28T09:57:11Z</time>
      </trkpt>
      <trkpt lat="36.8758170" lon="-4.4572150">
        <ele>671.9</ele>
        <time>2018-03-28T09:57:12Z</time>
      </trkpt>
      <trkpt lat="36.8758280" lon="-4.4571780">
        <ele>672.9</ele>
        <time>2018-03-28T09:57:13Z</time>
      </trkpt>
      <trkpt lat="36.8758280" lon="-4.4571780">
        <ele>672.9</ele>
        <time>2018-03-28T09:57:14Z</time>
      </trkpt>
      <trkpt lat="36.8758500" lon="-4.4571030">
        <ele>672.9</ele>
        <time>2018-03-28T09:57:15Z</time>
      </trkpt>
      <trkpt lat="36.8758500" lon="-4.4571030">
        <ele>672.9</ele>
        <time>2018-03-28T09:57:16Z</time>
      </trkpt>
      <trkpt lat="36.8758670" lon="-4.4570280">
        <ele>673.9</ele>
        <time>2018-03-28T09:57:17Z</time>
      </trkpt>
      <trkpt lat="36.8758670" lon="-4.4570280">
        <ele>673.9</ele>
        <time>2018-03-28T09:57:18Z</time>
      </trkpt>
      <trkpt lat="36.8758850" lon="-4.4569570">
        <ele>673.9</ele>
        <time>2018-03-28T09:57:19Z</time>
      </trkpt>
      <trkpt lat="36.8758850" lon="-4.4569570">
        <ele>673.9</ele>
        <time>2018-03-28T09:57:20Z</time>
      </trkpt>
      <trkpt lat="36.8759070" lon="-4.4568880">
        <ele>674.9</ele>
        <time>2018-03-28T09:57:21Z</time>
      </trkpt>
      <trkpt lat="36.8759070" lon="-4.4568880">
        <ele>674.9</ele>
        <time>2018-03-28T09:57:22Z</time>
      </trkpt>
      <trkpt lat="36.8759280" lon="-4.4568150">
        <ele>674.9</ele>
        <time>2018-03-28T09:57:23Z</time>
      </trkpt>
      <trkpt lat="36.8759370" lon="-4.4567780">
        <ele>674.9</ele>
        <time>2018-03-28T09:57:24Z</time>
      </trkpt>
      <trkpt lat="36.8759450" lon="-4.4567420">
        <ele>674.9</ele>
        <time>2018-03-28T09:57:25Z</time>
      </trkpt>
      <trkpt lat="36.8759450" lon="-4.4567420">
        <ele>674.9</ele>
        <time>2018-03-28T09:57:26Z</time>
      </trkpt>
      <trkpt lat="36.8759680" lon="-4.4566680">
        <ele>674.9</ele>
        <time>2018-03-28T09:57:27Z</time>
      </trkpt>
      <trkpt lat="36.8759780" lon="-4.4566320">
        <ele>675.9</ele>
        <time>2018-03-28T09:57:28Z</time>
      </trkpt>
      <trkpt lat="36.8759880" lon="-4.4565970">
        <ele>675.9</ele>
        <time>2018-03-28T09:57:29Z</time>
      </trkpt>
      <trkpt lat="36.8759980" lon="-4.4565600">
        <ele>675.9</ele>
        <time>2018-03-28T09:57:30Z</time>
      </trkpt>
      <trkpt lat="36.8759980" lon="-4.4565600">
        <ele>675.9</ele>
        <time>2018-03-28T09:57:31Z</time>
      </trkpt>
      <trkpt lat="36.8760180" lon="-4.4564850">
        <ele>675.9</ele>
        <time>2018-03-28T09:57:32Z</time>
      </trkpt>
      <trkpt lat="36.8760250" lon="-4.4564470">
        <ele>675.9</ele>
        <time>2018-03-28T09:57:33Z</time>
      </trkpt>
      <trkpt lat="36.8760250" lon="-4.4564470">
        <ele>675.9</ele>
        <time>2018-03-28T09:57:34Z</time>
      </trkpt>
      <trkpt lat="36.8760430" lon="-4.4563670">
        <ele>675.9</ele>
        <time>2018-03-28T09:57:35Z</time>
      </trkpt>
      <trkpt lat="36.8760430" lon="-4.4563670">
        <ele>676.9</ele>
        <time>2018-03-28T09:57:36Z</time>
      </trkpt>
      <trkpt lat="36.8760700" lon="-4.4562880">
        <ele>676.9</ele>
        <time>2018-03-28T09:57:37Z</time>
      </trkpt>
      <trkpt lat="36.8760700" lon="-4.4562880">
        <ele>676.9</ele>
        <time>2018-03-28T09:57:38Z</time>
      </trkpt>
      <trkpt lat="36.8760970" lon="-4.4562180">
        <ele>676.9</ele>
        <time>2018-03-28T09:57:39Z</time>
      </trkpt>
      <trkpt lat="36.8761150" lon="-4.4561820">
        <ele>676.9</ele>
        <time>2018-03-28T09:57:40Z</time>
      </trkpt>
      <trkpt lat="36.8761320" lon="-4.4561450">
        <ele>677.9</ele>
        <time>2018-03-28T09:57:41Z</time>
      </trkpt>
      <trkpt lat="36.8761320" lon="-4.4561450">
        <ele>677.9</ele>
        <time>2018-03-28T09:57:42Z</time>
      </trkpt>
      <trkpt lat="36.8761700" lon="-4.4560780">
        <ele>677.9</ele>
        <time>2018-03-28T09:57:43Z</time>
      </trkpt>
      <trkpt lat="36.8761700" lon="-4.4560780">
        <ele>677.9</ele>
        <time>2018-03-28T09:57:44Z</time>
      </trkpt>
      <trkpt lat="36.8762100" lon="-4.4560180">
        <ele>677.9</ele>
        <time>2018-03-28T09:57:45Z</time>
      </trkpt>
      <trkpt lat="36.8762320" lon="-4.4559880">
        <ele>677.9</ele>
        <time>2018-03-28T09:57:46Z</time>
      </trkpt>
      <trkpt lat="36.8762320" lon="-4.4559880">
        <ele>678.9</ele>
        <time>2018-03-28T09:57:47Z</time>
      </trkpt>
      <trkpt lat="36.8762700" lon="-4.4559200">
        <ele>678.9</ele>
        <time>2018-03-28T09:57:48Z</time>
      </trkpt>
      <trkpt lat="36.8762850" lon="-4.4558830">
        <ele>678.9</ele>
        <time>2018-03-28T09:57:49Z</time>
      </trkpt>
      <trkpt lat="36.8762850" lon="-4.4558830">
        <ele>678.9</ele>
        <time>2018-03-28T09:57:50Z</time>
      </trkpt>
      <trkpt lat="36.8763230" lon="-4.4558150">
        <ele>679.9</ele>
        <time>2018-03-28T09:57:51Z</time>
      </trkpt>
      <trkpt lat="36.8763230" lon="-4.4558150">
        <ele>679.9</ele>
        <time>2018-03-28T09:57:52Z</time>
      </trkpt>
      <trkpt lat="36.8763630" lon="-4.4557500">
        <ele>679.9</ele>
        <time>2018-03-28T09:57:53Z</time>
      </trkpt>
      <trkpt lat="36.8763830" lon="-4.4557200">
        <ele>679.9</ele>
        <time>2018-03-28T09:57:54Z</time>
      </trkpt>
      <trkpt lat="36.8764050" lon="-4.4556920">
        <ele>679.9</ele>
        <time>2018-03-28T09:57:55Z</time>
      </trkpt>
      <trkpt lat="36.8764050" lon="-4.4556920">
        <ele>679.9</ele>
        <time>2018-03-28T09:57:56Z</time>
      </trkpt>
      <trkpt lat="36.8764500" lon="-4.4556400">
        <ele>680.9</ele>
        <time>2018-03-28T09:57:57Z</time>
      </trkpt>
      <trkpt lat="36.8764500" lon="-4.4556400">
        <ele>680.9</ele>
        <time>2018-03-28T09:57:58Z</time>
      </trkpt>
      <trkpt lat="36.8765000" lon="-4.4555950">
        <ele>680.9</ele>
        <time>2018-03-28T09:57:59Z</time>
      </trkpt>
      <trkpt lat="36.8765000" lon="-4.4555950">
        <ele>680.9</ele>
        <time>2018-03-28T09:58:00Z</time>
      </trkpt>
      <trkpt lat="36.8765520" lon="-4.4555550">
        <ele>681.9</ele>
        <time>2018-03-28T09:58:01Z</time>
      </trkpt>
      <trkpt lat="36.8765780" lon="-4.4555380">
        <ele>681.9</ele>
        <time>2018-03-28T09:58:02Z</time>
      </trkpt>
      <trkpt lat="36.8765780" lon="-4.4555380">
        <ele>681.9</ele>
        <time>2018-03-28T09:58:03Z</time>
      </trkpt>
      <trkpt lat="36.8766300" lon="-4.4555100">
        <ele>681.9</ele>
        <time>2018-03-28T09:58:04Z</time>
      </trkpt>
      <trkpt lat="36.8766300" lon="-4.4555100">
        <ele>682.9</ele>
        <time>2018-03-28T09:58:05Z</time>
      </trkpt>
      <trkpt lat="36.8766870" lon="-4.4554970">
        <ele>682.9</ele>
        <time>2018-03-28T09:58:06Z</time>
      </trkpt>
      <trkpt lat="36.8767170" lon="-4.4554950">
        <ele>682.9</ele>
        <time>2018-03-28T09:58:07Z</time>
      </trkpt>
      <trkpt lat="36.8767170" lon="-4.4554950">
        <ele>683.9</ele>
        <time>2018-03-28T09:58:08Z</time>
      </trkpt>
      <trkpt lat="36.8767800" lon="-4.4554900">
        <ele>683.9</ele>
        <time>2018-03-28T09:58:09Z</time>
      </trkpt>
      <trkpt lat="36.8768120" lon="-4.4554850">
        <ele>683.9</ele>
        <time>2018-03-28T09:58:10Z</time>
      </trkpt>
      <trkpt lat="36.8768120" lon="-4.4554850">
        <ele>683.9</ele>
        <time>2018-03-28T09:58:11Z</time>
      </trkpt>
      <trkpt lat="36.8768770" lon="-4.4554720">
        <ele>683.9</ele>
        <time>2018-03-28T09:58:12Z</time>
      </trkpt>
      <trkpt lat="36.8768770" lon="-4.4554720">
        <ele>683.9</ele>
        <time>2018-03-28T09:58:13Z</time>
      </trkpt>
      <trkpt lat="36.8769380" lon="-4.4554580">
        <ele>684.9</ele>
        <time>2018-03-28T09:58:14Z</time>
      </trkpt>
      <trkpt lat="36.8769380" lon="-4.4554580">
        <ele>684.9</ele>
        <time>2018-03-28T09:58:15Z</time>
      </trkpt>
      <trkpt lat="36.8770020" lon="-4.4554520">
        <ele>684.9</ele>
        <time>2018-03-28T09:58:16Z</time>
      </trkpt>
      <trkpt lat="36.8770020" lon="-4.4554520">
        <ele>684.9</ele>
        <time>2018-03-28T09:58:17Z</time>
      </trkpt>
      <trkpt lat="36.8770680" lon="-4.4554480">
        <ele>684.9</ele>
        <time>2018-03-28T09:58:18Z</time>
      </trkpt>
      <trkpt lat="36.8771000" lon="-4.4554450">
        <ele>684.9</ele>
        <time>2018-03-28T09:58:19Z</time>
      </trkpt>
      <trkpt lat="36.8771000" lon="-4.4554450">
        <ele>684.9</ele>
        <time>2018-03-28T09:58:20Z</time>
      </trkpt>
      <trkpt lat="36.8771580" lon="-4.4554320">
        <ele>684.9</ele>
        <time>2018-03-28T09:58:21Z</time>
      </trkpt>
      <trkpt lat="36.8771580" lon="-4.4554320">
        <ele>684.9</ele>
        <time>2018-03-28T09:58:22Z</time>
      </trkpt>
      <trkpt lat="36.8772200" lon="-4.4554080">
        <ele>685.9</ele>
        <time>2018-03-28T09:58:23Z</time>
      </trkpt>
      <trkpt lat="36.8772500" lon="-4.4553930">
        <ele>685.9</ele>
        <time>2018-03-28T09:58:24Z</time>
      </trkpt>
      <trkpt lat="36.8772500" lon="-4.4553930">
        <ele>685.9</ele>
        <time>2018-03-28T09:58:25Z</time>
      </trkpt>
      <trkpt lat="36.8773020" lon="-4.4553480">
        <ele>685.9</ele>
        <time>2018-03-28T09:58:26Z</time>
      </trkpt>
      <trkpt lat="36.8773020" lon="-4.4553480">
        <ele>686.9</ele>
        <time>2018-03-28T09:58:27Z</time>
      </trkpt>
      <trkpt lat="36.8773520" lon="-4.4552930">
        <ele>686.9</ele>
        <time>2018-03-28T09:58:28Z</time>
      </trkpt>
      <trkpt lat="36.8773520" lon="-4.4552930">
        <ele>686.9</ele>
        <time>2018-03-28T09:58:29Z</time>
      </trkpt>
      <trkpt lat="36.8773970" lon="-4.4552350">
        <ele>686.9</ele>
        <time>2018-03-28T09:58:30Z</time>
      </trkpt>
      <trkpt lat="36.8774170" lon="-4.4552030">
        <ele>687.9</ele>
        <time>2018-03-28T09:58:31Z</time>
      </trkpt>
      <trkpt lat="36.8774170" lon="-4.4552030">
        <ele>687.9</ele>
        <time>2018-03-28T09:58:32Z</time>
      </trkpt>
      <trkpt lat="36.8774500" lon="-4.4551330">
        <ele>687.9</ele>
        <time>2018-03-28T09:58:33Z</time>
      </trkpt>
      <trkpt lat="36.8774500" lon="-4.4551330">
        <ele>687.9</ele>
        <time>2018-03-28T09:58:34Z</time>
      </trkpt>
      <trkpt lat="36.8774730" lon="-4.4550670">
        <ele>687.9</ele>
        <time>2018-03-28T09:58:35Z</time>
      </trkpt>
      <trkpt lat="36.8774730" lon="-4.4550670">
        <ele>688.9</ele>
        <time>2018-03-28T09:58:36Z</time>
      </trkpt>
      <trkpt lat="36.8775000" lon="-4.4550020">
        <ele>688.9</ele>
        <time>2018-03-28T09:58:37Z</time>
      </trkpt>
      <trkpt lat="36.8775000" lon="-4.4550020">
        <ele>688.9</ele>
        <time>2018-03-28T09:58:38Z</time>
      </trkpt>
      <trkpt lat="36.8775250" lon="-4.4549330">
        <ele>688.9</ele>
        <time>2018-03-28T09:58:39Z</time>
      </trkpt>
      <trkpt lat="36.8775380" lon="-4.4549000">
        <ele>688.9</ele>
        <time>2018-03-28T09:58:40Z</time>
      </trkpt>
      <trkpt lat="36.8775380" lon="-4.4549000">
        <ele>689.9</ele>
        <time>2018-03-28T09:58:41Z</time>
      </trkpt>
      <trkpt lat="36.8775630" lon="-4.4548320">
        <ele>689.9</ele>
        <time>2018-03-28T09:58:42Z</time>
      </trkpt>
      <trkpt lat="36.8775790" lon="-4.4547800">
        <ele>689.9</ele>
        <time>2018-03-28T09:58:43Z</time>
      </trkpt>
      <trkpt lat="36.8775850" lon="-4.4547630">
        <ele>689.9</ele>
        <time>2018-03-28T09:58:44Z</time>
      </trkpt>
      <trkpt lat="36.8775850" lon="-4.4547630">
        <ele>689.9</ele>
        <time>2018-03-28T09:58:45Z</time>
      </trkpt>
      <trkpt lat="36.8776080" lon="-4.4546920">
        <ele>690.9</ele>
        <time>2018-03-28T09:58:46Z</time>
      </trkpt>
      <trkpt lat="36.8776080" lon="-4.4546920">
        <ele>690.9</ele>
        <time>2018-03-28T09:58:47Z</time>
      </trkpt>
      <trkpt lat="36.8776330" lon="-4.4546150">
        <ele>690.9</ele>
        <time>2018-03-28T09:58:48Z</time>
      </trkpt>
      <trkpt lat="36.8776330" lon="-4.4546150">
        <ele>690.9</ele>
        <time>2018-03-28T09:58:49Z</time>
      </trkpt>
      <trkpt lat="36.8776630" lon="-4.4545370">
        <ele>690.9</ele>
        <time>2018-03-28T09:58:50Z</time>
      </trkpt>
      <trkpt lat="36.8776630" lon="-4.4545370">
        <ele>690.9</ele>
        <time>2018-03-28T09:58:51Z</time>
      </trkpt>
      <trkpt lat="36.8776880" lon="-4.4544620">
        <ele>691.9</ele>
        <time>2018-03-28T09:58:52Z</time>
      </trkpt>
      <trkpt lat="36.8776990" lon="-4.4544230">
        <ele>691.9</ele>
        <time>2018-03-28T09:58:53Z</time>
      </trkpt>
      <trkpt lat="36.8777100" lon="-4.4543830">
        <ele>691.9</ele>
        <time>2018-03-28T09:58:54Z</time>
      </trkpt>
      <trkpt lat="36.8777200" lon="-4.4543420">
        <ele>691.9</ele>
        <time>2018-03-28T09:58:55Z</time>
      </trkpt>
      <trkpt lat="36.8777200" lon="-4.4543420">
        <ele>691.9</ele>
        <time>2018-03-28T09:58:56Z</time>
      </trkpt>
      <trkpt lat="36.8777400" lon="-4.4542570">
        <ele>691.9</ele>
        <time>2018-03-28T09:58:57Z</time>
      </trkpt>
      <trkpt lat="36.8777420" lon="-4.4542120">
        <ele>691.9</ele>
        <time>2018-03-28T09:58:58Z</time>
      </trkpt>
      <trkpt lat="36.8777420" lon="-4.4542120">
        <ele>691.9</ele>
        <time>2018-03-28T09:58:59Z</time>
      </trkpt>
      <trkpt lat="36.8777580" lon="-4.4541180">
        <ele>691.9</ele>
        <time>2018-03-28T09:59:00Z</time>
      </trkpt>
      <trkpt lat="36.8777680" lon="-4.4540700">
        <ele>691.9</ele>
        <time>2018-03-28T09:59:01Z</time>
      </trkpt>
      <trkpt lat="36.8777680" lon="-4.4540700">
        <ele>691.9</ele>
        <time>2018-03-28T09:59:02Z</time>
      </trkpt>
      <trkpt lat="36.8778020" lon="-4.4539800">
        <ele>691.9</ele>
        <time>2018-03-28T09:59:03Z</time>
      </trkpt>
      <trkpt lat="36.8778220" lon="-4.4539380">
        <ele>691.9</ele>
        <time>2018-03-28T09:59:04Z</time>
      </trkpt>
      <trkpt lat="36.8778220" lon="-4.4539380">
        <ele>691.9</ele>
        <time>2018-03-28T09:59:05Z</time>
      </trkpt>
      <trkpt lat="36.8778670" lon="-4.4538630">
        <ele>691.9</ele>
        <time>2018-03-28T09:59:06Z</time>
      </trkpt>
      <trkpt lat="36.8778970" lon="-4.4538320">
        <ele>691.9</ele>
        <time>2018-03-28T09:59:07Z</time>
      </trkpt>
      <trkpt lat="36.8778970" lon="-4.4538320">
        <ele>691.9</ele>
        <time>2018-03-28T09:59:08Z</time>
      </trkpt>
      <trkpt lat="36.8779620" lon="-4.4537800">
        <ele>691.9</ele>
        <time>2018-03-28T09:59:09Z</time>
      </trkpt>
      <trkpt lat="36.8779620" lon="-4.4537800">
        <ele>691.9</ele>
        <time>2018-03-28T09:59:10Z</time>
      </trkpt>
      <trkpt lat="36.8780320" lon="-4.4537370">
        <ele>691.9</ele>
        <time>2018-03-28T09:59:11Z</time>
      </trkpt>
      <trkpt lat="36.8780670" lon="-4.4537130">
        <ele>691.9</ele>
        <time>2018-03-28T09:59:12Z</time>
      </trkpt>
      <trkpt lat="36.8780670" lon="-4.4537130">
        <ele>691.9</ele>
        <time>2018-03-28T09:59:13Z</time>
      </trkpt>
      <trkpt lat="36.8781400" lon="-4.4536620">
        <ele>691.9</ele>
        <time>2018-03-28T09:59:14Z</time>
      </trkpt>
      <trkpt lat="36.8781400" lon="-4.4536620">
        <ele>691.9</ele>
        <time>2018-03-28T09:59:15Z</time>
      </trkpt>
      <trkpt lat="36.8782130" lon="-4.4536130">
        <ele>691.9</ele>
        <time>2018-03-28T09:59:16Z</time>
      </trkpt>
      <trkpt lat="36.8782480" lon="-4.4535900">
        <ele>691.9</ele>
        <time>2018-03-28T09:59:17Z</time>
      </trkpt>
      <trkpt lat="36.8782830" lon="-4.4535670">
        <ele>691.9</ele>
        <time>2018-03-28T09:59:18Z</time>
      </trkpt>
      <trkpt lat="36.8783180" lon="-4.4535450">
        <ele>691.9</ele>
        <time>2018-03-28T09:59:19Z</time>
      </trkpt>
      <trkpt lat="36.8783180" lon="-4.4535450">
        <ele>692.9</ele>
        <time>2018-03-28T09:59:20Z</time>
      </trkpt>
      <trkpt lat="36.8783870" lon="-4.4534950">
        <ele>692.9</ele>
        <time>2018-03-28T09:59:21Z</time>
      </trkpt>
      <trkpt lat="36.8784220" lon="-4.4534700">
        <ele>692.9</ele>
        <time>2018-03-28T09:59:22Z</time>
      </trkpt>
      <trkpt lat="36.8784220" lon="-4.4534700">
        <ele>692.9</ele>
        <time>2018-03-28T09:59:23Z</time>
      </trkpt>
      <trkpt lat="36.8784900" lon="-4.4534180">
        <ele>692.9</ele>
        <time>2018-03-28T09:59:24Z</time>
      </trkpt>
      <trkpt lat="36.8785250" lon="-4.4533920">
        <ele>692.9</ele>
        <time>2018-03-28T09:59:25Z</time>
      </trkpt>
      <trkpt lat="36.8785250" lon="-4.4533920">
        <ele>692.9</ele>
        <time>2018-03-28T09:59:26Z</time>
      </trkpt>
      <trkpt lat="36.8785880" lon="-4.4533280">
        <ele>692.9</ele>
        <time>2018-03-28T09:59:27Z</time>
      </trkpt>
      <trkpt lat="36.8786120" lon="-4.4532900">
        <ele>692.9</ele>
        <time>2018-03-28T09:59:28Z</time>
      </trkpt>
      <trkpt lat="36.8786120" lon="-4.4532900">
        <ele>692.9</ele>
        <time>2018-03-28T09:59:29Z</time>
      </trkpt>
      <trkpt lat="36.8786300" lon="-4.4531950">
        <ele>692.9</ele>
        <time>2018-03-28T09:59:30Z</time>
      </trkpt>
      <trkpt lat="36.8786300" lon="-4.4531480">
        <ele>692.9</ele>
        <time>2018-03-28T09:59:31Z</time>
      </trkpt>
      <trkpt lat="36.8786300" lon="-4.4531480">
        <ele>692.9</ele>
        <time>2018-03-28T09:59:32Z</time>
      </trkpt>
      <trkpt lat="36.8786020" lon="-4.4530600">
        <ele>693.9</ele>
        <time>2018-03-28T09:59:33Z</time>
      </trkpt>
      <trkpt lat="36.8785820" lon="-4.4530230">
        <ele>693.9</ele>
        <time>2018-03-28T09:59:34Z</time>
      </trkpt>
      <trkpt lat="36.8785820" lon="-4.4530230">
        <ele>693.9</ele>
        <time>2018-03-28T09:59:35Z</time>
      </trkpt>
      <trkpt lat="36.8785470" lon="-4.4529520">
        <ele>693.9</ele>
        <time>2018-03-28T09:59:36Z</time>
      </trkpt>
      <trkpt lat="36.8785470" lon="-4.4529520">
        <ele>693.9</ele>
        <time>2018-03-28T09:59:37Z</time>
      </trkpt>
      <trkpt lat="36.8785070" lon="-4.4528880">
        <ele>694.9</ele>
        <time>2018-03-28T09:59:38Z</time>
      </trkpt>
      <trkpt lat="36.8785070" lon="-4.4528880">
        <ele>694.9</ele>
        <time>2018-03-28T09:59:39Z</time>
      </trkpt>
      <trkpt lat="36.8784780" lon="-4.4528120">
        <ele>694.9</ele>
        <time>2018-03-28T09:59:40Z</time>
      </trkpt>
      <trkpt lat="36.8784780" lon="-4.4528120">
        <ele>694.9</ele>
        <time>2018-03-28T09:59:41Z</time>
      </trkpt>
      <trkpt lat="36.8784720" lon="-4.4527300">
        <ele>695.9</ele>
        <time>2018-03-28T09:59:42Z</time>
      </trkpt>
      <trkpt lat="36.8784770" lon="-4.4526920">
        <ele>695.9</ele>
        <time>2018-03-28T09:59:43Z</time>
      </trkpt>
      <trkpt lat="36.8784880" lon="-4.4526550">
        <ele>695.9</ele>
        <time>2018-03-28T09:59:44Z</time>
      </trkpt>
      <trkpt lat="36.8784980" lon="-4.4526170">
        <ele>695.9</ele>
        <time>2018-03-28T09:59:45Z</time>
      </trkpt>
      <trkpt lat="36.8785180" lon="-4.4525870">
        <ele>695.9</ele>
        <time>2018-03-28T09:59:46Z</time>
      </trkpt>
      <trkpt lat="36.8785180" lon="-4.4525870">
        <ele>695.9</ele>
        <time>2018-03-28T09:59:47Z</time>
      </trkpt>
      <trkpt lat="36.8785670" lon="-4.4525400">
        <ele>696.9</ele>
        <time>2018-03-28T09:59:48Z</time>
      </trkpt>
      <trkpt lat="36.8785670" lon="-4.4525400">
        <ele>696.9</ele>
        <time>2018-03-28T09:59:49Z</time>
      </trkpt>
      <trkpt lat="36.8786120" lon="-4.4525000">
        <ele>696.9</ele>
        <time>2018-03-28T09:59:50Z</time>
      </trkpt>
      <trkpt lat="36.8786120" lon="-4.4525000">
        <ele>696.9</ele>
        <time>2018-03-28T09:59:51Z</time>
      </trkpt>
      <trkpt lat="36.8786680" lon="-4.4524670">
        <ele>697.9</ele>
        <time>2018-03-28T09:59:52Z</time>
      </trkpt>
      <trkpt lat="36.8786680" lon="-4.4524670">
        <ele>697.9</ele>
        <time>2018-03-28T09:59:53Z</time>
      </trkpt>
      <trkpt lat="36.8787250" lon="-4.4524280">
        <ele>697.9</ele>
        <time>2018-03-28T09:59:54Z</time>
      </trkpt>
      <trkpt lat="36.8787530" lon="-4.4524080">
        <ele>697.9</ele>
        <time>2018-03-28T09:59:55Z</time>
      </trkpt>
      <trkpt lat="36.8787530" lon="-4.4524080">
        <ele>698.9</ele>
        <time>2018-03-28T09:59:56Z</time>
      </trkpt>
      <trkpt lat="36.8788080" lon="-4.4523700">
        <ele>698.9</ele>
        <time>2018-03-28T09:59:57Z</time>
      </trkpt>
      <trkpt lat="36.8788350" lon="-4.4523520">
        <ele>698.9</ele>
        <time>2018-03-28T09:59:58Z</time>
      </trkpt>
      <trkpt lat="36.8788350" lon="-4.4523520">
        <ele>698.9</ele>
        <time>2018-03-28T09:59:59Z</time>
      </trkpt>
      <trkpt lat="36.8788880" lon="-4.4523150">
        <ele>698.9</ele>
        <time>2018-03-28T10:00:00Z</time>
      </trkpt>
      <trkpt lat="36.8789150" lon="-4.4523000">
        <ele>699.9</ele>
        <time>2018-03-28T10:00:01Z</time>
      </trkpt>
      <trkpt lat="36.8789150" lon="-4.4523000">
        <ele>699.9</ele>
        <time>2018-03-28T10:00:02Z</time>
      </trkpt>
      <trkpt lat="36.8789680" lon="-4.4522750">
        <ele>699.9</ele>
        <time>2018-03-28T10:00:03Z</time>
      </trkpt>
      <trkpt lat="36.8789950" lon="-4.4522620">
        <ele>700.9</ele>
        <time>2018-03-28T10:00:04Z</time>
      </trkpt>
      <trkpt lat="36.8790230" lon="-4.4522480">
        <ele>700.9</ele>
        <time>2018-03-28T10:00:05Z</time>
      </trkpt>
      <trkpt lat="36.8790230" lon="-4.4522480">
        <ele>700.9</ele>
        <time>2018-03-28T10:00:06Z</time>
      </trkpt>
      <trkpt lat="36.8790770" lon="-4.4522200">
        <ele>700.9</ele>
        <time>2018-03-28T10:00:07Z</time>
      </trkpt>
      <trkpt lat="36.8790770" lon="-4.4522200">
        <ele>700.9</ele>
        <time>2018-03-28T10:00:08Z</time>
      </trkpt>
      <trkpt lat="36.8791300" lon="-4.4521900">
        <ele>700.9</ele>
        <time>2018-03-28T10:00:09Z</time>
      </trkpt>
      <trkpt lat="36.8791300" lon="-4.4521900">
        <ele>700.9</ele>
        <time>2018-03-28T10:00:10Z</time>
      </trkpt>
      <trkpt lat="36.8791850" lon="-4.4521600">
        <ele>700.9</ele>
        <time>2018-03-28T10:00:11Z</time>
      </trkpt>
      <trkpt lat="36.8791850" lon="-4.4521600">
        <ele>701.9</ele>
        <time>2018-03-28T10:00:12Z</time>
      </trkpt>
      <trkpt lat="36.8792350" lon="-4.4521320">
        <ele>701.9</ele>
        <time>2018-03-28T10:00:13Z</time>
      </trkpt>
      <trkpt lat="36.8792350" lon="-4.4521320">
        <ele>701.9</ele>
        <time>2018-03-28T10:00:14Z</time>
      </trkpt>
      <trkpt lat="36.8792800" lon="-4.4521000">
        <ele>701.9</ele>
        <time>2018-03-28T10:00:15Z</time>
      </trkpt>
      <trkpt lat="36.8792800" lon="-4.4521000">
        <ele>702.9</ele>
        <time>2018-03-28T10:00:16Z</time>
      </trkpt>
      <trkpt lat="36.8793220" lon="-4.4520520">
        <ele>702.9</ele>
        <time>2018-03-28T10:00:17Z</time>
      </trkpt>
      <trkpt lat="36.8793220" lon="-4.4520520">
        <ele>702.9</ele>
        <time>2018-03-28T10:00:18Z</time>
      </trkpt>
      <trkpt lat="36.8793570" lon="-4.4519930">
        <ele>702.9</ele>
        <time>2018-03-28T10:00:19Z</time>
      </trkpt>
      <trkpt lat="36.8793570" lon="-4.4519930">
        <ele>703.9</ele>
        <time>2018-03-28T10:00:20Z</time>
      </trkpt>
      <trkpt lat="36.8793830" lon="-4.4519220">
        <ele>703.9</ele>
        <time>2018-03-28T10:00:21Z</time>
      </trkpt>
      <trkpt lat="36.8793830" lon="-4.4519220">
        <ele>703.9</ele>
        <time>2018-03-28T10:00:22Z</time>
      </trkpt>
      <trkpt lat="36.8794000" lon="-4.4518340">
        <ele>703.9</ele>
        <time>2018-03-28T10:00:23Z</time>
      </trkpt>
      <trkpt lat="36.8794030" lon="-4.4518150">
        <ele>704.9</ele>
        <time>2018-03-28T10:00:24Z</time>
      </trkpt>
      <trkpt lat="36.8794030" lon="-4.4518150">
        <ele>704.9</ele>
        <time>2018-03-28T10:00:25Z</time>
      </trkpt>
      <trkpt lat="36.8794220" lon="-4.4517400">
        <ele>704.9</ele>
        <time>2018-03-28T10:00:26Z</time>
      </trkpt>
      <trkpt lat="36.8794360" lon="-4.4517050">
        <ele>704.9</ele>
        <time>2018-03-28T10:00:27Z</time>
      </trkpt>
      <trkpt lat="36.8794500" lon="-4.4516700">
        <ele>704.9</ele>
        <time>2018-03-28T10:00:28Z</time>
      </trkpt>
      <trkpt lat="36.8794680" lon="-4.4516380">
        <ele>704.9</ele>
        <time>2018-03-28T10:00:29Z</time>
      </trkpt>
      <trkpt lat="36.8794680" lon="-4.4516380">
        <ele>704.9</ele>
        <time>2018-03-28T10:00:30Z</time>
      </trkpt>
      <trkpt lat="36.8795030" lon="-4.4515780">
        <ele>704.9</ele>
        <time>2018-03-28T10:00:31Z</time>
      </trkpt>
      <trkpt lat="36.8795030" lon="-4.4515780">
        <ele>705.9</ele>
        <time>2018-03-28T10:00:32Z</time>
      </trkpt>
      <trkpt lat="36.8795380" lon="-4.4515220">
        <ele>705.9</ele>
        <time>2018-03-28T10:00:33Z</time>
      </trkpt>
      <trkpt lat="36.8795380" lon="-4.4515220">
        <ele>705.9</ele>
        <time>2018-03-28T10:00:34Z</time>
      </trkpt>
      <trkpt lat="36.8795800" lon="-4.4514720">
        <ele>705.9</ele>
        <time>2018-03-28T10:00:35Z</time>
      </trkpt>
      <trkpt lat="36.8795800" lon="-4.4514720">
        <ele>705.9</ele>
        <time>2018-03-28T10:00:36Z</time>
      </trkpt>
      <trkpt lat="36.8796320" lon="-4.4514380">
        <ele>705.9</ele>
        <time>2018-03-28T10:00:37Z</time>
      </trkpt>
      <trkpt lat="36.8796320" lon="-4.4514380">
        <ele>706.9</ele>
        <time>2018-03-28T10:00:38Z</time>
      </trkpt>
      <trkpt lat="36.8796850" lon="-4.4514170">
        <ele>706.9</ele>
        <time>2018-03-28T10:00:39Z</time>
      </trkpt>
      <trkpt lat="36.8796850" lon="-4.4514170">
        <ele>706.9</ele>
        <time>2018-03-28T10:00:40Z</time>
      </trkpt>
      <trkpt lat="36.8797370" lon="-4.4514000">
        <ele>706.9</ele>
        <time>2018-03-28T10:00:41Z</time>
      </trkpt>
      <trkpt lat="36.8797370" lon="-4.4514000">
        <ele>706.9</ele>
        <time>2018-03-28T10:00:42Z</time>
      </trkpt>
      <trkpt lat="36.8797850" lon="-4.4514050">
        <ele>707.9</ele>
        <time>2018-03-28T10:00:43Z</time>
      </trkpt>
      <trkpt lat="36.8797850" lon="-4.4514050">
        <ele>707.9</ele>
        <time>2018-03-28T10:00:44Z</time>
      </trkpt>
      <trkpt lat="36.8798370" lon="-4.4514050">
        <ele>707.9</ele>
        <time>2018-03-28T10:00:45Z</time>
      </trkpt>
      <trkpt lat="36.8798370" lon="-4.4514050">
        <ele>707.9</ele>
        <time>2018-03-28T10:00:46Z</time>
      </trkpt>
      <trkpt lat="36.8798900" lon="-4.4514050">
        <ele>708.9</ele>
        <time>2018-03-28T10:00:47Z</time>
      </trkpt>
      <trkpt lat="36.8798900" lon="-4.4514050">
        <ele>708.9</ele>
        <time>2018-03-28T10:00:48Z</time>
      </trkpt>
      <trkpt lat="36.8799400" lon="-4.4514100">
        <ele>708.9</ele>
        <time>2018-03-28T10:00:49Z</time>
      </trkpt>
      <trkpt lat="36.8799670" lon="-4.4514080">
        <ele>708.9</ele>
        <time>2018-03-28T10:00:50Z</time>
      </trkpt>
      <trkpt lat="36.8799670" lon="-4.4514080">
        <ele>708.9</ele>
        <time>2018-03-28T10:00:51Z</time>
      </trkpt>
      <trkpt lat="36.8800150" lon="-4.4514070">
        <ele>708.9</ele>
        <time>2018-03-28T10:00:52Z</time>
      </trkpt>
      <trkpt lat="36.8800150" lon="-4.4514070">
        <ele>708.9</ele>
        <time>2018-03-28T10:00:53Z</time>
      </trkpt>
      <trkpt lat="36.8800700" lon="-4.4514030">
        <ele>708.9</ele>
        <time>2018-03-28T10:00:54Z</time>
      </trkpt>
      <trkpt lat="36.8801000" lon="-4.4514020">
        <ele>708.9</ele>
        <time>2018-03-28T10:00:55Z</time>
      </trkpt>
      <trkpt lat="36.8801000" lon="-4.4514020">
        <ele>708.9</ele>
        <time>2018-03-28T10:00:56Z</time>
      </trkpt>
      <trkpt lat="36.8801480" lon="-4.4513930">
        <ele>710.9</ele>
        <time>2018-03-28T10:00:57Z</time>
      </trkpt>
      <trkpt lat="36.8801480" lon="-4.4513930">
        <ele>710.9</ele>
        <time>2018-03-28T10:00:58Z</time>
      </trkpt>
      <trkpt lat="36.8801900" lon="-4.4513700">
        <ele>710.9</ele>
        <time>2018-03-28T10:00:59Z</time>
      </trkpt>
      <trkpt lat="36.8802070" lon="-4.4513520">
        <ele>710.9</ele>
        <time>2018-03-28T10:01:00Z</time>
      </trkpt>
      <trkpt lat="36.8802220" lon="-4.4513280">
        <ele>710.9</ele>
        <time>2018-03-28T10:01:01Z</time>
      </trkpt>
      <trkpt lat="36.8802330" lon="-4.4513030">
        <ele>710.9</ele>
        <time>2018-03-28T10:01:02Z</time>
      </trkpt>
      <trkpt lat="36.8802330" lon="-4.4513030">
        <ele>710.9</ele>
        <time>2018-03-28T10:01:03Z</time>
      </trkpt>
      <trkpt lat="36.8802480" lon="-4.4512420">
        <ele>711.9</ele>
        <time>2018-03-28T10:01:04Z</time>
      </trkpt>
      <trkpt lat="36.8802470" lon="-4.4512120">
        <ele>711.9</ele>
        <time>2018-03-28T10:01:05Z</time>
      </trkpt>
      <trkpt lat="36.8802360" lon="-4.4511830">
        <ele>711.9</ele>
        <time>2018-03-28T10:01:06Z</time>
      </trkpt>
      <trkpt lat="36.8802250" lon="-4.4511550">
        <ele>711.9</ele>
        <time>2018-03-28T10:01:07Z</time>
      </trkpt>
      <trkpt lat="36.8802100" lon="-4.4511330">
        <ele>712.9</ele>
        <time>2018-03-28T10:01:08Z</time>
      </trkpt>
      <trkpt lat="36.8802100" lon="-4.4511330">
        <ele>712.9</ele>
        <time>2018-03-28T10:01:09Z</time>
      </trkpt>
      <trkpt lat="36.8801600" lon="-4.4511000">
        <ele>712.9</ele>
        <time>2018-03-28T10:01:10Z</time>
      </trkpt>
      <trkpt lat="36.8801600" lon="-4.4511000">
        <ele>712.9</ele>
        <time>2018-03-28T10:01:11Z</time>
      </trkpt>
      <trkpt lat="36.8801130" lon="-4.4510520">
        <ele>713.9</ele>
        <time>2018-03-28T10:01:12Z</time>
      </trkpt>
      <trkpt lat="36.8801130" lon="-4.4510520">
        <ele>713.9</ele>
        <time>2018-03-28T10:01:13Z</time>
      </trkpt>
      <trkpt lat="36.8800720" lon="-4.4510080">
        <ele>713.9</ele>
        <time>2018-03-28T10:01:14Z</time>
      </trkpt>
      <trkpt lat="36.8800520" lon="-4.4509900">
        <ele>713.9</ele>
        <time>2018-03-28T10:01:15Z</time>
      </trkpt>
      <trkpt lat="36.8800520" lon="-4.4509900">
        <ele>714.9</ele>
        <time>2018-03-28T10:01:16Z</time>
      </trkpt>
      <trkpt lat="36.8800080" lon="-4.4509420">
        <ele>714.9</ele>
        <time>2018-03-28T10:01:17Z</time>
      </trkpt>
      <trkpt lat="36.8799900" lon="-4.4509150">
        <ele>714.9</ele>
        <time>2018-03-28T10:01:18Z</time>
      </trkpt>
      <trkpt lat="36.8799770" lon="-4.4508870">
        <ele>714.9</ele>
        <time>2018-03-28T10:01:19Z</time>
      </trkpt>
      <trkpt lat="36.8799770" lon="-4.4508870">
        <ele>715.9</ele>
        <time>2018-03-28T10:01:20Z</time>
      </trkpt>
      <trkpt lat="36.8799500" lon="-4.4508250">
        <ele>715.9</ele>
        <time>2018-03-28T10:01:21Z</time>
      </trkpt>
      <trkpt lat="36.8799500" lon="-4.4508250">
        <ele>715.9</ele>
        <time>2018-03-28T10:01:22Z</time>
      </trkpt>
      <trkpt lat="36.8799250" lon="-4.4507600">
        <ele>715.9</ele>
        <time>2018-03-28T10:01:23Z</time>
      </trkpt>
      <trkpt lat="36.8799250" lon="-4.4507600">
        <ele>716.9</ele>
        <time>2018-03-28T10:01:24Z</time>
      </trkpt>
      <trkpt lat="36.8799100" lon="-4.4506900">
        <ele>716.9</ele>
        <time>2018-03-28T10:01:25Z</time>
      </trkpt>
      <trkpt lat="36.8799020" lon="-4.4506570">
        <ele>716.9</ele>
        <time>2018-03-28T10:01:26Z</time>
      </trkpt>
      <trkpt lat="36.8799020" lon="-4.4506570">
        <ele>716.9</ele>
        <time>2018-03-28T10:01:27Z</time>
      </trkpt>
      <trkpt lat="36.8798870" lon="-4.4505920">
        <ele>716.9</ele>
        <time>2018-03-28T10:01:28Z</time>
      </trkpt>
      <trkpt lat="36.8798870" lon="-4.4505920">
        <ele>716.9</ele>
        <time>2018-03-28T10:01:29Z</time>
      </trkpt>
      <trkpt lat="36.8798830" lon="-4.4505250">
        <ele>716.9</ele>
        <time>2018-03-28T10:01:30Z</time>
      </trkpt>
      <trkpt lat="36.8798820" lon="-4.4504920">
        <ele>716.9</ele>
        <time>2018-03-28T10:01:31Z</time>
      </trkpt>
      <trkpt lat="36.8798820" lon="-4.4504920">
        <ele>716.9</ele>
        <time>2018-03-28T10:01:32Z</time>
      </trkpt>
      <trkpt lat="36.8798780" lon="-4.4504270">
        <ele>716.9</ele>
        <time>2018-03-28T10:01:33Z</time>
      </trkpt>
      <trkpt lat="36.8798720" lon="-4.4503950">
        <ele>717.9</ele>
        <time>2018-03-28T10:01:34Z</time>
      </trkpt>
      <trkpt lat="36.8798720" lon="-4.4503950">
        <ele>717.9</ele>
        <time>2018-03-28T10:01:35Z</time>
      </trkpt>
      <trkpt lat="36.8798650" lon="-4.4503250">
        <ele>717.9</ele>
        <time>2018-03-28T10:01:36Z</time>
      </trkpt>
      <trkpt lat="36.8798650" lon="-4.4503250">
        <ele>718.9</ele>
        <time>2018-03-28T10:01:37Z</time>
      </trkpt>
      <trkpt lat="36.8798650" lon="-4.4502600">
        <ele>718.9</ele>
        <time>2018-03-28T10:01:38Z</time>
      </trkpt>
      <trkpt lat="36.8798600" lon="-4.4502270">
        <ele>718.9</ele>
        <time>2018-03-28T10:01:39Z</time>
      </trkpt>
      <trkpt lat="36.8798600" lon="-4.4502270">
        <ele>718.9</ele>
        <time>2018-03-28T10:01:40Z</time>
      </trkpt>
      <trkpt lat="36.8798470" lon="-4.4501430">
        <ele>718.9</ele>
        <time>2018-03-28T10:01:41Z</time>
      </trkpt>
      <trkpt lat="36.8798450" lon="-4.4501250">
        <ele>718.9</ele>
        <time>2018-03-28T10:01:42Z</time>
      </trkpt>
      <trkpt lat="36.8798400" lon="-4.4500900">
        <ele>719.9</ele>
        <time>2018-03-28T10:01:43Z</time>
      </trkpt>
      <trkpt lat="36.8798350" lon="-4.4500550">
        <ele>719.9</ele>
        <time>2018-03-28T10:01:44Z</time>
      </trkpt>
      <trkpt lat="36.8798290" lon="-4.4500200">
        <ele>719.9</ele>
        <time>2018-03-28T10:01:45Z</time>
      </trkpt>
      <trkpt lat="36.8798220" lon="-4.4499850">
        <ele>719.9</ele>
        <time>2018-03-28T10:01:46Z</time>
      </trkpt>
      <trkpt lat="36.8798220" lon="-4.4499850">
        <ele>719.9</ele>
        <time>2018-03-28T10:01:47Z</time>
      </trkpt>
      <trkpt lat="36.8798080" lon="-4.4499030">
        <ele>719.9</ele>
        <time>2018-03-28T10:01:48Z</time>
      </trkpt>
      <trkpt lat="36.8798030" lon="-4.4498870">
        <ele>720.9</ele>
        <time>2018-03-28T10:01:49Z</time>
      </trkpt>
      <trkpt lat="36.8797990" lon="-4.4498500">
        <ele>720.9</ele>
        <time>2018-03-28T10:01:50Z</time>
      </trkpt>
      <trkpt lat="36.8797950" lon="-4.4498130">
        <ele>720.9</ele>
        <time>2018-03-28T10:01:51Z</time>
      </trkpt>
      <trkpt lat="36.8797900" lon="-4.4497800">
        <ele>720.9</ele>
        <time>2018-03-28T10:01:52Z</time>
      </trkpt>
      <trkpt lat="36.8797900" lon="-4.4497800">
        <ele>720.9</ele>
        <time>2018-03-28T10:01:53Z</time>
      </trkpt>
      <trkpt lat="36.8797910" lon="-4.4496960">
        <ele>720.9</ele>
        <time>2018-03-28T10:01:54Z</time>
      </trkpt>
      <trkpt lat="36.8797920" lon="-4.4496780">
        <ele>721.9</ele>
        <time>2018-03-28T10:01:55Z</time>
      </trkpt>
      <trkpt lat="36.8797920" lon="-4.4496780">
        <ele>721.9</ele>
        <time>2018-03-28T10:01:56Z</time>
      </trkpt>
      <trkpt lat="36.8798070" lon="-4.4496080">
        <ele>721.9</ele>
        <time>2018-03-28T10:01:57Z</time>
      </trkpt>
      <trkpt lat="36.8798070" lon="-4.4496080">
        <ele>721.9</ele>
        <time>2018-03-28T10:01:58Z</time>
      </trkpt>
      <trkpt lat="36.8798230" lon="-4.4495300">
        <ele>721.9</ele>
        <time>2018-03-28T10:01:59Z</time>
      </trkpt>
      <trkpt lat="36.8798230" lon="-4.4495300">
        <ele>721.9</ele>
        <time>2018-03-28T10:02:00Z</time>
      </trkpt>
      <trkpt lat="36.8798320" lon="-4.4494430">
        <ele>721.9</ele>
        <time>2018-03-28T10:02:01Z</time>
      </trkpt>
      <trkpt lat="36.8798320" lon="-4.4494430">
        <ele>721.9</ele>
        <time>2018-03-28T10:02:02Z</time>
      </trkpt>
      <trkpt lat="36.8798620" lon="-4.4493570">
        <ele>721.9</ele>
        <time>2018-03-28T10:02:03Z</time>
      </trkpt>
      <trkpt lat="36.8798620" lon="-4.4493570">
        <ele>721.9</ele>
        <time>2018-03-28T10:02:04Z</time>
      </trkpt>
      <trkpt lat="36.8798750" lon="-4.4492450">
        <ele>721.9</ele>
        <time>2018-03-28T10:02:05Z</time>
      </trkpt>
      <trkpt lat="36.8798770" lon="-4.4491900">
        <ele>721.9</ele>
        <time>2018-03-28T10:02:06Z</time>
      </trkpt>
      <trkpt lat="36.8798770" lon="-4.4491900">
        <ele>721.9</ele>
        <time>2018-03-28T10:02:07Z</time>
      </trkpt>
      <trkpt lat="36.8798830" lon="-4.4490630">
        <ele>721.9</ele>
        <time>2018-03-28T10:02:08Z</time>
      </trkpt>
      <trkpt lat="36.8798830" lon="-4.4490630">
        <ele>721.9</ele>
        <time>2018-03-28T10:02:09Z</time>
      </trkpt>
      <trkpt lat="36.8798880" lon="-4.4489320">
        <ele>721.9</ele>
        <time>2018-03-28T10:02:10Z</time>
      </trkpt>
      <trkpt lat="36.8798970" lon="-4.4488630">
        <ele>721.9</ele>
        <time>2018-03-28T10:02:11Z</time>
      </trkpt>
      <trkpt lat="36.8798970" lon="-4.4488630">
        <ele>721.9</ele>
        <time>2018-03-28T10:02:12Z</time>
      </trkpt>
      <trkpt lat="36.8799080" lon="-4.4487320">
        <ele>721.9</ele>
        <time>2018-03-28T10:02:13Z</time>
      </trkpt>
      <trkpt lat="36.8799080" lon="-4.4487320">
        <ele>721.9</ele>
        <time>2018-03-28T10:02:14Z</time>
      </trkpt>
      <trkpt lat="36.8799430" lon="-4.4486180">
        <ele>721.9</ele>
        <time>2018-03-28T10:02:15Z</time>
      </trkpt>
      <trkpt lat="36.8799430" lon="-4.4486180">
        <ele>721.9</ele>
        <time>2018-03-28T10:02:16Z</time>
      </trkpt>
      <trkpt lat="36.8800130" lon="-4.4485250">
        <ele>721.9</ele>
        <time>2018-03-28T10:02:17Z</time>
      </trkpt>
      <trkpt lat="36.8800130" lon="-4.4485250">
        <ele>721.9</ele>
        <time>2018-03-28T10:02:18Z</time>
      </trkpt>
      <trkpt lat="36.8801150" lon="-4.4484670">
        <ele>721.9</ele>
        <time>2018-03-28T10:02:19Z</time>
      </trkpt>
      <trkpt lat="36.8801150" lon="-4.4484670">
        <ele>721.9</ele>
        <time>2018-03-28T10:02:20Z</time>
      </trkpt>
      <trkpt lat="36.8802320" lon="-4.4484330">
        <ele>721.9</ele>
        <time>2018-03-28T10:02:21Z</time>
      </trkpt>
      <trkpt lat="36.8802920" lon="-4.4484200">
        <ele>721.9</ele>
        <time>2018-03-28T10:02:22Z</time>
      </trkpt>
      <trkpt lat="36.8802920" lon="-4.4484200">
        <ele>721.9</ele>
        <time>2018-03-28T10:02:23Z</time>
      </trkpt>
      <trkpt lat="36.8804180" lon="-4.4484100">
        <ele>721.9</ele>
        <time>2018-03-28T10:02:24Z</time>
      </trkpt>
      <trkpt lat="36.8804180" lon="-4.4484100">
        <ele>721.9</ele>
        <time>2018-03-28T10:02:25Z</time>
      </trkpt>
      <trkpt lat="36.8805450" lon="-4.4484120">
        <ele>721.9</ele>
        <time>2018-03-28T10:02:26Z</time>
      </trkpt>
      <trkpt lat="36.8806080" lon="-4.4484120">
        <ele>721.9</ele>
        <time>2018-03-28T10:02:27Z</time>
      </trkpt>
      <trkpt lat="36.8806080" lon="-4.4484120">
        <ele>721.9</ele>
        <time>2018-03-28T10:02:28Z</time>
      </trkpt>
      <trkpt lat="36.8807270" lon="-4.4483880">
        <ele>721.9</ele>
        <time>2018-03-28T10:02:29Z</time>
      </trkpt>
      <trkpt lat="36.8807650" lon="-4.4483380">
        <ele>721.9</ele>
        <time>2018-03-28T10:02:30Z</time>
      </trkpt>
      <trkpt lat="36.8807870" lon="-4.4482670">
        <ele>721.9</ele>
        <time>2018-03-28T10:02:31Z</time>
      </trkpt>
      <trkpt lat="36.8807870" lon="-4.4482670">
        <ele>721.9</ele>
        <time>2018-03-28T10:02:32Z</time>
      </trkpt>
      <trkpt lat="36.8807780" lon="-4.4481220">
        <ele>721.9</ele>
        <time>2018-03-28T10:02:33Z</time>
      </trkpt>
      <trkpt lat="36.8807780" lon="-4.4481220">
        <ele>721.9</ele>
        <time>2018-03-28T10:02:34Z</time>
      </trkpt>
      <trkpt lat="36.8806840" lon="-4.4479880">
        <ele>721.9</ele>
        <time>2018-03-28T10:02:35Z</time>
      </trkpt>
      <trkpt lat="36.8806640" lon="-4.4479590">
        <ele>721.9</ele>
        <time>2018-03-28T10:02:36Z</time>
      </trkpt>
      <trkpt lat="36.8806250" lon="-4.4479000">
        <ele>721.9</ele>
        <time>2018-03-28T10:02:37Z</time>
      </trkpt>
      <trkpt lat="36.8806250" lon="-4.4479000">
        <ele>721.9</ele>
        <time>2018-03-28T10:02:38Z</time>
      </trkpt>
      <trkpt lat="36.8805770" lon="-4.4477750">
        <ele>721.9</ele>
        <time>2018-03-28T10:02:39Z</time>
      </trkpt>
      <trkpt lat="36.8805670" lon="-4.4477050">
        <ele>721.9</ele>
        <time>2018-03-28T10:02:40Z</time>
      </trkpt>
      <trkpt lat="36.8805670" lon="-4.4477050">
        <ele>721.9</ele>
        <time>2018-03-28T10:02:41Z</time>
      </trkpt>
      <trkpt lat="36.8805600" lon="-4.4475400">
        <ele>721.9</ele>
        <time>2018-03-28T10:02:42Z</time>
      </trkpt>
      <trkpt lat="36.8805620" lon="-4.4475070">
        <ele>723.9</ele>
        <time>2018-03-28T10:02:43Z</time>
      </trkpt>
      <trkpt lat="36.8805650" lon="-4.4474420">
        <ele>723.9</ele>
        <time>2018-03-28T10:02:44Z</time>
      </trkpt>
      <trkpt lat="36.8805930" lon="-4.4473770">
        <ele>723.9</ele>
        <time>2018-03-28T10:02:45Z</time>
      </trkpt>
      <trkpt lat="36.8806270" lon="-4.4473150">
        <ele>723.9</ele>
        <time>2018-03-28T10:02:46Z</time>
      </trkpt>
      <trkpt lat="36.8806270" lon="-4.4473150">
        <ele>723.9</ele>
        <time>2018-03-28T10:02:47Z</time>
      </trkpt>
      <trkpt lat="36.8807180" lon="-4.4472120">
        <ele>723.9</ele>
        <time>2018-03-28T10:02:48Z</time>
      </trkpt>
      <trkpt lat="36.8807730" lon="-4.4471750">
        <ele>723.9</ele>
        <time>2018-03-28T10:02:49Z</time>
      </trkpt>
      <trkpt lat="36.8807730" lon="-4.4471750">
        <ele>723.9</ele>
        <time>2018-03-28T10:02:50Z</time>
      </trkpt>
      <trkpt lat="36.8808980" lon="-4.4471250">
        <ele>723.9</ele>
        <time>2018-03-28T10:02:51Z</time>
      </trkpt>
      <trkpt lat="36.8809650" lon="-4.4471230">
        <ele>723.9</ele>
        <time>2018-03-28T10:02:52Z</time>
      </trkpt>
      <trkpt lat="36.8809650" lon="-4.4471230">
        <ele>723.9</ele>
        <time>2018-03-28T10:02:53Z</time>
      </trkpt>
      <trkpt lat="36.8811030" lon="-4.4471630">
        <ele>723.9</ele>
        <time>2018-03-28T10:02:54Z</time>
      </trkpt>
      <trkpt lat="36.8811720" lon="-4.4471970">
        <ele>723.9</ele>
        <time>2018-03-28T10:02:55Z</time>
      </trkpt>
      <trkpt lat="36.8811720" lon="-4.4471970">
        <ele>723.9</ele>
        <time>2018-03-28T10:02:56Z</time>
      </trkpt>
      <trkpt lat="36.8813100" lon="-4.4472570">
        <ele>722.9</ele>
        <time>2018-03-28T10:02:57Z</time>
      </trkpt>
      <trkpt lat="36.8813450" lon="-4.4472540">
        <ele>722.9</ele>
        <time>2018-03-28T10:02:58Z</time>
      </trkpt>
      <trkpt lat="36.8813800" lon="-4.4472510">
        <ele>722.9</ele>
        <time>2018-03-28T10:02:59Z</time>
      </trkpt>
      <trkpt lat="36.8814500" lon="-4.4472450">
        <ele>722.9</ele>
        <time>2018-03-28T10:03:00Z</time>
      </trkpt>
      <trkpt lat="36.8815730" lon="-4.4471550">
        <ele>722.9</ele>
        <time>2018-03-28T10:03:01Z</time>
      </trkpt>
      <trkpt lat="36.8815730" lon="-4.4471550">
        <ele>722.9</ele>
        <time>2018-03-28T10:03:02Z</time>
      </trkpt>
      <trkpt lat="36.8816670" lon="-4.4470080">
        <ele>722.9</ele>
        <time>2018-03-28T10:03:03Z</time>
      </trkpt>
      <trkpt lat="36.8817120" lon="-4.4469320">
        <ele>722.9</ele>
        <time>2018-03-28T10:03:04Z</time>
      </trkpt>
      <trkpt lat="36.8817120" lon="-4.4469320">
        <ele>722.9</ele>
        <time>2018-03-28T10:03:05Z</time>
      </trkpt>
      <trkpt lat="36.8818020" lon="-4.4467730">
        <ele>721.9</ele>
        <time>2018-03-28T10:03:06Z</time>
      </trkpt>
      <trkpt lat="36.8818530" lon="-4.4466980">
        <ele>721.9</ele>
        <time>2018-03-28T10:03:07Z</time>
      </trkpt>
      <trkpt lat="36.8819100" lon="-4.4466330">
        <ele>721.9</ele>
        <time>2018-03-28T10:03:08Z</time>
      </trkpt>
      <trkpt lat="36.8819100" lon="-4.4466330">
        <ele>721.9</ele>
        <time>2018-03-28T10:03:09Z</time>
      </trkpt>
      <trkpt lat="36.8820520" lon="-4.4465670">
        <ele>721.9</ele>
        <time>2018-03-28T10:03:10Z</time>
      </trkpt>
      <trkpt lat="36.8820520" lon="-4.4465670">
        <ele>721.9</ele>
        <time>2018-03-28T10:03:11Z</time>
      </trkpt>
      <trkpt lat="36.8822130" lon="-4.4465900">
        <ele>720.9</ele>
        <time>2018-03-28T10:03:12Z</time>
      </trkpt>
      <trkpt lat="36.8822930" lon="-4.4466180">
        <ele>720.9</ele>
        <time>2018-03-28T10:03:13Z</time>
      </trkpt>
      <trkpt lat="36.8822930" lon="-4.4466180">
        <ele>720.9</ele>
        <time>2018-03-28T10:03:14Z</time>
      </trkpt>
      <trkpt lat="36.8824430" lon="-4.4466950">
        <ele>720.9</ele>
        <time>2018-03-28T10:03:15Z</time>
      </trkpt>
      <trkpt lat="36.8825130" lon="-4.4467430">
        <ele>720.9</ele>
        <time>2018-03-28T10:03:16Z</time>
      </trkpt>
      <trkpt lat="36.8825830" lon="-4.4467930">
        <ele>720.9</ele>
        <time>2018-03-28T10:03:17Z</time>
      </trkpt>
      <trkpt lat="36.8825830" lon="-4.4467930">
        <ele>719.9</ele>
        <time>2018-03-28T10:03:18Z</time>
      </trkpt>
      <trkpt lat="36.8827200" lon="-4.4468880">
        <ele>719.9</ele>
        <time>2018-03-28T10:03:19Z</time>
      </trkpt>
      <trkpt lat="36.8827200" lon="-4.4468880">
        <ele>719.9</ele>
        <time>2018-03-28T10:03:20Z</time>
      </trkpt>
      <trkpt lat="36.8828650" lon="-4.4469080">
        <ele>719.9</ele>
        <time>2018-03-28T10:03:21Z</time>
      </trkpt>
      <trkpt lat="36.8829280" lon="-4.4468700">
        <ele>719.9</ele>
        <time>2018-03-28T10:03:22Z</time>
      </trkpt>
      <trkpt lat="36.8829280" lon="-4.4468700">
        <ele>719.9</ele>
        <time>2018-03-28T10:03:23Z</time>
      </trkpt>
      <trkpt lat="36.8830180" lon="-4.4467130">
        <ele>719.9</ele>
        <time>2018-03-28T10:03:24Z</time>
      </trkpt>
      <trkpt lat="36.8830260" lon="-4.4466930">
        <ele>719.9</ele>
        <time>2018-03-28T10:03:25Z</time>
      </trkpt>
      <trkpt lat="36.8830420" lon="-4.4466530">
        <ele>719.9</ele>
        <time>2018-03-28T10:03:26Z</time>
      </trkpt>
      <trkpt lat="36.8831020" lon="-4.4464920">
        <ele>719.9</ele>
        <time>2018-03-28T10:03:27Z</time>
      </trkpt>
      <trkpt lat="36.8831020" lon="-4.4464920">
        <ele>719.9</ele>
        <time>2018-03-28T10:03:28Z</time>
      </trkpt>
      <trkpt lat="36.8831580" lon="-4.4463270">
        <ele>719.9</ele>
        <time>2018-03-28T10:03:29Z</time>
      </trkpt>
      <trkpt lat="36.8831830" lon="-4.4462420">
        <ele>719.9</ele>
        <time>2018-03-28T10:03:30Z</time>
      </trkpt>
      <trkpt lat="36.8832070" lon="-4.4461530">
        <ele>719.9</ele>
        <time>2018-03-28T10:03:31Z</time>
      </trkpt>
      <trkpt lat="36.8832070" lon="-4.4461530">
        <ele>719.9</ele>
        <time>2018-03-28T10:03:32Z</time>
      </trkpt>
      <trkpt lat="36.8832320" lon="-4.4459750">
        <ele>719.9</ele>
        <time>2018-03-28T10:03:33Z</time>
      </trkpt>
      <trkpt lat="36.8832420" lon="-4.4458850">
        <ele>719.9</ele>
        <time>2018-03-28T10:03:34Z</time>
      </trkpt>
      <trkpt lat="36.8832580" lon="-4.4457930">
        <ele>719.9</ele>
        <time>2018-03-28T10:03:35Z</time>
      </trkpt>
      <trkpt lat="36.8832870" lon="-4.4457050">
        <ele>719.9</ele>
        <time>2018-03-28T10:03:36Z</time>
      </trkpt>
      <trkpt lat="36.8832870" lon="-4.4457050">
        <ele>719.9</ele>
        <time>2018-03-28T10:03:37Z</time>
      </trkpt>
      <trkpt lat="36.8833950" lon="-4.4455600">
        <ele>719.9</ele>
        <time>2018-03-28T10:03:38Z</time>
      </trkpt>
      <trkpt lat="36.8833950" lon="-4.4455600">
        <ele>719.9</ele>
        <time>2018-03-28T10:03:39Z</time>
      </trkpt>
      <trkpt lat="36.8835270" lon="-4.4454500">
        <ele>719.9</ele>
        <time>2018-03-28T10:03:40Z</time>
      </trkpt>
      <trkpt lat="36.8835270" lon="-4.4454500">
        <ele>719.9</ele>
        <time>2018-03-28T10:03:41Z</time>
      </trkpt>
      <trkpt lat="36.8836480" lon="-4.4453430">
        <ele>719.9</ele>
        <time>2018-03-28T10:03:42Z</time>
      </trkpt>
      <trkpt lat="36.8836880" lon="-4.4452780">
        <ele>719.9</ele>
        <time>2018-03-28T10:03:43Z</time>
      </trkpt>
      <trkpt lat="36.8836880" lon="-4.4452780">
        <ele>719.9</ele>
        <time>2018-03-28T10:03:44Z</time>
      </trkpt>
      <trkpt lat="36.8837170" lon="-4.4451170">
        <ele>719.9</ele>
        <time>2018-03-28T10:03:45Z</time>
      </trkpt>
      <trkpt lat="36.8837170" lon="-4.4451170">
        <ele>719.9</ele>
        <time>2018-03-28T10:03:46Z</time>
      </trkpt>
      <trkpt lat="36.8837050" lon="-4.4449330">
        <ele>719.9</ele>
        <time>2018-03-28T10:03:47Z</time>
      </trkpt>
      <trkpt lat="36.8837050" lon="-4.4449330">
        <ele>719.9</ele>
        <time>2018-03-28T10:03:48Z</time>
      </trkpt>
      <trkpt lat="36.8836940" lon="-4.4446800">
        <ele>719.9</ele>
        <time>2018-03-28T10:03:49Z</time>
      </trkpt>
      <trkpt lat="36.8836920" lon="-4.4446280">
        <ele>718.9</ele>
        <time>2018-03-28T10:03:50Z</time>
      </trkpt>
      <trkpt lat="36.8836880" lon="-4.4445230">
        <ele>718.9</ele>
        <time>2018-03-28T10:03:51Z</time>
      </trkpt>
      <trkpt lat="36.8836880" lon="-4.4445230">
        <ele>717.9</ele>
        <time>2018-03-28T10:03:52Z</time>
      </trkpt>
      <trkpt lat="36.8837200" lon="-4.4443130">
        <ele>717.9</ele>
        <time>2018-03-28T10:03:53Z</time>
      </trkpt>
      <trkpt lat="36.8837700" lon="-4.4442200">
        <ele>716.9</ele>
        <time>2018-03-28T10:03:54Z</time>
      </trkpt>
      <trkpt lat="36.8838370" lon="-4.4441470">
        <ele>716.9</ele>
        <time>2018-03-28T10:03:55Z</time>
      </trkpt>
      <trkpt lat="36.8838370" lon="-4.4441470">
        <ele>716.9</ele>
        <time>2018-03-28T10:03:56Z</time>
      </trkpt>
      <trkpt lat="36.8840000" lon="-4.4440800">
        <ele>716.9</ele>
        <time>2018-03-28T10:03:57Z</time>
      </trkpt>
      <trkpt lat="36.8840920" lon="-4.4440730">
        <ele>715.9</ele>
        <time>2018-03-28T10:03:58Z</time>
      </trkpt>
      <trkpt lat="36.8840920" lon="-4.4440730">
        <ele>714.9</ele>
        <time>2018-03-28T10:03:59Z</time>
      </trkpt>
      <trkpt lat="36.8842680" lon="-4.4440770">
        <ele>714.9</ele>
        <time>2018-03-28T10:04:00Z</time>
      </trkpt>
      <trkpt lat="36.8843570" lon="-4.4440870">
        <ele>714.9</ele>
        <time>2018-03-28T10:04:01Z</time>
      </trkpt>
      <trkpt lat="36.8843570" lon="-4.4440870">
        <ele>714.9</ele>
        <time>2018-03-28T10:04:02Z</time>
      </trkpt>
      <trkpt lat="36.8845350" lon="-4.4441150">
        <ele>712.9</ele>
        <time>2018-03-28T10:04:03Z</time>
      </trkpt>
      <trkpt lat="36.8846230" lon="-4.4441300">
        <ele>712.9</ele>
        <time>2018-03-28T10:04:04Z</time>
      </trkpt>
      <trkpt lat="36.8846230" lon="-4.4441300">
        <ele>712.9</ele>
        <time>2018-03-28T10:04:05Z</time>
      </trkpt>
      <trkpt lat="36.8848000" lon="-4.4441450">
        <ele>712.9</ele>
        <time>2018-03-28T10:04:06Z</time>
      </trkpt>
      <trkpt lat="36.8848820" lon="-4.4441330">
        <ele>712.9</ele>
        <time>2018-03-28T10:04:07Z</time>
      </trkpt>
      <trkpt lat="36.8848820" lon="-4.4441330">
        <ele>712.9</ele>
        <time>2018-03-28T10:04:08Z</time>
      </trkpt>
      <trkpt lat="36.8849780" lon="-4.4440020">
        <ele>711.9</ele>
        <time>2018-03-28T10:04:09Z</time>
      </trkpt>
      <trkpt lat="36.8850070" lon="-4.4439120">
        <ele>711.9</ele>
        <time>2018-03-28T10:04:10Z</time>
      </trkpt>
      <trkpt lat="36.8850070" lon="-4.4439120">
        <ele>711.9</ele>
        <time>2018-03-28T10:04:11Z</time>
      </trkpt>
      <trkpt lat="36.8850520" lon="-4.4437250">
        <ele>711.9</ele>
        <time>2018-03-28T10:04:12Z</time>
      </trkpt>
      <trkpt lat="36.8850520" lon="-4.4437250">
        <ele>710.9</ele>
        <time>2018-03-28T10:04:13Z</time>
      </trkpt>
      <trkpt lat="36.8850970" lon="-4.4435350">
        <ele>710.9</ele>
        <time>2018-03-28T10:04:14Z</time>
      </trkpt>
      <trkpt lat="36.8850970" lon="-4.4435350">
        <ele>710.9</ele>
        <time>2018-03-28T10:04:15Z</time>
      </trkpt>
      <trkpt lat="36.8851230" lon="-4.4433420">
        <ele>710.9</ele>
        <time>2018-03-28T10:04:16Z</time>
      </trkpt>
      <trkpt lat="36.8851230" lon="-4.4433420">
        <ele>709.9</ele>
        <time>2018-03-28T10:04:17Z</time>
      </trkpt>
      <trkpt lat="36.8851080" lon="-4.4431400">
        <ele>709.9</ele>
        <time>2018-03-28T10:04:18Z</time>
      </trkpt>
      <trkpt lat="36.8850800" lon="-4.4430380">
        <ele>709.9</ele>
        <time>2018-03-28T10:04:19Z</time>
      </trkpt>
      <trkpt lat="36.8850580" lon="-4.4429590">
        <ele>709.9</ele>
        <time>2018-03-28T10:04:20Z</time>
      </trkpt>
      <trkpt lat="36.8850350" lon="-4.4428800">
        <ele>708.9</ele>
        <time>2018-03-28T10:04:21Z</time>
      </trkpt>
      <trkpt lat="36.8849900" lon="-4.4427230">
        <ele>708.9</ele>
        <time>2018-03-28T10:04:22Z</time>
      </trkpt>
      <trkpt lat="36.8849620" lon="-4.4426170">
        <ele>707.9</ele>
        <time>2018-03-28T10:04:23Z</time>
      </trkpt>
      <trkpt lat="36.8849620" lon="-4.4426170">
        <ele>707.9</ele>
        <time>2018-03-28T10:04:24Z</time>
      </trkpt>
      <trkpt lat="36.8849020" lon="-4.4424020">
        <ele>706.9</ele>
        <time>2018-03-28T10:04:25Z</time>
      </trkpt>
      <trkpt lat="36.8849020" lon="-4.4424020">
        <ele>706.9</ele>
        <time>2018-03-28T10:04:26Z</time>
      </trkpt>
      <trkpt lat="36.8848330" lon="-4.4421850">
        <ele>706.9</ele>
        <time>2018-03-28T10:04:27Z</time>
      </trkpt>
      <trkpt lat="36.8848330" lon="-4.4421850">
        <ele>705.9</ele>
        <time>2018-03-28T10:04:28Z</time>
      </trkpt>
      <trkpt lat="36.8847850" lon="-4.4419820">
        <ele>705.9</ele>
        <time>2018-03-28T10:04:29Z</time>
      </trkpt>
      <trkpt lat="36.8847850" lon="-4.4419820">
        <ele>704.9</ele>
        <time>2018-03-28T10:04:30Z</time>
      </trkpt>
      <trkpt lat="36.8848340" lon="-4.4417390">
        <ele>704.9</ele>
        <time>2018-03-28T10:04:31Z</time>
      </trkpt>
      <trkpt lat="36.8848600" lon="-4.4416950">
        <ele>704.9</ele>
        <time>2018-03-28T10:04:32Z</time>
      </trkpt>
      <trkpt lat="36.8849130" lon="-4.4416070">
        <ele>704.9</ele>
        <time>2018-03-28T10:04:33Z</time>
      </trkpt>
      <trkpt lat="36.8849130" lon="-4.4416070">
        <ele>702.9</ele>
        <time>2018-03-28T10:04:34Z</time>
      </trkpt>
      <trkpt lat="36.8850580" lon="-4.4414550">
        <ele>702.9</ele>
        <time>2018-03-28T10:04:35Z</time>
      </trkpt>
      <trkpt lat="36.8850580" lon="-4.4414550">
        <ele>702.9</ele>
        <time>2018-03-28T10:04:36Z</time>
      </trkpt>
      <trkpt lat="36.8851920" lon="-4.4412900">
        <ele>702.9</ele>
        <time>2018-03-28T10:04:37Z</time>
      </trkpt>
      <trkpt lat="36.8851920" lon="-4.4412900">
        <ele>702.9</ele>
        <time>2018-03-28T10:04:38Z</time>
      </trkpt>
      <trkpt lat="36.8852680" lon="-4.4410820">
        <ele>701.9</ele>
        <time>2018-03-28T10:04:39Z</time>
      </trkpt>
      <trkpt lat="36.8852880" lon="-4.4409730">
        <ele>701.9</ele>
        <time>2018-03-28T10:04:40Z</time>
      </trkpt>
      <trkpt lat="36.8852880" lon="-4.4409730">
        <ele>701.9</ele>
        <time>2018-03-28T10:04:41Z</time>
      </trkpt>
      <trkpt lat="36.8852950" lon="-4.4407520">
        <ele>701.9</ele>
        <time>2018-03-28T10:04:42Z</time>
      </trkpt>
      <trkpt lat="36.8852720" lon="-4.4406450">
        <ele>701.9</ele>
        <time>2018-03-28T10:04:43Z</time>
      </trkpt>
      <trkpt lat="36.8852720" lon="-4.4406450">
        <ele>701.9</ele>
        <time>2018-03-28T10:04:44Z</time>
      </trkpt>
      <trkpt lat="36.8852080" lon="-4.4404400">
        <ele>701.9</ele>
        <time>2018-03-28T10:04:45Z</time>
      </trkpt>
      <trkpt lat="36.8852080" lon="-4.4404400">
        <ele>701.9</ele>
        <time>2018-03-28T10:04:46Z</time>
      </trkpt>
      <trkpt lat="36.8851400" lon="-4.4402320">
        <ele>700.9</ele>
        <time>2018-03-28T10:04:47Z</time>
      </trkpt>
      <trkpt lat="36.8851400" lon="-4.4402320">
        <ele>700.9</ele>
        <time>2018-03-28T10:04:48Z</time>
      </trkpt>
      <trkpt lat="36.8850900" lon="-4.4400180">
        <ele>700.9</ele>
        <time>2018-03-28T10:04:49Z</time>
      </trkpt>
      <trkpt lat="36.8850820" lon="-4.4399050">
        <ele>700.9</ele>
        <time>2018-03-28T10:04:50Z</time>
      </trkpt>
      <trkpt lat="36.8850820" lon="-4.4399050">
        <ele>700.9</ele>
        <time>2018-03-28T10:04:51Z</time>
      </trkpt>
      <trkpt lat="36.8850930" lon="-4.4396720">
        <ele>700.9</ele>
        <time>2018-03-28T10:04:52Z</time>
      </trkpt>
      <trkpt lat="36.8850870" lon="-4.4395520">
        <ele>699.9</ele>
        <time>2018-03-28T10:04:53Z</time>
      </trkpt>
      <trkpt lat="36.8850870" lon="-4.4395520">
        <ele>699.9</ele>
        <time>2018-03-28T10:04:54Z</time>
      </trkpt>
      <trkpt lat="36.8850400" lon="-4.4393250">
        <ele>699.9</ele>
        <time>2018-03-28T10:04:55Z</time>
      </trkpt>
      <trkpt lat="36.8850400" lon="-4.4393250">
        <ele>698.9</ele>
        <time>2018-03-28T10:04:56Z</time>
      </trkpt>
      <trkpt lat="36.8849670" lon="-4.4391100">
        <ele>698.9</ele>
        <time>2018-03-28T10:04:57Z</time>
      </trkpt>
      <trkpt lat="36.8849300" lon="-4.4390050">
        <ele>698.9</ele>
        <time>2018-03-28T10:04:58Z</time>
      </trkpt>
      <trkpt lat="36.8849300" lon="-4.4390050">
        <ele>698.9</ele>
        <time>2018-03-28T10:04:59Z</time>
      </trkpt>
      <trkpt lat="36.8848700" lon="-4.4387920">
        <ele>697.9</ele>
        <time>2018-03-28T10:05:00Z</time>
      </trkpt>
      <trkpt lat="36.8848700" lon="-4.4387920">
        <ele>697.9</ele>
        <time>2018-03-28T10:05:01Z</time>
      </trkpt>
      <trkpt lat="36.8848670" lon="-4.4385680">
        <ele>697.9</ele>
        <time>2018-03-28T10:05:02Z</time>
      </trkpt>
      <trkpt lat="36.8848670" lon="-4.4385680">
        <ele>697.9</ele>
        <time>2018-03-28T10:05:03Z</time>
      </trkpt>
      <trkpt lat="36.8849400" lon="-4.4383520">
        <ele>696.9</ele>
        <time>2018-03-28T10:05:04Z</time>
      </trkpt>
      <trkpt lat="36.8849780" lon="-4.4382450">
        <ele>696.9</ele>
        <time>2018-03-28T10:05:05Z</time>
      </trkpt>
      <trkpt lat="36.8849780" lon="-4.4382450">
        <ele>695.9</ele>
        <time>2018-03-28T10:05:06Z</time>
      </trkpt>
      <trkpt lat="36.8850150" lon="-4.4380150">
        <ele>695.9</ele>
        <time>2018-03-28T10:05:07Z</time>
      </trkpt>
      <trkpt lat="36.8850150" lon="-4.4380150">
        <ele>695.9</ele>
        <time>2018-03-28T10:05:08Z</time>
      </trkpt>
      <trkpt lat="36.8849960" lon="-4.4377550">
        <ele>695.9</ele>
        <time>2018-03-28T10:05:09Z</time>
      </trkpt>
      <trkpt lat="36.8849890" lon="-4.4377270">
        <ele>695.9</ele>
        <time>2018-03-28T10:05:10Z</time>
      </trkpt>
      <trkpt lat="36.8849750" lon="-4.4376720">
        <ele>695.9</ele>
        <time>2018-03-28T10:05:11Z</time>
      </trkpt>
      <trkpt lat="36.8848880" lon="-4.4374650">
        <ele>693.9</ele>
        <time>2018-03-28T10:05:12Z</time>
      </trkpt>
      <trkpt lat="36.8848880" lon="-4.4374650">
        <ele>693.9</ele>
        <time>2018-03-28T10:05:13Z</time>
      </trkpt>
      <trkpt lat="36.8848320" lon="-4.4372450">
        <ele>693.9</ele>
        <time>2018-03-28T10:05:14Z</time>
      </trkpt>
      <trkpt lat="36.8848320" lon="-4.4372450">
        <ele>693.9</ele>
        <time>2018-03-28T10:05:15Z</time>
      </trkpt>
      <trkpt lat="36.8848270" lon="-4.4370020">
        <ele>692.9</ele>
        <time>2018-03-28T10:05:16Z</time>
      </trkpt>
      <trkpt lat="36.8848280" lon="-4.4368700">
        <ele>692.9</ele>
        <time>2018-03-28T10:05:17Z</time>
      </trkpt>
      <trkpt lat="36.8848280" lon="-4.4368700">
        <ele>691.9</ele>
        <time>2018-03-28T10:05:18Z</time>
      </trkpt>
      <trkpt lat="36.8847620" lon="-4.4366200">
        <ele>691.9</ele>
        <time>2018-03-28T10:05:19Z</time>
      </trkpt>
      <trkpt lat="36.8847620" lon="-4.4366200">
        <ele>690.9</ele>
        <time>2018-03-28T10:05:20Z</time>
      </trkpt>
      <trkpt lat="36.8846400" lon="-4.4364220">
        <ele>690.9</ele>
        <time>2018-03-28T10:05:21Z</time>
      </trkpt>
      <trkpt lat="36.8846050" lon="-4.4363100">
        <ele>689.9</ele>
        <time>2018-03-28T10:05:22Z</time>
      </trkpt>
      <trkpt lat="36.8846050" lon="-4.4363100">
        <ele>688.9</ele>
        <time>2018-03-28T10:05:23Z</time>
      </trkpt>
      <trkpt lat="36.8845950" lon="-4.4360630">
        <ele>688.9</ele>
        <time>2018-03-28T10:05:24Z</time>
      </trkpt>
      <trkpt lat="36.8846100" lon="-4.4359420">
        <ele>687.9</ele>
        <time>2018-03-28T10:05:25Z</time>
      </trkpt>
      <trkpt lat="36.8846100" lon="-4.4359420">
        <ele>687.9</ele>
        <time>2018-03-28T10:05:26Z</time>
      </trkpt>
      <trkpt lat="36.8846380" lon="-4.4357320">
        <ele>685.9</ele>
        <time>2018-03-28T10:05:27Z</time>
      </trkpt>
      <trkpt lat="36.8846550" lon="-4.4356450">
        <ele>685.9</ele>
        <time>2018-03-28T10:05:28Z</time>
      </trkpt>
      <trkpt lat="36.8846980" lon="-4.4355650">
        <ele>684.9</ele>
        <time>2018-03-28T10:05:29Z</time>
      </trkpt>
      <trkpt lat="36.8846980" lon="-4.4355650">
        <ele>684.9</ele>
        <time>2018-03-28T10:05:30Z</time>
      </trkpt>
      <trkpt lat="36.8848270" lon="-4.4354580">
        <ele>683.9</ele>
        <time>2018-03-28T10:05:31Z</time>
      </trkpt>
      <trkpt lat="36.8848270" lon="-4.4354580">
        <ele>683.9</ele>
        <time>2018-03-28T10:05:32Z</time>
      </trkpt>
      <trkpt lat="36.8849870" lon="-4.4354030">
        <ele>682.9</ele>
        <time>2018-03-28T10:05:33Z</time>
      </trkpt>
      <trkpt lat="36.8850720" lon="-4.4353800">
        <ele>682.9</ele>
        <time>2018-03-28T10:05:34Z</time>
      </trkpt>
      <trkpt lat="36.8850720" lon="-4.4353800">
        <ele>681.9</ele>
        <time>2018-03-28T10:05:35Z</time>
      </trkpt>
      <trkpt lat="36.8852400" lon="-4.4353450">
        <ele>681.9</ele>
        <time>2018-03-28T10:05:36Z</time>
      </trkpt>
      <trkpt lat="36.8853100" lon="-4.4353420">
        <ele>681.9</ele>
        <time>2018-03-28T10:05:37Z</time>
      </trkpt>
      <trkpt lat="36.8853530" lon="-4.4353690">
        <ele>681.9</ele>
        <time>2018-03-28T10:05:38Z</time>
      </trkpt>
      <trkpt lat="36.8853960" lon="-4.4353960">
        <ele>680.9</ele>
        <time>2018-03-28T10:05:39Z</time>
      </trkpt>
      <trkpt lat="36.8854820" lon="-4.4354500">
        <ele>680.9</ele>
        <time>2018-03-28T10:05:40Z</time>
      </trkpt>
      <trkpt lat="36.8854820" lon="-4.4354500">
        <ele>679.9</ele>
        <time>2018-03-28T10:05:41Z</time>
      </trkpt>
      <trkpt lat="36.8855980" lon="-4.4355650">
        <ele>679.9</ele>
        <time>2018-03-28T10:05:42Z</time>
      </trkpt>
      <trkpt lat="36.8855980" lon="-4.4355650">
        <ele>678.9</ele>
        <time>2018-03-28T10:05:43Z</time>
      </trkpt>
      <trkpt lat="36.8857500" lon="-4.4356020">
        <ele>678.9</ele>
        <time>2018-03-28T10:05:44Z</time>
      </trkpt>
      <trkpt lat="36.8857500" lon="-4.4356020">
        <ele>677.9</ele>
        <time>2018-03-28T10:05:45Z</time>
      </trkpt>
      <trkpt lat="36.8859180" lon="-4.4355770">
        <ele>677.9</ele>
        <time>2018-03-28T10:05:46Z</time>
      </trkpt>
      <trkpt lat="36.8859180" lon="-4.4355770">
        <ele>676.9</ele>
        <time>2018-03-28T10:05:47Z</time>
      </trkpt>
      <trkpt lat="36.8860970" lon="-4.4355670">
        <ele>676.9</ele>
        <time>2018-03-28T10:05:48Z</time>
      </trkpt>
      <trkpt lat="36.8860970" lon="-4.4355670">
        <ele>675.9</ele>
        <time>2018-03-28T10:05:49Z</time>
      </trkpt>
      <trkpt lat="36.8862720" lon="-4.4356350">
        <ele>675.9</ele>
        <time>2018-03-28T10:05:50Z</time>
      </trkpt>
      <trkpt lat="36.8862720" lon="-4.4356350">
        <ele>673.9</ele>
        <time>2018-03-28T10:05:51Z</time>
      </trkpt>
      <trkpt lat="36.8864230" lon="-4.4357870">
        <ele>673.9</ele>
        <time>2018-03-28T10:05:52Z</time>
      </trkpt>
      <trkpt lat="36.8864900" lon="-4.4358800">
        <ele>672.9</ele>
        <time>2018-03-28T10:05:53Z</time>
      </trkpt>
      <trkpt lat="36.8864900" lon="-4.4358800">
        <ele>671.9</ele>
        <time>2018-03-28T10:05:54Z</time>
      </trkpt>
      <trkpt lat="36.8866280" lon="-4.4360820">
        <ele>671.9</ele>
        <time>2018-03-28T10:05:55Z</time>
      </trkpt>
      <trkpt lat="36.8866280" lon="-4.4360820">
        <ele>669.9</ele>
        <time>2018-03-28T10:05:56Z</time>
      </trkpt>
      <trkpt lat="36.8867430" lon="-4.4363150">
        <ele>669.9</ele>
        <time>2018-03-28T10:05:57Z</time>
      </trkpt>
      <trkpt lat="36.8867900" lon="-4.4364430">
        <ele>668.9</ele>
        <time>2018-03-28T10:05:58Z</time>
      </trkpt>
      <trkpt lat="36.8867900" lon="-4.4364430">
        <ele>668.9</ele>
        <time>2018-03-28T10:05:59Z</time>
      </trkpt>
      <trkpt lat="36.8868680" lon="-4.4367100">
        <ele>666.9</ele>
        <time>2018-03-28T10:06:00Z</time>
      </trkpt>
      <trkpt lat="36.8869020" lon="-4.4368400">
        <ele>666.9</ele>
        <time>2018-03-28T10:06:01Z</time>
      </trkpt>
      <trkpt lat="36.8869280" lon="-4.4369570">
        <ele>665.9</ele>
        <time>2018-03-28T10:06:02Z</time>
      </trkpt>
      <trkpt lat="36.8869280" lon="-4.4369570">
        <ele>665.9</ele>
        <time>2018-03-28T10:06:03Z</time>
      </trkpt>
      <trkpt lat="36.8870200" lon="-4.4371630">
        <ele>663.9</ele>
        <time>2018-03-28T10:06:04Z</time>
      </trkpt>
      <trkpt lat="36.8870200" lon="-4.4371630">
        <ele>663.9</ele>
        <time>2018-03-28T10:06:05Z</time>
      </trkpt>
      <trkpt lat="36.8871900" lon="-4.4372780">
        <ele>662.9</ele>
        <time>2018-03-28T10:06:06Z</time>
      </trkpt>
      <trkpt lat="36.8871900" lon="-4.4372780">
        <ele>662.9</ele>
        <time>2018-03-28T10:06:07Z</time>
      </trkpt>
      <trkpt lat="36.8873500" lon="-4.4373900">
        <ele>660.9</ele>
        <time>2018-03-28T10:06:08Z</time>
      </trkpt>
      <trkpt lat="36.8873500" lon="-4.4373900">
        <ele>660.9</ele>
        <time>2018-03-28T10:06:09Z</time>
      </trkpt>
      <trkpt lat="36.8874930" lon="-4.4375720">
        <ele>659.9</ele>
        <time>2018-03-28T10:06:10Z</time>
      </trkpt>
      <trkpt lat="36.8874930" lon="-4.4375720">
        <ele>659.9</ele>
        <time>2018-03-28T10:06:11Z</time>
      </trkpt>
      <trkpt lat="36.8876300" lon="-4.4377830">
        <ele>657.9</ele>
        <time>2018-03-28T10:06:12Z</time>
      </trkpt>
      <trkpt lat="36.8876300" lon="-4.4377830">
        <ele>657.9</ele>
        <time>2018-03-28T10:06:13Z</time>
      </trkpt>
      <trkpt lat="36.8877280" lon="-4.4380070">
        <ele>656.9</ele>
        <time>2018-03-28T10:06:14Z</time>
      </trkpt>
      <trkpt lat="36.8877640" lon="-4.4381420">
        <ele>656.9</ele>
        <time>2018-03-28T10:06:15Z</time>
      </trkpt>
      <trkpt lat="36.8877710" lon="-4.4381720">
        <ele>654.9</ele>
        <time>2018-03-28T10:06:16Z</time>
      </trkpt>
      <trkpt lat="36.8877780" lon="-4.4382020">
        <ele>654.9</ele>
        <time>2018-03-28T10:06:17Z</time>
      </trkpt>
      <trkpt lat="36.8877980" lon="-4.4382920">
        <ele>653.9</ele>
        <time>2018-03-28T10:06:18Z</time>
      </trkpt>
      <trkpt lat="36.8878330" lon="-4.4384300">
        <ele>653.9</ele>
        <time>2018-03-28T10:06:19Z</time>
      </trkpt>
      <trkpt lat="36.8878580" lon="-4.4384850">
        <ele>652.9</ele>
        <time>2018-03-28T10:06:20Z</time>
      </trkpt>
      <trkpt lat="36.8878580" lon="-4.4384850">
        <ele>651.9</ele>
        <time>2018-03-28T10:06:21Z</time>
      </trkpt>
      <trkpt lat="36.8879480" lon="-4.4385730">
        <ele>651.9</ele>
        <time>2018-03-28T10:06:22Z</time>
      </trkpt>
      <trkpt lat="36.8879480" lon="-4.4385730">
        <ele>650.9</ele>
        <time>2018-03-28T10:06:23Z</time>
      </trkpt>
      <trkpt lat="36.8880550" lon="-4.4385520">
        <ele>650.9</ele>
        <time>2018-03-28T10:06:24Z</time>
      </trkpt>
      <trkpt lat="36.8880920" lon="-4.4384770">
        <ele>650.9</ele>
        <time>2018-03-28T10:06:25Z</time>
      </trkpt>
      <trkpt lat="36.8880920" lon="-4.4384770">
        <ele>649.9</ele>
        <time>2018-03-28T10:06:26Z</time>
      </trkpt>
      <trkpt lat="36.8881300" lon="-4.4382950">
        <ele>649.9</ele>
        <time>2018-03-28T10:06:27Z</time>
      </trkpt>
      <trkpt lat="36.8881300" lon="-4.4382950">
        <ele>648.9</ele>
        <time>2018-03-28T10:06:28Z</time>
      </trkpt>
      <trkpt lat="36.8881550" lon="-4.4380870">
        <ele>648.9</ele>
        <time>2018-03-28T10:06:29Z</time>
      </trkpt>
      <trkpt lat="36.8881550" lon="-4.4380870">
        <ele>647.9</ele>
        <time>2018-03-28T10:06:30Z</time>
      </trkpt>
      <trkpt lat="36.8882180" lon="-4.4378770">
        <ele>647.9</ele>
        <time>2018-03-28T10:06:31Z</time>
      </trkpt>
      <trkpt lat="36.8882180" lon="-4.4378770">
        <ele>646.9</ele>
        <time>2018-03-28T10:06:32Z</time>
      </trkpt>
      <trkpt lat="36.8883320" lon="-4.4376870">
        <ele>646.9</ele>
        <time>2018-03-28T10:06:33Z</time>
      </trkpt>
      <trkpt lat="36.8883320" lon="-4.4376870">
        <ele>645.9</ele>
        <time>2018-03-28T10:06:34Z</time>
      </trkpt>
      <trkpt lat="36.8884570" lon="-4.4375380">
        <ele>645.9</ele>
        <time>2018-03-28T10:06:35Z</time>
      </trkpt>
      <trkpt lat="36.8885250" lon="-4.4374820">
        <ele>644.9</ele>
        <time>2018-03-28T10:06:36Z</time>
      </trkpt>
      <trkpt lat="36.8885250" lon="-4.4374820">
        <ele>644.9</ele>
        <time>2018-03-28T10:06:37Z</time>
      </trkpt>
      <trkpt lat="36.8886850" lon="-4.4374530">
        <ele>643.9</ele>
        <time>2018-03-28T10:06:38Z</time>
      </trkpt>
      <trkpt lat="36.8886850" lon="-4.4374530">
        <ele>643.9</ele>
        <time>2018-03-28T10:06:39Z</time>
      </trkpt>
      <trkpt lat="36.8888570" lon="-4.4374670">
        <ele>642.9</ele>
        <time>2018-03-28T10:06:40Z</time>
      </trkpt>
      <trkpt lat="36.8888570" lon="-4.4374670">
        <ele>642.9</ele>
        <time>2018-03-28T10:06:41Z</time>
      </trkpt>
      <trkpt lat="36.8890220" lon="-4.4373570">
        <ele>641.9</ele>
        <time>2018-03-28T10:06:42Z</time>
      </trkpt>
      <trkpt lat="36.8890820" lon="-4.4372580">
        <ele>641.9</ele>
        <time>2018-03-28T10:06:43Z</time>
      </trkpt>
      <trkpt lat="36.8891060" lon="-4.4371670">
        <ele>639.9</ele>
        <time>2018-03-28T10:06:44Z</time>
      </trkpt>
      <trkpt lat="36.8891290" lon="-4.4370760">
        <ele>639.9</ele>
        <time>2018-03-28T10:06:45Z</time>
      </trkpt>
      <trkpt lat="36.8891750" lon="-4.4368930">
        <ele>638.9</ele>
        <time>2018-03-28T10:06:46Z</time>
      </trkpt>
      <trkpt lat="36.8891750" lon="-4.4368930">
        <ele>638.9</ele>
        <time>2018-03-28T10:06:47Z</time>
      </trkpt>
      <trkpt lat="36.8892120" lon="-4.4366820">
        <ele>637.9</ele>
        <time>2018-03-28T10:06:48Z</time>
      </trkpt>
      <trkpt lat="36.8892500" lon="-4.4366230">
        <ele>637.9</ele>
        <time>2018-03-28T10:06:49Z</time>
      </trkpt>
      <trkpt lat="36.8892500" lon="-4.4366230">
        <ele>635.9</ele>
        <time>2018-03-28T10:06:50Z</time>
      </trkpt>
      <trkpt lat="36.8893450" lon="-4.4366120">
        <ele>633.9</ele>
        <time>2018-03-28T10:06:51Z</time>
      </trkpt>
      <trkpt lat="36.8893450" lon="-4.4366120">
        <ele>633.9</ele>
        <time>2018-03-28T10:06:52Z</time>
      </trkpt>
      <trkpt lat="36.8894650" lon="-4.4366920">
        <ele>633.9</ele>
        <time>2018-03-28T10:06:53Z</time>
      </trkpt>
      <trkpt lat="36.8894650" lon="-4.4366920">
        <ele>632.9</ele>
        <time>2018-03-28T10:06:54Z</time>
      </trkpt>
      <trkpt lat="36.8895670" lon="-4.4368400">
        <ele>631.9</ele>
        <time>2018-03-28T10:06:55Z</time>
      </trkpt>
      <trkpt lat="36.8895670" lon="-4.4368400">
        <ele>631.9</ele>
        <time>2018-03-28T10:06:56Z</time>
      </trkpt>
      <trkpt lat="36.8896680" lon="-4.4370220">
        <ele>630.9</ele>
        <time>2018-03-28T10:06:57Z</time>
      </trkpt>
      <trkpt lat="36.8897200" lon="-4.4371170">
        <ele>630.9</ele>
        <time>2018-03-28T10:06:58Z</time>
      </trkpt>
      <trkpt lat="36.8897820" lon="-4.4372080">
        <ele>628.9</ele>
        <time>2018-03-28T10:06:59Z</time>
      </trkpt>
      <trkpt lat="36.8897820" lon="-4.4372080">
        <ele>628.9</ele>
        <time>2018-03-28T10:07:00Z</time>
      </trkpt>
      <trkpt lat="36.8899270" lon="-4.4373520">
        <ele>627.9</ele>
        <time>2018-03-28T10:07:01Z</time>
      </trkpt>
      <trkpt lat="36.8899270" lon="-4.4373520">
        <ele>627.9</ele>
        <time>2018-03-28T10:07:02Z</time>
      </trkpt>
      <trkpt lat="36.8900770" lon="-4.4374100">
        <ele>625.9</ele>
        <time>2018-03-28T10:07:03Z</time>
      </trkpt>
      <trkpt lat="36.8901630" lon="-4.4374100">
        <ele>625.9</ele>
        <time>2018-03-28T10:07:04Z</time>
      </trkpt>
      <trkpt lat="36.8901630" lon="-4.4374100">
        <ele>624.9</ele>
        <time>2018-03-28T10:07:05Z</time>
      </trkpt>
      <trkpt lat="36.8903370" lon="-4.4373630">
        <ele>624.9</ele>
        <time>2018-03-28T10:07:06Z</time>
      </trkpt>
      <trkpt lat="36.8903370" lon="-4.4373630">
        <ele>623.9</ele>
        <time>2018-03-28T10:07:07Z</time>
      </trkpt>
      <trkpt lat="36.8905370" lon="-4.4373380">
        <ele>623.9</ele>
        <time>2018-03-28T10:07:08Z</time>
      </trkpt>
      <trkpt lat="36.8905370" lon="-4.4373380">
        <ele>622.9</ele>
        <time>2018-03-28T10:07:09Z</time>
      </trkpt>
      <trkpt lat="36.8907430" lon="-4.4373400">
        <ele>622.9</ele>
        <time>2018-03-28T10:07:10Z</time>
      </trkpt>
      <trkpt lat="36.8907430" lon="-4.4373400">
        <ele>621.9</ele>
        <time>2018-03-28T10:07:11Z</time>
      </trkpt>
      <trkpt lat="36.8909280" lon="-4.4373470">
        <ele>621.9</ele>
        <time>2018-03-28T10:07:12Z</time>
      </trkpt>
      <trkpt lat="36.8910150" lon="-4.4373620">
        <ele>619.9</ele>
        <time>2018-03-28T10:07:13Z</time>
      </trkpt>
      <trkpt lat="36.8910150" lon="-4.4373620">
        <ele>619.9</ele>
        <time>2018-03-28T10:07:14Z</time>
      </trkpt>
      <trkpt lat="36.8911720" lon="-4.4374620">
        <ele>618.9</ele>
        <time>2018-03-28T10:07:15Z</time>
      </trkpt>
      <trkpt lat="36.8911720" lon="-4.4374620">
        <ele>618.9</ele>
        <time>2018-03-28T10:07:16Z</time>
      </trkpt>
      <trkpt lat="36.8912720" lon="-4.4376550">
        <ele>616.9</ele>
        <time>2018-03-28T10:07:17Z</time>
      </trkpt>
      <trkpt lat="36.8912720" lon="-4.4376550">
        <ele>615.9</ele>
        <time>2018-03-28T10:07:18Z</time>
      </trkpt>
      <trkpt lat="36.8913430" lon="-4.4378250">
        <ele>615.9</ele>
        <time>2018-03-28T10:07:19Z</time>
      </trkpt>
      <trkpt lat="36.8913430" lon="-4.4378250">
        <ele>613.9</ele>
        <time>2018-03-28T10:07:20Z</time>
      </trkpt>
      <trkpt lat="36.8914420" lon="-4.4379370">
        <ele>613.9</ele>
        <time>2018-03-28T10:07:21Z</time>
      </trkpt>
      <trkpt lat="36.8915100" lon="-4.4379420">
        <ele>612.9</ele>
        <time>2018-03-28T10:07:22Z</time>
      </trkpt>
      <trkpt lat="36.8915100" lon="-4.4379420">
        <ele>612.9</ele>
        <time>2018-03-28T10:07:23Z</time>
      </trkpt>
      <trkpt lat="36.8916450" lon="-4.4378620">
        <ele>611.9</ele>
        <time>2018-03-28T10:07:24Z</time>
      </trkpt>
      <trkpt lat="36.8916450" lon="-4.4378620">
        <ele>611.9</ele>
        <time>2018-03-28T10:07:25Z</time>
      </trkpt>
      <trkpt lat="36.8917730" lon="-4.4377320">
        <ele>609.9</ele>
        <time>2018-03-28T10:07:26Z</time>
      </trkpt>
      <trkpt lat="36.8917730" lon="-4.4377320">
        <ele>609.9</ele>
        <time>2018-03-28T10:07:27Z</time>
      </trkpt>
      <trkpt lat="36.8919170" lon="-4.4375820">
        <ele>608.9</ele>
        <time>2018-03-28T10:07:28Z</time>
      </trkpt>
      <trkpt lat="36.8919170" lon="-4.4375820">
        <ele>608.9</ele>
        <time>2018-03-28T10:07:29Z</time>
      </trkpt>
      <trkpt lat="36.8920600" lon="-4.4374100">
        <ele>607.9</ele>
        <time>2018-03-28T10:07:30Z</time>
      </trkpt>
      <trkpt lat="36.8921300" lon="-4.4373130">
        <ele>607.9</ele>
        <time>2018-03-28T10:07:31Z</time>
      </trkpt>
      <trkpt lat="36.8921900" lon="-4.4372080">
        <ele>605.9</ele>
        <time>2018-03-28T10:07:32Z</time>
      </trkpt>
      <trkpt lat="36.8921900" lon="-4.4372080">
        <ele>605.9</ele>
        <time>2018-03-28T10:07:33Z</time>
      </trkpt>
      <trkpt lat="36.8922800" lon="-4.4369770">
        <ele>604.9</ele>
        <time>2018-03-28T10:07:34Z</time>
      </trkpt>
      <trkpt lat="36.8922800" lon="-4.4369770">
        <ele>604.9</ele>
        <time>2018-03-28T10:07:35Z</time>
      </trkpt>
      <trkpt lat="36.8923170" lon="-4.4367300">
        <ele>603.9</ele>
        <time>2018-03-28T10:07:36Z</time>
      </trkpt>
      <trkpt lat="36.8923050" lon="-4.4366020">
        <ele>603.9</ele>
        <time>2018-03-28T10:07:37Z</time>
      </trkpt>
      <trkpt lat="36.8923050" lon="-4.4366020">
        <ele>601.9</ele>
        <time>2018-03-28T10:07:38Z</time>
      </trkpt>
      <trkpt lat="36.8922050" lon="-4.4363720">
        <ele>601.9</ele>
        <time>2018-03-28T10:07:39Z</time>
      </trkpt>
      <trkpt lat="36.8922050" lon="-4.4363720">
        <ele>600.9</ele>
        <time>2018-03-28T10:07:40Z</time>
      </trkpt>
      <trkpt lat="36.8920670" lon="-4.4361720">
        <ele>600.9</ele>
        <time>2018-03-28T10:07:41Z</time>
      </trkpt>
      <trkpt lat="36.8920670" lon="-4.4361720">
        <ele>599.9</ele>
        <time>2018-03-28T10:07:42Z</time>
      </trkpt>
      <trkpt lat="36.8919530" lon="-4.4359570">
        <ele>599.9</ele>
        <time>2018-03-28T10:07:43Z</time>
      </trkpt>
      <trkpt lat="36.8919530" lon="-4.4359570">
        <ele>598.9</ele>
        <time>2018-03-28T10:07:44Z</time>
      </trkpt>
      <trkpt lat="36.8918980" lon="-4.4357000">
        <ele>598.9</ele>
        <time>2018-03-28T10:07:45Z</time>
      </trkpt>
      <trkpt lat="36.8918880" lon="-4.4355580">
        <ele>596.9</ele>
        <time>2018-03-28T10:07:46Z</time>
      </trkpt>
      <trkpt lat="36.8918880" lon="-4.4355580">
        <ele>596.9</ele>
        <time>2018-03-28T10:07:47Z</time>
      </trkpt>
      <trkpt lat="36.8918770" lon="-4.4352630">
        <ele>595.9</ele>
        <time>2018-03-28T10:07:48Z</time>
      </trkpt>
      <trkpt lat="36.8918770" lon="-4.4352630">
        <ele>593.9</ele>
        <time>2018-03-28T10:07:49Z</time>
      </trkpt>
      <trkpt lat="36.8918650" lon="-4.4349580">
        <ele>593.9</ele>
        <time>2018-03-28T10:07:50Z</time>
      </trkpt>
      <trkpt lat="36.8918650" lon="-4.4349580">
        <ele>591.9</ele>
        <time>2018-03-28T10:07:51Z</time>
      </trkpt>
      <trkpt lat="36.8918670" lon="-4.4346630">
        <ele>591.9</ele>
        <time>2018-03-28T10:07:52Z</time>
      </trkpt>
      <trkpt lat="36.8918670" lon="-4.4346630">
        <ele>590.9</ele>
        <time>2018-03-28T10:07:53Z</time>
      </trkpt>
      <trkpt lat="36.8919130" lon="-4.4343920">
        <ele>590.9</ele>
        <time>2018-03-28T10:07:54Z</time>
      </trkpt>
      <trkpt lat="36.8919130" lon="-4.4343920">
        <ele>588.9</ele>
        <time>2018-03-28T10:07:55Z</time>
      </trkpt>
      <trkpt lat="36.8920180" lon="-4.4341580">
        <ele>588.9</ele>
        <time>2018-03-28T10:07:56Z</time>
      </trkpt>
      <trkpt lat="36.8920180" lon="-4.4341580">
        <ele>586.9</ele>
        <time>2018-03-28T10:07:57Z</time>
      </trkpt>
      <trkpt lat="36.8921820" lon="-4.4339830">
        <ele>586.9</ele>
        <time>2018-03-28T10:07:58Z</time>
      </trkpt>
      <trkpt lat="36.8922450" lon="-4.4339000">
        <ele>586.9</ele>
        <time>2018-03-28T10:07:59Z</time>
      </trkpt>
      <trkpt lat="36.8922450" lon="-4.4339000">
        <ele>585.9</ele>
        <time>2018-03-28T10:08:00Z</time>
      </trkpt>
      <trkpt lat="36.8922920" lon="-4.4336730">
        <ele>585.9</ele>
        <time>2018-03-28T10:08:01Z</time>
      </trkpt>
      <trkpt lat="36.8922920" lon="-4.4336730">
        <ele>583.9</ele>
        <time>2018-03-28T10:08:02Z</time>
      </trkpt>
      <trkpt lat="36.8923380" lon="-4.4334300">
        <ele>583.9</ele>
        <time>2018-03-28T10:08:03Z</time>
      </trkpt>
      <trkpt lat="36.8923380" lon="-4.4334300">
        <ele>581.9</ele>
        <time>2018-03-28T10:08:04Z</time>
      </trkpt>
      <trkpt lat="36.8924170" lon="-4.4331750">
        <ele>581.9</ele>
        <time>2018-03-28T10:08:05Z</time>
      </trkpt>
      <trkpt lat="36.8924170" lon="-4.4331750">
        <ele>580.9</ele>
        <time>2018-03-28T10:08:06Z</time>
      </trkpt>
      <trkpt lat="36.8925020" lon="-4.4329230">
        <ele>580.9</ele>
        <time>2018-03-28T10:08:07Z</time>
      </trkpt>
      <trkpt lat="36.8925020" lon="-4.4329230">
        <ele>578.9</ele>
        <time>2018-03-28T10:08:08Z</time>
      </trkpt>
      <trkpt lat="36.8926020" lon="-4.4326920">
        <ele>578.9</ele>
        <time>2018-03-28T10:08:09Z</time>
      </trkpt>
      <trkpt lat="36.8926570" lon="-4.4325830">
        <ele>576.9</ele>
        <time>2018-03-28T10:08:10Z</time>
      </trkpt>
      <trkpt lat="36.8926570" lon="-4.4325830">
        <ele>576.9</ele>
        <time>2018-03-28T10:08:11Z</time>
      </trkpt>
      <trkpt lat="36.8928020" lon="-4.4323830">
        <ele>575.9</ele>
        <time>2018-03-28T10:08:12Z</time>
      </trkpt>
      <trkpt lat="36.8928820" lon="-4.4322930">
        <ele>575.9</ele>
        <time>2018-03-28T10:08:13Z</time>
      </trkpt>
      <trkpt lat="36.8928820" lon="-4.4322930">
        <ele>573.9</ele>
        <time>2018-03-28T10:08:14Z</time>
      </trkpt>
      <trkpt lat="36.8930180" lon="-4.4321430">
        <ele>573.9</ele>
        <time>2018-03-28T10:08:15Z</time>
      </trkpt>
      <trkpt lat="36.8930180" lon="-4.4321430">
        <ele>571.9</ele>
        <time>2018-03-28T10:08:16Z</time>
      </trkpt>
      <trkpt lat="36.8931380" lon="-4.4320230">
        <ele>571.9</ele>
        <time>2018-03-28T10:08:17Z</time>
      </trkpt>
      <trkpt lat="36.8931380" lon="-4.4320230">
        <ele>570.9</ele>
        <time>2018-03-28T10:08:18Z</time>
      </trkpt>
      <trkpt lat="36.8932970" lon="-4.4319570">
        <ele>570.9</ele>
        <time>2018-03-28T10:08:19Z</time>
      </trkpt>
      <trkpt lat="36.8932970" lon="-4.4319570">
        <ele>569.9</ele>
        <time>2018-03-28T10:08:20Z</time>
      </trkpt>
      <trkpt lat="36.8934800" lon="-4.4319450">
        <ele>569.9</ele>
        <time>2018-03-28T10:08:21Z</time>
      </trkpt>
      <trkpt lat="36.8934800" lon="-4.4319450">
        <ele>568.9</ele>
        <time>2018-03-28T10:08:22Z</time>
      </trkpt>
      <trkpt lat="36.8936630" lon="-4.4320050">
        <ele>566.9</ele>
        <time>2018-03-28T10:08:23Z</time>
      </trkpt>
      <trkpt lat="36.8936630" lon="-4.4320050">
        <ele>566.9</ele>
        <time>2018-03-28T10:08:24Z</time>
      </trkpt>
      <trkpt lat="36.8938300" lon="-4.4321420">
        <ele>565.9</ele>
        <time>2018-03-28T10:08:25Z</time>
      </trkpt>
      <trkpt lat="36.8938300" lon="-4.4321420">
        <ele>565.9</ele>
        <time>2018-03-28T10:08:26Z</time>
      </trkpt>
      <trkpt lat="36.8939900" lon="-4.4322680">
        <ele>564.9</ele>
        <time>2018-03-28T10:08:27Z</time>
      </trkpt>
      <trkpt lat="36.8939900" lon="-4.4322680">
        <ele>564.9</ele>
        <time>2018-03-28T10:08:28Z</time>
      </trkpt>
      <trkpt lat="36.8941180" lon="-4.4323570">
        <ele>563.9</ele>
        <time>2018-03-28T10:08:29Z</time>
      </trkpt>
      <trkpt lat="36.8941180" lon="-4.4323570">
        <ele>563.9</ele>
        <time>2018-03-28T10:08:30Z</time>
      </trkpt>
      <trkpt lat="36.8942400" lon="-4.4323950">
        <ele>562.9</ele>
        <time>2018-03-28T10:08:31Z</time>
      </trkpt>
      <trkpt lat="36.8942400" lon="-4.4323950">
        <ele>562.9</ele>
        <time>2018-03-28T10:08:32Z</time>
      </trkpt>
      <trkpt lat="36.8943750" lon="-4.4324380">
        <ele>560.9</ele>
        <time>2018-03-28T10:08:33Z</time>
      </trkpt>
      <trkpt lat="36.8943750" lon="-4.4324380">
        <ele>560.9</ele>
        <time>2018-03-28T10:08:34Z</time>
      </trkpt>
      <trkpt lat="36.8945200" lon="-4.4324930">
        <ele>559.9</ele>
        <time>2018-03-28T10:08:35Z</time>
      </trkpt>
      <trkpt lat="36.8945930" lon="-4.4325330">
        <ele>559.9</ele>
        <time>2018-03-28T10:08:36Z</time>
      </trkpt>
      <trkpt lat="36.8946680" lon="-4.4325820">
        <ele>559.9</ele>
        <time>2018-03-28T10:08:37Z</time>
      </trkpt>
      <trkpt lat="36.8946680" lon="-4.4325820">
        <ele>559.9</ele>
        <time>2018-03-28T10:08:38Z</time>
      </trkpt>
      <trkpt lat="36.8948180" lon="-4.4326920">
        <ele>558.9</ele>
        <time>2018-03-28T10:08:39Z</time>
      </trkpt>
      <trkpt lat="36.8948180" lon="-4.4326920">
        <ele>558.9</ele>
        <time>2018-03-28T10:08:40Z</time>
      </trkpt>
      <trkpt lat="36.8949550" lon="-4.4327930">
        <ele>557.9</ele>
        <time>2018-03-28T10:08:41Z</time>
      </trkpt>
      <trkpt lat="36.8950230" lon="-4.4328420">
        <ele>557.9</ele>
        <time>2018-03-28T10:08:42Z</time>
      </trkpt>
      <trkpt lat="36.8950880" lon="-4.4329000">
        <ele>556.9</ele>
        <time>2018-03-28T10:08:43Z</time>
      </trkpt>
      <trkpt lat="36.8950880" lon="-4.4329000">
        <ele>556.9</ele>
        <time>2018-03-28T10:08:44Z</time>
      </trkpt>
      <trkpt lat="36.8952030" lon="-4.4330480">
        <ele>555.9</ele>
        <time>2018-03-28T10:08:45Z</time>
      </trkpt>
      <trkpt lat="36.8952030" lon="-4.4330480">
        <ele>554.9</ele>
        <time>2018-03-28T10:08:46Z</time>
      </trkpt>
      <trkpt lat="36.8953000" lon="-4.4332170">
        <ele>554.9</ele>
        <time>2018-03-28T10:08:47Z</time>
      </trkpt>
      <trkpt lat="36.8953000" lon="-4.4332170">
        <ele>553.9</ele>
        <time>2018-03-28T10:08:48Z</time>
      </trkpt>
      <trkpt lat="36.8953520" lon="-4.4334150">
        <ele>553.9</ele>
        <time>2018-03-28T10:08:49Z</time>
      </trkpt>
      <trkpt lat="36.8953660" lon="-4.4334780">
        <ele>553.9</ele>
        <time>2018-03-28T10:08:50Z</time>
      </trkpt>
      <trkpt lat="36.8953800" lon="-4.4335410">
        <ele>552.9</ele>
        <time>2018-03-28T10:08:51Z</time>
      </trkpt>
      <trkpt lat="36.8954080" lon="-4.4336680">
        <ele>551.9</ele>
        <time>2018-03-28T10:08:52Z</time>
      </trkpt>
      <trkpt lat="36.8954080" lon="-4.4336680">
        <ele>551.9</ele>
        <time>2018-03-28T10:08:53Z</time>
      </trkpt>
      <trkpt lat="36.8954850" lon="-4.4338280">
        <ele>550.9</ele>
        <time>2018-03-28T10:08:54Z</time>
      </trkpt>
      <trkpt lat="36.8954850" lon="-4.4338280">
        <ele>550.9</ele>
        <time>2018-03-28T10:08:55Z</time>
      </trkpt>
      <trkpt lat="36.8956250" lon="-4.4340040">
        <ele>549.9</ele>
        <time>2018-03-28T10:08:56Z</time>
      </trkpt>
      <trkpt lat="36.8956540" lon="-4.4340450">
        <ele>549.9</ele>
        <time>2018-03-28T10:08:57Z</time>
      </trkpt>
      <trkpt lat="36.8956820" lon="-4.4340870">
        <ele>548.9</ele>
        <time>2018-03-28T10:08:58Z</time>
      </trkpt>
      <trkpt lat="36.8957670" lon="-4.4342130">
        <ele>548.9</ele>
        <time>2018-03-28T10:08:59Z</time>
      </trkpt>
      <trkpt lat="36.8957670" lon="-4.4342130">
        <ele>547.9</ele>
        <time>2018-03-28T10:09:00Z</time>
      </trkpt>
      <trkpt lat="36.8958750" lon="-4.4344000">
        <ele>547.9</ele>
        <time>2018-03-28T10:09:01Z</time>
      </trkpt>
      <trkpt lat="36.8958750" lon="-4.4344000">
        <ele>546.9</ele>
        <time>2018-03-28T10:09:02Z</time>
      </trkpt>
      <trkpt lat="36.8959970" lon="-4.4345850">
        <ele>546.9</ele>
        <time>2018-03-28T10:09:03Z</time>
      </trkpt>
      <trkpt lat="36.8960570" lon="-4.4346720">
        <ele>545.9</ele>
        <time>2018-03-28T10:09:04Z</time>
      </trkpt>
      <trkpt lat="36.8960570" lon="-4.4346720">
        <ele>545.9</ele>
        <time>2018-03-28T10:09:05Z</time>
      </trkpt>
      <trkpt lat="36.8961680" lon="-4.4348120">
        <ele>543.9</ele>
        <time>2018-03-28T10:09:06Z</time>
      </trkpt>
      <trkpt lat="36.8962120" lon="-4.4348630">
        <ele>543.9</ele>
        <time>2018-03-28T10:09:07Z</time>
      </trkpt>
      <trkpt lat="36.8962120" lon="-4.4348630">
        <ele>542.9</ele>
        <time>2018-03-28T10:09:08Z</time>
      </trkpt>
      <trkpt lat="36.8962830" lon="-4.4349280">
        <ele>542.9</ele>
        <time>2018-03-28T10:09:09Z</time>
      </trkpt>
      <trkpt lat="36.8962830" lon="-4.4349280">
        <ele>541.9</ele>
        <time>2018-03-28T10:09:10Z</time>
      </trkpt>
      <trkpt lat="36.8963770" lon="-4.4349900">
        <ele>541.9</ele>
        <time>2018-03-28T10:09:11Z</time>
      </trkpt>
      <trkpt lat="36.8964330" lon="-4.4350200">
        <ele>540.9</ele>
        <time>2018-03-28T10:09:12Z</time>
      </trkpt>
      <trkpt lat="36.8964980" lon="-4.4350350">
        <ele>540.9</ele>
        <time>2018-03-28T10:09:13Z</time>
      </trkpt>
      <trkpt lat="36.8964980" lon="-4.4350350">
        <ele>539.9</ele>
        <time>2018-03-28T10:09:14Z</time>
      </trkpt>
      <trkpt lat="36.8966400" lon="-4.4350420">
        <ele>539.9</ele>
        <time>2018-03-28T10:09:15Z</time>
      </trkpt>
      <trkpt lat="36.8966400" lon="-4.4350420">
        <ele>538.9</ele>
        <time>2018-03-28T10:09:16Z</time>
      </trkpt>
      <trkpt lat="36.8967850" lon="-4.4350370">
        <ele>538.9</ele>
        <time>2018-03-28T10:09:17Z</time>
      </trkpt>
      <trkpt lat="36.8967850" lon="-4.4350370">
        <ele>537.9</ele>
        <time>2018-03-28T10:09:18Z</time>
      </trkpt>
      <trkpt lat="36.8968900" lon="-4.4350450">
        <ele>537.9</ele>
        <time>2018-03-28T10:09:19Z</time>
      </trkpt>
      <trkpt lat="36.8968900" lon="-4.4350450">
        <ele>535.9</ele>
        <time>2018-03-28T10:09:20Z</time>
      </trkpt>
      <trkpt lat="36.8969570" lon="-4.4350650">
        <ele>535.9</ele>
        <time>2018-03-28T10:09:21Z</time>
      </trkpt>
      <trkpt lat="36.8969570" lon="-4.4350650">
        <ele>535.9</ele>
        <time>2018-03-28T10:09:22Z</time>
      </trkpt>
      <trkpt lat="36.8970130" lon="-4.4350080">
        <ele>535.9</ele>
        <time>2018-03-28T10:09:23Z</time>
      </trkpt>
      <trkpt lat="36.8970130" lon="-4.4350080">
        <ele>534.9</ele>
        <time>2018-03-28T10:09:24Z</time>
      </trkpt>
      <trkpt lat="36.8970600" lon="-4.4349050">
        <ele>534.9</ele>
        <time>2018-03-28T10:09:25Z</time>
      </trkpt>
      <trkpt lat="36.8970600" lon="-4.4349050">
        <ele>534.9</ele>
        <time>2018-03-28T10:09:26Z</time>
      </trkpt>
      <trkpt lat="36.8970920" lon="-4.4347650">
        <ele>534.9</ele>
        <time>2018-03-28T10:09:27Z</time>
      </trkpt>
      <trkpt lat="36.8971070" lon="-4.4346880">
        <ele>532.9</ele>
        <time>2018-03-28T10:09:28Z</time>
      </trkpt>
      <trkpt lat="36.8971070" lon="-4.4346880">
        <ele>532.9</ele>
        <time>2018-03-28T10:09:29Z</time>
      </trkpt>
      <trkpt lat="36.8971180" lon="-4.4345550">
        <ele>531.9</ele>
        <time>2018-03-28T10:09:30Z</time>
      </trkpt>
      <trkpt lat="36.8971180" lon="-4.4345550">
        <ele>531.9</ele>
        <time>2018-03-28T10:09:31Z</time>
      </trkpt>
      <trkpt lat="36.8970830" lon="-4.4344300">
        <ele>530.9</ele>
        <time>2018-03-28T10:09:32Z</time>
      </trkpt>
      <trkpt lat="36.8970830" lon="-4.4344300">
        <ele>530.9</ele>
        <time>2018-03-28T10:09:33Z</time>
      </trkpt>
      <trkpt lat="36.8970580" lon="-4.4343400">
        <ele>529.9</ele>
        <time>2018-03-28T10:09:34Z</time>
      </trkpt>
      <trkpt lat="36.8970580" lon="-4.4343400">
        <ele>529.9</ele>
        <time>2018-03-28T10:09:35Z</time>
      </trkpt>
      <trkpt lat="36.8970620" lon="-4.4342300">
        <ele>527.9</ele>
        <time>2018-03-28T10:09:36Z</time>
      </trkpt>
      <trkpt lat="36.8970620" lon="-4.4342300">
        <ele>527.9</ele>
        <time>2018-03-28T10:09:37Z</time>
      </trkpt>
      <trkpt lat="36.8970400" lon="-4.4340870">
        <ele>527.9</ele>
        <time>2018-03-28T10:09:38Z</time>
      </trkpt>
      <trkpt lat="36.8970400" lon="-4.4340870">
        <ele>527.9</ele>
        <time>2018-03-28T10:09:39Z</time>
      </trkpt>
      <trkpt lat="36.8969950" lon="-4.4339170">
        <ele>526.9</ele>
        <time>2018-03-28T10:09:40Z</time>
      </trkpt>
      <trkpt lat="36.8969950" lon="-4.4339170">
        <ele>526.9</ele>
        <time>2018-03-28T10:09:41Z</time>
      </trkpt>
      <trkpt lat="36.8969520" lon="-4.4337300">
        <ele>525.9</ele>
        <time>2018-03-28T10:09:42Z</time>
      </trkpt>
      <trkpt lat="36.8969520" lon="-4.4337300">
        <ele>525.9</ele>
        <time>2018-03-28T10:09:43Z</time>
      </trkpt>
      <trkpt lat="36.8969080" lon="-4.4335230">
        <ele>524.9</ele>
        <time>2018-03-28T10:09:44Z</time>
      </trkpt>
      <trkpt lat="36.8969080" lon="-4.4335230">
        <ele>523.9</ele>
        <time>2018-03-28T10:09:45Z</time>
      </trkpt>
      <trkpt lat="36.8968580" lon="-4.4333000">
        <ele>523.9</ele>
        <time>2018-03-28T10:09:46Z</time>
      </trkpt>
      <trkpt lat="36.8968580" lon="-4.4333000">
        <ele>523.9</ele>
        <time>2018-03-28T10:09:47Z</time>
      </trkpt>
      <trkpt lat="36.8968080" lon="-4.4330630">
        <ele>523.9</ele>
        <time>2018-03-28T10:09:48Z</time>
      </trkpt>
      <trkpt lat="36.8968080" lon="-4.4330630">
        <ele>522.9</ele>
        <time>2018-03-28T10:09:49Z</time>
      </trkpt>
      <trkpt lat="36.8967630" lon="-4.4328170">
        <ele>522.9</ele>
        <time>2018-03-28T10:09:50Z</time>
      </trkpt>
      <trkpt lat="36.8967630" lon="-4.4328170">
        <ele>521.9</ele>
        <time>2018-03-28T10:09:51Z</time>
      </trkpt>
      <trkpt lat="36.8967150" lon="-4.4325650">
        <ele>521.9</ele>
        <time>2018-03-28T10:09:52Z</time>
      </trkpt>
      <trkpt lat="36.8967150" lon="-4.4325650">
        <ele>521.9</ele>
        <time>2018-03-28T10:09:53Z</time>
      </trkpt>
      <trkpt lat="36.8966600" lon="-4.4323000">
        <ele>520.9</ele>
        <time>2018-03-28T10:09:54Z</time>
      </trkpt>
      <trkpt lat="36.8966300" lon="-4.4321620">
        <ele>519.9</ele>
        <time>2018-03-28T10:09:55Z</time>
      </trkpt>
      <trkpt lat="36.8966300" lon="-4.4321620">
        <ele>519.9</ele>
        <time>2018-03-28T10:09:56Z</time>
      </trkpt>
      <trkpt lat="36.8965670" lon="-4.4318730">
        <ele>517.9</ele>
        <time>2018-03-28T10:09:57Z</time>
      </trkpt>
      <trkpt lat="36.8965330" lon="-4.4317270">
        <ele>517.9</ele>
        <time>2018-03-28T10:09:58Z</time>
      </trkpt>
      <trkpt lat="36.8965330" lon="-4.4317270">
        <ele>515.9</ele>
        <time>2018-03-28T10:09:59Z</time>
      </trkpt>
      <trkpt lat="36.8964730" lon="-4.4314380">
        <ele>515.9</ele>
        <time>2018-03-28T10:10:00Z</time>
      </trkpt>
      <trkpt lat="36.8964450" lon="-4.4313030">
        <ele>513.9</ele>
        <time>2018-03-28T10:10:01Z</time>
      </trkpt>
      <trkpt lat="36.8964450" lon="-4.4313030">
        <ele>513.9</ele>
        <time>2018-03-28T10:10:02Z</time>
      </trkpt>
      <trkpt lat="36.8963880" lon="-4.4310580">
        <ele>511.9</ele>
        <time>2018-03-28T10:10:03Z</time>
      </trkpt>
      <trkpt lat="36.8963880" lon="-4.4310580">
        <ele>511.9</ele>
        <time>2018-03-28T10:10:04Z</time>
      </trkpt>
      <trkpt lat="36.8963430" lon="-4.4308400">
        <ele>511.9</ele>
        <time>2018-03-28T10:10:05Z</time>
      </trkpt>
      <trkpt lat="36.8963430" lon="-4.4308400">
        <ele>508.9</ele>
        <time>2018-03-28T10:10:06Z</time>
      </trkpt>
      <trkpt lat="36.8963100" lon="-4.4306530">
        <ele>508.9</ele>
        <time>2018-03-28T10:10:07Z</time>
      </trkpt>
      <trkpt lat="36.8963100" lon="-4.4306530">
        <ele>506.9</ele>
        <time>2018-03-28T10:10:08Z</time>
      </trkpt>
      <trkpt lat="36.8962430" lon="-4.4305120">
        <ele>506.9</ele>
        <time>2018-03-28T10:10:09Z</time>
      </trkpt>
      <trkpt lat="36.8962430" lon="-4.4305120">
        <ele>504.9</ele>
        <time>2018-03-28T10:10:10Z</time>
      </trkpt>
      <trkpt lat="36.8961670" lon="-4.4303760">
        <ele>504.9</ele>
        <time>2018-03-28T10:10:11Z</time>
      </trkpt>
      <trkpt lat="36.8961590" lon="-4.4303610">
        <ele>504.9</ele>
        <time>2018-03-28T10:10:12Z</time>
      </trkpt>
      <trkpt lat="36.8961430" lon="-4.4303300">
        <ele>503.9</ele>
        <time>2018-03-28T10:10:13Z</time>
      </trkpt>
      <trkpt lat="36.8961130" lon="-4.4301900">
        <ele>503.9</ele>
        <time>2018-03-28T10:10:14Z</time>
      </trkpt>
      <trkpt lat="36.8961550" lon="-4.4301300">
        <ele>503.9</ele>
        <time>2018-03-28T10:10:15Z</time>
      </trkpt>
      <trkpt lat="36.8961550" lon="-4.4301300">
        <ele>503.9</ele>
        <time>2018-03-28T10:10:16Z</time>
      </trkpt>
      <trkpt lat="36.8962720" lon="-4.4300720">
        <ele>502.9</ele>
        <time>2018-03-28T10:10:17Z</time>
      </trkpt>
      <trkpt lat="36.8962720" lon="-4.4300720">
        <ele>502.9</ele>
        <time>2018-03-28T10:10:18Z</time>
      </trkpt>
      <trkpt lat="36.8964030" lon="-4.4300970">
        <ele>502.9</ele>
        <time>2018-03-28T10:10:19Z</time>
      </trkpt>
      <trkpt lat="36.8964750" lon="-4.4301080">
        <ele>502.9</ele>
        <time>2018-03-28T10:10:20Z</time>
      </trkpt>
      <trkpt lat="36.8964750" lon="-4.4301080">
        <ele>501.9</ele>
        <time>2018-03-28T10:10:21Z</time>
      </trkpt>
      <trkpt lat="36.8966230" lon="-4.4301100">
        <ele>501.9</ele>
        <time>2018-03-28T10:10:22Z</time>
      </trkpt>
      <trkpt lat="36.8966230" lon="-4.4301100">
        <ele>500.9</ele>
        <time>2018-03-28T10:10:23Z</time>
      </trkpt>
      <trkpt lat="36.8967850" lon="-4.4300920">
        <ele>500.9</ele>
        <time>2018-03-28T10:10:24Z</time>
      </trkpt>
      <trkpt lat="36.8967850" lon="-4.4300920">
        <ele>499.9</ele>
        <time>2018-03-28T10:10:25Z</time>
      </trkpt>
      <trkpt lat="36.8969550" lon="-4.4300720">
        <ele>499.9</ele>
        <time>2018-03-28T10:10:26Z</time>
      </trkpt>
      <trkpt lat="36.8969550" lon="-4.4300720">
        <ele>499.9</ele>
        <time>2018-03-28T10:10:27Z</time>
      </trkpt>
      <trkpt lat="36.8971250" lon="-4.4300500">
        <ele>499.9</ele>
        <time>2018-03-28T10:10:28Z</time>
      </trkpt>
      <trkpt lat="36.8972080" lon="-4.4300420">
        <ele>499.9</ele>
        <time>2018-03-28T10:10:29Z</time>
      </trkpt>
      <trkpt lat="36.8972880" lon="-4.4300270">
        <ele>499.9</ele>
        <time>2018-03-28T10:10:30Z</time>
      </trkpt>
      <trkpt lat="36.8973680" lon="-4.4300070">
        <ele>499.9</ele>
        <time>2018-03-28T10:10:31Z</time>
      </trkpt>
      <trkpt lat="36.8973680" lon="-4.4300070">
        <ele>499.9</ele>
        <time>2018-03-28T10:10:32Z</time>
      </trkpt>
      <trkpt lat="36.8975150" lon="-4.4299380">
        <ele>499.9</ele>
        <time>2018-03-28T10:10:33Z</time>
      </trkpt>
      <trkpt lat="36.8975780" lon="-4.4298920">
        <ele>499.9</ele>
        <time>2018-03-28T10:10:34Z</time>
      </trkpt>
      <trkpt lat="36.8975780" lon="-4.4298920">
        <ele>499.9</ele>
        <time>2018-03-28T10:10:35Z</time>
      </trkpt>
      <trkpt lat="36.8976730" lon="-4.4297770">
        <ele>499.9</ele>
        <time>2018-03-28T10:10:36Z</time>
      </trkpt>
      <trkpt lat="36.8977120" lon="-4.4297080">
        <ele>498.9</ele>
        <time>2018-03-28T10:10:37Z</time>
      </trkpt>
      <trkpt lat="36.8977120" lon="-4.4297080">
        <ele>498.9</ele>
        <time>2018-03-28T10:10:38Z</time>
      </trkpt>
      <trkpt lat="36.8977680" lon="-4.4295650">
        <ele>498.9</ele>
        <time>2018-03-28T10:10:39Z</time>
      </trkpt>
      <trkpt lat="36.8977880" lon="-4.4294880">
        <ele>498.9</ele>
        <time>2018-03-28T10:10:40Z</time>
      </trkpt>
      <trkpt lat="36.8977880" lon="-4.4294880">
        <ele>498.9</ele>
        <time>2018-03-28T10:10:41Z</time>
      </trkpt>
      <trkpt lat="36.8977970" lon="-4.4293230">
        <ele>498.9</ele>
        <time>2018-03-28T10:10:42Z</time>
      </trkpt>
      <trkpt lat="36.8977900" lon="-4.4292330">
        <ele>498.9</ele>
        <time>2018-03-28T10:10:43Z</time>
      </trkpt>
      <trkpt lat="36.8977720" lon="-4.4291400">
        <ele>498.9</ele>
        <time>2018-03-28T10:10:44Z</time>
      </trkpt>
      <trkpt lat="36.8977720" lon="-4.4291400">
        <ele>497.9</ele>
        <time>2018-03-28T10:10:45Z</time>
      </trkpt>
      <trkpt lat="36.8977070" lon="-4.4289770">
        <ele>497.9</ele>
        <time>2018-03-28T10:10:46Z</time>
      </trkpt>
      <trkpt lat="36.8977070" lon="-4.4289770">
        <ele>496.9</ele>
        <time>2018-03-28T10:10:47Z</time>
      </trkpt>
      <trkpt lat="36.8976350" lon="-4.4288600">
        <ele>495.9</ele>
        <time>2018-03-28T10:10:48Z</time>
      </trkpt>
      <trkpt lat="36.8976350" lon="-4.4288600">
        <ele>495.9</ele>
        <time>2018-03-28T10:10:49Z</time>
      </trkpt>
      <trkpt lat="36.8976020" lon="-4.4287580">
        <ele>495.9</ele>
        <time>2018-03-28T10:10:50Z</time>
      </trkpt>
      <trkpt lat="36.8976020" lon="-4.4287580">
        <ele>495.9</ele>
        <time>2018-03-28T10:10:51Z</time>
      </trkpt>
      <trkpt lat="36.8975870" lon="-4.4286980">
        <ele>495.9</ele>
        <time>2018-03-28T10:10:52Z</time>
      </trkpt>
      <trkpt lat="36.8975880" lon="-4.4286830">
        <ele>495.9</ele>
        <time>2018-03-28T10:10:53Z</time>
      </trkpt>
      <trkpt lat="36.8975880" lon="-4.4286670">
        <ele>495.9</ele>
        <time>2018-03-28T10:10:54Z</time>
      </trkpt>
      <trkpt lat="36.8975900" lon="-4.4286620">
        <ele>495.9</ele>
        <time>2018-03-28T10:10:55Z</time>
      </trkpt>
      <trkpt lat="36.8975900" lon="-4.4286620">
        <ele>495.9</ele>
        <time>2018-03-28T10:10:56Z</time>
      </trkpt>
      <trkpt lat="36.8975900" lon="-4.4286550">
        <ele>495.9</ele>
        <time>2018-03-28T10:10:57Z</time>
      </trkpt>
      <trkpt lat="36.8975900" lon="-4.4286550">
        <ele>495.9</ele>
        <time>2018-03-28T10:10:58Z</time>
      </trkpt>
      <trkpt lat="36.8975920" lon="-4.4285920">
        <ele>495.9</ele>
        <time>2018-03-28T10:10:59Z</time>
      </trkpt>
      <trkpt lat="36.8975920" lon="-4.4285920">
        <ele>495.9</ele>
        <time>2018-03-28T10:11:00Z</time>
      </trkpt>
      <trkpt lat="36.8975920" lon="-4.4285080">
        <ele>495.9</ele>
        <time>2018-03-28T10:11:01Z</time>
      </trkpt>
      <trkpt lat="36.8975920" lon="-4.4285080">
        <ele>495.9</ele>
        <time>2018-03-28T10:11:02Z</time>
      </trkpt>
      <trkpt lat="36.8976030" lon="-4.4283900">
        <ele>495.9</ele>
        <time>2018-03-28T10:11:03Z</time>
      </trkpt>
      <trkpt lat="36.8976030" lon="-4.4283900">
        <ele>495.9</ele>
        <time>2018-03-28T10:11:04Z</time>
      </trkpt>
      <trkpt lat="36.8976350" lon="-4.4282370">
        <ele>495.9</ele>
        <time>2018-03-28T10:11:05Z</time>
      </trkpt>
      <trkpt lat="36.8976350" lon="-4.4282370">
        <ele>493.9</ele>
        <time>2018-03-28T10:11:06Z</time>
      </trkpt>
      <trkpt lat="36.8976820" lon="-4.4280600">
        <ele>493.9</ele>
        <time>2018-03-28T10:11:07Z</time>
      </trkpt>
      <trkpt lat="36.8977150" lon="-4.4279650">
        <ele>492.9</ele>
        <time>2018-03-28T10:11:08Z</time>
      </trkpt>
      <trkpt lat="36.8977450" lon="-4.4278900">
        <ele>492.9</ele>
        <time>2018-03-28T10:11:09Z</time>
      </trkpt>
      <trkpt lat="36.8977740" lon="-4.4278150">
        <ele>491.9</ele>
        <time>2018-03-28T10:11:10Z</time>
      </trkpt>
      <trkpt lat="36.8978330" lon="-4.4276650">
        <ele>491.9</ele>
        <time>2018-03-28T10:11:11Z</time>
      </trkpt>
      <trkpt lat="36.8978770" lon="-4.4275630">
        <ele>490.9</ele>
        <time>2018-03-28T10:11:12Z</time>
      </trkpt>
      <trkpt lat="36.8978770" lon="-4.4275630">
        <ele>489.9</ele>
        <time>2018-03-28T10:11:13Z</time>
      </trkpt>
      <trkpt lat="36.8979630" lon="-4.4273630">
        <ele>489.9</ele>
        <time>2018-03-28T10:11:14Z</time>
      </trkpt>
      <trkpt lat="36.8979870" lon="-4.4273120">
        <ele>488.9</ele>
        <time>2018-03-28T10:11:15Z</time>
      </trkpt>
      <trkpt lat="36.8980110" lon="-4.4272600">
        <ele>488.9</ele>
        <time>2018-03-28T10:11:16Z</time>
      </trkpt>
      <trkpt lat="36.8980580" lon="-4.4271570">
        <ele>488.9</ele>
        <time>2018-03-28T10:11:17Z</time>
      </trkpt>
      <trkpt lat="36.8981550" lon="-4.4269400">
        <ele>488.9</ele>
        <time>2018-03-28T10:11:18Z</time>
      </trkpt>
      <trkpt lat="36.8982030" lon="-4.4268280">
        <ele>486.9</ele>
        <time>2018-03-28T10:11:19Z</time>
      </trkpt>
      <trkpt lat="36.8982030" lon="-4.4268280">
        <ele>486.9</ele>
        <time>2018-03-28T10:11:20Z</time>
      </trkpt>
      <trkpt lat="36.8982950" lon="-4.4265950">
        <ele>486.9</ele>
        <time>2018-03-28T10:11:21Z</time>
      </trkpt>
      <trkpt lat="36.8983210" lon="-4.4265030">
        <ele>486.9</ele>
        <time>2018-03-28T10:11:22Z</time>
      </trkpt>
      <trkpt lat="36.8983470" lon="-4.4264110">
        <ele>486.9</ele>
        <time>2018-03-28T10:11:23Z</time>
      </trkpt>
      <trkpt lat="36.8983980" lon="-4.4262270">
        <ele>485.9</ele>
        <time>2018-03-28T10:11:24Z</time>
      </trkpt>
      <trkpt lat="36.8983980" lon="-4.4262270">
        <ele>485.9</ele>
        <time>2018-03-28T10:11:25Z</time>
      </trkpt>
      <trkpt lat="36.8984430" lon="-4.4259780">
        <ele>485.9</ele>
        <time>2018-03-28T10:11:26Z</time>
      </trkpt>
      <trkpt lat="36.8984430" lon="-4.4259780">
        <ele>485.9</ele>
        <time>2018-03-28T10:11:27Z</time>
      </trkpt>
      <trkpt lat="36.8984830" lon="-4.4257300">
        <ele>484.9</ele>
        <time>2018-03-28T10:11:28Z</time>
      </trkpt>
      <trkpt lat="36.8984830" lon="-4.4257300">
        <ele>484.9</ele>
        <time>2018-03-28T10:11:29Z</time>
      </trkpt>
      <trkpt lat="36.8985180" lon="-4.4254870">
        <ele>484.9</ele>
        <time>2018-03-28T10:11:30Z</time>
      </trkpt>
      <trkpt lat="36.8985350" lon="-4.4253670">
        <ele>484.9</ele>
        <time>2018-03-28T10:11:31Z</time>
      </trkpt>
      <trkpt lat="36.8985350" lon="-4.4253670">
        <ele>484.9</ele>
        <time>2018-03-28T10:11:32Z</time>
      </trkpt>
      <trkpt lat="36.8985670" lon="-4.4251320">
        <ele>484.9</ele>
        <time>2018-03-28T10:11:33Z</time>
      </trkpt>
      <trkpt lat="36.8985670" lon="-4.4251320">
        <ele>484.9</ele>
        <time>2018-03-28T10:11:34Z</time>
      </trkpt>
      <trkpt lat="36.8985980" lon="-4.4249070">
        <ele>484.9</ele>
        <time>2018-03-28T10:11:35Z</time>
      </trkpt>
      <trkpt lat="36.8986130" lon="-4.4247980">
        <ele>484.9</ele>
        <time>2018-03-28T10:11:36Z</time>
      </trkpt>
      <trkpt lat="36.8986280" lon="-4.4246930">
        <ele>484.9</ele>
        <time>2018-03-28T10:11:37Z</time>
      </trkpt>
      <trkpt lat="36.8986280" lon="-4.4246930">
        <ele>484.9</ele>
        <time>2018-03-28T10:11:38Z</time>
      </trkpt>
      <trkpt lat="36.8986530" lon="-4.4244870">
        <ele>484.9</ele>
        <time>2018-03-28T10:11:39Z</time>
      </trkpt>
      <trkpt lat="36.8986530" lon="-4.4244870">
        <ele>484.9</ele>
        <time>2018-03-28T10:11:40Z</time>
      </trkpt>
      <trkpt lat="36.8986830" lon="-4.4242870">
        <ele>484.9</ele>
        <time>2018-03-28T10:11:41Z</time>
      </trkpt>
      <trkpt lat="36.8986980" lon="-4.4241870">
        <ele>484.9</ele>
        <time>2018-03-28T10:11:42Z</time>
      </trkpt>
      <trkpt lat="36.8987130" lon="-4.4240880">
        <ele>484.9</ele>
        <time>2018-03-28T10:11:43Z</time>
      </trkpt>
      <trkpt lat="36.8987130" lon="-4.4240880">
        <ele>484.9</ele>
        <time>2018-03-28T10:11:44Z</time>
      </trkpt>
      <trkpt lat="36.8987400" lon="-4.4238950">
        <ele>484.9</ele>
        <time>2018-03-28T10:11:45Z</time>
      </trkpt>
      <trkpt lat="36.8987400" lon="-4.4238950">
        <ele>484.9</ele>
        <time>2018-03-28T10:11:46Z</time>
      </trkpt>
      <trkpt lat="36.8987670" lon="-4.4237070">
        <ele>484.9</ele>
        <time>2018-03-28T10:11:47Z</time>
      </trkpt>
      <trkpt lat="36.8987780" lon="-4.4236150">
        <ele>484.9</ele>
        <time>2018-03-28T10:11:48Z</time>
      </trkpt>
      <trkpt lat="36.8987780" lon="-4.4236150">
        <ele>484.9</ele>
        <time>2018-03-28T10:11:49Z</time>
      </trkpt>
      <trkpt lat="36.8988030" lon="-4.4234320">
        <ele>484.9</ele>
        <time>2018-03-28T10:11:50Z</time>
      </trkpt>
      <trkpt lat="36.8988150" lon="-4.4233400">
        <ele>484.9</ele>
        <time>2018-03-28T10:11:51Z</time>
      </trkpt>
      <trkpt lat="36.8988280" lon="-4.4232500">
        <ele>484.9</ele>
        <time>2018-03-28T10:11:52Z</time>
      </trkpt>
      <trkpt lat="36.8988280" lon="-4.4232500">
        <ele>484.9</ele>
        <time>2018-03-28T10:11:53Z</time>
      </trkpt>
      <trkpt lat="36.8988580" lon="-4.4230730">
        <ele>484.9</ele>
        <time>2018-03-28T10:11:54Z</time>
      </trkpt>
      <trkpt lat="36.8988750" lon="-4.4229880">
        <ele>484.9</ele>
        <time>2018-03-28T10:11:55Z</time>
      </trkpt>
      <trkpt lat="36.8988750" lon="-4.4229880">
        <ele>485.9</ele>
        <time>2018-03-28T10:11:56Z</time>
      </trkpt>
      <trkpt lat="36.8989070" lon="-4.4228230">
        <ele>485.9</ele>
        <time>2018-03-28T10:11:57Z</time>
      </trkpt>
      <trkpt lat="36.8989300" lon="-4.4227200">
        <ele>485.9</ele>
        <time>2018-03-28T10:11:58Z</time>
      </trkpt>
      <trkpt lat="36.8989350" lon="-4.4227000">
        <ele>485.9</ele>
        <time>2018-03-28T10:11:59Z</time>
      </trkpt>
      <trkpt lat="36.8989450" lon="-4.4226600">
        <ele>485.9</ele>
        <time>2018-03-28T10:12:00Z</time>
      </trkpt>
      <trkpt lat="36.8989830" lon="-4.4225050">
        <ele>485.9</ele>
        <time>2018-03-28T10:12:01Z</time>
      </trkpt>
      <trkpt lat="36.8990010" lon="-4.4224510">
        <ele>486.9</ele>
        <time>2018-03-28T10:12:02Z</time>
      </trkpt>
      <trkpt lat="36.8990190" lon="-4.4223960">
        <ele>486.9</ele>
        <time>2018-03-28T10:12:03Z</time>
      </trkpt>
      <trkpt lat="36.8990550" lon="-4.4222870">
        <ele>486.9</ele>
        <time>2018-03-28T10:12:04Z</time>
      </trkpt>
      <trkpt lat="36.8990550" lon="-4.4222870">
        <ele>486.9</ele>
        <time>2018-03-28T10:12:05Z</time>
      </trkpt>
      <trkpt lat="36.8991000" lon="-4.4221520">
        <ele>486.9</ele>
        <time>2018-03-28T10:12:06Z</time>
      </trkpt>
      <trkpt lat="36.8991250" lon="-4.4220870">
        <ele>486.9</ele>
        <time>2018-03-28T10:12:07Z</time>
      </trkpt>
      <trkpt lat="36.8991250" lon="-4.4220870">
        <ele>487.9</ele>
        <time>2018-03-28T10:12:08Z</time>
      </trkpt>
      <trkpt lat="36.8991680" lon="-4.4219620">
        <ele>487.9</ele>
        <time>2018-03-28T10:12:09Z</time>
      </trkpt>
      <trkpt lat="36.8991680" lon="-4.4219620">
        <ele>487.9</ele>
        <time>2018-03-28T10:12:10Z</time>
      </trkpt>
      <trkpt lat="36.8992120" lon="-4.4218450">
        <ele>487.9</ele>
        <time>2018-03-28T10:12:11Z</time>
      </trkpt>
      <trkpt lat="36.8992330" lon="-4.4217920">
        <ele>487.9</ele>
        <time>2018-03-28T10:12:12Z</time>
      </trkpt>
      <trkpt lat="36.8992430" lon="-4.4217670">
        <ele>488.9</ele>
        <time>2018-03-28T10:12:13Z</time>
      </trkpt>
      <trkpt lat="36.8992530" lon="-4.4217420">
        <ele>488.9</ele>
        <time>2018-03-28T10:12:14Z</time>
      </trkpt>
      <trkpt lat="36.8992720" lon="-4.4216920">
        <ele>488.9</ele>
        <time>2018-03-28T10:12:15Z</time>
      </trkpt>
      <trkpt lat="36.8993050" lon="-4.4215920">
        <ele>488.9</ele>
        <time>2018-03-28T10:12:16Z</time>
      </trkpt>
      <trkpt lat="36.8993050" lon="-4.4215920">
        <ele>489.9</ele>
        <time>2018-03-28T10:12:17Z</time>
      </trkpt>
      <trkpt lat="36.8993420" lon="-4.4214950">
        <ele>489.9</ele>
        <time>2018-03-28T10:12:18Z</time>
      </trkpt>
      <trkpt lat="36.8993600" lon="-4.4214470">
        <ele>489.9</ele>
        <time>2018-03-28T10:12:19Z</time>
      </trkpt>
      <trkpt lat="36.8993600" lon="-4.4214470">
        <ele>489.9</ele>
        <time>2018-03-28T10:12:20Z</time>
      </trkpt>
      <trkpt lat="36.8993950" lon="-4.4213550">
        <ele>490.9</ele>
        <time>2018-03-28T10:12:21Z</time>
      </trkpt>
      <trkpt lat="36.8994100" lon="-4.4213100">
        <ele>490.9</ele>
        <time>2018-03-28T10:12:22Z</time>
      </trkpt>
      <trkpt lat="36.8994100" lon="-4.4213100">
        <ele>490.9</ele>
        <time>2018-03-28T10:12:23Z</time>
      </trkpt>
      <trkpt lat="36.8994400" lon="-4.4212250">
        <ele>490.9</ele>
        <time>2018-03-28T10:12:24Z</time>
      </trkpt>
      <trkpt lat="36.8994520" lon="-4.4211820">
        <ele>491.9</ele>
        <time>2018-03-28T10:12:25Z</time>
      </trkpt>
      <trkpt lat="36.8994520" lon="-4.4211820">
        <ele>491.9</ele>
        <time>2018-03-28T10:12:26Z</time>
      </trkpt>
      <trkpt lat="36.8994800" lon="-4.4211000">
        <ele>491.9</ele>
        <time>2018-03-28T10:12:27Z</time>
      </trkpt>
      <trkpt lat="36.8994800" lon="-4.4211000">
        <ele>491.9</ele>
        <time>2018-03-28T10:12:28Z</time>
      </trkpt>
      <trkpt lat="36.8995070" lon="-4.4210170">
        <ele>491.9</ele>
        <time>2018-03-28T10:12:29Z</time>
      </trkpt>
      <trkpt lat="36.8995070" lon="-4.4210170">
        <ele>491.9</ele>
        <time>2018-03-28T10:12:30Z</time>
      </trkpt>
      <trkpt lat="36.8995330" lon="-4.4209320">
        <ele>491.9</ele>
        <time>2018-03-28T10:12:31Z</time>
      </trkpt>
      <trkpt lat="36.8995450" lon="-4.4208900">
        <ele>491.9</ele>
        <time>2018-03-28T10:12:32Z</time>
      </trkpt>
      <trkpt lat="36.8995570" lon="-4.4208480">
        <ele>493.9</ele>
        <time>2018-03-28T10:12:33Z</time>
      </trkpt>
      <trkpt lat="36.8995670" lon="-4.4208070">
        <ele>493.9</ele>
        <time>2018-03-28T10:12:34Z</time>
      </trkpt>
      <trkpt lat="36.8995670" lon="-4.4208070">
        <ele>493.9</ele>
        <time>2018-03-28T10:12:35Z</time>
      </trkpt>
      <trkpt lat="36.8995870" lon="-4.4207230">
        <ele>493.9</ele>
        <time>2018-03-28T10:12:36Z</time>
      </trkpt>
      <trkpt lat="36.8995870" lon="-4.4207230">
        <ele>494.9</ele>
        <time>2018-03-28T10:12:37Z</time>
      </trkpt>
      <trkpt lat="36.8996070" lon="-4.4206420">
        <ele>494.9</ele>
        <time>2018-03-28T10:12:38Z</time>
      </trkpt>
      <trkpt lat="36.8996070" lon="-4.4206420">
        <ele>494.9</ele>
        <time>2018-03-28T10:12:39Z</time>
      </trkpt>
      <trkpt lat="36.8996220" lon="-4.4205580">
        <ele>495.9</ele>
        <time>2018-03-28T10:12:40Z</time>
      </trkpt>
      <trkpt lat="36.8996220" lon="-4.4205580">
        <ele>495.9</ele>
        <time>2018-03-28T10:12:41Z</time>
      </trkpt>
      <trkpt lat="36.8996330" lon="-4.4204770">
        <ele>495.9</ele>
        <time>2018-03-28T10:12:42Z</time>
      </trkpt>
      <trkpt lat="36.8996420" lon="-4.4204350">
        <ele>495.9</ele>
        <time>2018-03-28T10:12:43Z</time>
      </trkpt>
      <trkpt lat="36.8996420" lon="-4.4204350">
        <ele>496.9</ele>
        <time>2018-03-28T10:12:44Z</time>
      </trkpt>
      <trkpt lat="36.8996570" lon="-4.4203520">
        <ele>496.9</ele>
        <time>2018-03-28T10:12:45Z</time>
      </trkpt>
      <trkpt lat="36.8996630" lon="-4.4203100">
        <ele>496.9</ele>
        <time>2018-03-28T10:12:46Z</time>
      </trkpt>
      <trkpt lat="36.8996630" lon="-4.4203100">
        <ele>496.9</ele>
        <time>2018-03-28T10:12:47Z</time>
      </trkpt>
      <trkpt lat="36.8996770" lon="-4.4202280">
        <ele>496.9</ele>
        <time>2018-03-28T10:12:48Z</time>
      </trkpt>
      <trkpt lat="36.8996830" lon="-4.4201900">
        <ele>496.9</ele>
        <time>2018-03-28T10:12:49Z</time>
      </trkpt>
      <trkpt lat="36.8996830" lon="-4.4201900">
        <ele>497.9</ele>
        <time>2018-03-28T10:12:50Z</time>
      </trkpt>
      <trkpt lat="36.8996930" lon="-4.4201080">
        <ele>497.9</ele>
        <time>2018-03-28T10:12:51Z</time>
      </trkpt>
      <trkpt lat="36.8996970" lon="-4.4200680">
        <ele>497.9</ele>
        <time>2018-03-28T10:12:52Z</time>
      </trkpt>
      <trkpt lat="36.8996970" lon="-4.4200680">
        <ele>497.9</ele>
        <time>2018-03-28T10:12:53Z</time>
      </trkpt>
      <trkpt lat="36.8997030" lon="-4.4199700">
        <ele>498.9</ele>
        <time>2018-03-28T10:12:54Z</time>
      </trkpt>
      <trkpt lat="36.8997030" lon="-4.4199500">
        <ele>498.9</ele>
        <time>2018-03-28T10:12:55Z</time>
      </trkpt>
      <trkpt lat="36.8997030" lon="-4.4199500">
        <ele>498.9</ele>
        <time>2018-03-28T10:12:56Z</time>
      </trkpt>
      <trkpt lat="36.8997130" lon="-4.4198720">
        <ele>498.9</ele>
        <time>2018-03-28T10:12:57Z</time>
      </trkpt>
      <trkpt lat="36.8997160" lon="-4.4198340">
        <ele>499.9</ele>
        <time>2018-03-28T10:12:58Z</time>
      </trkpt>
      <trkpt lat="36.8997180" lon="-4.4197950">
        <ele>499.9</ele>
        <time>2018-03-28T10:12:59Z</time>
      </trkpt>
      <trkpt lat="36.8997180" lon="-4.4197950">
        <ele>499.9</ele>
        <time>2018-03-28T10:13:00Z</time>
      </trkpt>
      <trkpt lat="36.8997300" lon="-4.4197150">
        <ele>499.9</ele>
        <time>2018-03-28T10:13:01Z</time>
      </trkpt>
      <trkpt lat="36.8997300" lon="-4.4197150">
        <ele>499.9</ele>
        <time>2018-03-28T10:13:02Z</time>
      </trkpt>
      <trkpt lat="36.8997430" lon="-4.4196380">
        <ele>499.9</ele>
        <time>2018-03-28T10:13:03Z</time>
      </trkpt>
      <trkpt lat="36.8997500" lon="-4.4195760">
        <ele>500.9</ele>
        <time>2018-03-28T10:13:04Z</time>
      </trkpt>
      <trkpt lat="36.8997520" lon="-4.4195550">
        <ele>500.9</ele>
        <time>2018-03-28T10:13:05Z</time>
      </trkpt>
      <trkpt lat="36.8997520" lon="-4.4195550">
        <ele>500.9</ele>
        <time>2018-03-28T10:13:06Z</time>
      </trkpt>
      <trkpt lat="36.8997620" lon="-4.4194830">
        <ele>500.9</ele>
        <time>2018-03-28T10:13:07Z</time>
      </trkpt>
      <trkpt lat="36.8997620" lon="-4.4194830">
        <ele>500.9</ele>
        <time>2018-03-28T10:13:08Z</time>
      </trkpt>
      <trkpt lat="36.8997680" lon="-4.4194070">
        <ele>500.9</ele>
        <time>2018-03-28T10:13:09Z</time>
      </trkpt>
      <trkpt lat="36.8997700" lon="-4.4193680">
        <ele>500.9</ele>
        <time>2018-03-28T10:13:10Z</time>
      </trkpt>
      <trkpt lat="36.8997700" lon="-4.4193680">
        <ele>500.9</ele>
        <time>2018-03-28T10:13:11Z</time>
      </trkpt>
      <trkpt lat="36.8997780" lon="-4.4192930">
        <ele>500.9</ele>
        <time>2018-03-28T10:13:12Z</time>
      </trkpt>
      <trkpt lat="36.8997830" lon="-4.4192570">
        <ele>501.9</ele>
        <time>2018-03-28T10:13:13Z</time>
      </trkpt>
      <trkpt lat="36.8997870" lon="-4.4192200">
        <ele>501.9</ele>
        <time>2018-03-28T10:13:14Z</time>
      </trkpt>
      <trkpt lat="36.8997900" lon="-4.4191820">
        <ele>501.9</ele>
        <time>2018-03-28T10:13:15Z</time>
      </trkpt>
      <trkpt lat="36.8997950" lon="-4.4191430">
        <ele>501.9</ele>
        <time>2018-03-28T10:13:16Z</time>
      </trkpt>
      <trkpt lat="36.8998020" lon="-4.4191030">
        <ele>501.9</ele>
        <time>2018-03-28T10:13:17Z</time>
      </trkpt>
      <trkpt lat="36.8998080" lon="-4.4190630">
        <ele>501.9</ele>
        <time>2018-03-28T10:13:18Z</time>
      </trkpt>
      <trkpt lat="36.8998120" lon="-4.4190230">
        <ele>501.9</ele>
        <time>2018-03-28T10:13:19Z</time>
      </trkpt>
      <trkpt lat="36.8998120" lon="-4.4190230">
        <ele>501.9</ele>
        <time>2018-03-28T10:13:20Z</time>
      </trkpt>
      <trkpt lat="36.8998180" lon="-4.4189450">
        <ele>502.9</ele>
        <time>2018-03-28T10:13:21Z</time>
      </trkpt>
      <trkpt lat="36.8998220" lon="-4.4189070">
        <ele>502.9</ele>
        <time>2018-03-28T10:13:22Z</time>
      </trkpt>
      <trkpt lat="36.8998220" lon="-4.4189070">
        <ele>502.9</ele>
        <time>2018-03-28T10:13:23Z</time>
      </trkpt>
      <trkpt lat="36.8998320" lon="-4.4188300">
        <ele>502.9</ele>
        <time>2018-03-28T10:13:24Z</time>
      </trkpt>
      <trkpt lat="36.8998390" lon="-4.4187730">
        <ele>502.9</ele>
        <time>2018-03-28T10:13:25Z</time>
      </trkpt>
      <trkpt lat="36.8998420" lon="-4.4187550">
        <ele>502.9</ele>
        <time>2018-03-28T10:13:26Z</time>
      </trkpt>
      <trkpt lat="36.8998440" lon="-4.4187360">
        <ele>502.9</ele>
        <time>2018-03-28T10:13:27Z</time>
      </trkpt>
      <trkpt lat="36.8998500" lon="-4.4186800">
        <ele>502.9</ele>
        <time>2018-03-28T10:13:28Z</time>
      </trkpt>
      <trkpt lat="36.8998500" lon="-4.4186800">
        <ele>503.9</ele>
        <time>2018-03-28T10:13:29Z</time>
      </trkpt>
      <trkpt lat="36.8998630" lon="-4.4186150">
        <ele>503.9</ele>
        <time>2018-03-28T10:13:30Z</time>
      </trkpt>
      <trkpt lat="36.8998680" lon="-4.4185800">
        <ele>503.9</ele>
        <time>2018-03-28T10:13:31Z</time>
      </trkpt>
      <trkpt lat="36.8998700" lon="-4.4185420">
        <ele>503.9</ele>
        <time>2018-03-28T10:13:32Z</time>
      </trkpt>
      <trkpt lat="36.8998700" lon="-4.4185420">
        <ele>503.9</ele>
        <time>2018-03-28T10:13:33Z</time>
      </trkpt>
      <trkpt lat="36.8998780" lon="-4.4184620">
        <ele>503.9</ele>
        <time>2018-03-28T10:13:34Z</time>
      </trkpt>
      <trkpt lat="36.8998780" lon="-4.4184620">
        <ele>504.9</ele>
        <time>2018-03-28T10:13:35Z</time>
      </trkpt>
      <trkpt lat="36.8998900" lon="-4.4183830">
        <ele>504.9</ele>
        <time>2018-03-28T10:13:36Z</time>
      </trkpt>
      <trkpt lat="36.8998900" lon="-4.4183830">
        <ele>504.9</ele>
        <time>2018-03-28T10:13:37Z</time>
      </trkpt>
      <trkpt lat="36.8999000" lon="-4.4183050">
        <ele>504.9</ele>
        <time>2018-03-28T10:13:38Z</time>
      </trkpt>
      <trkpt lat="36.8999000" lon="-4.4183050">
        <ele>504.9</ele>
        <time>2018-03-28T10:13:39Z</time>
      </trkpt>
      <trkpt lat="36.8999080" lon="-4.4182300">
        <ele>504.9</ele>
        <time>2018-03-28T10:13:40Z</time>
      </trkpt>
      <trkpt lat="36.8999120" lon="-4.4181950">
        <ele>505.9</ele>
        <time>2018-03-28T10:13:41Z</time>
      </trkpt>
      <trkpt lat="36.8999150" lon="-4.4181600">
        <ele>505.9</ele>
        <time>2018-03-28T10:13:42Z</time>
      </trkpt>
      <trkpt lat="36.8999150" lon="-4.4181600">
        <ele>505.9</ele>
        <time>2018-03-28T10:13:43Z</time>
      </trkpt>
      <trkpt lat="36.8999170" lon="-4.4180900">
        <ele>505.9</ele>
        <time>2018-03-28T10:13:44Z</time>
      </trkpt>
      <trkpt lat="36.8999200" lon="-4.4180550">
        <ele>505.9</ele>
        <time>2018-03-28T10:13:45Z</time>
      </trkpt>
      <trkpt lat="36.8999200" lon="-4.4180550">
        <ele>506.9</ele>
        <time>2018-03-28T10:13:46Z</time>
      </trkpt>
      <trkpt lat="36.8999280" lon="-4.4179870">
        <ele>506.9</ele>
        <time>2018-03-28T10:13:47Z</time>
      </trkpt>
      <trkpt lat="36.8999330" lon="-4.4179540">
        <ele>506.9</ele>
        <time>2018-03-28T10:13:48Z</time>
      </trkpt>
      <trkpt lat="36.8999380" lon="-4.4179200">
        <ele>506.9</ele>
        <time>2018-03-28T10:13:49Z</time>
      </trkpt>
      <trkpt lat="36.8999430" lon="-4.4178870">
        <ele>506.9</ele>
        <time>2018-03-28T10:13:50Z</time>
      </trkpt>
      <trkpt lat="36.8999470" lon="-4.4178530">
        <ele>506.9</ele>
        <time>2018-03-28T10:13:51Z</time>
      </trkpt>
      <trkpt lat="36.8999470" lon="-4.4178530">
        <ele>506.9</ele>
        <time>2018-03-28T10:13:52Z</time>
      </trkpt>
      <trkpt lat="36.8999570" lon="-4.4177870">
        <ele>506.9</ele>
        <time>2018-03-28T10:13:53Z</time>
      </trkpt>
      <trkpt lat="36.8999620" lon="-4.4177530">
        <ele>506.9</ele>
        <time>2018-03-28T10:13:54Z</time>
      </trkpt>
      <trkpt lat="36.8999620" lon="-4.4177530">
        <ele>506.9</ele>
        <time>2018-03-28T10:13:55Z</time>
      </trkpt>
      <trkpt lat="36.8999680" lon="-4.4176870">
        <ele>507.9</ele>
        <time>2018-03-28T10:13:56Z</time>
      </trkpt>
      <trkpt lat="36.8999680" lon="-4.4176870">
        <ele>507.9</ele>
        <time>2018-03-28T10:13:57Z</time>
      </trkpt>
      <trkpt lat="36.8999750" lon="-4.4176220">
        <ele>507.9</ele>
        <time>2018-03-28T10:13:58Z</time>
      </trkpt>
      <trkpt lat="36.8999750" lon="-4.4176220">
        <ele>507.9</ele>
        <time>2018-03-28T10:13:59Z</time>
      </trkpt>
      <trkpt lat="36.8999780" lon="-4.4175580">
        <ele>508.9</ele>
        <time>2018-03-28T10:14:00Z</time>
      </trkpt>
      <trkpt lat="36.8999800" lon="-4.4175280">
        <ele>508.9</ele>
        <time>2018-03-28T10:14:01Z</time>
      </trkpt>
      <trkpt lat="36.8999800" lon="-4.4175280">
        <ele>508.9</ele>
        <time>2018-03-28T10:14:02Z</time>
      </trkpt>
      <trkpt lat="36.8999920" lon="-4.4174650">
        <ele>508.9</ele>
        <time>2018-03-28T10:14:03Z</time>
      </trkpt>
      <trkpt lat="36.9000020" lon="-4.4174320">
        <ele>510.9</ele>
        <time>2018-03-28T10:14:04Z</time>
      </trkpt>
      <trkpt lat="36.9000020" lon="-4.4174320">
        <ele>510.9</ele>
        <time>2018-03-28T10:14:05Z</time>
      </trkpt>
      <trkpt lat="36.9000250" lon="-4.4173630">
        <ele>510.9</ele>
        <time>2018-03-28T10:14:06Z</time>
      </trkpt>
      <trkpt lat="36.9000400" lon="-4.4173320">
        <ele>510.9</ele>
        <time>2018-03-28T10:14:07Z</time>
      </trkpt>
      <trkpt lat="36.9000400" lon="-4.4173320">
        <ele>511.9</ele>
        <time>2018-03-28T10:14:08Z</time>
      </trkpt>
      <trkpt lat="36.9000780" lon="-4.4172670">
        <ele>511.9</ele>
        <time>2018-03-28T10:14:09Z</time>
      </trkpt>
      <trkpt lat="36.9000780" lon="-4.4172670">
        <ele>511.9</ele>
        <time>2018-03-28T10:14:10Z</time>
      </trkpt>
      <trkpt lat="36.9001250" lon="-4.4172200">
        <ele>511.9</ele>
        <time>2018-03-28T10:14:11Z</time>
      </trkpt>
      <trkpt lat="36.9001530" lon="-4.4172000">
        <ele>512.9</ele>
        <time>2018-03-28T10:14:12Z</time>
      </trkpt>
      <trkpt lat="36.9001530" lon="-4.4172000">
        <ele>512.9</ele>
        <time>2018-03-28T10:14:13Z</time>
      </trkpt>
      <trkpt lat="36.9002100" lon="-4.4171580">
        <ele>512.9</ele>
        <time>2018-03-28T10:14:14Z</time>
      </trkpt>
      <trkpt lat="36.9002100" lon="-4.4171580">
        <ele>512.9</ele>
        <time>2018-03-28T10:14:15Z</time>
      </trkpt>
      <trkpt lat="36.9002650" lon="-4.4171080">
        <ele>512.9</ele>
        <time>2018-03-28T10:14:16Z</time>
      </trkpt>
      <trkpt lat="36.9002650" lon="-4.4171080">
        <ele>512.9</ele>
        <time>2018-03-28T10:14:17Z</time>
      </trkpt>
      <trkpt lat="36.9003100" lon="-4.4170470">
        <ele>512.9</ele>
        <time>2018-03-28T10:14:18Z</time>
      </trkpt>
      <trkpt lat="36.9003250" lon="-4.4170100">
        <ele>512.9</ele>
        <time>2018-03-28T10:14:19Z</time>
      </trkpt>
      <trkpt lat="36.9003250" lon="-4.4170100">
        <ele>512.9</ele>
        <time>2018-03-28T10:14:20Z</time>
      </trkpt>
      <trkpt lat="36.9003430" lon="-4.4169250">
        <ele>512.9</ele>
        <time>2018-03-28T10:14:21Z</time>
      </trkpt>
      <trkpt lat="36.9003430" lon="-4.4169250">
        <ele>512.9</ele>
        <time>2018-03-28T10:14:22Z</time>
      </trkpt>
      <trkpt lat="36.9003470" lon="-4.4168300">
        <ele>512.9</ele>
        <time>2018-03-28T10:14:23Z</time>
      </trkpt>
      <trkpt lat="36.9003470" lon="-4.4168300">
        <ele>512.9</ele>
        <time>2018-03-28T10:14:24Z</time>
      </trkpt>
      <trkpt lat="36.9003480" lon="-4.4167270">
        <ele>512.9</ele>
        <time>2018-03-28T10:14:25Z</time>
      </trkpt>
      <trkpt lat="36.9003480" lon="-4.4167270">
        <ele>513.9</ele>
        <time>2018-03-28T10:14:26Z</time>
      </trkpt>
      <trkpt lat="36.9003470" lon="-4.4166150">
        <ele>513.9</ele>
        <time>2018-03-28T10:14:27Z</time>
      </trkpt>
      <trkpt lat="36.9003470" lon="-4.4166150">
        <ele>513.9</ele>
        <time>2018-03-28T10:14:28Z</time>
      </trkpt>
      <trkpt lat="36.9003450" lon="-4.4165030">
        <ele>513.9</ele>
        <time>2018-03-28T10:14:29Z</time>
      </trkpt>
      <trkpt lat="36.9003440" lon="-4.4164450">
        <ele>513.9</ele>
        <time>2018-03-28T10:14:30Z</time>
      </trkpt>
      <trkpt lat="36.9003430" lon="-4.4163870">
        <ele>513.9</ele>
        <time>2018-03-28T10:14:31Z</time>
      </trkpt>
      <trkpt lat="36.9003430" lon="-4.4163870">
        <ele>513.9</ele>
        <time>2018-03-28T10:14:32Z</time>
      </trkpt>
      <trkpt lat="36.9003470" lon="-4.4162630">
        <ele>513.9</ele>
        <time>2018-03-28T10:14:33Z</time>
      </trkpt>
      <trkpt lat="36.9003470" lon="-4.4162630">
        <ele>513.9</ele>
        <time>2018-03-28T10:14:34Z</time>
      </trkpt>
      <trkpt lat="36.9003520" lon="-4.4161270">
        <ele>513.9</ele>
        <time>2018-03-28T10:14:35Z</time>
      </trkpt>
      <trkpt lat="36.9003520" lon="-4.4160530">
        <ele>513.9</ele>
        <time>2018-03-28T10:14:36Z</time>
      </trkpt>
      <trkpt lat="36.9003570" lon="-4.4159800">
        <ele>513.9</ele>
        <time>2018-03-28T10:14:37Z</time>
      </trkpt>
      <trkpt lat="36.9003620" lon="-4.4159130">
        <ele>513.9</ele>
        <time>2018-03-28T10:14:38Z</time>
      </trkpt>
      <trkpt lat="36.9003620" lon="-4.4159130">
        <ele>513.9</ele>
        <time>2018-03-28T10:14:39Z</time>
      </trkpt>
      <trkpt lat="36.9003700" lon="-4.4157800">
        <ele>513.9</ele>
        <time>2018-03-28T10:14:40Z</time>
      </trkpt>
      <trkpt lat="36.9003700" lon="-4.4157800">
        <ele>513.9</ele>
        <time>2018-03-28T10:14:41Z</time>
      </trkpt>
      <trkpt lat="36.9003730" lon="-4.4156450">
        <ele>513.9</ele>
        <time>2018-03-28T10:14:42Z</time>
      </trkpt>
      <trkpt lat="36.9003730" lon="-4.4155780">
        <ele>514.9</ele>
        <time>2018-03-28T10:14:43Z</time>
      </trkpt>
      <trkpt lat="36.9003730" lon="-4.4155780">
        <ele>514.9</ele>
        <time>2018-03-28T10:14:44Z</time>
      </trkpt>
      <trkpt lat="36.9003770" lon="-4.4154430">
        <ele>514.9</ele>
        <time>2018-03-28T10:14:45Z</time>
      </trkpt>
      <trkpt lat="36.9003780" lon="-4.4153730">
        <ele>514.9</ele>
        <time>2018-03-28T10:14:46Z</time>
      </trkpt>
      <trkpt lat="36.9003820" lon="-4.4153000">
        <ele>514.9</ele>
        <time>2018-03-28T10:14:47Z</time>
      </trkpt>
      <trkpt lat="36.9003820" lon="-4.4153000">
        <ele>514.9</ele>
        <time>2018-03-28T10:14:48Z</time>
      </trkpt>
      <trkpt lat="36.9003800" lon="-4.4151470">
        <ele>514.9</ele>
        <time>2018-03-28T10:14:49Z</time>
      </trkpt>
      <trkpt lat="36.9003800" lon="-4.4151470">
        <ele>514.9</ele>
        <time>2018-03-28T10:14:50Z</time>
      </trkpt>
      <trkpt lat="36.9003770" lon="-4.4149870">
        <ele>514.9</ele>
        <time>2018-03-28T10:14:51Z</time>
      </trkpt>
      <trkpt lat="36.9003780" lon="-4.4149460">
        <ele>514.9</ele>
        <time>2018-03-28T10:14:52Z</time>
      </trkpt>
      <trkpt lat="36.9003790" lon="-4.4149050">
        <ele>514.9</ele>
        <time>2018-03-28T10:14:53Z</time>
      </trkpt>
      <trkpt lat="36.9003800" lon="-4.4148220">
        <ele>514.9</ele>
        <time>2018-03-28T10:14:54Z</time>
      </trkpt>
      <trkpt lat="36.9003800" lon="-4.4146520">
        <ele>514.9</ele>
        <time>2018-03-28T10:14:55Z</time>
      </trkpt>
      <trkpt lat="36.9003800" lon="-4.4146520">
        <ele>514.9</ele>
        <time>2018-03-28T10:14:56Z</time>
      </trkpt>
      <trkpt lat="36.9003870" lon="-4.4144700">
        <ele>514.9</ele>
        <time>2018-03-28T10:14:57Z</time>
      </trkpt>
      <trkpt lat="36.9003870" lon="-4.4144700">
        <ele>514.9</ele>
        <time>2018-03-28T10:14:58Z</time>
      </trkpt>
      <trkpt lat="36.9003920" lon="-4.4142800">
        <ele>514.9</ele>
        <time>2018-03-28T10:14:59Z</time>
      </trkpt>
      <trkpt lat="36.9003920" lon="-4.4142800">
        <ele>514.9</ele>
        <time>2018-03-28T10:15:00Z</time>
      </trkpt>
      <trkpt lat="36.9003920" lon="-4.4140820">
        <ele>513.9</ele>
        <time>2018-03-28T10:15:01Z</time>
      </trkpt>
      <trkpt lat="36.9003920" lon="-4.4139780">
        <ele>513.9</ele>
        <time>2018-03-28T10:15:02Z</time>
      </trkpt>
      <trkpt lat="36.9003920" lon="-4.4139780">
        <ele>513.9</ele>
        <time>2018-03-28T10:15:03Z</time>
      </trkpt>
      <trkpt lat="36.9003920" lon="-4.4137620">
        <ele>513.9</ele>
        <time>2018-03-28T10:15:04Z</time>
      </trkpt>
      <trkpt lat="36.9003930" lon="-4.4136500">
        <ele>513.9</ele>
        <time>2018-03-28T10:15:05Z</time>
      </trkpt>
      <trkpt lat="36.9003930" lon="-4.4136500">
        <ele>512.9</ele>
        <time>2018-03-28T10:15:06Z</time>
      </trkpt>
      <trkpt lat="36.9003980" lon="-4.4134130">
        <ele>512.9</ele>
        <time>2018-03-28T10:15:07Z</time>
      </trkpt>
      <trkpt lat="36.9003980" lon="-4.4134130">
        <ele>511.9</ele>
        <time>2018-03-28T10:15:08Z</time>
      </trkpt>
      <trkpt lat="36.9004020" lon="-4.4131670">
        <ele>511.9</ele>
        <time>2018-03-28T10:15:09Z</time>
      </trkpt>
      <trkpt lat="36.9004020" lon="-4.4131670">
        <ele>511.9</ele>
        <time>2018-03-28T10:15:10Z</time>
      </trkpt>
      <trkpt lat="36.9004070" lon="-4.4129080">
        <ele>511.9</ele>
        <time>2018-03-28T10:15:11Z</time>
      </trkpt>
      <trkpt lat="36.9004070" lon="-4.4129080">
        <ele>509.9</ele>
        <time>2018-03-28T10:15:12Z</time>
      </trkpt>
      <trkpt lat="36.9004130" lon="-4.4126380">
        <ele>509.9</ele>
        <time>2018-03-28T10:15:13Z</time>
      </trkpt>
      <trkpt lat="36.9004160" lon="-4.4125690">
        <ele>508.9</ele>
        <time>2018-03-28T10:15:14Z</time>
      </trkpt>
      <trkpt lat="36.9004180" lon="-4.4124990">
        <ele>508.9</ele>
        <time>2018-03-28T10:15:15Z</time>
      </trkpt>
      <trkpt lat="36.9004220" lon="-4.4123600">
        <ele>507.9</ele>
        <time>2018-03-28T10:15:16Z</time>
      </trkpt>
      <trkpt lat="36.9004300" lon="-4.4120780">
        <ele>507.9</ele>
        <time>2018-03-28T10:15:17Z</time>
      </trkpt>
      <trkpt lat="36.9004300" lon="-4.4120780">
        <ele>506.9</ele>
        <time>2018-03-28T10:15:18Z</time>
      </trkpt>
      <trkpt lat="36.9004430" lon="-4.4117930">
        <ele>506.9</ele>
        <time>2018-03-28T10:15:19Z</time>
      </trkpt>
      <trkpt lat="36.9004500" lon="-4.4116500">
        <ele>505.9</ele>
        <time>2018-03-28T10:15:20Z</time>
      </trkpt>
      <trkpt lat="36.9004500" lon="-4.4116500">
        <ele>505.9</ele>
        <time>2018-03-28T10:15:21Z</time>
      </trkpt>
      <trkpt lat="36.9004700" lon="-4.4113670">
        <ele>504.9</ele>
        <time>2018-03-28T10:15:22Z</time>
      </trkpt>
      <trkpt lat="36.9004700" lon="-4.4113670">
        <ele>504.9</ele>
        <time>2018-03-28T10:15:23Z</time>
      </trkpt>
      <trkpt lat="36.9004880" lon="-4.4110870">
        <ele>503.9</ele>
        <time>2018-03-28T10:15:24Z</time>
      </trkpt>
      <trkpt lat="36.9005000" lon="-4.4109520">
        <ele>503.9</ele>
        <time>2018-03-28T10:15:25Z</time>
      </trkpt>
      <trkpt lat="36.9005070" lon="-4.4108860">
        <ele>503.9</ele>
        <time>2018-03-28T10:15:26Z</time>
      </trkpt>
      <trkpt lat="36.9005130" lon="-4.4108200">
        <ele>503.9</ele>
        <time>2018-03-28T10:15:27Z</time>
      </trkpt>
      <trkpt lat="36.9005250" lon="-4.4106880">
        <ele>502.9</ele>
        <time>2018-03-28T10:15:28Z</time>
      </trkpt>
      <trkpt lat="36.9005520" lon="-4.4104400">
        <ele>502.9</ele>
        <time>2018-03-28T10:15:29Z</time>
      </trkpt>
      <trkpt lat="36.9005630" lon="-4.4103220">
        <ele>502.9</ele>
        <time>2018-03-28T10:15:30Z</time>
      </trkpt>
      <trkpt lat="36.9005750" lon="-4.4102050">
        <ele>502.9</ele>
        <time>2018-03-28T10:15:31Z</time>
      </trkpt>
      <trkpt lat="36.9005750" lon="-4.4102050">
        <ele>502.9</ele>
        <time>2018-03-28T10:15:32Z</time>
      </trkpt>
      <trkpt lat="36.9006000" lon="-4.4099820">
        <ele>502.9</ele>
        <time>2018-03-28T10:15:33Z</time>
      </trkpt>
      <trkpt lat="36.9006000" lon="-4.4099820">
        <ele>502.9</ele>
        <time>2018-03-28T10:15:34Z</time>
      </trkpt>
      <trkpt lat="36.9006200" lon="-4.4097670">
        <ele>502.9</ele>
        <time>2018-03-28T10:15:35Z</time>
      </trkpt>
      <trkpt lat="36.9006200" lon="-4.4097670">
        <ele>502.9</ele>
        <time>2018-03-28T10:15:36Z</time>
      </trkpt>
      <trkpt lat="36.9006380" lon="-4.4095650">
        <ele>502.9</ele>
        <time>2018-03-28T10:15:37Z</time>
      </trkpt>
      <trkpt lat="36.9006480" lon="-4.4094670">
        <ele>502.9</ele>
        <time>2018-03-28T10:15:38Z</time>
      </trkpt>
      <trkpt lat="36.9006480" lon="-4.4094670">
        <ele>503.9</ele>
        <time>2018-03-28T10:15:39Z</time>
      </trkpt>
      <trkpt lat="36.9006680" lon="-4.4092750">
        <ele>503.9</ele>
        <time>2018-03-28T10:15:40Z</time>
      </trkpt>
      <trkpt lat="36.9006680" lon="-4.4092750">
        <ele>503.9</ele>
        <time>2018-03-28T10:15:41Z</time>
      </trkpt>
      <trkpt lat="36.9006870" lon="-4.4090880">
        <ele>503.9</ele>
        <time>2018-03-28T10:15:42Z</time>
      </trkpt>
      <trkpt lat="36.9006950" lon="-4.4090000">
        <ele>503.9</ele>
        <time>2018-03-28T10:15:43Z</time>
      </trkpt>
      <trkpt lat="36.9007010" lon="-4.4089360">
        <ele>503.9</ele>
        <time>2018-03-28T10:15:44Z</time>
      </trkpt>
      <trkpt lat="36.9007070" lon="-4.4088710">
        <ele>504.9</ele>
        <time>2018-03-28T10:15:45Z</time>
      </trkpt>
      <trkpt lat="36.9007180" lon="-4.4087420">
        <ele>504.9</ele>
        <time>2018-03-28T10:15:46Z</time>
      </trkpt>
      <trkpt lat="36.9007180" lon="-4.4087420">
        <ele>504.9</ele>
        <time>2018-03-28T10:15:47Z</time>
      </trkpt>
      <trkpt lat="36.9007350" lon="-4.4085700">
        <ele>504.9</ele>
        <time>2018-03-28T10:15:48Z</time>
      </trkpt>
      <trkpt lat="36.9007450" lon="-4.4084820">
        <ele>504.9</ele>
        <time>2018-03-28T10:15:49Z</time>
      </trkpt>
      <trkpt lat="36.9007450" lon="-4.4084820">
        <ele>504.9</ele>
        <time>2018-03-28T10:15:50Z</time>
      </trkpt>
      <trkpt lat="36.9007650" lon="-4.4083020">
        <ele>504.9</ele>
        <time>2018-03-28T10:15:51Z</time>
      </trkpt>
      <trkpt lat="36.9007730" lon="-4.4082120">
        <ele>504.9</ele>
        <time>2018-03-28T10:15:52Z</time>
      </trkpt>
      <trkpt lat="36.9007730" lon="-4.4082120">
        <ele>505.9</ele>
        <time>2018-03-28T10:15:53Z</time>
      </trkpt>
      <trkpt lat="36.9007930" lon="-4.4080320">
        <ele>505.9</ele>
        <time>2018-03-28T10:15:54Z</time>
      </trkpt>
      <trkpt lat="36.9008050" lon="-4.4079380">
        <ele>505.9</ele>
        <time>2018-03-28T10:15:55Z</time>
      </trkpt>
      <trkpt lat="36.9008050" lon="-4.4079380">
        <ele>505.9</ele>
        <time>2018-03-28T10:15:56Z</time>
      </trkpt>
      <trkpt lat="36.9008200" lon="-4.4077470">
        <ele>505.9</ele>
        <time>2018-03-28T10:15:57Z</time>
      </trkpt>
      <trkpt lat="36.9008200" lon="-4.4077470">
        <ele>505.9</ele>
        <time>2018-03-28T10:15:58Z</time>
      </trkpt>
      <trkpt lat="36.9008380" lon="-4.4075570">
        <ele>505.9</ele>
        <time>2018-03-28T10:15:59Z</time>
      </trkpt>
      <trkpt lat="36.9008380" lon="-4.4075570">
        <ele>505.9</ele>
        <time>2018-03-28T10:16:00Z</time>
      </trkpt>
      <trkpt lat="36.9008600" lon="-4.4073670">
        <ele>505.9</ele>
        <time>2018-03-28T10:16:01Z</time>
      </trkpt>
      <trkpt lat="36.9008600" lon="-4.4073670">
        <ele>505.9</ele>
        <time>2018-03-28T10:16:02Z</time>
      </trkpt>
      <trkpt lat="36.9008800" lon="-4.4071700">
        <ele>505.9</ele>
        <time>2018-03-28T10:16:03Z</time>
      </trkpt>
      <trkpt lat="36.9008920" lon="-4.4070700">
        <ele>505.9</ele>
        <time>2018-03-28T10:16:04Z</time>
      </trkpt>
      <trkpt lat="36.9009010" lon="-4.4069930">
        <ele>505.9</ele>
        <time>2018-03-28T10:16:05Z</time>
      </trkpt>
      <trkpt lat="36.9009100" lon="-4.4069160">
        <ele>505.9</ele>
        <time>2018-03-28T10:16:06Z</time>
      </trkpt>
      <trkpt lat="36.9009270" lon="-4.4067620">
        <ele>505.9</ele>
        <time>2018-03-28T10:16:07Z</time>
      </trkpt>
      <trkpt lat="36.9009270" lon="-4.4067620">
        <ele>505.9</ele>
        <time>2018-03-28T10:16:08Z</time>
      </trkpt>
      <trkpt lat="36.9009480" lon="-4.4065520">
        <ele>504.9</ele>
        <time>2018-03-28T10:16:09Z</time>
      </trkpt>
      <trkpt lat="36.9009580" lon="-4.4064430">
        <ele>504.9</ele>
        <time>2018-03-28T10:16:10Z</time>
      </trkpt>
      <trkpt lat="36.9009580" lon="-4.4064430">
        <ele>504.9</ele>
        <time>2018-03-28T10:16:11Z</time>
      </trkpt>
      <trkpt lat="36.9009800" lon="-4.4062230">
        <ele>504.9</ele>
        <time>2018-03-28T10:16:12Z</time>
      </trkpt>
      <trkpt lat="36.9009920" lon="-4.4061120">
        <ele>504.9</ele>
        <time>2018-03-28T10:16:13Z</time>
      </trkpt>
      <trkpt lat="36.9009920" lon="-4.4061120">
        <ele>504.9</ele>
        <time>2018-03-28T10:16:14Z</time>
      </trkpt>
      <trkpt lat="36.9010150" lon="-4.4058880">
        <ele>504.9</ele>
        <time>2018-03-28T10:16:15Z</time>
      </trkpt>
      <trkpt lat="36.9010270" lon="-4.4057770">
        <ele>504.9</ele>
        <time>2018-03-28T10:16:16Z</time>
      </trkpt>
      <trkpt lat="36.9010270" lon="-4.4057770">
        <ele>504.9</ele>
        <time>2018-03-28T10:16:17Z</time>
      </trkpt>
      <trkpt lat="36.9010470" lon="-4.4055530">
        <ele>504.9</ele>
        <time>2018-03-28T10:16:18Z</time>
      </trkpt>
      <trkpt lat="36.9010580" lon="-4.4054400">
        <ele>503.9</ele>
        <time>2018-03-28T10:16:19Z</time>
      </trkpt>
      <trkpt lat="36.9010680" lon="-4.4053280">
        <ele>503.9</ele>
        <time>2018-03-28T10:16:20Z</time>
      </trkpt>
      <trkpt lat="36.9010680" lon="-4.4053280">
        <ele>503.9</ele>
        <time>2018-03-28T10:16:21Z</time>
      </trkpt>
      <trkpt lat="36.9010900" lon="-4.4051050">
        <ele>503.9</ele>
        <time>2018-03-28T10:16:22Z</time>
      </trkpt>
      <trkpt lat="36.9010900" lon="-4.4051050">
        <ele>503.9</ele>
        <time>2018-03-28T10:16:23Z</time>
      </trkpt>
      <trkpt lat="36.9011080" lon="-4.4048850">
        <ele>503.9</ele>
        <time>2018-03-28T10:16:24Z</time>
      </trkpt>
      <trkpt lat="36.9011080" lon="-4.4048850">
        <ele>502.9</ele>
        <time>2018-03-28T10:16:25Z</time>
      </trkpt>
      <trkpt lat="36.9011280" lon="-4.4046730">
        <ele>502.9</ele>
        <time>2018-03-28T10:16:26Z</time>
      </trkpt>
      <trkpt lat="36.9011280" lon="-4.4046730">
        <ele>502.9</ele>
        <time>2018-03-28T10:16:27Z</time>
      </trkpt>
      <trkpt lat="36.9011420" lon="-4.4044680">
        <ele>502.9</ele>
        <time>2018-03-28T10:16:28Z</time>
      </trkpt>
      <trkpt lat="36.9011420" lon="-4.4044680">
        <ele>502.9</ele>
        <time>2018-03-28T10:16:29Z</time>
      </trkpt>
      <trkpt lat="36.9011550" lon="-4.4042720">
        <ele>502.9</ele>
        <time>2018-03-28T10:16:30Z</time>
      </trkpt>
      <trkpt lat="36.9011590" lon="-4.4042240">
        <ele>502.9</ele>
        <time>2018-03-28T10:16:31Z</time>
      </trkpt>
      <trkpt lat="36.9011620" lon="-4.4041750">
        <ele>502.9</ele>
        <time>2018-03-28T10:16:32Z</time>
      </trkpt>
      <trkpt lat="36.9011680" lon="-4.4040780">
        <ele>503.9</ele>
        <time>2018-03-28T10:16:33Z</time>
      </trkpt>
      <trkpt lat="36.9011750" lon="-4.4038930">
        <ele>503.9</ele>
        <time>2018-03-28T10:16:34Z</time>
      </trkpt>
      <trkpt lat="36.9011780" lon="-4.4038030">
        <ele>503.9</ele>
        <time>2018-03-28T10:16:35Z</time>
      </trkpt>
      <trkpt lat="36.9011830" lon="-4.4037150">
        <ele>503.9</ele>
        <time>2018-03-28T10:16:36Z</time>
      </trkpt>
      <trkpt lat="36.9011860" lon="-4.4036740">
        <ele>503.9</ele>
        <time>2018-03-28T10:16:37Z</time>
      </trkpt>
      <trkpt lat="36.9011890" lon="-4.4036330">
        <ele>503.9</ele>
        <time>2018-03-28T10:16:38Z</time>
      </trkpt>
      <trkpt lat="36.9011950" lon="-4.4035500">
        <ele>503.9</ele>
        <time>2018-03-28T10:16:39Z</time>
      </trkpt>
      <trkpt lat="36.9012080" lon="-4.4033920">
        <ele>503.9</ele>
        <time>2018-03-28T10:16:40Z</time>
      </trkpt>
      <trkpt lat="36.9012120" lon="-4.4033170">
        <ele>504.9</ele>
        <time>2018-03-28T10:16:41Z</time>
      </trkpt>
      <trkpt lat="36.9012120" lon="-4.4033170">
        <ele>504.9</ele>
        <time>2018-03-28T10:16:42Z</time>
      </trkpt>
      <trkpt lat="36.9012180" lon="-4.4031720">
        <ele>504.9</ele>
        <time>2018-03-28T10:16:43Z</time>
      </trkpt>
      <trkpt lat="36.9012180" lon="-4.4031720">
        <ele>504.9</ele>
        <time>2018-03-28T10:16:44Z</time>
      </trkpt>
      <trkpt lat="36.9012340" lon="-4.4030040">
        <ele>505.9</ele>
        <time>2018-03-28T10:16:45Z</time>
      </trkpt>
      <trkpt lat="36.9012370" lon="-4.4029710">
        <ele>505.9</ele>
        <time>2018-03-28T10:16:46Z</time>
      </trkpt>
      <trkpt lat="36.9012430" lon="-4.4029050">
        <ele>505.9</ele>
        <time>2018-03-28T10:16:47Z</time>
      </trkpt>
      <trkpt lat="36.9012430" lon="-4.4029050">
        <ele>505.9</ele>
        <time>2018-03-28T10:16:48Z</time>
      </trkpt>
      <trkpt lat="36.9012470" lon="-4.4027750">
        <ele>505.9</ele>
        <time>2018-03-28T10:16:49Z</time>
      </trkpt>
      <trkpt lat="36.9012500" lon="-4.4027120">
        <ele>505.9</ele>
        <time>2018-03-28T10:16:50Z</time>
      </trkpt>
      <trkpt lat="36.9012520" lon="-4.4026480">
        <ele>506.9</ele>
        <time>2018-03-28T10:16:51Z</time>
      </trkpt>
      <trkpt lat="36.9012520" lon="-4.4026480">
        <ele>506.9</ele>
        <time>2018-03-28T10:16:52Z</time>
      </trkpt>
      <trkpt lat="36.9012570" lon="-4.4025350">
        <ele>506.9</ele>
        <time>2018-03-28T10:16:53Z</time>
      </trkpt>
      <trkpt lat="36.9012570" lon="-4.4025350">
        <ele>506.9</ele>
        <time>2018-03-28T10:16:54Z</time>
      </trkpt>
      <trkpt lat="36.9012620" lon="-4.4024250">
        <ele>507.9</ele>
        <time>2018-03-28T10:16:55Z</time>
      </trkpt>
      <trkpt lat="36.9012620" lon="-4.4024250">
        <ele>507.9</ele>
        <time>2018-03-28T10:16:56Z</time>
      </trkpt>
      <trkpt lat="36.9012650" lon="-4.4023120">
        <ele>507.9</ele>
        <time>2018-03-28T10:16:57Z</time>
      </trkpt>
      <trkpt lat="36.9012650" lon="-4.4022550">
        <ele>507.9</ele>
        <time>2018-03-28T10:16:58Z</time>
      </trkpt>
      <trkpt lat="36.9012650" lon="-4.4022550">
        <ele>508.9</ele>
        <time>2018-03-28T10:16:59Z</time>
      </trkpt>
      <trkpt lat="36.9012680" lon="-4.4021380">
        <ele>508.9</ele>
        <time>2018-03-28T10:17:00Z</time>
      </trkpt>
      <trkpt lat="36.9012720" lon="-4.4020820">
        <ele>508.9</ele>
        <time>2018-03-28T10:17:01Z</time>
      </trkpt>
      <trkpt lat="36.9012720" lon="-4.4020820">
        <ele>509.9</ele>
        <time>2018-03-28T10:17:02Z</time>
      </trkpt>
      <trkpt lat="36.9012770" lon="-4.4019600">
        <ele>509.9</ele>
        <time>2018-03-28T10:17:03Z</time>
      </trkpt>
      <trkpt lat="36.9012780" lon="-4.4018980">
        <ele>509.9</ele>
        <time>2018-03-28T10:17:04Z</time>
      </trkpt>
      <trkpt lat="36.9012780" lon="-4.4018980">
        <ele>509.9</ele>
        <time>2018-03-28T10:17:05Z</time>
      </trkpt>
      <trkpt lat="36.9012750" lon="-4.4017920">
        <ele>510.9</ele>
        <time>2018-03-28T10:17:06Z</time>
      </trkpt>
      <trkpt lat="36.9012750" lon="-4.4017350">
        <ele>510.9</ele>
        <time>2018-03-28T10:17:07Z</time>
      </trkpt>
      <trkpt lat="36.9012750" lon="-4.4017350">
        <ele>510.9</ele>
        <time>2018-03-28T10:17:08Z</time>
      </trkpt>
      <trkpt lat="36.9012770" lon="-4.4016200">
        <ele>510.9</ele>
        <time>2018-03-28T10:17:09Z</time>
      </trkpt>
      <trkpt lat="36.9012770" lon="-4.4015600">
        <ele>510.9</ele>
        <time>2018-03-28T10:17:10Z</time>
      </trkpt>
      <trkpt lat="36.9012770" lon="-4.4015600">
        <ele>511.9</ele>
        <time>2018-03-28T10:17:11Z</time>
      </trkpt>
      <trkpt lat="36.9012780" lon="-4.4014430">
        <ele>511.9</ele>
        <time>2018-03-28T10:17:12Z</time>
      </trkpt>
      <trkpt lat="36.9012780" lon="-4.4014430">
        <ele>511.9</ele>
        <time>2018-03-28T10:17:13Z</time>
      </trkpt>
      <trkpt lat="36.9012820" lon="-4.4013300">
        <ele>511.9</ele>
        <time>2018-03-28T10:17:14Z</time>
      </trkpt>
      <trkpt lat="36.9012820" lon="-4.4013300">
        <ele>511.9</ele>
        <time>2018-03-28T10:17:15Z</time>
      </trkpt>
      <trkpt lat="36.9012830" lon="-4.4012180">
        <ele>512.9</ele>
        <time>2018-03-28T10:17:16Z</time>
      </trkpt>
      <trkpt lat="36.9012830" lon="-4.4012180">
        <ele>512.9</ele>
        <time>2018-03-28T10:17:17Z</time>
      </trkpt>
      <trkpt lat="36.9012880" lon="-4.4011030">
        <ele>512.9</ele>
        <time>2018-03-28T10:17:18Z</time>
      </trkpt>
      <trkpt lat="36.9012900" lon="-4.4010470">
        <ele>512.9</ele>
        <time>2018-03-28T10:17:19Z</time>
      </trkpt>
      <trkpt lat="36.9012930" lon="-4.4009880">
        <ele>513.9</ele>
        <time>2018-03-28T10:17:20Z</time>
      </trkpt>
      <trkpt lat="36.9012930" lon="-4.4009880">
        <ele>513.9</ele>
        <time>2018-03-28T10:17:21Z</time>
      </trkpt>
      <trkpt lat="36.9013020" lon="-4.4008720">
        <ele>513.9</ele>
        <time>2018-03-28T10:17:22Z</time>
      </trkpt>
      <trkpt lat="36.9013050" lon="-4.4008120">
        <ele>513.9</ele>
        <time>2018-03-28T10:17:23Z</time>
      </trkpt>
      <trkpt lat="36.9013050" lon="-4.4008120">
        <ele>513.9</ele>
        <time>2018-03-28T10:17:24Z</time>
      </trkpt>
      <trkpt lat="36.9013100" lon="-4.4006880">
        <ele>513.9</ele>
        <time>2018-03-28T10:17:25Z</time>
      </trkpt>
      <trkpt lat="36.9013100" lon="-4.4006880">
        <ele>513.9</ele>
        <time>2018-03-28T10:17:26Z</time>
      </trkpt>
      <trkpt lat="36.9013180" lon="-4.4005650">
        <ele>514.9</ele>
        <time>2018-03-28T10:17:27Z</time>
      </trkpt>
      <trkpt lat="36.9013200" lon="-4.4005050">
        <ele>514.9</ele>
        <time>2018-03-28T10:17:28Z</time>
      </trkpt>
      <trkpt lat="36.9013200" lon="-4.4005050">
        <ele>514.9</ele>
        <time>2018-03-28T10:17:29Z</time>
      </trkpt>
      <trkpt lat="36.9013300" lon="-4.4003870">
        <ele>514.9</ele>
        <time>2018-03-28T10:17:30Z</time>
      </trkpt>
      <trkpt lat="36.9013330" lon="-4.4003250">
        <ele>514.9</ele>
        <time>2018-03-28T10:17:31Z</time>
      </trkpt>
      <trkpt lat="36.9013330" lon="-4.4003250">
        <ele>514.9</ele>
        <time>2018-03-28T10:17:32Z</time>
      </trkpt>
      <trkpt lat="36.9013400" lon="-4.4001950">
        <ele>514.9</ele>
        <time>2018-03-28T10:17:33Z</time>
      </trkpt>
      <trkpt lat="36.9013430" lon="-4.4001330">
        <ele>514.9</ele>
        <time>2018-03-28T10:17:34Z</time>
      </trkpt>
      <trkpt lat="36.9013430" lon="-4.4001330">
        <ele>514.9</ele>
        <time>2018-03-28T10:17:35Z</time>
      </trkpt>
      <trkpt lat="36.9013430" lon="-4.4000120">
        <ele>515.9</ele>
        <time>2018-03-28T10:17:36Z</time>
      </trkpt>
      <trkpt lat="36.9013430" lon="-4.4000120">
        <ele>515.9</ele>
        <time>2018-03-28T10:17:37Z</time>
      </trkpt>
      <trkpt lat="36.9013430" lon="-4.3998880">
        <ele>515.9</ele>
        <time>2018-03-28T10:17:38Z</time>
      </trkpt>
      <trkpt lat="36.9013430" lon="-4.3998880">
        <ele>515.9</ele>
        <time>2018-03-28T10:17:39Z</time>
      </trkpt>
      <trkpt lat="36.9013430" lon="-4.3997550">
        <ele>515.9</ele>
        <time>2018-03-28T10:17:40Z</time>
      </trkpt>
      <trkpt lat="36.9013430" lon="-4.3997550">
        <ele>515.9</ele>
        <time>2018-03-28T10:17:41Z</time>
      </trkpt>
      <trkpt lat="36.9013550" lon="-4.3996220">
        <ele>515.9</ele>
        <time>2018-03-28T10:17:42Z</time>
      </trkpt>
      <trkpt lat="36.9013550" lon="-4.3996220">
        <ele>515.9</ele>
        <time>2018-03-28T10:17:43Z</time>
      </trkpt>
      <trkpt lat="36.9013580" lon="-4.3994900">
        <ele>515.9</ele>
        <time>2018-03-28T10:17:44Z</time>
      </trkpt>
      <trkpt lat="36.9013580" lon="-4.3994900">
        <ele>515.9</ele>
        <time>2018-03-28T10:17:45Z</time>
      </trkpt>
      <trkpt lat="36.9013580" lon="-4.3993600">
        <ele>516.9</ele>
        <time>2018-03-28T10:17:46Z</time>
      </trkpt>
      <trkpt lat="36.9013580" lon="-4.3993600">
        <ele>516.9</ele>
        <time>2018-03-28T10:17:47Z</time>
      </trkpt>
      <trkpt lat="36.9013650" lon="-4.3992280">
        <ele>516.9</ele>
        <time>2018-03-28T10:17:48Z</time>
      </trkpt>
      <trkpt lat="36.9013680" lon="-4.3991620">
        <ele>516.9</ele>
        <time>2018-03-28T10:17:49Z</time>
      </trkpt>
      <trkpt lat="36.9013680" lon="-4.3991620">
        <ele>516.9</ele>
        <time>2018-03-28T10:17:50Z</time>
      </trkpt>
      <trkpt lat="36.9013730" lon="-4.3990320">
        <ele>516.9</ele>
        <time>2018-03-28T10:17:51Z</time>
      </trkpt>
      <trkpt lat="36.9013780" lon="-4.3989680">
        <ele>516.9</ele>
        <time>2018-03-28T10:17:52Z</time>
      </trkpt>
      <trkpt lat="36.9013780" lon="-4.3989680">
        <ele>516.9</ele>
        <time>2018-03-28T10:17:53Z</time>
      </trkpt>
      <trkpt lat="36.9013820" lon="-4.3988430">
        <ele>516.9</ele>
        <time>2018-03-28T10:17:54Z</time>
      </trkpt>
      <trkpt lat="36.9013820" lon="-4.3987770">
        <ele>517.9</ele>
        <time>2018-03-28T10:17:55Z</time>
      </trkpt>
      <trkpt lat="36.9013820" lon="-4.3987770">
        <ele>517.9</ele>
        <time>2018-03-28T10:17:56Z</time>
      </trkpt>
      <trkpt lat="36.9013850" lon="-4.3986470">
        <ele>517.9</ele>
        <time>2018-03-28T10:17:57Z</time>
      </trkpt>
      <trkpt lat="36.9013850" lon="-4.3986470">
        <ele>517.9</ele>
        <time>2018-03-28T10:17:58Z</time>
      </trkpt>
      <trkpt lat="36.9013920" lon="-4.3984780">
        <ele>517.9</ele>
        <time>2018-03-28T10:17:59Z</time>
      </trkpt>
      <trkpt lat="36.9013940" lon="-4.3984440">
        <ele>517.9</ele>
        <time>2018-03-28T10:18:00Z</time>
      </trkpt>
      <trkpt lat="36.9013970" lon="-4.3983750">
        <ele>517.9</ele>
        <time>2018-03-28T10:18:01Z</time>
      </trkpt>
      <trkpt lat="36.9013970" lon="-4.3983750">
        <ele>517.9</ele>
        <time>2018-03-28T10:18:02Z</time>
      </trkpt>
      <trkpt lat="36.9014020" lon="-4.3982380">
        <ele>517.9</ele>
        <time>2018-03-28T10:18:03Z</time>
      </trkpt>
      <trkpt lat="36.9014020" lon="-4.3981680">
        <ele>518.9</ele>
        <time>2018-03-28T10:18:04Z</time>
      </trkpt>
      <trkpt lat="36.9014020" lon="-4.3981020">
        <ele>518.9</ele>
        <time>2018-03-28T10:18:05Z</time>
      </trkpt>
      <trkpt lat="36.9014070" lon="-4.3980350">
        <ele>518.9</ele>
        <time>2018-03-28T10:18:06Z</time>
      </trkpt>
      <trkpt lat="36.9014120" lon="-4.3979670">
        <ele>518.9</ele>
        <time>2018-03-28T10:18:07Z</time>
      </trkpt>
      <trkpt lat="36.9014120" lon="-4.3979670">
        <ele>518.9</ele>
        <time>2018-03-28T10:18:08Z</time>
      </trkpt>
      <trkpt lat="36.9014190" lon="-4.3978220">
        <ele>518.9</ele>
        <time>2018-03-28T10:18:09Z</time>
      </trkpt>
      <trkpt lat="36.9014190" lon="-4.3978050">
        <ele>519.9</ele>
        <time>2018-03-28T10:18:10Z</time>
      </trkpt>
      <trkpt lat="36.9014200" lon="-4.3977720">
        <ele>519.9</ele>
        <time>2018-03-28T10:18:11Z</time>
      </trkpt>
      <trkpt lat="36.9014220" lon="-4.3976350">
        <ele>519.9</ele>
        <time>2018-03-28T10:18:12Z</time>
      </trkpt>
      <trkpt lat="36.9014220" lon="-4.3976350">
        <ele>519.9</ele>
        <time>2018-03-28T10:18:13Z</time>
      </trkpt>
      <trkpt lat="36.9014250" lon="-4.3974970">
        <ele>519.9</ele>
        <time>2018-03-28T10:18:14Z</time>
      </trkpt>
      <trkpt lat="36.9014250" lon="-4.3974470">
        <ele>519.9</ele>
        <time>2018-03-28T10:18:15Z</time>
      </trkpt>
      <trkpt lat="36.9014250" lon="-4.3973960">
        <ele>519.9</ele>
        <time>2018-03-28T10:18:16Z</time>
      </trkpt>
      <trkpt lat="36.9014250" lon="-4.3972950">
        <ele>519.9</ele>
        <time>2018-03-28T10:18:17Z</time>
      </trkpt>
      <trkpt lat="36.9014250" lon="-4.3972950">
        <ele>519.9</ele>
        <time>2018-03-28T10:18:18Z</time>
      </trkpt>
      <trkpt lat="36.9014280" lon="-4.3971620">
        <ele>519.9</ele>
        <time>2018-03-28T10:18:19Z</time>
      </trkpt>
      <trkpt lat="36.9014280" lon="-4.3971620">
        <ele>520.9</ele>
        <time>2018-03-28T10:18:20Z</time>
      </trkpt>
      <trkpt lat="36.9014300" lon="-4.3970300">
        <ele>520.9</ele>
        <time>2018-03-28T10:18:21Z</time>
      </trkpt>
      <trkpt lat="36.9014300" lon="-4.3970300">
        <ele>520.9</ele>
        <time>2018-03-28T10:18:22Z</time>
      </trkpt>
      <trkpt lat="36.9014320" lon="-4.3968950">
        <ele>520.9</ele>
        <time>2018-03-28T10:18:23Z</time>
      </trkpt>
      <trkpt lat="36.9014350" lon="-4.3968270">
        <ele>520.9</ele>
        <time>2018-03-28T10:18:24Z</time>
      </trkpt>
      <trkpt lat="36.9014370" lon="-4.3967580">
        <ele>521.9</ele>
        <time>2018-03-28T10:18:25Z</time>
      </trkpt>
      <trkpt lat="36.9014370" lon="-4.3967580">
        <ele>521.9</ele>
        <time>2018-03-28T10:18:26Z</time>
      </trkpt>
      <trkpt lat="36.9014430" lon="-4.3966200">
        <ele>521.9</ele>
        <time>2018-03-28T10:18:27Z</time>
      </trkpt>
      <trkpt lat="36.9014440" lon="-4.3965860">
        <ele>521.9</ele>
        <time>2018-03-28T10:18:28Z</time>
      </trkpt>
      <trkpt lat="36.9014440" lon="-4.3965510">
        <ele>521.9</ele>
        <time>2018-03-28T10:18:29Z</time>
      </trkpt>
      <trkpt lat="36.9014450" lon="-4.3964820">
        <ele>521.9</ele>
        <time>2018-03-28T10:18:30Z</time>
      </trkpt>
      <trkpt lat="36.9014470" lon="-4.3963500">
        <ele>521.9</ele>
        <time>2018-03-28T10:18:31Z</time>
      </trkpt>
      <trkpt lat="36.9014470" lon="-4.3963500">
        <ele>521.9</ele>
        <time>2018-03-28T10:18:32Z</time>
      </trkpt>
      <trkpt lat="36.9014500" lon="-4.3962120">
        <ele>521.9</ele>
        <time>2018-03-28T10:18:33Z</time>
      </trkpt>
      <trkpt lat="36.9014530" lon="-4.3961420">
        <ele>521.9</ele>
        <time>2018-03-28T10:18:34Z</time>
      </trkpt>
      <trkpt lat="36.9014550" lon="-4.3960730">
        <ele>521.9</ele>
        <time>2018-03-28T10:18:35Z</time>
      </trkpt>
      <trkpt lat="36.9014550" lon="-4.3960730">
        <ele>522.9</ele>
        <time>2018-03-28T10:18:36Z</time>
      </trkpt>
      <trkpt lat="36.9014600" lon="-4.3959380">
        <ele>522.9</ele>
        <time>2018-03-28T10:18:37Z</time>
      </trkpt>
      <trkpt lat="36.9014600" lon="-4.3959380">
        <ele>522.9</ele>
        <time>2018-03-28T10:18:38Z</time>
      </trkpt>
      <trkpt lat="36.9014680" lon="-4.3958020">
        <ele>522.9</ele>
        <time>2018-03-28T10:18:39Z</time>
      </trkpt>
      <trkpt lat="36.9014680" lon="-4.3958020">
        <ele>522.9</ele>
        <time>2018-03-28T10:18:40Z</time>
      </trkpt>
      <trkpt lat="36.9014670" lon="-4.3956680">
        <ele>522.9</ele>
        <time>2018-03-28T10:18:41Z</time>
      </trkpt>
      <trkpt lat="36.9014670" lon="-4.3956680">
        <ele>522.9</ele>
        <time>2018-03-28T10:18:42Z</time>
      </trkpt>
      <trkpt lat="36.9014720" lon="-4.3955350">
        <ele>522.9</ele>
        <time>2018-03-28T10:18:43Z</time>
      </trkpt>
      <trkpt lat="36.9014720" lon="-4.3955350">
        <ele>523.9</ele>
        <time>2018-03-28T10:18:44Z</time>
      </trkpt>
      <trkpt lat="36.9014750" lon="-4.3954030">
        <ele>523.9</ele>
        <time>2018-03-28T10:18:45Z</time>
      </trkpt>
      <trkpt lat="36.9014760" lon="-4.3953710">
        <ele>523.9</ele>
        <time>2018-03-28T10:18:46Z</time>
      </trkpt>
      <trkpt lat="36.9014770" lon="-4.3953380">
        <ele>523.9</ele>
        <time>2018-03-28T10:18:47Z</time>
      </trkpt>
      <trkpt lat="36.9014780" lon="-4.3952720">
        <ele>523.9</ele>
        <time>2018-03-28T10:18:48Z</time>
      </trkpt>
      <trkpt lat="36.9014800" lon="-4.3951370">
        <ele>523.9</ele>
        <time>2018-03-28T10:18:49Z</time>
      </trkpt>
      <trkpt lat="36.9014850" lon="-4.3950370">
        <ele>524.9</ele>
        <time>2018-03-28T10:18:50Z</time>
      </trkpt>
      <trkpt lat="36.9014870" lon="-4.3950030">
        <ele>524.9</ele>
        <time>2018-03-28T10:18:51Z</time>
      </trkpt>
      <trkpt lat="36.9014900" lon="-4.3949350">
        <ele>524.9</ele>
        <time>2018-03-28T10:18:52Z</time>
      </trkpt>
      <trkpt lat="36.9014900" lon="-4.3949350">
        <ele>525.9</ele>
        <time>2018-03-28T10:18:53Z</time>
      </trkpt>
      <trkpt lat="36.9014930" lon="-4.3947980">
        <ele>525.9</ele>
        <time>2018-03-28T10:18:54Z</time>
      </trkpt>
      <trkpt lat="36.9014950" lon="-4.3947320">
        <ele>525.9</ele>
        <time>2018-03-28T10:18:55Z</time>
      </trkpt>
      <trkpt lat="36.9014950" lon="-4.3947320">
        <ele>525.9</ele>
        <time>2018-03-28T10:18:56Z</time>
      </trkpt>
      <trkpt lat="36.9015000" lon="-4.3945690">
        <ele>525.9</ele>
        <time>2018-03-28T10:18:57Z</time>
      </trkpt>
      <trkpt lat="36.9015020" lon="-4.3945350">
        <ele>525.9</ele>
        <time>2018-03-28T10:18:58Z</time>
      </trkpt>
      <trkpt lat="36.9015050" lon="-4.3944680">
        <ele>525.9</ele>
        <time>2018-03-28T10:18:59Z</time>
      </trkpt>
      <trkpt lat="36.9015050" lon="-4.3944680">
        <ele>525.9</ele>
        <time>2018-03-28T10:19:00Z</time>
      </trkpt>
      <trkpt lat="36.9015080" lon="-4.3943400">
        <ele>525.9</ele>
        <time>2018-03-28T10:19:01Z</time>
      </trkpt>
      <trkpt lat="36.9015080" lon="-4.3943080">
        <ele>526.9</ele>
        <time>2018-03-28T10:19:02Z</time>
      </trkpt>
      <trkpt lat="36.9015080" lon="-4.3942770">
        <ele>526.9</ele>
        <time>2018-03-28T10:19:03Z</time>
      </trkpt>
      <trkpt lat="36.9015080" lon="-4.3942130">
        <ele>526.9</ele>
        <time>2018-03-28T10:19:04Z</time>
      </trkpt>
      <trkpt lat="36.9015130" lon="-4.3940870">
        <ele>526.9</ele>
        <time>2018-03-28T10:19:05Z</time>
      </trkpt>
      <trkpt lat="36.9015130" lon="-4.3940870">
        <ele>527.9</ele>
        <time>2018-03-28T10:19:06Z</time>
      </trkpt>
      <trkpt lat="36.9015180" lon="-4.3939620">
        <ele>527.9</ele>
        <time>2018-03-28T10:19:07Z</time>
      </trkpt>
      <trkpt lat="36.9015180" lon="-4.3939620">
        <ele>527.9</ele>
        <time>2018-03-28T10:19:08Z</time>
      </trkpt>
      <trkpt lat="36.9015200" lon="-4.3938420">
        <ele>527.9</ele>
        <time>2018-03-28T10:19:09Z</time>
      </trkpt>
      <trkpt lat="36.9015200" lon="-4.3938420">
        <ele>527.9</ele>
        <time>2018-03-28T10:19:10Z</time>
      </trkpt>
      <trkpt lat="36.9015250" lon="-4.3937270">
        <ele>527.9</ele>
        <time>2018-03-28T10:19:11Z</time>
      </trkpt>
      <trkpt lat="36.9015270" lon="-4.3936670">
        <ele>527.9</ele>
        <time>2018-03-28T10:19:12Z</time>
      </trkpt>
      <trkpt lat="36.9015270" lon="-4.3936670">
        <ele>527.9</ele>
        <time>2018-03-28T10:19:13Z</time>
      </trkpt>
      <trkpt lat="36.9015270" lon="-4.3935430">
        <ele>527.9</ele>
        <time>2018-03-28T10:19:14Z</time>
      </trkpt>
      <trkpt lat="36.9015270" lon="-4.3935430">
        <ele>527.9</ele>
        <time>2018-03-28T10:19:15Z</time>
      </trkpt>
      <trkpt lat="36.9015280" lon="-4.3934250">
        <ele>528.9</ele>
        <time>2018-03-28T10:19:16Z</time>
      </trkpt>
      <trkpt lat="36.9015280" lon="-4.3934250">
        <ele>528.9</ele>
        <time>2018-03-28T10:19:17Z</time>
      </trkpt>
      <trkpt lat="36.9015270" lon="-4.3933070">
        <ele>528.9</ele>
        <time>2018-03-28T10:19:18Z</time>
      </trkpt>
      <trkpt lat="36.9015290" lon="-4.3932200">
        <ele>528.9</ele>
        <time>2018-03-28T10:19:19Z</time>
      </trkpt>
      <trkpt lat="36.9015300" lon="-4.3931920">
        <ele>529.9</ele>
        <time>2018-03-28T10:19:20Z</time>
      </trkpt>
      <trkpt lat="36.9015320" lon="-4.3931350">
        <ele>529.9</ele>
        <time>2018-03-28T10:19:21Z</time>
      </trkpt>
      <trkpt lat="36.9015320" lon="-4.3931350">
        <ele>529.9</ele>
        <time>2018-03-28T10:19:22Z</time>
      </trkpt>
      <trkpt lat="36.9015320" lon="-4.3929880">
        <ele>529.9</ele>
        <time>2018-03-28T10:19:23Z</time>
      </trkpt>
      <trkpt lat="36.9015320" lon="-4.3929580">
        <ele>529.9</ele>
        <time>2018-03-28T10:19:24Z</time>
      </trkpt>
      <trkpt lat="36.9015320" lon="-4.3929280">
        <ele>530.9</ele>
        <time>2018-03-28T10:19:25Z</time>
      </trkpt>
      <trkpt lat="36.9015320" lon="-4.3928380">
        <ele>530.9</ele>
        <time>2018-03-28T10:19:26Z</time>
      </trkpt>
      <trkpt lat="36.9015320" lon="-4.3928380">
        <ele>530.9</ele>
        <time>2018-03-28T10:19:27Z</time>
      </trkpt>
      <trkpt lat="36.9015320" lon="-4.3927180">
        <ele>530.9</ele>
        <time>2018-03-28T10:19:28Z</time>
      </trkpt>
      <trkpt lat="36.9015320" lon="-4.3927180">
        <ele>530.9</ele>
        <time>2018-03-28T10:19:29Z</time>
      </trkpt>
      <trkpt lat="36.9015300" lon="-4.3925950">
        <ele>531.9</ele>
        <time>2018-03-28T10:19:30Z</time>
      </trkpt>
      <trkpt lat="36.9015300" lon="-4.3925950">
        <ele>531.9</ele>
        <time>2018-03-28T10:19:31Z</time>
      </trkpt>
      <trkpt lat="36.9015280" lon="-4.3924680">
        <ele>531.9</ele>
        <time>2018-03-28T10:19:32Z</time>
      </trkpt>
      <trkpt lat="36.9015280" lon="-4.3924680">
        <ele>531.9</ele>
        <time>2018-03-28T10:19:33Z</time>
      </trkpt>
      <trkpt lat="36.9015250" lon="-4.3923430">
        <ele>531.9</ele>
        <time>2018-03-28T10:19:34Z</time>
      </trkpt>
      <trkpt lat="36.9015250" lon="-4.3922800">
        <ele>531.9</ele>
        <time>2018-03-28T10:19:35Z</time>
      </trkpt>
      <trkpt lat="36.9015250" lon="-4.3922170">
        <ele>531.9</ele>
        <time>2018-03-28T10:19:36Z</time>
      </trkpt>
      <trkpt lat="36.9015250" lon="-4.3922170">
        <ele>531.9</ele>
        <time>2018-03-28T10:19:37Z</time>
      </trkpt>
      <trkpt lat="36.9015250" lon="-4.3920920">
        <ele>531.9</ele>
        <time>2018-03-28T10:19:38Z</time>
      </trkpt>
      <trkpt lat="36.9015250" lon="-4.3920270">
        <ele>531.9</ele>
        <time>2018-03-28T10:19:39Z</time>
      </trkpt>
      <trkpt lat="36.9015250" lon="-4.3920270">
        <ele>531.9</ele>
        <time>2018-03-28T10:19:40Z</time>
      </trkpt>
      <trkpt lat="36.9015200" lon="-4.3918680">
        <ele>532.9</ele>
        <time>2018-03-28T10:19:41Z</time>
      </trkpt>
      <trkpt lat="36.9015190" lon="-4.3918390">
        <ele>532.9</ele>
        <time>2018-03-28T10:19:42Z</time>
      </trkpt>
      <trkpt lat="36.9015170" lon="-4.3917470">
        <ele>532.9</ele>
        <time>2018-03-28T10:19:43Z</time>
      </trkpt>
      <trkpt lat="36.9015160" lon="-4.3917140">
        <ele>532.9</ele>
        <time>2018-03-28T10:19:44Z</time>
      </trkpt>
      <trkpt lat="36.9015120" lon="-4.3916150">
        <ele>532.9</ele>
        <time>2018-03-28T10:19:45Z</time>
      </trkpt>
      <trkpt lat="36.9015100" lon="-4.3915820">
        <ele>532.9</ele>
        <time>2018-03-28T10:19:46Z</time>
      </trkpt>
      <trkpt lat="36.9015100" lon="-4.3915820">
        <ele>532.9</ele>
        <time>2018-03-28T10:19:47Z</time>
      </trkpt>
      <trkpt lat="36.9015020" lon="-4.3914480">
        <ele>532.9</ele>
        <time>2018-03-28T10:19:48Z</time>
      </trkpt>
      <trkpt lat="36.9015000" lon="-4.3913850">
        <ele>533.9</ele>
        <time>2018-03-28T10:19:49Z</time>
      </trkpt>
      <trkpt lat="36.9015000" lon="-4.3913850">
        <ele>533.9</ele>
        <time>2018-03-28T10:19:50Z</time>
      </trkpt>
      <trkpt lat="36.9014900" lon="-4.3912500">
        <ele>533.9</ele>
        <time>2018-03-28T10:19:51Z</time>
      </trkpt>
      <trkpt lat="36.9014900" lon="-4.3912500">
        <ele>533.9</ele>
        <time>2018-03-28T10:19:52Z</time>
      </trkpt>
      <trkpt lat="36.9014830" lon="-4.3911100">
        <ele>533.9</ele>
        <time>2018-03-28T10:19:53Z</time>
      </trkpt>
      <trkpt lat="36.9014830" lon="-4.3911100">
        <ele>533.9</ele>
        <time>2018-03-28T10:19:54Z</time>
      </trkpt>
      <trkpt lat="36.9014770" lon="-4.3909650">
        <ele>533.9</ele>
        <time>2018-03-28T10:19:55Z</time>
      </trkpt>
      <trkpt lat="36.9014720" lon="-4.3908920">
        <ele>533.9</ele>
        <time>2018-03-28T10:19:56Z</time>
      </trkpt>
      <trkpt lat="36.9014720" lon="-4.3908920">
        <ele>533.9</ele>
        <time>2018-03-28T10:19:57Z</time>
      </trkpt>
      <trkpt lat="36.9014690" lon="-4.3906960">
        <ele>533.9</ele>
        <time>2018-03-28T10:19:58Z</time>
      </trkpt>
      <trkpt lat="36.9014670" lon="-4.3906470">
        <ele>533.9</ele>
        <time>2018-03-28T10:19:59Z</time>
      </trkpt>
      <trkpt lat="36.9014660" lon="-4.3905980">
        <ele>533.9</ele>
        <time>2018-03-28T10:20:00Z</time>
      </trkpt>
      <trkpt lat="36.9014620" lon="-4.3905230">
        <ele>533.9</ele>
        <time>2018-03-28T10:20:01Z</time>
      </trkpt>
      <trkpt lat="36.9014620" lon="-4.3905230">
        <ele>533.9</ele>
        <time>2018-03-28T10:20:02Z</time>
      </trkpt>
      <trkpt lat="36.9014550" lon="-4.3903730">
        <ele>533.9</ele>
        <time>2018-03-28T10:20:03Z</time>
      </trkpt>
      <trkpt lat="36.9014550" lon="-4.3903730">
        <ele>533.9</ele>
        <time>2018-03-28T10:20:04Z</time>
      </trkpt>
      <trkpt lat="36.9014480" lon="-4.3902170">
        <ele>533.9</ele>
        <time>2018-03-28T10:20:05Z</time>
      </trkpt>
      <trkpt lat="36.9014450" lon="-4.3901370">
        <ele>534.9</ele>
        <time>2018-03-28T10:20:06Z</time>
      </trkpt>
      <trkpt lat="36.9014420" lon="-4.3900580">
        <ele>534.9</ele>
        <time>2018-03-28T10:20:07Z</time>
      </trkpt>
      <trkpt lat="36.9014420" lon="-4.3900580">
        <ele>534.9</ele>
        <time>2018-03-28T10:20:08Z</time>
      </trkpt>
      <trkpt lat="36.9014370" lon="-4.3899000">
        <ele>534.9</ele>
        <time>2018-03-28T10:20:09Z</time>
      </trkpt>
      <trkpt lat="36.9014330" lon="-4.3898220">
        <ele>534.9</ele>
        <time>2018-03-28T10:20:10Z</time>
      </trkpt>
      <trkpt lat="36.9014330" lon="-4.3898220">
        <ele>534.9</ele>
        <time>2018-03-28T10:20:11Z</time>
      </trkpt>
      <trkpt lat="36.9014200" lon="-4.3896620">
        <ele>534.9</ele>
        <time>2018-03-28T10:20:12Z</time>
      </trkpt>
      <trkpt lat="36.9014150" lon="-4.3895850">
        <ele>534.9</ele>
        <time>2018-03-28T10:20:13Z</time>
      </trkpt>
      <trkpt lat="36.9014150" lon="-4.3895850">
        <ele>534.9</ele>
        <time>2018-03-28T10:20:14Z</time>
      </trkpt>
      <trkpt lat="36.9014100" lon="-4.3894280">
        <ele>534.9</ele>
        <time>2018-03-28T10:20:15Z</time>
      </trkpt>
      <trkpt lat="36.9014070" lon="-4.3893520">
        <ele>534.9</ele>
        <time>2018-03-28T10:20:16Z</time>
      </trkpt>
      <trkpt lat="36.9014070" lon="-4.3893520">
        <ele>534.9</ele>
        <time>2018-03-28T10:20:17Z</time>
      </trkpt>
      <trkpt lat="36.9014000" lon="-4.3892000">
        <ele>534.9</ele>
        <time>2018-03-28T10:20:18Z</time>
      </trkpt>
      <trkpt lat="36.9013970" lon="-4.3891230">
        <ele>534.9</ele>
        <time>2018-03-28T10:20:19Z</time>
      </trkpt>
      <trkpt lat="36.9013970" lon="-4.3891230">
        <ele>534.9</ele>
        <time>2018-03-28T10:20:20Z</time>
      </trkpt>
      <trkpt lat="36.9013880" lon="-4.3889480">
        <ele>534.9</ele>
        <time>2018-03-28T10:20:21Z</time>
      </trkpt>
      <trkpt lat="36.9013870" lon="-4.3889280">
        <ele>534.9</ele>
        <time>2018-03-28T10:20:22Z</time>
      </trkpt>
      <trkpt lat="36.9013850" lon="-4.3888880">
        <ele>534.9</ele>
        <time>2018-03-28T10:20:23Z</time>
      </trkpt>
      <trkpt lat="36.9013780" lon="-4.3887300">
        <ele>534.9</ele>
        <time>2018-03-28T10:20:24Z</time>
      </trkpt>
      <trkpt lat="36.9013750" lon="-4.3886500">
        <ele>534.9</ele>
        <time>2018-03-28T10:20:25Z</time>
      </trkpt>
      <trkpt lat="36.9013750" lon="-4.3886500">
        <ele>534.9</ele>
        <time>2018-03-28T10:20:26Z</time>
      </trkpt>
      <trkpt lat="36.9013760" lon="-4.3884440">
        <ele>534.9</ele>
        <time>2018-03-28T10:20:27Z</time>
      </trkpt>
      <trkpt lat="36.9013770" lon="-4.3884020">
        <ele>534.9</ele>
        <time>2018-03-28T10:20:28Z</time>
      </trkpt>
      <trkpt lat="36.9013780" lon="-4.3883180">
        <ele>534.9</ele>
        <time>2018-03-28T10:20:29Z</time>
      </trkpt>
      <trkpt lat="36.9013780" lon="-4.3883180">
        <ele>534.9</ele>
        <time>2018-03-28T10:20:30Z</time>
      </trkpt>
      <trkpt lat="36.9013780" lon="-4.3881620">
        <ele>535.9</ele>
        <time>2018-03-28T10:20:31Z</time>
      </trkpt>
      <trkpt lat="36.9013780" lon="-4.3881620">
        <ele>535.9</ele>
        <time>2018-03-28T10:20:32Z</time>
      </trkpt>
      <trkpt lat="36.9013830" lon="-4.3880070">
        <ele>535.9</ele>
        <time>2018-03-28T10:20:33Z</time>
      </trkpt>
      <trkpt lat="36.9013830" lon="-4.3880070">
        <ele>535.9</ele>
        <time>2018-03-28T10:20:34Z</time>
      </trkpt>
      <trkpt lat="36.9014030" lon="-4.3878520">
        <ele>535.9</ele>
        <time>2018-03-28T10:20:35Z</time>
      </trkpt>
      <trkpt lat="36.9014030" lon="-4.3878520">
        <ele>535.9</ele>
        <time>2018-03-28T10:20:36Z</time>
      </trkpt>
      <trkpt lat="36.9014270" lon="-4.3876950">
        <ele>535.9</ele>
        <time>2018-03-28T10:20:37Z</time>
      </trkpt>
      <trkpt lat="36.9014270" lon="-4.3876950">
        <ele>535.9</ele>
        <time>2018-03-28T10:20:38Z</time>
      </trkpt>
      <trkpt lat="36.9014580" lon="-4.3875380">
        <ele>535.9</ele>
        <time>2018-03-28T10:20:39Z</time>
      </trkpt>
      <trkpt lat="36.9014580" lon="-4.3875380">
        <ele>535.9</ele>
        <time>2018-03-28T10:20:40Z</time>
      </trkpt>
      <trkpt lat="36.9015050" lon="-4.3873640">
        <ele>535.9</ele>
        <time>2018-03-28T10:20:41Z</time>
      </trkpt>
      <trkpt lat="36.9015110" lon="-4.3873440">
        <ele>535.9</ele>
        <time>2018-03-28T10:20:42Z</time>
      </trkpt>
      <trkpt lat="36.9015230" lon="-4.3873050">
        <ele>535.9</ele>
        <time>2018-03-28T10:20:43Z</time>
      </trkpt>
      <trkpt lat="36.9015820" lon="-4.3870930">
        <ele>535.9</ele>
        <time>2018-03-28T10:20:44Z</time>
      </trkpt>
      <trkpt lat="36.9015940" lon="-4.3870510">
        <ele>535.9</ele>
        <time>2018-03-28T10:20:45Z</time>
      </trkpt>
      <trkpt lat="36.9016170" lon="-4.3869670">
        <ele>535.9</ele>
        <time>2018-03-28T10:20:46Z</time>
      </trkpt>
      <trkpt lat="36.9016170" lon="-4.3869670">
        <ele>535.9</ele>
        <time>2018-03-28T10:20:47Z</time>
      </trkpt>
      <trkpt lat="36.9016820" lon="-4.3868020">
        <ele>535.9</ele>
        <time>2018-03-28T10:20:48Z</time>
      </trkpt>
      <trkpt lat="36.9017150" lon="-4.3867200">
        <ele>535.9</ele>
        <time>2018-03-28T10:20:49Z</time>
      </trkpt>
      <trkpt lat="36.9017150" lon="-4.3867200">
        <ele>535.9</ele>
        <time>2018-03-28T10:20:50Z</time>
      </trkpt>
      <trkpt lat="36.9017980" lon="-4.3865650">
        <ele>535.9</ele>
        <time>2018-03-28T10:20:51Z</time>
      </trkpt>
      <trkpt lat="36.9017980" lon="-4.3865650">
        <ele>535.9</ele>
        <time>2018-03-28T10:20:52Z</time>
      </trkpt>
      <trkpt lat="36.9018780" lon="-4.3864100">
        <ele>535.9</ele>
        <time>2018-03-28T10:20:53Z</time>
      </trkpt>
      <trkpt lat="36.9018780" lon="-4.3864100">
        <ele>535.9</ele>
        <time>2018-03-28T10:20:54Z</time>
      </trkpt>
      <trkpt lat="36.9019670" lon="-4.3862550">
        <ele>535.9</ele>
        <time>2018-03-28T10:20:55Z</time>
      </trkpt>
      <trkpt lat="36.9019670" lon="-4.3862550">
        <ele>535.9</ele>
        <time>2018-03-28T10:20:56Z</time>
      </trkpt>
      <trkpt lat="36.9020600" lon="-4.3861070">
        <ele>535.9</ele>
        <time>2018-03-28T10:20:57Z</time>
      </trkpt>
      <trkpt lat="36.9020600" lon="-4.3861070">
        <ele>535.9</ele>
        <time>2018-03-28T10:20:58Z</time>
      </trkpt>
      <trkpt lat="36.9021530" lon="-4.3859570">
        <ele>535.9</ele>
        <time>2018-03-28T10:20:59Z</time>
      </trkpt>
      <trkpt lat="36.9021530" lon="-4.3859570">
        <ele>535.9</ele>
        <time>2018-03-28T10:21:00Z</time>
      </trkpt>
      <trkpt lat="36.9022480" lon="-4.3858050">
        <ele>535.9</ele>
        <time>2018-03-28T10:21:01Z</time>
      </trkpt>
      <trkpt lat="36.9022480" lon="-4.3858050">
        <ele>535.9</ele>
        <time>2018-03-28T10:21:02Z</time>
      </trkpt>
      <trkpt lat="36.9023430" lon="-4.3856520">
        <ele>535.9</ele>
        <time>2018-03-28T10:21:03Z</time>
      </trkpt>
      <trkpt lat="36.9023920" lon="-4.3855750">
        <ele>535.9</ele>
        <time>2018-03-28T10:21:04Z</time>
      </trkpt>
      <trkpt lat="36.9023920" lon="-4.3855750">
        <ele>535.9</ele>
        <time>2018-03-28T10:21:05Z</time>
      </trkpt>
      <trkpt lat="36.9024850" lon="-4.3854180">
        <ele>535.9</ele>
        <time>2018-03-28T10:21:06Z</time>
      </trkpt>
      <trkpt lat="36.9025320" lon="-4.3853400">
        <ele>535.9</ele>
        <time>2018-03-28T10:21:07Z</time>
      </trkpt>
      <trkpt lat="36.9025320" lon="-4.3853400">
        <ele>535.9</ele>
        <time>2018-03-28T10:21:08Z</time>
      </trkpt>
      <trkpt lat="36.9026280" lon="-4.3851830">
        <ele>535.9</ele>
        <time>2018-03-28T10:21:09Z</time>
      </trkpt>
      <trkpt lat="36.9026770" lon="-4.3851050">
        <ele>535.9</ele>
        <time>2018-03-28T10:21:10Z</time>
      </trkpt>
      <trkpt lat="36.9026770" lon="-4.3851050">
        <ele>535.9</ele>
        <time>2018-03-28T10:21:11Z</time>
      </trkpt>
      <trkpt lat="36.9027730" lon="-4.3849480">
        <ele>535.9</ele>
        <time>2018-03-28T10:21:12Z</time>
      </trkpt>
      <trkpt lat="36.9028200" lon="-4.3848720">
        <ele>535.9</ele>
        <time>2018-03-28T10:21:13Z</time>
      </trkpt>
      <trkpt lat="36.9028200" lon="-4.3848720">
        <ele>535.9</ele>
        <time>2018-03-28T10:21:14Z</time>
      </trkpt>
      <trkpt lat="36.9029150" lon="-4.3847200">
        <ele>535.9</ele>
        <time>2018-03-28T10:21:15Z</time>
      </trkpt>
      <trkpt lat="36.9029150" lon="-4.3847200">
        <ele>535.9</ele>
        <time>2018-03-28T10:21:16Z</time>
      </trkpt>
      <trkpt lat="36.9030080" lon="-4.3845700">
        <ele>535.9</ele>
        <time>2018-03-28T10:21:17Z</time>
      </trkpt>
      <trkpt lat="36.9030080" lon="-4.3845700">
        <ele>535.9</ele>
        <time>2018-03-28T10:21:18Z</time>
      </trkpt>
      <trkpt lat="36.9030970" lon="-4.3844270">
        <ele>535.9</ele>
        <time>2018-03-28T10:21:19Z</time>
      </trkpt>
      <trkpt lat="36.9030970" lon="-4.3844270">
        <ele>535.9</ele>
        <time>2018-03-28T10:21:20Z</time>
      </trkpt>
      <trkpt lat="36.9031930" lon="-4.3842640">
        <ele>535.9</ele>
        <time>2018-03-28T10:21:21Z</time>
      </trkpt>
      <trkpt lat="36.9032030" lon="-4.3842460">
        <ele>535.9</ele>
        <time>2018-03-28T10:21:22Z</time>
      </trkpt>
      <trkpt lat="36.9032230" lon="-4.3842100">
        <ele>535.9</ele>
        <time>2018-03-28T10:21:23Z</time>
      </trkpt>
      <trkpt lat="36.9033050" lon="-4.3840750">
        <ele>535.9</ele>
        <time>2018-03-28T10:21:24Z</time>
      </trkpt>
      <trkpt lat="36.9033640" lon="-4.3839760">
        <ele>535.9</ele>
        <time>2018-03-28T10:21:25Z</time>
      </trkpt>
      <trkpt lat="36.9033830" lon="-4.3839430">
        <ele>535.9</ele>
        <time>2018-03-28T10:21:26Z</time>
      </trkpt>
      <trkpt lat="36.9034200" lon="-4.3838770">
        <ele>535.9</ele>
        <time>2018-03-28T10:21:27Z</time>
      </trkpt>
      <trkpt lat="36.9034200" lon="-4.3838770">
        <ele>536.9</ele>
        <time>2018-03-28T10:21:28Z</time>
      </trkpt>
      <trkpt lat="36.9034920" lon="-4.3837500">
        <ele>536.9</ele>
        <time>2018-03-28T10:21:29Z</time>
      </trkpt>
      <trkpt lat="36.9034920" lon="-4.3837500">
        <ele>536.9</ele>
        <time>2018-03-28T10:21:30Z</time>
      </trkpt>
      <trkpt lat="36.9035600" lon="-4.3836300">
        <ele>536.9</ele>
        <time>2018-03-28T10:21:31Z</time>
      </trkpt>
      <trkpt lat="36.9035600" lon="-4.3836300">
        <ele>537.9</ele>
        <time>2018-03-28T10:21:32Z</time>
      </trkpt>
      <trkpt lat="36.9036270" lon="-4.3835180">
        <ele>537.9</ele>
        <time>2018-03-28T10:21:33Z</time>
      </trkpt>
      <trkpt lat="36.9036600" lon="-4.3834620">
        <ele>537.9</ele>
        <time>2018-03-28T10:21:34Z</time>
      </trkpt>
      <trkpt lat="36.9036600" lon="-4.3834620">
        <ele>537.9</ele>
        <time>2018-03-28T10:21:35Z</time>
      </trkpt>
      <trkpt lat="36.9037180" lon="-4.3833480">
        <ele>538.9</ele>
        <time>2018-03-28T10:21:36Z</time>
      </trkpt>
      <trkpt lat="36.9037480" lon="-4.3832930">
        <ele>538.9</ele>
        <time>2018-03-28T10:21:37Z</time>
      </trkpt>
      <trkpt lat="36.9037480" lon="-4.3832930">
        <ele>538.9</ele>
        <time>2018-03-28T10:21:38Z</time>
      </trkpt>
      <trkpt lat="36.9038050" lon="-4.3831820">
        <ele>538.9</ele>
        <time>2018-03-28T10:21:39Z</time>
      </trkpt>
      <trkpt lat="36.9038050" lon="-4.3831820">
        <ele>539.9</ele>
        <time>2018-03-28T10:21:40Z</time>
      </trkpt>
      <trkpt lat="36.9038630" lon="-4.3830700">
        <ele>539.9</ele>
        <time>2018-03-28T10:21:41Z</time>
      </trkpt>
      <trkpt lat="36.9038630" lon="-4.3830700">
        <ele>539.9</ele>
        <time>2018-03-28T10:21:42Z</time>
      </trkpt>
      <trkpt lat="36.9039310" lon="-4.3829320">
        <ele>539.9</ele>
        <time>2018-03-28T10:21:43Z</time>
      </trkpt>
      <trkpt lat="36.9039440" lon="-4.3829050">
        <ele>539.9</ele>
        <time>2018-03-28T10:21:44Z</time>
      </trkpt>
      <trkpt lat="36.9039820" lon="-4.3828250">
        <ele>539.9</ele>
        <time>2018-03-28T10:21:45Z</time>
      </trkpt>
      <trkpt lat="36.9039930" lon="-4.3827980">
        <ele>539.9</ele>
        <time>2018-03-28T10:21:46Z</time>
      </trkpt>
      <trkpt lat="36.9039930" lon="-4.3827980">
        <ele>539.9</ele>
        <time>2018-03-28T10:21:47Z</time>
      </trkpt>
      <trkpt lat="36.9040470" lon="-4.3826920">
        <ele>539.9</ele>
        <time>2018-03-28T10:21:48Z</time>
      </trkpt>
      <trkpt lat="36.9040720" lon="-4.3826380">
        <ele>539.9</ele>
        <time>2018-03-28T10:21:49Z</time>
      </trkpt>
      <trkpt lat="36.9040720" lon="-4.3826380">
        <ele>540.9</ele>
        <time>2018-03-28T10:21:50Z</time>
      </trkpt>
      <trkpt lat="36.9041200" lon="-4.3825280">
        <ele>540.9</ele>
        <time>2018-03-28T10:21:51Z</time>
      </trkpt>
      <trkpt lat="36.9041450" lon="-4.3824730">
        <ele>540.9</ele>
        <time>2018-03-28T10:21:52Z</time>
      </trkpt>
      <trkpt lat="36.9041700" lon="-4.3824200">
        <ele>540.9</ele>
        <time>2018-03-28T10:21:53Z</time>
      </trkpt>
      <trkpt lat="36.9041700" lon="-4.3824200">
        <ele>540.9</ele>
        <time>2018-03-28T10:21:54Z</time>
      </trkpt>
      <trkpt lat="36.9042120" lon="-4.3823200">
        <ele>541.9</ele>
        <time>2018-03-28T10:21:55Z</time>
      </trkpt>
      <trkpt lat="36.9042320" lon="-4.3822700">
        <ele>541.9</ele>
        <time>2018-03-28T10:21:56Z</time>
      </trkpt>
      <trkpt lat="36.9042320" lon="-4.3822700">
        <ele>541.9</ele>
        <time>2018-03-28T10:21:57Z</time>
      </trkpt>
      <trkpt lat="36.9042750" lon="-4.3821720">
        <ele>541.9</ele>
        <time>2018-03-28T10:21:58Z</time>
      </trkpt>
      <trkpt lat="36.9042750" lon="-4.3821720">
        <ele>542.9</ele>
        <time>2018-03-28T10:21:59Z</time>
      </trkpt>
      <trkpt lat="36.9043150" lon="-4.3820720">
        <ele>542.9</ele>
        <time>2018-03-28T10:22:00Z</time>
      </trkpt>
      <trkpt lat="36.9043150" lon="-4.3820720">
        <ele>542.9</ele>
        <time>2018-03-28T10:22:01Z</time>
      </trkpt>
      <trkpt lat="36.9043630" lon="-4.3819480">
        <ele>542.9</ele>
        <time>2018-03-28T10:22:02Z</time>
      </trkpt>
      <trkpt lat="36.9043720" lon="-4.3819230">
        <ele>542.9</ele>
        <time>2018-03-28T10:22:03Z</time>
      </trkpt>
      <trkpt lat="36.9043900" lon="-4.3818730">
        <ele>542.9</ele>
        <time>2018-03-28T10:22:04Z</time>
      </trkpt>
      <trkpt lat="36.9043900" lon="-4.3818730">
        <ele>543.9</ele>
        <time>2018-03-28T10:22:05Z</time>
      </trkpt>
      <trkpt lat="36.9044270" lon="-4.3817750">
        <ele>543.9</ele>
        <time>2018-03-28T10:22:06Z</time>
      </trkpt>
      <trkpt lat="36.9044450" lon="-4.3817230">
        <ele>543.9</ele>
        <time>2018-03-28T10:22:07Z</time>
      </trkpt>
      <trkpt lat="36.9044450" lon="-4.3817230">
        <ele>543.9</ele>
        <time>2018-03-28T10:22:08Z</time>
      </trkpt>
      <trkpt lat="36.9044820" lon="-4.3816200">
        <ele>543.9</ele>
        <time>2018-03-28T10:22:09Z</time>
      </trkpt>
      <trkpt lat="36.9044980" lon="-4.3815720">
        <ele>543.9</ele>
        <time>2018-03-28T10:22:10Z</time>
      </trkpt>
      <trkpt lat="36.9044980" lon="-4.3815720">
        <ele>544.9</ele>
        <time>2018-03-28T10:22:11Z</time>
      </trkpt>
      <trkpt lat="36.9045320" lon="-4.3814730">
        <ele>544.9</ele>
        <time>2018-03-28T10:22:12Z</time>
      </trkpt>
      <trkpt lat="36.9045320" lon="-4.3814730">
        <ele>544.9</ele>
        <time>2018-03-28T10:22:13Z</time>
      </trkpt>
      <trkpt lat="36.9045620" lon="-4.3813770">
        <ele>545.9</ele>
        <time>2018-03-28T10:22:14Z</time>
      </trkpt>
      <trkpt lat="36.9045620" lon="-4.3813770">
        <ele>545.9</ele>
        <time>2018-03-28T10:22:15Z</time>
      </trkpt>
      <trkpt lat="36.9045920" lon="-4.3812770">
        <ele>545.9</ele>
        <time>2018-03-28T10:22:16Z</time>
      </trkpt>
      <trkpt lat="36.9045920" lon="-4.3812770">
        <ele>545.9</ele>
        <time>2018-03-28T10:22:17Z</time>
      </trkpt>
      <trkpt lat="36.9046220" lon="-4.3811770">
        <ele>545.9</ele>
        <time>2018-03-28T10:22:18Z</time>
      </trkpt>
      <trkpt lat="36.9046350" lon="-4.3811270">
        <ele>545.9</ele>
        <time>2018-03-28T10:22:19Z</time>
      </trkpt>
      <trkpt lat="36.9046350" lon="-4.3811270">
        <ele>545.9</ele>
        <time>2018-03-28T10:22:20Z</time>
      </trkpt>
      <trkpt lat="36.9046650" lon="-4.3810230">
        <ele>545.9</ele>
        <time>2018-03-28T10:22:21Z</time>
      </trkpt>
      <trkpt lat="36.9046800" lon="-4.3809680">
        <ele>545.9</ele>
        <time>2018-03-28T10:22:22Z</time>
      </trkpt>
      <trkpt lat="36.9046800" lon="-4.3809680">
        <ele>545.9</ele>
        <time>2018-03-28T10:22:23Z</time>
      </trkpt>
      <trkpt lat="36.9047100" lon="-4.3808550">
        <ele>545.9</ele>
        <time>2018-03-28T10:22:24Z</time>
      </trkpt>
      <trkpt lat="36.9047220" lon="-4.3807980">
        <ele>545.9</ele>
        <time>2018-03-28T10:22:25Z</time>
      </trkpt>
      <trkpt lat="36.9047220" lon="-4.3807980">
        <ele>546.9</ele>
        <time>2018-03-28T10:22:26Z</time>
      </trkpt>
      <trkpt lat="36.9047430" lon="-4.3806830">
        <ele>546.9</ele>
        <time>2018-03-28T10:22:27Z</time>
      </trkpt>
      <trkpt lat="36.9047550" lon="-4.3806280">
        <ele>546.9</ele>
        <time>2018-03-28T10:22:28Z</time>
      </trkpt>
      <trkpt lat="36.9047550" lon="-4.3806280">
        <ele>546.9</ele>
        <time>2018-03-28T10:22:29Z</time>
      </trkpt>
      <trkpt lat="36.9047800" lon="-4.3805150">
        <ele>546.9</ele>
        <time>2018-03-28T10:22:30Z</time>
      </trkpt>
      <trkpt lat="36.9047800" lon="-4.3805150">
        <ele>546.9</ele>
        <time>2018-03-28T10:22:31Z</time>
      </trkpt>
      <trkpt lat="36.9048080" lon="-4.3803980">
        <ele>546.9</ele>
        <time>2018-03-28T10:22:32Z</time>
      </trkpt>
      <trkpt lat="36.9048080" lon="-4.3803980">
        <ele>546.9</ele>
        <time>2018-03-28T10:22:33Z</time>
      </trkpt>
      <trkpt lat="36.9048280" lon="-4.3802780">
        <ele>546.9</ele>
        <time>2018-03-28T10:22:34Z</time>
      </trkpt>
      <trkpt lat="36.9048370" lon="-4.3802200">
        <ele>546.9</ele>
        <time>2018-03-28T10:22:35Z</time>
      </trkpt>
      <trkpt lat="36.9048450" lon="-4.3801620">
        <ele>547.9</ele>
        <time>2018-03-28T10:22:36Z</time>
      </trkpt>
      <trkpt lat="36.9048560" lon="-4.3800710">
        <ele>547.9</ele>
        <time>2018-03-28T10:22:37Z</time>
      </trkpt>
      <trkpt lat="36.9048590" lon="-4.3800400">
        <ele>547.9</ele>
        <time>2018-03-28T10:22:38Z</time>
      </trkpt>
      <trkpt lat="36.9048650" lon="-4.3799780">
        <ele>547.9</ele>
        <time>2018-03-28T10:22:39Z</time>
      </trkpt>
      <trkpt lat="36.9048650" lon="-4.3799780">
        <ele>547.9</ele>
        <time>2018-03-28T10:22:40Z</time>
      </trkpt>
      <trkpt lat="36.9048780" lon="-4.3798480">
        <ele>547.9</ele>
        <time>2018-03-28T10:22:41Z</time>
      </trkpt>
      <trkpt lat="36.9048780" lon="-4.3798480">
        <ele>547.9</ele>
        <time>2018-03-28T10:22:42Z</time>
      </trkpt>
      <trkpt lat="36.9048920" lon="-4.3797180">
        <ele>547.9</ele>
        <time>2018-03-28T10:22:43Z</time>
      </trkpt>
      <trkpt lat="36.9048920" lon="-4.3797180">
        <ele>547.9</ele>
        <time>2018-03-28T10:22:44Z</time>
      </trkpt>
      <trkpt lat="36.9049030" lon="-4.3795850">
        <ele>547.9</ele>
        <time>2018-03-28T10:22:45Z</time>
      </trkpt>
      <trkpt lat="36.9049030" lon="-4.3795850">
        <ele>547.9</ele>
        <time>2018-03-28T10:22:46Z</time>
      </trkpt>
      <trkpt lat="36.9049130" lon="-4.3794470">
        <ele>547.9</ele>
        <time>2018-03-28T10:22:47Z</time>
      </trkpt>
      <trkpt lat="36.9049130" lon="-4.3794470">
        <ele>547.9</ele>
        <time>2018-03-28T10:22:48Z</time>
      </trkpt>
      <trkpt lat="36.9049180" lon="-4.3793070">
        <ele>547.9</ele>
        <time>2018-03-28T10:22:49Z</time>
      </trkpt>
      <trkpt lat="36.9049180" lon="-4.3793070">
        <ele>547.9</ele>
        <time>2018-03-28T10:22:50Z</time>
      </trkpt>
      <trkpt lat="36.9049200" lon="-4.3791670">
        <ele>547.9</ele>
        <time>2018-03-28T10:22:51Z</time>
      </trkpt>
      <trkpt lat="36.9049200" lon="-4.3791670">
        <ele>547.9</ele>
        <time>2018-03-28T10:22:52Z</time>
      </trkpt>
      <trkpt lat="36.9049150" lon="-4.3790220">
        <ele>547.9</ele>
        <time>2018-03-28T10:22:53Z</time>
      </trkpt>
      <trkpt lat="36.9049150" lon="-4.3790220">
        <ele>547.9</ele>
        <time>2018-03-28T10:22:54Z</time>
      </trkpt>
      <trkpt lat="36.9049120" lon="-4.3788750">
        <ele>547.9</ele>
        <time>2018-03-28T10:22:55Z</time>
      </trkpt>
      <trkpt lat="36.9049120" lon="-4.3788750">
        <ele>547.9</ele>
        <time>2018-03-28T10:22:56Z</time>
      </trkpt>
      <trkpt lat="36.9049050" lon="-4.3787230">
        <ele>547.9</ele>
        <time>2018-03-28T10:22:57Z</time>
      </trkpt>
      <trkpt lat="36.9049030" lon="-4.3786300">
        <ele>547.9</ele>
        <time>2018-03-28T10:22:58Z</time>
      </trkpt>
      <trkpt lat="36.9049020" lon="-4.3786120">
        <ele>547.9</ele>
        <time>2018-03-28T10:22:59Z</time>
      </trkpt>
      <trkpt lat="36.9049000" lon="-4.3785770">
        <ele>547.9</ele>
        <time>2018-03-28T10:23:00Z</time>
      </trkpt>
      <trkpt lat="36.9048870" lon="-4.3784320">
        <ele>547.9</ele>
        <time>2018-03-28T10:23:01Z</time>
      </trkpt>
      <trkpt lat="36.9048870" lon="-4.3784320">
        <ele>547.9</ele>
        <time>2018-03-28T10:23:02Z</time>
      </trkpt>
      <trkpt lat="36.9048680" lon="-4.3782980">
        <ele>547.9</ele>
        <time>2018-03-28T10:23:03Z</time>
      </trkpt>
      <trkpt lat="36.9048680" lon="-4.3782980">
        <ele>547.9</ele>
        <time>2018-03-28T10:23:04Z</time>
      </trkpt>
      <trkpt lat="36.9048550" lon="-4.3781650">
        <ele>547.9</ele>
        <time>2018-03-28T10:23:05Z</time>
      </trkpt>
      <trkpt lat="36.9048500" lon="-4.3781320">
        <ele>547.9</ele>
        <time>2018-03-28T10:23:06Z</time>
      </trkpt>
      <trkpt lat="36.9048450" lon="-4.3780990">
        <ele>547.9</ele>
        <time>2018-03-28T10:23:07Z</time>
      </trkpt>
      <trkpt lat="36.9048350" lon="-4.3780330">
        <ele>547.9</ele>
        <time>2018-03-28T10:23:08Z</time>
      </trkpt>
      <trkpt lat="36.9048100" lon="-4.3779150">
        <ele>547.9</ele>
        <time>2018-03-28T10:23:09Z</time>
      </trkpt>
      <trkpt lat="36.9047970" lon="-4.3778580">
        <ele>548.9</ele>
        <time>2018-03-28T10:23:10Z</time>
      </trkpt>
      <trkpt lat="36.9047970" lon="-4.3778580">
        <ele>548.9</ele>
        <time>2018-03-28T10:23:11Z</time>
      </trkpt>
      <trkpt lat="36.9047720" lon="-4.3777480">
        <ele>548.9</ele>
        <time>2018-03-28T10:23:12Z</time>
      </trkpt>
      <trkpt lat="36.9047720" lon="-4.3777480">
        <ele>549.9</ele>
        <time>2018-03-28T10:23:13Z</time>
      </trkpt>
      <trkpt lat="36.9047480" lon="-4.3776420">
        <ele>549.9</ele>
        <time>2018-03-28T10:23:14Z</time>
      </trkpt>
      <trkpt lat="36.9047480" lon="-4.3776420">
        <ele>549.9</ele>
        <time>2018-03-28T10:23:15Z</time>
      </trkpt>
      <trkpt lat="36.9047250" lon="-4.3775470">
        <ele>549.9</ele>
        <time>2018-03-28T10:23:16Z</time>
      </trkpt>
      <trkpt lat="36.9047170" lon="-4.3775020">
        <ele>550.9</ele>
        <time>2018-03-28T10:23:17Z</time>
      </trkpt>
      <trkpt lat="36.9047000" lon="-4.3774550">
        <ele>550.9</ele>
        <time>2018-03-28T10:23:18Z</time>
      </trkpt>
      <trkpt lat="36.9047000" lon="-4.3774550">
        <ele>550.9</ele>
        <time>2018-03-28T10:23:19Z</time>
      </trkpt>
      <trkpt lat="36.9046730" lon="-4.3773600">
        <ele>550.9</ele>
        <time>2018-03-28T10:23:20Z</time>
      </trkpt>
      <trkpt lat="36.9046730" lon="-4.3773600">
        <ele>550.9</ele>
        <time>2018-03-28T10:23:21Z</time>
      </trkpt>
      <trkpt lat="36.9046500" lon="-4.3772680">
        <ele>550.9</ele>
        <time>2018-03-28T10:23:22Z</time>
      </trkpt>
      <trkpt lat="36.9046500" lon="-4.3772680">
        <ele>551.9</ele>
        <time>2018-03-28T10:23:23Z</time>
      </trkpt>
      <trkpt lat="36.9046250" lon="-4.3771750">
        <ele>551.9</ele>
        <time>2018-03-28T10:23:24Z</time>
      </trkpt>
      <trkpt lat="36.9046070" lon="-4.3771330">
        <ele>552.9</ele>
        <time>2018-03-28T10:23:25Z</time>
      </trkpt>
      <trkpt lat="36.9046070" lon="-4.3771330">
        <ele>552.9</ele>
        <time>2018-03-28T10:23:26Z</time>
      </trkpt>
      <trkpt lat="36.9045800" lon="-4.3770520">
        <ele>552.9</ele>
        <time>2018-03-28T10:23:27Z</time>
      </trkpt>
      <trkpt lat="36.9045650" lon="-4.3770080">
        <ele>552.9</ele>
        <time>2018-03-28T10:23:28Z</time>
      </trkpt>
      <trkpt lat="36.9045530" lon="-4.3769670">
        <ele>553.9</ele>
        <time>2018-03-28T10:23:29Z</time>
      </trkpt>
      <trkpt lat="36.9045530" lon="-4.3769670">
        <ele>553.9</ele>
        <time>2018-03-28T10:23:30Z</time>
      </trkpt>
      <trkpt lat="36.9045220" lon="-4.3768850">
        <ele>553.9</ele>
        <time>2018-03-28T10:23:31Z</time>
      </trkpt>
      <trkpt lat="36.9045220" lon="-4.3768850">
        <ele>553.9</ele>
        <time>2018-03-28T10:23:32Z</time>
      </trkpt>
      <trkpt lat="36.9044930" lon="-4.3768080">
        <ele>554.9</ele>
        <time>2018-03-28T10:23:33Z</time>
      </trkpt>
      <trkpt lat="36.9044930" lon="-4.3768080">
        <ele>554.9</ele>
        <time>2018-03-28T10:23:34Z</time>
      </trkpt>
      <trkpt lat="36.9044630" lon="-4.3767380">
        <ele>554.9</ele>
        <time>2018-03-28T10:23:35Z</time>
      </trkpt>
      <trkpt lat="36.9044630" lon="-4.3767380">
        <ele>554.9</ele>
        <time>2018-03-28T10:23:36Z</time>
      </trkpt>
      <trkpt lat="36.9044380" lon="-4.3766650">
        <ele>555.9</ele>
        <time>2018-03-28T10:23:37Z</time>
      </trkpt>
      <trkpt lat="36.9044380" lon="-4.3766650">
        <ele>555.9</ele>
        <time>2018-03-28T10:23:38Z</time>
      </trkpt>
      <trkpt lat="36.9044180" lon="-4.3765900">
        <ele>555.9</ele>
        <time>2018-03-28T10:23:39Z</time>
      </trkpt>
      <trkpt lat="36.9044080" lon="-4.3765520">
        <ele>555.9</ele>
        <time>2018-03-28T10:23:40Z</time>
      </trkpt>
      <trkpt lat="36.9044080" lon="-4.3765520">
        <ele>555.9</ele>
        <time>2018-03-28T10:23:41Z</time>
      </trkpt>
      <trkpt lat="36.9043930" lon="-4.3764780">
        <ele>555.9</ele>
        <time>2018-03-28T10:23:42Z</time>
      </trkpt>
      <trkpt lat="36.9043930" lon="-4.3764780">
        <ele>556.9</ele>
        <time>2018-03-28T10:23:43Z</time>
      </trkpt>
      <trkpt lat="36.9043830" lon="-4.3764000">
        <ele>556.9</ele>
        <time>2018-03-28T10:23:44Z</time>
      </trkpt>
      <trkpt lat="36.9043800" lon="-4.3763580">
        <ele>556.9</ele>
        <time>2018-03-28T10:23:45Z</time>
      </trkpt>
      <trkpt lat="36.9043800" lon="-4.3763580">
        <ele>556.9</ele>
        <time>2018-03-28T10:23:46Z</time>
      </trkpt>
      <trkpt lat="36.9043650" lon="-4.3762820">
        <ele>557.9</ele>
        <time>2018-03-28T10:23:47Z</time>
      </trkpt>
      <trkpt lat="36.9043650" lon="-4.3762820">
        <ele>557.9</ele>
        <time>2018-03-28T10:23:48Z</time>
      </trkpt>
      <trkpt lat="36.9043520" lon="-4.3762120">
        <ele>557.9</ele>
        <time>2018-03-28T10:23:49Z</time>
      </trkpt>
      <trkpt lat="36.9043520" lon="-4.3762120">
        <ele>557.9</ele>
        <time>2018-03-28T10:23:50Z</time>
      </trkpt>
      <trkpt lat="36.9043420" lon="-4.3761330">
        <ele>558.9</ele>
        <time>2018-03-28T10:23:51Z</time>
      </trkpt>
      <trkpt lat="36.9043370" lon="-4.3760970">
        <ele>558.9</ele>
        <time>2018-03-28T10:23:52Z</time>
      </trkpt>
      <trkpt lat="36.9043370" lon="-4.3760970">
        <ele>558.9</ele>
        <time>2018-03-28T10:23:53Z</time>
      </trkpt>
      <trkpt lat="36.9043250" lon="-4.3760170">
        <ele>558.9</ele>
        <time>2018-03-28T10:23:54Z</time>
      </trkpt>
      <trkpt lat="36.9043220" lon="-4.3759770">
        <ele>558.9</ele>
        <time>2018-03-28T10:23:55Z</time>
      </trkpt>
      <trkpt lat="36.9043220" lon="-4.3759770">
        <ele>559.9</ele>
        <time>2018-03-28T10:23:56Z</time>
      </trkpt>
      <trkpt lat="36.9043170" lon="-4.3759020">
        <ele>559.9</ele>
        <time>2018-03-28T10:23:57Z</time>
      </trkpt>
      <trkpt lat="36.9043170" lon="-4.3759020">
        <ele>559.9</ele>
        <time>2018-03-28T10:23:58Z</time>
      </trkpt>
      <trkpt lat="36.9043170" lon="-4.3758230">
        <ele>559.9</ele>
        <time>2018-03-28T10:23:59Z</time>
      </trkpt>
      <trkpt lat="36.9043170" lon="-4.3758230">
        <ele>559.9</ele>
        <time>2018-03-28T10:24:00Z</time>
      </trkpt>
      <trkpt lat="36.9043100" lon="-4.3757400">
        <ele>559.9</ele>
        <time>2018-03-28T10:24:01Z</time>
      </trkpt>
      <trkpt lat="36.9043100" lon="-4.3757400">
        <ele>559.9</ele>
        <time>2018-03-28T10:24:02Z</time>
      </trkpt>
      <trkpt lat="36.9043220" lon="-4.3756500">
        <ele>559.9</ele>
        <time>2018-03-28T10:24:03Z</time>
      </trkpt>
      <trkpt lat="36.9043230" lon="-4.3756070">
        <ele>559.9</ele>
        <time>2018-03-28T10:24:04Z</time>
      </trkpt>
      <trkpt lat="36.9043230" lon="-4.3756070">
        <ele>559.9</ele>
        <time>2018-03-28T10:24:05Z</time>
      </trkpt>
      <trkpt lat="36.9043220" lon="-4.3755120">
        <ele>560.9</ele>
        <time>2018-03-28T10:24:06Z</time>
      </trkpt>
      <trkpt lat="36.9043230" lon="-4.3754630">
        <ele>560.9</ele>
        <time>2018-03-28T10:24:07Z</time>
      </trkpt>
      <trkpt lat="36.9043230" lon="-4.3754630">
        <ele>560.9</ele>
        <time>2018-03-28T10:24:08Z</time>
      </trkpt>
      <trkpt lat="36.9043180" lon="-4.3753750">
        <ele>561.9</ele>
        <time>2018-03-28T10:24:09Z</time>
      </trkpt>
      <trkpt lat="36.9043180" lon="-4.3753750">
        <ele>561.9</ele>
        <time>2018-03-28T10:24:10Z</time>
      </trkpt>
      <trkpt lat="36.9043130" lon="-4.3752830">
        <ele>561.9</ele>
        <time>2018-03-28T10:24:11Z</time>
      </trkpt>
      <trkpt lat="36.9043130" lon="-4.3752830">
        <ele>561.9</ele>
        <time>2018-03-28T10:24:12Z</time>
      </trkpt>
      <trkpt lat="36.9043100" lon="-4.3751950">
        <ele>561.9</ele>
        <time>2018-03-28T10:24:13Z</time>
      </trkpt>
      <trkpt lat="36.9043100" lon="-4.3751950">
        <ele>561.9</ele>
        <time>2018-03-28T10:24:14Z</time>
      </trkpt>
      <trkpt lat="36.9043080" lon="-4.3751100">
        <ele>562.9</ele>
        <time>2018-03-28T10:24:15Z</time>
      </trkpt>
      <trkpt lat="36.9043080" lon="-4.3751100">
        <ele>562.9</ele>
        <time>2018-03-28T10:24:16Z</time>
      </trkpt>
      <trkpt lat="36.9043070" lon="-4.3750220">
        <ele>562.9</ele>
        <time>2018-03-28T10:24:17Z</time>
      </trkpt>
      <trkpt lat="36.9043070" lon="-4.3750220">
        <ele>562.9</ele>
        <time>2018-03-28T10:24:18Z</time>
      </trkpt>
      <trkpt lat="36.9043080" lon="-4.3749330">
        <ele>562.9</ele>
        <time>2018-03-28T10:24:19Z</time>
      </trkpt>
      <trkpt lat="36.9043100" lon="-4.3748880">
        <ele>562.9</ele>
        <time>2018-03-28T10:24:20Z</time>
      </trkpt>
      <trkpt lat="36.9043100" lon="-4.3748880">
        <ele>562.9</ele>
        <time>2018-03-28T10:24:21Z</time>
      </trkpt>
      <trkpt lat="36.9043120" lon="-4.3748000">
        <ele>562.9</ele>
        <time>2018-03-28T10:24:22Z</time>
      </trkpt>
      <trkpt lat="36.9043120" lon="-4.3748000">
        <ele>563.9</ele>
        <time>2018-03-28T10:24:23Z</time>
      </trkpt>
      <trkpt lat="36.9043120" lon="-4.3747100">
        <ele>563.9</ele>
        <time>2018-03-28T10:24:24Z</time>
      </trkpt>
      <trkpt lat="36.9043120" lon="-4.3746630">
        <ele>563.9</ele>
        <time>2018-03-28T10:24:25Z</time>
      </trkpt>
      <trkpt lat="36.9043120" lon="-4.3746630">
        <ele>563.9</ele>
        <time>2018-03-28T10:24:26Z</time>
      </trkpt>
      <trkpt lat="36.9043150" lon="-4.3745700">
        <ele>563.9</ele>
        <time>2018-03-28T10:24:27Z</time>
      </trkpt>
      <trkpt lat="36.9043150" lon="-4.3745700">
        <ele>563.9</ele>
        <time>2018-03-28T10:24:28Z</time>
      </trkpt>
      <trkpt lat="36.9043150" lon="-4.3744720">
        <ele>564.9</ele>
        <time>2018-03-28T10:24:29Z</time>
      </trkpt>
      <trkpt lat="36.9043150" lon="-4.3744720">
        <ele>564.9</ele>
        <time>2018-03-28T10:24:30Z</time>
      </trkpt>
      <trkpt lat="36.9043150" lon="-4.3743720">
        <ele>564.9</ele>
        <time>2018-03-28T10:24:31Z</time>
      </trkpt>
      <trkpt lat="36.9043150" lon="-4.3743720">
        <ele>564.9</ele>
        <time>2018-03-28T10:24:32Z</time>
      </trkpt>
      <trkpt lat="36.9043130" lon="-4.3742700">
        <ele>564.9</ele>
        <time>2018-03-28T10:24:33Z</time>
      </trkpt>
      <trkpt lat="36.9043120" lon="-4.3742180">
        <ele>564.9</ele>
        <time>2018-03-28T10:24:34Z</time>
      </trkpt>
      <trkpt lat="36.9043120" lon="-4.3742180">
        <ele>565.9</ele>
        <time>2018-03-28T10:24:35Z</time>
      </trkpt>
      <trkpt lat="36.9043080" lon="-4.3741180">
        <ele>565.9</ele>
        <time>2018-03-28T10:24:36Z</time>
      </trkpt>
      <trkpt lat="36.9043050" lon="-4.3740650">
        <ele>565.9</ele>
        <time>2018-03-28T10:24:37Z</time>
      </trkpt>
      <trkpt lat="36.9043050" lon="-4.3740650">
        <ele>565.9</ele>
        <time>2018-03-28T10:24:38Z</time>
      </trkpt>
      <trkpt lat="36.9042980" lon="-4.3739620">
        <ele>565.9</ele>
        <time>2018-03-28T10:24:39Z</time>
      </trkpt>
      <trkpt lat="36.9042980" lon="-4.3739620">
        <ele>566.9</ele>
        <time>2018-03-28T10:24:40Z</time>
      </trkpt>
      <trkpt lat="36.9042870" lon="-4.3738530">
        <ele>566.9</ele>
        <time>2018-03-28T10:24:41Z</time>
      </trkpt>
      <trkpt lat="36.9042870" lon="-4.3738530">
        <ele>566.9</ele>
        <time>2018-03-28T10:24:42Z</time>
      </trkpt>
      <trkpt lat="36.9042820" lon="-4.3737430">
        <ele>566.9</ele>
        <time>2018-03-28T10:24:43Z</time>
      </trkpt>
      <trkpt lat="36.9042820" lon="-4.3737430">
        <ele>566.9</ele>
        <time>2018-03-28T10:24:44Z</time>
      </trkpt>
      <trkpt lat="36.9042730" lon="-4.3736350">
        <ele>566.9</ele>
        <time>2018-03-28T10:24:45Z</time>
      </trkpt>
      <trkpt lat="36.9042730" lon="-4.3736350">
        <ele>566.9</ele>
        <time>2018-03-28T10:24:46Z</time>
      </trkpt>
      <trkpt lat="36.9042630" lon="-4.3735320">
        <ele>566.9</ele>
        <time>2018-03-28T10:24:47Z</time>
      </trkpt>
      <trkpt lat="36.9042630" lon="-4.3735320">
        <ele>566.9</ele>
        <time>2018-03-28T10:24:48Z</time>
      </trkpt>
      <trkpt lat="36.9042480" lon="-4.3734230">
        <ele>566.9</ele>
        <time>2018-03-28T10:24:49Z</time>
      </trkpt>
      <trkpt lat="36.9042480" lon="-4.3734230">
        <ele>567.9</ele>
        <time>2018-03-28T10:24:50Z</time>
      </trkpt>
      <trkpt lat="36.9042280" lon="-4.3733120">
        <ele>567.9</ele>
        <time>2018-03-28T10:24:51Z</time>
      </trkpt>
      <trkpt lat="36.9042220" lon="-4.3732580">
        <ele>567.9</ele>
        <time>2018-03-28T10:24:52Z</time>
      </trkpt>
      <trkpt lat="36.9042220" lon="-4.3732580">
        <ele>567.9</ele>
        <time>2018-03-28T10:24:53Z</time>
      </trkpt>
      <trkpt lat="36.9042080" lon="-4.3731500">
        <ele>567.9</ele>
        <time>2018-03-28T10:24:54Z</time>
      </trkpt>
      <trkpt lat="36.9042020" lon="-4.3730950">
        <ele>567.9</ele>
        <time>2018-03-28T10:24:55Z</time>
      </trkpt>
      <trkpt lat="36.9042020" lon="-4.3730950">
        <ele>568.9</ele>
        <time>2018-03-28T10:24:56Z</time>
      </trkpt>
      <trkpt lat="36.9041850" lon="-4.3729850">
        <ele>568.9</ele>
        <time>2018-03-28T10:24:57Z</time>
      </trkpt>
      <trkpt lat="36.9041850" lon="-4.3729850">
        <ele>568.9</ele>
        <time>2018-03-28T10:24:58Z</time>
      </trkpt>
      <trkpt lat="36.9041630" lon="-4.3728770">
        <ele>568.9</ele>
        <time>2018-03-28T10:24:59Z</time>
      </trkpt>
      <trkpt lat="36.9041630" lon="-4.3728770">
        <ele>568.9</ele>
        <time>2018-03-28T10:25:00Z</time>
      </trkpt>
      <trkpt lat="36.9041430" lon="-4.3727670">
        <ele>568.9</ele>
        <time>2018-03-28T10:25:01Z</time>
      </trkpt>
      <trkpt lat="36.9041430" lon="-4.3727670">
        <ele>568.9</ele>
        <time>2018-03-28T10:25:02Z</time>
      </trkpt>
      <trkpt lat="36.9041230" lon="-4.3726580">
        <ele>568.9</ele>
        <time>2018-03-28T10:25:03Z</time>
      </trkpt>
      <trkpt lat="36.9041230" lon="-4.3726580">
        <ele>569.9</ele>
        <time>2018-03-28T10:25:04Z</time>
      </trkpt>
      <trkpt lat="36.9040970" lon="-4.3725450">
        <ele>569.9</ele>
        <time>2018-03-28T10:25:05Z</time>
      </trkpt>
      <trkpt lat="36.9040970" lon="-4.3725450">
        <ele>569.9</ele>
        <time>2018-03-28T10:25:06Z</time>
      </trkpt>
      <trkpt lat="36.9040700" lon="-4.3724370">
        <ele>569.9</ele>
        <time>2018-03-28T10:25:07Z</time>
      </trkpt>
      <trkpt lat="36.9040520" lon="-4.3723830">
        <ele>569.9</ele>
        <time>2018-03-28T10:25:08Z</time>
      </trkpt>
      <trkpt lat="36.9040520" lon="-4.3723830">
        <ele>569.9</ele>
        <time>2018-03-28T10:25:09Z</time>
      </trkpt>
      <trkpt lat="36.9040280" lon="-4.3722670">
        <ele>569.9</ele>
        <time>2018-03-28T10:25:10Z</time>
      </trkpt>
      <trkpt lat="36.9040210" lon="-4.3722390">
        <ele>569.9</ele>
        <time>2018-03-28T10:25:11Z</time>
      </trkpt>
      <trkpt lat="36.9040130" lon="-4.3722110">
        <ele>569.9</ele>
        <time>2018-03-28T10:25:12Z</time>
      </trkpt>
      <trkpt lat="36.9039830" lon="-4.3720980">
        <ele>570.9</ele>
        <time>2018-03-28T10:25:13Z</time>
      </trkpt>
      <trkpt lat="36.9039670" lon="-4.3720420">
        <ele>570.9</ele>
        <time>2018-03-28T10:25:14Z</time>
      </trkpt>
      <trkpt lat="36.9039670" lon="-4.3720420">
        <ele>570.9</ele>
        <time>2018-03-28T10:25:15Z</time>
      </trkpt>
      <trkpt lat="36.9039400" lon="-4.3719300">
        <ele>570.9</ele>
        <time>2018-03-28T10:25:16Z</time>
      </trkpt>
      <trkpt lat="36.9039400" lon="-4.3719300">
        <ele>570.9</ele>
        <time>2018-03-28T10:25:17Z</time>
      </trkpt>
      <trkpt lat="36.9039070" lon="-4.3718150">
        <ele>570.9</ele>
        <time>2018-03-28T10:25:18Z</time>
      </trkpt>
      <trkpt lat="36.9038870" lon="-4.3717550">
        <ele>570.9</ele>
        <time>2018-03-28T10:25:19Z</time>
      </trkpt>
      <trkpt lat="36.9038870" lon="-4.3717550">
        <ele>570.9</ele>
        <time>2018-03-28T10:25:20Z</time>
      </trkpt>
      <trkpt lat="36.9038570" lon="-4.3716370">
        <ele>570.9</ele>
        <time>2018-03-28T10:25:21Z</time>
      </trkpt>
      <trkpt lat="36.9038420" lon="-4.3715780">
        <ele>570.9</ele>
        <time>2018-03-28T10:25:22Z</time>
      </trkpt>
      <trkpt lat="36.9038420" lon="-4.3715780">
        <ele>570.9</ele>
        <time>2018-03-28T10:25:23Z</time>
      </trkpt>
      <trkpt lat="36.9038080" lon="-4.3714620">
        <ele>570.9</ele>
        <time>2018-03-28T10:25:24Z</time>
      </trkpt>
      <trkpt lat="36.9037900" lon="-4.3714030">
        <ele>570.9</ele>
        <time>2018-03-28T10:25:25Z</time>
      </trkpt>
      <trkpt lat="36.9037900" lon="-4.3714030">
        <ele>570.9</ele>
        <time>2018-03-28T10:25:26Z</time>
      </trkpt>
      <trkpt lat="36.9037550" lon="-4.3712880">
        <ele>570.9</ele>
        <time>2018-03-28T10:25:27Z</time>
      </trkpt>
      <trkpt lat="36.9037550" lon="-4.3712880">
        <ele>570.9</ele>
        <time>2018-03-28T10:25:28Z</time>
      </trkpt>
      <trkpt lat="36.9037160" lon="-4.3711460">
        <ele>570.9</ele>
        <time>2018-03-28T10:25:29Z</time>
      </trkpt>
      <trkpt lat="36.9037080" lon="-4.3711180">
        <ele>571.9</ele>
        <time>2018-03-28T10:25:30Z</time>
      </trkpt>
      <trkpt lat="36.9036930" lon="-4.3710620">
        <ele>571.9</ele>
        <time>2018-03-28T10:25:31Z</time>
      </trkpt>
      <trkpt lat="36.9036930" lon="-4.3710620">
        <ele>571.9</ele>
        <time>2018-03-28T10:25:32Z</time>
      </trkpt>
      <trkpt lat="36.9036620" lon="-4.3709350">
        <ele>571.9</ele>
        <time>2018-03-28T10:25:33Z</time>
      </trkpt>
      <trkpt lat="36.9036590" lon="-4.3709210">
        <ele>571.9</ele>
        <time>2018-03-28T10:25:34Z</time>
      </trkpt>
      <trkpt lat="36.9036520" lon="-4.3708930">
        <ele>571.9</ele>
        <time>2018-03-28T10:25:35Z</time>
      </trkpt>
      <trkpt lat="36.9036250" lon="-4.3707870">
        <ele>571.9</ele>
        <time>2018-03-28T10:25:36Z</time>
      </trkpt>
      <trkpt lat="36.9036250" lon="-4.3707870">
        <ele>571.9</ele>
        <time>2018-03-28T10:25:37Z</time>
      </trkpt>
      <trkpt lat="36.9035950" lon="-4.3706820">
        <ele>571.9</ele>
        <time>2018-03-28T10:25:38Z</time>
      </trkpt>
      <trkpt lat="36.9035950" lon="-4.3706820">
        <ele>571.9</ele>
        <time>2018-03-28T10:25:39Z</time>
      </trkpt>
      <trkpt lat="36.9035650" lon="-4.3705870">
        <ele>571.9</ele>
        <time>2018-03-28T10:25:40Z</time>
      </trkpt>
      <trkpt lat="36.9035650" lon="-4.3705870">
        <ele>571.9</ele>
        <time>2018-03-28T10:25:41Z</time>
      </trkpt>
      <trkpt lat="36.9035370" lon="-4.3704920">
        <ele>571.9</ele>
        <time>2018-03-28T10:25:42Z</time>
      </trkpt>
      <trkpt lat="36.9035220" lon="-4.3704430">
        <ele>571.9</ele>
        <time>2018-03-28T10:25:43Z</time>
      </trkpt>
      <trkpt lat="36.9035220" lon="-4.3704430">
        <ele>571.9</ele>
        <time>2018-03-28T10:25:44Z</time>
      </trkpt>
      <trkpt lat="36.9034970" lon="-4.3703420">
        <ele>572.9</ele>
        <time>2018-03-28T10:25:45Z</time>
      </trkpt>
      <trkpt lat="36.9034830" lon="-4.3702950">
        <ele>572.9</ele>
        <time>2018-03-28T10:25:46Z</time>
      </trkpt>
      <trkpt lat="36.9034830" lon="-4.3702950">
        <ele>572.9</ele>
        <time>2018-03-28T10:25:47Z</time>
      </trkpt>
      <trkpt lat="36.9034580" lon="-4.3702080">
        <ele>572.9</ele>
        <time>2018-03-28T10:25:48Z</time>
      </trkpt>
      <trkpt lat="36.9034500" lon="-4.3701630">
        <ele>572.9</ele>
        <time>2018-03-28T10:25:49Z</time>
      </trkpt>
      <trkpt lat="36.9034370" lon="-4.3701170">
        <ele>572.9</ele>
        <time>2018-03-28T10:25:50Z</time>
      </trkpt>
      <trkpt lat="36.9034370" lon="-4.3701170">
        <ele>572.9</ele>
        <time>2018-03-28T10:25:51Z</time>
      </trkpt>
      <trkpt lat="36.9034050" lon="-4.3700280">
        <ele>572.9</ele>
        <time>2018-03-28T10:25:52Z</time>
      </trkpt>
      <trkpt lat="36.9034050" lon="-4.3700280">
        <ele>572.9</ele>
        <time>2018-03-28T10:25:53Z</time>
      </trkpt>
      <trkpt lat="36.9033780" lon="-4.3699370">
        <ele>573.9</ele>
        <time>2018-03-28T10:25:54Z</time>
      </trkpt>
      <trkpt lat="36.9033670" lon="-4.3698900">
        <ele>573.9</ele>
        <time>2018-03-28T10:25:55Z</time>
      </trkpt>
      <trkpt lat="36.9033670" lon="-4.3698900">
        <ele>573.9</ele>
        <time>2018-03-28T10:25:56Z</time>
      </trkpt>
      <trkpt lat="36.9033430" lon="-4.3697980">
        <ele>573.9</ele>
        <time>2018-03-28T10:25:57Z</time>
      </trkpt>
      <trkpt lat="36.9033430" lon="-4.3697980">
        <ele>573.9</ele>
        <time>2018-03-28T10:25:58Z</time>
      </trkpt>
      <trkpt lat="36.9033180" lon="-4.3697050">
        <ele>573.9</ele>
        <time>2018-03-28T10:25:59Z</time>
      </trkpt>
      <trkpt lat="36.9033180" lon="-4.3697050">
        <ele>574.9</ele>
        <time>2018-03-28T10:26:00Z</time>
      </trkpt>
      <trkpt lat="36.9032920" lon="-4.3696120">
        <ele>574.9</ele>
        <time>2018-03-28T10:26:01Z</time>
      </trkpt>
      <trkpt lat="36.9032920" lon="-4.3696120">
        <ele>574.9</ele>
        <time>2018-03-28T10:26:02Z</time>
      </trkpt>
      <trkpt lat="36.9032670" lon="-4.3695220">
        <ele>574.9</ele>
        <time>2018-03-28T10:26:03Z</time>
      </trkpt>
      <trkpt lat="36.9032550" lon="-4.3694750">
        <ele>574.9</ele>
        <time>2018-03-28T10:26:04Z</time>
      </trkpt>
      <trkpt lat="36.9032430" lon="-4.3694280">
        <ele>574.9</ele>
        <time>2018-03-28T10:26:05Z</time>
      </trkpt>
      <trkpt lat="36.9032430" lon="-4.3694280">
        <ele>574.9</ele>
        <time>2018-03-28T10:26:06Z</time>
      </trkpt>
      <trkpt lat="36.9032170" lon="-4.3693350">
        <ele>575.9</ele>
        <time>2018-03-28T10:26:07Z</time>
      </trkpt>
      <trkpt lat="36.9032170" lon="-4.3693350">
        <ele>575.9</ele>
        <time>2018-03-28T10:26:08Z</time>
      </trkpt>
      <trkpt lat="36.9031950" lon="-4.3692280">
        <ele>575.9</ele>
        <time>2018-03-28T10:26:09Z</time>
      </trkpt>
      <trkpt lat="36.9031930" lon="-4.3692170">
        <ele>575.9</ele>
        <time>2018-03-28T10:26:10Z</time>
      </trkpt>
      <trkpt lat="36.9031880" lon="-4.3691950">
        <ele>575.9</ele>
        <time>2018-03-28T10:26:11Z</time>
      </trkpt>
      <trkpt lat="36.9031670" lon="-4.3690980">
        <ele>575.9</ele>
        <time>2018-03-28T10:26:12Z</time>
      </trkpt>
      <trkpt lat="36.9031550" lon="-4.3690530">
        <ele>576.9</ele>
        <time>2018-03-28T10:26:13Z</time>
      </trkpt>
      <trkpt lat="36.9031550" lon="-4.3690530">
        <ele>576.9</ele>
        <time>2018-03-28T10:26:14Z</time>
      </trkpt>
      <trkpt lat="36.9031210" lon="-4.3689420">
        <ele>576.9</ele>
        <time>2018-03-28T10:26:15Z</time>
      </trkpt>
      <trkpt lat="36.9031130" lon="-4.3689200">
        <ele>576.9</ele>
        <time>2018-03-28T10:26:16Z</time>
      </trkpt>
      <trkpt lat="36.9031130" lon="-4.3689200">
        <ele>576.9</ele>
        <time>2018-03-28T10:26:17Z</time>
      </trkpt>
      <trkpt lat="36.9030930" lon="-4.3688320">
        <ele>576.9</ele>
        <time>2018-03-28T10:26:18Z</time>
      </trkpt>
      <trkpt lat="36.9030830" lon="-4.3687900">
        <ele>577.9</ele>
        <time>2018-03-28T10:26:19Z</time>
      </trkpt>
      <trkpt lat="36.9030830" lon="-4.3687900">
        <ele>577.9</ele>
        <time>2018-03-28T10:26:20Z</time>
      </trkpt>
      <trkpt lat="36.9030580" lon="-4.3687020">
        <ele>577.9</ele>
        <time>2018-03-28T10:26:21Z</time>
      </trkpt>
      <trkpt lat="36.9030580" lon="-4.3687020">
        <ele>577.9</ele>
        <time>2018-03-28T10:26:22Z</time>
      </trkpt>
      <trkpt lat="36.9030350" lon="-4.3686130">
        <ele>577.9</ele>
        <time>2018-03-28T10:26:23Z</time>
      </trkpt>
      <trkpt lat="36.9030350" lon="-4.3686130">
        <ele>577.9</ele>
        <time>2018-03-28T10:26:24Z</time>
      </trkpt>
      <trkpt lat="36.9030100" lon="-4.3685220">
        <ele>577.9</ele>
        <time>2018-03-28T10:26:25Z</time>
      </trkpt>
      <trkpt lat="36.9030100" lon="-4.3685220">
        <ele>577.9</ele>
        <time>2018-03-28T10:26:26Z</time>
      </trkpt>
      <trkpt lat="36.9029850" lon="-4.3684270">
        <ele>577.9</ele>
        <time>2018-03-28T10:26:27Z</time>
      </trkpt>
      <trkpt lat="36.9029850" lon="-4.3684270">
        <ele>577.9</ele>
        <time>2018-03-28T10:26:28Z</time>
      </trkpt>
      <trkpt lat="36.9029600" lon="-4.3683350">
        <ele>578.9</ele>
        <time>2018-03-28T10:26:29Z</time>
      </trkpt>
      <trkpt lat="36.9029470" lon="-4.3682920">
        <ele>578.9</ele>
        <time>2018-03-28T10:26:30Z</time>
      </trkpt>
      <trkpt lat="36.9029470" lon="-4.3682920">
        <ele>578.9</ele>
        <time>2018-03-28T10:26:31Z</time>
      </trkpt>
      <trkpt lat="36.9029250" lon="-4.3682080">
        <ele>578.9</ele>
        <time>2018-03-28T10:26:32Z</time>
      </trkpt>
      <trkpt lat="36.9029250" lon="-4.3682080">
        <ele>578.9</ele>
        <time>2018-03-28T10:26:33Z</time>
      </trkpt>
      <trkpt lat="36.9029070" lon="-4.3681230">
        <ele>579.9</ele>
        <time>2018-03-28T10:26:34Z</time>
      </trkpt>
      <trkpt lat="36.9028930" lon="-4.3680780">
        <ele>579.9</ele>
        <time>2018-03-28T10:26:35Z</time>
      </trkpt>
      <trkpt lat="36.9028930" lon="-4.3680780">
        <ele>579.9</ele>
        <time>2018-03-28T10:26:36Z</time>
      </trkpt>
      <trkpt lat="36.9028730" lon="-4.3679850">
        <ele>579.9</ele>
        <time>2018-03-28T10:26:37Z</time>
      </trkpt>
      <trkpt lat="36.9028730" lon="-4.3679850">
        <ele>579.9</ele>
        <time>2018-03-28T10:26:38Z</time>
      </trkpt>
      <trkpt lat="36.9028500" lon="-4.3678980">
        <ele>579.9</ele>
        <time>2018-03-28T10:26:39Z</time>
      </trkpt>
      <trkpt lat="36.9028350" lon="-4.3678550">
        <ele>580.9</ele>
        <time>2018-03-28T10:26:40Z</time>
      </trkpt>
      <trkpt lat="36.9028350" lon="-4.3678550">
        <ele>580.9</ele>
        <time>2018-03-28T10:26:41Z</time>
      </trkpt>
      <trkpt lat="36.9028080" lon="-4.3677620">
        <ele>580.9</ele>
        <time>2018-03-28T10:26:42Z</time>
      </trkpt>
      <trkpt lat="36.9027970" lon="-4.3677180">
        <ele>580.9</ele>
        <time>2018-03-28T10:26:43Z</time>
      </trkpt>
      <trkpt lat="36.9027860" lon="-4.3676830">
        <ele>581.9</ele>
        <time>2018-03-28T10:26:44Z</time>
      </trkpt>
      <trkpt lat="36.9027740" lon="-4.3676470">
        <ele>581.9</ele>
        <time>2018-03-28T10:26:45Z</time>
      </trkpt>
      <trkpt lat="36.9027630" lon="-4.3676120">
        <ele>581.9</ele>
        <time>2018-03-28T10:26:46Z</time>
      </trkpt>
      <trkpt lat="36.9027580" lon="-4.3675920">
        <ele>581.9</ele>
        <time>2018-03-28T10:26:47Z</time>
      </trkpt>
      <trkpt lat="36.9027380" lon="-4.3675120">
        <ele>582.9</ele>
        <time>2018-03-28T10:26:48Z</time>
      </trkpt>
      <trkpt lat="36.9027280" lon="-4.3674700">
        <ele>582.9</ele>
        <time>2018-03-28T10:26:49Z</time>
      </trkpt>
      <trkpt lat="36.9027280" lon="-4.3674700">
        <ele>582.9</ele>
        <time>2018-03-28T10:26:50Z</time>
      </trkpt>
      <trkpt lat="36.9027050" lon="-4.3673800">
        <ele>582.9</ele>
        <time>2018-03-28T10:26:51Z</time>
      </trkpt>
      <trkpt lat="36.9027050" lon="-4.3673800">
        <ele>582.9</ele>
        <time>2018-03-28T10:26:52Z</time>
      </trkpt>
      <trkpt lat="36.9026880" lon="-4.3672920">
        <ele>582.9</ele>
        <time>2018-03-28T10:26:53Z</time>
      </trkpt>
      <trkpt lat="36.9026880" lon="-4.3672920">
        <ele>582.9</ele>
        <time>2018-03-28T10:26:54Z</time>
      </trkpt>
      <trkpt lat="36.9026720" lon="-4.3672070">
        <ele>582.9</ele>
        <time>2018-03-28T10:26:55Z</time>
      </trkpt>
      <trkpt lat="36.9026720" lon="-4.3672070">
        <ele>582.9</ele>
        <time>2018-03-28T10:26:56Z</time>
      </trkpt>
      <trkpt lat="36.9026470" lon="-4.3671200">
        <ele>582.9</ele>
        <time>2018-03-28T10:26:57Z</time>
      </trkpt>
      <trkpt lat="36.9026470" lon="-4.3671200">
        <ele>583.9</ele>
        <time>2018-03-28T10:26:58Z</time>
      </trkpt>
      <trkpt lat="36.9026220" lon="-4.3670330">
        <ele>583.9</ele>
        <time>2018-03-28T10:26:59Z</time>
      </trkpt>
      <trkpt lat="36.9026120" lon="-4.3669880">
        <ele>583.9</ele>
        <time>2018-03-28T10:27:00Z</time>
      </trkpt>
      <trkpt lat="36.9025980" lon="-4.3669430">
        <ele>584.9</ele>
        <time>2018-03-28T10:27:01Z</time>
      </trkpt>
      <trkpt lat="36.9025980" lon="-4.3669430">
        <ele>584.9</ele>
        <time>2018-03-28T10:27:02Z</time>
      </trkpt>
      <trkpt lat="36.9025720" lon="-4.3668520">
        <ele>584.9</ele>
        <time>2018-03-28T10:27:03Z</time>
      </trkpt>
      <trkpt lat="36.9025720" lon="-4.3668520">
        <ele>584.9</ele>
        <time>2018-03-28T10:27:04Z</time>
      </trkpt>
      <trkpt lat="36.9025430" lon="-4.3667580">
        <ele>584.9</ele>
        <time>2018-03-28T10:27:05Z</time>
      </trkpt>
      <trkpt lat="36.9025430" lon="-4.3667580">
        <ele>584.9</ele>
        <time>2018-03-28T10:27:06Z</time>
      </trkpt>
      <trkpt lat="36.9025170" lon="-4.3666620">
        <ele>585.9</ele>
        <time>2018-03-28T10:27:07Z</time>
      </trkpt>
      <trkpt lat="36.9025170" lon="-4.3666620">
        <ele>585.9</ele>
        <time>2018-03-28T10:27:08Z</time>
      </trkpt>
      <trkpt lat="36.9024930" lon="-4.3665670">
        <ele>585.9</ele>
        <time>2018-03-28T10:27:09Z</time>
      </trkpt>
      <trkpt lat="36.9024820" lon="-4.3665180">
        <ele>585.9</ele>
        <time>2018-03-28T10:27:10Z</time>
      </trkpt>
      <trkpt lat="36.9024820" lon="-4.3665180">
        <ele>585.9</ele>
        <time>2018-03-28T10:27:11Z</time>
      </trkpt>
      <trkpt lat="36.9024580" lon="-4.3664280">
        <ele>585.9</ele>
        <time>2018-03-28T10:27:12Z</time>
      </trkpt>
      <trkpt lat="36.9024580" lon="-4.3664280">
        <ele>585.9</ele>
        <time>2018-03-28T10:27:13Z</time>
      </trkpt>
      <trkpt lat="36.9024400" lon="-4.3663350">
        <ele>585.9</ele>
        <time>2018-03-28T10:27:14Z</time>
      </trkpt>
      <trkpt lat="36.9024400" lon="-4.3663350">
        <ele>585.9</ele>
        <time>2018-03-28T10:27:15Z</time>
      </trkpt>
      <trkpt lat="36.9024170" lon="-4.3662400">
        <ele>585.9</ele>
        <time>2018-03-28T10:27:16Z</time>
      </trkpt>
      <trkpt lat="36.9024170" lon="-4.3662400">
        <ele>586.9</ele>
        <time>2018-03-28T10:27:17Z</time>
      </trkpt>
      <trkpt lat="36.9023930" lon="-4.3661450">
        <ele>586.9</ele>
        <time>2018-03-28T10:27:18Z</time>
      </trkpt>
      <trkpt lat="36.9023760" lon="-4.3660720">
        <ele>586.9</ele>
        <time>2018-03-28T10:27:19Z</time>
      </trkpt>
      <trkpt lat="36.9023690" lon="-4.3660470">
        <ele>586.9</ele>
        <time>2018-03-28T10:27:20Z</time>
      </trkpt>
      <trkpt lat="36.9023550" lon="-4.3659970">
        <ele>586.9</ele>
        <time>2018-03-28T10:27:21Z</time>
      </trkpt>
      <trkpt lat="36.9023380" lon="-4.3659450">
        <ele>586.9</ele>
        <time>2018-03-28T10:27:22Z</time>
      </trkpt>
      <trkpt lat="36.9023380" lon="-4.3659450">
        <ele>587.9</ele>
        <time>2018-03-28T10:27:23Z</time>
      </trkpt>
      <trkpt lat="36.9023130" lon="-4.3658430">
        <ele>587.9</ele>
        <time>2018-03-28T10:27:24Z</time>
      </trkpt>
      <trkpt lat="36.9022980" lon="-4.3657930">
        <ele>587.9</ele>
        <time>2018-03-28T10:27:25Z</time>
      </trkpt>
      <trkpt lat="36.9022980" lon="-4.3657930">
        <ele>587.9</ele>
        <time>2018-03-28T10:27:26Z</time>
      </trkpt>
      <trkpt lat="36.9022700" lon="-4.3656900">
        <ele>587.9</ele>
        <time>2018-03-28T10:27:27Z</time>
      </trkpt>
      <trkpt lat="36.9022700" lon="-4.3656900">
        <ele>587.9</ele>
        <time>2018-03-28T10:27:28Z</time>
      </trkpt>
      <trkpt lat="36.9022400" lon="-4.3655800">
        <ele>587.9</ele>
        <time>2018-03-28T10:27:29Z</time>
      </trkpt>
      <trkpt lat="36.9022400" lon="-4.3655800">
        <ele>587.9</ele>
        <time>2018-03-28T10:27:30Z</time>
      </trkpt>
      <trkpt lat="36.9022130" lon="-4.3654680">
        <ele>587.9</ele>
        <time>2018-03-28T10:27:31Z</time>
      </trkpt>
      <trkpt lat="36.9022130" lon="-4.3654680">
        <ele>587.9</ele>
        <time>2018-03-28T10:27:32Z</time>
      </trkpt>
      <trkpt lat="36.9021870" lon="-4.3653480">
        <ele>587.9</ele>
        <time>2018-03-28T10:27:33Z</time>
      </trkpt>
      <trkpt lat="36.9021750" lon="-4.3652880">
        <ele>587.9</ele>
        <time>2018-03-28T10:27:34Z</time>
      </trkpt>
      <trkpt lat="36.9021750" lon="-4.3652880">
        <ele>587.9</ele>
        <time>2018-03-28T10:27:35Z</time>
      </trkpt>
      <trkpt lat="36.9021470" lon="-4.3651670">
        <ele>587.9</ele>
        <time>2018-03-28T10:27:36Z</time>
      </trkpt>
      <trkpt lat="36.9021470" lon="-4.3651670">
        <ele>587.9</ele>
        <time>2018-03-28T10:27:37Z</time>
      </trkpt>
      <trkpt lat="36.9021200" lon="-4.3650420">
        <ele>587.9</ele>
        <time>2018-03-28T10:27:38Z</time>
      </trkpt>
      <trkpt lat="36.9021200" lon="-4.3650420">
        <ele>587.9</ele>
        <time>2018-03-28T10:27:39Z</time>
      </trkpt>
      <trkpt lat="36.9020970" lon="-4.3649130">
        <ele>587.9</ele>
        <time>2018-03-28T10:27:40Z</time>
      </trkpt>
      <trkpt lat="36.9020870" lon="-4.3648470">
        <ele>587.9</ele>
        <time>2018-03-28T10:27:41Z</time>
      </trkpt>
      <trkpt lat="36.9020870" lon="-4.3648470">
        <ele>587.9</ele>
        <time>2018-03-28T10:27:42Z</time>
      </trkpt>
      <trkpt lat="36.9020700" lon="-4.3647150">
        <ele>587.9</ele>
        <time>2018-03-28T10:27:43Z</time>
      </trkpt>
      <trkpt lat="36.9020700" lon="-4.3647150">
        <ele>587.9</ele>
        <time>2018-03-28T10:27:44Z</time>
      </trkpt>
      <trkpt lat="36.9020500" lon="-4.3645830">
        <ele>587.9</ele>
        <time>2018-03-28T10:27:45Z</time>
      </trkpt>
      <trkpt lat="36.9020370" lon="-4.3645170">
        <ele>587.9</ele>
        <time>2018-03-28T10:27:46Z</time>
      </trkpt>
      <trkpt lat="36.9020220" lon="-4.3644500">
        <ele>587.9</ele>
        <time>2018-03-28T10:27:47Z</time>
      </trkpt>
      <trkpt lat="36.9020220" lon="-4.3644500">
        <ele>587.9</ele>
        <time>2018-03-28T10:27:48Z</time>
      </trkpt>
      <trkpt lat="36.9019950" lon="-4.3643170">
        <ele>587.9</ele>
        <time>2018-03-28T10:27:49Z</time>
      </trkpt>
      <trkpt lat="36.9019950" lon="-4.3643170">
        <ele>587.9</ele>
        <time>2018-03-28T10:27:50Z</time>
      </trkpt>
      <trkpt lat="36.9019670" lon="-4.3641850">
        <ele>587.9</ele>
        <time>2018-03-28T10:27:51Z</time>
      </trkpt>
      <trkpt lat="36.9019670" lon="-4.3641850">
        <ele>587.9</ele>
        <time>2018-03-28T10:27:52Z</time>
      </trkpt>
      <trkpt lat="36.9019420" lon="-4.3640450">
        <ele>587.9</ele>
        <time>2018-03-28T10:27:53Z</time>
      </trkpt>
      <trkpt lat="36.9019320" lon="-4.3639730">
        <ele>587.9</ele>
        <time>2018-03-28T10:27:54Z</time>
      </trkpt>
      <trkpt lat="36.9019320" lon="-4.3639730">
        <ele>587.9</ele>
        <time>2018-03-28T10:27:55Z</time>
      </trkpt>
      <trkpt lat="36.9019120" lon="-4.3638280">
        <ele>587.9</ele>
        <time>2018-03-28T10:27:56Z</time>
      </trkpt>
      <trkpt lat="36.9019120" lon="-4.3638280">
        <ele>587.9</ele>
        <time>2018-03-28T10:27:57Z</time>
      </trkpt>
      <trkpt lat="36.9018850" lon="-4.3636780">
        <ele>587.9</ele>
        <time>2018-03-28T10:27:58Z</time>
      </trkpt>
      <trkpt lat="36.9018700" lon="-4.3636000">
        <ele>587.9</ele>
        <time>2018-03-28T10:27:59Z</time>
      </trkpt>
      <trkpt lat="36.9018700" lon="-4.3636000">
        <ele>587.9</ele>
        <time>2018-03-28T10:28:00Z</time>
      </trkpt>
      <trkpt lat="36.9018380" lon="-4.3634350">
        <ele>587.9</ele>
        <time>2018-03-28T10:28:01Z</time>
      </trkpt>
      <trkpt lat="36.9018380" lon="-4.3634350">
        <ele>587.9</ele>
        <time>2018-03-28T10:28:02Z</time>
      </trkpt>
      <trkpt lat="36.9018180" lon="-4.3632720">
        <ele>587.9</ele>
        <time>2018-03-28T10:28:03Z</time>
      </trkpt>
      <trkpt lat="36.9018180" lon="-4.3632720">
        <ele>586.9</ele>
        <time>2018-03-28T10:28:04Z</time>
      </trkpt>
      <trkpt lat="36.9017920" lon="-4.3631100">
        <ele>586.9</ele>
        <time>2018-03-28T10:28:05Z</time>
      </trkpt>
      <trkpt lat="36.9017920" lon="-4.3631100">
        <ele>586.9</ele>
        <time>2018-03-28T10:28:06Z</time>
      </trkpt>
      <trkpt lat="36.9017680" lon="-4.3629570">
        <ele>586.9</ele>
        <time>2018-03-28T10:28:07Z</time>
      </trkpt>
      <trkpt lat="36.9017680" lon="-4.3629570">
        <ele>586.9</ele>
        <time>2018-03-28T10:28:08Z</time>
      </trkpt>
      <trkpt lat="36.9017450" lon="-4.3628130">
        <ele>586.9</ele>
        <time>2018-03-28T10:28:09Z</time>
      </trkpt>
      <trkpt lat="36.9017350" lon="-4.3627430">
        <ele>586.9</ele>
        <time>2018-03-28T10:28:10Z</time>
      </trkpt>
      <trkpt lat="36.9017350" lon="-4.3627430">
        <ele>586.9</ele>
        <time>2018-03-28T10:28:11Z</time>
      </trkpt>
      <trkpt lat="36.9017130" lon="-4.3626120">
        <ele>586.9</ele>
        <time>2018-03-28T10:28:12Z</time>
      </trkpt>
      <trkpt lat="36.9017020" lon="-4.3625430">
        <ele>586.9</ele>
        <time>2018-03-28T10:28:13Z</time>
      </trkpt>
      <trkpt lat="36.9017020" lon="-4.3625430">
        <ele>586.9</ele>
        <time>2018-03-28T10:28:14Z</time>
      </trkpt>
      <trkpt lat="36.9016900" lon="-4.3624150">
        <ele>586.9</ele>
        <time>2018-03-28T10:28:15Z</time>
      </trkpt>
      <trkpt lat="36.9016900" lon="-4.3624150">
        <ele>586.9</ele>
        <time>2018-03-28T10:28:16Z</time>
      </trkpt>
      <trkpt lat="36.9016720" lon="-4.3622830">
        <ele>586.9</ele>
        <time>2018-03-28T10:28:17Z</time>
      </trkpt>
      <trkpt lat="36.9016720" lon="-4.3622830">
        <ele>586.9</ele>
        <time>2018-03-28T10:28:18Z</time>
      </trkpt>
      <trkpt lat="36.9016550" lon="-4.3621570">
        <ele>586.9</ele>
        <time>2018-03-28T10:28:19Z</time>
      </trkpt>
      <trkpt lat="36.9016550" lon="-4.3621570">
        <ele>587.9</ele>
        <time>2018-03-28T10:28:20Z</time>
      </trkpt>
      <trkpt lat="36.9016350" lon="-4.3620280">
        <ele>587.9</ele>
        <time>2018-03-28T10:28:21Z</time>
      </trkpt>
      <trkpt lat="36.9016350" lon="-4.3620280">
        <ele>587.9</ele>
        <time>2018-03-28T10:28:22Z</time>
      </trkpt>
      <trkpt lat="36.9016150" lon="-4.3619020">
        <ele>587.9</ele>
        <time>2018-03-28T10:28:23Z</time>
      </trkpt>
      <trkpt lat="36.9016050" lon="-4.3618380">
        <ele>587.9</ele>
        <time>2018-03-28T10:28:24Z</time>
      </trkpt>
      <trkpt lat="36.9016050" lon="-4.3618380">
        <ele>587.9</ele>
        <time>2018-03-28T10:28:25Z</time>
      </trkpt>
      <trkpt lat="36.9015850" lon="-4.3617130">
        <ele>587.9</ele>
        <time>2018-03-28T10:28:26Z</time>
      </trkpt>
      <trkpt lat="36.9015850" lon="-4.3617130">
        <ele>588.9</ele>
        <time>2018-03-28T10:28:27Z</time>
      </trkpt>
      <trkpt lat="36.9015630" lon="-4.3615880">
        <ele>588.9</ele>
        <time>2018-03-28T10:28:28Z</time>
      </trkpt>
      <trkpt lat="36.9015520" lon="-4.3615270">
        <ele>588.9</ele>
        <time>2018-03-28T10:28:29Z</time>
      </trkpt>
      <trkpt lat="36.9015520" lon="-4.3615270">
        <ele>588.9</ele>
        <time>2018-03-28T10:28:30Z</time>
      </trkpt>
      <trkpt lat="36.9015320" lon="-4.3614050">
        <ele>588.9</ele>
        <time>2018-03-28T10:28:31Z</time>
      </trkpt>
      <trkpt lat="36.9015320" lon="-4.3614050">
        <ele>588.9</ele>
        <time>2018-03-28T10:28:32Z</time>
      </trkpt>
      <trkpt lat="36.9015150" lon="-4.3612870">
        <ele>589.9</ele>
        <time>2018-03-28T10:28:33Z</time>
      </trkpt>
      <trkpt lat="36.9015150" lon="-4.3612870">
        <ele>589.9</ele>
        <time>2018-03-28T10:28:34Z</time>
      </trkpt>
      <trkpt lat="36.9015000" lon="-4.3611700">
        <ele>589.9</ele>
        <time>2018-03-28T10:28:35Z</time>
      </trkpt>
      <trkpt lat="36.9015000" lon="-4.3611700">
        <ele>589.9</ele>
        <time>2018-03-28T10:28:36Z</time>
      </trkpt>
      <trkpt lat="36.9014820" lon="-4.3610570">
        <ele>589.9</ele>
        <time>2018-03-28T10:28:37Z</time>
      </trkpt>
      <trkpt lat="36.9014820" lon="-4.3610570">
        <ele>589.9</ele>
        <time>2018-03-28T10:28:38Z</time>
      </trkpt>
      <trkpt lat="36.9014680" lon="-4.3609430">
        <ele>590.9</ele>
        <time>2018-03-28T10:28:39Z</time>
      </trkpt>
      <trkpt lat="36.9014600" lon="-4.3608880">
        <ele>590.9</ele>
        <time>2018-03-28T10:28:40Z</time>
      </trkpt>
      <trkpt lat="36.9014600" lon="-4.3608880">
        <ele>590.9</ele>
        <time>2018-03-28T10:28:41Z</time>
      </trkpt>
      <trkpt lat="36.9014380" lon="-4.3607510">
        <ele>590.9</ele>
        <time>2018-03-28T10:28:42Z</time>
      </trkpt>
      <trkpt lat="36.9014330" lon="-4.3607240">
        <ele>590.9</ele>
        <time>2018-03-28T10:28:43Z</time>
      </trkpt>
      <trkpt lat="36.9014220" lon="-4.3606700">
        <ele>590.9</ele>
        <time>2018-03-28T10:28:44Z</time>
      </trkpt>
      <trkpt lat="36.9014220" lon="-4.3606700">
        <ele>591.9</ele>
        <time>2018-03-28T10:28:45Z</time>
      </trkpt>
      <trkpt lat="36.9014130" lon="-4.3605650">
        <ele>591.9</ele>
        <time>2018-03-28T10:28:46Z</time>
      </trkpt>
      <trkpt lat="36.9014130" lon="-4.3605650">
        <ele>591.9</ele>
        <time>2018-03-28T10:28:47Z</time>
      </trkpt>
      <trkpt lat="36.9014050" lon="-4.3604620">
        <ele>591.9</ele>
        <time>2018-03-28T10:28:48Z</time>
      </trkpt>
      <trkpt lat="36.9014000" lon="-4.3604120">
        <ele>592.9</ele>
        <time>2018-03-28T10:28:49Z</time>
      </trkpt>
      <trkpt lat="36.9014000" lon="-4.3604120">
        <ele>592.9</ele>
        <time>2018-03-28T10:28:50Z</time>
      </trkpt>
      <trkpt lat="36.9013850" lon="-4.3603150">
        <ele>592.9</ele>
        <time>2018-03-28T10:28:51Z</time>
      </trkpt>
      <trkpt lat="36.9013780" lon="-4.3602670">
        <ele>592.9</ele>
        <time>2018-03-28T10:28:52Z</time>
      </trkpt>
      <trkpt lat="36.9013780" lon="-4.3602670">
        <ele>593.9</ele>
        <time>2018-03-28T10:28:53Z</time>
      </trkpt>
      <trkpt lat="36.9013650" lon="-4.3601730">
        <ele>593.9</ele>
        <time>2018-03-28T10:28:54Z</time>
      </trkpt>
      <trkpt lat="36.9013650" lon="-4.3601730">
        <ele>593.9</ele>
        <time>2018-03-28T10:28:55Z</time>
      </trkpt>
      <trkpt lat="36.9013530" lon="-4.3600780">
        <ele>593.9</ele>
        <time>2018-03-28T10:28:56Z</time>
      </trkpt>
      <trkpt lat="36.9013530" lon="-4.3600780">
        <ele>593.9</ele>
        <time>2018-03-28T10:28:57Z</time>
      </trkpt>
      <trkpt lat="36.9013330" lon="-4.3599870">
        <ele>593.9</ele>
        <time>2018-03-28T10:28:58Z</time>
      </trkpt>
      <trkpt lat="36.9013270" lon="-4.3599430">
        <ele>593.9</ele>
        <time>2018-03-28T10:28:59Z</time>
      </trkpt>
      <trkpt lat="36.9013270" lon="-4.3599430">
        <ele>594.9</ele>
        <time>2018-03-28T10:29:00Z</time>
      </trkpt>
      <trkpt lat="36.9013130" lon="-4.3598570">
        <ele>594.9</ele>
        <time>2018-03-28T10:29:01Z</time>
      </trkpt>
      <trkpt lat="36.9013130" lon="-4.3598570">
        <ele>594.9</ele>
        <time>2018-03-28T10:29:02Z</time>
      </trkpt>
      <trkpt lat="36.9013020" lon="-4.3597720">
        <ele>594.9</ele>
        <time>2018-03-28T10:29:03Z</time>
      </trkpt>
      <trkpt lat="36.9012950" lon="-4.3597300">
        <ele>595.9</ele>
        <time>2018-03-28T10:29:04Z</time>
      </trkpt>
      <trkpt lat="36.9012880" lon="-4.3596880">
        <ele>595.9</ele>
        <time>2018-03-28T10:29:05Z</time>
      </trkpt>
      <trkpt lat="36.9012800" lon="-4.3596470">
        <ele>595.9</ele>
        <time>2018-03-28T10:29:06Z</time>
      </trkpt>
      <trkpt lat="36.9012800" lon="-4.3596470">
        <ele>595.9</ele>
        <time>2018-03-28T10:29:07Z</time>
      </trkpt>
      <trkpt lat="36.9012650" lon="-4.3595580">
        <ele>595.9</ele>
        <time>2018-03-28T10:29:08Z</time>
      </trkpt>
      <trkpt lat="36.9012650" lon="-4.3595580">
        <ele>595.9</ele>
        <time>2018-03-28T10:29:09Z</time>
      </trkpt>
      <trkpt lat="36.9012520" lon="-4.3594750">
        <ele>595.9</ele>
        <time>2018-03-28T10:29:10Z</time>
      </trkpt>
      <trkpt lat="36.9012450" lon="-4.3594320">
        <ele>595.9</ele>
        <time>2018-03-28T10:29:11Z</time>
      </trkpt>
      <trkpt lat="36.9012450" lon="-4.3594320">
        <ele>596.9</ele>
        <time>2018-03-28T10:29:12Z</time>
      </trkpt>
      <trkpt lat="36.9012320" lon="-4.3593500">
        <ele>596.9</ele>
        <time>2018-03-28T10:29:13Z</time>
      </trkpt>
      <trkpt lat="36.9012320" lon="-4.3593500">
        <ele>596.9</ele>
        <time>2018-03-28T10:29:14Z</time>
      </trkpt>
      <trkpt lat="36.9012130" lon="-4.3592680">
        <ele>596.9</ele>
        <time>2018-03-28T10:29:15Z</time>
      </trkpt>
      <trkpt lat="36.9012120" lon="-4.3592300">
        <ele>597.9</ele>
        <time>2018-03-28T10:29:16Z</time>
      </trkpt>
      <trkpt lat="36.9012120" lon="-4.3592300">
        <ele>597.9</ele>
        <time>2018-03-28T10:29:17Z</time>
      </trkpt>
      <trkpt lat="36.9012040" lon="-4.3591240">
        <ele>597.9</ele>
        <time>2018-03-28T10:29:18Z</time>
      </trkpt>
      <trkpt lat="36.9012020" lon="-4.3591030">
        <ele>597.9</ele>
        <time>2018-03-28T10:29:19Z</time>
      </trkpt>
      <trkpt lat="36.9012020" lon="-4.3591030">
        <ele>598.9</ele>
        <time>2018-03-28T10:29:20Z</time>
      </trkpt>
      <trkpt lat="36.9011970" lon="-4.3590200">
        <ele>598.9</ele>
        <time>2018-03-28T10:29:21Z</time>
      </trkpt>
      <trkpt lat="36.9011950" lon="-4.3589780">
        <ele>598.9</ele>
        <time>2018-03-28T10:29:22Z</time>
      </trkpt>
      <trkpt lat="36.9011950" lon="-4.3589780">
        <ele>599.9</ele>
        <time>2018-03-28T10:29:23Z</time>
      </trkpt>
      <trkpt lat="36.9011930" lon="-4.3588970">
        <ele>599.9</ele>
        <time>2018-03-28T10:29:24Z</time>
      </trkpt>
      <trkpt lat="36.9011930" lon="-4.3588550">
        <ele>599.9</ele>
        <time>2018-03-28T10:29:25Z</time>
      </trkpt>
      <trkpt lat="36.9011930" lon="-4.3588550">
        <ele>599.9</ele>
        <time>2018-03-28T10:29:26Z</time>
      </trkpt>
      <trkpt lat="36.9011870" lon="-4.3587770">
        <ele>600.9</ele>
        <time>2018-03-28T10:29:27Z</time>
      </trkpt>
      <trkpt lat="36.9011850" lon="-4.3587350">
        <ele>600.9</ele>
        <time>2018-03-28T10:29:28Z</time>
      </trkpt>
      <trkpt lat="36.9011850" lon="-4.3587350">
        <ele>600.9</ele>
        <time>2018-03-28T10:29:29Z</time>
      </trkpt>
      <trkpt lat="36.9011820" lon="-4.3586530">
        <ele>600.9</ele>
        <time>2018-03-28T10:29:30Z</time>
      </trkpt>
      <trkpt lat="36.9011820" lon="-4.3586530">
        <ele>601.9</ele>
        <time>2018-03-28T10:29:31Z</time>
      </trkpt>
      <trkpt lat="36.9011850" lon="-4.3585730">
        <ele>601.9</ele>
        <time>2018-03-28T10:29:32Z</time>
      </trkpt>
      <trkpt lat="36.9011830" lon="-4.3585350">
        <ele>601.9</ele>
        <time>2018-03-28T10:29:33Z</time>
      </trkpt>
      <trkpt lat="36.9011830" lon="-4.3585350">
        <ele>601.9</ele>
        <time>2018-03-28T10:29:34Z</time>
      </trkpt>
      <trkpt lat="36.9011850" lon="-4.3584550">
        <ele>601.9</ele>
        <time>2018-03-28T10:29:35Z</time>
      </trkpt>
      <trkpt lat="36.9011850" lon="-4.3584550">
        <ele>601.9</ele>
        <time>2018-03-28T10:29:36Z</time>
      </trkpt>
      <trkpt lat="36.9011880" lon="-4.3583730">
        <ele>602.9</ele>
        <time>2018-03-28T10:29:37Z</time>
      </trkpt>
      <trkpt lat="36.9011880" lon="-4.3583730">
        <ele>602.9</ele>
        <time>2018-03-28T10:29:38Z</time>
      </trkpt>
      <trkpt lat="36.9011970" lon="-4.3582920">
        <ele>602.9</ele>
        <time>2018-03-28T10:29:39Z</time>
      </trkpt>
      <trkpt lat="36.9012000" lon="-4.3582500">
        <ele>602.9</ele>
        <time>2018-03-28T10:29:40Z</time>
      </trkpt>
      <trkpt lat="36.9012000" lon="-4.3582500">
        <ele>602.9</ele>
        <time>2018-03-28T10:29:41Z</time>
      </trkpt>
      <trkpt lat="36.9012050" lon="-4.3581680">
        <ele>602.9</ele>
        <time>2018-03-28T10:29:42Z</time>
      </trkpt>
      <trkpt lat="36.9012100" lon="-4.3581270">
        <ele>602.9</ele>
        <time>2018-03-28T10:29:43Z</time>
      </trkpt>
      <trkpt lat="36.9012100" lon="-4.3581270">
        <ele>602.9</ele>
        <time>2018-03-28T10:29:44Z</time>
      </trkpt>
      <trkpt lat="36.9012230" lon="-4.3580430">
        <ele>602.9</ele>
        <time>2018-03-28T10:29:45Z</time>
      </trkpt>
      <trkpt lat="36.9012230" lon="-4.3580430">
        <ele>602.9</ele>
        <time>2018-03-28T10:29:46Z</time>
      </trkpt>
      <trkpt lat="36.9012350" lon="-4.3579520">
        <ele>602.9</ele>
        <time>2018-03-28T10:29:47Z</time>
      </trkpt>
      <trkpt lat="36.9012350" lon="-4.3579520">
        <ele>602.9</ele>
        <time>2018-03-28T10:29:48Z</time>
      </trkpt>
      <trkpt lat="36.9012500" lon="-4.3578600">
        <ele>603.9</ele>
        <time>2018-03-28T10:29:49Z</time>
      </trkpt>
      <trkpt lat="36.9012600" lon="-4.3578130">
        <ele>603.9</ele>
        <time>2018-03-28T10:29:50Z</time>
      </trkpt>
      <trkpt lat="36.9012600" lon="-4.3578130">
        <ele>603.9</ele>
        <time>2018-03-28T10:29:51Z</time>
      </trkpt>
      <trkpt lat="36.9012750" lon="-4.3577230">
        <ele>603.9</ele>
        <time>2018-03-28T10:29:52Z</time>
      </trkpt>
      <trkpt lat="36.9012830" lon="-4.3576780">
        <ele>603.9</ele>
        <time>2018-03-28T10:29:53Z</time>
      </trkpt>
      <trkpt lat="36.9012830" lon="-4.3576780">
        <ele>604.9</ele>
        <time>2018-03-28T10:29:54Z</time>
      </trkpt>
      <trkpt lat="36.9013000" lon="-4.3575880">
        <ele>604.9</ele>
        <time>2018-03-28T10:29:55Z</time>
      </trkpt>
      <trkpt lat="36.9013100" lon="-4.3575430">
        <ele>604.9</ele>
        <time>2018-03-28T10:29:56Z</time>
      </trkpt>
      <trkpt lat="36.9013100" lon="-4.3575430">
        <ele>604.9</ele>
        <time>2018-03-28T10:29:57Z</time>
      </trkpt>
      <trkpt lat="36.9013350" lon="-4.3574530">
        <ele>604.9</ele>
        <time>2018-03-28T10:29:58Z</time>
      </trkpt>
      <trkpt lat="36.9013470" lon="-4.3574100">
        <ele>604.9</ele>
        <time>2018-03-28T10:29:59Z</time>
      </trkpt>
      <trkpt lat="36.9013470" lon="-4.3574100">
        <ele>605.9</ele>
        <time>2018-03-28T10:30:00Z</time>
      </trkpt>
      <trkpt lat="36.9013700" lon="-4.3573230">
        <ele>605.9</ele>
        <time>2018-03-28T10:30:01Z</time>
      </trkpt>
      <trkpt lat="36.9013700" lon="-4.3573230">
        <ele>605.9</ele>
        <time>2018-03-28T10:30:02Z</time>
      </trkpt>
      <trkpt lat="36.9013970" lon="-4.3572380">
        <ele>605.9</ele>
        <time>2018-03-28T10:30:03Z</time>
      </trkpt>
      <trkpt lat="36.9013970" lon="-4.3572380">
        <ele>605.9</ele>
        <time>2018-03-28T10:30:04Z</time>
      </trkpt>
      <trkpt lat="36.9014250" lon="-4.3571520">
        <ele>605.9</ele>
        <time>2018-03-28T10:30:05Z</time>
      </trkpt>
      <trkpt lat="36.9014250" lon="-4.3571520">
        <ele>605.9</ele>
        <time>2018-03-28T10:30:06Z</time>
      </trkpt>
      <trkpt lat="36.9014570" lon="-4.3570670">
        <ele>605.9</ele>
        <time>2018-03-28T10:30:07Z</time>
      </trkpt>
      <trkpt lat="36.9014570" lon="-4.3570670">
        <ele>606.9</ele>
        <time>2018-03-28T10:30:08Z</time>
      </trkpt>
      <trkpt lat="36.9014880" lon="-4.3569850">
        <ele>606.9</ele>
        <time>2018-03-28T10:30:09Z</time>
      </trkpt>
      <trkpt lat="36.9014880" lon="-4.3569850">
        <ele>606.9</ele>
        <time>2018-03-28T10:30:10Z</time>
      </trkpt>
      <trkpt lat="36.9015230" lon="-4.3569020">
        <ele>606.9</ele>
        <time>2018-03-28T10:30:11Z</time>
      </trkpt>
      <trkpt lat="36.9015230" lon="-4.3569020">
        <ele>606.9</ele>
        <time>2018-03-28T10:30:12Z</time>
      </trkpt>
      <trkpt lat="36.9015600" lon="-4.3568180">
        <ele>606.9</ele>
        <time>2018-03-28T10:30:13Z</time>
      </trkpt>
      <trkpt lat="36.9015600" lon="-4.3568180">
        <ele>607.9</ele>
        <time>2018-03-28T10:30:14Z</time>
      </trkpt>
      <trkpt lat="36.9016000" lon="-4.3567400">
        <ele>607.9</ele>
        <time>2018-03-28T10:30:15Z</time>
      </trkpt>
      <trkpt lat="36.9016220" lon="-4.3567000">
        <ele>607.9</ele>
        <time>2018-03-28T10:30:16Z</time>
      </trkpt>
      <trkpt lat="36.9016220" lon="-4.3567000">
        <ele>607.9</ele>
        <time>2018-03-28T10:30:17Z</time>
      </trkpt>
      <trkpt lat="36.9016650" lon="-4.3566180">
        <ele>607.9</ele>
        <time>2018-03-28T10:30:18Z</time>
      </trkpt>
      <trkpt lat="36.9016830" lon="-4.3565770">
        <ele>607.9</ele>
        <time>2018-03-28T10:30:19Z</time>
      </trkpt>
      <trkpt lat="36.9016930" lon="-4.3565320">
        <ele>608.9</ele>
        <time>2018-03-28T10:30:20Z</time>
      </trkpt>
      <trkpt lat="36.9017030" lon="-4.3564870">
        <ele>608.9</ele>
        <time>2018-03-28T10:30:21Z</time>
      </trkpt>
      <trkpt lat="36.9017100" lon="-4.3564400">
        <ele>608.9</ele>
        <time>2018-03-28T10:30:22Z</time>
      </trkpt>
      <trkpt lat="36.9017100" lon="-4.3564400">
        <ele>608.9</ele>
        <time>2018-03-28T10:30:23Z</time>
      </trkpt>
      <trkpt lat="36.9017200" lon="-4.3563450">
        <ele>608.9</ele>
        <time>2018-03-28T10:30:24Z</time>
      </trkpt>
      <trkpt lat="36.9017180" lon="-4.3562980">
        <ele>608.9</ele>
        <time>2018-03-28T10:30:25Z</time>
      </trkpt>
      <trkpt lat="36.9017180" lon="-4.3562980">
        <ele>608.9</ele>
        <time>2018-03-28T10:30:26Z</time>
      </trkpt>
      <trkpt lat="36.9017070" lon="-4.3562050">
        <ele>608.9</ele>
        <time>2018-03-28T10:30:27Z</time>
      </trkpt>
      <trkpt lat="36.9017070" lon="-4.3562050">
        <ele>608.9</ele>
        <time>2018-03-28T10:30:28Z</time>
      </trkpt>
      <trkpt lat="36.9016880" lon="-4.3561100">
        <ele>608.9</ele>
        <time>2018-03-28T10:30:29Z</time>
      </trkpt>
      <trkpt lat="36.9016780" lon="-4.3560600">
        <ele>608.9</ele>
        <time>2018-03-28T10:30:30Z</time>
      </trkpt>
      <trkpt lat="36.9016720" lon="-4.3560080">
        <ele>608.9</ele>
        <time>2018-03-28T10:30:31Z</time>
      </trkpt>
      <trkpt lat="36.9016720" lon="-4.3560080">
        <ele>608.9</ele>
        <time>2018-03-28T10:30:32Z</time>
      </trkpt>
      <trkpt lat="36.9016600" lon="-4.3558950">
        <ele>608.9</ele>
        <time>2018-03-28T10:30:33Z</time>
      </trkpt>
      <trkpt lat="36.9016600" lon="-4.3558950">
        <ele>608.9</ele>
        <time>2018-03-28T10:30:34Z</time>
      </trkpt>
      <trkpt lat="36.9016650" lon="-4.3557620">
        <ele>608.9</ele>
        <time>2018-03-28T10:30:35Z</time>
      </trkpt>
      <trkpt lat="36.9016750" lon="-4.3556900">
        <ele>608.9</ele>
        <time>2018-03-28T10:30:36Z</time>
      </trkpt>
      <trkpt lat="36.9016750" lon="-4.3556900">
        <ele>608.9</ele>
        <time>2018-03-28T10:30:37Z</time>
      </trkpt>
      <trkpt lat="36.9017230" lon="-4.3555430">
        <ele>608.9</ele>
        <time>2018-03-28T10:30:38Z</time>
      </trkpt>
      <trkpt lat="36.9017230" lon="-4.3555430">
        <ele>607.9</ele>
        <time>2018-03-28T10:30:39Z</time>
      </trkpt>
      <trkpt lat="36.9017870" lon="-4.3553820">
        <ele>607.9</ele>
        <time>2018-03-28T10:30:40Z</time>
      </trkpt>
      <trkpt lat="36.9017870" lon="-4.3553820">
        <ele>607.9</ele>
        <time>2018-03-28T10:30:41Z</time>
      </trkpt>
      <trkpt lat="36.9018620" lon="-4.3552000">
        <ele>607.9</ele>
        <time>2018-03-28T10:30:42Z</time>
      </trkpt>
      <trkpt lat="36.9018950" lon="-4.3551030">
        <ele>606.9</ele>
        <time>2018-03-28T10:30:43Z</time>
      </trkpt>
      <trkpt lat="36.9018950" lon="-4.3551030">
        <ele>606.9</ele>
        <time>2018-03-28T10:30:44Z</time>
      </trkpt>
      <trkpt lat="36.9019380" lon="-4.3548970">
        <ele>605.9</ele>
        <time>2018-03-28T10:30:45Z</time>
      </trkpt>
      <trkpt lat="36.9019560" lon="-4.3547400">
        <ele>605.9</ele>
        <time>2018-03-28T10:30:46Z</time>
      </trkpt>
      <trkpt lat="36.9019600" lon="-4.3546880">
        <ele>605.9</ele>
        <time>2018-03-28T10:30:47Z</time>
      </trkpt>
      <trkpt lat="36.9019680" lon="-4.3545830">
        <ele>604.9</ele>
        <time>2018-03-28T10:30:48Z</time>
      </trkpt>
      <trkpt lat="36.9019680" lon="-4.3545830">
        <ele>604.9</ele>
        <time>2018-03-28T10:30:49Z</time>
      </trkpt>
      <trkpt lat="36.9019650" lon="-4.3543930">
        <ele>604.9</ele>
        <time>2018-03-28T10:30:50Z</time>
      </trkpt>
      <trkpt lat="36.9019650" lon="-4.3543930">
        <ele>604.9</ele>
        <time>2018-03-28T10:30:51Z</time>
      </trkpt>
      <trkpt lat="36.9019580" lon="-4.3542280">
        <ele>604.9</ele>
        <time>2018-03-28T10:30:52Z</time>
      </trkpt>
      <trkpt lat="36.9019580" lon="-4.3542280">
        <ele>604.9</ele>
        <time>2018-03-28T10:30:53Z</time>
      </trkpt>
      <trkpt lat="36.9019420" lon="-4.3540920">
        <ele>605.9</ele>
        <time>2018-03-28T10:30:54Z</time>
      </trkpt>
      <trkpt lat="36.9019320" lon="-4.3540380">
        <ele>605.9</ele>
        <time>2018-03-28T10:30:55Z</time>
      </trkpt>
      <trkpt lat="36.9019320" lon="-4.3540380">
        <ele>605.9</ele>
        <time>2018-03-28T10:30:56Z</time>
      </trkpt>
      <trkpt lat="36.9019050" lon="-4.3539520">
        <ele>605.9</ele>
        <time>2018-03-28T10:30:57Z</time>
      </trkpt>
      <trkpt lat="36.9019050" lon="-4.3539520">
        <ele>606.9</ele>
        <time>2018-03-28T10:30:58Z</time>
      </trkpt>
      <trkpt lat="36.9018780" lon="-4.3538750">
        <ele>606.9</ele>
        <time>2018-03-28T10:30:59Z</time>
      </trkpt>
      <trkpt lat="36.9018780" lon="-4.3538750">
        <ele>606.9</ele>
        <time>2018-03-28T10:31:00Z</time>
      </trkpt>
      <trkpt lat="36.9018520" lon="-4.3538000">
        <ele>606.9</ele>
        <time>2018-03-28T10:31:01Z</time>
      </trkpt>
      <trkpt lat="36.9018520" lon="-4.3538000">
        <ele>607.9</ele>
        <time>2018-03-28T10:31:02Z</time>
      </trkpt>
      <trkpt lat="36.9018130" lon="-4.3537300">
        <ele>607.9</ele>
        <time>2018-03-28T10:31:03Z</time>
      </trkpt>
      <trkpt lat="36.9017930" lon="-4.3536970">
        <ele>607.9</ele>
        <time>2018-03-28T10:31:04Z</time>
      </trkpt>
      <trkpt lat="36.9017930" lon="-4.3536970">
        <ele>607.9</ele>
        <time>2018-03-28T10:31:05Z</time>
      </trkpt>
      <trkpt lat="36.9017530" lon="-4.3536270">
        <ele>608.9</ele>
        <time>2018-03-28T10:31:06Z</time>
      </trkpt>
      <trkpt lat="36.9017380" lon="-4.3535930">
        <ele>608.9</ele>
        <time>2018-03-28T10:31:07Z</time>
      </trkpt>
      <trkpt lat="36.9017220" lon="-4.3535600">
        <ele>608.9</ele>
        <time>2018-03-28T10:31:08Z</time>
      </trkpt>
      <trkpt lat="36.9017220" lon="-4.3535600">
        <ele>608.9</ele>
        <time>2018-03-28T10:31:09Z</time>
      </trkpt>
      <trkpt lat="36.9016880" lon="-4.3535000">
        <ele>610.9</ele>
        <time>2018-03-28T10:31:10Z</time>
      </trkpt>
      <trkpt lat="36.9016880" lon="-4.3535000">
        <ele>610.9</ele>
        <time>2018-03-28T10:31:11Z</time>
      </trkpt>
      <trkpt lat="36.9016450" lon="-4.3534470">
        <ele>610.9</ele>
        <time>2018-03-28T10:31:12Z</time>
      </trkpt>
      <trkpt lat="36.9016250" lon="-4.3534200">
        <ele>610.9</ele>
        <time>2018-03-28T10:31:13Z</time>
      </trkpt>
      <trkpt lat="36.9016080" lon="-4.3533920">
        <ele>611.9</ele>
        <time>2018-03-28T10:31:14Z</time>
      </trkpt>
      <trkpt lat="36.9015900" lon="-4.3533650">
        <ele>611.9</ele>
        <time>2018-03-28T10:31:15Z</time>
      </trkpt>
      <trkpt lat="36.9015900" lon="-4.3533650">
        <ele>611.9</ele>
        <time>2018-03-28T10:31:16Z</time>
      </trkpt>
      <trkpt lat="36.9015530" lon="-4.3533080">
        <ele>611.9</ele>
        <time>2018-03-28T10:31:17Z</time>
      </trkpt>
      <trkpt lat="36.9015350" lon="-4.3532830">
        <ele>612.9</ele>
        <time>2018-03-28T10:31:18Z</time>
      </trkpt>
      <trkpt lat="36.9015350" lon="-4.3532830">
        <ele>612.9</ele>
        <time>2018-03-28T10:31:19Z</time>
      </trkpt>
      <trkpt lat="36.9015020" lon="-4.3532300">
        <ele>612.9</ele>
        <time>2018-03-28T10:31:20Z</time>
      </trkpt>
      <trkpt lat="36.9014830" lon="-4.3532020">
        <ele>613.9</ele>
        <time>2018-03-28T10:31:21Z</time>
      </trkpt>
      <trkpt lat="36.9014670" lon="-4.3531730">
        <ele>613.9</ele>
        <time>2018-03-28T10:31:22Z</time>
      </trkpt>
      <trkpt lat="36.9014670" lon="-4.3531730">
        <ele>613.9</ele>
        <time>2018-03-28T10:31:23Z</time>
      </trkpt>
      <trkpt lat="36.9014300" lon="-4.3531200">
        <ele>613.9</ele>
        <time>2018-03-28T10:31:24Z</time>
      </trkpt>
      <trkpt lat="36.9014130" lon="-4.3530920">
        <ele>613.9</ele>
        <time>2018-03-28T10:31:25Z</time>
      </trkpt>
      <trkpt lat="36.9014130" lon="-4.3530920">
        <ele>613.9</ele>
        <time>2018-03-28T10:31:26Z</time>
      </trkpt>
      <trkpt lat="36.9013730" lon="-4.3530380">
        <ele>613.9</ele>
        <time>2018-03-28T10:31:27Z</time>
      </trkpt>
      <trkpt lat="36.9013730" lon="-4.3530380">
        <ele>613.9</ele>
        <time>2018-03-28T10:31:28Z</time>
      </trkpt>
      <trkpt lat="36.9013450" lon="-4.3529850">
        <ele>613.9</ele>
        <time>2018-03-28T10:31:29Z</time>
      </trkpt>
      <trkpt lat="36.9013450" lon="-4.3529850">
        <ele>613.9</ele>
        <time>2018-03-28T10:31:30Z</time>
      </trkpt>
      <trkpt lat="36.9013120" lon="-4.3529320">
        <ele>614.9</ele>
        <time>2018-03-28T10:31:31Z</time>
      </trkpt>
      <trkpt lat="36.9013120" lon="-4.3529320">
        <ele>614.9</ele>
        <time>2018-03-28T10:31:32Z</time>
      </trkpt>
      <trkpt lat="36.9012800" lon="-4.3528770">
        <ele>614.9</ele>
        <time>2018-03-28T10:31:33Z</time>
      </trkpt>
      <trkpt lat="36.9012640" lon="-4.3528480">
        <ele>614.9</ele>
        <time>2018-03-28T10:31:34Z</time>
      </trkpt>
      <trkpt lat="36.9012480" lon="-4.3528200">
        <ele>614.9</ele>
        <time>2018-03-28T10:31:35Z</time>
      </trkpt>
      <trkpt lat="36.9012480" lon="-4.3528200">
        <ele>614.9</ele>
        <time>2018-03-28T10:31:36Z</time>
      </trkpt>
      <trkpt lat="36.9012130" lon="-4.3527670">
        <ele>615.9</ele>
        <time>2018-03-28T10:31:37Z</time>
      </trkpt>
      <trkpt lat="36.9012130" lon="-4.3527670">
        <ele>615.9</ele>
        <time>2018-03-28T10:31:38Z</time>
      </trkpt>
      <trkpt lat="36.9011750" lon="-4.3527180">
        <ele>615.9</ele>
        <time>2018-03-28T10:31:39Z</time>
      </trkpt>
      <trkpt lat="36.9011750" lon="-4.3527180">
        <ele>615.9</ele>
        <time>2018-03-28T10:31:40Z</time>
      </trkpt>
      <trkpt lat="36.9011380" lon="-4.3526670">
        <ele>615.9</ele>
        <time>2018-03-28T10:31:41Z</time>
      </trkpt>
      <trkpt lat="36.9011200" lon="-4.3526420">
        <ele>615.9</ele>
        <time>2018-03-28T10:31:42Z</time>
      </trkpt>
      <trkpt lat="36.9011200" lon="-4.3526420">
        <ele>617.9</ele>
        <time>2018-03-28T10:31:43Z</time>
      </trkpt>
      <trkpt lat="36.9010880" lon="-4.3525880">
        <ele>617.9</ele>
        <time>2018-03-28T10:31:44Z</time>
      </trkpt>
      <trkpt lat="36.9010730" lon="-4.3525620">
        <ele>617.9</ele>
        <time>2018-03-28T10:31:45Z</time>
      </trkpt>
      <trkpt lat="36.9010730" lon="-4.3525620">
        <ele>617.9</ele>
        <time>2018-03-28T10:31:46Z</time>
      </trkpt>
      <trkpt lat="36.9010420" lon="-4.3525080">
        <ele>617.9</ele>
        <time>2018-03-28T10:31:47Z</time>
      </trkpt>
      <trkpt lat="36.9010420" lon="-4.3525080">
        <ele>618.9</ele>
        <time>2018-03-28T10:31:48Z</time>
      </trkpt>
      <trkpt lat="36.9010100" lon="-4.3524580">
        <ele>618.9</ele>
        <time>2018-03-28T10:31:49Z</time>
      </trkpt>
      <trkpt lat="36.9010100" lon="-4.3524580">
        <ele>618.9</ele>
        <time>2018-03-28T10:31:50Z</time>
      </trkpt>
      <trkpt lat="36.9009820" lon="-4.3524050">
        <ele>618.9</ele>
        <time>2018-03-28T10:31:51Z</time>
      </trkpt>
      <trkpt lat="36.9009680" lon="-4.3523770">
        <ele>619.9</ele>
        <time>2018-03-28T10:31:52Z</time>
      </trkpt>
      <trkpt lat="36.9009680" lon="-4.3523770">
        <ele>619.9</ele>
        <time>2018-03-28T10:31:53Z</time>
      </trkpt>
      <trkpt lat="36.9009420" lon="-4.3523170">
        <ele>619.9</ele>
        <time>2018-03-28T10:31:54Z</time>
      </trkpt>
      <trkpt lat="36.9009420" lon="-4.3523170">
        <ele>619.9</ele>
        <time>2018-03-28T10:31:55Z</time>
      </trkpt>
      <trkpt lat="36.9009180" lon="-4.3522570">
        <ele>620.9</ele>
        <time>2018-03-28T10:31:56Z</time>
      </trkpt>
      <trkpt lat="36.9009070" lon="-4.3522280">
        <ele>620.9</ele>
        <time>2018-03-28T10:31:57Z</time>
      </trkpt>
      <trkpt lat="36.9009070" lon="-4.3522280">
        <ele>620.9</ele>
        <time>2018-03-28T10:31:58Z</time>
      </trkpt>
      <trkpt lat="36.9008850" lon="-4.3521720">
        <ele>620.9</ele>
        <time>2018-03-28T10:31:59Z</time>
      </trkpt>
      <trkpt lat="36.9008850" lon="-4.3521720">
        <ele>621.9</ele>
        <time>2018-03-28T10:32:00Z</time>
      </trkpt>
      <trkpt lat="36.9008670" lon="-4.3521120">
        <ele>621.9</ele>
        <time>2018-03-28T10:32:01Z</time>
      </trkpt>
      <trkpt lat="36.9008670" lon="-4.3521120">
        <ele>621.9</ele>
        <time>2018-03-28T10:32:02Z</time>
      </trkpt>
      <trkpt lat="36.9008470" lon="-4.3520500">
        <ele>621.9</ele>
        <time>2018-03-28T10:32:03Z</time>
      </trkpt>
      <trkpt lat="36.9008380" lon="-4.3520180">
        <ele>621.9</ele>
        <time>2018-03-28T10:32:04Z</time>
      </trkpt>
      <trkpt lat="36.9008380" lon="-4.3520180">
        <ele>621.9</ele>
        <time>2018-03-28T10:32:05Z</time>
      </trkpt>
      <trkpt lat="36.9008270" lon="-4.3519520">
        <ele>622.9</ele>
        <time>2018-03-28T10:32:06Z</time>
      </trkpt>
      <trkpt lat="36.9008200" lon="-4.3519200">
        <ele>622.9</ele>
        <time>2018-03-28T10:32:07Z</time>
      </trkpt>
      <trkpt lat="36.9008200" lon="-4.3519200">
        <ele>622.9</ele>
        <time>2018-03-28T10:32:08Z</time>
      </trkpt>
      <trkpt lat="36.9008080" lon="-4.3518520">
        <ele>622.9</ele>
        <time>2018-03-28T10:32:09Z</time>
      </trkpt>
      <trkpt lat="36.9008080" lon="-4.3518520">
        <ele>622.9</ele>
        <time>2018-03-28T10:32:10Z</time>
      </trkpt>
      <trkpt lat="36.9007970" lon="-4.3517900">
        <ele>622.9</ele>
        <time>2018-03-28T10:32:11Z</time>
      </trkpt>
      <trkpt lat="36.9007950" lon="-4.3517600">
        <ele>623.9</ele>
        <time>2018-03-28T10:32:12Z</time>
      </trkpt>
      <trkpt lat="36.9007930" lon="-4.3517270">
        <ele>623.9</ele>
        <time>2018-03-28T10:32:13Z</time>
      </trkpt>
      <trkpt lat="36.9007930" lon="-4.3517270">
        <ele>623.9</ele>
        <time>2018-03-28T10:32:14Z</time>
      </trkpt>
      <trkpt lat="36.9007820" lon="-4.3516600">
        <ele>623.9</ele>
        <time>2018-03-28T10:32:15Z</time>
      </trkpt>
      <trkpt lat="36.9007820" lon="-4.3516600">
        <ele>623.9</ele>
        <time>2018-03-28T10:32:16Z</time>
      </trkpt>
      <trkpt lat="36.9007770" lon="-4.3515900">
        <ele>624.9</ele>
        <time>2018-03-28T10:32:17Z</time>
      </trkpt>
      <trkpt lat="36.9007770" lon="-4.3515900">
        <ele>624.9</ele>
        <time>2018-03-28T10:32:18Z</time>
      </trkpt>
      <trkpt lat="36.9007700" lon="-4.3515220">
        <ele>624.9</ele>
        <time>2018-03-28T10:32:19Z</time>
      </trkpt>
      <trkpt lat="36.9007700" lon="-4.3515220">
        <ele>624.9</ele>
        <time>2018-03-28T10:32:20Z</time>
      </trkpt>
      <trkpt lat="36.9007730" lon="-4.3514570">
        <ele>624.9</ele>
        <time>2018-03-28T10:32:21Z</time>
      </trkpt>
      <trkpt lat="36.9007780" lon="-4.3514220">
        <ele>624.9</ele>
        <time>2018-03-28T10:32:22Z</time>
      </trkpt>
      <trkpt lat="36.9007780" lon="-4.3514220">
        <ele>624.9</ele>
        <time>2018-03-28T10:32:23Z</time>
      </trkpt>
      <trkpt lat="36.9007880" lon="-4.3513550">
        <ele>624.9</ele>
        <time>2018-03-28T10:32:24Z</time>
      </trkpt>
      <trkpt lat="36.9007900" lon="-4.3513200">
        <ele>625.9</ele>
        <time>2018-03-28T10:32:25Z</time>
      </trkpt>
      <trkpt lat="36.9007900" lon="-4.3513200">
        <ele>625.9</ele>
        <time>2018-03-28T10:32:26Z</time>
      </trkpt>
      <trkpt lat="36.9007950" lon="-4.3512520">
        <ele>625.9</ele>
        <time>2018-03-28T10:32:27Z</time>
      </trkpt>
      <trkpt lat="36.9007950" lon="-4.3512520">
        <ele>625.9</ele>
        <time>2018-03-28T10:32:28Z</time>
      </trkpt>
      <trkpt lat="36.9008000" lon="-4.3511830">
        <ele>625.9</ele>
        <time>2018-03-28T10:32:29Z</time>
      </trkpt>
      <trkpt lat="36.9008000" lon="-4.3511830">
        <ele>625.9</ele>
        <time>2018-03-28T10:32:30Z</time>
      </trkpt>
      <trkpt lat="36.9008070" lon="-4.3511180">
        <ele>626.9</ele>
        <time>2018-03-28T10:32:31Z</time>
      </trkpt>
      <trkpt lat="36.9008070" lon="-4.3511180">
        <ele>626.9</ele>
        <time>2018-03-28T10:32:32Z</time>
      </trkpt>
      <trkpt lat="36.9008070" lon="-4.3510520">
        <ele>626.9</ele>
        <time>2018-03-28T10:32:33Z</time>
      </trkpt>
      <trkpt lat="36.9008050" lon="-4.3510150">
        <ele>626.9</ele>
        <time>2018-03-28T10:32:34Z</time>
      </trkpt>
      <trkpt lat="36.9008050" lon="-4.3510150">
        <ele>627.9</ele>
        <time>2018-03-28T10:32:35Z</time>
      </trkpt>
      <trkpt lat="36.9008080" lon="-4.3509520">
        <ele>627.9</ele>
        <time>2018-03-28T10:32:36Z</time>
      </trkpt>
      <trkpt lat="36.9008100" lon="-4.3509200">
        <ele>627.9</ele>
        <time>2018-03-28T10:32:37Z</time>
      </trkpt>
      <trkpt lat="36.9008100" lon="-4.3509200">
        <ele>627.9</ele>
        <time>2018-03-28T10:32:38Z</time>
      </trkpt>
      <trkpt lat="36.9008130" lon="-4.3508550">
        <ele>628.9</ele>
        <time>2018-03-28T10:32:39Z</time>
      </trkpt>
      <trkpt lat="36.9008150" lon="-4.3508250">
        <ele>628.9</ele>
        <time>2018-03-28T10:32:40Z</time>
      </trkpt>
      <trkpt lat="36.9008170" lon="-4.3507950">
        <ele>628.9</ele>
        <time>2018-03-28T10:32:41Z</time>
      </trkpt>
      <trkpt lat="36.9008170" lon="-4.3507650">
        <ele>628.9</ele>
        <time>2018-03-28T10:32:42Z</time>
      </trkpt>
      <trkpt lat="36.9008170" lon="-4.3507650">
        <ele>628.9</ele>
        <time>2018-03-28T10:32:43Z</time>
      </trkpt>
      <trkpt lat="36.9008120" lon="-4.3507030">
        <ele>629.9</ele>
        <time>2018-03-28T10:32:44Z</time>
      </trkpt>
      <trkpt lat="36.9008080" lon="-4.3506700">
        <ele>629.9</ele>
        <time>2018-03-28T10:32:45Z</time>
      </trkpt>
      <trkpt lat="36.9008050" lon="-4.3506370">
        <ele>629.9</ele>
        <time>2018-03-28T10:32:46Z</time>
      </trkpt>
      <trkpt lat="36.9008050" lon="-4.3506370">
        <ele>630.9</ele>
        <time>2018-03-28T10:32:47Z</time>
      </trkpt>
      <trkpt lat="36.9008000" lon="-4.3505730">
        <ele>630.9</ele>
        <time>2018-03-28T10:32:48Z</time>
      </trkpt>
      <trkpt lat="36.9008000" lon="-4.3505730">
        <ele>630.9</ele>
        <time>2018-03-28T10:32:49Z</time>
      </trkpt>
      <trkpt lat="36.9007950" lon="-4.3505100">
        <ele>630.9</ele>
        <time>2018-03-28T10:32:50Z</time>
      </trkpt>
      <trkpt lat="36.9007950" lon="-4.3505100">
        <ele>631.9</ele>
        <time>2018-03-28T10:32:51Z</time>
      </trkpt>
      <trkpt lat="36.9007820" lon="-4.3504530">
        <ele>631.9</ele>
        <time>2018-03-28T10:32:52Z</time>
      </trkpt>
      <trkpt lat="36.9007820" lon="-4.3504530">
        <ele>631.9</ele>
        <time>2018-03-28T10:32:53Z</time>
      </trkpt>
      <trkpt lat="36.9007700" lon="-4.3503900">
        <ele>631.9</ele>
        <time>2018-03-28T10:32:54Z</time>
      </trkpt>
      <trkpt lat="36.9007630" lon="-4.3503600">
        <ele>632.9</ele>
        <time>2018-03-28T10:32:55Z</time>
      </trkpt>
      <trkpt lat="36.9007630" lon="-4.3503600">
        <ele>632.9</ele>
        <time>2018-03-28T10:32:56Z</time>
      </trkpt>
      <trkpt lat="36.9007450" lon="-4.3502980">
        <ele>632.9</ele>
        <time>2018-03-28T10:32:57Z</time>
      </trkpt>
      <trkpt lat="36.9007350" lon="-4.3502670">
        <ele>632.9</ele>
        <time>2018-03-28T10:32:58Z</time>
      </trkpt>
      <trkpt lat="36.9007290" lon="-4.3502360">
        <ele>633.9</ele>
        <time>2018-03-28T10:32:59Z</time>
      </trkpt>
      <trkpt lat="36.9007230" lon="-4.3502050">
        <ele>633.9</ele>
        <time>2018-03-28T10:33:00Z</time>
      </trkpt>
      <trkpt lat="36.9007170" lon="-4.3501770">
        <ele>633.9</ele>
        <time>2018-03-28T10:33:01Z</time>
      </trkpt>
      <trkpt lat="36.9007170" lon="-4.3501770">
        <ele>633.9</ele>
        <time>2018-03-28T10:33:02Z</time>
      </trkpt>
      <trkpt lat="36.9007000" lon="-4.3501200">
        <ele>634.9</ele>
        <time>2018-03-28T10:33:03Z</time>
      </trkpt>
      <trkpt lat="36.9006920" lon="-4.3500920">
        <ele>634.9</ele>
        <time>2018-03-28T10:33:04Z</time>
      </trkpt>
      <trkpt lat="36.9006920" lon="-4.3500920">
        <ele>634.9</ele>
        <time>2018-03-28T10:33:05Z</time>
      </trkpt>
      <trkpt lat="36.9006660" lon="-4.3500200">
        <ele>634.9</ele>
        <time>2018-03-28T10:33:06Z</time>
      </trkpt>
      <trkpt lat="36.9006600" lon="-4.3500050">
        <ele>634.9</ele>
        <time>2018-03-28T10:33:07Z</time>
      </trkpt>
      <trkpt lat="36.9006600" lon="-4.3500050">
        <ele>635.9</ele>
        <time>2018-03-28T10:33:08Z</time>
      </trkpt>
      <trkpt lat="36.9006330" lon="-4.3499500">
        <ele>635.9</ele>
        <time>2018-03-28T10:33:09Z</time>
      </trkpt>
      <trkpt lat="36.9006180" lon="-4.3499230">
        <ele>635.9</ele>
        <time>2018-03-28T10:33:10Z</time>
      </trkpt>
      <trkpt lat="36.9006180" lon="-4.3499230">
        <ele>635.9</ele>
        <time>2018-03-28T10:33:11Z</time>
      </trkpt>
      <trkpt lat="36.9005950" lon="-4.3498670">
        <ele>635.9</ele>
        <time>2018-03-28T10:33:12Z</time>
      </trkpt>
      <trkpt lat="36.9005950" lon="-4.3498670">
        <ele>635.9</ele>
        <time>2018-03-28T10:33:13Z</time>
      </trkpt>
      <trkpt lat="36.9005620" lon="-4.3498050">
        <ele>635.9</ele>
        <time>2018-03-28T10:33:14Z</time>
      </trkpt>
      <trkpt lat="36.9005620" lon="-4.3498050">
        <ele>635.9</ele>
        <time>2018-03-28T10:33:15Z</time>
      </trkpt>
      <trkpt lat="36.9005280" lon="-4.3497470">
        <ele>635.9</ele>
        <time>2018-03-28T10:33:16Z</time>
      </trkpt>
      <trkpt lat="36.9005280" lon="-4.3497470">
        <ele>635.9</ele>
        <time>2018-03-28T10:33:17Z</time>
      </trkpt>
      <trkpt lat="36.9004970" lon="-4.3496930">
        <ele>635.9</ele>
        <time>2018-03-28T10:33:18Z</time>
      </trkpt>
      <trkpt lat="36.9004800" lon="-4.3496670">
        <ele>635.9</ele>
        <time>2018-03-28T10:33:19Z</time>
      </trkpt>
      <trkpt lat="36.9004800" lon="-4.3496670">
        <ele>636.9</ele>
        <time>2018-03-28T10:33:20Z</time>
      </trkpt>
      <trkpt lat="36.9004520" lon="-4.3496120">
        <ele>636.9</ele>
        <time>2018-03-28T10:33:21Z</time>
      </trkpt>
      <trkpt lat="36.9004520" lon="-4.3496120">
        <ele>636.9</ele>
        <time>2018-03-28T10:33:22Z</time>
      </trkpt>
      <trkpt lat="36.9004250" lon="-4.3495550">
        <ele>636.9</ele>
        <time>2018-03-28T10:33:23Z</time>
      </trkpt>
      <trkpt lat="36.9004250" lon="-4.3495550">
        <ele>636.9</ele>
        <time>2018-03-28T10:33:24Z</time>
      </trkpt>
      <trkpt lat="36.9004020" lon="-4.3494950">
        <ele>636.9</ele>
        <time>2018-03-28T10:33:25Z</time>
      </trkpt>
      <trkpt lat="36.9004020" lon="-4.3494950">
        <ele>637.9</ele>
        <time>2018-03-28T10:33:26Z</time>
      </trkpt>
      <trkpt lat="36.9003730" lon="-4.3494350">
        <ele>637.9</ele>
        <time>2018-03-28T10:33:27Z</time>
      </trkpt>
      <trkpt lat="36.9003650" lon="-4.3494030">
        <ele>637.9</ele>
        <time>2018-03-28T10:33:28Z</time>
      </trkpt>
      <trkpt lat="36.9003650" lon="-4.3494030">
        <ele>637.9</ele>
        <time>2018-03-28T10:33:29Z</time>
      </trkpt>
      <trkpt lat="36.9003470" lon="-4.3493370">
        <ele>638.9</ele>
        <time>2018-03-28T10:33:30Z</time>
      </trkpt>
      <trkpt lat="36.9003380" lon="-4.3493020">
        <ele>638.9</ele>
        <time>2018-03-28T10:33:31Z</time>
      </trkpt>
      <trkpt lat="36.9003380" lon="-4.3493020">
        <ele>638.9</ele>
        <time>2018-03-28T10:33:32Z</time>
      </trkpt>
      <trkpt lat="36.9003250" lon="-4.3492300">
        <ele>638.9</ele>
        <time>2018-03-28T10:33:33Z</time>
      </trkpt>
      <trkpt lat="36.9003250" lon="-4.3492300">
        <ele>638.9</ele>
        <time>2018-03-28T10:33:34Z</time>
      </trkpt>
      <trkpt lat="36.9003150" lon="-4.3491550">
        <ele>638.9</ele>
        <time>2018-03-28T10:33:35Z</time>
      </trkpt>
      <trkpt lat="36.9003100" lon="-4.3491170">
        <ele>638.9</ele>
        <time>2018-03-28T10:33:36Z</time>
      </trkpt>
      <trkpt lat="36.9003100" lon="-4.3491170">
        <ele>639.9</ele>
        <time>2018-03-28T10:33:37Z</time>
      </trkpt>
      <trkpt lat="36.9003100" lon="-4.3490370">
        <ele>639.9</ele>
        <time>2018-03-28T10:33:38Z</time>
      </trkpt>
      <trkpt lat="36.9003120" lon="-4.3489970">
        <ele>639.9</ele>
        <time>2018-03-28T10:33:39Z</time>
      </trkpt>
      <trkpt lat="36.9003120" lon="-4.3489970">
        <ele>639.9</ele>
        <time>2018-03-28T10:33:40Z</time>
      </trkpt>
      <trkpt lat="36.9003150" lon="-4.3489130">
        <ele>639.9</ele>
        <time>2018-03-28T10:33:41Z</time>
      </trkpt>
      <trkpt lat="36.9003200" lon="-4.3488750">
        <ele>639.9</ele>
        <time>2018-03-28T10:33:42Z</time>
      </trkpt>
      <trkpt lat="36.9003300" lon="-4.3488380">
        <ele>639.9</ele>
        <time>2018-03-28T10:33:43Z</time>
      </trkpt>
      <trkpt lat="36.9003300" lon="-4.3488380">
        <ele>639.9</ele>
        <time>2018-03-28T10:33:44Z</time>
      </trkpt>
      <trkpt lat="36.9003530" lon="-4.3487620">
        <ele>640.9</ele>
        <time>2018-03-28T10:33:45Z</time>
      </trkpt>
      <trkpt lat="36.9003630" lon="-4.3487220">
        <ele>640.9</ele>
        <time>2018-03-28T10:33:46Z</time>
      </trkpt>
      <trkpt lat="36.9003630" lon="-4.3487220">
        <ele>640.9</ele>
        <time>2018-03-28T10:33:47Z</time>
      </trkpt>
      <trkpt lat="36.9003820" lon="-4.3486400">
        <ele>640.9</ele>
        <time>2018-03-28T10:33:48Z</time>
      </trkpt>
      <trkpt lat="36.9003980" lon="-4.3486030">
        <ele>640.9</ele>
        <time>2018-03-28T10:33:49Z</time>
      </trkpt>
      <trkpt lat="36.9003980" lon="-4.3486030">
        <ele>640.9</ele>
        <time>2018-03-28T10:33:50Z</time>
      </trkpt>
      <trkpt lat="36.9004350" lon="-4.3485280">
        <ele>640.9</ele>
        <time>2018-03-28T10:33:51Z</time>
      </trkpt>
      <trkpt lat="36.9004550" lon="-4.3484930">
        <ele>640.9</ele>
        <time>2018-03-28T10:33:52Z</time>
      </trkpt>
      <trkpt lat="36.9004550" lon="-4.3484930">
        <ele>641.9</ele>
        <time>2018-03-28T10:33:53Z</time>
      </trkpt>
      <trkpt lat="36.9004920" lon="-4.3484180">
        <ele>641.9</ele>
        <time>2018-03-28T10:33:54Z</time>
      </trkpt>
      <trkpt lat="36.9005120" lon="-4.3483820">
        <ele>641.9</ele>
        <time>2018-03-28T10:33:55Z</time>
      </trkpt>
      <trkpt lat="36.9005120" lon="-4.3483820">
        <ele>641.9</ele>
        <time>2018-03-28T10:33:56Z</time>
      </trkpt>
      <trkpt lat="36.9005520" lon="-4.3483080">
        <ele>641.9</ele>
        <time>2018-03-28T10:33:57Z</time>
      </trkpt>
      <trkpt lat="36.9005520" lon="-4.3483080">
        <ele>641.9</ele>
        <time>2018-03-28T10:33:58Z</time>
      </trkpt>
      <trkpt lat="36.9005930" lon="-4.3482430">
        <ele>641.9</ele>
        <time>2018-03-28T10:33:59Z</time>
      </trkpt>
      <trkpt lat="36.9006150" lon="-4.3482100">
        <ele>641.9</ele>
        <time>2018-03-28T10:34:00Z</time>
      </trkpt>
      <trkpt lat="36.9006150" lon="-4.3482100">
        <ele>641.9</ele>
        <time>2018-03-28T10:34:01Z</time>
      </trkpt>
      <trkpt lat="36.9006530" lon="-4.3481420">
        <ele>641.9</ele>
        <time>2018-03-28T10:34:02Z</time>
      </trkpt>
      <trkpt lat="36.9006530" lon="-4.3481420">
        <ele>641.9</ele>
        <time>2018-03-28T10:34:03Z</time>
      </trkpt>
      <trkpt lat="36.9006970" lon="-4.3480730">
        <ele>641.9</ele>
        <time>2018-03-28T10:34:04Z</time>
      </trkpt>
      <trkpt lat="36.9006970" lon="-4.3480730">
        <ele>641.9</ele>
        <time>2018-03-28T10:34:05Z</time>
      </trkpt>
      <trkpt lat="36.9007440" lon="-4.3479900">
        <ele>641.9</ele>
        <time>2018-03-28T10:34:06Z</time>
      </trkpt>
      <trkpt lat="36.9007520" lon="-4.3479720">
        <ele>641.9</ele>
        <time>2018-03-28T10:34:07Z</time>
      </trkpt>
      <trkpt lat="36.9007520" lon="-4.3479720">
        <ele>642.9</ele>
        <time>2018-03-28T10:34:08Z</time>
      </trkpt>
      <trkpt lat="36.9007870" lon="-4.3479020">
        <ele>642.9</ele>
        <time>2018-03-28T10:34:09Z</time>
      </trkpt>
      <trkpt lat="36.9008070" lon="-4.3478680">
        <ele>642.9</ele>
        <time>2018-03-28T10:34:10Z</time>
      </trkpt>
      <trkpt lat="36.9008070" lon="-4.3478680">
        <ele>642.9</ele>
        <time>2018-03-28T10:34:11Z</time>
      </trkpt>
      <trkpt lat="36.9008480" lon="-4.3478050">
        <ele>642.9</ele>
        <time>2018-03-28T10:34:12Z</time>
      </trkpt>
      <trkpt lat="36.9008700" lon="-4.3477730">
        <ele>643.9</ele>
        <time>2018-03-28T10:34:13Z</time>
      </trkpt>
      <trkpt lat="36.9008700" lon="-4.3477730">
        <ele>643.9</ele>
        <time>2018-03-28T10:34:14Z</time>
      </trkpt>
      <trkpt lat="36.9009170" lon="-4.3477130">
        <ele>643.9</ele>
        <time>2018-03-28T10:34:15Z</time>
      </trkpt>
      <trkpt lat="36.9009170" lon="-4.3477130">
        <ele>643.9</ele>
        <time>2018-03-28T10:34:16Z</time>
      </trkpt>
      <trkpt lat="36.9009670" lon="-4.3476600">
        <ele>644.9</ele>
        <time>2018-03-28T10:34:17Z</time>
      </trkpt>
      <trkpt lat="36.9009930" lon="-4.3476360">
        <ele>644.9</ele>
        <time>2018-03-28T10:34:18Z</time>
      </trkpt>
      <trkpt lat="36.9010180" lon="-4.3476120">
        <ele>644.9</ele>
        <time>2018-03-28T10:34:19Z</time>
      </trkpt>
      <trkpt lat="36.9010180" lon="-4.3476120">
        <ele>644.9</ele>
        <time>2018-03-28T10:34:20Z</time>
      </trkpt>
      <trkpt lat="36.9010720" lon="-4.3475680">
        <ele>645.9</ele>
        <time>2018-03-28T10:34:21Z</time>
      </trkpt>
      <trkpt lat="36.9010980" lon="-4.3475470">
        <ele>645.9</ele>
        <time>2018-03-28T10:34:22Z</time>
      </trkpt>
      <trkpt lat="36.9010980" lon="-4.3475470">
        <ele>645.9</ele>
        <time>2018-03-28T10:34:23Z</time>
      </trkpt>
      <trkpt lat="36.9011500" lon="-4.3475020">
        <ele>645.9</ele>
        <time>2018-03-28T10:34:24Z</time>
      </trkpt>
      <trkpt lat="36.9011770" lon="-4.3474830">
        <ele>645.9</ele>
        <time>2018-03-28T10:34:25Z</time>
      </trkpt>
      <trkpt lat="36.9011770" lon="-4.3474830">
        <ele>645.9</ele>
        <time>2018-03-28T10:34:26Z</time>
      </trkpt>
      <trkpt lat="36.9012350" lon="-4.3474430">
        <ele>646.9</ele>
        <time>2018-03-28T10:34:27Z</time>
      </trkpt>
      <trkpt lat="36.9012350" lon="-4.3474430">
        <ele>646.9</ele>
        <time>2018-03-28T10:34:28Z</time>
      </trkpt>
      <trkpt lat="36.9012880" lon="-4.3474070">
        <ele>646.9</ele>
        <time>2018-03-28T10:34:29Z</time>
      </trkpt>
      <trkpt lat="36.9012880" lon="-4.3474070">
        <ele>646.9</ele>
        <time>2018-03-28T10:34:30Z</time>
      </trkpt>
      <trkpt lat="36.9013400" lon="-4.3473720">
        <ele>646.9</ele>
        <time>2018-03-28T10:34:31Z</time>
      </trkpt>
      <trkpt lat="36.9013400" lon="-4.3473720">
        <ele>646.9</ele>
        <time>2018-03-28T10:34:32Z</time>
      </trkpt>
      <trkpt lat="36.9014090" lon="-4.3473430">
        <ele>646.9</ele>
        <time>2018-03-28T10:34:33Z</time>
      </trkpt>
      <trkpt lat="36.9014220" lon="-4.3473370">
        <ele>646.9</ele>
        <time>2018-03-28T10:34:34Z</time>
      </trkpt>
      <trkpt lat="36.9014220" lon="-4.3473370">
        <ele>648.9</ele>
        <time>2018-03-28T10:34:35Z</time>
      </trkpt>
      <trkpt lat="36.9014750" lon="-4.3473150">
        <ele>648.9</ele>
        <time>2018-03-28T10:34:36Z</time>
      </trkpt>
      <trkpt lat="36.9015030" lon="-4.3473100">
        <ele>648.9</ele>
        <time>2018-03-28T10:34:37Z</time>
      </trkpt>
      <trkpt lat="36.9015030" lon="-4.3473100">
        <ele>648.9</ele>
        <time>2018-03-28T10:34:38Z</time>
      </trkpt>
      <trkpt lat="36.9015620" lon="-4.3473020">
        <ele>648.9</ele>
        <time>2018-03-28T10:34:39Z</time>
      </trkpt>
      <trkpt lat="36.9015900" lon="-4.3472980">
        <ele>648.9</ele>
        <time>2018-03-28T10:34:40Z</time>
      </trkpt>
      <trkpt lat="36.9015900" lon="-4.3472980">
        <ele>648.9</ele>
        <time>2018-03-28T10:34:41Z</time>
      </trkpt>
      <trkpt lat="36.9016450" lon="-4.3472880">
        <ele>648.9</ele>
        <time>2018-03-28T10:34:42Z</time>
      </trkpt>
      <trkpt lat="36.9016720" lon="-4.3472870">
        <ele>648.9</ele>
        <time>2018-03-28T10:34:43Z</time>
      </trkpt>
      <trkpt lat="36.9016720" lon="-4.3472870">
        <ele>648.9</ele>
        <time>2018-03-28T10:34:44Z</time>
      </trkpt>
      <trkpt lat="36.9017250" lon="-4.3472920">
        <ele>648.9</ele>
        <time>2018-03-28T10:34:45Z</time>
      </trkpt>
      <trkpt lat="36.9017520" lon="-4.3472920">
        <ele>648.9</ele>
        <time>2018-03-28T10:34:46Z</time>
      </trkpt>
      <trkpt lat="36.9017520" lon="-4.3472920">
        <ele>649.9</ele>
        <time>2018-03-28T10:34:47Z</time>
      </trkpt>
      <trkpt lat="36.9018070" lon="-4.3472880">
        <ele>649.9</ele>
        <time>2018-03-28T10:34:48Z</time>
      </trkpt>
      <trkpt lat="36.9018370" lon="-4.3472870">
        <ele>649.9</ele>
        <time>2018-03-28T10:34:49Z</time>
      </trkpt>
      <trkpt lat="36.9018370" lon="-4.3472870">
        <ele>649.9</ele>
        <time>2018-03-28T10:34:50Z</time>
      </trkpt>
      <trkpt lat="36.9018980" lon="-4.3472850">
        <ele>649.9</ele>
        <time>2018-03-28T10:34:51Z</time>
      </trkpt>
      <trkpt lat="36.9019280" lon="-4.3472830">
        <ele>649.9</ele>
        <time>2018-03-28T10:34:52Z</time>
      </trkpt>
      <trkpt lat="36.9019280" lon="-4.3472830">
        <ele>650.9</ele>
        <time>2018-03-28T10:34:53Z</time>
      </trkpt>
      <trkpt lat="36.9019880" lon="-4.3472770">
        <ele>650.9</ele>
        <time>2018-03-28T10:34:54Z</time>
      </trkpt>
      <trkpt lat="36.9020170" lon="-4.3472700">
        <ele>650.9</ele>
        <time>2018-03-28T10:34:55Z</time>
      </trkpt>
      <trkpt lat="36.9020170" lon="-4.3472700">
        <ele>650.9</ele>
        <time>2018-03-28T10:34:56Z</time>
      </trkpt>
      <trkpt lat="36.9020730" lon="-4.3472480">
        <ele>650.9</ele>
        <time>2018-03-28T10:34:57Z</time>
      </trkpt>
      <trkpt lat="36.9020730" lon="-4.3472480">
        <ele>650.9</ele>
        <time>2018-03-28T10:34:58Z</time>
      </trkpt>
      <trkpt lat="36.9021250" lon="-4.3472220">
        <ele>651.9</ele>
        <time>2018-03-28T10:34:59Z</time>
      </trkpt>
      <trkpt lat="36.9021250" lon="-4.3472220">
        <ele>651.9</ele>
        <time>2018-03-28T10:35:00Z</time>
      </trkpt>
      <trkpt lat="36.9021730" lon="-4.3471830">
        <ele>651.9</ele>
        <time>2018-03-28T10:35:01Z</time>
      </trkpt>
      <trkpt lat="36.9021730" lon="-4.3471830">
        <ele>652.9</ele>
        <time>2018-03-28T10:35:02Z</time>
      </trkpt>
      <trkpt lat="36.9022250" lon="-4.3471470">
        <ele>652.9</ele>
        <time>2018-03-28T10:35:03Z</time>
      </trkpt>
      <trkpt lat="36.9022520" lon="-4.3471280">
        <ele>652.9</ele>
        <time>2018-03-28T10:35:04Z</time>
      </trkpt>
      <trkpt lat="36.9022520" lon="-4.3471280">
        <ele>652.9</ele>
        <time>2018-03-28T10:35:05Z</time>
      </trkpt>
      <trkpt lat="36.9022980" lon="-4.3470800">
        <ele>652.9</ele>
        <time>2018-03-28T10:35:06Z</time>
      </trkpt>
      <trkpt lat="36.9023200" lon="-4.3470530">
        <ele>652.9</ele>
        <time>2018-03-28T10:35:07Z</time>
      </trkpt>
      <trkpt lat="36.9023200" lon="-4.3470530">
        <ele>653.9</ele>
        <time>2018-03-28T10:35:08Z</time>
      </trkpt>
      <trkpt lat="36.9023630" lon="-4.3470000">
        <ele>653.9</ele>
        <time>2018-03-28T10:35:09Z</time>
      </trkpt>
      <trkpt lat="36.9023630" lon="-4.3470000">
        <ele>653.9</ele>
        <time>2018-03-28T10:35:10Z</time>
      </trkpt>
      <trkpt lat="36.9024070" lon="-4.3469450">
        <ele>653.9</ele>
        <time>2018-03-28T10:35:11Z</time>
      </trkpt>
      <trkpt lat="36.9024070" lon="-4.3469450">
        <ele>654.9</ele>
        <time>2018-03-28T10:35:12Z</time>
      </trkpt>
      <trkpt lat="36.9024470" lon="-4.3468920">
        <ele>654.9</ele>
        <time>2018-03-28T10:35:13Z</time>
      </trkpt>
      <trkpt lat="36.9024470" lon="-4.3468920">
        <ele>654.9</ele>
        <time>2018-03-28T10:35:14Z</time>
      </trkpt>
      <trkpt lat="36.9024820" lon="-4.3468350">
        <ele>654.9</ele>
        <time>2018-03-28T10:35:15Z</time>
      </trkpt>
      <trkpt lat="36.9024970" lon="-4.3468050">
        <ele>655.9</ele>
        <time>2018-03-28T10:35:16Z</time>
      </trkpt>
      <trkpt lat="36.9024970" lon="-4.3468050">
        <ele>655.9</ele>
        <time>2018-03-28T10:35:17Z</time>
      </trkpt>
      <trkpt lat="36.9025220" lon="-4.3467400">
        <ele>655.9</ele>
        <time>2018-03-28T10:35:18Z</time>
      </trkpt>
      <trkpt lat="36.9025320" lon="-4.3467050">
        <ele>655.9</ele>
        <time>2018-03-28T10:35:19Z</time>
      </trkpt>
      <trkpt lat="36.9025320" lon="-4.3467050">
        <ele>655.9</ele>
        <time>2018-03-28T10:35:20Z</time>
      </trkpt>
      <trkpt lat="36.9025550" lon="-4.3466370">
        <ele>655.9</ele>
        <time>2018-03-28T10:35:21Z</time>
      </trkpt>
      <trkpt lat="36.9025550" lon="-4.3466370">
        <ele>656.9</ele>
        <time>2018-03-28T10:35:22Z</time>
      </trkpt>
      <trkpt lat="36.9025770" lon="-4.3465670">
        <ele>656.9</ele>
        <time>2018-03-28T10:35:23Z</time>
      </trkpt>
      <trkpt lat="36.9025880" lon="-4.3465320">
        <ele>656.9</ele>
        <time>2018-03-28T10:35:24Z</time>
      </trkpt>
      <trkpt lat="36.9025980" lon="-4.3464970">
        <ele>656.9</ele>
        <time>2018-03-28T10:35:25Z</time>
      </trkpt>
      <trkpt lat="36.9025980" lon="-4.3464970">
        <ele>656.9</ele>
        <time>2018-03-28T10:35:26Z</time>
      </trkpt>
      <trkpt lat="36.9026200" lon="-4.3464250">
        <ele>656.9</ele>
        <time>2018-03-28T10:35:27Z</time>
      </trkpt>
      <trkpt lat="36.9026300" lon="-4.3463920">
        <ele>656.9</ele>
        <time>2018-03-28T10:35:28Z</time>
      </trkpt>
      <trkpt lat="36.9026300" lon="-4.3463920">
        <ele>656.9</ele>
        <time>2018-03-28T10:35:29Z</time>
      </trkpt>
      <trkpt lat="36.9026450" lon="-4.3463270">
        <ele>656.9</ele>
        <time>2018-03-28T10:35:30Z</time>
      </trkpt>
      <trkpt lat="36.9026450" lon="-4.3463270">
        <ele>657.9</ele>
        <time>2018-03-28T10:35:31Z</time>
      </trkpt>
      <trkpt lat="36.9026580" lon="-4.3462600">
        <ele>657.9</ele>
        <time>2018-03-28T10:35:32Z</time>
      </trkpt>
      <trkpt lat="36.9026670" lon="-4.3462280">
        <ele>657.9</ele>
        <time>2018-03-28T10:35:33Z</time>
      </trkpt>
      <trkpt lat="36.9026670" lon="-4.3462280">
        <ele>657.9</ele>
        <time>2018-03-28T10:35:34Z</time>
      </trkpt>
      <trkpt lat="36.9026850" lon="-4.3461670">
        <ele>657.9</ele>
        <time>2018-03-28T10:35:35Z</time>
      </trkpt>
      <trkpt lat="36.9026950" lon="-4.3461350">
        <ele>657.9</ele>
        <time>2018-03-28T10:35:36Z</time>
      </trkpt>
      <trkpt lat="36.9026950" lon="-4.3461350">
        <ele>657.9</ele>
        <time>2018-03-28T10:35:37Z</time>
      </trkpt>
      <trkpt lat="36.9027150" lon="-4.3460730">
        <ele>658.9</ele>
        <time>2018-03-28T10:35:38Z</time>
      </trkpt>
      <trkpt lat="36.9027220" lon="-4.3460430">
        <ele>658.9</ele>
        <time>2018-03-28T10:35:39Z</time>
      </trkpt>
      <trkpt lat="36.9027220" lon="-4.3460430">
        <ele>658.9</ele>
        <time>2018-03-28T10:35:40Z</time>
      </trkpt>
      <trkpt lat="36.9027320" lon="-4.3459820">
        <ele>658.9</ele>
        <time>2018-03-28T10:35:41Z</time>
      </trkpt>
      <trkpt lat="36.9027320" lon="-4.3459820">
        <ele>658.9</ele>
        <time>2018-03-28T10:35:42Z</time>
      </trkpt>
      <trkpt lat="36.9027380" lon="-4.3459150">
        <ele>658.9</ele>
        <time>2018-03-28T10:35:43Z</time>
      </trkpt>
      <trkpt lat="36.9027380" lon="-4.3459150">
        <ele>659.9</ele>
        <time>2018-03-28T10:35:44Z</time>
      </trkpt>
      <trkpt lat="36.9027480" lon="-4.3458500">
        <ele>659.9</ele>
        <time>2018-03-28T10:35:45Z</time>
      </trkpt>
      <trkpt lat="36.9027480" lon="-4.3458500">
        <ele>659.9</ele>
        <time>2018-03-28T10:35:46Z</time>
      </trkpt>
      <trkpt lat="36.9027600" lon="-4.3457870">
        <ele>659.9</ele>
        <time>2018-03-28T10:35:47Z</time>
      </trkpt>
      <trkpt lat="36.9027600" lon="-4.3457870">
        <ele>659.9</ele>
        <time>2018-03-28T10:35:48Z</time>
      </trkpt>
      <trkpt lat="36.9027750" lon="-4.3457220">
        <ele>659.9</ele>
        <time>2018-03-28T10:35:49Z</time>
      </trkpt>
      <trkpt lat="36.9027750" lon="-4.3457220">
        <ele>660.9</ele>
        <time>2018-03-28T10:35:50Z</time>
      </trkpt>
      <trkpt lat="36.9027900" lon="-4.3456620">
        <ele>660.9</ele>
        <time>2018-03-28T10:35:51Z</time>
      </trkpt>
      <trkpt lat="36.9027970" lon="-4.3456320">
        <ele>660.9</ele>
        <time>2018-03-28T10:35:52Z</time>
      </trkpt>
      <trkpt lat="36.9028030" lon="-4.3456000">
        <ele>660.9</ele>
        <time>2018-03-28T10:35:53Z</time>
      </trkpt>
      <trkpt lat="36.9028030" lon="-4.3456000">
        <ele>661.9</ele>
        <time>2018-03-28T10:35:54Z</time>
      </trkpt>
      <trkpt lat="36.9028170" lon="-4.3455350">
        <ele>661.9</ele>
        <time>2018-03-28T10:35:55Z</time>
      </trkpt>
      <trkpt lat="36.9028170" lon="-4.3455350">
        <ele>661.9</ele>
        <time>2018-03-28T10:35:56Z</time>
      </trkpt>
      <trkpt lat="36.9028270" lon="-4.3454680">
        <ele>661.9</ele>
        <time>2018-03-28T10:35:57Z</time>
      </trkpt>
      <trkpt lat="36.9028270" lon="-4.3454680">
        <ele>662.9</ele>
        <time>2018-03-28T10:35:58Z</time>
      </trkpt>
      <trkpt lat="36.9028320" lon="-4.3454050">
        <ele>662.9</ele>
        <time>2018-03-28T10:35:59Z</time>
      </trkpt>
      <trkpt lat="36.9028320" lon="-4.3454050">
        <ele>662.9</ele>
        <time>2018-03-28T10:36:00Z</time>
      </trkpt>
      <trkpt lat="36.9028280" lon="-4.3453400">
        <ele>662.9</ele>
        <time>2018-03-28T10:36:01Z</time>
      </trkpt>
      <trkpt lat="36.9028280" lon="-4.3453400">
        <ele>663.9</ele>
        <time>2018-03-28T10:36:02Z</time>
      </trkpt>
      <trkpt lat="36.9028370" lon="-4.3452800">
        <ele>663.9</ele>
        <time>2018-03-28T10:36:03Z</time>
      </trkpt>
      <trkpt lat="36.9028370" lon="-4.3452800">
        <ele>663.9</ele>
        <time>2018-03-28T10:36:04Z</time>
      </trkpt>
      <trkpt lat="36.9028430" lon="-4.3452200">
        <ele>664.9</ele>
        <time>2018-03-28T10:36:05Z</time>
      </trkpt>
      <trkpt lat="36.9028480" lon="-4.3451900">
        <ele>664.9</ele>
        <time>2018-03-28T10:36:06Z</time>
      </trkpt>
      <trkpt lat="36.9028570" lon="-4.3451600">
        <ele>664.9</ele>
        <time>2018-03-28T10:36:07Z</time>
      </trkpt>
      <trkpt lat="36.9028570" lon="-4.3451600">
        <ele>664.9</ele>
        <time>2018-03-28T10:36:08Z</time>
      </trkpt>
      <trkpt lat="36.9028650" lon="-4.3451050">
        <ele>665.9</ele>
        <time>2018-03-28T10:36:09Z</time>
      </trkpt>
      <trkpt lat="36.9028670" lon="-4.3450780">
        <ele>665.9</ele>
        <time>2018-03-28T10:36:10Z</time>
      </trkpt>
      <trkpt lat="36.9028670" lon="-4.3450780">
        <ele>665.9</ele>
        <time>2018-03-28T10:36:11Z</time>
      </trkpt>
      <trkpt lat="36.9028680" lon="-4.3450150">
        <ele>665.9</ele>
        <time>2018-03-28T10:36:12Z</time>
      </trkpt>
      <trkpt lat="36.9028680" lon="-4.3449850">
        <ele>666.9</ele>
        <time>2018-03-28T10:36:13Z</time>
      </trkpt>
      <trkpt lat="36.9028680" lon="-4.3449850">
        <ele>666.9</ele>
        <time>2018-03-28T10:36:14Z</time>
      </trkpt>
      <trkpt lat="36.9028670" lon="-4.3449230">
        <ele>666.9</ele>
        <time>2018-03-28T10:36:15Z</time>
      </trkpt>
      <trkpt lat="36.9028700" lon="-4.3448970">
        <ele>666.9</ele>
        <time>2018-03-28T10:36:16Z</time>
      </trkpt>
      <trkpt lat="36.9028700" lon="-4.3448970">
        <ele>667.9</ele>
        <time>2018-03-28T10:36:17Z</time>
      </trkpt>
      <trkpt lat="36.9028720" lon="-4.3448400">
        <ele>667.9</ele>
        <time>2018-03-28T10:36:18Z</time>
      </trkpt>
      <trkpt lat="36.9028730" lon="-4.3448020">
        <ele>667.9</ele>
        <time>2018-03-28T10:36:19Z</time>
      </trkpt>
      <trkpt lat="36.9028730" lon="-4.3448020">
        <ele>667.9</ele>
        <time>2018-03-28T10:36:20Z</time>
      </trkpt>
      <trkpt lat="36.9028650" lon="-4.3447380">
        <ele>668.9</ele>
        <time>2018-03-28T10:36:21Z</time>
      </trkpt>
      <trkpt lat="36.9028650" lon="-4.3447380">
        <ele>668.9</ele>
        <time>2018-03-28T10:36:22Z</time>
      </trkpt>
      <trkpt lat="36.9028650" lon="-4.3446800">
        <ele>668.9</ele>
        <time>2018-03-28T10:36:23Z</time>
      </trkpt>
      <trkpt lat="36.9028650" lon="-4.3446800">
        <ele>668.9</ele>
        <time>2018-03-28T10:36:24Z</time>
      </trkpt>
      <trkpt lat="36.9028700" lon="-4.3446300">
        <ele>668.9</ele>
        <time>2018-03-28T10:36:25Z</time>
      </trkpt>
      <trkpt lat="36.9028700" lon="-4.3446300">
        <ele>669.9</ele>
        <time>2018-03-28T10:36:26Z</time>
      </trkpt>
      <trkpt lat="36.9028770" lon="-4.3445800">
        <ele>669.9</ele>
        <time>2018-03-28T10:36:27Z</time>
      </trkpt>
      <trkpt lat="36.9028770" lon="-4.3445800">
        <ele>669.9</ele>
        <time>2018-03-28T10:36:28Z</time>
      </trkpt>
      <trkpt lat="36.9028830" lon="-4.3445300">
        <ele>669.9</ele>
        <time>2018-03-28T10:36:29Z</time>
      </trkpt>
      <trkpt lat="36.9028830" lon="-4.3445300">
        <ele>669.9</ele>
        <time>2018-03-28T10:36:30Z</time>
      </trkpt>
      <trkpt lat="36.9028870" lon="-4.3444730">
        <ele>669.9</ele>
        <time>2018-03-28T10:36:31Z</time>
      </trkpt>
      <trkpt lat="36.9028870" lon="-4.3444730">
        <ele>670.9</ele>
        <time>2018-03-28T10:36:32Z</time>
      </trkpt>
      <trkpt lat="36.9028850" lon="-4.3444170">
        <ele>670.9</ele>
        <time>2018-03-28T10:36:33Z</time>
      </trkpt>
      <trkpt lat="36.9028850" lon="-4.3444170">
        <ele>670.9</ele>
        <time>2018-03-28T10:36:34Z</time>
      </trkpt>
      <trkpt lat="36.9028770" lon="-4.3443550">
        <ele>670.9</ele>
        <time>2018-03-28T10:36:35Z</time>
      </trkpt>
      <trkpt lat="36.9028770" lon="-4.3443550">
        <ele>671.9</ele>
        <time>2018-03-28T10:36:36Z</time>
      </trkpt>
      <trkpt lat="36.9028720" lon="-4.3442930">
        <ele>671.9</ele>
        <time>2018-03-28T10:36:37Z</time>
      </trkpt>
      <trkpt lat="36.9028720" lon="-4.3442930">
        <ele>671.9</ele>
        <time>2018-03-28T10:36:38Z</time>
      </trkpt>
      <trkpt lat="36.9028770" lon="-4.3442300">
        <ele>671.9</ele>
        <time>2018-03-28T10:36:39Z</time>
      </trkpt>
      <trkpt lat="36.9028820" lon="-4.3442030">
        <ele>671.9</ele>
        <time>2018-03-28T10:36:40Z</time>
      </trkpt>
      <trkpt lat="36.9028820" lon="-4.3442030">
        <ele>671.9</ele>
        <time>2018-03-28T10:36:41Z</time>
      </trkpt>
      <trkpt lat="36.9028850" lon="-4.3441480">
        <ele>671.9</ele>
        <time>2018-03-28T10:36:42Z</time>
      </trkpt>
      <trkpt lat="36.9028850" lon="-4.3441200">
        <ele>671.9</ele>
        <time>2018-03-28T10:36:43Z</time>
      </trkpt>
      <trkpt lat="36.9028850" lon="-4.3441200">
        <ele>671.9</ele>
        <time>2018-03-28T10:36:44Z</time>
      </trkpt>
      <trkpt lat="36.9028870" lon="-4.3440600">
        <ele>671.9</ele>
        <time>2018-03-28T10:36:45Z</time>
      </trkpt>
      <trkpt lat="36.9028870" lon="-4.3440300">
        <ele>672.9</ele>
        <time>2018-03-28T10:36:46Z</time>
      </trkpt>
      <trkpt lat="36.9028850" lon="-4.3439980">
        <ele>672.9</ele>
        <time>2018-03-28T10:36:47Z</time>
      </trkpt>
      <trkpt lat="36.9028850" lon="-4.3439980">
        <ele>672.9</ele>
        <time>2018-03-28T10:36:48Z</time>
      </trkpt>
      <trkpt lat="36.9028860" lon="-4.3439210">
        <ele>672.9</ele>
        <time>2018-03-28T10:36:49Z</time>
      </trkpt>
      <trkpt lat="36.9028860" lon="-4.3439000">
        <ele>673.9</ele>
        <time>2018-03-28T10:36:50Z</time>
      </trkpt>
      <trkpt lat="36.9028870" lon="-4.3438780">
        <ele>673.9</ele>
        <time>2018-03-28T10:36:51Z</time>
      </trkpt>
      <trkpt lat="36.9028870" lon="-4.3438780">
        <ele>673.9</ele>
        <time>2018-03-28T10:36:52Z</time>
      </trkpt>
      <trkpt lat="36.9028870" lon="-4.3438250">
        <ele>673.9</ele>
        <time>2018-03-28T10:36:53Z</time>
      </trkpt>
      <trkpt lat="36.9028830" lon="-4.3437980">
        <ele>673.9</ele>
        <time>2018-03-28T10:36:54Z</time>
      </trkpt>
      <trkpt lat="36.9028890" lon="-4.3437730">
        <ele>673.9</ele>
        <time>2018-03-28T10:36:55Z</time>
      </trkpt>
      <trkpt lat="36.9028950" lon="-4.3437480">
        <ele>674.9</ele>
        <time>2018-03-28T10:36:56Z</time>
      </trkpt>
      <trkpt lat="36.9028950" lon="-4.3437480">
        <ele>674.9</ele>
        <time>2018-03-28T10:36:57Z</time>
      </trkpt>
      <trkpt lat="36.9028930" lon="-4.3436970">
        <ele>674.9</ele>
        <time>2018-03-28T10:36:58Z</time>
      </trkpt>
      <trkpt lat="36.9028900" lon="-4.3436730">
        <ele>674.9</ele>
        <time>2018-03-28T10:36:59Z</time>
      </trkpt>
      <trkpt lat="36.9028900" lon="-4.3436730">
        <ele>674.9</ele>
        <time>2018-03-28T10:37:00Z</time>
      </trkpt>
      <trkpt lat="36.9028820" lon="-4.3436150">
        <ele>675.9</ele>
        <time>2018-03-28T10:37:01Z</time>
      </trkpt>
      <trkpt lat="36.9028820" lon="-4.3436150">
        <ele>675.9</ele>
        <time>2018-03-28T10:37:02Z</time>
      </trkpt>
      <trkpt lat="36.9028720" lon="-4.3435570">
        <ele>675.9</ele>
        <time>2018-03-28T10:37:03Z</time>
      </trkpt>
      <trkpt lat="36.9028670" lon="-4.3435320">
        <ele>675.9</ele>
        <time>2018-03-28T10:37:04Z</time>
      </trkpt>
      <trkpt lat="36.9028670" lon="-4.3435320">
        <ele>675.9</ele>
        <time>2018-03-28T10:37:05Z</time>
      </trkpt>
      <trkpt lat="36.9028600" lon="-4.3434780">
        <ele>675.9</ele>
        <time>2018-03-28T10:37:06Z</time>
      </trkpt>
      <trkpt lat="36.9028570" lon="-4.3434480">
        <ele>675.9</ele>
        <time>2018-03-28T10:37:07Z</time>
      </trkpt>
      <trkpt lat="36.9028570" lon="-4.3434480">
        <ele>675.9</ele>
        <time>2018-03-28T10:37:08Z</time>
      </trkpt>
      <trkpt lat="36.9028470" lon="-4.3433850">
        <ele>676.9</ele>
        <time>2018-03-28T10:37:09Z</time>
      </trkpt>
      <trkpt lat="36.9028450" lon="-4.3433550">
        <ele>676.9</ele>
        <time>2018-03-28T10:37:10Z</time>
      </trkpt>
      <trkpt lat="36.9028450" lon="-4.3433550">
        <ele>676.9</ele>
        <time>2018-03-28T10:37:11Z</time>
      </trkpt>
      <trkpt lat="36.9028350" lon="-4.3432950">
        <ele>676.9</ele>
        <time>2018-03-28T10:37:12Z</time>
      </trkpt>
      <trkpt lat="36.9028280" lon="-4.3432630">
        <ele>677.9</ele>
        <time>2018-03-28T10:37:13Z</time>
      </trkpt>
      <trkpt lat="36.9028280" lon="-4.3432630">
        <ele>677.9</ele>
        <time>2018-03-28T10:37:14Z</time>
      </trkpt>
      <trkpt lat="36.9028150" lon="-4.3431980">
        <ele>677.9</ele>
        <time>2018-03-28T10:37:15Z</time>
      </trkpt>
      <trkpt lat="36.9028100" lon="-4.3431670">
        <ele>677.9</ele>
        <time>2018-03-28T10:37:16Z</time>
      </trkpt>
      <trkpt lat="36.9028100" lon="-4.3431670">
        <ele>677.9</ele>
        <time>2018-03-28T10:37:17Z</time>
      </trkpt>
      <trkpt lat="36.9027970" lon="-4.3431050">
        <ele>677.9</ele>
        <time>2018-03-28T10:37:18Z</time>
      </trkpt>
      <trkpt lat="36.9027930" lon="-4.3430780">
        <ele>678.9</ele>
        <time>2018-03-28T10:37:19Z</time>
      </trkpt>
      <trkpt lat="36.9027930" lon="-4.3430780">
        <ele>678.9</ele>
        <time>2018-03-28T10:37:20Z</time>
      </trkpt>
      <trkpt lat="36.9027850" lon="-4.3430180">
        <ele>678.9</ele>
        <time>2018-03-28T10:37:21Z</time>
      </trkpt>
      <trkpt lat="36.9027850" lon="-4.3430180">
        <ele>678.9</ele>
        <time>2018-03-28T10:37:22Z</time>
      </trkpt>
      <trkpt lat="36.9027770" lon="-4.3429530">
        <ele>678.9</ele>
        <time>2018-03-28T10:37:23Z</time>
      </trkpt>
      <trkpt lat="36.9027770" lon="-4.3429530">
        <ele>678.9</ele>
        <time>2018-03-28T10:37:24Z</time>
      </trkpt>
      <trkpt lat="36.9027620" lon="-4.3428830">
        <ele>678.9</ele>
        <time>2018-03-28T10:37:25Z</time>
      </trkpt>
      <trkpt lat="36.9027620" lon="-4.3428830">
        <ele>678.9</ele>
        <time>2018-03-28T10:37:26Z</time>
      </trkpt>
      <trkpt lat="36.9027430" lon="-4.3428130">
        <ele>678.9</ele>
        <time>2018-03-28T10:37:27Z</time>
      </trkpt>
      <trkpt lat="36.9027430" lon="-4.3428130">
        <ele>679.9</ele>
        <time>2018-03-28T10:37:28Z</time>
      </trkpt>
      <trkpt lat="36.9027320" lon="-4.3427450">
        <ele>679.9</ele>
        <time>2018-03-28T10:37:29Z</time>
      </trkpt>
      <trkpt lat="36.9027320" lon="-4.3427450">
        <ele>679.9</ele>
        <time>2018-03-28T10:37:30Z</time>
      </trkpt>
      <trkpt lat="36.9027150" lon="-4.3426730">
        <ele>679.9</ele>
        <time>2018-03-28T10:37:31Z</time>
      </trkpt>
      <trkpt lat="36.9027150" lon="-4.3426730">
        <ele>680.9</ele>
        <time>2018-03-28T10:37:32Z</time>
      </trkpt>
      <trkpt lat="36.9027280" lon="-4.3425980">
        <ele>680.9</ele>
        <time>2018-03-28T10:37:33Z</time>
      </trkpt>
      <trkpt lat="36.9027280" lon="-4.3425980">
        <ele>680.9</ele>
        <time>2018-03-28T10:37:34Z</time>
      </trkpt>
      <trkpt lat="36.9027520" lon="-4.3425150">
        <ele>680.9</ele>
        <time>2018-03-28T10:37:35Z</time>
      </trkpt>
      <trkpt lat="36.9027500" lon="-4.3424730">
        <ele>680.9</ele>
        <time>2018-03-28T10:37:36Z</time>
      </trkpt>
      <trkpt lat="36.9027500" lon="-4.3424320">
        <ele>681.9</ele>
        <time>2018-03-28T10:37:37Z</time>
      </trkpt>
      <trkpt lat="36.9027500" lon="-4.3424320">
        <ele>681.9</ele>
        <time>2018-03-28T10:37:38Z</time>
      </trkpt>
      <trkpt lat="36.9027520" lon="-4.3423480">
        <ele>681.9</ele>
        <time>2018-03-28T10:37:39Z</time>
      </trkpt>
      <trkpt lat="36.9027570" lon="-4.3423030">
        <ele>681.9</ele>
        <time>2018-03-28T10:37:40Z</time>
      </trkpt>
      <trkpt lat="36.9027570" lon="-4.3423030">
        <ele>681.9</ele>
        <time>2018-03-28T10:37:41Z</time>
      </trkpt>
      <trkpt lat="36.9027430" lon="-4.3422220">
        <ele>681.9</ele>
        <time>2018-03-28T10:37:42Z</time>
      </trkpt>
      <trkpt lat="36.9027430" lon="-4.3422220">
        <ele>682.9</ele>
        <time>2018-03-28T10:37:43Z</time>
      </trkpt>
      <trkpt lat="36.9027500" lon="-4.3421430">
        <ele>682.9</ele>
        <time>2018-03-28T10:37:44Z</time>
      </trkpt>
      <trkpt lat="36.9027480" lon="-4.3421030">
        <ele>682.9</ele>
        <time>2018-03-28T10:37:45Z</time>
      </trkpt>
      <trkpt lat="36.9027480" lon="-4.3421030">
        <ele>682.9</ele>
        <time>2018-03-28T10:37:46Z</time>
      </trkpt>
      <trkpt lat="36.9027400" lon="-4.3420230">
        <ele>682.9</ele>
        <time>2018-03-28T10:37:47Z</time>
      </trkpt>
      <trkpt lat="36.9027400" lon="-4.3420230">
        <ele>682.9</ele>
        <time>2018-03-28T10:37:48Z</time>
      </trkpt>
      <trkpt lat="36.9027270" lon="-4.3419270">
        <ele>682.9</ele>
        <time>2018-03-28T10:37:49Z</time>
      </trkpt>
      <trkpt lat="36.9027080" lon="-4.3418820">
        <ele>682.9</ele>
        <time>2018-03-28T10:37:50Z</time>
      </trkpt>
      <trkpt lat="36.9027080" lon="-4.3418820">
        <ele>682.9</ele>
        <time>2018-03-28T10:37:51Z</time>
      </trkpt>
      <trkpt lat="36.9025830" lon="-4.3418550">
        <ele>682.9</ele>
        <time>2018-03-28T10:37:52Z</time>
      </trkpt>
      <trkpt lat="36.9025270" lon="-4.3418700">
        <ele>682.9</ele>
        <time>2018-03-28T10:37:53Z</time>
      </trkpt>
      <trkpt lat="36.9025270" lon="-4.3418700">
        <ele>682.9</ele>
        <time>2018-03-28T10:37:54Z</time>
      </trkpt>
      <trkpt lat="36.9023980" lon="-4.3419320">
        <ele>680.9</ele>
        <time>2018-03-28T10:37:55Z</time>
      </trkpt>
      <trkpt lat="36.9023980" lon="-4.3419320">
        <ele>680.9</ele>
        <time>2018-03-28T10:37:56Z</time>
      </trkpt>
      <trkpt lat="36.9022630" lon="-4.3420130">
        <ele>680.9</ele>
        <time>2018-03-28T10:37:57Z</time>
      </trkpt>
      <trkpt lat="36.9022630" lon="-4.3420130">
        <ele>680.9</ele>
        <time>2018-03-28T10:37:58Z</time>
      </trkpt>
      <trkpt lat="36.9021320" lon="-4.3421050">
        <ele>680.9</ele>
        <time>2018-03-28T10:37:59Z</time>
      </trkpt>
      <trkpt lat="36.9020670" lon="-4.3421570">
        <ele>680.9</ele>
        <time>2018-03-28T10:38:00Z</time>
      </trkpt>
      <trkpt lat="36.9020670" lon="-4.3421570">
        <ele>679.9</ele>
        <time>2018-03-28T10:38:01Z</time>
      </trkpt>
      <trkpt lat="36.9019370" lon="-4.3422630">
        <ele>679.9</ele>
        <time>2018-03-28T10:38:02Z</time>
      </trkpt>
      <trkpt lat="36.9018730" lon="-4.3423180">
        <ele>679.9</ele>
        <time>2018-03-28T10:38:03Z</time>
      </trkpt>
      <trkpt lat="36.9018730" lon="-4.3423180">
        <ele>678.9</ele>
        <time>2018-03-28T10:38:04Z</time>
      </trkpt>
      <trkpt lat="36.9017430" lon="-4.3424250">
        <ele>678.9</ele>
        <time>2018-03-28T10:38:05Z</time>
      </trkpt>
      <trkpt lat="36.9016770" lon="-4.3424780">
        <ele>678.9</ele>
        <time>2018-03-28T10:38:06Z</time>
      </trkpt>
      <trkpt lat="36.9016150" lon="-4.3425330">
        <ele>678.9</ele>
        <time>2018-03-28T10:38:07Z</time>
      </trkpt>
      <trkpt lat="36.9016150" lon="-4.3425330">
        <ele>677.9</ele>
        <time>2018-03-28T10:38:08Z</time>
      </trkpt>
      <trkpt lat="36.9014980" lon="-4.3426320">
        <ele>677.9</ele>
        <time>2018-03-28T10:38:09Z</time>
      </trkpt>
      <trkpt lat="36.9014980" lon="-4.3426320">
        <ele>677.9</ele>
        <time>2018-03-28T10:38:10Z</time>
      </trkpt>
      <trkpt lat="36.9013850" lon="-4.3427220">
        <ele>677.9</ele>
        <time>2018-03-28T10:38:11Z</time>
      </trkpt>
      <trkpt lat="36.9013320" lon="-4.3427700">
        <ele>677.9</ele>
        <time>2018-03-28T10:38:12Z</time>
      </trkpt>
      <trkpt lat="36.9012950" lon="-4.3428040">
        <ele>677.9</ele>
        <time>2018-03-28T10:38:13Z</time>
      </trkpt>
      <trkpt lat="36.9012580" lon="-4.3428370">
        <ele>677.9</ele>
        <time>2018-03-28T10:38:14Z</time>
      </trkpt>
      <trkpt lat="36.9011830" lon="-4.3429030">
        <ele>677.9</ele>
        <time>2018-03-28T10:38:15Z</time>
      </trkpt>
      <trkpt lat="36.9011830" lon="-4.3429030">
        <ele>677.9</ele>
        <time>2018-03-28T10:38:16Z</time>
      </trkpt>
      <trkpt lat="36.9010900" lon="-4.3429870">
        <ele>677.9</ele>
        <time>2018-03-28T10:38:17Z</time>
      </trkpt>
      <trkpt lat="36.9010900" lon="-4.3429870">
        <ele>677.9</ele>
        <time>2018-03-28T10:38:18Z</time>
      </trkpt>
      <trkpt lat="36.9010070" lon="-4.3430620">
        <ele>677.9</ele>
        <time>2018-03-28T10:38:19Z</time>
      </trkpt>
      <trkpt lat="36.9010070" lon="-4.3430620">
        <ele>677.9</ele>
        <time>2018-03-28T10:38:20Z</time>
      </trkpt>
      <trkpt lat="36.9009330" lon="-4.3431330">
        <ele>677.9</ele>
        <time>2018-03-28T10:38:21Z</time>
      </trkpt>
      <trkpt lat="36.9009330" lon="-4.3431330">
        <ele>677.9</ele>
        <time>2018-03-28T10:38:22Z</time>
      </trkpt>
      <trkpt lat="36.9008570" lon="-4.3431920">
        <ele>677.9</ele>
        <time>2018-03-28T10:38:23Z</time>
      </trkpt>
      <trkpt lat="36.9008570" lon="-4.3431920">
        <ele>677.9</ele>
        <time>2018-03-28T10:38:24Z</time>
      </trkpt>
      <trkpt lat="36.9007820" lon="-4.3432330">
        <ele>677.9</ele>
        <time>2018-03-28T10:38:25Z</time>
      </trkpt>
      <trkpt lat="36.9007820" lon="-4.3432330">
        <ele>678.9</ele>
        <time>2018-03-28T10:38:26Z</time>
      </trkpt>
      <trkpt lat="36.9007080" lon="-4.3432670">
        <ele>678.9</ele>
        <time>2018-03-28T10:38:27Z</time>
      </trkpt>
      <trkpt lat="36.9006730" lon="-4.3432770">
        <ele>678.9</ele>
        <time>2018-03-28T10:38:28Z</time>
      </trkpt>
      <trkpt lat="36.9006730" lon="-4.3432770">
        <ele>678.9</ele>
        <time>2018-03-28T10:38:29Z</time>
      </trkpt>
      <trkpt lat="36.9006050" lon="-4.3432930">
        <ele>678.9</ele>
        <time>2018-03-28T10:38:30Z</time>
      </trkpt>
      <trkpt lat="36.9005720" lon="-4.3432980">
        <ele>678.9</ele>
        <time>2018-03-28T10:38:31Z</time>
      </trkpt>
      <trkpt lat="36.9005720" lon="-4.3432980">
        <ele>679.9</ele>
        <time>2018-03-28T10:38:32Z</time>
      </trkpt>
      <trkpt lat="36.9005070" lon="-4.3433050">
        <ele>679.9</ele>
        <time>2018-03-28T10:38:33Z</time>
      </trkpt>
      <trkpt lat="36.9004750" lon="-4.3433070">
        <ele>679.9</ele>
        <time>2018-03-28T10:38:34Z</time>
      </trkpt>
      <trkpt lat="36.9004750" lon="-4.3433070">
        <ele>679.9</ele>
        <time>2018-03-28T10:38:35Z</time>
      </trkpt>
      <trkpt lat="36.9004120" lon="-4.3433030">
        <ele>679.9</ele>
        <time>2018-03-28T10:38:36Z</time>
      </trkpt>
      <trkpt lat="36.9003800" lon="-4.3433030">
        <ele>679.9</ele>
        <time>2018-03-28T10:38:37Z</time>
      </trkpt>
      <trkpt lat="36.9003800" lon="-4.3433030">
        <ele>679.9</ele>
        <time>2018-03-28T10:38:38Z</time>
      </trkpt>
      <trkpt lat="36.9003180" lon="-4.3433070">
        <ele>680.9</ele>
        <time>2018-03-28T10:38:39Z</time>
      </trkpt>
      <trkpt lat="36.9003180" lon="-4.3433070">
        <ele>680.9</ele>
        <time>2018-03-28T10:38:40Z</time>
      </trkpt>
      <trkpt lat="36.9002630" lon="-4.3432920">
        <ele>680.9</ele>
        <time>2018-03-28T10:38:41Z</time>
      </trkpt>
      <trkpt lat="36.9002630" lon="-4.3432920">
        <ele>680.9</ele>
        <time>2018-03-28T10:38:42Z</time>
      </trkpt>
      <trkpt lat="36.9002100" lon="-4.3432720">
        <ele>681.9</ele>
        <time>2018-03-28T10:38:43Z</time>
      </trkpt>
      <trkpt lat="36.9002100" lon="-4.3432720">
        <ele>681.9</ele>
        <time>2018-03-28T10:38:44Z</time>
      </trkpt>
      <trkpt lat="36.9001570" lon="-4.3432600">
        <ele>681.9</ele>
        <time>2018-03-28T10:38:45Z</time>
      </trkpt>
      <trkpt lat="36.9001330" lon="-4.3432570">
        <ele>681.9</ele>
        <time>2018-03-28T10:38:46Z</time>
      </trkpt>
      <trkpt lat="36.9001100" lon="-4.3432500">
        <ele>681.9</ele>
        <time>2018-03-28T10:38:47Z</time>
      </trkpt>
      <trkpt lat="36.9001100" lon="-4.3432500">
        <ele>681.9</ele>
        <time>2018-03-28T10:38:48Z</time>
      </trkpt>
      <trkpt lat="36.9000620" lon="-4.3432330">
        <ele>682.9</ele>
        <time>2018-03-28T10:38:49Z</time>
      </trkpt>
      <trkpt lat="36.9000380" lon="-4.3432280">
        <ele>682.9</ele>
        <time>2018-03-28T10:38:50Z</time>
      </trkpt>
      <trkpt lat="36.9000380" lon="-4.3432280">
        <ele>682.9</ele>
        <time>2018-03-28T10:38:51Z</time>
      </trkpt>
      <trkpt lat="36.8999870" lon="-4.3432200">
        <ele>683.9</ele>
        <time>2018-03-28T10:38:52Z</time>
      </trkpt>
      <trkpt lat="36.8999870" lon="-4.3432200">
        <ele>683.9</ele>
        <time>2018-03-28T10:38:53Z</time>
      </trkpt>
      <trkpt lat="36.8999380" lon="-4.3432270">
        <ele>683.9</ele>
        <time>2018-03-28T10:38:54Z</time>
      </trkpt>
      <trkpt lat="36.8999180" lon="-4.3432380">
        <ele>683.9</ele>
        <time>2018-03-28T10:38:55Z</time>
      </trkpt>
      <trkpt lat="36.8999180" lon="-4.3432380">
        <ele>684.9</ele>
        <time>2018-03-28T10:38:56Z</time>
      </trkpt>
      <trkpt lat="36.8998830" lon="-4.3432770">
        <ele>684.9</ele>
        <time>2018-03-28T10:38:57Z</time>
      </trkpt>
      <trkpt lat="36.8998730" lon="-4.3433030">
        <ele>684.9</ele>
        <time>2018-03-28T10:38:58Z</time>
      </trkpt>
      <trkpt lat="36.8998730" lon="-4.3433030">
        <ele>684.9</ele>
        <time>2018-03-28T10:38:59Z</time>
      </trkpt>
      <trkpt lat="36.8998730" lon="-4.3433600">
        <ele>685.9</ele>
        <time>2018-03-28T10:39:00Z</time>
      </trkpt>
      <trkpt lat="36.8998820" lon="-4.3433900">
        <ele>685.9</ele>
        <time>2018-03-28T10:39:01Z</time>
      </trkpt>
      <trkpt lat="36.8998970" lon="-4.3434220">
        <ele>685.9</ele>
        <time>2018-03-28T10:39:02Z</time>
      </trkpt>
      <trkpt lat="36.8999120" lon="-4.3434550">
        <ele>686.9</ele>
        <time>2018-03-28T10:39:03Z</time>
      </trkpt>
      <trkpt lat="36.8999120" lon="-4.3434550">
        <ele>686.9</ele>
        <time>2018-03-28T10:39:04Z</time>
      </trkpt>
      <trkpt lat="36.8999350" lon="-4.3435230">
        <ele>686.9</ele>
        <time>2018-03-28T10:39:05Z</time>
      </trkpt>
      <trkpt lat="36.8999350" lon="-4.3435230">
        <ele>686.9</ele>
        <time>2018-03-28T10:39:06Z</time>
      </trkpt>
      <trkpt lat="36.8999480" lon="-4.3436000">
        <ele>686.9</ele>
        <time>2018-03-28T10:39:07Z</time>
      </trkpt>
      <trkpt lat="36.8999520" lon="-4.3436380">
        <ele>686.9</ele>
        <time>2018-03-28T10:39:08Z</time>
      </trkpt>
      <trkpt lat="36.8999520" lon="-4.3436380">
        <ele>687.9</ele>
        <time>2018-03-28T10:39:09Z</time>
      </trkpt>
      <trkpt lat="36.8999470" lon="-4.3437180">
        <ele>687.9</ele>
        <time>2018-03-28T10:39:10Z</time>
      </trkpt>
      <trkpt lat="36.8999470" lon="-4.3437180">
        <ele>687.9</ele>
        <time>2018-03-28T10:39:11Z</time>
      </trkpt>
      <trkpt lat="36.8999250" lon="-4.3437930">
        <ele>687.9</ele>
        <time>2018-03-28T10:39:12Z</time>
      </trkpt>
      <trkpt lat="36.8999080" lon="-4.3438250">
        <ele>687.9</ele>
        <time>2018-03-28T10:39:13Z</time>
      </trkpt>
      <trkpt lat="36.8998830" lon="-4.3438470">
        <ele>688.9</ele>
        <time>2018-03-28T10:39:14Z</time>
      </trkpt>
      <trkpt lat="36.8998580" lon="-4.3438680">
        <ele>688.9</ele>
        <time>2018-03-28T10:39:15Z</time>
      </trkpt>
      <trkpt lat="36.8998330" lon="-4.3438900">
        <ele>688.9</ele>
        <time>2018-03-28T10:39:16Z</time>
      </trkpt>
      <trkpt lat="36.8998330" lon="-4.3438900">
        <ele>688.9</ele>
        <time>2018-03-28T10:39:17Z</time>
      </trkpt>
      <trkpt lat="36.8997730" lon="-4.3439100">
        <ele>689.9</ele>
        <time>2018-03-28T10:39:18Z</time>
      </trkpt>
      <trkpt lat="36.8997730" lon="-4.3439100">
        <ele>689.9</ele>
        <time>2018-03-28T10:39:19Z</time>
      </trkpt>
      <trkpt lat="36.8997100" lon="-4.3439170">
        <ele>689.9</ele>
        <time>2018-03-28T10:39:20Z</time>
      </trkpt>
      <trkpt lat="36.8996780" lon="-4.3439130">
        <ele>689.9</ele>
        <time>2018-03-28T10:39:21Z</time>
      </trkpt>
      <trkpt lat="36.8996780" lon="-4.3439130">
        <ele>689.9</ele>
        <time>2018-03-28T10:39:22Z</time>
      </trkpt>
      <trkpt lat="36.8996100" lon="-4.3439070">
        <ele>689.9</ele>
        <time>2018-03-28T10:39:23Z</time>
      </trkpt>
      <trkpt lat="36.8996100" lon="-4.3439070">
        <ele>690.9</ele>
        <time>2018-03-28T10:39:24Z</time>
      </trkpt>
      <trkpt lat="36.8995450" lon="-4.3439080">
        <ele>690.9</ele>
        <time>2018-03-28T10:39:25Z</time>
      </trkpt>
      <trkpt lat="36.8995450" lon="-4.3439080">
        <ele>690.9</ele>
        <time>2018-03-28T10:39:26Z</time>
      </trkpt>
      <trkpt lat="36.8994820" lon="-4.3439150">
        <ele>690.9</ele>
        <time>2018-03-28T10:39:27Z</time>
      </trkpt>
      <trkpt lat="36.8994520" lon="-4.3439270">
        <ele>690.9</ele>
        <time>2018-03-28T10:39:28Z</time>
      </trkpt>
      <trkpt lat="36.8994230" lon="-4.3439400">
        <ele>690.9</ele>
        <time>2018-03-28T10:39:29Z</time>
      </trkpt>
      <trkpt lat="36.8994230" lon="-4.3439400">
        <ele>690.9</ele>
        <time>2018-03-28T10:39:30Z</time>
      </trkpt>
      <trkpt lat="36.8993780" lon="-4.3439880">
        <ele>690.9</ele>
        <time>2018-03-28T10:39:31Z</time>
      </trkpt>
      <trkpt lat="36.8993780" lon="-4.3439880">
        <ele>691.9</ele>
        <time>2018-03-28T10:39:32Z</time>
      </trkpt>
      <trkpt lat="36.8993550" lon="-4.3440550">
        <ele>691.9</ele>
        <time>2018-03-28T10:39:33Z</time>
      </trkpt>
      <trkpt lat="36.8993550" lon="-4.3440550">
        <ele>691.9</ele>
        <time>2018-03-28T10:39:34Z</time>
      </trkpt>
      <trkpt lat="36.8993500" lon="-4.3441300">
        <ele>691.9</ele>
        <time>2018-03-28T10:39:35Z</time>
      </trkpt>
      <trkpt lat="36.8993500" lon="-4.3441300">
        <ele>691.9</ele>
        <time>2018-03-28T10:39:36Z</time>
      </trkpt>
      <trkpt lat="36.8993420" lon="-4.3442020">
        <ele>691.9</ele>
        <time>2018-03-28T10:39:37Z</time>
      </trkpt>
      <trkpt lat="36.8993420" lon="-4.3442020">
        <ele>693.9</ele>
        <time>2018-03-28T10:39:38Z</time>
      </trkpt>
      <trkpt lat="36.8993350" lon="-4.3442720">
        <ele>693.9</ele>
        <time>2018-03-28T10:39:39Z</time>
      </trkpt>
      <trkpt lat="36.8993290" lon="-4.3443080">
        <ele>693.9</ele>
        <time>2018-03-28T10:39:40Z</time>
      </trkpt>
      <trkpt lat="36.8993230" lon="-4.3443430">
        <ele>694.9</ele>
        <time>2018-03-28T10:39:41Z</time>
      </trkpt>
      <trkpt lat="36.8993180" lon="-4.3443800">
        <ele>694.9</ele>
        <time>2018-03-28T10:39:42Z</time>
      </trkpt>
      <trkpt lat="36.8993130" lon="-4.3444200">
        <ele>694.9</ele>
        <time>2018-03-28T10:39:43Z</time>
      </trkpt>
      <trkpt lat="36.8993130" lon="-4.3444200">
        <ele>694.9</ele>
        <time>2018-03-28T10:39:44Z</time>
      </trkpt>
      <trkpt lat="36.8992970" lon="-4.3444900">
        <ele>694.9</ele>
        <time>2018-03-28T10:39:45Z</time>
      </trkpt>
      <trkpt lat="36.8992880" lon="-4.3445230">
        <ele>694.9</ele>
        <time>2018-03-28T10:39:46Z</time>
      </trkpt>
      <trkpt lat="36.8992800" lon="-4.3445600">
        <ele>694.9</ele>
        <time>2018-03-28T10:39:47Z</time>
      </trkpt>
      <trkpt lat="36.8992800" lon="-4.3445600">
        <ele>694.9</ele>
        <time>2018-03-28T10:39:48Z</time>
      </trkpt>
      <trkpt lat="36.8992600" lon="-4.3446320">
        <ele>694.9</ele>
        <time>2018-03-28T10:39:49Z</time>
      </trkpt>
      <trkpt lat="36.8992600" lon="-4.3446320">
        <ele>695.9</ele>
        <time>2018-03-28T10:39:50Z</time>
      </trkpt>
      <trkpt lat="36.8992250" lon="-4.3446900">
        <ele>695.9</ele>
        <time>2018-03-28T10:39:51Z</time>
      </trkpt>
      <trkpt lat="36.8992070" lon="-4.3447170">
        <ele>695.9</ele>
        <time>2018-03-28T10:39:52Z</time>
      </trkpt>
      <trkpt lat="36.8992070" lon="-4.3447170">
        <ele>695.9</ele>
        <time>2018-03-28T10:39:53Z</time>
      </trkpt>
      <trkpt lat="36.8991620" lon="-4.3447620">
        <ele>695.9</ele>
        <time>2018-03-28T10:39:54Z</time>
      </trkpt>
      <trkpt lat="36.8991350" lon="-4.3447770">
        <ele>695.9</ele>
        <time>2018-03-28T10:39:55Z</time>
      </trkpt>
      <trkpt lat="36.8991350" lon="-4.3447770">
        <ele>696.9</ele>
        <time>2018-03-28T10:39:56Z</time>
      </trkpt>
      <trkpt lat="36.8990830" lon="-4.3448030">
        <ele>696.9</ele>
        <time>2018-03-28T10:39:57Z</time>
      </trkpt>
      <trkpt lat="36.8990830" lon="-4.3448030">
        <ele>696.9</ele>
        <time>2018-03-28T10:39:58Z</time>
      </trkpt>
      <trkpt lat="36.8990300" lon="-4.3448150">
        <ele>696.9</ele>
        <time>2018-03-28T10:39:59Z</time>
      </trkpt>
      <trkpt lat="36.8990300" lon="-4.3448150">
        <ele>696.9</ele>
        <time>2018-03-28T10:40:00Z</time>
      </trkpt>
      <trkpt lat="36.8989770" lon="-4.3448220">
        <ele>697.9</ele>
        <time>2018-03-28T10:40:01Z</time>
      </trkpt>
      <trkpt lat="36.8989770" lon="-4.3448220">
        <ele>697.9</ele>
        <time>2018-03-28T10:40:02Z</time>
      </trkpt>
      <trkpt lat="36.8989270" lon="-4.3448200">
        <ele>697.9</ele>
        <time>2018-03-28T10:40:03Z</time>
      </trkpt>
      <trkpt lat="36.8989000" lon="-4.3448100">
        <ele>697.9</ele>
        <time>2018-03-28T10:40:04Z</time>
      </trkpt>
      <trkpt lat="36.8989000" lon="-4.3448100">
        <ele>697.9</ele>
        <time>2018-03-28T10:40:05Z</time>
      </trkpt>
      <trkpt lat="36.8988430" lon="-4.3447800">
        <ele>697.9</ele>
        <time>2018-03-28T10:40:06Z</time>
      </trkpt>
      <trkpt lat="36.8988170" lon="-4.3447620">
        <ele>698.9</ele>
        <time>2018-03-28T10:40:07Z</time>
      </trkpt>
      <trkpt lat="36.8988170" lon="-4.3447620">
        <ele>698.9</ele>
        <time>2018-03-28T10:40:08Z</time>
      </trkpt>
      <trkpt lat="36.8987590" lon="-4.3447000">
        <ele>698.9</ele>
        <time>2018-03-28T10:40:09Z</time>
      </trkpt>
      <trkpt lat="36.8987480" lon="-4.3446850">
        <ele>698.9</ele>
        <time>2018-03-28T10:40:10Z</time>
      </trkpt>
      <trkpt lat="36.8987480" lon="-4.3446850">
        <ele>698.9</ele>
        <time>2018-03-28T10:40:11Z</time>
      </trkpt>
      <trkpt lat="36.8987170" lon="-4.3446180">
        <ele>698.9</ele>
        <time>2018-03-28T10:40:12Z</time>
      </trkpt>
      <trkpt lat="36.8987040" lon="-4.3445800">
        <ele>698.9</ele>
        <time>2018-03-28T10:40:13Z</time>
      </trkpt>
      <trkpt lat="36.8986900" lon="-4.3445420">
        <ele>699.9</ele>
        <time>2018-03-28T10:40:14Z</time>
      </trkpt>
      <trkpt lat="36.8986900" lon="-4.3445420">
        <ele>699.9</ele>
        <time>2018-03-28T10:40:15Z</time>
      </trkpt>
      <trkpt lat="36.8986680" lon="-4.3444620">
        <ele>699.9</ele>
        <time>2018-03-28T10:40:16Z</time>
      </trkpt>
      <trkpt lat="36.8986680" lon="-4.3444620">
        <ele>699.9</ele>
        <time>2018-03-28T10:40:17Z</time>
      </trkpt>
      <trkpt lat="36.8986470" lon="-4.3443780">
        <ele>699.9</ele>
        <time>2018-03-28T10:40:18Z</time>
      </trkpt>
      <trkpt lat="36.8986350" lon="-4.3443400">
        <ele>699.9</ele>
        <time>2018-03-28T10:40:19Z</time>
      </trkpt>
      <trkpt lat="36.8986350" lon="-4.3443400">
        <ele>699.9</ele>
        <time>2018-03-28T10:40:20Z</time>
      </trkpt>
      <trkpt lat="36.8986170" lon="-4.3442650">
        <ele>700.9</ele>
        <time>2018-03-28T10:40:21Z</time>
      </trkpt>
      <trkpt lat="36.8986170" lon="-4.3442650">
        <ele>700.9</ele>
        <time>2018-03-28T10:40:22Z</time>
      </trkpt>
      <trkpt lat="36.8986050" lon="-4.3441930">
        <ele>700.9</ele>
        <time>2018-03-28T10:40:23Z</time>
      </trkpt>
      <trkpt lat="36.8986050" lon="-4.3441930">
        <ele>700.9</ele>
        <time>2018-03-28T10:40:24Z</time>
      </trkpt>
      <trkpt lat="36.8985780" lon="-4.3441220">
        <ele>700.9</ele>
        <time>2018-03-28T10:40:25Z</time>
      </trkpt>
      <trkpt lat="36.8985780" lon="-4.3441220">
        <ele>700.9</ele>
        <time>2018-03-28T10:40:26Z</time>
      </trkpt>
      <trkpt lat="36.8985600" lon="-4.3440430">
        <ele>700.9</ele>
        <time>2018-03-28T10:40:27Z</time>
      </trkpt>
      <trkpt lat="36.8985600" lon="-4.3440430">
        <ele>700.9</ele>
        <time>2018-03-28T10:40:28Z</time>
      </trkpt>
      <trkpt lat="36.8985450" lon="-4.3439650">
        <ele>700.9</ele>
        <time>2018-03-28T10:40:29Z</time>
      </trkpt>
      <trkpt lat="36.8985450" lon="-4.3439650">
        <ele>700.9</ele>
        <time>2018-03-28T10:40:30Z</time>
      </trkpt>
      <trkpt lat="36.8985250" lon="-4.3438830">
        <ele>700.9</ele>
        <time>2018-03-28T10:40:31Z</time>
      </trkpt>
      <trkpt lat="36.8985250" lon="-4.3438830">
        <ele>700.9</ele>
        <time>2018-03-28T10:40:32Z</time>
      </trkpt>
      <trkpt lat="36.8985000" lon="-4.3438050">
        <ele>700.9</ele>
        <time>2018-03-28T10:40:33Z</time>
      </trkpt>
      <trkpt lat="36.8985000" lon="-4.3438050">
        <ele>701.9</ele>
        <time>2018-03-28T10:40:34Z</time>
      </trkpt>
      <trkpt lat="36.8984670" lon="-4.3437280">
        <ele>701.9</ele>
        <time>2018-03-28T10:40:35Z</time>
      </trkpt>
      <trkpt lat="36.8984670" lon="-4.3437280">
        <ele>701.9</ele>
        <time>2018-03-28T10:40:36Z</time>
      </trkpt>
      <trkpt lat="36.8984200" lon="-4.3436550">
        <ele>701.9</ele>
        <time>2018-03-28T10:40:37Z</time>
      </trkpt>
      <trkpt lat="36.8984200" lon="-4.3436550">
        <ele>701.9</ele>
        <time>2018-03-28T10:40:38Z</time>
      </trkpt>
      <trkpt lat="36.8983720" lon="-4.3435820">
        <ele>701.9</ele>
        <time>2018-03-28T10:40:39Z</time>
      </trkpt>
      <trkpt lat="36.8983450" lon="-4.3435450">
        <ele>701.9</ele>
        <time>2018-03-28T10:40:40Z</time>
      </trkpt>
      <trkpt lat="36.8983450" lon="-4.3435450">
        <ele>701.9</ele>
        <time>2018-03-28T10:40:41Z</time>
      </trkpt>
      <trkpt lat="36.8982830" lon="-4.3434850">
        <ele>701.9</ele>
        <time>2018-03-28T10:40:42Z</time>
      </trkpt>
      <trkpt lat="36.8982480" lon="-4.3434580">
        <ele>702.9</ele>
        <time>2018-03-28T10:40:43Z</time>
      </trkpt>
      <trkpt lat="36.8982480" lon="-4.3434580">
        <ele>702.9</ele>
        <time>2018-03-28T10:40:44Z</time>
      </trkpt>
      <trkpt lat="36.8981730" lon="-4.3434100">
        <ele>702.9</ele>
        <time>2018-03-28T10:40:45Z</time>
      </trkpt>
      <trkpt lat="36.8981330" lon="-4.3433970">
        <ele>702.9</ele>
        <time>2018-03-28T10:40:46Z</time>
      </trkpt>
      <trkpt lat="36.8981330" lon="-4.3433970">
        <ele>702.9</ele>
        <time>2018-03-28T10:40:47Z</time>
      </trkpt>
      <trkpt lat="36.8980480" lon="-4.3433820">
        <ele>702.9</ele>
        <time>2018-03-28T10:40:48Z</time>
      </trkpt>
      <trkpt lat="36.8980030" lon="-4.3433750">
        <ele>702.9</ele>
        <time>2018-03-28T10:40:49Z</time>
      </trkpt>
      <trkpt lat="36.8980030" lon="-4.3433750">
        <ele>702.9</ele>
        <time>2018-03-28T10:40:50Z</time>
      </trkpt>
      <trkpt lat="36.8979220" lon="-4.3433680">
        <ele>702.9</ele>
        <time>2018-03-28T10:40:51Z</time>
      </trkpt>
      <trkpt lat="36.8978850" lon="-4.3433620">
        <ele>702.9</ele>
        <time>2018-03-28T10:40:52Z</time>
      </trkpt>
      <trkpt lat="36.8978850" lon="-4.3433620">
        <ele>702.9</ele>
        <time>2018-03-28T10:40:53Z</time>
      </trkpt>
      <trkpt lat="36.8978080" lon="-4.3433450">
        <ele>702.9</ele>
        <time>2018-03-28T10:40:54Z</time>
      </trkpt>
      <trkpt lat="36.8978080" lon="-4.3433450">
        <ele>702.9</ele>
        <time>2018-03-28T10:40:55Z</time>
      </trkpt>
      <trkpt lat="36.8977350" lon="-4.3433320">
        <ele>703.9</ele>
        <time>2018-03-28T10:40:56Z</time>
      </trkpt>
      <trkpt lat="36.8977000" lon="-4.3433280">
        <ele>703.9</ele>
        <time>2018-03-28T10:40:57Z</time>
      </trkpt>
      <trkpt lat="36.8977000" lon="-4.3433280">
        <ele>703.9</ele>
        <time>2018-03-28T10:40:58Z</time>
      </trkpt>
      <trkpt lat="36.8976300" lon="-4.3433020">
        <ele>703.9</ele>
        <time>2018-03-28T10:40:59Z</time>
      </trkpt>
      <trkpt lat="36.8975930" lon="-4.3432830">
        <ele>704.9</ele>
        <time>2018-03-28T10:41:00Z</time>
      </trkpt>
      <trkpt lat="36.8975930" lon="-4.3432830">
        <ele>704.9</ele>
        <time>2018-03-28T10:41:01Z</time>
      </trkpt>
      <trkpt lat="36.8975220" lon="-4.3432370">
        <ele>704.9</ele>
        <time>2018-03-28T10:41:02Z</time>
      </trkpt>
      <trkpt lat="36.8974870" lon="-4.3432080">
        <ele>704.9</ele>
        <time>2018-03-28T10:41:03Z</time>
      </trkpt>
      <trkpt lat="36.8974870" lon="-4.3432080">
        <ele>704.9</ele>
        <time>2018-03-28T10:41:04Z</time>
      </trkpt>
      <trkpt lat="36.8974180" lon="-4.3431480">
        <ele>704.9</ele>
        <time>2018-03-28T10:41:05Z</time>
      </trkpt>
      <trkpt lat="36.8974180" lon="-4.3431480">
        <ele>704.9</ele>
        <time>2018-03-28T10:41:06Z</time>
      </trkpt>
      <trkpt lat="36.8973520" lon="-4.3430850">
        <ele>704.9</ele>
        <time>2018-03-28T10:41:07Z</time>
      </trkpt>
      <trkpt lat="36.8973520" lon="-4.3430850">
        <ele>704.9</ele>
        <time>2018-03-28T10:41:08Z</time>
      </trkpt>
      <trkpt lat="36.8972830" lon="-4.3430220">
        <ele>704.9</ele>
        <time>2018-03-28T10:41:09Z</time>
      </trkpt>
      <trkpt lat="36.8972830" lon="-4.3430220">
        <ele>704.9</ele>
        <time>2018-03-28T10:41:10Z</time>
      </trkpt>
      <trkpt lat="36.8972230" lon="-4.3429470">
        <ele>705.9</ele>
        <time>2018-03-28T10:41:11Z</time>
      </trkpt>
      <trkpt lat="36.8972230" lon="-4.3429470">
        <ele>705.9</ele>
        <time>2018-03-28T10:41:12Z</time>
      </trkpt>
      <trkpt lat="36.8971680" lon="-4.3428530">
        <ele>705.9</ele>
        <time>2018-03-28T10:41:13Z</time>
      </trkpt>
      <trkpt lat="36.8971680" lon="-4.3428530">
        <ele>705.9</ele>
        <time>2018-03-28T10:41:14Z</time>
      </trkpt>
      <trkpt lat="36.8971230" lon="-4.3427430">
        <ele>705.9</ele>
        <time>2018-03-28T10:41:15Z</time>
      </trkpt>
      <trkpt lat="36.8971050" lon="-4.3426800">
        <ele>705.9</ele>
        <time>2018-03-28T10:41:16Z</time>
      </trkpt>
      <trkpt lat="36.8970870" lon="-4.3426150">
        <ele>705.9</ele>
        <time>2018-03-28T10:41:17Z</time>
      </trkpt>
      <trkpt lat="36.8970670" lon="-4.3425480">
        <ele>705.9</ele>
        <time>2018-03-28T10:41:18Z</time>
      </trkpt>
      <trkpt lat="36.8970670" lon="-4.3425480">
        <ele>705.9</ele>
        <time>2018-03-28T10:41:19Z</time>
      </trkpt>
      <trkpt lat="36.8970180" lon="-4.3423940">
        <ele>705.9</ele>
        <time>2018-03-28T10:41:20Z</time>
      </trkpt>
      <trkpt lat="36.8970070" lon="-4.3423630">
        <ele>705.9</ele>
        <time>2018-03-28T10:41:21Z</time>
      </trkpt>
      <trkpt lat="36.8970070" lon="-4.3423630">
        <ele>705.9</ele>
        <time>2018-03-28T10:41:22Z</time>
      </trkpt>
      <trkpt lat="36.8969670" lon="-4.3422320">
        <ele>705.9</ele>
        <time>2018-03-28T10:41:23Z</time>
      </trkpt>
      <trkpt lat="36.8969670" lon="-4.3422320">
        <ele>705.9</ele>
        <time>2018-03-28T10:41:24Z</time>
      </trkpt>
      <trkpt lat="36.8969200" lon="-4.3421100">
        <ele>705.9</ele>
        <time>2018-03-28T10:41:25Z</time>
      </trkpt>
      <trkpt lat="36.8969200" lon="-4.3421100">
        <ele>705.9</ele>
        <time>2018-03-28T10:41:26Z</time>
      </trkpt>
      <trkpt lat="36.8968630" lon="-4.3419930">
        <ele>705.9</ele>
        <time>2018-03-28T10:41:27Z</time>
      </trkpt>
      <trkpt lat="36.8968630" lon="-4.3419930">
        <ele>705.9</ele>
        <time>2018-03-28T10:41:28Z</time>
      </trkpt>
      <trkpt lat="36.8967850" lon="-4.3419030">
        <ele>705.9</ele>
        <time>2018-03-28T10:41:29Z</time>
      </trkpt>
      <trkpt lat="36.8967850" lon="-4.3419030">
        <ele>705.9</ele>
        <time>2018-03-28T10:41:30Z</time>
      </trkpt>
      <trkpt lat="36.8966830" lon="-4.3418480">
        <ele>705.9</ele>
        <time>2018-03-28T10:41:31Z</time>
      </trkpt>
      <trkpt lat="36.8966830" lon="-4.3418480">
        <ele>705.9</ele>
        <time>2018-03-28T10:41:32Z</time>
      </trkpt>
      <trkpt lat="36.8965800" lon="-4.3418120">
        <ele>705.9</ele>
        <time>2018-03-28T10:41:33Z</time>
      </trkpt>
      <trkpt lat="36.8965800" lon="-4.3418120">
        <ele>705.9</ele>
        <time>2018-03-28T10:41:34Z</time>
      </trkpt>
      <trkpt lat="36.8964680" lon="-4.3417900">
        <ele>705.9</ele>
        <time>2018-03-28T10:41:35Z</time>
      </trkpt>
      <trkpt lat="36.8964680" lon="-4.3417900">
        <ele>705.9</ele>
        <time>2018-03-28T10:41:36Z</time>
      </trkpt>
      <trkpt lat="36.8963470" lon="-4.3418100">
        <ele>704.9</ele>
        <time>2018-03-28T10:41:37Z</time>
      </trkpt>
      <trkpt lat="36.8963470" lon="-4.3418100">
        <ele>704.9</ele>
        <time>2018-03-28T10:41:38Z</time>
      </trkpt>
      <trkpt lat="36.8962470" lon="-4.3418830">
        <ele>704.9</ele>
        <time>2018-03-28T10:41:39Z</time>
      </trkpt>
      <trkpt lat="36.8962470" lon="-4.3418830">
        <ele>704.9</ele>
        <time>2018-03-28T10:41:40Z</time>
      </trkpt>
      <trkpt lat="36.8961750" lon="-4.3419880">
        <ele>704.9</ele>
        <time>2018-03-28T10:41:41Z</time>
      </trkpt>
      <trkpt lat="36.8961750" lon="-4.3419880">
        <ele>704.9</ele>
        <time>2018-03-28T10:41:42Z</time>
      </trkpt>
      <trkpt lat="36.8961070" lon="-4.3420800">
        <ele>704.9</ele>
        <time>2018-03-28T10:41:43Z</time>
      </trkpt>
      <trkpt lat="36.8961070" lon="-4.3420800">
        <ele>704.9</ele>
        <time>2018-03-28T10:41:44Z</time>
      </trkpt>
      <trkpt lat="36.8960400" lon="-4.3421500">
        <ele>704.9</ele>
        <time>2018-03-28T10:41:45Z</time>
      </trkpt>
      <trkpt lat="36.8960400" lon="-4.3421500">
        <ele>704.9</ele>
        <time>2018-03-28T10:41:46Z</time>
      </trkpt>
      <trkpt lat="36.8959700" lon="-4.3421980">
        <ele>704.9</ele>
        <time>2018-03-28T10:41:47Z</time>
      </trkpt>
      <trkpt lat="36.8959700" lon="-4.3421980">
        <ele>704.9</ele>
        <time>2018-03-28T10:41:48Z</time>
      </trkpt>
      <trkpt lat="36.8958920" lon="-4.3422130">
        <ele>704.9</ele>
        <time>2018-03-28T10:41:49Z</time>
      </trkpt>
      <trkpt lat="36.8958920" lon="-4.3422130">
        <ele>704.9</ele>
        <time>2018-03-28T10:41:50Z</time>
      </trkpt>
      <trkpt lat="36.8958220" lon="-4.3421880">
        <ele>704.9</ele>
        <time>2018-03-28T10:41:51Z</time>
      </trkpt>
      <trkpt lat="36.8958220" lon="-4.3421880">
        <ele>704.9</ele>
        <time>2018-03-28T10:41:52Z</time>
      </trkpt>
      <trkpt lat="36.8957530" lon="-4.3421250">
        <ele>704.9</ele>
        <time>2018-03-28T10:41:53Z</time>
      </trkpt>
      <trkpt lat="36.8957180" lon="-4.3420870">
        <ele>704.9</ele>
        <time>2018-03-28T10:41:54Z</time>
      </trkpt>
      <trkpt lat="36.8956830" lon="-4.3420450">
        <ele>704.9</ele>
        <time>2018-03-28T10:41:55Z</time>
      </trkpt>
      <trkpt lat="36.8956830" lon="-4.3420450">
        <ele>704.9</ele>
        <time>2018-03-28T10:41:56Z</time>
      </trkpt>
      <trkpt lat="36.8956150" lon="-4.3419550">
        <ele>704.9</ele>
        <time>2018-03-28T10:41:57Z</time>
      </trkpt>
      <trkpt lat="36.8956150" lon="-4.3419550">
        <ele>704.9</ele>
        <time>2018-03-28T10:41:58Z</time>
      </trkpt>
      <trkpt lat="36.8955370" lon="-4.3418280">
        <ele>704.9</ele>
        <time>2018-03-28T10:41:59Z</time>
      </trkpt>
      <trkpt lat="36.8955180" lon="-4.3418050">
        <ele>704.9</ele>
        <time>2018-03-28T10:42:00Z</time>
      </trkpt>
      <trkpt lat="36.8954770" lon="-4.3417620">
        <ele>704.9</ele>
        <time>2018-03-28T10:42:01Z</time>
      </trkpt>
      <trkpt lat="36.8954770" lon="-4.3417620">
        <ele>704.9</ele>
        <time>2018-03-28T10:42:02Z</time>
      </trkpt>
      <trkpt lat="36.8953820" lon="-4.3416930">
        <ele>704.9</ele>
        <time>2018-03-28T10:42:03Z</time>
      </trkpt>
      <trkpt lat="36.8953300" lon="-4.3416720">
        <ele>704.9</ele>
        <time>2018-03-28T10:42:04Z</time>
      </trkpt>
      <trkpt lat="36.8953300" lon="-4.3416720">
        <ele>704.9</ele>
        <time>2018-03-28T10:42:05Z</time>
      </trkpt>
      <trkpt lat="36.8952250" lon="-4.3416520">
        <ele>704.9</ele>
        <time>2018-03-28T10:42:06Z</time>
      </trkpt>
      <trkpt lat="36.8951750" lon="-4.3416500">
        <ele>704.9</ele>
        <time>2018-03-28T10:42:07Z</time>
      </trkpt>
      <trkpt lat="36.8951750" lon="-4.3416500">
        <ele>704.9</ele>
        <time>2018-03-28T10:42:08Z</time>
      </trkpt>
      <trkpt lat="36.8950750" lon="-4.3416580">
        <ele>704.9</ele>
        <time>2018-03-28T10:42:09Z</time>
      </trkpt>
      <trkpt lat="36.8950320" lon="-4.3416680">
        <ele>704.9</ele>
        <time>2018-03-28T10:42:10Z</time>
      </trkpt>
      <trkpt lat="36.8949900" lon="-4.3416830">
        <ele>704.9</ele>
        <time>2018-03-28T10:42:11Z</time>
      </trkpt>
      <trkpt lat="36.8949480" lon="-4.3416980">
        <ele>704.9</ele>
        <time>2018-03-28T10:42:12Z</time>
      </trkpt>
      <trkpt lat="36.8949080" lon="-4.3417130">
        <ele>704.9</ele>
        <time>2018-03-28T10:42:13Z</time>
      </trkpt>
      <trkpt lat="36.8949080" lon="-4.3417130">
        <ele>704.9</ele>
        <time>2018-03-28T10:42:14Z</time>
      </trkpt>
      <trkpt lat="36.8948300" lon="-4.3417470">
        <ele>704.9</ele>
        <time>2018-03-28T10:42:15Z</time>
      </trkpt>
      <trkpt lat="36.8948300" lon="-4.3417470">
        <ele>704.9</ele>
        <time>2018-03-28T10:42:16Z</time>
      </trkpt>
      <trkpt lat="36.8947620" lon="-4.3417880">
        <ele>705.9</ele>
        <time>2018-03-28T10:42:17Z</time>
      </trkpt>
      <trkpt lat="36.8947620" lon="-4.3417880">
        <ele>705.9</ele>
        <time>2018-03-28T10:42:18Z</time>
      </trkpt>
      <trkpt lat="36.8946900" lon="-4.3418300">
        <ele>705.9</ele>
        <time>2018-03-28T10:42:19Z</time>
      </trkpt>
      <trkpt lat="36.8946900" lon="-4.3418300">
        <ele>705.9</ele>
        <time>2018-03-28T10:42:20Z</time>
      </trkpt>
      <trkpt lat="36.8946230" lon="-4.3418770">
        <ele>705.9</ele>
        <time>2018-03-28T10:42:21Z</time>
      </trkpt>
      <trkpt lat="36.8946230" lon="-4.3418770">
        <ele>705.9</ele>
        <time>2018-03-28T10:42:22Z</time>
      </trkpt>
      <trkpt lat="36.8945580" lon="-4.3419220">
        <ele>706.9</ele>
        <time>2018-03-28T10:42:23Z</time>
      </trkpt>
      <trkpt lat="36.8945230" lon="-4.3419380">
        <ele>706.9</ele>
        <time>2018-03-28T10:42:24Z</time>
      </trkpt>
      <trkpt lat="36.8944880" lon="-4.3419530">
        <ele>706.9</ele>
        <time>2018-03-28T10:42:25Z</time>
      </trkpt>
      <trkpt lat="36.8944880" lon="-4.3419530">
        <ele>706.9</ele>
        <time>2018-03-28T10:42:26Z</time>
      </trkpt>
      <trkpt lat="36.8944220" lon="-4.3419870">
        <ele>706.9</ele>
        <time>2018-03-28T10:42:27Z</time>
      </trkpt>
      <trkpt lat="36.8943890" lon="-4.3420050">
        <ele>706.9</ele>
        <time>2018-03-28T10:42:28Z</time>
      </trkpt>
      <trkpt lat="36.8943550" lon="-4.3420220">
        <ele>707.9</ele>
        <time>2018-03-28T10:42:29Z</time>
      </trkpt>
      <trkpt lat="36.8943550" lon="-4.3420220">
        <ele>707.9</ele>
        <time>2018-03-28T10:42:30Z</time>
      </trkpt>
      <trkpt lat="36.8942900" lon="-4.3420550">
        <ele>707.9</ele>
        <time>2018-03-28T10:42:31Z</time>
      </trkpt>
      <trkpt lat="36.8942900" lon="-4.3420550">
        <ele>707.9</ele>
        <time>2018-03-28T10:42:32Z</time>
      </trkpt>
      <trkpt lat="36.8942270" lon="-4.3420750">
        <ele>707.9</ele>
        <time>2018-03-28T10:42:33Z</time>
      </trkpt>
      <trkpt lat="36.8941930" lon="-4.3420830">
        <ele>708.9</ele>
        <time>2018-03-28T10:42:34Z</time>
      </trkpt>
      <trkpt lat="36.8941930" lon="-4.3420830">
        <ele>708.9</ele>
        <time>2018-03-28T10:42:35Z</time>
      </trkpt>
      <trkpt lat="36.8941230" lon="-4.3420950">
        <ele>708.9</ele>
        <time>2018-03-28T10:42:36Z</time>
      </trkpt>
      <trkpt lat="36.8940870" lon="-4.3420970">
        <ele>708.9</ele>
        <time>2018-03-28T10:42:37Z</time>
      </trkpt>
      <trkpt lat="36.8940500" lon="-4.3421020">
        <ele>708.9</ele>
        <time>2018-03-28T10:42:38Z</time>
      </trkpt>
      <trkpt lat="36.8940500" lon="-4.3421020">
        <ele>708.9</ele>
        <time>2018-03-28T10:42:39Z</time>
      </trkpt>
      <trkpt lat="36.8939900" lon="-4.3421300">
        <ele>709.9</ele>
        <time>2018-03-28T10:42:40Z</time>
      </trkpt>
      <trkpt lat="36.8939630" lon="-4.3421570">
        <ele>709.9</ele>
        <time>2018-03-28T10:42:41Z</time>
      </trkpt>
      <trkpt lat="36.8939630" lon="-4.3421570">
        <ele>709.9</ele>
        <time>2018-03-28T10:42:42Z</time>
      </trkpt>
      <trkpt lat="36.8939220" lon="-4.3422250">
        <ele>709.9</ele>
        <time>2018-03-28T10:42:43Z</time>
      </trkpt>
      <trkpt lat="36.8939220" lon="-4.3422250">
        <ele>710.9</ele>
        <time>2018-03-28T10:42:44Z</time>
      </trkpt>
      <trkpt lat="36.8938800" lon="-4.3422970">
        <ele>710.9</ele>
        <time>2018-03-28T10:42:45Z</time>
      </trkpt>
      <trkpt lat="36.8938800" lon="-4.3422970">
        <ele>710.9</ele>
        <time>2018-03-28T10:42:46Z</time>
      </trkpt>
      <trkpt lat="36.8938800" lon="-4.3423800">
        <ele>710.9</ele>
        <time>2018-03-28T10:42:47Z</time>
      </trkpt>
      <trkpt lat="36.8938800" lon="-4.3423800">
        <ele>711.9</ele>
        <time>2018-03-28T10:42:48Z</time>
      </trkpt>
      <trkpt lat="36.8938950" lon="-4.3424630">
        <ele>711.9</ele>
        <time>2018-03-28T10:42:49Z</time>
      </trkpt>
      <trkpt lat="36.8938950" lon="-4.3424630">
        <ele>711.9</ele>
        <time>2018-03-28T10:42:50Z</time>
      </trkpt>
      <trkpt lat="36.8939230" lon="-4.3425400">
        <ele>711.9</ele>
        <time>2018-03-28T10:42:51Z</time>
      </trkpt>
      <trkpt lat="36.8939230" lon="-4.3425400">
        <ele>712.9</ele>
        <time>2018-03-28T10:42:52Z</time>
      </trkpt>
      <trkpt lat="36.8939420" lon="-4.3426200">
        <ele>712.9</ele>
        <time>2018-03-28T10:42:53Z</time>
      </trkpt>
      <trkpt lat="36.8939420" lon="-4.3426200">
        <ele>712.9</ele>
        <time>2018-03-28T10:42:54Z</time>
      </trkpt>
      <trkpt lat="36.8939550" lon="-4.3426900">
        <ele>712.9</ele>
        <time>2018-03-28T10:42:55Z</time>
      </trkpt>
      <trkpt lat="36.8939550" lon="-4.3426900">
        <ele>713.9</ele>
        <time>2018-03-28T10:42:56Z</time>
      </trkpt>
      <trkpt lat="36.8939690" lon="-4.3427800">
        <ele>713.9</ele>
        <time>2018-03-28T10:42:57Z</time>
      </trkpt>
      <trkpt lat="36.8939700" lon="-4.3427980">
        <ele>713.9</ele>
        <time>2018-03-28T10:42:58Z</time>
      </trkpt>
      <trkpt lat="36.8939700" lon="-4.3427980">
        <ele>714.9</ele>
        <time>2018-03-28T10:42:59Z</time>
      </trkpt>
      <trkpt lat="36.8939770" lon="-4.3428650">
        <ele>714.9</ele>
        <time>2018-03-28T10:43:00Z</time>
      </trkpt>
      <trkpt lat="36.8939770" lon="-4.3429000">
        <ele>714.9</ele>
        <time>2018-03-28T10:43:01Z</time>
      </trkpt>
      <trkpt lat="36.8939720" lon="-4.3429350">
        <ele>714.9</ele>
        <time>2018-03-28T10:43:02Z</time>
      </trkpt>
      <trkpt lat="36.8939720" lon="-4.3429350">
        <ele>714.9</ele>
        <time>2018-03-28T10:43:03Z</time>
      </trkpt>
      <trkpt lat="36.8939620" lon="-4.3430050">
        <ele>714.9</ele>
        <time>2018-03-28T10:43:04Z</time>
      </trkpt>
      <trkpt lat="36.8939600" lon="-4.3430400">
        <ele>714.9</ele>
        <time>2018-03-28T10:43:05Z</time>
      </trkpt>
      <trkpt lat="36.8939600" lon="-4.3430400">
        <ele>714.9</ele>
        <time>2018-03-28T10:43:06Z</time>
      </trkpt>
      <trkpt lat="36.8939520" lon="-4.3431050">
        <ele>714.9</ele>
        <time>2018-03-28T10:43:07Z</time>
      </trkpt>
      <trkpt lat="36.8939520" lon="-4.3431050">
        <ele>714.9</ele>
        <time>2018-03-28T10:43:08Z</time>
      </trkpt>
      <trkpt lat="36.8939380" lon="-4.3431680">
        <ele>715.9</ele>
        <time>2018-03-28T10:43:09Z</time>
      </trkpt>
      <trkpt lat="36.8939270" lon="-4.3431980">
        <ele>715.9</ele>
        <time>2018-03-28T10:43:10Z</time>
      </trkpt>
      <trkpt lat="36.8939270" lon="-4.3431980">
        <ele>715.9</ele>
        <time>2018-03-28T10:43:11Z</time>
      </trkpt>
      <trkpt lat="36.8939020" lon="-4.3432570">
        <ele>715.9</ele>
        <time>2018-03-28T10:43:12Z</time>
      </trkpt>
      <trkpt lat="36.8938880" lon="-4.3432830">
        <ele>716.9</ele>
        <time>2018-03-28T10:43:13Z</time>
      </trkpt>
      <trkpt lat="36.8938880" lon="-4.3432830">
        <ele>716.9</ele>
        <time>2018-03-28T10:43:14Z</time>
      </trkpt>
      <trkpt lat="36.8938620" lon="-4.3433320">
        <ele>716.9</ele>
        <time>2018-03-28T10:43:15Z</time>
      </trkpt>
      <trkpt lat="36.8938620" lon="-4.3433320">
        <ele>716.9</ele>
        <time>2018-03-28T10:43:16Z</time>
      </trkpt>
      <trkpt lat="36.8938380" lon="-4.3433820">
        <ele>716.9</ele>
        <time>2018-03-28T10:43:17Z</time>
      </trkpt>
      <trkpt lat="36.8938380" lon="-4.3433820">
        <ele>716.9</ele>
        <time>2018-03-28T10:43:18Z</time>
      </trkpt>
      <trkpt lat="36.8938150" lon="-4.3434230">
        <ele>717.9</ele>
        <time>2018-03-28T10:43:19Z</time>
      </trkpt>
      <trkpt lat="36.8938150" lon="-4.3434230">
        <ele>717.9</ele>
        <time>2018-03-28T10:43:20Z</time>
      </trkpt>
      <trkpt lat="36.8938020" lon="-4.3434620">
        <ele>717.9</ele>
        <time>2018-03-28T10:43:21Z</time>
      </trkpt>
      <trkpt lat="36.8938020" lon="-4.3434620">
        <ele>717.9</ele>
        <time>2018-03-28T10:43:22Z</time>
      </trkpt>
      <trkpt lat="36.8937700" lon="-4.3435020">
        <ele>717.9</ele>
        <time>2018-03-28T10:43:23Z</time>
      </trkpt>
      <trkpt lat="36.8937530" lon="-4.3435180">
        <ele>717.9</ele>
        <time>2018-03-28T10:43:24Z</time>
      </trkpt>
      <trkpt lat="36.8937380" lon="-4.3435370">
        <ele>718.9</ele>
        <time>2018-03-28T10:43:25Z</time>
      </trkpt>
      <trkpt lat="36.8937380" lon="-4.3435370">
        <ele>718.9</ele>
        <time>2018-03-28T10:43:26Z</time>
      </trkpt>
      <trkpt lat="36.8937050" lon="-4.3435770">
        <ele>718.9</ele>
        <time>2018-03-28T10:43:27Z</time>
      </trkpt>
      <trkpt lat="36.8937050" lon="-4.3435770">
        <ele>718.9</ele>
        <time>2018-03-28T10:43:28Z</time>
      </trkpt>
      <trkpt lat="36.8936700" lon="-4.3436170">
        <ele>719.9</ele>
        <time>2018-03-28T10:43:29Z</time>
      </trkpt>
      <trkpt lat="36.8936700" lon="-4.3436170">
        <ele>719.9</ele>
        <time>2018-03-28T10:43:30Z</time>
      </trkpt>
      <trkpt lat="36.8936320" lon="-4.3436550">
        <ele>719.9</ele>
        <time>2018-03-28T10:43:31Z</time>
      </trkpt>
      <trkpt lat="36.8936150" lon="-4.3436730">
        <ele>720.9</ele>
        <time>2018-03-28T10:43:32Z</time>
      </trkpt>
      <trkpt lat="36.8936150" lon="-4.3436730">
        <ele>720.9</ele>
        <time>2018-03-28T10:43:33Z</time>
      </trkpt>
      <trkpt lat="36.8935750" lon="-4.3437050">
        <ele>720.9</ele>
        <time>2018-03-28T10:43:34Z</time>
      </trkpt>
      <trkpt lat="36.8935570" lon="-4.3437230">
        <ele>720.9</ele>
        <time>2018-03-28T10:43:35Z</time>
      </trkpt>
      <trkpt lat="36.8935420" lon="-4.3437400">
        <ele>720.9</ele>
        <time>2018-03-28T10:43:36Z</time>
      </trkpt>
      <trkpt lat="36.8935420" lon="-4.3437400">
        <ele>720.9</ele>
        <time>2018-03-28T10:43:37Z</time>
      </trkpt>
      <trkpt lat="36.8935100" lon="-4.3437720">
        <ele>721.9</ele>
        <time>2018-03-28T10:43:38Z</time>
      </trkpt>
      <trkpt lat="36.8934970" lon="-4.3437920">
        <ele>721.9</ele>
        <time>2018-03-28T10:43:39Z</time>
      </trkpt>
      <trkpt lat="36.8934780" lon="-4.3438130">
        <ele>721.9</ele>
        <time>2018-03-28T10:43:40Z</time>
      </trkpt>
      <trkpt lat="36.8934570" lon="-4.3438320">
        <ele>721.9</ele>
        <time>2018-03-28T10:43:41Z</time>
      </trkpt>
      <trkpt lat="36.8934570" lon="-4.3438320">
        <ele>722.9</ele>
        <time>2018-03-28T10:43:42Z</time>
      </trkpt>
      <trkpt lat="36.8934070" lon="-4.3438720">
        <ele>722.9</ele>
        <time>2018-03-28T10:43:43Z</time>
      </trkpt>
      <trkpt lat="36.8934070" lon="-4.3438720">
        <ele>722.9</ele>
        <time>2018-03-28T10:43:44Z</time>
      </trkpt>
      <trkpt lat="36.8933680" lon="-4.3439150">
        <ele>722.9</ele>
        <time>2018-03-28T10:43:45Z</time>
      </trkpt>
      <trkpt lat="36.8933520" lon="-4.3439350">
        <ele>723.9</ele>
        <time>2018-03-28T10:43:46Z</time>
      </trkpt>
      <trkpt lat="36.8933520" lon="-4.3439350">
        <ele>723.9</ele>
        <time>2018-03-28T10:43:47Z</time>
      </trkpt>
      <trkpt lat="36.8933180" lon="-4.3439670">
        <ele>723.9</ele>
        <time>2018-03-28T10:43:48Z</time>
      </trkpt>
      <trkpt lat="36.8933070" lon="-4.3439850">
        <ele>723.9</ele>
        <time>2018-03-28T10:43:49Z</time>
      </trkpt>
      <trkpt lat="36.8933070" lon="-4.3439850">
        <ele>724.9</ele>
        <time>2018-03-28T10:43:50Z</time>
      </trkpt>
      <trkpt lat="36.8932700" lon="-4.3440230">
        <ele>724.9</ele>
        <time>2018-03-28T10:43:51Z</time>
      </trkpt>
      <trkpt lat="36.8932700" lon="-4.3440230">
        <ele>724.9</ele>
        <time>2018-03-28T10:43:52Z</time>
      </trkpt>
      <trkpt lat="36.8932380" lon="-4.3440520">
        <ele>724.9</ele>
        <time>2018-03-28T10:43:53Z</time>
      </trkpt>
      <trkpt lat="36.8932380" lon="-4.3440520">
        <ele>724.9</ele>
        <time>2018-03-28T10:43:54Z</time>
      </trkpt>
      <trkpt lat="36.8931980" lon="-4.3440900">
        <ele>724.9</ele>
        <time>2018-03-28T10:43:55Z</time>
      </trkpt>
      <trkpt lat="36.8931980" lon="-4.3440900">
        <ele>724.9</ele>
        <time>2018-03-28T10:43:56Z</time>
      </trkpt>
      <trkpt lat="36.8931650" lon="-4.3441220">
        <ele>724.9</ele>
        <time>2018-03-28T10:43:57Z</time>
      </trkpt>
      <trkpt lat="36.8931650" lon="-4.3441220">
        <ele>724.9</ele>
        <time>2018-03-28T10:43:58Z</time>
      </trkpt>
      <trkpt lat="36.8931380" lon="-4.3441570">
        <ele>724.9</ele>
        <time>2018-03-28T10:43:59Z</time>
      </trkpt>
      <trkpt lat="36.8931250" lon="-4.3441720">
        <ele>724.9</ele>
        <time>2018-03-28T10:44:00Z</time>
      </trkpt>
      <trkpt lat="36.8931250" lon="-4.3441720">
        <ele>725.9</ele>
        <time>2018-03-28T10:44:01Z</time>
      </trkpt>
      <trkpt lat="36.8930930" lon="-4.3441950">
        <ele>725.9</ele>
        <time>2018-03-28T10:44:02Z</time>
      </trkpt>
      <trkpt lat="36.8930930" lon="-4.3441950">
        <ele>726.9</ele>
        <time>2018-03-28T10:44:03Z</time>
      </trkpt>
      <trkpt lat="36.8930580" lon="-4.3442230">
        <ele>726.9</ele>
        <time>2018-03-28T10:44:04Z</time>
      </trkpt>
      <trkpt lat="36.8930580" lon="-4.3442230">
        <ele>726.9</ele>
        <time>2018-03-28T10:44:05Z</time>
      </trkpt>
      <trkpt lat="36.8930150" lon="-4.3442380">
        <ele>726.9</ele>
        <time>2018-03-28T10:44:06Z</time>
      </trkpt>
      <trkpt lat="36.8929920" lon="-4.3442450">
        <ele>726.9</ele>
        <time>2018-03-28T10:44:07Z</time>
      </trkpt>
      <trkpt lat="36.8929920" lon="-4.3442450">
        <ele>726.9</ele>
        <time>2018-03-28T10:44:08Z</time>
      </trkpt>
      <trkpt lat="36.8929400" lon="-4.3442550">
        <ele>727.9</ele>
        <time>2018-03-28T10:44:09Z</time>
      </trkpt>
      <trkpt lat="36.8929120" lon="-4.3442570">
        <ele>727.9</ele>
        <time>2018-03-28T10:44:10Z</time>
      </trkpt>
      <trkpt lat="36.8929120" lon="-4.3442570">
        <ele>727.9</ele>
        <time>2018-03-28T10:44:11Z</time>
      </trkpt>
      <trkpt lat="36.8928570" lon="-4.3442570">
        <ele>727.9</ele>
        <time>2018-03-28T10:44:12Z</time>
      </trkpt>
      <trkpt lat="36.8928230" lon="-4.3442570">
        <ele>727.9</ele>
        <time>2018-03-28T10:44:13Z</time>
      </trkpt>
      <trkpt lat="36.8928230" lon="-4.3442570">
        <ele>727.9</ele>
        <time>2018-03-28T10:44:14Z</time>
      </trkpt>
      <trkpt lat="36.8927700" lon="-4.3442330">
        <ele>728.9</ele>
        <time>2018-03-28T10:44:15Z</time>
      </trkpt>
      <trkpt lat="36.8927700" lon="-4.3442330">
        <ele>728.9</ele>
        <time>2018-03-28T10:44:16Z</time>
      </trkpt>
      <trkpt lat="36.8927200" lon="-4.3442070">
        <ele>728.9</ele>
        <time>2018-03-28T10:44:17Z</time>
      </trkpt>
      <trkpt lat="36.8927000" lon="-4.3441870">
        <ele>728.9</ele>
        <time>2018-03-28T10:44:18Z</time>
      </trkpt>
      <trkpt lat="36.8926800" lon="-4.3441630">
        <ele>728.9</ele>
        <time>2018-03-28T10:44:19Z</time>
      </trkpt>
      <trkpt lat="36.8926800" lon="-4.3441630">
        <ele>728.9</ele>
        <time>2018-03-28T10:44:20Z</time>
      </trkpt>
      <trkpt lat="36.8926480" lon="-4.3441120">
        <ele>728.9</ele>
        <time>2018-03-28T10:44:21Z</time>
      </trkpt>
      <trkpt lat="36.8926420" lon="-4.3440800">
        <ele>728.9</ele>
        <time>2018-03-28T10:44:22Z</time>
      </trkpt>
      <trkpt lat="36.8926420" lon="-4.3440800">
        <ele>728.9</ele>
        <time>2018-03-28T10:44:23Z</time>
      </trkpt>
      <trkpt lat="36.8926330" lon="-4.3440040">
        <ele>728.9</ele>
        <time>2018-03-28T10:44:24Z</time>
      </trkpt>
      <trkpt lat="36.8926330" lon="-4.3439870">
        <ele>729.9</ele>
        <time>2018-03-28T10:44:25Z</time>
      </trkpt>
      <trkpt lat="36.8926330" lon="-4.3439870">
        <ele>729.9</ele>
        <time>2018-03-28T10:44:26Z</time>
      </trkpt>
      <trkpt lat="36.8926480" lon="-4.3439180">
        <ele>729.9</ele>
        <time>2018-03-28T10:44:27Z</time>
      </trkpt>
      <trkpt lat="36.8926480" lon="-4.3439180">
        <ele>729.9</ele>
        <time>2018-03-28T10:44:28Z</time>
      </trkpt>
      <trkpt lat="36.8926700" lon="-4.3438520">
        <ele>729.9</ele>
        <time>2018-03-28T10:44:29Z</time>
      </trkpt>
      <trkpt lat="36.8926700" lon="-4.3438520">
        <ele>730.9</ele>
        <time>2018-03-28T10:44:30Z</time>
      </trkpt>
      <trkpt lat="36.8927230" lon="-4.3438050">
        <ele>730.9</ele>
        <time>2018-03-28T10:44:31Z</time>
      </trkpt>
      <trkpt lat="36.8927230" lon="-4.3438050">
        <ele>730.9</ele>
        <time>2018-03-28T10:44:32Z</time>
      </trkpt>
      <trkpt lat="36.8927630" lon="-4.3437650">
        <ele>730.9</ele>
        <time>2018-03-28T10:44:33Z</time>
      </trkpt>
      <trkpt lat="36.8927870" lon="-4.3437430">
        <ele>730.9</ele>
        <time>2018-03-28T10:44:34Z</time>
      </trkpt>
      <trkpt lat="36.8927870" lon="-4.3437430">
        <ele>730.9</ele>
        <time>2018-03-28T10:44:35Z</time>
      </trkpt>
      <trkpt lat="36.8928380" lon="-4.3437120">
        <ele>730.9</ele>
        <time>2018-03-28T10:44:36Z</time>
      </trkpt>
      <trkpt lat="36.8928670" lon="-4.3437020">
        <ele>730.9</ele>
        <time>2018-03-28T10:44:37Z</time>
      </trkpt>
      <trkpt lat="36.8928670" lon="-4.3437020">
        <ele>731.9</ele>
        <time>2018-03-28T10:44:38Z</time>
      </trkpt>
      <trkpt lat="36.8929220" lon="-4.3436780">
        <ele>731.9</ele>
        <time>2018-03-28T10:44:39Z</time>
      </trkpt>
      <trkpt lat="36.8929480" lon="-4.3436650">
        <ele>731.9</ele>
        <time>2018-03-28T10:44:40Z</time>
      </trkpt>
      <trkpt lat="36.8929480" lon="-4.3436650">
        <ele>731.9</ele>
        <time>2018-03-28T10:44:41Z</time>
      </trkpt>
      <trkpt lat="36.8929970" lon="-4.3436320">
        <ele>732.9</ele>
        <time>2018-03-28T10:44:42Z</time>
      </trkpt>
      <trkpt lat="36.8929970" lon="-4.3436320">
        <ele>732.9</ele>
        <time>2018-03-28T10:44:43Z</time>
      </trkpt>
      <trkpt lat="36.8930400" lon="-4.3435930">
        <ele>732.9</ele>
        <time>2018-03-28T10:44:44Z</time>
      </trkpt>
      <trkpt lat="36.8930600" lon="-4.3435750">
        <ele>732.9</ele>
        <time>2018-03-28T10:44:45Z</time>
      </trkpt>
      <trkpt lat="36.8930780" lon="-4.3435550">
        <ele>732.9</ele>
        <time>2018-03-28T10:44:46Z</time>
      </trkpt>
      <trkpt lat="36.8930780" lon="-4.3435550">
        <ele>732.9</ele>
        <time>2018-03-28T10:44:47Z</time>
      </trkpt>
      <trkpt lat="36.8931170" lon="-4.3435150">
        <ele>732.9</ele>
        <time>2018-03-28T10:44:48Z</time>
      </trkpt>
      <trkpt lat="36.8931380" lon="-4.3434950">
        <ele>732.9</ele>
        <time>2018-03-28T10:44:49Z</time>
      </trkpt>
      <trkpt lat="36.8931380" lon="-4.3434950">
        <ele>733.9</ele>
        <time>2018-03-28T10:44:50Z</time>
      </trkpt>
      <trkpt lat="36.8931770" lon="-4.3434500">
        <ele>733.9</ele>
        <time>2018-03-28T10:44:51Z</time>
      </trkpt>
      <trkpt lat="36.8931930" lon="-4.3434320">
        <ele>733.9</ele>
        <time>2018-03-28T10:44:52Z</time>
      </trkpt>
      <trkpt lat="36.8931930" lon="-4.3434320">
        <ele>733.9</ele>
        <time>2018-03-28T10:44:53Z</time>
      </trkpt>
      <trkpt lat="36.8932220" lon="-4.3433920">
        <ele>734.9</ele>
        <time>2018-03-28T10:44:54Z</time>
      </trkpt>
      <trkpt lat="36.8932350" lon="-4.3433700">
        <ele>734.9</ele>
        <time>2018-03-28T10:44:55Z</time>
      </trkpt>
      <trkpt lat="36.8932350" lon="-4.3433700">
        <ele>734.9</ele>
        <time>2018-03-28T10:44:56Z</time>
      </trkpt>
      <trkpt lat="36.8932650" lon="-4.3433220">
        <ele>735.9</ele>
        <time>2018-03-28T10:44:57Z</time>
      </trkpt>
      <trkpt lat="36.8932800" lon="-4.3432920">
        <ele>735.9</ele>
        <time>2018-03-28T10:44:58Z</time>
      </trkpt>
      <trkpt lat="36.8932950" lon="-4.3432620">
        <ele>735.9</ele>
        <time>2018-03-28T10:44:59Z</time>
      </trkpt>
      <trkpt lat="36.8932950" lon="-4.3432620">
        <ele>735.9</ele>
        <time>2018-03-28T10:45:00Z</time>
      </trkpt>
      <trkpt lat="36.8933200" lon="-4.3432000">
        <ele>736.9</ele>
        <time>2018-03-28T10:45:01Z</time>
      </trkpt>
      <trkpt lat="36.8933200" lon="-4.3432000">
        <ele>736.9</ele>
        <time>2018-03-28T10:45:02Z</time>
      </trkpt>
      <trkpt lat="36.8933400" lon="-4.3431370">
        <ele>736.9</ele>
        <time>2018-03-28T10:45:03Z</time>
      </trkpt>
      <trkpt lat="36.8933400" lon="-4.3431370">
        <ele>736.9</ele>
        <time>2018-03-28T10:45:04Z</time>
      </trkpt>
      <trkpt lat="36.8933520" lon="-4.3430770">
        <ele>737.9</ele>
        <time>2018-03-28T10:45:05Z</time>
      </trkpt>
      <trkpt lat="36.8933530" lon="-4.3430450">
        <ele>737.9</ele>
        <time>2018-03-28T10:45:06Z</time>
      </trkpt>
      <trkpt lat="36.8933530" lon="-4.3430450">
        <ele>737.9</ele>
        <time>2018-03-28T10:45:07Z</time>
      </trkpt>
      <trkpt lat="36.8933530" lon="-4.3429820">
        <ele>737.9</ele>
        <time>2018-03-28T10:45:08Z</time>
      </trkpt>
      <trkpt lat="36.8933530" lon="-4.3429820">
        <ele>737.9</ele>
        <time>2018-03-28T10:45:09Z</time>
      </trkpt>
      <trkpt lat="36.8933380" lon="-4.3429170">
        <ele>737.9</ele>
        <time>2018-03-28T10:45:10Z</time>
      </trkpt>
      <trkpt lat="36.8933380" lon="-4.3429170">
        <ele>738.9</ele>
        <time>2018-03-28T10:45:11Z</time>
      </trkpt>
      <trkpt lat="36.8933070" lon="-4.3428570">
        <ele>738.9</ele>
        <time>2018-03-28T10:45:12Z</time>
      </trkpt>
      <trkpt lat="36.8932920" lon="-4.3428280">
        <ele>738.9</ele>
        <time>2018-03-28T10:45:13Z</time>
      </trkpt>
      <trkpt lat="36.8932920" lon="-4.3428280">
        <ele>738.9</ele>
        <time>2018-03-28T10:45:14Z</time>
      </trkpt>
      <trkpt lat="36.8932500" lon="-4.3427800">
        <ele>738.9</ele>
        <time>2018-03-28T10:45:15Z</time>
      </trkpt>
      <trkpt lat="36.8932500" lon="-4.3427800">
        <ele>738.9</ele>
        <time>2018-03-28T10:45:16Z</time>
      </trkpt>
      <trkpt lat="36.8932070" lon="-4.3427400">
        <ele>739.9</ele>
        <time>2018-03-28T10:45:17Z</time>
      </trkpt>
      <trkpt lat="36.8932070" lon="-4.3427400">
        <ele>739.9</ele>
        <time>2018-03-28T10:45:18Z</time>
      </trkpt>
      <trkpt lat="36.8931630" lon="-4.3427030">
        <ele>739.9</ele>
        <time>2018-03-28T10:45:19Z</time>
      </trkpt>
      <trkpt lat="36.8931630" lon="-4.3427030">
        <ele>739.9</ele>
        <time>2018-03-28T10:45:20Z</time>
      </trkpt>
      <trkpt lat="36.8931130" lon="-4.3426880">
        <ele>739.9</ele>
        <time>2018-03-28T10:45:21Z</time>
      </trkpt>
      <trkpt lat="36.8931130" lon="-4.3426880">
        <ele>739.9</ele>
        <time>2018-03-28T10:45:22Z</time>
      </trkpt>
      <trkpt lat="36.8930630" lon="-4.3426800">
        <ele>739.9</ele>
        <time>2018-03-28T10:45:23Z</time>
      </trkpt>
      <trkpt lat="36.8930630" lon="-4.3426800">
        <ele>739.9</ele>
        <time>2018-03-28T10:45:24Z</time>
      </trkpt>
      <trkpt lat="36.8930130" lon="-4.3426730">
        <ele>739.9</ele>
        <time>2018-03-28T10:45:25Z</time>
      </trkpt>
      <trkpt lat="36.8930130" lon="-4.3426730">
        <ele>740.9</ele>
        <time>2018-03-28T10:45:26Z</time>
      </trkpt>
      <trkpt lat="36.8929600" lon="-4.3426650">
        <ele>740.9</ele>
        <time>2018-03-28T10:45:27Z</time>
      </trkpt>
      <trkpt lat="36.8929600" lon="-4.3426650">
        <ele>740.9</ele>
        <time>2018-03-28T10:45:28Z</time>
      </trkpt>
      <trkpt lat="36.8929080" lon="-4.3426670">
        <ele>740.9</ele>
        <time>2018-03-28T10:45:29Z</time>
      </trkpt>
      <trkpt lat="36.8929080" lon="-4.3426670">
        <ele>741.9</ele>
        <time>2018-03-28T10:45:30Z</time>
      </trkpt>
      <trkpt lat="36.8928620" lon="-4.3426570">
        <ele>741.9</ele>
        <time>2018-03-28T10:45:31Z</time>
      </trkpt>
      <trkpt lat="36.8928620" lon="-4.3426570">
        <ele>741.9</ele>
        <time>2018-03-28T10:45:32Z</time>
      </trkpt>
      <trkpt lat="36.8928080" lon="-4.3426470">
        <ele>741.9</ele>
        <time>2018-03-28T10:45:33Z</time>
      </trkpt>
      <trkpt lat="36.8927820" lon="-4.3426450">
        <ele>741.9</ele>
        <time>2018-03-28T10:45:34Z</time>
      </trkpt>
      <trkpt lat="36.8927820" lon="-4.3426450">
        <ele>741.9</ele>
        <time>2018-03-28T10:45:35Z</time>
      </trkpt>
      <trkpt lat="36.8927330" lon="-4.3426330">
        <ele>742.9</ele>
        <time>2018-03-28T10:45:36Z</time>
      </trkpt>
      <trkpt lat="36.8927130" lon="-4.3426270">
        <ele>742.9</ele>
        <time>2018-03-28T10:45:37Z</time>
      </trkpt>
      <trkpt lat="36.8927130" lon="-4.3426270">
        <ele>742.9</ele>
        <time>2018-03-28T10:45:38Z</time>
      </trkpt>
      <trkpt lat="36.8926680" lon="-4.3426220">
        <ele>742.9</ele>
        <time>2018-03-28T10:45:39Z</time>
      </trkpt>
      <trkpt lat="36.8926680" lon="-4.3426220">
        <ele>743.9</ele>
        <time>2018-03-28T10:45:40Z</time>
      </trkpt>
      <trkpt lat="36.8926220" lon="-4.3426180">
        <ele>743.9</ele>
        <time>2018-03-28T10:45:41Z</time>
      </trkpt>
      <trkpt lat="36.8926220" lon="-4.3426180">
        <ele>743.9</ele>
        <time>2018-03-28T10:45:42Z</time>
      </trkpt>
      <trkpt lat="36.8925750" lon="-4.3425980">
        <ele>744.9</ele>
        <time>2018-03-28T10:45:43Z</time>
      </trkpt>
      <trkpt lat="36.8925750" lon="-4.3425980">
        <ele>744.9</ele>
        <time>2018-03-28T10:45:44Z</time>
      </trkpt>
      <trkpt lat="36.8925320" lon="-4.3425750">
        <ele>744.9</ele>
        <time>2018-03-28T10:45:45Z</time>
      </trkpt>
      <trkpt lat="36.8925070" lon="-4.3425550">
        <ele>744.9</ele>
        <time>2018-03-28T10:45:46Z</time>
      </trkpt>
      <trkpt lat="36.8925070" lon="-4.3425550">
        <ele>744.9</ele>
        <time>2018-03-28T10:45:47Z</time>
      </trkpt>
      <trkpt lat="36.8924620" lon="-4.3425180">
        <ele>744.9</ele>
        <time>2018-03-28T10:45:48Z</time>
      </trkpt>
      <trkpt lat="36.8924370" lon="-4.3425020">
        <ele>744.9</ele>
        <time>2018-03-28T10:45:49Z</time>
      </trkpt>
      <trkpt lat="36.8924370" lon="-4.3425020">
        <ele>744.9</ele>
        <time>2018-03-28T10:45:50Z</time>
      </trkpt>
      <trkpt lat="36.8923980" lon="-4.3424550">
        <ele>744.9</ele>
        <time>2018-03-28T10:45:51Z</time>
      </trkpt>
      <trkpt lat="36.8923850" lon="-4.3424230">
        <ele>744.9</ele>
        <time>2018-03-28T10:45:52Z</time>
      </trkpt>
      <trkpt lat="36.8923850" lon="-4.3424230">
        <ele>744.9</ele>
        <time>2018-03-28T10:45:53Z</time>
      </trkpt>
      <trkpt lat="36.8923620" lon="-4.3423580">
        <ele>744.9</ele>
        <time>2018-03-28T10:45:54Z</time>
      </trkpt>
      <trkpt lat="36.8923520" lon="-4.3423280">
        <ele>745.9</ele>
        <time>2018-03-28T10:45:55Z</time>
      </trkpt>
      <trkpt lat="36.8923520" lon="-4.3423280">
        <ele>745.9</ele>
        <time>2018-03-28T10:45:56Z</time>
      </trkpt>
      <trkpt lat="36.8923250" lon="-4.3422620">
        <ele>745.9</ele>
        <time>2018-03-28T10:45:57Z</time>
      </trkpt>
      <trkpt lat="36.8923250" lon="-4.3422620">
        <ele>745.9</ele>
        <time>2018-03-28T10:45:58Z</time>
      </trkpt>
      <trkpt lat="36.8923020" lon="-4.3421930">
        <ele>745.9</ele>
        <time>2018-03-28T10:45:59Z</time>
      </trkpt>
      <trkpt lat="36.8923020" lon="-4.3421930">
        <ele>745.9</ele>
        <time>2018-03-28T10:46:00Z</time>
      </trkpt>
      <trkpt lat="36.8922630" lon="-4.3421280">
        <ele>745.9</ele>
        <time>2018-03-28T10:46:01Z</time>
      </trkpt>
      <trkpt lat="36.8922630" lon="-4.3421280">
        <ele>745.9</ele>
        <time>2018-03-28T10:46:02Z</time>
      </trkpt>
      <trkpt lat="36.8922280" lon="-4.3420600">
        <ele>745.9</ele>
        <time>2018-03-28T10:46:03Z</time>
      </trkpt>
      <trkpt lat="36.8922100" lon="-4.3420270">
        <ele>745.9</ele>
        <time>2018-03-28T10:46:04Z</time>
      </trkpt>
      <trkpt lat="36.8922100" lon="-4.3420270">
        <ele>746.9</ele>
        <time>2018-03-28T10:46:05Z</time>
      </trkpt>
      <trkpt lat="36.8921720" lon="-4.3419680">
        <ele>746.9</ele>
        <time>2018-03-28T10:46:06Z</time>
      </trkpt>
      <trkpt lat="36.8921480" lon="-4.3419450">
        <ele>746.9</ele>
        <time>2018-03-28T10:46:07Z</time>
      </trkpt>
      <trkpt lat="36.8921480" lon="-4.3419450">
        <ele>746.9</ele>
        <time>2018-03-28T10:46:08Z</time>
      </trkpt>
      <trkpt lat="36.8920970" lon="-4.3419070">
        <ele>746.9</ele>
        <time>2018-03-28T10:46:09Z</time>
      </trkpt>
      <trkpt lat="36.8920970" lon="-4.3419070">
        <ele>746.9</ele>
        <time>2018-03-28T10:46:10Z</time>
      </trkpt>
      <trkpt lat="36.8920420" lon="-4.3418870">
        <ele>746.9</ele>
        <time>2018-03-28T10:46:11Z</time>
      </trkpt>
      <trkpt lat="36.8920420" lon="-4.3418870">
        <ele>746.9</ele>
        <time>2018-03-28T10:46:12Z</time>
      </trkpt>
      <trkpt lat="36.8919870" lon="-4.3418750">
        <ele>748.9</ele>
        <time>2018-03-28T10:46:13Z</time>
      </trkpt>
      <trkpt lat="36.8919870" lon="-4.3418750">
        <ele>748.9</ele>
        <time>2018-03-28T10:46:14Z</time>
      </trkpt>
      <trkpt lat="36.8919280" lon="-4.3418630">
        <ele>748.9</ele>
        <time>2018-03-28T10:46:15Z</time>
      </trkpt>
      <trkpt lat="36.8919280" lon="-4.3418630">
        <ele>748.9</ele>
        <time>2018-03-28T10:46:16Z</time>
      </trkpt>
      <trkpt lat="36.8918650" lon="-4.3418620">
        <ele>748.9</ele>
        <time>2018-03-28T10:46:17Z</time>
      </trkpt>
      <trkpt lat="36.8918650" lon="-4.3418620">
        <ele>748.9</ele>
        <time>2018-03-28T10:46:18Z</time>
      </trkpt>
      <trkpt lat="36.8918180" lon="-4.3418650">
        <ele>748.9</ele>
        <time>2018-03-28T10:46:19Z</time>
      </trkpt>
      <trkpt lat="36.8918180" lon="-4.3418650">
        <ele>749.9</ele>
        <time>2018-03-28T10:46:20Z</time>
      </trkpt>
      <trkpt lat="36.8917670" lon="-4.3418630">
        <ele>749.9</ele>
        <time>2018-03-28T10:46:21Z</time>
      </trkpt>
      <trkpt lat="36.8917670" lon="-4.3418630">
        <ele>749.9</ele>
        <time>2018-03-28T10:46:22Z</time>
      </trkpt>
      <trkpt lat="36.8917150" lon="-4.3418520">
        <ele>749.9</ele>
        <time>2018-03-28T10:46:23Z</time>
      </trkpt>
      <trkpt lat="36.8917150" lon="-4.3418520">
        <ele>750.9</ele>
        <time>2018-03-28T10:46:24Z</time>
      </trkpt>
      <trkpt lat="36.8916680" lon="-4.3418350">
        <ele>750.9</ele>
        <time>2018-03-28T10:46:25Z</time>
      </trkpt>
      <trkpt lat="36.8916680" lon="-4.3418350">
        <ele>750.9</ele>
        <time>2018-03-28T10:46:26Z</time>
      </trkpt>
      <trkpt lat="36.8916180" lon="-4.3418220">
        <ele>750.9</ele>
        <time>2018-03-28T10:46:27Z</time>
      </trkpt>
      <trkpt lat="36.8916180" lon="-4.3418220">
        <ele>750.9</ele>
        <time>2018-03-28T10:46:28Z</time>
      </trkpt>
      <trkpt lat="36.8915550" lon="-4.3418070">
        <ele>751.9</ele>
        <time>2018-03-28T10:46:29Z</time>
      </trkpt>
      <trkpt lat="36.8915420" lon="-4.3418050">
        <ele>751.9</ele>
        <time>2018-03-28T10:46:30Z</time>
      </trkpt>
      <trkpt lat="36.8915150" lon="-4.3418020">
        <ele>751.9</ele>
        <time>2018-03-28T10:46:31Z</time>
      </trkpt>
      <trkpt lat="36.8915150" lon="-4.3418020">
        <ele>751.9</ele>
        <time>2018-03-28T10:46:32Z</time>
      </trkpt>
      <trkpt lat="36.8914630" lon="-4.3417980">
        <ele>752.9</ele>
        <time>2018-03-28T10:46:33Z</time>
      </trkpt>
      <trkpt lat="36.8914630" lon="-4.3417980">
        <ele>752.9</ele>
        <time>2018-03-28T10:46:34Z</time>
      </trkpt>
      <trkpt lat="36.8914130" lon="-4.3417970">
        <ele>752.9</ele>
        <time>2018-03-28T10:46:35Z</time>
      </trkpt>
      <trkpt lat="36.8913880" lon="-4.3417980">
        <ele>752.9</ele>
        <time>2018-03-28T10:46:36Z</time>
      </trkpt>
      <trkpt lat="36.8913630" lon="-4.3418000">
        <ele>753.9</ele>
        <time>2018-03-28T10:46:37Z</time>
      </trkpt>
      <trkpt lat="36.8913630" lon="-4.3418000">
        <ele>753.9</ele>
        <time>2018-03-28T10:46:38Z</time>
      </trkpt>
      <trkpt lat="36.8913170" lon="-4.3418130">
        <ele>753.9</ele>
        <time>2018-03-28T10:46:39Z</time>
      </trkpt>
      <trkpt lat="36.8913170" lon="-4.3418130">
        <ele>753.9</ele>
        <time>2018-03-28T10:46:40Z</time>
      </trkpt>
      <trkpt lat="36.8912720" lon="-4.3418350">
        <ele>753.9</ele>
        <time>2018-03-28T10:46:41Z</time>
      </trkpt>
      <trkpt lat="36.8912720" lon="-4.3418350">
        <ele>753.9</ele>
        <time>2018-03-28T10:46:42Z</time>
      </trkpt>
      <trkpt lat="36.8912320" lon="-4.3418630">
        <ele>753.9</ele>
        <time>2018-03-28T10:46:43Z</time>
      </trkpt>
      <trkpt lat="36.8912320" lon="-4.3418630">
        <ele>754.9</ele>
        <time>2018-03-28T10:46:44Z</time>
      </trkpt>
      <trkpt lat="36.8911930" lon="-4.3418920">
        <ele>754.9</ele>
        <time>2018-03-28T10:46:45Z</time>
      </trkpt>
      <trkpt lat="36.8911930" lon="-4.3418920">
        <ele>754.9</ele>
        <time>2018-03-28T10:46:46Z</time>
      </trkpt>
      <trkpt lat="36.8911600" lon="-4.3419280">
        <ele>754.9</ele>
        <time>2018-03-28T10:46:47Z</time>
      </trkpt>
      <trkpt lat="36.8911600" lon="-4.3419280">
        <ele>754.9</ele>
        <time>2018-03-28T10:46:48Z</time>
      </trkpt>
      <trkpt lat="36.8911280" lon="-4.3419900">
        <ele>754.9</ele>
        <time>2018-03-28T10:46:49Z</time>
      </trkpt>
      <trkpt lat="36.8911280" lon="-4.3419900">
        <ele>754.9</ele>
        <time>2018-03-28T10:46:50Z</time>
      </trkpt>
      <trkpt lat="36.8911050" lon="-4.3420520">
        <ele>755.9</ele>
        <time>2018-03-28T10:46:51Z</time>
      </trkpt>
      <trkpt lat="36.8910970" lon="-4.3420820">
        <ele>755.9</ele>
        <time>2018-03-28T10:46:52Z</time>
      </trkpt>
      <trkpt lat="36.8910970" lon="-4.3420820">
        <ele>755.9</ele>
        <time>2018-03-28T10:46:53Z</time>
      </trkpt>
      <trkpt lat="36.8910850" lon="-4.3421400">
        <ele>755.9</ele>
        <time>2018-03-28T10:46:54Z</time>
      </trkpt>
      <trkpt lat="36.8910850" lon="-4.3421700">
        <ele>756.9</ele>
        <time>2018-03-28T10:46:55Z</time>
      </trkpt>
      <trkpt lat="36.8910860" lon="-4.3422010">
        <ele>756.9</ele>
        <time>2018-03-28T10:46:56Z</time>
      </trkpt>
      <trkpt lat="36.8910870" lon="-4.3422330">
        <ele>756.9</ele>
        <time>2018-03-28T10:46:57Z</time>
      </trkpt>
      <trkpt lat="36.8910870" lon="-4.3422330">
        <ele>756.9</ele>
        <time>2018-03-28T10:46:58Z</time>
      </trkpt>
      <trkpt lat="36.8910900" lon="-4.3422930">
        <ele>757.9</ele>
        <time>2018-03-28T10:46:59Z</time>
      </trkpt>
      <trkpt lat="36.8910900" lon="-4.3422930">
        <ele>757.9</ele>
        <time>2018-03-28T10:47:00Z</time>
      </trkpt>
      <trkpt lat="36.8910980" lon="-4.3423550">
        <ele>757.9</ele>
        <time>2018-03-28T10:47:01Z</time>
      </trkpt>
      <trkpt lat="36.8910980" lon="-4.3423550">
        <ele>757.9</ele>
        <time>2018-03-28T10:47:02Z</time>
      </trkpt>
      <trkpt lat="36.8911080" lon="-4.3424200">
        <ele>757.9</ele>
        <time>2018-03-28T10:47:03Z</time>
      </trkpt>
      <trkpt lat="36.8911080" lon="-4.3424200">
        <ele>757.9</ele>
        <time>2018-03-28T10:47:04Z</time>
      </trkpt>
      <trkpt lat="36.8911170" lon="-4.3424870">
        <ele>758.9</ele>
        <time>2018-03-28T10:47:05Z</time>
      </trkpt>
      <trkpt lat="36.8911170" lon="-4.3424870">
        <ele>758.9</ele>
        <time>2018-03-28T10:47:06Z</time>
      </trkpt>
      <trkpt lat="36.8911250" lon="-4.3425450">
        <ele>758.9</ele>
        <time>2018-03-28T10:47:07Z</time>
      </trkpt>
      <trkpt lat="36.8911250" lon="-4.3425450">
        <ele>758.9</ele>
        <time>2018-03-28T10:47:08Z</time>
      </trkpt>
      <trkpt lat="36.8911330" lon="-4.3426050">
        <ele>759.9</ele>
        <time>2018-03-28T10:47:09Z</time>
      </trkpt>
      <trkpt lat="36.8911350" lon="-4.3426350">
        <ele>759.9</ele>
        <time>2018-03-28T10:47:10Z</time>
      </trkpt>
      <trkpt lat="36.8911390" lon="-4.3426660">
        <ele>759.9</ele>
        <time>2018-03-28T10:47:11Z</time>
      </trkpt>
      <trkpt lat="36.8911420" lon="-4.3426970">
        <ele>759.9</ele>
        <time>2018-03-28T10:47:12Z</time>
      </trkpt>
      <trkpt lat="36.8911420" lon="-4.3426970">
        <ele>759.9</ele>
        <time>2018-03-28T10:47:13Z</time>
      </trkpt>
      <trkpt lat="36.8911450" lon="-4.3427620">
        <ele>759.9</ele>
        <time>2018-03-28T10:47:14Z</time>
      </trkpt>
      <trkpt lat="36.8911450" lon="-4.3427620">
        <ele>760.9</ele>
        <time>2018-03-28T10:47:15Z</time>
      </trkpt>
      <trkpt lat="36.8911430" lon="-4.3428220">
        <ele>760.9</ele>
        <time>2018-03-28T10:47:16Z</time>
      </trkpt>
      <trkpt lat="36.8911430" lon="-4.3428220">
        <ele>760.9</ele>
        <time>2018-03-28T10:47:17Z</time>
      </trkpt>
      <trkpt lat="36.8911370" lon="-4.3428820">
        <ele>761.9</ele>
        <time>2018-03-28T10:47:18Z</time>
      </trkpt>
      <trkpt lat="36.8911300" lon="-4.3429080">
        <ele>761.9</ele>
        <time>2018-03-28T10:47:19Z</time>
      </trkpt>
      <trkpt lat="36.8911300" lon="-4.3429080">
        <ele>761.9</ele>
        <time>2018-03-28T10:47:20Z</time>
      </trkpt>
      <trkpt lat="36.8911020" lon="-4.3429670">
        <ele>761.9</ele>
        <time>2018-03-28T10:47:21Z</time>
      </trkpt>
      <trkpt lat="36.8910830" lon="-4.3429970">
        <ele>761.9</ele>
        <time>2018-03-28T10:47:22Z</time>
      </trkpt>
      <trkpt lat="36.8910830" lon="-4.3429970">
        <ele>761.9</ele>
        <time>2018-03-28T10:47:23Z</time>
      </trkpt>
      <trkpt lat="36.8910430" lon="-4.3430570">
        <ele>762.9</ele>
        <time>2018-03-28T10:47:24Z</time>
      </trkpt>
      <trkpt lat="36.8910430" lon="-4.3430570">
        <ele>762.9</ele>
        <time>2018-03-28T10:47:25Z</time>
      </trkpt>
      <trkpt lat="36.8910050" lon="-4.3431100">
        <ele>762.9</ele>
        <time>2018-03-28T10:47:26Z</time>
      </trkpt>
      <trkpt lat="36.8910050" lon="-4.3431100">
        <ele>762.9</ele>
        <time>2018-03-28T10:47:27Z</time>
      </trkpt>
      <trkpt lat="36.8909550" lon="-4.3431500">
        <ele>762.9</ele>
        <time>2018-03-28T10:47:28Z</time>
      </trkpt>
      <trkpt lat="36.8909550" lon="-4.3431500">
        <ele>762.9</ele>
        <time>2018-03-28T10:47:29Z</time>
      </trkpt>
      <trkpt lat="36.8909020" lon="-4.3431920">
        <ele>763.9</ele>
        <time>2018-03-28T10:47:30Z</time>
      </trkpt>
      <trkpt lat="36.8908750" lon="-4.3432120">
        <ele>763.9</ele>
        <time>2018-03-28T10:47:31Z</time>
      </trkpt>
      <trkpt lat="36.8908750" lon="-4.3432120">
        <ele>763.9</ele>
        <time>2018-03-28T10:47:32Z</time>
      </trkpt>
      <trkpt lat="36.8908170" lon="-4.3432350">
        <ele>763.9</ele>
        <time>2018-03-28T10:47:33Z</time>
      </trkpt>
      <trkpt lat="36.8908170" lon="-4.3432350">
        <ele>763.9</ele>
        <time>2018-03-28T10:47:34Z</time>
      </trkpt>
      <trkpt lat="36.8907580" lon="-4.3432670">
        <ele>763.9</ele>
        <time>2018-03-28T10:47:35Z</time>
      </trkpt>
      <trkpt lat="36.8907580" lon="-4.3432670">
        <ele>764.9</ele>
        <time>2018-03-28T10:47:36Z</time>
      </trkpt>
      <trkpt lat="36.8906900" lon="-4.3432970">
        <ele>764.9</ele>
        <time>2018-03-28T10:47:37Z</time>
      </trkpt>
      <trkpt lat="36.8906900" lon="-4.3432970">
        <ele>764.9</ele>
        <time>2018-03-28T10:47:38Z</time>
      </trkpt>
      <trkpt lat="36.8906130" lon="-4.3433300">
        <ele>764.9</ele>
        <time>2018-03-28T10:47:39Z</time>
      </trkpt>
      <trkpt lat="36.8905770" lon="-4.3433470">
        <ele>764.9</ele>
        <time>2018-03-28T10:47:40Z</time>
      </trkpt>
      <trkpt lat="36.8905420" lon="-4.3433630">
        <ele>764.9</ele>
        <time>2018-03-28T10:47:41Z</time>
      </trkpt>
      <trkpt lat="36.8905420" lon="-4.3433630">
        <ele>764.9</ele>
        <time>2018-03-28T10:47:42Z</time>
      </trkpt>
      <trkpt lat="36.8904770" lon="-4.3434170">
        <ele>764.9</ele>
        <time>2018-03-28T10:47:43Z</time>
      </trkpt>
      <trkpt lat="36.8904770" lon="-4.3434170">
        <ele>764.9</ele>
        <time>2018-03-28T10:47:44Z</time>
      </trkpt>
      <trkpt lat="36.8904100" lon="-4.3434770">
        <ele>764.9</ele>
        <time>2018-03-28T10:47:45Z</time>
      </trkpt>
      <trkpt lat="36.8903770" lon="-4.3435050">
        <ele>764.9</ele>
        <time>2018-03-28T10:47:46Z</time>
      </trkpt>
      <trkpt lat="36.8903770" lon="-4.3435050">
        <ele>764.9</ele>
        <time>2018-03-28T10:47:47Z</time>
      </trkpt>
      <trkpt lat="36.8903070" lon="-4.3435520">
        <ele>764.9</ele>
        <time>2018-03-28T10:47:48Z</time>
      </trkpt>
      <trkpt lat="36.8902730" lon="-4.3435800">
        <ele>765.9</ele>
        <time>2018-03-28T10:47:49Z</time>
      </trkpt>
      <trkpt lat="36.8902730" lon="-4.3435800">
        <ele>765.9</ele>
        <time>2018-03-28T10:47:50Z</time>
      </trkpt>
      <trkpt lat="36.8902080" lon="-4.3436400">
        <ele>765.9</ele>
        <time>2018-03-28T10:47:51Z</time>
      </trkpt>
      <trkpt lat="36.8902080" lon="-4.3436400">
        <ele>765.9</ele>
        <time>2018-03-28T10:47:52Z</time>
      </trkpt>
      <trkpt lat="36.8901520" lon="-4.3437080">
        <ele>765.9</ele>
        <time>2018-03-28T10:47:53Z</time>
      </trkpt>
      <trkpt lat="36.8901520" lon="-4.3437080">
        <ele>765.9</ele>
        <time>2018-03-28T10:47:54Z</time>
      </trkpt>
      <trkpt lat="36.8900980" lon="-4.3437850">
        <ele>765.9</ele>
        <time>2018-03-28T10:47:55Z</time>
      </trkpt>
      <trkpt lat="36.8900980" lon="-4.3437850">
        <ele>765.9</ele>
        <time>2018-03-28T10:47:56Z</time>
      </trkpt>
      <trkpt lat="36.8900420" lon="-4.3438620">
        <ele>766.9</ele>
        <time>2018-03-28T10:47:57Z</time>
      </trkpt>
      <trkpt lat="36.8900420" lon="-4.3438620">
        <ele>766.9</ele>
        <time>2018-03-28T10:47:58Z</time>
      </trkpt>
      <trkpt lat="36.8899900" lon="-4.3439430">
        <ele>766.9</ele>
        <time>2018-03-28T10:47:59Z</time>
      </trkpt>
      <trkpt lat="36.8899650" lon="-4.3439850">
        <ele>766.9</ele>
        <time>2018-03-28T10:48:00Z</time>
      </trkpt>
      <trkpt lat="36.8899420" lon="-4.3440270">
        <ele>766.9</ele>
        <time>2018-03-28T10:48:01Z</time>
      </trkpt>
      <trkpt lat="36.8899420" lon="-4.3440270">
        <ele>766.9</ele>
        <time>2018-03-28T10:48:02Z</time>
      </trkpt>
      <trkpt lat="36.8898900" lon="-4.3441130">
        <ele>766.9</ele>
        <time>2018-03-28T10:48:03Z</time>
      </trkpt>
      <trkpt lat="36.8898900" lon="-4.3441130">
        <ele>766.9</ele>
        <time>2018-03-28T10:48:04Z</time>
      </trkpt>
      <trkpt lat="36.8898400" lon="-4.3441980">
        <ele>766.9</ele>
        <time>2018-03-28T10:48:05Z</time>
      </trkpt>
      <trkpt lat="36.8898400" lon="-4.3441980">
        <ele>766.9</ele>
        <time>2018-03-28T10:48:06Z</time>
      </trkpt>
      <trkpt lat="36.8897920" lon="-4.3443000">
        <ele>766.9</ele>
        <time>2018-03-28T10:48:07Z</time>
      </trkpt>
      <trkpt lat="36.8897920" lon="-4.3443000">
        <ele>766.9</ele>
        <time>2018-03-28T10:48:08Z</time>
      </trkpt>
      <trkpt lat="36.8897320" lon="-4.3443880">
        <ele>766.9</ele>
        <time>2018-03-28T10:48:09Z</time>
      </trkpt>
      <trkpt lat="36.8897050" lon="-4.3444370">
        <ele>766.9</ele>
        <time>2018-03-28T10:48:10Z</time>
      </trkpt>
      <trkpt lat="36.8897050" lon="-4.3444370">
        <ele>766.9</ele>
        <time>2018-03-28T10:48:11Z</time>
      </trkpt>
      <trkpt lat="36.8896480" lon="-4.3445300">
        <ele>766.9</ele>
        <time>2018-03-28T10:48:12Z</time>
      </trkpt>
      <trkpt lat="36.8896480" lon="-4.3445300">
        <ele>766.9</ele>
        <time>2018-03-28T10:48:13Z</time>
      </trkpt>
      <trkpt lat="36.8895930" lon="-4.3446250">
        <ele>766.9</ele>
        <time>2018-03-28T10:48:14Z</time>
      </trkpt>
      <trkpt lat="36.8895930" lon="-4.3446250">
        <ele>766.9</ele>
        <time>2018-03-28T10:48:15Z</time>
      </trkpt>
      <trkpt lat="36.8895330" lon="-4.3447170">
        <ele>766.9</ele>
        <time>2018-03-28T10:48:16Z</time>
      </trkpt>
      <trkpt lat="36.8895330" lon="-4.3447170">
        <ele>766.9</ele>
        <time>2018-03-28T10:48:17Z</time>
      </trkpt>
      <trkpt lat="36.8894720" lon="-4.3448130">
        <ele>766.9</ele>
        <time>2018-03-28T10:48:18Z</time>
      </trkpt>
      <trkpt lat="36.8894720" lon="-4.3448130">
        <ele>766.9</ele>
        <time>2018-03-28T10:48:19Z</time>
      </trkpt>
      <trkpt lat="36.8894150" lon="-4.3449100">
        <ele>766.9</ele>
        <time>2018-03-28T10:48:20Z</time>
      </trkpt>
      <trkpt lat="36.8894150" lon="-4.3449100">
        <ele>767.9</ele>
        <time>2018-03-28T10:48:21Z</time>
      </trkpt>
      <trkpt lat="36.8893620" lon="-4.3450000">
        <ele>767.9</ele>
        <time>2018-03-28T10:48:22Z</time>
      </trkpt>
      <trkpt lat="36.8893620" lon="-4.3450000">
        <ele>767.9</ele>
        <time>2018-03-28T10:48:23Z</time>
      </trkpt>
      <trkpt lat="36.8893030" lon="-4.3450830">
        <ele>767.9</ele>
        <time>2018-03-28T10:48:24Z</time>
      </trkpt>
      <trkpt lat="36.8892750" lon="-4.3451230">
        <ele>767.9</ele>
        <time>2018-03-28T10:48:25Z</time>
      </trkpt>
      <trkpt lat="36.8892750" lon="-4.3451230">
        <ele>767.9</ele>
        <time>2018-03-28T10:48:26Z</time>
      </trkpt>
      <trkpt lat="36.8892180" lon="-4.3451920">
        <ele>767.9</ele>
        <time>2018-03-28T10:48:27Z</time>
      </trkpt>
      <trkpt lat="36.8892180" lon="-4.3451920">
        <ele>767.9</ele>
        <time>2018-03-28T10:48:28Z</time>
      </trkpt>
      <trkpt lat="36.8891580" lon="-4.3452400">
        <ele>767.9</ele>
        <time>2018-03-28T10:48:29Z</time>
      </trkpt>
      <trkpt lat="36.8891230" lon="-4.3452570">
        <ele>767.9</ele>
        <time>2018-03-28T10:48:30Z</time>
      </trkpt>
      <trkpt lat="36.8890800" lon="-4.3452760">
        <ele>768.9</ele>
        <time>2018-03-28T10:48:31Z</time>
      </trkpt>
      <trkpt lat="36.8890720" lon="-4.3452780">
        <ele>768.9</ele>
        <time>2018-03-28T10:48:32Z</time>
      </trkpt>
      <trkpt lat="36.8890550" lon="-4.3452830">
        <ele>768.9</ele>
        <time>2018-03-28T10:48:33Z</time>
      </trkpt>
      <trkpt lat="36.8889820" lon="-4.3452970">
        <ele>768.9</ele>
        <time>2018-03-28T10:48:34Z</time>
      </trkpt>
      <trkpt lat="36.8889820" lon="-4.3452970">
        <ele>768.9</ele>
        <time>2018-03-28T10:48:35Z</time>
      </trkpt>
      <trkpt lat="36.8888980" lon="-4.3452880">
        <ele>768.9</ele>
        <time>2018-03-28T10:48:36Z</time>
      </trkpt>
      <trkpt lat="36.8888530" lon="-4.3452770">
        <ele>768.9</ele>
        <time>2018-03-28T10:48:37Z</time>
      </trkpt>
      <trkpt lat="36.8888530" lon="-4.3452770">
        <ele>768.9</ele>
        <time>2018-03-28T10:48:38Z</time>
      </trkpt>
      <trkpt lat="36.8887670" lon="-4.3452580">
        <ele>768.9</ele>
        <time>2018-03-28T10:48:39Z</time>
      </trkpt>
      <trkpt lat="36.8887280" lon="-4.3452500">
        <ele>768.9</ele>
        <time>2018-03-28T10:48:40Z</time>
      </trkpt>
      <trkpt lat="36.8887280" lon="-4.3452500">
        <ele>768.9</ele>
        <time>2018-03-28T10:48:41Z</time>
      </trkpt>
      <trkpt lat="36.8886600" lon="-4.3452380">
        <ele>768.9</ele>
        <time>2018-03-28T10:48:42Z</time>
      </trkpt>
      <trkpt lat="36.8886600" lon="-4.3452380">
        <ele>768.9</ele>
        <time>2018-03-28T10:48:43Z</time>
      </trkpt>
      <trkpt lat="36.8885640" lon="-4.3452040">
        <ele>769.9</ele>
        <time>2018-03-28T10:48:44Z</time>
      </trkpt>
      <trkpt lat="36.8885410" lon="-4.3451910">
        <ele>769.9</ele>
        <time>2018-03-28T10:48:45Z</time>
      </trkpt>
      <trkpt lat="36.8885170" lon="-4.3451780">
        <ele>769.9</ele>
        <time>2018-03-28T10:48:46Z</time>
      </trkpt>
      <trkpt lat="36.8885170" lon="-4.3451780">
        <ele>769.9</ele>
        <time>2018-03-28T10:48:47Z</time>
      </trkpt>
      <trkpt lat="36.8884520" lon="-4.3451150">
        <ele>769.9</ele>
        <time>2018-03-28T10:48:48Z</time>
      </trkpt>
      <trkpt lat="36.8884520" lon="-4.3451150">
        <ele>769.9</ele>
        <time>2018-03-28T10:48:49Z</time>
      </trkpt>
      <trkpt lat="36.8884000" lon="-4.3450450">
        <ele>769.9</ele>
        <time>2018-03-28T10:48:50Z</time>
      </trkpt>
      <trkpt lat="36.8884000" lon="-4.3450450">
        <ele>769.9</ele>
        <time>2018-03-28T10:48:51Z</time>
      </trkpt>
      <trkpt lat="36.8883670" lon="-4.3449700">
        <ele>769.9</ele>
        <time>2018-03-28T10:48:52Z</time>
      </trkpt>
      <trkpt lat="36.8883550" lon="-4.3449320">
        <ele>769.9</ele>
        <time>2018-03-28T10:48:53Z</time>
      </trkpt>
      <trkpt lat="36.8883550" lon="-4.3449320">
        <ele>770.9</ele>
        <time>2018-03-28T10:48:54Z</time>
      </trkpt>
      <trkpt lat="36.8883330" lon="-4.3448550">
        <ele>770.9</ele>
        <time>2018-03-28T10:48:55Z</time>
      </trkpt>
      <trkpt lat="36.8883330" lon="-4.3448550">
        <ele>770.9</ele>
        <time>2018-03-28T10:48:56Z</time>
      </trkpt>
      <trkpt lat="36.8883220" lon="-4.3447680">
        <ele>770.9</ele>
        <time>2018-03-28T10:48:57Z</time>
      </trkpt>
      <trkpt lat="36.8883220" lon="-4.3447680">
        <ele>771.9</ele>
        <time>2018-03-28T10:48:58Z</time>
      </trkpt>
      <trkpt lat="36.8883120" lon="-4.3446800">
        <ele>771.9</ele>
        <time>2018-03-28T10:48:59Z</time>
      </trkpt>
      <trkpt lat="36.8883020" lon="-4.3446350">
        <ele>771.9</ele>
        <time>2018-03-28T10:49:00Z</time>
      </trkpt>
      <trkpt lat="36.8883020" lon="-4.3446350">
        <ele>771.9</ele>
        <time>2018-03-28T10:49:01Z</time>
      </trkpt>
      <trkpt lat="36.8882870" lon="-4.3445530">
        <ele>771.9</ele>
        <time>2018-03-28T10:49:02Z</time>
      </trkpt>
      <trkpt lat="36.8882870" lon="-4.3445530">
        <ele>771.9</ele>
        <time>2018-03-28T10:49:03Z</time>
      </trkpt>
      <trkpt lat="36.8882670" lon="-4.3444780">
        <ele>771.9</ele>
        <time>2018-03-28T10:49:04Z</time>
      </trkpt>
      <trkpt lat="36.8882550" lon="-4.3444400">
        <ele>771.9</ele>
        <time>2018-03-28T10:49:05Z</time>
      </trkpt>
      <trkpt lat="36.8882550" lon="-4.3444400">
        <ele>772.9</ele>
        <time>2018-03-28T10:49:06Z</time>
      </trkpt>
      <trkpt lat="36.8882280" lon="-4.3443670">
        <ele>772.9</ele>
        <time>2018-03-28T10:49:07Z</time>
      </trkpt>
      <trkpt lat="36.8882280" lon="-4.3443670">
        <ele>772.9</ele>
        <time>2018-03-28T10:49:08Z</time>
      </trkpt>
      <trkpt lat="36.8881930" lon="-4.3442950">
        <ele>772.9</ele>
        <time>2018-03-28T10:49:09Z</time>
      </trkpt>
      <trkpt lat="36.8881930" lon="-4.3442950">
        <ele>772.9</ele>
        <time>2018-03-28T10:49:10Z</time>
      </trkpt>
      <trkpt lat="36.8881580" lon="-4.3442250">
        <ele>773.9</ele>
        <time>2018-03-28T10:49:11Z</time>
      </trkpt>
      <trkpt lat="36.8881430" lon="-4.3441880">
        <ele>773.9</ele>
        <time>2018-03-28T10:49:12Z</time>
      </trkpt>
      <trkpt lat="36.8881280" lon="-4.3441520">
        <ele>773.9</ele>
        <time>2018-03-28T10:49:13Z</time>
      </trkpt>
      <trkpt lat="36.8881280" lon="-4.3441520">
        <ele>773.9</ele>
        <time>2018-03-28T10:49:14Z</time>
      </trkpt>
      <trkpt lat="36.8880920" lon="-4.3440800">
        <ele>773.9</ele>
        <time>2018-03-28T10:49:15Z</time>
      </trkpt>
      <trkpt lat="36.8880920" lon="-4.3440800">
        <ele>773.9</ele>
        <time>2018-03-28T10:49:16Z</time>
      </trkpt>
      <trkpt lat="36.8880570" lon="-4.3440080">
        <ele>774.9</ele>
        <time>2018-03-28T10:49:17Z</time>
      </trkpt>
      <trkpt lat="36.8880570" lon="-4.3440080">
        <ele>774.9</ele>
        <time>2018-03-28T10:49:18Z</time>
      </trkpt>
      <trkpt lat="36.8880320" lon="-4.3439370">
        <ele>774.9</ele>
        <time>2018-03-28T10:49:19Z</time>
      </trkpt>
      <trkpt lat="36.8880320" lon="-4.3439370">
        <ele>774.9</ele>
        <time>2018-03-28T10:49:20Z</time>
      </trkpt>
      <trkpt lat="36.8880030" lon="-4.3438630">
        <ele>774.9</ele>
        <time>2018-03-28T10:49:21Z</time>
      </trkpt>
      <trkpt lat="36.8880030" lon="-4.3438630">
        <ele>774.9</ele>
        <time>2018-03-28T10:49:22Z</time>
      </trkpt>
      <trkpt lat="36.8879680" lon="-4.3437900">
        <ele>774.9</ele>
        <time>2018-03-28T10:49:23Z</time>
      </trkpt>
      <trkpt lat="36.8879680" lon="-4.3437900">
        <ele>775.9</ele>
        <time>2018-03-28T10:49:24Z</time>
      </trkpt>
      <trkpt lat="36.8879200" lon="-4.3437250">
        <ele>775.9</ele>
        <time>2018-03-28T10:49:25Z</time>
      </trkpt>
      <trkpt lat="36.8879200" lon="-4.3437250">
        <ele>775.9</ele>
        <time>2018-03-28T10:49:26Z</time>
      </trkpt>
      <trkpt lat="36.8878680" lon="-4.3436680">
        <ele>775.9</ele>
        <time>2018-03-28T10:49:27Z</time>
      </trkpt>
      <trkpt lat="36.8878680" lon="-4.3436680">
        <ele>775.9</ele>
        <time>2018-03-28T10:49:28Z</time>
      </trkpt>
      <trkpt lat="36.8878080" lon="-4.3436270">
        <ele>775.9</ele>
        <time>2018-03-28T10:49:29Z</time>
      </trkpt>
      <trkpt lat="36.8878080" lon="-4.3436270">
        <ele>775.9</ele>
        <time>2018-03-28T10:49:30Z</time>
      </trkpt>
      <trkpt lat="36.8877500" lon="-4.3435880">
        <ele>775.9</ele>
        <time>2018-03-28T10:49:31Z</time>
      </trkpt>
      <trkpt lat="36.8877500" lon="-4.3435880">
        <ele>776.9</ele>
        <time>2018-03-28T10:49:32Z</time>
      </trkpt>
      <trkpt lat="36.8876850" lon="-4.3435430">
        <ele>776.9</ele>
        <time>2018-03-28T10:49:33Z</time>
      </trkpt>
      <trkpt lat="36.8876850" lon="-4.3435430">
        <ele>776.9</ele>
        <time>2018-03-28T10:49:34Z</time>
      </trkpt>
      <trkpt lat="36.8876180" lon="-4.3435000">
        <ele>776.9</ele>
        <time>2018-03-28T10:49:35Z</time>
      </trkpt>
      <trkpt lat="36.8875850" lon="-4.3434750">
        <ele>776.9</ele>
        <time>2018-03-28T10:49:36Z</time>
      </trkpt>
      <trkpt lat="36.8875850" lon="-4.3434750">
        <ele>776.9</ele>
        <time>2018-03-28T10:49:37Z</time>
      </trkpt>
      <trkpt lat="36.8875220" lon="-4.3434270">
        <ele>776.9</ele>
        <time>2018-03-28T10:49:38Z</time>
      </trkpt>
      <trkpt lat="36.8874830" lon="-4.3434050">
        <ele>777.9</ele>
        <time>2018-03-28T10:49:39Z</time>
      </trkpt>
      <trkpt lat="36.8874830" lon="-4.3434050">
        <ele>777.9</ele>
        <time>2018-03-28T10:49:40Z</time>
      </trkpt>
      <trkpt lat="36.8874120" lon="-4.3433700">
        <ele>777.9</ele>
        <time>2018-03-28T10:49:41Z</time>
      </trkpt>
      <trkpt lat="36.8873730" lon="-4.3433650">
        <ele>777.9</ele>
        <time>2018-03-28T10:49:42Z</time>
      </trkpt>
      <trkpt lat="36.8873330" lon="-4.3433680">
        <ele>777.9</ele>
        <time>2018-03-28T10:49:43Z</time>
      </trkpt>
      <trkpt lat="36.8873330" lon="-4.3433680">
        <ele>777.9</ele>
        <time>2018-03-28T10:49:44Z</time>
      </trkpt>
      <trkpt lat="36.8872620" lon="-4.3433970">
        <ele>777.9</ele>
        <time>2018-03-28T10:49:45Z</time>
      </trkpt>
      <trkpt lat="36.8872300" lon="-4.3434170">
        <ele>777.9</ele>
        <time>2018-03-28T10:49:46Z</time>
      </trkpt>
      <trkpt lat="36.8872300" lon="-4.3434170">
        <ele>777.9</ele>
        <time>2018-03-28T10:49:47Z</time>
      </trkpt>
      <trkpt lat="36.8871780" lon="-4.3434720">
        <ele>777.9</ele>
        <time>2018-03-28T10:49:48Z</time>
      </trkpt>
      <trkpt lat="36.8871530" lon="-4.3435070">
        <ele>777.9</ele>
        <time>2018-03-28T10:49:49Z</time>
      </trkpt>
      <trkpt lat="36.8871530" lon="-4.3435070">
        <ele>777.9</ele>
        <time>2018-03-28T10:49:50Z</time>
      </trkpt>
      <trkpt lat="36.8871150" lon="-4.3435830">
        <ele>778.9</ele>
        <time>2018-03-28T10:49:51Z</time>
      </trkpt>
      <trkpt lat="36.8871150" lon="-4.3435830">
        <ele>778.9</ele>
        <time>2018-03-28T10:49:52Z</time>
      </trkpt>
      <trkpt lat="36.8870770" lon="-4.3436580">
        <ele>778.9</ele>
        <time>2018-03-28T10:49:53Z</time>
      </trkpt>
      <trkpt lat="36.8870520" lon="-4.3436900">
        <ele>778.9</ele>
        <time>2018-03-28T10:49:54Z</time>
      </trkpt>
      <trkpt lat="36.8870520" lon="-4.3436900">
        <ele>779.9</ele>
        <time>2018-03-28T10:49:55Z</time>
      </trkpt>
      <trkpt lat="36.8869970" lon="-4.3437500">
        <ele>779.9</ele>
        <time>2018-03-28T10:49:56Z</time>
      </trkpt>
      <trkpt lat="36.8869970" lon="-4.3437500">
        <ele>779.9</ele>
        <time>2018-03-28T10:49:57Z</time>
      </trkpt>
      <trkpt lat="36.8869380" lon="-4.3438020">
        <ele>779.9</ele>
        <time>2018-03-28T10:49:58Z</time>
      </trkpt>
      <trkpt lat="36.8869380" lon="-4.3438020">
        <ele>779.9</ele>
        <time>2018-03-28T10:49:59Z</time>
      </trkpt>
      <trkpt lat="36.8868800" lon="-4.3438400">
        <ele>779.9</ele>
        <time>2018-03-28T10:50:00Z</time>
      </trkpt>
      <trkpt lat="36.8868450" lon="-4.3438520">
        <ele>780.9</ele>
        <time>2018-03-28T10:50:01Z</time>
      </trkpt>
      <trkpt lat="36.8868450" lon="-4.3438520">
        <ele>780.9</ele>
        <time>2018-03-28T10:50:02Z</time>
      </trkpt>
      <trkpt lat="36.8867700" lon="-4.3438600">
        <ele>780.9</ele>
        <time>2018-03-28T10:50:03Z</time>
      </trkpt>
      <trkpt lat="36.8867700" lon="-4.3438600">
        <ele>780.9</ele>
        <time>2018-03-28T10:50:04Z</time>
      </trkpt>
      <trkpt lat="36.8866950" lon="-4.3438630">
        <ele>780.9</ele>
        <time>2018-03-28T10:50:05Z</time>
      </trkpt>
      <trkpt lat="36.8866580" lon="-4.3438670">
        <ele>781.9</ele>
        <time>2018-03-28T10:50:06Z</time>
      </trkpt>
      <trkpt lat="36.8866220" lon="-4.3438730">
        <ele>781.9</ele>
        <time>2018-03-28T10:50:07Z</time>
      </trkpt>
      <trkpt lat="36.8866220" lon="-4.3438730">
        <ele>781.9</ele>
        <time>2018-03-28T10:50:08Z</time>
      </trkpt>
      <trkpt lat="36.8865520" lon="-4.3438830">
        <ele>781.9</ele>
        <time>2018-03-28T10:50:09Z</time>
      </trkpt>
      <trkpt lat="36.8865520" lon="-4.3438830">
        <ele>781.9</ele>
        <time>2018-03-28T10:50:10Z</time>
      </trkpt>
      <trkpt lat="36.8864820" lon="-4.3438880">
        <ele>781.9</ele>
        <time>2018-03-28T10:50:11Z</time>
      </trkpt>
      <trkpt lat="36.8864820" lon="-4.3438880">
        <ele>781.9</ele>
        <time>2018-03-28T10:50:12Z</time>
      </trkpt>
      <trkpt lat="36.8864120" lon="-4.3438930">
        <ele>781.9</ele>
        <time>2018-03-28T10:50:13Z</time>
      </trkpt>
      <trkpt lat="36.8864120" lon="-4.3438930">
        <ele>782.9</ele>
        <time>2018-03-28T10:50:14Z</time>
      </trkpt>
      <trkpt lat="36.8863380" lon="-4.3438930">
        <ele>782.9</ele>
        <time>2018-03-28T10:50:15Z</time>
      </trkpt>
      <trkpt lat="36.8863380" lon="-4.3438930">
        <ele>782.9</ele>
        <time>2018-03-28T10:50:16Z</time>
      </trkpt>
      <trkpt lat="36.8862630" lon="-4.3438780">
        <ele>782.9</ele>
        <time>2018-03-28T10:50:17Z</time>
      </trkpt>
      <trkpt lat="36.8862630" lon="-4.3438780">
        <ele>782.9</ele>
        <time>2018-03-28T10:50:18Z</time>
      </trkpt>
      <trkpt lat="36.8861850" lon="-4.3438680">
        <ele>782.9</ele>
        <time>2018-03-28T10:50:19Z</time>
      </trkpt>
      <trkpt lat="36.8861850" lon="-4.3438680">
        <ele>782.9</ele>
        <time>2018-03-28T10:50:20Z</time>
      </trkpt>
      <trkpt lat="36.8861050" lon="-4.3438570">
        <ele>782.9</ele>
        <time>2018-03-28T10:50:21Z</time>
      </trkpt>
      <trkpt lat="36.8860650" lon="-4.3438480">
        <ele>783.9</ele>
        <time>2018-03-28T10:50:22Z</time>
      </trkpt>
      <trkpt lat="36.8860650" lon="-4.3438480">
        <ele>783.9</ele>
        <time>2018-03-28T10:50:23Z</time>
      </trkpt>
      <trkpt lat="36.8859870" lon="-4.3438300">
        <ele>783.9</ele>
        <time>2018-03-28T10:50:24Z</time>
      </trkpt>
      <trkpt lat="36.8859870" lon="-4.3438300">
        <ele>783.9</ele>
        <time>2018-03-28T10:50:25Z</time>
      </trkpt>
      <trkpt lat="36.8859050" lon="-4.3438150">
        <ele>783.9</ele>
        <time>2018-03-28T10:50:26Z</time>
      </trkpt>
      <trkpt lat="36.8859050" lon="-4.3438150">
        <ele>783.9</ele>
        <time>2018-03-28T10:50:27Z</time>
      </trkpt>
      <trkpt lat="36.8858200" lon="-4.3437950">
        <ele>783.9</ele>
        <time>2018-03-28T10:50:28Z</time>
      </trkpt>
      <trkpt lat="36.8857750" lon="-4.3437800">
        <ele>783.9</ele>
        <time>2018-03-28T10:50:29Z</time>
      </trkpt>
      <trkpt lat="36.8857750" lon="-4.3437800">
        <ele>783.9</ele>
        <time>2018-03-28T10:50:30Z</time>
      </trkpt>
      <trkpt lat="36.8856920" lon="-4.3437320">
        <ele>783.9</ele>
        <time>2018-03-28T10:50:31Z</time>
      </trkpt>
      <trkpt lat="36.8856920" lon="-4.3437320">
        <ele>783.9</ele>
        <time>2018-03-28T10:50:32Z</time>
      </trkpt>
      <trkpt lat="36.8856220" lon="-4.3436570">
        <ele>783.9</ele>
        <time>2018-03-28T10:50:33Z</time>
      </trkpt>
      <trkpt lat="36.8856220" lon="-4.3436570">
        <ele>783.9</ele>
        <time>2018-03-28T10:50:34Z</time>
      </trkpt>
      <trkpt lat="36.8855680" lon="-4.3435700">
        <ele>783.9</ele>
        <time>2018-03-28T10:50:35Z</time>
      </trkpt>
      <trkpt lat="36.8855430" lon="-4.3435280">
        <ele>783.9</ele>
        <time>2018-03-28T10:50:36Z</time>
      </trkpt>
      <trkpt lat="36.8855430" lon="-4.3435280">
        <ele>784.9</ele>
        <time>2018-03-28T10:50:37Z</time>
      </trkpt>
      <trkpt lat="36.8855020" lon="-4.3434420">
        <ele>784.9</ele>
        <time>2018-03-28T10:50:38Z</time>
      </trkpt>
      <trkpt lat="36.8855020" lon="-4.3434420">
        <ele>784.9</ele>
        <time>2018-03-28T10:50:39Z</time>
      </trkpt>
      <trkpt lat="36.8854580" lon="-4.3433430">
        <ele>784.9</ele>
        <time>2018-03-28T10:50:40Z</time>
      </trkpt>
      <trkpt lat="36.8854370" lon="-4.3432920">
        <ele>784.9</ele>
        <time>2018-03-28T10:50:41Z</time>
      </trkpt>
      <trkpt lat="36.8854370" lon="-4.3432920">
        <ele>784.9</ele>
        <time>2018-03-28T10:50:42Z</time>
      </trkpt>
      <trkpt lat="36.8853920" lon="-4.3431970">
        <ele>784.9</ele>
        <time>2018-03-28T10:50:43Z</time>
      </trkpt>
      <trkpt lat="36.8853920" lon="-4.3431970">
        <ele>784.9</ele>
        <time>2018-03-28T10:50:44Z</time>
      </trkpt>
      <trkpt lat="36.8853380" lon="-4.3430970">
        <ele>784.9</ele>
        <time>2018-03-28T10:50:45Z</time>
      </trkpt>
      <trkpt lat="36.8853380" lon="-4.3430970">
        <ele>784.9</ele>
        <time>2018-03-28T10:50:46Z</time>
      </trkpt>
      <trkpt lat="36.8852700" lon="-4.3430030">
        <ele>784.9</ele>
        <time>2018-03-28T10:50:47Z</time>
      </trkpt>
      <trkpt lat="36.8852230" lon="-4.3429680">
        <ele>784.9</ele>
        <time>2018-03-28T10:50:48Z</time>
      </trkpt>
      <trkpt lat="36.8851760" lon="-4.3429340">
        <ele>784.9</ele>
        <time>2018-03-28T10:50:49Z</time>
      </trkpt>
      <trkpt lat="36.8851290" lon="-4.3428990">
        <ele>784.9</ele>
        <time>2018-03-28T10:50:50Z</time>
      </trkpt>
      <trkpt lat="36.8850800" lon="-4.3428680">
        <ele>784.9</ele>
        <time>2018-03-28T10:50:51Z</time>
      </trkpt>
      <trkpt lat="36.8850300" lon="-4.3428380">
        <ele>784.9</ele>
        <time>2018-03-28T10:50:52Z</time>
      </trkpt>
      <trkpt lat="36.8850300" lon="-4.3428380">
        <ele>784.9</ele>
        <time>2018-03-28T10:50:53Z</time>
      </trkpt>
      <trkpt lat="36.8849330" lon="-4.3427650">
        <ele>784.9</ele>
        <time>2018-03-28T10:50:54Z</time>
      </trkpt>
      <trkpt lat="36.8848880" lon="-4.3427250">
        <ele>784.9</ele>
        <time>2018-03-28T10:50:55Z</time>
      </trkpt>
      <trkpt lat="36.8848880" lon="-4.3427250">
        <ele>784.9</ele>
        <time>2018-03-28T10:50:56Z</time>
      </trkpt>
      <trkpt lat="36.8848000" lon="-4.3426350">
        <ele>784.9</ele>
        <time>2018-03-28T10:50:57Z</time>
      </trkpt>
      <trkpt lat="36.8848000" lon="-4.3426350">
        <ele>784.9</ele>
        <time>2018-03-28T10:50:58Z</time>
      </trkpt>
      <trkpt lat="36.8847250" lon="-4.3425320">
        <ele>784.9</ele>
        <time>2018-03-28T10:50:59Z</time>
      </trkpt>
      <trkpt lat="36.8847250" lon="-4.3425320">
        <ele>784.9</ele>
        <time>2018-03-28T10:51:00Z</time>
      </trkpt>
      <trkpt lat="36.8846600" lon="-4.3424170">
        <ele>784.9</ele>
        <time>2018-03-28T10:51:01Z</time>
      </trkpt>
      <trkpt lat="36.8846600" lon="-4.3424170">
        <ele>784.9</ele>
        <time>2018-03-28T10:51:02Z</time>
      </trkpt>
      <trkpt lat="36.8846080" lon="-4.3422920">
        <ele>784.9</ele>
        <time>2018-03-28T10:51:03Z</time>
      </trkpt>
      <trkpt lat="36.8845870" lon="-4.3422270">
        <ele>784.9</ele>
        <time>2018-03-28T10:51:04Z</time>
      </trkpt>
      <trkpt lat="36.8845870" lon="-4.3422270">
        <ele>784.9</ele>
        <time>2018-03-28T10:51:05Z</time>
      </trkpt>
      <trkpt lat="36.8845500" lon="-4.3420950">
        <ele>783.9</ele>
        <time>2018-03-28T10:51:06Z</time>
      </trkpt>
      <trkpt lat="36.8845500" lon="-4.3420950">
        <ele>783.9</ele>
        <time>2018-03-28T10:51:07Z</time>
      </trkpt>
      <trkpt lat="36.8845120" lon="-4.3419600">
        <ele>783.9</ele>
        <time>2018-03-28T10:51:08Z</time>
      </trkpt>
      <trkpt lat="36.8844930" lon="-4.3418920">
        <ele>783.9</ele>
        <time>2018-03-28T10:51:09Z</time>
      </trkpt>
      <trkpt lat="36.8844930" lon="-4.3418920">
        <ele>783.9</ele>
        <time>2018-03-28T10:51:10Z</time>
      </trkpt>
      <trkpt lat="36.8844600" lon="-4.3417480">
        <ele>783.9</ele>
        <time>2018-03-28T10:51:11Z</time>
      </trkpt>
      <trkpt lat="36.8844600" lon="-4.3417480">
        <ele>783.9</ele>
        <time>2018-03-28T10:51:12Z</time>
      </trkpt>
      <trkpt lat="36.8844230" lon="-4.3416020">
        <ele>783.9</ele>
        <time>2018-03-28T10:51:13Z</time>
      </trkpt>
      <trkpt lat="36.8844230" lon="-4.3416020">
        <ele>782.9</ele>
        <time>2018-03-28T10:51:14Z</time>
      </trkpt>
      <trkpt lat="36.8843720" lon="-4.3414600">
        <ele>782.9</ele>
        <time>2018-03-28T10:51:15Z</time>
      </trkpt>
      <trkpt lat="36.8843720" lon="-4.3414600">
        <ele>782.9</ele>
        <time>2018-03-28T10:51:16Z</time>
      </trkpt>
      <trkpt lat="36.8843050" lon="-4.3413320">
        <ele>782.9</ele>
        <time>2018-03-28T10:51:17Z</time>
      </trkpt>
      <trkpt lat="36.8843050" lon="-4.3413320">
        <ele>782.9</ele>
        <time>2018-03-28T10:51:18Z</time>
      </trkpt>
      <trkpt lat="36.8842280" lon="-4.3412180">
        <ele>782.9</ele>
        <time>2018-03-28T10:51:19Z</time>
      </trkpt>
      <trkpt lat="36.8842280" lon="-4.3412180">
        <ele>782.9</ele>
        <time>2018-03-28T10:51:20Z</time>
      </trkpt>
      <trkpt lat="36.8841420" lon="-4.3411150">
        <ele>782.9</ele>
        <time>2018-03-28T10:51:21Z</time>
      </trkpt>
      <trkpt lat="36.8840970" lon="-4.3410630">
        <ele>782.9</ele>
        <time>2018-03-28T10:51:22Z</time>
      </trkpt>
      <trkpt lat="36.8840970" lon="-4.3410630">
        <ele>782.9</ele>
        <time>2018-03-28T10:51:23Z</time>
      </trkpt>
      <trkpt lat="36.8840050" lon="-4.3409570">
        <ele>782.9</ele>
        <time>2018-03-28T10:51:24Z</time>
      </trkpt>
      <trkpt lat="36.8839600" lon="-4.3409030">
        <ele>782.9</ele>
        <time>2018-03-28T10:51:25Z</time>
      </trkpt>
      <trkpt lat="36.8839600" lon="-4.3409030">
        <ele>782.9</ele>
        <time>2018-03-28T10:51:26Z</time>
      </trkpt>
      <trkpt lat="36.8838770" lon="-4.3407870">
        <ele>782.9</ele>
        <time>2018-03-28T10:51:27Z</time>
      </trkpt>
      <trkpt lat="36.8838770" lon="-4.3407870">
        <ele>782.9</ele>
        <time>2018-03-28T10:51:28Z</time>
      </trkpt>
      <trkpt lat="36.8838020" lon="-4.3406680">
        <ele>782.9</ele>
        <time>2018-03-28T10:51:29Z</time>
      </trkpt>
      <trkpt lat="36.8838020" lon="-4.3406680">
        <ele>782.9</ele>
        <time>2018-03-28T10:51:30Z</time>
      </trkpt>
      <trkpt lat="36.8837430" lon="-4.3405500">
        <ele>782.9</ele>
        <time>2018-03-28T10:51:31Z</time>
      </trkpt>
      <trkpt lat="36.8837430" lon="-4.3405500">
        <ele>782.9</ele>
        <time>2018-03-28T10:51:32Z</time>
      </trkpt>
      <trkpt lat="36.8836780" lon="-4.3404330">
        <ele>782.9</ele>
        <time>2018-03-28T10:51:33Z</time>
      </trkpt>
      <trkpt lat="36.8836780" lon="-4.3404330">
        <ele>782.9</ele>
        <time>2018-03-28T10:51:34Z</time>
      </trkpt>
      <trkpt lat="36.8836200" lon="-4.3403170">
        <ele>782.9</ele>
        <time>2018-03-28T10:51:35Z</time>
      </trkpt>
      <trkpt lat="36.8836200" lon="-4.3403170">
        <ele>782.9</ele>
        <time>2018-03-28T10:51:36Z</time>
      </trkpt>
      <trkpt lat="36.8835700" lon="-4.3402020">
        <ele>781.9</ele>
        <time>2018-03-28T10:51:37Z</time>
      </trkpt>
      <trkpt lat="36.8835700" lon="-4.3402020">
        <ele>781.9</ele>
        <time>2018-03-28T10:51:38Z</time>
      </trkpt>
      <trkpt lat="36.8835300" lon="-4.3400830">
        <ele>781.9</ele>
        <time>2018-03-28T10:51:39Z</time>
      </trkpt>
      <trkpt lat="36.8835300" lon="-4.3400830">
        <ele>781.9</ele>
        <time>2018-03-28T10:51:40Z</time>
      </trkpt>
      <trkpt lat="36.8834900" lon="-4.3399650">
        <ele>781.9</ele>
        <time>2018-03-28T10:51:41Z</time>
      </trkpt>
      <trkpt lat="36.8834700" lon="-4.3399050">
        <ele>781.9</ele>
        <time>2018-03-28T10:51:42Z</time>
      </trkpt>
      <trkpt lat="36.8834700" lon="-4.3399050">
        <ele>781.9</ele>
        <time>2018-03-28T10:51:43Z</time>
      </trkpt>
      <trkpt lat="36.8834230" lon="-4.3397870">
        <ele>781.9</ele>
        <time>2018-03-28T10:51:44Z</time>
      </trkpt>
      <trkpt lat="36.8834230" lon="-4.3397870">
        <ele>781.9</ele>
        <time>2018-03-28T10:51:45Z</time>
      </trkpt>
      <trkpt lat="36.8833670" lon="-4.3396830">
        <ele>781.9</ele>
        <time>2018-03-28T10:51:46Z</time>
      </trkpt>
      <trkpt lat="36.8833670" lon="-4.3396830">
        <ele>781.9</ele>
        <time>2018-03-28T10:51:47Z</time>
      </trkpt>
      <trkpt lat="36.8833230" lon="-4.3395700">
        <ele>781.9</ele>
        <time>2018-03-28T10:51:48Z</time>
      </trkpt>
      <trkpt lat="36.8832950" lon="-4.3395200">
        <ele>781.9</ele>
        <time>2018-03-28T10:51:49Z</time>
      </trkpt>
      <trkpt lat="36.8832600" lon="-4.3394750">
        <ele>781.9</ele>
        <time>2018-03-28T10:51:50Z</time>
      </trkpt>
      <trkpt lat="36.8832600" lon="-4.3394750">
        <ele>781.9</ele>
        <time>2018-03-28T10:51:51Z</time>
      </trkpt>
      <trkpt lat="36.8831920" lon="-4.3393980">
        <ele>781.9</ele>
        <time>2018-03-28T10:51:52Z</time>
      </trkpt>
      <trkpt lat="36.8831920" lon="-4.3393980">
        <ele>782.9</ele>
        <time>2018-03-28T10:51:53Z</time>
      </trkpt>
      <trkpt lat="36.8831170" lon="-4.3393350">
        <ele>782.9</ele>
        <time>2018-03-28T10:51:54Z</time>
      </trkpt>
      <trkpt lat="36.8830600" lon="-4.3393000">
        <ele>782.9</ele>
        <time>2018-03-28T10:51:55Z</time>
      </trkpt>
      <trkpt lat="36.8830420" lon="-4.3392910">
        <ele>782.9</ele>
        <time>2018-03-28T10:51:56Z</time>
      </trkpt>
      <trkpt lat="36.8830050" lon="-4.3392730">
        <ele>782.9</ele>
        <time>2018-03-28T10:51:57Z</time>
      </trkpt>
      <trkpt lat="36.8829700" lon="-4.3392580">
        <ele>783.9</ele>
        <time>2018-03-28T10:51:58Z</time>
      </trkpt>
      <trkpt lat="36.8829700" lon="-4.3392580">
        <ele>783.9</ele>
        <time>2018-03-28T10:51:59Z</time>
      </trkpt>
      <trkpt lat="36.8829020" lon="-4.3392350">
        <ele>783.9</ele>
        <time>2018-03-28T10:52:00Z</time>
      </trkpt>
      <trkpt lat="36.8829020" lon="-4.3392350">
        <ele>783.9</ele>
        <time>2018-03-28T10:52:01Z</time>
      </trkpt>
      <trkpt lat="36.8828350" lon="-4.3392150">
        <ele>784.9</ele>
        <time>2018-03-28T10:52:02Z</time>
      </trkpt>
      <trkpt lat="36.8828350" lon="-4.3392150">
        <ele>784.9</ele>
        <time>2018-03-28T10:52:03Z</time>
      </trkpt>
      <trkpt lat="36.8827700" lon="-4.3391880">
        <ele>784.9</ele>
        <time>2018-03-28T10:52:04Z</time>
      </trkpt>
      <trkpt lat="36.8827700" lon="-4.3391880">
        <ele>784.9</ele>
        <time>2018-03-28T10:52:05Z</time>
      </trkpt>
      <trkpt lat="36.8827050" lon="-4.3391620">
        <ele>784.9</ele>
        <time>2018-03-28T10:52:06Z</time>
      </trkpt>
      <trkpt lat="36.8826720" lon="-4.3391500">
        <ele>784.9</ele>
        <time>2018-03-28T10:52:07Z</time>
      </trkpt>
      <trkpt lat="36.8826720" lon="-4.3391500">
        <ele>785.9</ele>
        <time>2018-03-28T10:52:08Z</time>
      </trkpt>
      <trkpt lat="36.8826050" lon="-4.3391270">
        <ele>785.9</ele>
        <time>2018-03-28T10:52:09Z</time>
      </trkpt>
      <trkpt lat="36.8826050" lon="-4.3391270">
        <ele>785.9</ele>
        <time>2018-03-28T10:52:10Z</time>
      </trkpt>
      <trkpt lat="36.8825430" lon="-4.3391080">
        <ele>785.9</ele>
        <time>2018-03-28T10:52:11Z</time>
      </trkpt>
      <trkpt lat="36.8825130" lon="-4.3390980">
        <ele>786.9</ele>
        <time>2018-03-28T10:52:12Z</time>
      </trkpt>
      <trkpt lat="36.8824830" lon="-4.3390880">
        <ele>786.9</ele>
        <time>2018-03-28T10:52:13Z</time>
      </trkpt>
      <trkpt lat="36.8824830" lon="-4.3390880">
        <ele>786.9</ele>
        <time>2018-03-28T10:52:14Z</time>
      </trkpt>
      <trkpt lat="36.8824280" lon="-4.3390670">
        <ele>786.9</ele>
        <time>2018-03-28T10:52:15Z</time>
      </trkpt>
      <trkpt lat="36.8824280" lon="-4.3390670">
        <ele>787.9</ele>
        <time>2018-03-28T10:52:16Z</time>
      </trkpt>
      <trkpt lat="36.8823750" lon="-4.3390420">
        <ele>787.9</ele>
        <time>2018-03-28T10:52:17Z</time>
      </trkpt>
      <trkpt lat="36.8823750" lon="-4.3390420">
        <ele>787.9</ele>
        <time>2018-03-28T10:52:18Z</time>
      </trkpt>
      <trkpt lat="36.8823230" lon="-4.3390220">
        <ele>787.9</ele>
        <time>2018-03-28T10:52:19Z</time>
      </trkpt>
      <trkpt lat="36.8823230" lon="-4.3390220">
        <ele>788.9</ele>
        <time>2018-03-28T10:52:20Z</time>
      </trkpt>
      <trkpt lat="36.8822720" lon="-4.3390030">
        <ele>788.9</ele>
        <time>2018-03-28T10:52:21Z</time>
      </trkpt>
      <trkpt lat="36.8822530" lon="-4.3389930">
        <ele>788.9</ele>
        <time>2018-03-28T10:52:22Z</time>
      </trkpt>
      <trkpt lat="36.8822280" lon="-4.3389850">
        <ele>788.9</ele>
        <time>2018-03-28T10:52:23Z</time>
      </trkpt>
      <trkpt lat="36.8822280" lon="-4.3389850">
        <ele>789.9</ele>
        <time>2018-03-28T10:52:24Z</time>
      </trkpt>
      <trkpt lat="36.8821820" lon="-4.3389670">
        <ele>789.9</ele>
        <time>2018-03-28T10:52:25Z</time>
      </trkpt>
      <trkpt lat="36.8821590" lon="-4.3389600">
        <ele>789.9</ele>
        <time>2018-03-28T10:52:26Z</time>
      </trkpt>
      <trkpt lat="36.8821350" lon="-4.3389530">
        <ele>789.9</ele>
        <time>2018-03-28T10:52:27Z</time>
      </trkpt>
      <trkpt lat="36.8821350" lon="-4.3389530">
        <ele>789.9</ele>
        <time>2018-03-28T10:52:28Z</time>
      </trkpt>
      <trkpt lat="36.8820920" lon="-4.3389400">
        <ele>790.9</ele>
        <time>2018-03-28T10:52:29Z</time>
      </trkpt>
      <trkpt lat="36.8820920" lon="-4.3389400">
        <ele>790.9</ele>
        <time>2018-03-28T10:52:30Z</time>
      </trkpt>
      <trkpt lat="36.8820470" lon="-4.3389270">
        <ele>790.9</ele>
        <time>2018-03-28T10:52:31Z</time>
      </trkpt>
      <trkpt lat="36.8820470" lon="-4.3389270">
        <ele>790.9</ele>
        <time>2018-03-28T10:52:32Z</time>
      </trkpt>
      <trkpt lat="36.8820000" lon="-4.3389020">
        <ele>791.9</ele>
        <time>2018-03-28T10:52:33Z</time>
      </trkpt>
      <trkpt lat="36.8820000" lon="-4.3389020">
        <ele>791.9</ele>
        <time>2018-03-28T10:52:34Z</time>
      </trkpt>
      <trkpt lat="36.8819580" lon="-4.3388800">
        <ele>791.9</ele>
        <time>2018-03-28T10:52:35Z</time>
      </trkpt>
      <trkpt lat="36.8819580" lon="-4.3388800">
        <ele>791.9</ele>
        <time>2018-03-28T10:52:36Z</time>
      </trkpt>
      <trkpt lat="36.8819180" lon="-4.3388580">
        <ele>792.9</ele>
        <time>2018-03-28T10:52:37Z</time>
      </trkpt>
      <trkpt lat="36.8819180" lon="-4.3388580">
        <ele>792.9</ele>
        <time>2018-03-28T10:52:38Z</time>
      </trkpt>
      <trkpt lat="36.8818800" lon="-4.3388400">
        <ele>792.9</ele>
        <time>2018-03-28T10:52:39Z</time>
      </trkpt>
      <trkpt lat="36.8818600" lon="-4.3388300">
        <ele>792.9</ele>
        <time>2018-03-28T10:52:40Z</time>
      </trkpt>
      <trkpt lat="36.8818600" lon="-4.3388300">
        <ele>793.9</ele>
        <time>2018-03-28T10:52:41Z</time>
      </trkpt>
      <trkpt lat="36.8818180" lon="-4.3388020">
        <ele>793.9</ele>
        <time>2018-03-28T10:52:42Z</time>
      </trkpt>
      <trkpt lat="36.8818030" lon="-4.3387830">
        <ele>793.9</ele>
        <time>2018-03-28T10:52:43Z</time>
      </trkpt>
      <trkpt lat="36.8818030" lon="-4.3387830">
        <ele>793.9</ele>
        <time>2018-03-28T10:52:44Z</time>
      </trkpt>
      <trkpt lat="36.8817700" lon="-4.3387500">
        <ele>794.9</ele>
        <time>2018-03-28T10:52:45Z</time>
      </trkpt>
      <trkpt lat="36.8817520" lon="-4.3387370">
        <ele>794.9</ele>
        <time>2018-03-28T10:52:46Z</time>
      </trkpt>
      <trkpt lat="36.8817520" lon="-4.3387370">
        <ele>794.9</ele>
        <time>2018-03-28T10:52:47Z</time>
      </trkpt>
      <trkpt lat="36.8817170" lon="-4.3387100">
        <ele>794.9</ele>
        <time>2018-03-28T10:52:48Z</time>
      </trkpt>
      <trkpt lat="36.8816980" lon="-4.3386930">
        <ele>795.9</ele>
        <time>2018-03-28T10:52:49Z</time>
      </trkpt>
      <trkpt lat="36.8816980" lon="-4.3386930">
        <ele>795.9</ele>
        <time>2018-03-28T10:52:50Z</time>
      </trkpt>
      <trkpt lat="36.8816630" lon="-4.3386620">
        <ele>795.9</ele>
        <time>2018-03-28T10:52:51Z</time>
      </trkpt>
      <trkpt lat="36.8816400" lon="-4.3386470">
        <ele>795.9</ele>
        <time>2018-03-28T10:52:52Z</time>
      </trkpt>
      <trkpt lat="36.8816400" lon="-4.3386470">
        <ele>796.9</ele>
        <time>2018-03-28T10:52:53Z</time>
      </trkpt>
      <trkpt lat="36.8816000" lon="-4.3386180">
        <ele>796.9</ele>
        <time>2018-03-28T10:52:54Z</time>
      </trkpt>
      <trkpt lat="36.8815820" lon="-4.3386020">
        <ele>796.9</ele>
        <time>2018-03-28T10:52:55Z</time>
      </trkpt>
      <trkpt lat="36.8815820" lon="-4.3386020">
        <ele>797.9</ele>
        <time>2018-03-28T10:52:56Z</time>
      </trkpt>
      <trkpt lat="36.8815470" lon="-4.3385650">
        <ele>797.9</ele>
        <time>2018-03-28T10:52:57Z</time>
      </trkpt>
      <trkpt lat="36.8815470" lon="-4.3385650">
        <ele>797.9</ele>
        <time>2018-03-28T10:52:58Z</time>
      </trkpt>
      <trkpt lat="36.8815050" lon="-4.3385270">
        <ele>797.9</ele>
        <time>2018-03-28T10:52:59Z</time>
      </trkpt>
      <trkpt lat="36.8814850" lon="-4.3385100">
        <ele>798.9</ele>
        <time>2018-03-28T10:53:00Z</time>
      </trkpt>
      <trkpt lat="36.8814630" lon="-4.3384930">
        <ele>798.9</ele>
        <time>2018-03-28T10:53:01Z</time>
      </trkpt>
      <trkpt lat="36.8814630" lon="-4.3384930">
        <ele>798.9</ele>
        <time>2018-03-28T10:53:02Z</time>
      </trkpt>
      <trkpt lat="36.8814200" lon="-4.3384720">
        <ele>798.9</ele>
        <time>2018-03-28T10:53:03Z</time>
      </trkpt>
      <trkpt lat="36.8814020" lon="-4.3384620">
        <ele>799.9</ele>
        <time>2018-03-28T10:53:04Z</time>
      </trkpt>
      <trkpt lat="36.8814020" lon="-4.3384620">
        <ele>799.9</ele>
        <time>2018-03-28T10:53:05Z</time>
      </trkpt>
      <trkpt lat="36.8813670" lon="-4.3384480">
        <ele>799.9</ele>
        <time>2018-03-28T10:53:06Z</time>
      </trkpt>
      <trkpt lat="36.8813450" lon="-4.3384430">
        <ele>799.9</ele>
        <time>2018-03-28T10:53:07Z</time>
      </trkpt>
      <trkpt lat="36.8813450" lon="-4.3384430">
        <ele>800.9</ele>
        <time>2018-03-28T10:53:08Z</time>
      </trkpt>
      <trkpt lat="36.8812980" lon="-4.3384530">
        <ele>800.9</ele>
        <time>2018-03-28T10:53:09Z</time>
      </trkpt>
      <trkpt lat="36.8812750" lon="-4.3384630">
        <ele>800.9</ele>
        <time>2018-03-28T10:53:10Z</time>
      </trkpt>
      <trkpt lat="36.8812750" lon="-4.3384630">
        <ele>800.9</ele>
        <time>2018-03-28T10:53:11Z</time>
      </trkpt>
      <trkpt lat="36.8812250" lon="-4.3384980">
        <ele>801.9</ele>
        <time>2018-03-28T10:53:12Z</time>
      </trkpt>
      <trkpt lat="36.8812030" lon="-4.3385170">
        <ele>801.9</ele>
        <time>2018-03-28T10:53:13Z</time>
      </trkpt>
      <trkpt lat="36.8812030" lon="-4.3385170">
        <ele>801.9</ele>
        <time>2018-03-28T10:53:14Z</time>
      </trkpt>
      <trkpt lat="36.8811620" lon="-4.3385520">
        <ele>801.9</ele>
        <time>2018-03-28T10:53:15Z</time>
      </trkpt>
      <trkpt lat="36.8811430" lon="-4.3385680">
        <ele>802.9</ele>
        <time>2018-03-28T10:53:16Z</time>
      </trkpt>
      <trkpt lat="36.8811270" lon="-4.3385850">
        <ele>802.9</ele>
        <time>2018-03-28T10:53:17Z</time>
      </trkpt>
      <trkpt lat="36.8811270" lon="-4.3385850">
        <ele>802.9</ele>
        <time>2018-03-28T10:53:18Z</time>
      </trkpt>
      <trkpt lat="36.8810930" lon="-4.3386230">
        <ele>802.9</ele>
        <time>2018-03-28T10:53:19Z</time>
      </trkpt>
      <trkpt lat="36.8810930" lon="-4.3386230">
        <ele>802.9</ele>
        <time>2018-03-28T10:53:20Z</time>
      </trkpt>
      <trkpt lat="36.8810550" lon="-4.3386630">
        <ele>803.9</ele>
        <time>2018-03-28T10:53:21Z</time>
      </trkpt>
      <trkpt lat="36.8810370" lon="-4.3386820">
        <ele>803.9</ele>
        <time>2018-03-28T10:53:22Z</time>
      </trkpt>
      <trkpt lat="36.8810180" lon="-4.3386980">
        <ele>803.9</ele>
        <time>2018-03-28T10:53:23Z</time>
      </trkpt>
      <trkpt lat="36.8810180" lon="-4.3386980">
        <ele>803.9</ele>
        <time>2018-03-28T10:53:24Z</time>
      </trkpt>
      <trkpt lat="36.8809830" lon="-4.3387270">
        <ele>803.9</ele>
        <time>2018-03-28T10:53:25Z</time>
      </trkpt>
      <trkpt lat="36.8809620" lon="-4.3387400">
        <ele>804.9</ele>
        <time>2018-03-28T10:53:26Z</time>
      </trkpt>
      <trkpt lat="36.8809620" lon="-4.3387400">
        <ele>804.9</ele>
        <time>2018-03-28T10:53:27Z</time>
      </trkpt>
      <trkpt lat="36.8809220" lon="-4.3387730">
        <ele>804.9</ele>
        <time>2018-03-28T10:53:28Z</time>
      </trkpt>
      <trkpt lat="36.8809220" lon="-4.3387730">
        <ele>804.9</ele>
        <time>2018-03-28T10:53:29Z</time>
      </trkpt>
      <trkpt lat="36.8808870" lon="-4.3388080">
        <ele>805.9</ele>
        <time>2018-03-28T10:53:30Z</time>
      </trkpt>
      <trkpt lat="36.8808870" lon="-4.3388080">
        <ele>805.9</ele>
        <time>2018-03-28T10:53:31Z</time>
      </trkpt>
      <trkpt lat="36.8808570" lon="-4.3388450">
        <ele>805.9</ele>
        <time>2018-03-28T10:53:32Z</time>
      </trkpt>
      <trkpt lat="36.8808450" lon="-4.3388670">
        <ele>805.9</ele>
        <time>2018-03-28T10:53:33Z</time>
      </trkpt>
      <trkpt lat="36.8808330" lon="-4.3388880">
        <ele>806.9</ele>
        <time>2018-03-28T10:53:34Z</time>
      </trkpt>
      <trkpt lat="36.8808330" lon="-4.3388880">
        <ele>806.9</ele>
        <time>2018-03-28T10:53:35Z</time>
      </trkpt>
      <trkpt lat="36.8808180" lon="-4.3389400">
        <ele>806.9</ele>
        <time>2018-03-28T10:53:36Z</time>
      </trkpt>
      <trkpt lat="36.8808080" lon="-4.3389670">
        <ele>806.9</ele>
        <time>2018-03-28T10:53:37Z</time>
      </trkpt>
      <trkpt lat="36.8808080" lon="-4.3389670">
        <ele>806.9</ele>
        <time>2018-03-28T10:53:38Z</time>
      </trkpt>
      <trkpt lat="36.8807850" lon="-4.3390200">
        <ele>806.9</ele>
        <time>2018-03-28T10:53:39Z</time>
      </trkpt>
      <trkpt lat="36.8807850" lon="-4.3390200">
        <ele>806.9</ele>
        <time>2018-03-28T10:53:40Z</time>
      </trkpt>
      <trkpt lat="36.8807630" lon="-4.3390780">
        <ele>806.9</ele>
        <time>2018-03-28T10:53:41Z</time>
      </trkpt>
      <trkpt lat="36.8807630" lon="-4.3390780">
        <ele>806.9</ele>
        <time>2018-03-28T10:53:42Z</time>
      </trkpt>
      <trkpt lat="36.8807480" lon="-4.3391450">
        <ele>807.9</ele>
        <time>2018-03-28T10:53:43Z</time>
      </trkpt>
      <trkpt lat="36.8807480" lon="-4.3391450">
        <ele>807.9</ele>
        <time>2018-03-28T10:53:44Z</time>
      </trkpt>
      <trkpt lat="36.8807390" lon="-4.3392330">
        <ele>807.9</ele>
        <time>2018-03-28T10:53:45Z</time>
      </trkpt>
      <trkpt lat="36.8807390" lon="-4.3392540">
        <ele>807.9</ele>
        <time>2018-03-28T10:53:46Z</time>
      </trkpt>
      <trkpt lat="36.8807380" lon="-4.3392750">
        <ele>807.9</ele>
        <time>2018-03-28T10:53:47Z</time>
      </trkpt>
      <trkpt lat="36.8807380" lon="-4.3392750">
        <ele>807.9</ele>
        <time>2018-03-28T10:53:48Z</time>
      </trkpt>
      <trkpt lat="36.8807370" lon="-4.3393420">
        <ele>807.9</ele>
        <time>2018-03-28T10:53:49Z</time>
      </trkpt>
      <trkpt lat="36.8807370" lon="-4.3393420">
        <ele>807.9</ele>
        <time>2018-03-28T10:53:50Z</time>
      </trkpt>
      <trkpt lat="36.8807230" lon="-4.3394080">
        <ele>807.9</ele>
        <time>2018-03-28T10:53:51Z</time>
      </trkpt>
      <trkpt lat="36.8807150" lon="-4.3394420">
        <ele>807.9</ele>
        <time>2018-03-28T10:53:52Z</time>
      </trkpt>
      <trkpt lat="36.8807150" lon="-4.3394420">
        <ele>808.9</ele>
        <time>2018-03-28T10:53:53Z</time>
      </trkpt>
      <trkpt lat="36.8806980" lon="-4.3395070">
        <ele>808.9</ele>
        <time>2018-03-28T10:53:54Z</time>
      </trkpt>
      <trkpt lat="36.8806900" lon="-4.3395400">
        <ele>808.9</ele>
        <time>2018-03-28T10:53:55Z</time>
      </trkpt>
      <trkpt lat="36.8806900" lon="-4.3395400">
        <ele>808.9</ele>
        <time>2018-03-28T10:53:56Z</time>
      </trkpt>
      <trkpt lat="36.8806780" lon="-4.3396050">
        <ele>808.9</ele>
        <time>2018-03-28T10:53:57Z</time>
      </trkpt>
      <trkpt lat="36.8806780" lon="-4.3396050">
        <ele>808.9</ele>
        <time>2018-03-28T10:53:58Z</time>
      </trkpt>
      <trkpt lat="36.8806680" lon="-4.3396720">
        <ele>809.9</ele>
        <time>2018-03-28T10:53:59Z</time>
      </trkpt>
      <trkpt lat="36.8806680" lon="-4.3396720">
        <ele>809.9</ele>
        <time>2018-03-28T10:54:00Z</time>
      </trkpt>
      <trkpt lat="36.8806480" lon="-4.3397400">
        <ele>809.9</ele>
        <time>2018-03-28T10:54:01Z</time>
      </trkpt>
      <trkpt lat="36.8806480" lon="-4.3397400">
        <ele>809.9</ele>
        <time>2018-03-28T10:54:02Z</time>
      </trkpt>
      <trkpt lat="36.8806220" lon="-4.3398000">
        <ele>810.9</ele>
        <time>2018-03-28T10:54:03Z</time>
      </trkpt>
      <trkpt lat="36.8806220" lon="-4.3398000">
        <ele>810.9</ele>
        <time>2018-03-28T10:54:04Z</time>
      </trkpt>
      <trkpt lat="36.8805970" lon="-4.3398600">
        <ele>810.9</ele>
        <time>2018-03-28T10:54:05Z</time>
      </trkpt>
      <trkpt lat="36.8805970" lon="-4.3398600">
        <ele>810.9</ele>
        <time>2018-03-28T10:54:06Z</time>
      </trkpt>
      <trkpt lat="36.8805650" lon="-4.3399230">
        <ele>810.9</ele>
        <time>2018-03-28T10:54:07Z</time>
      </trkpt>
      <trkpt lat="36.8805650" lon="-4.3399230">
        <ele>810.9</ele>
        <time>2018-03-28T10:54:08Z</time>
      </trkpt>
      <trkpt lat="36.8805300" lon="-4.3399830">
        <ele>810.9</ele>
        <time>2018-03-28T10:54:09Z</time>
      </trkpt>
      <trkpt lat="36.8805300" lon="-4.3399830">
        <ele>810.9</ele>
        <time>2018-03-28T10:54:10Z</time>
      </trkpt>
      <trkpt lat="36.8804920" lon="-4.3400380">
        <ele>810.9</ele>
        <time>2018-03-28T10:54:11Z</time>
      </trkpt>
      <trkpt lat="36.8804920" lon="-4.3400380">
        <ele>810.9</ele>
        <time>2018-03-28T10:54:12Z</time>
      </trkpt>
      <trkpt lat="36.8804630" lon="-4.3401000">
        <ele>811.9</ele>
        <time>2018-03-28T10:54:13Z</time>
      </trkpt>
      <trkpt lat="36.8804630" lon="-4.3401000">
        <ele>811.9</ele>
        <time>2018-03-28T10:54:14Z</time>
      </trkpt>
      <trkpt lat="36.8804320" lon="-4.3401650">
        <ele>811.9</ele>
        <time>2018-03-28T10:54:15Z</time>
      </trkpt>
      <trkpt lat="36.8804320" lon="-4.3401650">
        <ele>811.9</ele>
        <time>2018-03-28T10:54:16Z</time>
      </trkpt>
      <trkpt lat="36.8804030" lon="-4.3402320">
        <ele>811.9</ele>
        <time>2018-03-28T10:54:17Z</time>
      </trkpt>
      <trkpt lat="36.8804030" lon="-4.3402320">
        <ele>812.9</ele>
        <time>2018-03-28T10:54:18Z</time>
      </trkpt>
      <trkpt lat="36.8803730" lon="-4.3402920">
        <ele>812.9</ele>
        <time>2018-03-28T10:54:19Z</time>
      </trkpt>
      <trkpt lat="36.8803730" lon="-4.3402920">
        <ele>812.9</ele>
        <time>2018-03-28T10:54:20Z</time>
      </trkpt>
      <trkpt lat="36.8803430" lon="-4.3403530">
        <ele>812.9</ele>
        <time>2018-03-28T10:54:21Z</time>
      </trkpt>
      <trkpt lat="36.8803430" lon="-4.3403530">
        <ele>812.9</ele>
        <time>2018-03-28T10:54:22Z</time>
      </trkpt>
      <trkpt lat="36.8803120" lon="-4.3404130">
        <ele>812.9</ele>
        <time>2018-03-28T10:54:23Z</time>
      </trkpt>
      <trkpt lat="36.8803120" lon="-4.3404130">
        <ele>812.9</ele>
        <time>2018-03-28T10:54:24Z</time>
      </trkpt>
      <trkpt lat="36.8802730" lon="-4.3404750">
        <ele>812.9</ele>
        <time>2018-03-28T10:54:25Z</time>
      </trkpt>
      <trkpt lat="36.8802730" lon="-4.3404750">
        <ele>812.9</ele>
        <time>2018-03-28T10:54:26Z</time>
      </trkpt>
      <trkpt lat="36.8802380" lon="-4.3405320">
        <ele>812.9</ele>
        <time>2018-03-28T10:54:27Z</time>
      </trkpt>
      <trkpt lat="36.8802380" lon="-4.3405320">
        <ele>812.9</ele>
        <time>2018-03-28T10:54:28Z</time>
      </trkpt>
      <trkpt lat="36.8802000" lon="-4.3405870">
        <ele>812.9</ele>
        <time>2018-03-28T10:54:29Z</time>
      </trkpt>
      <trkpt lat="36.8802000" lon="-4.3405870">
        <ele>813.9</ele>
        <time>2018-03-28T10:54:30Z</time>
      </trkpt>
      <trkpt lat="36.8801520" lon="-4.3406350">
        <ele>813.9</ele>
        <time>2018-03-28T10:54:31Z</time>
      </trkpt>
      <trkpt lat="36.8801520" lon="-4.3406350">
        <ele>813.9</ele>
        <time>2018-03-28T10:54:32Z</time>
      </trkpt>
      <trkpt lat="36.8801020" lon="-4.3406780">
        <ele>813.9</ele>
        <time>2018-03-28T10:54:33Z</time>
      </trkpt>
      <trkpt lat="36.8801020" lon="-4.3406780">
        <ele>814.9</ele>
        <time>2018-03-28T10:54:34Z</time>
      </trkpt>
      <trkpt lat="36.8800470" lon="-4.3407180">
        <ele>814.9</ele>
        <time>2018-03-28T10:54:35Z</time>
      </trkpt>
      <trkpt lat="36.8800200" lon="-4.3407430">
        <ele>814.9</ele>
        <time>2018-03-28T10:54:36Z</time>
      </trkpt>
      <trkpt lat="36.8800200" lon="-4.3407430">
        <ele>814.9</ele>
        <time>2018-03-28T10:54:37Z</time>
      </trkpt>
      <trkpt lat="36.8799700" lon="-4.3407900">
        <ele>814.9</ele>
        <time>2018-03-28T10:54:38Z</time>
      </trkpt>
      <trkpt lat="36.8799700" lon="-4.3407900">
        <ele>814.9</ele>
        <time>2018-03-28T10:54:39Z</time>
      </trkpt>
      <trkpt lat="36.8799230" lon="-4.3408350">
        <ele>815.9</ele>
        <time>2018-03-28T10:54:40Z</time>
      </trkpt>
      <trkpt lat="36.8799230" lon="-4.3408350">
        <ele>815.9</ele>
        <time>2018-03-28T10:54:41Z</time>
      </trkpt>
      <trkpt lat="36.8798720" lon="-4.3408780">
        <ele>815.9</ele>
        <time>2018-03-28T10:54:42Z</time>
      </trkpt>
      <trkpt lat="36.8798430" lon="-4.3409000">
        <ele>815.9</ele>
        <time>2018-03-28T10:54:43Z</time>
      </trkpt>
      <trkpt lat="36.8798430" lon="-4.3409000">
        <ele>816.9</ele>
        <time>2018-03-28T10:54:44Z</time>
      </trkpt>
      <trkpt lat="36.8797760" lon="-4.3409540">
        <ele>816.9</ele>
        <time>2018-03-28T10:54:45Z</time>
      </trkpt>
      <trkpt lat="36.8797620" lon="-4.3409630">
        <ele>816.9</ele>
        <time>2018-03-28T10:54:46Z</time>
      </trkpt>
      <trkpt lat="36.8797620" lon="-4.3409630">
        <ele>817.9</ele>
        <time>2018-03-28T10:54:47Z</time>
      </trkpt>
      <trkpt lat="36.8797030" lon="-4.3410020">
        <ele>817.9</ele>
        <time>2018-03-28T10:54:48Z</time>
      </trkpt>
      <trkpt lat="36.8796720" lon="-4.3410130">
        <ele>817.9</ele>
        <time>2018-03-28T10:54:49Z</time>
      </trkpt>
      <trkpt lat="36.8796720" lon="-4.3410130">
        <ele>817.9</ele>
        <time>2018-03-28T10:54:50Z</time>
      </trkpt>
      <trkpt lat="36.8796050" lon="-4.3410330">
        <ele>817.9</ele>
        <time>2018-03-28T10:54:51Z</time>
      </trkpt>
      <trkpt lat="36.8796050" lon="-4.3410330">
        <ele>817.9</ele>
        <time>2018-03-28T10:54:52Z</time>
      </trkpt>
      <trkpt lat="36.8795380" lon="-4.3410430">
        <ele>818.9</ele>
        <time>2018-03-28T10:54:53Z</time>
      </trkpt>
      <trkpt lat="36.8795030" lon="-4.3410470">
        <ele>818.9</ele>
        <time>2018-03-28T10:54:54Z</time>
      </trkpt>
      <trkpt lat="36.8795030" lon="-4.3410470">
        <ele>818.9</ele>
        <time>2018-03-28T10:54:55Z</time>
      </trkpt>
      <trkpt lat="36.8794400" lon="-4.3410530">
        <ele>818.9</ele>
        <time>2018-03-28T10:54:56Z</time>
      </trkpt>
      <trkpt lat="36.8794400" lon="-4.3410530">
        <ele>818.9</ele>
        <time>2018-03-28T10:54:57Z</time>
      </trkpt>
      <trkpt lat="36.8793700" lon="-4.3410700">
        <ele>818.9</ele>
        <time>2018-03-28T10:54:58Z</time>
      </trkpt>
      <trkpt lat="36.8793700" lon="-4.3410700">
        <ele>818.9</ele>
        <time>2018-03-28T10:54:59Z</time>
      </trkpt>
      <trkpt lat="36.8793070" lon="-4.3410850">
        <ele>818.9</ele>
        <time>2018-03-28T10:55:00Z</time>
      </trkpt>
      <trkpt lat="36.8792770" lon="-4.3410930">
        <ele>819.9</ele>
        <time>2018-03-28T10:55:01Z</time>
      </trkpt>
      <trkpt lat="36.8792770" lon="-4.3410930">
        <ele>819.9</ele>
        <time>2018-03-28T10:55:02Z</time>
      </trkpt>
      <trkpt lat="36.8792130" lon="-4.3411220">
        <ele>819.9</ele>
        <time>2018-03-28T10:55:03Z</time>
      </trkpt>
      <trkpt lat="36.8791830" lon="-4.3411430">
        <ele>819.9</ele>
        <time>2018-03-28T10:55:04Z</time>
      </trkpt>
      <trkpt lat="36.8791830" lon="-4.3411430">
        <ele>820.9</ele>
        <time>2018-03-28T10:55:05Z</time>
      </trkpt>
      <trkpt lat="36.8791230" lon="-4.3411920">
        <ele>820.9</ele>
        <time>2018-03-28T10:55:06Z</time>
      </trkpt>
      <trkpt lat="36.8790970" lon="-4.3412220">
        <ele>820.9</ele>
        <time>2018-03-28T10:55:07Z</time>
      </trkpt>
      <trkpt lat="36.8790970" lon="-4.3412220">
        <ele>820.9</ele>
        <time>2018-03-28T10:55:08Z</time>
      </trkpt>
      <trkpt lat="36.8790480" lon="-4.3412900">
        <ele>820.9</ele>
        <time>2018-03-28T10:55:09Z</time>
      </trkpt>
      <trkpt lat="36.8790300" lon="-4.3413280">
        <ele>820.9</ele>
        <time>2018-03-28T10:55:10Z</time>
      </trkpt>
      <trkpt lat="36.8790300" lon="-4.3413280">
        <ele>820.9</ele>
        <time>2018-03-28T10:55:11Z</time>
      </trkpt>
      <trkpt lat="36.8789900" lon="-4.3414080">
        <ele>820.9</ele>
        <time>2018-03-28T10:55:12Z</time>
      </trkpt>
      <trkpt lat="36.8789900" lon="-4.3414080">
        <ele>821.9</ele>
        <time>2018-03-28T10:55:13Z</time>
      </trkpt>
      <trkpt lat="36.8789470" lon="-4.3414970">
        <ele>821.9</ele>
        <time>2018-03-28T10:55:14Z</time>
      </trkpt>
      <trkpt lat="36.8789470" lon="-4.3414970">
        <ele>821.9</ele>
        <time>2018-03-28T10:55:15Z</time>
      </trkpt>
      <trkpt lat="36.8789030" lon="-4.3415830">
        <ele>821.9</ele>
        <time>2018-03-28T10:55:16Z</time>
      </trkpt>
      <trkpt lat="36.8788820" lon="-4.3416330">
        <ele>821.9</ele>
        <time>2018-03-28T10:55:17Z</time>
      </trkpt>
      <trkpt lat="36.8788820" lon="-4.3416330">
        <ele>821.9</ele>
        <time>2018-03-28T10:55:18Z</time>
      </trkpt>
      <trkpt lat="36.8788380" lon="-4.3417370">
        <ele>821.9</ele>
        <time>2018-03-28T10:55:19Z</time>
      </trkpt>
      <trkpt lat="36.8788380" lon="-4.3417370">
        <ele>821.9</ele>
        <time>2018-03-28T10:55:20Z</time>
      </trkpt>
      <trkpt lat="36.8787930" lon="-4.3418400">
        <ele>821.9</ele>
        <time>2018-03-28T10:55:21Z</time>
      </trkpt>
      <trkpt lat="36.8787930" lon="-4.3418400">
        <ele>821.9</ele>
        <time>2018-03-28T10:55:22Z</time>
      </trkpt>
      <trkpt lat="36.8787520" lon="-4.3419480">
        <ele>821.9</ele>
        <time>2018-03-28T10:55:23Z</time>
      </trkpt>
      <trkpt lat="36.8787280" lon="-4.3420030">
        <ele>821.9</ele>
        <time>2018-03-28T10:55:24Z</time>
      </trkpt>
      <trkpt lat="36.8787050" lon="-4.3420580">
        <ele>821.9</ele>
        <time>2018-03-28T10:55:25Z</time>
      </trkpt>
      <trkpt lat="36.8787050" lon="-4.3420580">
        <ele>821.9</ele>
        <time>2018-03-28T10:55:26Z</time>
      </trkpt>
      <trkpt lat="36.8786630" lon="-4.3421830">
        <ele>821.9</ele>
        <time>2018-03-28T10:55:27Z</time>
      </trkpt>
      <trkpt lat="36.8786630" lon="-4.3421830">
        <ele>821.9</ele>
        <time>2018-03-28T10:55:28Z</time>
      </trkpt>
      <trkpt lat="36.8786150" lon="-4.3423000">
        <ele>821.9</ele>
        <time>2018-03-28T10:55:29Z</time>
      </trkpt>
      <trkpt lat="36.8786150" lon="-4.3423000">
        <ele>821.9</ele>
        <time>2018-03-28T10:55:30Z</time>
      </trkpt>
      <trkpt lat="36.8785580" lon="-4.3424100">
        <ele>821.9</ele>
        <time>2018-03-28T10:55:31Z</time>
      </trkpt>
      <trkpt lat="36.8785580" lon="-4.3424100">
        <ele>821.9</ele>
        <time>2018-03-28T10:55:32Z</time>
      </trkpt>
      <trkpt lat="36.8784820" lon="-4.3425050">
        <ele>821.9</ele>
        <time>2018-03-28T10:55:33Z</time>
      </trkpt>
      <trkpt lat="36.8784820" lon="-4.3425050">
        <ele>821.9</ele>
        <time>2018-03-28T10:55:34Z</time>
      </trkpt>
      <trkpt lat="36.8784000" lon="-4.3425950">
        <ele>821.9</ele>
        <time>2018-03-28T10:55:35Z</time>
      </trkpt>
      <trkpt lat="36.8784000" lon="-4.3425950">
        <ele>821.9</ele>
        <time>2018-03-28T10:55:36Z</time>
      </trkpt>
      <trkpt lat="36.8783100" lon="-4.3426980">
        <ele>821.9</ele>
        <time>2018-03-28T10:55:37Z</time>
      </trkpt>
      <trkpt lat="36.8783100" lon="-4.3426980">
        <ele>821.9</ele>
        <time>2018-03-28T10:55:38Z</time>
      </trkpt>
      <trkpt lat="36.8782220" lon="-4.3428070">
        <ele>821.9</ele>
        <time>2018-03-28T10:55:39Z</time>
      </trkpt>
      <trkpt lat="36.8782220" lon="-4.3428070">
        <ele>821.9</ele>
        <time>2018-03-28T10:55:40Z</time>
      </trkpt>
      <trkpt lat="36.8781350" lon="-4.3429170">
        <ele>821.9</ele>
        <time>2018-03-28T10:55:41Z</time>
      </trkpt>
      <trkpt lat="36.8781350" lon="-4.3429170">
        <ele>821.9</ele>
        <time>2018-03-28T10:55:42Z</time>
      </trkpt>
      <trkpt lat="36.8780430" lon="-4.3430200">
        <ele>821.9</ele>
        <time>2018-03-28T10:55:43Z</time>
      </trkpt>
      <trkpt lat="36.8780430" lon="-4.3430200">
        <ele>821.9</ele>
        <time>2018-03-28T10:55:44Z</time>
      </trkpt>
      <trkpt lat="36.8779500" lon="-4.3431280">
        <ele>821.9</ele>
        <time>2018-03-28T10:55:45Z</time>
      </trkpt>
      <trkpt lat="36.8779500" lon="-4.3431280">
        <ele>821.9</ele>
        <time>2018-03-28T10:55:46Z</time>
      </trkpt>
      <trkpt lat="36.8778630" lon="-4.3432330">
        <ele>821.9</ele>
        <time>2018-03-28T10:55:47Z</time>
      </trkpt>
      <trkpt lat="36.8778630" lon="-4.3432330">
        <ele>821.9</ele>
        <time>2018-03-28T10:55:48Z</time>
      </trkpt>
      <trkpt lat="36.8777900" lon="-4.3433520">
        <ele>821.9</ele>
        <time>2018-03-28T10:55:49Z</time>
      </trkpt>
      <trkpt lat="36.8777900" lon="-4.3433520">
        <ele>821.9</ele>
        <time>2018-03-28T10:55:50Z</time>
      </trkpt>
      <trkpt lat="36.8777220" lon="-4.3434920">
        <ele>821.9</ele>
        <time>2018-03-28T10:55:51Z</time>
      </trkpt>
      <trkpt lat="36.8776830" lon="-4.3435620">
        <ele>821.9</ele>
        <time>2018-03-28T10:55:52Z</time>
      </trkpt>
      <trkpt lat="36.8776450" lon="-4.3436300">
        <ele>821.9</ele>
        <time>2018-03-28T10:55:53Z</time>
      </trkpt>
      <trkpt lat="36.8776450" lon="-4.3436300">
        <ele>821.9</ele>
        <time>2018-03-28T10:55:54Z</time>
      </trkpt>
      <trkpt lat="36.8775800" lon="-4.3437820">
        <ele>821.9</ele>
        <time>2018-03-28T10:55:55Z</time>
      </trkpt>
      <trkpt lat="36.8775650" lon="-4.3438240">
        <ele>821.9</ele>
        <time>2018-03-28T10:55:56Z</time>
      </trkpt>
      <trkpt lat="36.8775490" lon="-4.3438660">
        <ele>821.9</ele>
        <time>2018-03-28T10:55:57Z</time>
      </trkpt>
      <trkpt lat="36.8775180" lon="-4.3439500">
        <ele>820.9</ele>
        <time>2018-03-28T10:55:58Z</time>
      </trkpt>
      <trkpt lat="36.8774800" lon="-4.3441330">
        <ele>820.9</ele>
        <time>2018-03-28T10:55:59Z</time>
      </trkpt>
      <trkpt lat="36.8774800" lon="-4.3441330">
        <ele>820.9</ele>
        <time>2018-03-28T10:56:00Z</time>
      </trkpt>
      <trkpt lat="36.8774380" lon="-4.3443280">
        <ele>820.9</ele>
        <time>2018-03-28T10:56:01Z</time>
      </trkpt>
      <trkpt lat="36.8774380" lon="-4.3443280">
        <ele>819.9</ele>
        <time>2018-03-28T10:56:02Z</time>
      </trkpt>
      <trkpt lat="36.8774050" lon="-4.3445500">
        <ele>819.9</ele>
        <time>2018-03-28T10:56:03Z</time>
      </trkpt>
      <trkpt lat="36.8774050" lon="-4.3445500">
        <ele>818.9</ele>
        <time>2018-03-28T10:56:04Z</time>
      </trkpt>
      <trkpt lat="36.8773350" lon="-4.3447770">
        <ele>818.9</ele>
        <time>2018-03-28T10:56:05Z</time>
      </trkpt>
      <trkpt lat="36.8772820" lon="-4.3448800">
        <ele>817.9</ele>
        <time>2018-03-28T10:56:06Z</time>
      </trkpt>
      <trkpt lat="36.8772820" lon="-4.3448800">
        <ele>817.9</ele>
        <time>2018-03-28T10:56:07Z</time>
      </trkpt>
      <trkpt lat="36.8771600" lon="-4.3450680">
        <ele>815.9</ele>
        <time>2018-03-28T10:56:08Z</time>
      </trkpt>
      <trkpt lat="36.8771080" lon="-4.3451720">
        <ele>815.9</ele>
        <time>2018-03-28T10:56:09Z</time>
      </trkpt>
      <trkpt lat="36.8770720" lon="-4.3452800">
        <ele>814.9</ele>
        <time>2018-03-28T10:56:10Z</time>
      </trkpt>
      <trkpt lat="36.8770400" lon="-4.3453920">
        <ele>814.9</ele>
        <time>2018-03-28T10:56:11Z</time>
      </trkpt>
      <trkpt lat="36.8770400" lon="-4.3453920">
        <ele>814.9</ele>
        <time>2018-03-28T10:56:12Z</time>
      </trkpt>
      <trkpt lat="36.8769770" lon="-4.3456130">
        <ele>813.9</ele>
        <time>2018-03-28T10:56:13Z</time>
      </trkpt>
      <trkpt lat="36.8769770" lon="-4.3456130">
        <ele>813.9</ele>
        <time>2018-03-28T10:56:14Z</time>
      </trkpt>
      <trkpt lat="36.8769270" lon="-4.3458330">
        <ele>813.9</ele>
        <time>2018-03-28T10:56:15Z</time>
      </trkpt>
      <trkpt lat="36.8769080" lon="-4.3459450">
        <ele>813.9</ele>
        <time>2018-03-28T10:56:16Z</time>
      </trkpt>
      <trkpt lat="36.8769080" lon="-4.3459450">
        <ele>812.9</ele>
        <time>2018-03-28T10:56:17Z</time>
      </trkpt>
      <trkpt lat="36.8768770" lon="-4.3461730">
        <ele>812.9</ele>
        <time>2018-03-28T10:56:18Z</time>
      </trkpt>
      <trkpt lat="36.8768500" lon="-4.3462850">
        <ele>811.9</ele>
        <time>2018-03-28T10:56:19Z</time>
      </trkpt>
      <trkpt lat="36.8768500" lon="-4.3462850">
        <ele>811.9</ele>
        <time>2018-03-28T10:56:20Z</time>
      </trkpt>
      <trkpt lat="36.8767620" lon="-4.3464970">
        <ele>811.9</ele>
        <time>2018-03-28T10:56:21Z</time>
      </trkpt>
      <trkpt lat="36.8767020" lon="-4.3465930">
        <ele>811.9</ele>
        <time>2018-03-28T10:56:22Z</time>
      </trkpt>
      <trkpt lat="36.8767020" lon="-4.3465930">
        <ele>811.9</ele>
        <time>2018-03-28T10:56:23Z</time>
      </trkpt>
      <trkpt lat="36.8765580" lon="-4.3467750">
        <ele>810.9</ele>
        <time>2018-03-28T10:56:24Z</time>
      </trkpt>
      <trkpt lat="36.8765580" lon="-4.3467750">
        <ele>810.9</ele>
        <time>2018-03-28T10:56:25Z</time>
      </trkpt>
      <trkpt lat="36.8763870" lon="-4.3469270">
        <ele>808.9</ele>
        <time>2018-03-28T10:56:26Z</time>
      </trkpt>
      <trkpt lat="36.8763050" lon="-4.3470080">
        <ele>808.9</ele>
        <time>2018-03-28T10:56:27Z</time>
      </trkpt>
      <trkpt lat="36.8763050" lon="-4.3470080">
        <ele>808.9</ele>
        <time>2018-03-28T10:56:28Z</time>
      </trkpt>
      <trkpt lat="36.8761600" lon="-4.3472030">
        <ele>808.9</ele>
        <time>2018-03-28T10:56:29Z</time>
      </trkpt>
      <trkpt lat="36.8761030" lon="-4.3473170">
        <ele>806.9</ele>
        <time>2018-03-28T10:56:30Z</time>
      </trkpt>
      <trkpt lat="36.8760520" lon="-4.3474350">
        <ele>806.9</ele>
        <time>2018-03-28T10:56:31Z</time>
      </trkpt>
      <trkpt lat="36.8760520" lon="-4.3474350">
        <ele>806.9</ele>
        <time>2018-03-28T10:56:32Z</time>
      </trkpt>
      <trkpt lat="36.8759230" lon="-4.3476500">
        <ele>806.9</ele>
        <time>2018-03-28T10:56:33Z</time>
      </trkpt>
      <trkpt lat="36.8758400" lon="-4.3477330">
        <ele>805.9</ele>
        <time>2018-03-28T10:56:34Z</time>
      </trkpt>
      <trkpt lat="36.8758400" lon="-4.3477330">
        <ele>805.9</ele>
        <time>2018-03-28T10:56:35Z</time>
      </trkpt>
      <trkpt lat="36.8756500" lon="-4.3478420">
        <ele>804.9</ele>
        <time>2018-03-28T10:56:36Z</time>
      </trkpt>
      <trkpt lat="36.8756500" lon="-4.3478420">
        <ele>804.9</ele>
        <time>2018-03-28T10:56:37Z</time>
      </trkpt>
      <trkpt lat="36.8754450" lon="-4.3479230">
        <ele>803.9</ele>
        <time>2018-03-28T10:56:38Z</time>
      </trkpt>
      <trkpt lat="36.8754450" lon="-4.3479230">
        <ele>803.9</ele>
        <time>2018-03-28T10:56:39Z</time>
      </trkpt>
      <trkpt lat="36.8752450" lon="-4.3479920">
        <ele>803.9</ele>
        <time>2018-03-28T10:56:40Z</time>
      </trkpt>
      <trkpt lat="36.8751400" lon="-4.3480020">
        <ele>802.9</ele>
        <time>2018-03-28T10:56:41Z</time>
      </trkpt>
      <trkpt lat="36.8751400" lon="-4.3480020">
        <ele>802.9</ele>
        <time>2018-03-28T10:56:42Z</time>
      </trkpt>
      <trkpt lat="36.8749300" lon="-4.3479700">
        <ele>802.9</ele>
        <time>2018-03-28T10:56:43Z</time>
      </trkpt>
      <trkpt lat="36.8748280" lon="-4.3479420">
        <ele>802.9</ele>
        <time>2018-03-28T10:56:44Z</time>
      </trkpt>
      <trkpt lat="36.8747320" lon="-4.3479070">
        <ele>801.9</ele>
        <time>2018-03-28T10:56:45Z</time>
      </trkpt>
      <trkpt lat="36.8747320" lon="-4.3479070">
        <ele>801.9</ele>
        <time>2018-03-28T10:56:46Z</time>
      </trkpt>
      <trkpt lat="36.8745450" lon="-4.3478200">
        <ele>801.9</ele>
        <time>2018-03-28T10:56:47Z</time>
      </trkpt>
      <trkpt lat="36.8745450" lon="-4.3478200">
        <ele>801.9</ele>
        <time>2018-03-28T10:56:48Z</time>
      </trkpt>
      <trkpt lat="36.8743700" lon="-4.3477270">
        <ele>800.9</ele>
        <time>2018-03-28T10:56:49Z</time>
      </trkpt>
      <trkpt lat="36.8743700" lon="-4.3477270">
        <ele>800.9</ele>
        <time>2018-03-28T10:56:50Z</time>
      </trkpt>
      <trkpt lat="36.8741980" lon="-4.3476480">
        <ele>800.9</ele>
        <time>2018-03-28T10:56:51Z</time>
      </trkpt>
      <trkpt lat="36.8741980" lon="-4.3476480">
        <ele>800.9</ele>
        <time>2018-03-28T10:56:52Z</time>
      </trkpt>
      <trkpt lat="36.8740280" lon="-4.3476120">
        <ele>799.9</ele>
        <time>2018-03-28T10:56:53Z</time>
      </trkpt>
      <trkpt lat="36.8739430" lon="-4.3476180">
        <ele>799.9</ele>
        <time>2018-03-28T10:56:54Z</time>
      </trkpt>
      <trkpt lat="36.8738620" lon="-4.3476320">
        <ele>798.9</ele>
        <time>2018-03-28T10:56:55Z</time>
      </trkpt>
      <trkpt lat="36.8738620" lon="-4.3476320">
        <ele>798.9</ele>
        <time>2018-03-28T10:56:56Z</time>
      </trkpt>
      <trkpt lat="36.8737100" lon="-4.3476850">
        <ele>798.9</ele>
        <time>2018-03-28T10:56:57Z</time>
      </trkpt>
      <trkpt lat="36.8737100" lon="-4.3476850">
        <ele>798.9</ele>
        <time>2018-03-28T10:56:58Z</time>
      </trkpt>
      <trkpt lat="36.8735580" lon="-4.3477270">
        <ele>797.9</ele>
        <time>2018-03-28T10:56:59Z</time>
      </trkpt>
      <trkpt lat="36.8735580" lon="-4.3477270">
        <ele>797.9</ele>
        <time>2018-03-28T10:57:00Z</time>
      </trkpt>
      <trkpt lat="36.8734130" lon="-4.3477400">
        <ele>797.9</ele>
        <time>2018-03-28T10:57:01Z</time>
      </trkpt>
      <trkpt lat="36.8734130" lon="-4.3477400">
        <ele>797.9</ele>
        <time>2018-03-28T10:57:02Z</time>
      </trkpt>
      <trkpt lat="36.8732750" lon="-4.3477320">
        <ele>797.9</ele>
        <time>2018-03-28T10:57:03Z</time>
      </trkpt>
      <trkpt lat="36.8732100" lon="-4.3477220">
        <ele>797.9</ele>
        <time>2018-03-28T10:57:04Z</time>
      </trkpt>
      <trkpt lat="36.8731500" lon="-4.3477120">
        <ele>797.9</ele>
        <time>2018-03-28T10:57:05Z</time>
      </trkpt>
      <trkpt lat="36.8731500" lon="-4.3477120">
        <ele>797.9</ele>
        <time>2018-03-28T10:57:06Z</time>
      </trkpt>
      <trkpt lat="36.8730350" lon="-4.3476930">
        <ele>797.9</ele>
        <time>2018-03-28T10:57:07Z</time>
      </trkpt>
      <trkpt lat="36.8730350" lon="-4.3476930">
        <ele>797.9</ele>
        <time>2018-03-28T10:57:08Z</time>
      </trkpt>
      <trkpt lat="36.8729300" lon="-4.3476700">
        <ele>797.9</ele>
        <time>2018-03-28T10:57:09Z</time>
      </trkpt>
      <trkpt lat="36.8728800" lon="-4.3476530">
        <ele>797.9</ele>
        <time>2018-03-28T10:57:10Z</time>
      </trkpt>
      <trkpt lat="36.8728800" lon="-4.3476530">
        <ele>797.9</ele>
        <time>2018-03-28T10:57:11Z</time>
      </trkpt>
      <trkpt lat="36.8727830" lon="-4.3476270">
        <ele>797.9</ele>
        <time>2018-03-28T10:57:12Z</time>
      </trkpt>
      <trkpt lat="36.8727830" lon="-4.3476270">
        <ele>797.9</ele>
        <time>2018-03-28T10:57:13Z</time>
      </trkpt>
      <trkpt lat="36.8726930" lon="-4.3476030">
        <ele>799.9</ele>
        <time>2018-03-28T10:57:14Z</time>
      </trkpt>
      <trkpt lat="36.8726930" lon="-4.3476030">
        <ele>799.9</ele>
        <time>2018-03-28T10:57:15Z</time>
      </trkpt>
      <trkpt lat="36.8726120" lon="-4.3475800">
        <ele>799.9</ele>
        <time>2018-03-28T10:57:16Z</time>
      </trkpt>
      <trkpt lat="36.8726120" lon="-4.3475800">
        <ele>799.9</ele>
        <time>2018-03-28T10:57:17Z</time>
      </trkpt>
      <trkpt lat="36.8725320" lon="-4.3475620">
        <ele>800.9</ele>
        <time>2018-03-28T10:57:18Z</time>
      </trkpt>
      <trkpt lat="36.8724930" lon="-4.3475530">
        <ele>800.9</ele>
        <time>2018-03-28T10:57:19Z</time>
      </trkpt>
      <trkpt lat="36.8724930" lon="-4.3475530">
        <ele>800.9</ele>
        <time>2018-03-28T10:57:20Z</time>
      </trkpt>
      <trkpt lat="36.8724150" lon="-4.3475330">
        <ele>800.9</ele>
        <time>2018-03-28T10:57:21Z</time>
      </trkpt>
      <trkpt lat="36.8723800" lon="-4.3475200">
        <ele>801.9</ele>
        <time>2018-03-28T10:57:22Z</time>
      </trkpt>
      <trkpt lat="36.8723800" lon="-4.3475200">
        <ele>801.9</ele>
        <time>2018-03-28T10:57:23Z</time>
      </trkpt>
      <trkpt lat="36.8723130" lon="-4.3474930">
        <ele>801.9</ele>
        <time>2018-03-28T10:57:24Z</time>
      </trkpt>
      <trkpt lat="36.8722780" lon="-4.3474850">
        <ele>801.9</ele>
        <time>2018-03-28T10:57:25Z</time>
      </trkpt>
      <trkpt lat="36.8722780" lon="-4.3474850">
        <ele>801.9</ele>
        <time>2018-03-28T10:57:26Z</time>
      </trkpt>
      <trkpt lat="36.8722050" lon="-4.3474700">
        <ele>801.9</ele>
        <time>2018-03-28T10:57:27Z</time>
      </trkpt>
      <trkpt lat="36.8722050" lon="-4.3474700">
        <ele>802.9</ele>
        <time>2018-03-28T10:57:28Z</time>
      </trkpt>
      <trkpt lat="36.8721350" lon="-4.3474520">
        <ele>802.9</ele>
        <time>2018-03-28T10:57:29Z</time>
      </trkpt>
      <trkpt lat="36.8721020" lon="-4.3474420">
        <ele>802.9</ele>
        <time>2018-03-28T10:57:30Z</time>
      </trkpt>
      <trkpt lat="36.8721020" lon="-4.3474420">
        <ele>802.9</ele>
        <time>2018-03-28T10:57:31Z</time>
      </trkpt>
      <trkpt lat="36.8720150" lon="-4.3474190">
        <ele>803.9</ele>
        <time>2018-03-28T10:57:32Z</time>
      </trkpt>
      <trkpt lat="36.8719980" lon="-4.3474130">
        <ele>803.9</ele>
        <time>2018-03-28T10:57:33Z</time>
      </trkpt>
      <trkpt lat="36.8719980" lon="-4.3474130">
        <ele>803.9</ele>
        <time>2018-03-28T10:57:34Z</time>
      </trkpt>
      <trkpt lat="36.8719280" lon="-4.3473950">
        <ele>804.9</ele>
        <time>2018-03-28T10:57:35Z</time>
      </trkpt>
      <trkpt lat="36.8719280" lon="-4.3473950">
        <ele>804.9</ele>
        <time>2018-03-28T10:57:36Z</time>
      </trkpt>
      <trkpt lat="36.8718620" lon="-4.3473730">
        <ele>804.9</ele>
        <time>2018-03-28T10:57:37Z</time>
      </trkpt>
      <trkpt lat="36.8718620" lon="-4.3473730">
        <ele>804.9</ele>
        <time>2018-03-28T10:57:38Z</time>
      </trkpt>
      <trkpt lat="36.8717950" lon="-4.3473530">
        <ele>805.9</ele>
        <time>2018-03-28T10:57:39Z</time>
      </trkpt>
      <trkpt lat="36.8717620" lon="-4.3473400">
        <ele>805.9</ele>
        <time>2018-03-28T10:57:40Z</time>
      </trkpt>
      <trkpt lat="36.8717620" lon="-4.3473400">
        <ele>805.9</ele>
        <time>2018-03-28T10:57:41Z</time>
      </trkpt>
      <trkpt lat="36.8716930" lon="-4.3473080">
        <ele>805.9</ele>
        <time>2018-03-28T10:57:42Z</time>
      </trkpt>
      <trkpt lat="36.8716620" lon="-4.3472900">
        <ele>805.9</ele>
        <time>2018-03-28T10:57:43Z</time>
      </trkpt>
      <trkpt lat="36.8716620" lon="-4.3472900">
        <ele>805.9</ele>
        <time>2018-03-28T10:57:44Z</time>
      </trkpt>
      <trkpt lat="36.8715980" lon="-4.3472530">
        <ele>805.9</ele>
        <time>2018-03-28T10:57:45Z</time>
      </trkpt>
      <trkpt lat="36.8715980" lon="-4.3472530">
        <ele>805.9</ele>
        <time>2018-03-28T10:57:46Z</time>
      </trkpt>
      <trkpt lat="36.8715370" lon="-4.3472170">
        <ele>806.9</ele>
        <time>2018-03-28T10:57:47Z</time>
      </trkpt>
      <trkpt lat="36.8715370" lon="-4.3472170">
        <ele>806.9</ele>
        <time>2018-03-28T10:57:48Z</time>
      </trkpt>
      <trkpt lat="36.8714820" lon="-4.3471770">
        <ele>806.9</ele>
        <time>2018-03-28T10:57:49Z</time>
      </trkpt>
      <trkpt lat="36.8714600" lon="-4.3471570">
        <ele>806.9</ele>
        <time>2018-03-28T10:57:50Z</time>
      </trkpt>
      <trkpt lat="36.8714600" lon="-4.3471570">
        <ele>808.9</ele>
        <time>2018-03-28T10:57:51Z</time>
      </trkpt>
      <trkpt lat="36.8714080" lon="-4.3471120">
        <ele>808.9</ele>
        <time>2018-03-28T10:57:52Z</time>
      </trkpt>
      <trkpt lat="36.8714080" lon="-4.3471120">
        <ele>808.9</ele>
        <time>2018-03-28T10:57:53Z</time>
      </trkpt>
      <trkpt lat="36.8713530" lon="-4.3470600">
        <ele>808.9</ele>
        <time>2018-03-28T10:57:54Z</time>
      </trkpt>
      <trkpt lat="36.8713530" lon="-4.3470600">
        <ele>808.9</ele>
        <time>2018-03-28T10:57:55Z</time>
      </trkpt>
      <trkpt lat="36.8713020" lon="-4.3470120">
        <ele>808.9</ele>
        <time>2018-03-28T10:57:56Z</time>
      </trkpt>
      <trkpt lat="36.8712770" lon="-4.3469880">
        <ele>809.9</ele>
        <time>2018-03-28T10:57:57Z</time>
      </trkpt>
      <trkpt lat="36.8712550" lon="-4.3469680">
        <ele>809.9</ele>
        <time>2018-03-28T10:57:58Z</time>
      </trkpt>
      <trkpt lat="36.8712320" lon="-4.3469480">
        <ele>809.9</ele>
        <time>2018-03-28T10:57:59Z</time>
      </trkpt>
      <trkpt lat="36.8712320" lon="-4.3469480">
        <ele>809.9</ele>
        <time>2018-03-28T10:58:00Z</time>
      </trkpt>
      <trkpt lat="36.8711830" lon="-4.3469130">
        <ele>809.9</ele>
        <time>2018-03-28T10:58:01Z</time>
      </trkpt>
      <trkpt lat="36.8711830" lon="-4.3469130">
        <ele>809.9</ele>
        <time>2018-03-28T10:58:02Z</time>
      </trkpt>
      <trkpt lat="36.8711300" lon="-4.3468830">
        <ele>810.9</ele>
        <time>2018-03-28T10:58:03Z</time>
      </trkpt>
      <trkpt lat="36.8711300" lon="-4.3468830">
        <ele>810.9</ele>
        <time>2018-03-28T10:58:04Z</time>
      </trkpt>
      <trkpt lat="36.8710750" lon="-4.3468630">
        <ele>810.9</ele>
        <time>2018-03-28T10:58:05Z</time>
      </trkpt>
      <trkpt lat="36.8710480" lon="-4.3468530">
        <ele>810.9</ele>
        <time>2018-03-28T10:58:06Z</time>
      </trkpt>
      <trkpt lat="36.8710480" lon="-4.3468530">
        <ele>810.9</ele>
        <time>2018-03-28T10:58:07Z</time>
      </trkpt>
      <trkpt lat="36.8709920" lon="-4.3468380">
        <ele>810.9</ele>
        <time>2018-03-28T10:58:08Z</time>
      </trkpt>
      <trkpt lat="36.8709920" lon="-4.3468380">
        <ele>810.9</ele>
        <time>2018-03-28T10:58:09Z</time>
      </trkpt>
      <trkpt lat="36.8709370" lon="-4.3468280">
        <ele>810.9</ele>
        <time>2018-03-28T10:58:10Z</time>
      </trkpt>
      <trkpt lat="36.8709100" lon="-4.3468270">
        <ele>810.9</ele>
        <time>2018-03-28T10:58:11Z</time>
      </trkpt>
      <trkpt lat="36.8709100" lon="-4.3468270">
        <ele>811.9</ele>
        <time>2018-03-28T10:58:12Z</time>
      </trkpt>
      <trkpt lat="36.8708600" lon="-4.3468330">
        <ele>811.9</ele>
        <time>2018-03-28T10:58:13Z</time>
      </trkpt>
      <trkpt lat="36.8708600" lon="-4.3468330">
        <ele>811.9</ele>
        <time>2018-03-28T10:58:14Z</time>
      </trkpt>
      <trkpt lat="36.8708070" lon="-4.3468450">
        <ele>811.9</ele>
        <time>2018-03-28T10:58:15Z</time>
      </trkpt>
      <trkpt lat="36.8707830" lon="-4.3468470">
        <ele>812.9</ele>
        <time>2018-03-28T10:58:16Z</time>
      </trkpt>
      <trkpt lat="36.8707830" lon="-4.3468470">
        <ele>812.9</ele>
        <time>2018-03-28T10:58:17Z</time>
      </trkpt>
      <trkpt lat="36.8707160" lon="-4.3468700">
        <ele>812.9</ele>
        <time>2018-03-28T10:58:18Z</time>
      </trkpt>
      <trkpt lat="36.8707000" lon="-4.3468770">
        <ele>812.9</ele>
        <time>2018-03-28T10:58:19Z</time>
      </trkpt>
      <trkpt lat="36.8707000" lon="-4.3468770">
        <ele>812.9</ele>
        <time>2018-03-28T10:58:20Z</time>
      </trkpt>
      <trkpt lat="36.8706420" lon="-4.3468950">
        <ele>812.9</ele>
        <time>2018-03-28T10:58:21Z</time>
      </trkpt>
      <trkpt lat="36.8706120" lon="-4.3469020">
        <ele>813.9</ele>
        <time>2018-03-28T10:58:22Z</time>
      </trkpt>
      <trkpt lat="36.8706120" lon="-4.3469020">
        <ele>813.9</ele>
        <time>2018-03-28T10:58:23Z</time>
      </trkpt>
      <trkpt lat="36.8705530" lon="-4.3469080">
        <ele>813.9</ele>
        <time>2018-03-28T10:58:24Z</time>
      </trkpt>
      <trkpt lat="36.8705250" lon="-4.3469100">
        <ele>813.9</ele>
        <time>2018-03-28T10:58:25Z</time>
      </trkpt>
      <trkpt lat="36.8704950" lon="-4.3469080">
        <ele>813.9</ele>
        <time>2018-03-28T10:58:26Z</time>
      </trkpt>
      <trkpt lat="36.8704950" lon="-4.3469080">
        <ele>813.9</ele>
        <time>2018-03-28T10:58:27Z</time>
      </trkpt>
      <trkpt lat="36.8704320" lon="-4.3469070">
        <ele>813.9</ele>
        <time>2018-03-28T10:58:28Z</time>
      </trkpt>
      <trkpt lat="36.8704020" lon="-4.3469070">
        <ele>813.9</ele>
        <time>2018-03-28T10:58:29Z</time>
      </trkpt>
      <trkpt lat="36.8703700" lon="-4.3469000">
        <ele>814.9</ele>
        <time>2018-03-28T10:58:30Z</time>
      </trkpt>
      <trkpt lat="36.8703380" lon="-4.3468930">
        <ele>814.9</ele>
        <time>2018-03-28T10:58:31Z</time>
      </trkpt>
      <trkpt lat="36.8703380" lon="-4.3468930">
        <ele>814.9</ele>
        <time>2018-03-28T10:58:32Z</time>
      </trkpt>
      <trkpt lat="36.8702750" lon="-4.3468750">
        <ele>814.9</ele>
        <time>2018-03-28T10:58:33Z</time>
      </trkpt>
      <trkpt lat="36.8702750" lon="-4.3468750">
        <ele>814.9</ele>
        <time>2018-03-28T10:58:34Z</time>
      </trkpt>
      <trkpt lat="36.8702080" lon="-4.3468600">
        <ele>814.9</ele>
        <time>2018-03-28T10:58:35Z</time>
      </trkpt>
      <trkpt lat="36.8701750" lon="-4.3468530">
        <ele>814.9</ele>
        <time>2018-03-28T10:58:36Z</time>
      </trkpt>
      <trkpt lat="36.8701750" lon="-4.3468530">
        <ele>815.9</ele>
        <time>2018-03-28T10:58:37Z</time>
      </trkpt>
      <trkpt lat="36.8701080" lon="-4.3468500">
        <ele>815.9</ele>
        <time>2018-03-28T10:58:38Z</time>
      </trkpt>
      <trkpt lat="36.8701080" lon="-4.3468500">
        <ele>815.9</ele>
        <time>2018-03-28T10:58:39Z</time>
      </trkpt>
      <trkpt lat="36.8700400" lon="-4.3468520">
        <ele>815.9</ele>
        <time>2018-03-28T10:58:40Z</time>
      </trkpt>
      <trkpt lat="36.8700400" lon="-4.3468520">
        <ele>815.9</ele>
        <time>2018-03-28T10:58:41Z</time>
      </trkpt>
      <trkpt lat="36.8699750" lon="-4.3468630">
        <ele>815.9</ele>
        <time>2018-03-28T10:58:42Z</time>
      </trkpt>
      <trkpt lat="36.8699400" lon="-4.3468720">
        <ele>816.9</ele>
        <time>2018-03-28T10:58:43Z</time>
      </trkpt>
      <trkpt lat="36.8699400" lon="-4.3468720">
        <ele>816.9</ele>
        <time>2018-03-28T10:58:44Z</time>
      </trkpt>
      <trkpt lat="36.8698580" lon="-4.3468850">
        <ele>816.9</ele>
        <time>2018-03-28T10:58:45Z</time>
      </trkpt>
      <trkpt lat="36.8698400" lon="-4.3468870">
        <ele>816.9</ele>
        <time>2018-03-28T10:58:46Z</time>
      </trkpt>
      <trkpt lat="36.8698400" lon="-4.3468870">
        <ele>816.9</ele>
        <time>2018-03-28T10:58:47Z</time>
      </trkpt>
      <trkpt lat="36.8697520" lon="-4.3469040">
        <ele>816.9</ele>
        <time>2018-03-28T10:58:48Z</time>
      </trkpt>
      <trkpt lat="36.8697350" lon="-4.3469070">
        <ele>816.9</ele>
        <time>2018-03-28T10:58:49Z</time>
      </trkpt>
      <trkpt lat="36.8697350" lon="-4.3469070">
        <ele>816.9</ele>
        <time>2018-03-28T10:58:50Z</time>
      </trkpt>
      <trkpt lat="36.8696650" lon="-4.3469150">
        <ele>817.9</ele>
        <time>2018-03-28T10:58:51Z</time>
      </trkpt>
      <trkpt lat="36.8696650" lon="-4.3469150">
        <ele>817.9</ele>
        <time>2018-03-28T10:58:52Z</time>
      </trkpt>
      <trkpt lat="36.8695950" lon="-4.3469270">
        <ele>817.9</ele>
        <time>2018-03-28T10:58:53Z</time>
      </trkpt>
      <trkpt lat="36.8695950" lon="-4.3469270">
        <ele>817.9</ele>
        <time>2018-03-28T10:58:54Z</time>
      </trkpt>
      <trkpt lat="36.8695270" lon="-4.3469330">
        <ele>817.9</ele>
        <time>2018-03-28T10:58:55Z</time>
      </trkpt>
      <trkpt lat="36.8695270" lon="-4.3469330">
        <ele>817.9</ele>
        <time>2018-03-28T10:58:56Z</time>
      </trkpt>
      <trkpt lat="36.8694570" lon="-4.3469330">
        <ele>817.9</ele>
        <time>2018-03-28T10:58:57Z</time>
      </trkpt>
      <trkpt lat="36.8694570" lon="-4.3469330">
        <ele>817.9</ele>
        <time>2018-03-28T10:58:58Z</time>
      </trkpt>
      <trkpt lat="36.8693850" lon="-4.3469370">
        <ele>817.9</ele>
        <time>2018-03-28T10:58:59Z</time>
      </trkpt>
      <trkpt lat="36.8693850" lon="-4.3469370">
        <ele>818.9</ele>
        <time>2018-03-28T10:59:00Z</time>
      </trkpt>
      <trkpt lat="36.8693130" lon="-4.3469300">
        <ele>818.9</ele>
        <time>2018-03-28T10:59:01Z</time>
      </trkpt>
      <trkpt lat="36.8692780" lon="-4.3469150">
        <ele>818.9</ele>
        <time>2018-03-28T10:59:02Z</time>
      </trkpt>
      <trkpt lat="36.8692430" lon="-4.3469000">
        <ele>818.9</ele>
        <time>2018-03-28T10:59:03Z</time>
      </trkpt>
      <trkpt lat="36.8692080" lon="-4.3468870">
        <ele>818.9</ele>
        <time>2018-03-28T10:59:04Z</time>
      </trkpt>
      <trkpt lat="36.8692080" lon="-4.3468870">
        <ele>818.9</ele>
        <time>2018-03-28T10:59:05Z</time>
      </trkpt>
      <trkpt lat="36.8691350" lon="-4.3468580">
        <ele>818.9</ele>
        <time>2018-03-28T10:59:06Z</time>
      </trkpt>
      <trkpt lat="36.8691350" lon="-4.3468580">
        <ele>818.9</ele>
        <time>2018-03-28T10:59:07Z</time>
      </trkpt>
      <trkpt lat="36.8690630" lon="-4.3468420">
        <ele>818.9</ele>
        <time>2018-03-28T10:59:08Z</time>
      </trkpt>
      <trkpt lat="36.8690630" lon="-4.3468420">
        <ele>818.9</ele>
        <time>2018-03-28T10:59:09Z</time>
      </trkpt>
      <trkpt lat="36.8689820" lon="-4.3468180">
        <ele>819.9</ele>
        <time>2018-03-28T10:59:10Z</time>
      </trkpt>
      <trkpt lat="36.8689820" lon="-4.3468180">
        <ele>819.9</ele>
        <time>2018-03-28T10:59:11Z</time>
      </trkpt>
      <trkpt lat="36.8689070" lon="-4.3468080">
        <ele>819.9</ele>
        <time>2018-03-28T10:59:12Z</time>
      </trkpt>
      <trkpt lat="36.8688670" lon="-4.3468100">
        <ele>819.9</ele>
        <time>2018-03-28T10:59:13Z</time>
      </trkpt>
      <trkpt lat="36.8688270" lon="-4.3468220">
        <ele>819.9</ele>
        <time>2018-03-28T10:59:14Z</time>
      </trkpt>
      <trkpt lat="36.8687870" lon="-4.3468330">
        <ele>819.9</ele>
        <time>2018-03-28T10:59:15Z</time>
      </trkpt>
      <trkpt lat="36.8687500" lon="-4.3468500">
        <ele>819.9</ele>
        <time>2018-03-28T10:59:16Z</time>
      </trkpt>
      <trkpt lat="36.8687500" lon="-4.3468500">
        <ele>819.9</ele>
        <time>2018-03-28T10:59:17Z</time>
      </trkpt>
      <trkpt lat="36.8686750" lon="-4.3468900">
        <ele>819.9</ele>
        <time>2018-03-28T10:59:18Z</time>
      </trkpt>
      <trkpt lat="36.8686380" lon="-4.3469130">
        <ele>819.9</ele>
        <time>2018-03-28T10:59:19Z</time>
      </trkpt>
      <trkpt lat="36.8686380" lon="-4.3469130">
        <ele>819.9</ele>
        <time>2018-03-28T10:59:20Z</time>
      </trkpt>
      <trkpt lat="36.8685650" lon="-4.3469630">
        <ele>819.9</ele>
        <time>2018-03-28T10:59:21Z</time>
      </trkpt>
      <trkpt lat="36.8685300" lon="-4.3469880">
        <ele>819.9</ele>
        <time>2018-03-28T10:59:22Z</time>
      </trkpt>
      <trkpt lat="36.8685300" lon="-4.3469880">
        <ele>819.9</ele>
        <time>2018-03-28T10:59:23Z</time>
      </trkpt>
      <trkpt lat="36.8684570" lon="-4.3470330">
        <ele>820.9</ele>
        <time>2018-03-28T10:59:24Z</time>
      </trkpt>
      <trkpt lat="36.8684200" lon="-4.3470570">
        <ele>820.9</ele>
        <time>2018-03-28T10:59:25Z</time>
      </trkpt>
      <trkpt lat="36.8684200" lon="-4.3470570">
        <ele>820.9</ele>
        <time>2018-03-28T10:59:26Z</time>
      </trkpt>
      <trkpt lat="36.8683480" lon="-4.3471080">
        <ele>820.9</ele>
        <time>2018-03-28T10:59:27Z</time>
      </trkpt>
      <trkpt lat="36.8683480" lon="-4.3471080">
        <ele>820.9</ele>
        <time>2018-03-28T10:59:28Z</time>
      </trkpt>
      <trkpt lat="36.8682750" lon="-4.3471580">
        <ele>820.9</ele>
        <time>2018-03-28T10:59:29Z</time>
      </trkpt>
      <trkpt lat="36.8682380" lon="-4.3471870">
        <ele>820.9</ele>
        <time>2018-03-28T10:59:30Z</time>
      </trkpt>
      <trkpt lat="36.8682380" lon="-4.3471870">
        <ele>821.9</ele>
        <time>2018-03-28T10:59:31Z</time>
      </trkpt>
      <trkpt lat="36.8681720" lon="-4.3472470">
        <ele>821.9</ele>
        <time>2018-03-28T10:59:32Z</time>
      </trkpt>
      <trkpt lat="36.8681350" lon="-4.3472720">
        <ele>821.9</ele>
        <time>2018-03-28T10:59:33Z</time>
      </trkpt>
      <trkpt lat="36.8680970" lon="-4.3472970">
        <ele>821.9</ele>
        <time>2018-03-28T10:59:34Z</time>
      </trkpt>
      <trkpt lat="36.8680580" lon="-4.3473200">
        <ele>821.9</ele>
        <time>2018-03-28T10:59:35Z</time>
      </trkpt>
      <trkpt lat="36.8680580" lon="-4.3473200">
        <ele>821.9</ele>
        <time>2018-03-28T10:59:36Z</time>
      </trkpt>
      <trkpt lat="36.8679820" lon="-4.3473650">
        <ele>821.9</ele>
        <time>2018-03-28T10:59:37Z</time>
      </trkpt>
      <trkpt lat="36.8679820" lon="-4.3473650">
        <ele>821.9</ele>
        <time>2018-03-28T10:59:38Z</time>
      </trkpt>
      <trkpt lat="36.8679020" lon="-4.3474070">
        <ele>821.9</ele>
        <time>2018-03-28T10:59:39Z</time>
      </trkpt>
      <trkpt lat="36.8679020" lon="-4.3474070">
        <ele>821.9</ele>
        <time>2018-03-28T10:59:40Z</time>
      </trkpt>
      <trkpt lat="36.8678220" lon="-4.3474380">
        <ele>821.9</ele>
        <time>2018-03-28T10:59:41Z</time>
      </trkpt>
      <trkpt lat="36.8678220" lon="-4.3474380">
        <ele>822.9</ele>
        <time>2018-03-28T10:59:42Z</time>
      </trkpt>
      <trkpt lat="36.8677380" lon="-4.3474620">
        <ele>822.9</ele>
        <time>2018-03-28T10:59:43Z</time>
      </trkpt>
      <trkpt lat="36.8677380" lon="-4.3474620">
        <ele>822.9</ele>
        <time>2018-03-28T10:59:44Z</time>
      </trkpt>
      <trkpt lat="36.8676550" lon="-4.3474780">
        <ele>822.9</ele>
        <time>2018-03-28T10:59:45Z</time>
      </trkpt>
      <trkpt lat="36.8676100" lon="-4.3474870">
        <ele>822.9</ele>
        <time>2018-03-28T10:59:46Z</time>
      </trkpt>
      <trkpt lat="36.8676100" lon="-4.3474870">
        <ele>822.9</ele>
        <time>2018-03-28T10:59:47Z</time>
      </trkpt>
      <trkpt lat="36.8675200" lon="-4.3475020">
        <ele>822.9</ele>
        <time>2018-03-28T10:59:48Z</time>
      </trkpt>
      <trkpt lat="36.8674750" lon="-4.3475100">
        <ele>822.9</ele>
        <time>2018-03-28T10:59:49Z</time>
      </trkpt>
      <trkpt lat="36.8674750" lon="-4.3475100">
        <ele>822.9</ele>
        <time>2018-03-28T10:59:50Z</time>
      </trkpt>
      <trkpt lat="36.8673900" lon="-4.3475400">
        <ele>822.9</ele>
        <time>2018-03-28T10:59:51Z</time>
      </trkpt>
      <trkpt lat="36.8673480" lon="-4.3475600">
        <ele>822.9</ele>
        <time>2018-03-28T10:59:52Z</time>
      </trkpt>
      <trkpt lat="36.8673480" lon="-4.3475600">
        <ele>822.9</ele>
        <time>2018-03-28T10:59:53Z</time>
      </trkpt>
      <trkpt lat="36.8672770" lon="-4.3476070">
        <ele>823.9</ele>
        <time>2018-03-28T10:59:54Z</time>
      </trkpt>
      <trkpt lat="36.8672770" lon="-4.3476070">
        <ele>823.9</ele>
        <time>2018-03-28T10:59:55Z</time>
      </trkpt>
      <trkpt lat="36.8672130" lon="-4.3476480">
        <ele>823.9</ele>
        <time>2018-03-28T10:59:56Z</time>
      </trkpt>
      <trkpt lat="36.8672130" lon="-4.3476480">
        <ele>823.9</ele>
        <time>2018-03-28T10:59:57Z</time>
      </trkpt>
      <trkpt lat="36.8671570" lon="-4.3476920">
        <ele>823.9</ele>
        <time>2018-03-28T10:59:58Z</time>
      </trkpt>
      <trkpt lat="36.8671320" lon="-4.3477100">
        <ele>823.9</ele>
        <time>2018-03-28T10:59:59Z</time>
      </trkpt>
      <trkpt lat="36.8671320" lon="-4.3477100">
        <ele>823.9</ele>
        <time>2018-03-28T11:00:00Z</time>
      </trkpt>
      <trkpt lat="36.8670750" lon="-4.3477480">
        <ele>823.9</ele>
        <time>2018-03-28T11:00:01Z</time>
      </trkpt>
      <trkpt lat="36.8670750" lon="-4.3477480">
        <ele>823.9</ele>
        <time>2018-03-28T11:00:02Z</time>
      </trkpt>
      <trkpt lat="36.8670170" lon="-4.3477850">
        <ele>823.9</ele>
        <time>2018-03-28T11:00:03Z</time>
      </trkpt>
      <trkpt lat="36.8670170" lon="-4.3477850">
        <ele>823.9</ele>
        <time>2018-03-28T11:00:04Z</time>
      </trkpt>
      <trkpt lat="36.8669620" lon="-4.3478130">
        <ele>824.9</ele>
        <time>2018-03-28T11:00:05Z</time>
      </trkpt>
      <trkpt lat="36.8669330" lon="-4.3478180">
        <ele>824.9</ele>
        <time>2018-03-28T11:00:06Z</time>
      </trkpt>
      <trkpt lat="36.8669030" lon="-4.3478230">
        <ele>824.9</ele>
        <time>2018-03-28T11:00:07Z</time>
      </trkpt>
      <trkpt lat="36.8669030" lon="-4.3478230">
        <ele>824.9</ele>
        <time>2018-03-28T11:00:08Z</time>
      </trkpt>
      <trkpt lat="36.8668420" lon="-4.3478430">
        <ele>825.9</ele>
        <time>2018-03-28T11:00:09Z</time>
      </trkpt>
      <trkpt lat="36.8668120" lon="-4.3478530">
        <ele>825.9</ele>
        <time>2018-03-28T11:00:10Z</time>
      </trkpt>
      <trkpt lat="36.8667790" lon="-4.3478580">
        <ele>825.9</ele>
        <time>2018-03-28T11:00:11Z</time>
      </trkpt>
      <trkpt lat="36.8667450" lon="-4.3478620">
        <ele>825.9</ele>
        <time>2018-03-28T11:00:12Z</time>
      </trkpt>
      <trkpt lat="36.8667100" lon="-4.3478630">
        <ele>826.9</ele>
        <time>2018-03-28T11:00:13Z</time>
      </trkpt>
      <trkpt lat="36.8667100" lon="-4.3478630">
        <ele>826.9</ele>
        <time>2018-03-28T11:00:14Z</time>
      </trkpt>
      <trkpt lat="36.8666400" lon="-4.3478470">
        <ele>826.9</ele>
        <time>2018-03-28T11:00:15Z</time>
      </trkpt>
      <trkpt lat="36.8666400" lon="-4.3478470">
        <ele>826.9</ele>
        <time>2018-03-28T11:00:16Z</time>
      </trkpt>
      <trkpt lat="36.8665750" lon="-4.3478080">
        <ele>826.9</ele>
        <time>2018-03-28T11:00:17Z</time>
      </trkpt>
      <trkpt lat="36.8665750" lon="-4.3478080">
        <ele>826.9</ele>
        <time>2018-03-28T11:00:18Z</time>
      </trkpt>
      <trkpt lat="36.8665120" lon="-4.3477420">
        <ele>826.9</ele>
        <time>2018-03-28T11:00:19Z</time>
      </trkpt>
      <trkpt lat="36.8664750" lon="-4.3477020">
        <ele>826.9</ele>
        <time>2018-03-28T11:00:20Z</time>
      </trkpt>
      <trkpt lat="36.8664380" lon="-4.3476630">
        <ele>826.9</ele>
        <time>2018-03-28T11:00:21Z</time>
      </trkpt>
      <trkpt lat="36.8663970" lon="-4.3476230">
        <ele>826.9</ele>
        <time>2018-03-28T11:00:22Z</time>
      </trkpt>
      <trkpt lat="36.8663970" lon="-4.3476230">
        <ele>826.9</ele>
        <time>2018-03-28T11:00:23Z</time>
      </trkpt>
      <trkpt lat="36.8663070" lon="-4.3475570">
        <ele>826.9</ele>
        <time>2018-03-28T11:00:24Z</time>
      </trkpt>
      <trkpt lat="36.8663070" lon="-4.3475570">
        <ele>826.9</ele>
        <time>2018-03-28T11:00:25Z</time>
      </trkpt>
      <trkpt lat="36.8662130" lon="-4.3475180">
        <ele>826.9</ele>
        <time>2018-03-28T11:00:26Z</time>
      </trkpt>
      <trkpt lat="36.8662130" lon="-4.3475180">
        <ele>826.9</ele>
        <time>2018-03-28T11:00:27Z</time>
      </trkpt>
      <trkpt lat="36.8661180" lon="-4.3475050">
        <ele>826.9</ele>
        <time>2018-03-28T11:00:28Z</time>
      </trkpt>
      <trkpt lat="36.8661180" lon="-4.3475050">
        <ele>826.9</ele>
        <time>2018-03-28T11:00:29Z</time>
      </trkpt>
      <trkpt lat="36.8660320" lon="-4.3475200">
        <ele>826.9</ele>
        <time>2018-03-28T11:00:30Z</time>
      </trkpt>
      <trkpt lat="36.8659930" lon="-4.3475230">
        <ele>826.9</ele>
        <time>2018-03-28T11:00:31Z</time>
      </trkpt>
      <trkpt lat="36.8659930" lon="-4.3475230">
        <ele>826.9</ele>
        <time>2018-03-28T11:00:32Z</time>
      </trkpt>
      <trkpt lat="36.8659220" lon="-4.3475330">
        <ele>826.9</ele>
        <time>2018-03-28T11:00:33Z</time>
      </trkpt>
      <trkpt lat="36.8658870" lon="-4.3475430">
        <ele>826.9</ele>
        <time>2018-03-28T11:00:34Z</time>
      </trkpt>
      <trkpt lat="36.8658490" lon="-4.3475520">
        <ele>826.9</ele>
        <time>2018-03-28T11:00:35Z</time>
      </trkpt>
      <trkpt lat="36.8658100" lon="-4.3475600">
        <ele>826.9</ele>
        <time>2018-03-28T11:00:36Z</time>
      </trkpt>
      <trkpt lat="36.8657700" lon="-4.3475650">
        <ele>826.9</ele>
        <time>2018-03-28T11:00:37Z</time>
      </trkpt>
      <trkpt lat="36.8657700" lon="-4.3475650">
        <ele>826.9</ele>
        <time>2018-03-28T11:00:38Z</time>
      </trkpt>
      <trkpt lat="36.8656970" lon="-4.3475780">
        <ele>827.9</ele>
        <time>2018-03-28T11:00:39Z</time>
      </trkpt>
      <trkpt lat="36.8656600" lon="-4.3475870">
        <ele>827.9</ele>
        <time>2018-03-28T11:00:40Z</time>
      </trkpt>
      <trkpt lat="36.8656220" lon="-4.3475930">
        <ele>827.9</ele>
        <time>2018-03-28T11:00:41Z</time>
      </trkpt>
      <trkpt lat="36.8656220" lon="-4.3475930">
        <ele>827.9</ele>
        <time>2018-03-28T11:00:42Z</time>
      </trkpt>
      <trkpt lat="36.8655480" lon="-4.3476130">
        <ele>827.9</ele>
        <time>2018-03-28T11:00:43Z</time>
      </trkpt>
      <trkpt lat="36.8655480" lon="-4.3476130">
        <ele>827.9</ele>
        <time>2018-03-28T11:00:44Z</time>
      </trkpt>
      <trkpt lat="36.8654850" lon="-4.3476430">
        <ele>827.9</ele>
        <time>2018-03-28T11:00:45Z</time>
      </trkpt>
      <trkpt lat="36.8654850" lon="-4.3476430">
        <ele>827.9</ele>
        <time>2018-03-28T11:00:46Z</time>
      </trkpt>
      <trkpt lat="36.8654230" lon="-4.3476730">
        <ele>828.9</ele>
        <time>2018-03-28T11:00:47Z</time>
      </trkpt>
      <trkpt lat="36.8654230" lon="-4.3476730">
        <ele>828.9</ele>
        <time>2018-03-28T11:00:48Z</time>
      </trkpt>
      <trkpt lat="36.8653700" lon="-4.3477020">
        <ele>828.9</ele>
        <time>2018-03-28T11:00:49Z</time>
      </trkpt>
      <trkpt lat="36.8653700" lon="-4.3477020">
        <ele>828.9</ele>
        <time>2018-03-28T11:00:50Z</time>
      </trkpt>
      <trkpt lat="36.8653100" lon="-4.3477300">
        <ele>828.9</ele>
        <time>2018-03-28T11:00:51Z</time>
      </trkpt>
      <trkpt lat="36.8653100" lon="-4.3477300">
        <ele>828.9</ele>
        <time>2018-03-28T11:00:52Z</time>
      </trkpt>
      <trkpt lat="36.8652500" lon="-4.3477580">
        <ele>829.9</ele>
        <time>2018-03-28T11:00:53Z</time>
      </trkpt>
      <trkpt lat="36.8652220" lon="-4.3477750">
        <ele>829.9</ele>
        <time>2018-03-28T11:00:54Z</time>
      </trkpt>
      <trkpt lat="36.8651930" lon="-4.3477900">
        <ele>829.9</ele>
        <time>2018-03-28T11:00:55Z</time>
      </trkpt>
      <trkpt lat="36.8651930" lon="-4.3477900">
        <ele>829.9</ele>
        <time>2018-03-28T11:00:56Z</time>
      </trkpt>
      <trkpt lat="36.8651350" lon="-4.3478200">
        <ele>830.9</ele>
        <time>2018-03-28T11:00:57Z</time>
      </trkpt>
      <trkpt lat="36.8651350" lon="-4.3478200">
        <ele>830.9</ele>
        <time>2018-03-28T11:00:58Z</time>
      </trkpt>
      <trkpt lat="36.8650800" lon="-4.3478520">
        <ele>831.9</ele>
        <time>2018-03-28T11:00:59Z</time>
      </trkpt>
      <trkpt lat="36.8650500" lon="-4.3478700">
        <ele>831.9</ele>
        <time>2018-03-28T11:01:00Z</time>
      </trkpt>
      <trkpt lat="36.8650500" lon="-4.3478700">
        <ele>831.9</ele>
        <time>2018-03-28T11:01:01Z</time>
      </trkpt>
      <trkpt lat="36.8649930" lon="-4.3479000">
        <ele>831.9</ele>
        <time>2018-03-28T11:01:02Z</time>
      </trkpt>
      <trkpt lat="36.8649930" lon="-4.3479000">
        <ele>831.9</ele>
        <time>2018-03-28T11:01:03Z</time>
      </trkpt>
      <trkpt lat="36.8649350" lon="-4.3479370">
        <ele>831.9</ele>
        <time>2018-03-28T11:01:04Z</time>
      </trkpt>
      <trkpt lat="36.8649350" lon="-4.3479370">
        <ele>831.9</ele>
        <time>2018-03-28T11:01:05Z</time>
      </trkpt>
      <trkpt lat="36.8648750" lon="-4.3479700">
        <ele>831.9</ele>
        <time>2018-03-28T11:01:06Z</time>
      </trkpt>
      <trkpt lat="36.8648450" lon="-4.3479870">
        <ele>831.9</ele>
        <time>2018-03-28T11:01:07Z</time>
      </trkpt>
      <trkpt lat="36.8648450" lon="-4.3479870">
        <ele>831.9</ele>
        <time>2018-03-28T11:01:08Z</time>
      </trkpt>
      <trkpt lat="36.8647880" lon="-4.3480180">
        <ele>832.9</ele>
        <time>2018-03-28T11:01:09Z</time>
      </trkpt>
      <trkpt lat="36.8647880" lon="-4.3480180">
        <ele>832.9</ele>
        <time>2018-03-28T11:01:10Z</time>
      </trkpt>
      <trkpt lat="36.8647280" lon="-4.3480430">
        <ele>832.9</ele>
        <time>2018-03-28T11:01:11Z</time>
      </trkpt>
      <trkpt lat="36.8647280" lon="-4.3480430">
        <ele>832.9</ele>
        <time>2018-03-28T11:01:12Z</time>
      </trkpt>
      <trkpt lat="36.8646680" lon="-4.3480700">
        <ele>833.9</ele>
        <time>2018-03-28T11:01:13Z</time>
      </trkpt>
      <trkpt lat="36.8646680" lon="-4.3480700">
        <ele>833.9</ele>
        <time>2018-03-28T11:01:14Z</time>
      </trkpt>
      <trkpt lat="36.8646120" lon="-4.3481070">
        <ele>833.9</ele>
        <time>2018-03-28T11:01:15Z</time>
      </trkpt>
      <trkpt lat="36.8646120" lon="-4.3481070">
        <ele>833.9</ele>
        <time>2018-03-28T11:01:16Z</time>
      </trkpt>
      <trkpt lat="36.8645600" lon="-4.3481430">
        <ele>833.9</ele>
        <time>2018-03-28T11:01:17Z</time>
      </trkpt>
      <trkpt lat="36.8645600" lon="-4.3481430">
        <ele>833.9</ele>
        <time>2018-03-28T11:01:18Z</time>
      </trkpt>
      <trkpt lat="36.8645100" lon="-4.3481880">
        <ele>835.9</ele>
        <time>2018-03-28T11:01:19Z</time>
      </trkpt>
      <trkpt lat="36.8644830" lon="-4.3482100">
        <ele>835.9</ele>
        <time>2018-03-28T11:01:20Z</time>
      </trkpt>
      <trkpt lat="36.8644830" lon="-4.3482100">
        <ele>835.9</ele>
        <time>2018-03-28T11:01:21Z</time>
      </trkpt>
      <trkpt lat="36.8644320" lon="-4.3482530">
        <ele>835.9</ele>
        <time>2018-03-28T11:01:22Z</time>
      </trkpt>
      <trkpt lat="36.8644030" lon="-4.3482720">
        <ele>835.9</ele>
        <time>2018-03-28T11:01:23Z</time>
      </trkpt>
      <trkpt lat="36.8644030" lon="-4.3482720">
        <ele>835.9</ele>
        <time>2018-03-28T11:01:24Z</time>
      </trkpt>
      <trkpt lat="36.8643570" lon="-4.3483130">
        <ele>835.9</ele>
        <time>2018-03-28T11:01:25Z</time>
      </trkpt>
      <trkpt lat="36.8643570" lon="-4.3483130">
        <ele>836.9</ele>
        <time>2018-03-28T11:01:26Z</time>
      </trkpt>
      <trkpt lat="36.8643120" lon="-4.3483480">
        <ele>836.9</ele>
        <time>2018-03-28T11:01:27Z</time>
      </trkpt>
      <trkpt lat="36.8643120" lon="-4.3483480">
        <ele>836.9</ele>
        <time>2018-03-28T11:01:28Z</time>
      </trkpt>
      <trkpt lat="36.8642670" lon="-4.3483780">
        <ele>836.9</ele>
        <time>2018-03-28T11:01:29Z</time>
      </trkpt>
      <trkpt lat="36.8642430" lon="-4.3483930">
        <ele>836.9</ele>
        <time>2018-03-28T11:01:30Z</time>
      </trkpt>
      <trkpt lat="36.8642180" lon="-4.3484090">
        <ele>836.9</ele>
        <time>2018-03-28T11:01:31Z</time>
      </trkpt>
      <trkpt lat="36.8641940" lon="-4.3484240">
        <ele>837.9</ele>
        <time>2018-03-28T11:01:32Z</time>
      </trkpt>
      <trkpt lat="36.8641700" lon="-4.3484400">
        <ele>837.9</ele>
        <time>2018-03-28T11:01:33Z</time>
      </trkpt>
      <trkpt lat="36.8641700" lon="-4.3484400">
        <ele>837.9</ele>
        <time>2018-03-28T11:01:34Z</time>
      </trkpt>
      <trkpt lat="36.8641220" lon="-4.3484750">
        <ele>837.9</ele>
        <time>2018-03-28T11:01:35Z</time>
      </trkpt>
      <trkpt lat="36.8641220" lon="-4.3484750">
        <ele>837.9</ele>
        <time>2018-03-28T11:01:36Z</time>
      </trkpt>
      <trkpt lat="36.8640730" lon="-4.3485050">
        <ele>838.9</ele>
        <time>2018-03-28T11:01:37Z</time>
      </trkpt>
      <trkpt lat="36.8640730" lon="-4.3485050">
        <ele>838.9</ele>
        <time>2018-03-28T11:01:38Z</time>
      </trkpt>
      <trkpt lat="36.8640220" lon="-4.3485280">
        <ele>838.9</ele>
        <time>2018-03-28T11:01:39Z</time>
      </trkpt>
      <trkpt lat="36.8640220" lon="-4.3485280">
        <ele>838.9</ele>
        <time>2018-03-28T11:01:40Z</time>
      </trkpt>
      <trkpt lat="36.8639620" lon="-4.3485370">
        <ele>838.9</ele>
        <time>2018-03-28T11:01:41Z</time>
      </trkpt>
      <trkpt lat="36.8639620" lon="-4.3485370">
        <ele>838.9</ele>
        <time>2018-03-28T11:01:42Z</time>
      </trkpt>
      <trkpt lat="36.8639030" lon="-4.3485430">
        <ele>839.9</ele>
        <time>2018-03-28T11:01:43Z</time>
      </trkpt>
      <trkpt lat="36.8639030" lon="-4.3485430">
        <ele>839.9</ele>
        <time>2018-03-28T11:01:44Z</time>
      </trkpt>
      <trkpt lat="36.8638480" lon="-4.3485500">
        <ele>839.9</ele>
        <time>2018-03-28T11:01:45Z</time>
      </trkpt>
      <trkpt lat="36.8638200" lon="-4.3485570">
        <ele>839.9</ele>
        <time>2018-03-28T11:01:46Z</time>
      </trkpt>
      <trkpt lat="36.8638200" lon="-4.3485570">
        <ele>839.9</ele>
        <time>2018-03-28T11:01:47Z</time>
      </trkpt>
      <trkpt lat="36.8637580" lon="-4.3485670">
        <ele>839.9</ele>
        <time>2018-03-28T11:01:48Z</time>
      </trkpt>
      <trkpt lat="36.8637580" lon="-4.3485670">
        <ele>839.9</ele>
        <time>2018-03-28T11:01:49Z</time>
      </trkpt>
      <trkpt lat="36.8637030" lon="-4.3485720">
        <ele>840.9</ele>
        <time>2018-03-28T11:01:50Z</time>
      </trkpt>
      <trkpt lat="36.8637030" lon="-4.3485720">
        <ele>840.9</ele>
        <time>2018-03-28T11:01:51Z</time>
      </trkpt>
      <trkpt lat="36.8636430" lon="-4.3485780">
        <ele>840.9</ele>
        <time>2018-03-28T11:01:52Z</time>
      </trkpt>
      <trkpt lat="36.8636430" lon="-4.3485780">
        <ele>840.9</ele>
        <time>2018-03-28T11:01:53Z</time>
      </trkpt>
      <trkpt lat="36.8635850" lon="-4.3485850">
        <ele>841.9</ele>
        <time>2018-03-28T11:01:54Z</time>
      </trkpt>
      <trkpt lat="36.8635570" lon="-4.3485820">
        <ele>841.9</ele>
        <time>2018-03-28T11:01:55Z</time>
      </trkpt>
      <trkpt lat="36.8635570" lon="-4.3485820">
        <ele>841.9</ele>
        <time>2018-03-28T11:01:56Z</time>
      </trkpt>
      <trkpt lat="36.8635000" lon="-4.3485780">
        <ele>841.9</ele>
        <time>2018-03-28T11:01:57Z</time>
      </trkpt>
      <trkpt lat="36.8635000" lon="-4.3485780">
        <ele>841.9</ele>
        <time>2018-03-28T11:01:58Z</time>
      </trkpt>
      <trkpt lat="36.8634430" lon="-4.3485730">
        <ele>841.9</ele>
        <time>2018-03-28T11:01:59Z</time>
      </trkpt>
      <trkpt lat="36.8634430" lon="-4.3485730">
        <ele>842.9</ele>
        <time>2018-03-28T11:02:00Z</time>
      </trkpt>
      <trkpt lat="36.8633850" lon="-4.3485780">
        <ele>842.9</ele>
        <time>2018-03-28T11:02:01Z</time>
      </trkpt>
      <trkpt lat="36.8633850" lon="-4.3485780">
        <ele>842.9</ele>
        <time>2018-03-28T11:02:02Z</time>
      </trkpt>
      <trkpt lat="36.8633230" lon="-4.3485900">
        <ele>842.9</ele>
        <time>2018-03-28T11:02:03Z</time>
      </trkpt>
      <trkpt lat="36.8632930" lon="-4.3485950">
        <ele>843.9</ele>
        <time>2018-03-28T11:02:04Z</time>
      </trkpt>
      <trkpt lat="36.8632670" lon="-4.3486020">
        <ele>843.9</ele>
        <time>2018-03-28T11:02:05Z</time>
      </trkpt>
      <trkpt lat="36.8632670" lon="-4.3486020">
        <ele>843.9</ele>
        <time>2018-03-28T11:02:06Z</time>
      </trkpt>
      <trkpt lat="36.8632150" lon="-4.3486230">
        <ele>843.9</ele>
        <time>2018-03-28T11:02:07Z</time>
      </trkpt>
      <trkpt lat="36.8632150" lon="-4.3486230">
        <ele>844.9</ele>
        <time>2018-03-28T11:02:08Z</time>
      </trkpt>
      <trkpt lat="36.8631630" lon="-4.3486520">
        <ele>844.9</ele>
        <time>2018-03-28T11:02:09Z</time>
      </trkpt>
      <trkpt lat="36.8631380" lon="-4.3486630">
        <ele>844.9</ele>
        <time>2018-03-28T11:02:10Z</time>
      </trkpt>
      <trkpt lat="36.8631380" lon="-4.3486630">
        <ele>844.9</ele>
        <time>2018-03-28T11:02:11Z</time>
      </trkpt>
      <trkpt lat="36.8630870" lon="-4.3486970">
        <ele>844.9</ele>
        <time>2018-03-28T11:02:12Z</time>
      </trkpt>
      <trkpt lat="36.8630620" lon="-4.3487130">
        <ele>844.9</ele>
        <time>2018-03-28T11:02:13Z</time>
      </trkpt>
      <trkpt lat="36.8630620" lon="-4.3487130">
        <ele>845.9</ele>
        <time>2018-03-28T11:02:14Z</time>
      </trkpt>
      <trkpt lat="36.8630100" lon="-4.3487450">
        <ele>845.9</ele>
        <time>2018-03-28T11:02:15Z</time>
      </trkpt>
      <trkpt lat="36.8630100" lon="-4.3487450">
        <ele>845.9</ele>
        <time>2018-03-28T11:02:16Z</time>
      </trkpt>
      <trkpt lat="36.8629600" lon="-4.3487800">
        <ele>845.9</ele>
        <time>2018-03-28T11:02:17Z</time>
      </trkpt>
      <trkpt lat="36.8629600" lon="-4.3487800">
        <ele>845.9</ele>
        <time>2018-03-28T11:02:18Z</time>
      </trkpt>
      <trkpt lat="36.8629080" lon="-4.3488150">
        <ele>846.9</ele>
        <time>2018-03-28T11:02:19Z</time>
      </trkpt>
      <trkpt lat="36.8629080" lon="-4.3488150">
        <ele>846.9</ele>
        <time>2018-03-28T11:02:20Z</time>
      </trkpt>
      <trkpt lat="36.8628550" lon="-4.3488370">
        <ele>846.9</ele>
        <time>2018-03-28T11:02:21Z</time>
      </trkpt>
      <trkpt lat="36.8628280" lon="-4.3488500">
        <ele>846.9</ele>
        <time>2018-03-28T11:02:22Z</time>
      </trkpt>
      <trkpt lat="36.8628030" lon="-4.3488650">
        <ele>846.9</ele>
        <time>2018-03-28T11:02:23Z</time>
      </trkpt>
      <trkpt lat="36.8628030" lon="-4.3488650">
        <ele>846.9</ele>
        <time>2018-03-28T11:02:24Z</time>
      </trkpt>
      <trkpt lat="36.8627530" lon="-4.3488920">
        <ele>846.9</ele>
        <time>2018-03-28T11:02:25Z</time>
      </trkpt>
      <trkpt lat="36.8627530" lon="-4.3488920">
        <ele>846.9</ele>
        <time>2018-03-28T11:02:26Z</time>
      </trkpt>
      <trkpt lat="36.8627030" lon="-4.3489030">
        <ele>846.9</ele>
        <time>2018-03-28T11:02:27Z</time>
      </trkpt>
      <trkpt lat="36.8627030" lon="-4.3489030">
        <ele>846.9</ele>
        <time>2018-03-28T11:02:28Z</time>
      </trkpt>
      <trkpt lat="36.8626470" lon="-4.3489100">
        <ele>846.9</ele>
        <time>2018-03-28T11:02:29Z</time>
      </trkpt>
      <trkpt lat="36.8626200" lon="-4.3489150">
        <ele>847.9</ele>
        <time>2018-03-28T11:02:30Z</time>
      </trkpt>
      <trkpt lat="36.8626200" lon="-4.3489150">
        <ele>847.9</ele>
        <time>2018-03-28T11:02:31Z</time>
      </trkpt>
      <trkpt lat="36.8625700" lon="-4.3489250">
        <ele>847.9</ele>
        <time>2018-03-28T11:02:32Z</time>
      </trkpt>
      <trkpt lat="36.8625700" lon="-4.3489250">
        <ele>847.9</ele>
        <time>2018-03-28T11:02:33Z</time>
      </trkpt>
      <trkpt lat="36.8625220" lon="-4.3489350">
        <ele>847.9</ele>
        <time>2018-03-28T11:02:34Z</time>
      </trkpt>
      <trkpt lat="36.8625220" lon="-4.3489350">
        <ele>847.9</ele>
        <time>2018-03-28T11:02:35Z</time>
      </trkpt>
      <trkpt lat="36.8624720" lon="-4.3489330">
        <ele>848.9</ele>
        <time>2018-03-28T11:02:36Z</time>
      </trkpt>
      <trkpt lat="36.8624450" lon="-4.3489300">
        <ele>848.9</ele>
        <time>2018-03-28T11:02:37Z</time>
      </trkpt>
      <trkpt lat="36.8624450" lon="-4.3489300">
        <ele>848.9</ele>
        <time>2018-03-28T11:02:38Z</time>
      </trkpt>
      <trkpt lat="36.8623920" lon="-4.3489300">
        <ele>848.9</ele>
        <time>2018-03-28T11:02:39Z</time>
      </trkpt>
      <trkpt lat="36.8623680" lon="-4.3489330">
        <ele>848.9</ele>
        <time>2018-03-28T11:02:40Z</time>
      </trkpt>
      <trkpt lat="36.8623680" lon="-4.3489330">
        <ele>848.9</ele>
        <time>2018-03-28T11:02:41Z</time>
      </trkpt>
      <trkpt lat="36.8623220" lon="-4.3489480">
        <ele>849.9</ele>
        <time>2018-03-28T11:02:42Z</time>
      </trkpt>
      <trkpt lat="36.8623000" lon="-4.3489500">
        <ele>849.9</ele>
        <time>2018-03-28T11:02:43Z</time>
      </trkpt>
      <trkpt lat="36.8622770" lon="-4.3489480">
        <ele>849.9</ele>
        <time>2018-03-28T11:02:44Z</time>
      </trkpt>
      <trkpt lat="36.8622770" lon="-4.3489480">
        <ele>849.9</ele>
        <time>2018-03-28T11:02:45Z</time>
      </trkpt>
      <trkpt lat="36.8622330" lon="-4.3489420">
        <ele>850.9</ele>
        <time>2018-03-28T11:02:46Z</time>
      </trkpt>
      <trkpt lat="36.8622330" lon="-4.3489420">
        <ele>850.9</ele>
        <time>2018-03-28T11:02:47Z</time>
      </trkpt>
      <trkpt lat="36.8621850" lon="-4.3489280">
        <ele>850.9</ele>
        <time>2018-03-28T11:02:48Z</time>
      </trkpt>
      <trkpt lat="36.8621850" lon="-4.3489280">
        <ele>851.9</ele>
        <time>2018-03-28T11:02:49Z</time>
      </trkpt>
      <trkpt lat="36.8621330" lon="-4.3489280">
        <ele>851.9</ele>
        <time>2018-03-28T11:02:50Z</time>
      </trkpt>
      <trkpt lat="36.8621330" lon="-4.3489280">
        <ele>851.9</ele>
        <time>2018-03-28T11:02:51Z</time>
      </trkpt>
      <trkpt lat="36.8620820" lon="-4.3489400">
        <ele>851.9</ele>
        <time>2018-03-28T11:02:52Z</time>
      </trkpt>
      <trkpt lat="36.8620580" lon="-4.3489420">
        <ele>851.9</ele>
        <time>2018-03-28T11:02:53Z</time>
      </trkpt>
      <trkpt lat="36.8620580" lon="-4.3489420">
        <ele>851.9</ele>
        <time>2018-03-28T11:02:54Z</time>
      </trkpt>
      <trkpt lat="36.8620080" lon="-4.3489400">
        <ele>851.9</ele>
        <time>2018-03-28T11:02:55Z</time>
      </trkpt>
      <trkpt lat="36.8620080" lon="-4.3489400">
        <ele>851.9</ele>
        <time>2018-03-28T11:02:56Z</time>
      </trkpt>
      <trkpt lat="36.8619650" lon="-4.3489380">
        <ele>851.9</ele>
        <time>2018-03-28T11:02:57Z</time>
      </trkpt>
      <trkpt lat="36.8619650" lon="-4.3489380">
        <ele>851.9</ele>
        <time>2018-03-28T11:02:58Z</time>
      </trkpt>
      <trkpt lat="36.8619130" lon="-4.3489300">
        <ele>851.9</ele>
        <time>2018-03-28T11:02:59Z</time>
      </trkpt>
      <trkpt lat="36.8619130" lon="-4.3489300">
        <ele>852.9</ele>
        <time>2018-03-28T11:03:00Z</time>
      </trkpt>
      <trkpt lat="36.8618480" lon="-4.3489220">
        <ele>852.9</ele>
        <time>2018-03-28T11:03:01Z</time>
      </trkpt>
      <trkpt lat="36.8618480" lon="-4.3489220">
        <ele>852.9</ele>
        <time>2018-03-28T11:03:02Z</time>
      </trkpt>
      <trkpt lat="36.8617920" lon="-4.3489030">
        <ele>852.9</ele>
        <time>2018-03-28T11:03:03Z</time>
      </trkpt>
      <trkpt lat="36.8617920" lon="-4.3489030">
        <ele>852.9</ele>
        <time>2018-03-28T11:03:04Z</time>
      </trkpt>
      <trkpt lat="36.8617420" lon="-4.3488900">
        <ele>852.9</ele>
        <time>2018-03-28T11:03:05Z</time>
      </trkpt>
      <trkpt lat="36.8617420" lon="-4.3488900">
        <ele>852.9</ele>
        <time>2018-03-28T11:03:06Z</time>
      </trkpt>
      <trkpt lat="36.8616950" lon="-4.3488730">
        <ele>852.9</ele>
        <time>2018-03-28T11:03:07Z</time>
      </trkpt>
      <trkpt lat="36.8616950" lon="-4.3488730">
        <ele>853.9</ele>
        <time>2018-03-28T11:03:08Z</time>
      </trkpt>
      <trkpt lat="36.8616420" lon="-4.3488570">
        <ele>853.9</ele>
        <time>2018-03-28T11:03:09Z</time>
      </trkpt>
      <trkpt lat="36.8616130" lon="-4.3488520">
        <ele>853.9</ele>
        <time>2018-03-28T11:03:10Z</time>
      </trkpt>
      <trkpt lat="36.8615850" lon="-4.3488450">
        <ele>853.9</ele>
        <time>2018-03-28T11:03:11Z</time>
      </trkpt>
      <trkpt lat="36.8615850" lon="-4.3488450">
        <ele>853.9</ele>
        <time>2018-03-28T11:03:12Z</time>
      </trkpt>
      <trkpt lat="36.8615370" lon="-4.3488350">
        <ele>853.9</ele>
        <time>2018-03-28T11:03:13Z</time>
      </trkpt>
      <trkpt lat="36.8615370" lon="-4.3488350">
        <ele>853.9</ele>
        <time>2018-03-28T11:03:14Z</time>
      </trkpt>
      <trkpt lat="36.8614850" lon="-4.3488070">
        <ele>854.9</ele>
        <time>2018-03-28T11:03:15Z</time>
      </trkpt>
      <trkpt lat="36.8614600" lon="-4.3487950">
        <ele>854.9</ele>
        <time>2018-03-28T11:03:16Z</time>
      </trkpt>
      <trkpt lat="36.8614600" lon="-4.3487950">
        <ele>854.9</ele>
        <time>2018-03-28T11:03:17Z</time>
      </trkpt>
      <trkpt lat="36.8614050" lon="-4.3487580">
        <ele>854.9</ele>
        <time>2018-03-28T11:03:18Z</time>
      </trkpt>
      <trkpt lat="36.8613950" lon="-4.3487520">
        <ele>854.9</ele>
        <time>2018-03-28T11:03:19Z</time>
      </trkpt>
      <trkpt lat="36.8613720" lon="-4.3487400">
        <ele>854.9</ele>
        <time>2018-03-28T11:03:20Z</time>
      </trkpt>
      <trkpt lat="36.8613480" lon="-4.3487280">
        <ele>854.9</ele>
        <time>2018-03-28T11:03:21Z</time>
      </trkpt>
      <trkpt lat="36.8613480" lon="-4.3487280">
        <ele>854.9</ele>
        <time>2018-03-28T11:03:22Z</time>
      </trkpt>
      <trkpt lat="36.8613030" lon="-4.3487070">
        <ele>855.9</ele>
        <time>2018-03-28T11:03:23Z</time>
      </trkpt>
      <trkpt lat="36.8612820" lon="-4.3486970">
        <ele>855.9</ele>
        <time>2018-03-28T11:03:24Z</time>
      </trkpt>
      <trkpt lat="36.8612820" lon="-4.3486970">
        <ele>855.9</ele>
        <time>2018-03-28T11:03:25Z</time>
      </trkpt>
      <trkpt lat="36.8612380" lon="-4.3486750">
        <ele>855.9</ele>
        <time>2018-03-28T11:03:26Z</time>
      </trkpt>
      <trkpt lat="36.8612380" lon="-4.3486750">
        <ele>856.9</ele>
        <time>2018-03-28T11:03:27Z</time>
      </trkpt>
      <trkpt lat="36.8611970" lon="-4.3486530">
        <ele>856.9</ele>
        <time>2018-03-28T11:03:28Z</time>
      </trkpt>
      <trkpt lat="36.8611820" lon="-4.3486400">
        <ele>856.9</ele>
        <time>2018-03-28T11:03:29Z</time>
      </trkpt>
      <trkpt lat="36.8611710" lon="-4.3486360">
        <ele>856.9</ele>
        <time>2018-03-28T11:03:30Z</time>
      </trkpt>
      <trkpt lat="36.8611610" lon="-4.3486320">
        <ele>856.9</ele>
        <time>2018-03-28T11:03:31Z</time>
      </trkpt>
      <trkpt lat="36.8611500" lon="-4.3486280">
        <ele>856.9</ele>
        <time>2018-03-28T11:03:32Z</time>
      </trkpt>
      <trkpt lat="36.8611020" lon="-4.3486220">
        <ele>856.9</ele>
        <time>2018-03-28T11:03:33Z</time>
      </trkpt>
      <trkpt lat="36.8611020" lon="-4.3486220">
        <ele>856.9</ele>
        <time>2018-03-28T11:03:34Z</time>
      </trkpt>
      <trkpt lat="36.8610580" lon="-4.3486100">
        <ele>857.9</ele>
        <time>2018-03-28T11:03:35Z</time>
      </trkpt>
      <trkpt lat="36.8610580" lon="-4.3486100">
        <ele>857.9</ele>
        <time>2018-03-28T11:03:36Z</time>
      </trkpt>
      <trkpt lat="36.8610150" lon="-4.3485900">
        <ele>857.9</ele>
        <time>2018-03-28T11:03:37Z</time>
      </trkpt>
      <trkpt lat="36.8610150" lon="-4.3485900">
        <ele>857.9</ele>
        <time>2018-03-28T11:03:38Z</time>
      </trkpt>
      <trkpt lat="36.8609720" lon="-4.3485700">
        <ele>858.9</ele>
        <time>2018-03-28T11:03:39Z</time>
      </trkpt>
      <trkpt lat="36.8609720" lon="-4.3485700">
        <ele>858.9</ele>
        <time>2018-03-28T11:03:40Z</time>
      </trkpt>
      <trkpt lat="36.8609230" lon="-4.3485530">
        <ele>858.9</ele>
        <time>2018-03-28T11:03:41Z</time>
      </trkpt>
      <trkpt lat="36.8609230" lon="-4.3485530">
        <ele>858.9</ele>
        <time>2018-03-28T11:03:42Z</time>
      </trkpt>
      <trkpt lat="36.8608780" lon="-4.3485330">
        <ele>858.9</ele>
        <time>2018-03-28T11:03:43Z</time>
      </trkpt>
      <trkpt lat="36.8608780" lon="-4.3485330">
        <ele>859.9</ele>
        <time>2018-03-28T11:03:44Z</time>
      </trkpt>
      <trkpt lat="36.8608320" lon="-4.3485150">
        <ele>859.9</ele>
        <time>2018-03-28T11:03:45Z</time>
      </trkpt>
      <trkpt lat="36.8608320" lon="-4.3485150">
        <ele>859.9</ele>
        <time>2018-03-28T11:03:46Z</time>
      </trkpt>
      <trkpt lat="36.8607800" lon="-4.3485000">
        <ele>859.9</ele>
        <time>2018-03-28T11:03:47Z</time>
      </trkpt>
      <trkpt lat="36.8607800" lon="-4.3485000">
        <ele>859.9</ele>
        <time>2018-03-28T11:03:48Z</time>
      </trkpt>
      <trkpt lat="36.8607280" lon="-4.3484880">
        <ele>859.9</ele>
        <time>2018-03-28T11:03:49Z</time>
      </trkpt>
      <trkpt lat="36.8607280" lon="-4.3484880">
        <ele>859.9</ele>
        <time>2018-03-28T11:03:50Z</time>
      </trkpt>
      <trkpt lat="36.8606820" lon="-4.3484830">
        <ele>859.9</ele>
        <time>2018-03-28T11:03:51Z</time>
      </trkpt>
      <trkpt lat="36.8606570" lon="-4.3484800">
        <ele>859.9</ele>
        <time>2018-03-28T11:03:52Z</time>
      </trkpt>
      <trkpt lat="36.8606570" lon="-4.3484800">
        <ele>859.9</ele>
        <time>2018-03-28T11:03:53Z</time>
      </trkpt>
      <trkpt lat="36.8606030" lon="-4.3484780">
        <ele>860.9</ele>
        <time>2018-03-28T11:03:54Z</time>
      </trkpt>
      <trkpt lat="36.8605750" lon="-4.3484820">
        <ele>860.9</ele>
        <time>2018-03-28T11:03:55Z</time>
      </trkpt>
      <trkpt lat="36.8605750" lon="-4.3484820">
        <ele>860.9</ele>
        <time>2018-03-28T11:03:56Z</time>
      </trkpt>
      <trkpt lat="36.8605170" lon="-4.3484800">
        <ele>860.9</ele>
        <time>2018-03-28T11:03:57Z</time>
      </trkpt>
      <trkpt lat="36.8605170" lon="-4.3484800">
        <ele>861.9</ele>
        <time>2018-03-28T11:03:58Z</time>
      </trkpt>
      <trkpt lat="36.8604580" lon="-4.3484830">
        <ele>861.9</ele>
        <time>2018-03-28T11:03:59Z</time>
      </trkpt>
      <trkpt lat="36.8604270" lon="-4.3484870">
        <ele>861.9</ele>
        <time>2018-03-28T11:04:00Z</time>
      </trkpt>
      <trkpt lat="36.8603950" lon="-4.3484820">
        <ele>861.9</ele>
        <time>2018-03-28T11:04:01Z</time>
      </trkpt>
      <trkpt lat="36.8603950" lon="-4.3484820">
        <ele>861.9</ele>
        <time>2018-03-28T11:04:02Z</time>
      </trkpt>
      <trkpt lat="36.8603220" lon="-4.3484800">
        <ele>861.9</ele>
        <time>2018-03-28T11:04:03Z</time>
      </trkpt>
      <trkpt lat="36.8602870" lon="-4.3484850">
        <ele>862.9</ele>
        <time>2018-03-28T11:04:04Z</time>
      </trkpt>
      <trkpt lat="36.8602870" lon="-4.3484850">
        <ele>862.9</ele>
        <time>2018-03-28T11:04:05Z</time>
      </trkpt>
      <trkpt lat="36.8602180" lon="-4.3484980">
        <ele>862.9</ele>
        <time>2018-03-28T11:04:06Z</time>
      </trkpt>
      <trkpt lat="36.8602180" lon="-4.3484980">
        <ele>862.9</ele>
        <time>2018-03-28T11:04:07Z</time>
      </trkpt>
      <trkpt lat="36.8601600" lon="-4.3485120">
        <ele>863.9</ele>
        <time>2018-03-28T11:04:08Z</time>
      </trkpt>
      <trkpt lat="36.8601600" lon="-4.3485120">
        <ele>863.9</ele>
        <time>2018-03-28T11:04:09Z</time>
      </trkpt>
      <trkpt lat="36.8601020" lon="-4.3485250">
        <ele>863.9</ele>
        <time>2018-03-28T11:04:10Z</time>
      </trkpt>
      <trkpt lat="36.8601020" lon="-4.3485250">
        <ele>863.9</ele>
        <time>2018-03-28T11:04:11Z</time>
      </trkpt>
      <trkpt lat="36.8600400" lon="-4.3485350">
        <ele>863.9</ele>
        <time>2018-03-28T11:04:12Z</time>
      </trkpt>
      <trkpt lat="36.8600400" lon="-4.3485350">
        <ele>864.9</ele>
        <time>2018-03-28T11:04:13Z</time>
      </trkpt>
      <trkpt lat="36.8599780" lon="-4.3485370">
        <ele>864.9</ele>
        <time>2018-03-28T11:04:14Z</time>
      </trkpt>
      <trkpt lat="36.8599780" lon="-4.3485370">
        <ele>864.9</ele>
        <time>2018-03-28T11:04:15Z</time>
      </trkpt>
      <trkpt lat="36.8599150" lon="-4.3485350">
        <ele>864.9</ele>
        <time>2018-03-28T11:04:16Z</time>
      </trkpt>
      <trkpt lat="36.8599150" lon="-4.3485350">
        <ele>864.9</ele>
        <time>2018-03-28T11:04:17Z</time>
      </trkpt>
      <trkpt lat="36.8598500" lon="-4.3485300">
        <ele>864.9</ele>
        <time>2018-03-28T11:04:18Z</time>
      </trkpt>
      <trkpt lat="36.8598500" lon="-4.3485300">
        <ele>864.9</ele>
        <time>2018-03-28T11:04:19Z</time>
      </trkpt>
      <trkpt lat="36.8597730" lon="-4.3485250">
        <ele>864.9</ele>
        <time>2018-03-28T11:04:20Z</time>
      </trkpt>
      <trkpt lat="36.8597730" lon="-4.3485250">
        <ele>864.9</ele>
        <time>2018-03-28T11:04:21Z</time>
      </trkpt>
      <trkpt lat="36.8596880" lon="-4.3485080">
        <ele>864.9</ele>
        <time>2018-03-28T11:04:22Z</time>
      </trkpt>
      <trkpt lat="36.8596880" lon="-4.3485080">
        <ele>864.9</ele>
        <time>2018-03-28T11:04:23Z</time>
      </trkpt>
      <trkpt lat="36.8595920" lon="-4.3484950">
        <ele>864.9</ele>
        <time>2018-03-28T11:04:24Z</time>
      </trkpt>
      <trkpt lat="36.8595920" lon="-4.3484950">
        <ele>864.9</ele>
        <time>2018-03-28T11:04:25Z</time>
      </trkpt>
      <trkpt lat="36.8594920" lon="-4.3484950">
        <ele>864.9</ele>
        <time>2018-03-28T11:04:26Z</time>
      </trkpt>
      <trkpt lat="36.8594920" lon="-4.3484950">
        <ele>864.9</ele>
        <time>2018-03-28T11:04:27Z</time>
      </trkpt>
      <trkpt lat="36.8593820" lon="-4.3485030">
        <ele>864.9</ele>
        <time>2018-03-28T11:04:28Z</time>
      </trkpt>
      <trkpt lat="36.8593820" lon="-4.3485030">
        <ele>864.9</ele>
        <time>2018-03-28T11:04:29Z</time>
      </trkpt>
      <trkpt lat="36.8592680" lon="-4.3485220">
        <ele>863.9</ele>
        <time>2018-03-28T11:04:30Z</time>
      </trkpt>
      <trkpt lat="36.8592420" lon="-4.3485300">
        <ele>863.9</ele>
        <time>2018-03-28T11:04:31Z</time>
      </trkpt>
      <trkpt lat="36.8592150" lon="-4.3485380">
        <ele>863.9</ele>
        <time>2018-03-28T11:04:32Z</time>
      </trkpt>
      <trkpt lat="36.8591620" lon="-4.3485530">
        <ele>863.9</ele>
        <time>2018-03-28T11:04:33Z</time>
      </trkpt>
      <trkpt lat="36.8590650" lon="-4.3486080">
        <ele>863.9</ele>
        <time>2018-03-28T11:04:34Z</time>
      </trkpt>
      <trkpt lat="36.8590180" lon="-4.3486400">
        <ele>863.9</ele>
        <time>2018-03-28T11:04:35Z</time>
      </trkpt>
      <trkpt lat="36.8590180" lon="-4.3486400">
        <ele>863.9</ele>
        <time>2018-03-28T11:04:36Z</time>
      </trkpt>
      <trkpt lat="36.8589380" lon="-4.3486950">
        <ele>863.9</ele>
        <time>2018-03-28T11:04:37Z</time>
      </trkpt>
      <trkpt lat="36.8588950" lon="-4.3487250">
        <ele>863.9</ele>
        <time>2018-03-28T11:04:38Z</time>
      </trkpt>
      <trkpt lat="36.8588500" lon="-4.3487530">
        <ele>863.9</ele>
        <time>2018-03-28T11:04:39Z</time>
      </trkpt>
      <trkpt lat="36.8588500" lon="-4.3487530">
        <ele>863.9</ele>
        <time>2018-03-28T11:04:40Z</time>
      </trkpt>
      <trkpt lat="36.8587720" lon="-4.3488030">
        <ele>863.9</ele>
        <time>2018-03-28T11:04:41Z</time>
      </trkpt>
      <trkpt lat="36.8587720" lon="-4.3488030">
        <ele>863.9</ele>
        <time>2018-03-28T11:04:42Z</time>
      </trkpt>
      <trkpt lat="36.8587130" lon="-4.3488500">
        <ele>863.9</ele>
        <time>2018-03-28T11:04:43Z</time>
      </trkpt>
      <trkpt lat="36.8587130" lon="-4.3488500">
        <ele>863.9</ele>
        <time>2018-03-28T11:04:44Z</time>
      </trkpt>
      <trkpt lat="36.8586580" lon="-4.3489020">
        <ele>863.9</ele>
        <time>2018-03-28T11:04:45Z</time>
      </trkpt>
      <trkpt lat="36.8586430" lon="-4.3489120">
        <ele>863.9</ele>
        <time>2018-03-28T11:04:46Z</time>
      </trkpt>
      <trkpt lat="36.8586430" lon="-4.3489120">
        <ele>864.9</ele>
        <time>2018-03-28T11:04:47Z</time>
      </trkpt>
      <trkpt lat="36.8585550" lon="-4.3489480">
        <ele>864.9</ele>
        <time>2018-03-28T11:04:48Z</time>
      </trkpt>
      <trkpt lat="36.8585550" lon="-4.3489480">
        <ele>864.9</ele>
        <time>2018-03-28T11:04:49Z</time>
      </trkpt>
      <trkpt lat="36.8584720" lon="-4.3489700">
        <ele>864.9</ele>
        <time>2018-03-28T11:04:50Z</time>
      </trkpt>
      <trkpt lat="36.8584720" lon="-4.3489700">
        <ele>864.9</ele>
        <time>2018-03-28T11:04:51Z</time>
      </trkpt>
      <trkpt lat="36.8583920" lon="-4.3489970">
        <ele>864.9</ele>
        <time>2018-03-28T11:04:52Z</time>
      </trkpt>
      <trkpt lat="36.8583360" lon="-4.3490240">
        <ele>864.9</ele>
        <time>2018-03-28T11:04:53Z</time>
      </trkpt>
      <trkpt lat="36.8583110" lon="-4.3490260">
        <ele>864.9</ele>
        <time>2018-03-28T11:04:54Z</time>
      </trkpt>
      <trkpt lat="36.8582620" lon="-4.3490300">
        <ele>864.9</ele>
        <time>2018-03-28T11:04:55Z</time>
      </trkpt>
      <trkpt lat="36.8582620" lon="-4.3490300">
        <ele>865.9</ele>
        <time>2018-03-28T11:04:56Z</time>
      </trkpt>
      <trkpt lat="36.8581750" lon="-4.3490270">
        <ele>865.9</ele>
        <time>2018-03-28T11:04:57Z</time>
      </trkpt>
      <trkpt lat="36.8581750" lon="-4.3490270">
        <ele>865.9</ele>
        <time>2018-03-28T11:04:58Z</time>
      </trkpt>
      <trkpt lat="36.8580980" lon="-4.3490380">
        <ele>865.9</ele>
        <time>2018-03-28T11:04:59Z</time>
      </trkpt>
      <trkpt lat="36.8580980" lon="-4.3490380">
        <ele>865.9</ele>
        <time>2018-03-28T11:05:00Z</time>
      </trkpt>
      <trkpt lat="36.8580330" lon="-4.3490520">
        <ele>865.9</ele>
        <time>2018-03-28T11:05:01Z</time>
      </trkpt>
      <trkpt lat="36.8580330" lon="-4.3490520">
        <ele>865.9</ele>
        <time>2018-03-28T11:05:02Z</time>
      </trkpt>
      <trkpt lat="36.8579620" lon="-4.3490720">
        <ele>865.9</ele>
        <time>2018-03-28T11:05:03Z</time>
      </trkpt>
      <trkpt lat="36.8579230" lon="-4.3490800">
        <ele>865.9</ele>
        <time>2018-03-28T11:05:04Z</time>
      </trkpt>
      <trkpt lat="36.8579230" lon="-4.3490800">
        <ele>865.9</ele>
        <time>2018-03-28T11:05:05Z</time>
      </trkpt>
      <trkpt lat="36.8578580" lon="-4.3490930">
        <ele>865.9</ele>
        <time>2018-03-28T11:05:06Z</time>
      </trkpt>
      <trkpt lat="36.8578580" lon="-4.3490930">
        <ele>866.9</ele>
        <time>2018-03-28T11:05:07Z</time>
      </trkpt>
      <trkpt lat="36.8577670" lon="-4.3491180">
        <ele>866.9</ele>
        <time>2018-03-28T11:05:08Z</time>
      </trkpt>
      <trkpt lat="36.8577670" lon="-4.3491180">
        <ele>866.9</ele>
        <time>2018-03-28T11:05:09Z</time>
      </trkpt>
      <trkpt lat="36.8576820" lon="-4.3491180">
        <ele>866.9</ele>
        <time>2018-03-28T11:05:10Z</time>
      </trkpt>
      <trkpt lat="36.8576820" lon="-4.3491180">
        <ele>867.9</ele>
        <time>2018-03-28T11:05:11Z</time>
      </trkpt>
      <trkpt lat="36.8576180" lon="-4.3491400">
        <ele>867.9</ele>
        <time>2018-03-28T11:05:12Z</time>
      </trkpt>
      <trkpt lat="36.8576180" lon="-4.3491400">
        <ele>867.9</ele>
        <time>2018-03-28T11:05:13Z</time>
      </trkpt>
      <trkpt lat="36.8575700" lon="-4.3491800">
        <ele>867.9</ele>
        <time>2018-03-28T11:05:14Z</time>
      </trkpt>
      <trkpt lat="36.8575700" lon="-4.3491800">
        <ele>867.9</ele>
        <time>2018-03-28T11:05:15Z</time>
      </trkpt>
      <trkpt lat="36.8575120" lon="-4.3492250">
        <ele>868.9</ele>
        <time>2018-03-28T11:05:16Z</time>
      </trkpt>
      <trkpt lat="36.8575120" lon="-4.3492250">
        <ele>868.9</ele>
        <time>2018-03-28T11:05:17Z</time>
      </trkpt>
      <trkpt lat="36.8574480" lon="-4.3492580">
        <ele>868.9</ele>
        <time>2018-03-28T11:05:18Z</time>
      </trkpt>
      <trkpt lat="36.8574180" lon="-4.3492730">
        <ele>868.9</ele>
        <time>2018-03-28T11:05:19Z</time>
      </trkpt>
      <trkpt lat="36.8574180" lon="-4.3492730">
        <ele>869.9</ele>
        <time>2018-03-28T11:05:20Z</time>
      </trkpt>
      <trkpt lat="36.8573520" lon="-4.3493070">
        <ele>869.9</ele>
        <time>2018-03-28T11:05:21Z</time>
      </trkpt>
      <trkpt lat="36.8573520" lon="-4.3493070">
        <ele>869.9</ele>
        <time>2018-03-28T11:05:22Z</time>
      </trkpt>
      <trkpt lat="36.8572970" lon="-4.3493380">
        <ele>869.9</ele>
        <time>2018-03-28T11:05:23Z</time>
      </trkpt>
      <trkpt lat="36.8572970" lon="-4.3493380">
        <ele>869.9</ele>
        <time>2018-03-28T11:05:24Z</time>
      </trkpt>
      <trkpt lat="36.8572370" lon="-4.3493800">
        <ele>869.9</ele>
        <time>2018-03-28T11:05:25Z</time>
      </trkpt>
      <trkpt lat="36.8572370" lon="-4.3493800">
        <ele>869.9</ele>
        <time>2018-03-28T11:05:26Z</time>
      </trkpt>
      <trkpt lat="36.8571650" lon="-4.3494080">
        <ele>869.9</ele>
        <time>2018-03-28T11:05:27Z</time>
      </trkpt>
      <trkpt lat="36.8571650" lon="-4.3494080">
        <ele>870.9</ele>
        <time>2018-03-28T11:05:28Z</time>
      </trkpt>
      <trkpt lat="36.8570520" lon="-4.3494450">
        <ele>870.9</ele>
        <time>2018-03-28T11:05:29Z</time>
      </trkpt>
      <trkpt lat="36.8570520" lon="-4.3494450">
        <ele>870.9</ele>
        <time>2018-03-28T11:05:30Z</time>
      </trkpt>
      <trkpt lat="36.8569550" lon="-4.3494800">
        <ele>870.9</ele>
        <time>2018-03-28T11:05:31Z</time>
      </trkpt>
      <trkpt lat="36.8568980" lon="-4.3495050">
        <ele>870.9</ele>
        <time>2018-03-28T11:05:32Z</time>
      </trkpt>
      <trkpt lat="36.8568980" lon="-4.3495050">
        <ele>870.9</ele>
        <time>2018-03-28T11:05:33Z</time>
      </trkpt>
      <trkpt lat="36.8567820" lon="-4.3495670">
        <ele>870.9</ele>
        <time>2018-03-28T11:05:34Z</time>
      </trkpt>
      <trkpt lat="36.8567820" lon="-4.3495670">
        <ele>870.9</ele>
        <time>2018-03-28T11:05:35Z</time>
      </trkpt>
      <trkpt lat="36.8566750" lon="-4.3496470">
        <ele>870.9</ele>
        <time>2018-03-28T11:05:36Z</time>
      </trkpt>
      <trkpt lat="36.8566750" lon="-4.3496470">
        <ele>870.9</ele>
        <time>2018-03-28T11:05:37Z</time>
      </trkpt>
      <trkpt lat="36.8565820" lon="-4.3497450">
        <ele>870.9</ele>
        <time>2018-03-28T11:05:38Z</time>
      </trkpt>
      <trkpt lat="36.8565820" lon="-4.3497450">
        <ele>869.9</ele>
        <time>2018-03-28T11:05:39Z</time>
      </trkpt>
      <trkpt lat="36.8564800" lon="-4.3498450">
        <ele>869.9</ele>
        <time>2018-03-28T11:05:40Z</time>
      </trkpt>
      <trkpt lat="36.8564270" lon="-4.3498900">
        <ele>869.9</ele>
        <time>2018-03-28T11:05:41Z</time>
      </trkpt>
      <trkpt lat="36.8564270" lon="-4.3498900">
        <ele>869.9</ele>
        <time>2018-03-28T11:05:42Z</time>
      </trkpt>
      <trkpt lat="36.8563180" lon="-4.3499800">
        <ele>868.9</ele>
        <time>2018-03-28T11:05:43Z</time>
      </trkpt>
      <trkpt lat="36.8562630" lon="-4.3500180">
        <ele>868.9</ele>
        <time>2018-03-28T11:05:44Z</time>
      </trkpt>
      <trkpt lat="36.8562080" lon="-4.3500550">
        <ele>868.9</ele>
        <time>2018-03-28T11:05:45Z</time>
      </trkpt>
      <trkpt lat="36.8561500" lon="-4.3500850">
        <ele>868.9</ele>
        <time>2018-03-28T11:05:46Z</time>
      </trkpt>
      <trkpt lat="36.8561500" lon="-4.3500850">
        <ele>868.9</ele>
        <time>2018-03-28T11:05:47Z</time>
      </trkpt>
      <trkpt lat="36.8560230" lon="-4.3501370">
        <ele>868.9</ele>
        <time>2018-03-28T11:05:48Z</time>
      </trkpt>
      <trkpt lat="36.8559600" lon="-4.3501600">
        <ele>868.9</ele>
        <time>2018-03-28T11:05:49Z</time>
      </trkpt>
      <trkpt lat="36.8559600" lon="-4.3501600">
        <ele>868.9</ele>
        <time>2018-03-28T11:05:50Z</time>
      </trkpt>
      <trkpt lat="36.8558300" lon="-4.3502070">
        <ele>868.9</ele>
        <time>2018-03-28T11:05:51Z</time>
      </trkpt>
      <trkpt lat="36.8558300" lon="-4.3502070">
        <ele>868.9</ele>
        <time>2018-03-28T11:05:52Z</time>
      </trkpt>
      <trkpt lat="36.8556980" lon="-4.3502420">
        <ele>868.9</ele>
        <time>2018-03-28T11:05:53Z</time>
      </trkpt>
      <trkpt lat="36.8556350" lon="-4.3502600">
        <ele>868.9</ele>
        <time>2018-03-28T11:05:54Z</time>
      </trkpt>
      <trkpt lat="36.8555420" lon="-4.3502910">
        <ele>868.9</ele>
        <time>2018-03-28T11:05:55Z</time>
      </trkpt>
      <trkpt lat="36.8555100" lon="-4.3502990">
        <ele>868.9</ele>
        <time>2018-03-28T11:05:56Z</time>
      </trkpt>
      <trkpt lat="36.8554470" lon="-4.3503150">
        <ele>868.9</ele>
        <time>2018-03-28T11:05:57Z</time>
      </trkpt>
      <trkpt lat="36.8554470" lon="-4.3503150">
        <ele>868.9</ele>
        <time>2018-03-28T11:05:58Z</time>
      </trkpt>
      <trkpt lat="36.8553230" lon="-4.3503320">
        <ele>868.9</ele>
        <time>2018-03-28T11:05:59Z</time>
      </trkpt>
      <trkpt lat="36.8553230" lon="-4.3503320">
        <ele>868.9</ele>
        <time>2018-03-28T11:06:00Z</time>
      </trkpt>
      <trkpt lat="36.8552050" lon="-4.3503620">
        <ele>868.9</ele>
        <time>2018-03-28T11:06:01Z</time>
      </trkpt>
      <trkpt lat="36.8552050" lon="-4.3503620">
        <ele>868.9</ele>
        <time>2018-03-28T11:06:02Z</time>
      </trkpt>
      <trkpt lat="36.8550870" lon="-4.3503950">
        <ele>867.9</ele>
        <time>2018-03-28T11:06:03Z</time>
      </trkpt>
      <trkpt lat="36.8550270" lon="-4.3504130">
        <ele>867.9</ele>
        <time>2018-03-28T11:06:04Z</time>
      </trkpt>
      <trkpt lat="36.8550270" lon="-4.3504130">
        <ele>867.9</ele>
        <time>2018-03-28T11:06:05Z</time>
      </trkpt>
      <trkpt lat="36.8549000" lon="-4.3504570">
        <ele>867.9</ele>
        <time>2018-03-28T11:06:06Z</time>
      </trkpt>
      <trkpt lat="36.8548350" lon="-4.3504780">
        <ele>867.9</ele>
        <time>2018-03-28T11:06:07Z</time>
      </trkpt>
      <trkpt lat="36.8548350" lon="-4.3504780">
        <ele>867.9</ele>
        <time>2018-03-28T11:06:08Z</time>
      </trkpt>
      <trkpt lat="36.8546950" lon="-4.3505120">
        <ele>867.9</ele>
        <time>2018-03-28T11:06:09Z</time>
      </trkpt>
      <trkpt lat="36.8546950" lon="-4.3505120">
        <ele>867.9</ele>
        <time>2018-03-28T11:06:10Z</time>
      </trkpt>
      <trkpt lat="36.8545470" lon="-4.3505170">
        <ele>867.9</ele>
        <time>2018-03-28T11:06:11Z</time>
      </trkpt>
      <trkpt lat="36.8544700" lon="-4.3505000">
        <ele>866.9</ele>
        <time>2018-03-28T11:06:12Z</time>
      </trkpt>
      <trkpt lat="36.8544700" lon="-4.3505000">
        <ele>866.9</ele>
        <time>2018-03-28T11:06:13Z</time>
      </trkpt>
      <trkpt lat="36.8542860" lon="-4.3503940">
        <ele>865.9</ele>
        <time>2018-03-28T11:06:14Z</time>
      </trkpt>
      <trkpt lat="36.8542480" lon="-4.3503710">
        <ele>865.9</ele>
        <time>2018-03-28T11:06:15Z</time>
      </trkpt>
      <trkpt lat="36.8541730" lon="-4.3503250">
        <ele>865.9</ele>
        <time>2018-03-28T11:06:16Z</time>
      </trkpt>
      <trkpt lat="36.8541730" lon="-4.3503250">
        <ele>865.9</ele>
        <time>2018-03-28T11:06:17Z</time>
      </trkpt>
      <trkpt lat="36.8540230" lon="-4.3502330">
        <ele>864.9</ele>
        <time>2018-03-28T11:06:18Z</time>
      </trkpt>
      <trkpt lat="36.8540230" lon="-4.3502330">
        <ele>864.9</ele>
        <time>2018-03-28T11:06:19Z</time>
      </trkpt>
      <trkpt lat="36.8538720" lon="-4.3501520">
        <ele>864.9</ele>
        <time>2018-03-28T11:06:20Z</time>
      </trkpt>
      <trkpt lat="36.8538720" lon="-4.3501520">
        <ele>864.9</ele>
        <time>2018-03-28T11:06:21Z</time>
      </trkpt>
      <trkpt lat="36.8537080" lon="-4.3500780">
        <ele>863.9</ele>
        <time>2018-03-28T11:06:22Z</time>
      </trkpt>
      <trkpt lat="36.8536250" lon="-4.3500500">
        <ele>863.9</ele>
        <time>2018-03-28T11:06:23Z</time>
      </trkpt>
      <trkpt lat="36.8536250" lon="-4.3500500">
        <ele>862.9</ele>
        <time>2018-03-28T11:06:24Z</time>
      </trkpt>
      <trkpt lat="36.8534570" lon="-4.3500070">
        <ele>862.9</ele>
        <time>2018-03-28T11:06:25Z</time>
      </trkpt>
      <trkpt lat="36.8534570" lon="-4.3500070">
        <ele>862.9</ele>
        <time>2018-03-28T11:06:26Z</time>
      </trkpt>
      <trkpt lat="36.8532430" lon="-4.3499830">
        <ele>862.9</ele>
        <time>2018-03-28T11:06:27Z</time>
      </trkpt>
      <trkpt lat="36.8531980" lon="-4.3499870">
        <ele>861.9</ele>
        <time>2018-03-28T11:06:28Z</time>
      </trkpt>
      <trkpt lat="36.8531080" lon="-4.3499950">
        <ele>861.9</ele>
        <time>2018-03-28T11:06:29Z</time>
      </trkpt>
      <trkpt lat="36.8531080" lon="-4.3499950">
        <ele>861.9</ele>
        <time>2018-03-28T11:06:30Z</time>
      </trkpt>
      <trkpt lat="36.8529320" lon="-4.3500520">
        <ele>861.9</ele>
        <time>2018-03-28T11:06:31Z</time>
      </trkpt>
      <trkpt lat="36.8528480" lon="-4.3500980">
        <ele>860.9</ele>
        <time>2018-03-28T11:06:32Z</time>
      </trkpt>
      <trkpt lat="36.8528480" lon="-4.3500980">
        <ele>860.9</ele>
        <time>2018-03-28T11:06:33Z</time>
      </trkpt>
      <trkpt lat="36.8526880" lon="-4.3502120">
        <ele>860.9</ele>
        <time>2018-03-28T11:06:34Z</time>
      </trkpt>
      <trkpt lat="36.8526880" lon="-4.3502120">
        <ele>859.9</ele>
        <time>2018-03-28T11:06:35Z</time>
      </trkpt>
      <trkpt lat="36.8525080" lon="-4.3502730">
        <ele>859.9</ele>
        <time>2018-03-28T11:06:36Z</time>
      </trkpt>
      <trkpt lat="36.8525080" lon="-4.3502730">
        <ele>859.9</ele>
        <time>2018-03-28T11:06:37Z</time>
      </trkpt>
      <trkpt lat="36.8523230" lon="-4.3502980">
        <ele>859.9</ele>
        <time>2018-03-28T11:06:38Z</time>
      </trkpt>
      <trkpt lat="36.8522320" lon="-4.3503030">
        <ele>858.9</ele>
        <time>2018-03-28T11:06:39Z</time>
      </trkpt>
      <trkpt lat="36.8522320" lon="-4.3503030">
        <ele>858.9</ele>
        <time>2018-03-28T11:06:40Z</time>
      </trkpt>
      <trkpt lat="36.8520530" lon="-4.3503070">
        <ele>858.9</ele>
        <time>2018-03-28T11:06:41Z</time>
      </trkpt>
      <trkpt lat="36.8520530" lon="-4.3503070">
        <ele>858.9</ele>
        <time>2018-03-28T11:06:42Z</time>
      </trkpt>
      <trkpt lat="36.8518870" lon="-4.3502950">
        <ele>858.9</ele>
        <time>2018-03-28T11:06:43Z</time>
      </trkpt>
      <trkpt lat="36.8518870" lon="-4.3502950">
        <ele>858.9</ele>
        <time>2018-03-28T11:06:44Z</time>
      </trkpt>
      <trkpt lat="36.8517250" lon="-4.3502780">
        <ele>858.9</ele>
        <time>2018-03-28T11:06:45Z</time>
      </trkpt>
      <trkpt lat="36.8517250" lon="-4.3502780">
        <ele>858.9</ele>
        <time>2018-03-28T11:06:46Z</time>
      </trkpt>
      <trkpt lat="36.8515700" lon="-4.3502620">
        <ele>858.9</ele>
        <time>2018-03-28T11:06:47Z</time>
      </trkpt>
      <trkpt lat="36.8515700" lon="-4.3502620">
        <ele>858.9</ele>
        <time>2018-03-28T11:06:48Z</time>
      </trkpt>
      <trkpt lat="36.8514320" lon="-4.3502520">
        <ele>858.9</ele>
        <time>2018-03-28T11:06:49Z</time>
      </trkpt>
      <trkpt lat="36.8514320" lon="-4.3502520">
        <ele>858.9</ele>
        <time>2018-03-28T11:06:50Z</time>
      </trkpt>
      <trkpt lat="36.8512980" lon="-4.3502380">
        <ele>858.9</ele>
        <time>2018-03-28T11:06:51Z</time>
      </trkpt>
      <trkpt lat="36.8512350" lon="-4.3502320">
        <ele>858.9</ele>
        <time>2018-03-28T11:06:52Z</time>
      </trkpt>
      <trkpt lat="36.8512350" lon="-4.3502320">
        <ele>858.9</ele>
        <time>2018-03-28T11:06:53Z</time>
      </trkpt>
      <trkpt lat="36.8511080" lon="-4.3502180">
        <ele>858.9</ele>
        <time>2018-03-28T11:06:54Z</time>
      </trkpt>
      <trkpt lat="36.8511080" lon="-4.3502180">
        <ele>858.9</ele>
        <time>2018-03-28T11:06:55Z</time>
      </trkpt>
      <trkpt lat="36.8509880" lon="-4.3502030">
        <ele>858.9</ele>
        <time>2018-03-28T11:06:56Z</time>
      </trkpt>
      <trkpt lat="36.8509880" lon="-4.3502030">
        <ele>858.9</ele>
        <time>2018-03-28T11:06:57Z</time>
      </trkpt>
      <trkpt lat="36.8508650" lon="-4.3502020">
        <ele>858.9</ele>
        <time>2018-03-28T11:06:58Z</time>
      </trkpt>
      <trkpt lat="36.8508650" lon="-4.3502020">
        <ele>858.9</ele>
        <time>2018-03-28T11:06:59Z</time>
      </trkpt>
      <trkpt lat="36.8507430" lon="-4.3502120">
        <ele>858.9</ele>
        <time>2018-03-28T11:07:00Z</time>
      </trkpt>
      <trkpt lat="36.8506830" lon="-4.3502230">
        <ele>858.9</ele>
        <time>2018-03-28T11:07:01Z</time>
      </trkpt>
      <trkpt lat="36.8506830" lon="-4.3502230">
        <ele>858.9</ele>
        <time>2018-03-28T11:07:02Z</time>
      </trkpt>
      <trkpt lat="36.8505630" lon="-4.3502470">
        <ele>859.9</ele>
        <time>2018-03-28T11:07:03Z</time>
      </trkpt>
      <trkpt lat="36.8505020" lon="-4.3502530">
        <ele>859.9</ele>
        <time>2018-03-28T11:07:04Z</time>
      </trkpt>
      <trkpt lat="36.8505020" lon="-4.3502530">
        <ele>859.9</ele>
        <time>2018-03-28T11:07:05Z</time>
      </trkpt>
      <trkpt lat="36.8503780" lon="-4.3502530">
        <ele>859.9</ele>
        <time>2018-03-28T11:07:06Z</time>
      </trkpt>
      <trkpt lat="36.8503150" lon="-4.3502470">
        <ele>859.9</ele>
        <time>2018-03-28T11:07:07Z</time>
      </trkpt>
      <trkpt lat="36.8503150" lon="-4.3502470">
        <ele>859.9</ele>
        <time>2018-03-28T11:07:08Z</time>
      </trkpt>
      <trkpt lat="36.8501900" lon="-4.3502120">
        <ele>859.9</ele>
        <time>2018-03-28T11:07:09Z</time>
      </trkpt>
      <trkpt lat="36.8501900" lon="-4.3502120">
        <ele>859.9</ele>
        <time>2018-03-28T11:07:10Z</time>
      </trkpt>
      <trkpt lat="36.8500520" lon="-4.3501620">
        <ele>858.9</ele>
        <time>2018-03-28T11:07:11Z</time>
      </trkpt>
      <trkpt lat="36.8500520" lon="-4.3501620">
        <ele>858.9</ele>
        <time>2018-03-28T11:07:12Z</time>
      </trkpt>
      <trkpt lat="36.8499100" lon="-4.3501150">
        <ele>857.9</ele>
        <time>2018-03-28T11:07:13Z</time>
      </trkpt>
      <trkpt lat="36.8499100" lon="-4.3501150">
        <ele>857.9</ele>
        <time>2018-03-28T11:07:14Z</time>
      </trkpt>
      <trkpt lat="36.8497630" lon="-4.3500750">
        <ele>857.9</ele>
        <time>2018-03-28T11:07:15Z</time>
      </trkpt>
      <trkpt lat="36.8496930" lon="-4.3500530">
        <ele>857.9</ele>
        <time>2018-03-28T11:07:16Z</time>
      </trkpt>
      <trkpt lat="36.8496930" lon="-4.3500530">
        <ele>857.9</ele>
        <time>2018-03-28T11:07:17Z</time>
      </trkpt>
      <trkpt lat="36.8495520" lon="-4.3499980">
        <ele>857.9</ele>
        <time>2018-03-28T11:07:18Z</time>
      </trkpt>
      <trkpt lat="36.8494870" lon="-4.3499670">
        <ele>856.9</ele>
        <time>2018-03-28T11:07:19Z</time>
      </trkpt>
      <trkpt lat="36.8494380" lon="-4.3499440">
        <ele>856.9</ele>
        <time>2018-03-28T11:07:20Z</time>
      </trkpt>
      <trkpt lat="36.8493890" lon="-4.3499220">
        <ele>856.9</ele>
        <time>2018-03-28T11:07:21Z</time>
      </trkpt>
      <trkpt lat="36.8492900" lon="-4.3498780">
        <ele>856.9</ele>
        <time>2018-03-28T11:07:22Z</time>
      </trkpt>
      <trkpt lat="36.8492900" lon="-4.3498780">
        <ele>855.9</ele>
        <time>2018-03-28T11:07:23Z</time>
      </trkpt>
      <trkpt lat="36.8491620" lon="-4.3498150">
        <ele>855.9</ele>
        <time>2018-03-28T11:07:24Z</time>
      </trkpt>
      <trkpt lat="36.8490950" lon="-4.3497880">
        <ele>855.9</ele>
        <time>2018-03-28T11:07:25Z</time>
      </trkpt>
      <trkpt lat="36.8490950" lon="-4.3497880">
        <ele>855.9</ele>
        <time>2018-03-28T11:07:26Z</time>
      </trkpt>
      <trkpt lat="36.8489570" lon="-4.3497670">
        <ele>855.9</ele>
        <time>2018-03-28T11:07:27Z</time>
      </trkpt>
      <trkpt lat="36.8489570" lon="-4.3497670">
        <ele>855.9</ele>
        <time>2018-03-28T11:07:28Z</time>
      </trkpt>
      <trkpt lat="36.8488220" lon="-4.3497820">
        <ele>855.9</ele>
        <time>2018-03-28T11:07:29Z</time>
      </trkpt>
      <trkpt lat="36.8487580" lon="-4.3497950">
        <ele>855.9</ele>
        <time>2018-03-28T11:07:30Z</time>
      </trkpt>
      <trkpt lat="36.8487580" lon="-4.3497950">
        <ele>855.9</ele>
        <time>2018-03-28T11:07:31Z</time>
      </trkpt>
      <trkpt lat="36.8486420" lon="-4.3498170">
        <ele>855.9</ele>
        <time>2018-03-28T11:07:32Z</time>
      </trkpt>
      <trkpt lat="36.8486420" lon="-4.3498170">
        <ele>855.9</ele>
        <time>2018-03-28T11:07:33Z</time>
      </trkpt>
      <trkpt lat="36.8485380" lon="-4.3498370">
        <ele>855.9</ele>
        <time>2018-03-28T11:07:34Z</time>
      </trkpt>
      <trkpt lat="36.8485380" lon="-4.3498370">
        <ele>855.9</ele>
        <time>2018-03-28T11:07:35Z</time>
      </trkpt>
      <trkpt lat="36.8484370" lon="-4.3498480">
        <ele>855.9</ele>
        <time>2018-03-28T11:07:36Z</time>
      </trkpt>
      <trkpt lat="36.8483870" lon="-4.3498520">
        <ele>855.9</ele>
        <time>2018-03-28T11:07:37Z</time>
      </trkpt>
      <trkpt lat="36.8483870" lon="-4.3498520">
        <ele>855.9</ele>
        <time>2018-03-28T11:07:38Z</time>
      </trkpt>
      <trkpt lat="36.8482880" lon="-4.3498520">
        <ele>855.9</ele>
        <time>2018-03-28T11:07:39Z</time>
      </trkpt>
      <trkpt lat="36.8482420" lon="-4.3498520">
        <ele>855.9</ele>
        <time>2018-03-28T11:07:40Z</time>
      </trkpt>
      <trkpt lat="36.8482420" lon="-4.3498520">
        <ele>856.9</ele>
        <time>2018-03-28T11:07:41Z</time>
      </trkpt>
      <trkpt lat="36.8481420" lon="-4.3498430">
        <ele>856.9</ele>
        <time>2018-03-28T11:07:42Z</time>
      </trkpt>
      <trkpt lat="36.8480900" lon="-4.3498400">
        <ele>856.9</ele>
        <time>2018-03-28T11:07:43Z</time>
      </trkpt>
      <trkpt lat="36.8480900" lon="-4.3498400">
        <ele>856.9</ele>
        <time>2018-03-28T11:07:44Z</time>
      </trkpt>
      <trkpt lat="36.8479900" lon="-4.3498320">
        <ele>856.9</ele>
        <time>2018-03-28T11:07:45Z</time>
      </trkpt>
      <trkpt lat="36.8479400" lon="-4.3498250">
        <ele>856.9</ele>
        <time>2018-03-28T11:07:46Z</time>
      </trkpt>
      <trkpt lat="36.8479400" lon="-4.3498250">
        <ele>856.9</ele>
        <time>2018-03-28T11:07:47Z</time>
      </trkpt>
      <trkpt lat="36.8478380" lon="-4.3498100">
        <ele>856.9</ele>
        <time>2018-03-28T11:07:48Z</time>
      </trkpt>
      <trkpt lat="36.8477920" lon="-4.3498020">
        <ele>856.9</ele>
        <time>2018-03-28T11:07:49Z</time>
      </trkpt>
      <trkpt lat="36.8477460" lon="-4.3497970">
        <ele>856.9</ele>
        <time>2018-03-28T11:07:50Z</time>
      </trkpt>
      <trkpt lat="36.8477000" lon="-4.3497920">
        <ele>856.9</ele>
        <time>2018-03-28T11:07:51Z</time>
      </trkpt>
      <trkpt lat="36.8477000" lon="-4.3497920">
        <ele>856.9</ele>
        <time>2018-03-28T11:07:52Z</time>
      </trkpt>
      <trkpt lat="36.8476100" lon="-4.3497720">
        <ele>856.9</ele>
        <time>2018-03-28T11:07:53Z</time>
      </trkpt>
      <trkpt lat="36.8475670" lon="-4.3497580">
        <ele>856.9</ele>
        <time>2018-03-28T11:07:54Z</time>
      </trkpt>
      <trkpt lat="36.8475670" lon="-4.3497580">
        <ele>857.9</ele>
        <time>2018-03-28T11:07:55Z</time>
      </trkpt>
      <trkpt lat="36.8474750" lon="-4.3497330">
        <ele>857.9</ele>
        <time>2018-03-28T11:07:56Z</time>
      </trkpt>
      <trkpt lat="36.8474750" lon="-4.3497330">
        <ele>857.9</ele>
        <time>2018-03-28T11:07:57Z</time>
      </trkpt>
      <trkpt lat="36.8473880" lon="-4.3497120">
        <ele>857.9</ele>
        <time>2018-03-28T11:07:58Z</time>
      </trkpt>
      <trkpt lat="36.8473880" lon="-4.3497120">
        <ele>857.9</ele>
        <time>2018-03-28T11:07:59Z</time>
      </trkpt>
      <trkpt lat="36.8473050" lon="-4.3496920">
        <ele>858.9</ele>
        <time>2018-03-28T11:08:00Z</time>
      </trkpt>
      <trkpt lat="36.8472650" lon="-4.3496800">
        <ele>858.9</ele>
        <time>2018-03-28T11:08:01Z</time>
      </trkpt>
      <trkpt lat="36.8472650" lon="-4.3496800">
        <ele>858.9</ele>
        <time>2018-03-28T11:08:02Z</time>
      </trkpt>
      <trkpt lat="36.8471850" lon="-4.3496550">
        <ele>858.9</ele>
        <time>2018-03-28T11:08:03Z</time>
      </trkpt>
      <trkpt lat="36.8471850" lon="-4.3496550">
        <ele>858.9</ele>
        <time>2018-03-28T11:08:04Z</time>
      </trkpt>
      <trkpt lat="36.8470970" lon="-4.3496330">
        <ele>858.9</ele>
        <time>2018-03-28T11:08:05Z</time>
      </trkpt>
      <trkpt lat="36.8470970" lon="-4.3496330">
        <ele>859.9</ele>
        <time>2018-03-28T11:08:06Z</time>
      </trkpt>
      <trkpt lat="36.8470200" lon="-4.3496070">
        <ele>859.9</ele>
        <time>2018-03-28T11:08:07Z</time>
      </trkpt>
      <trkpt lat="36.8470200" lon="-4.3496070">
        <ele>859.9</ele>
        <time>2018-03-28T11:08:08Z</time>
      </trkpt>
      <trkpt lat="36.8469380" lon="-4.3495920">
        <ele>859.9</ele>
        <time>2018-03-28T11:08:09Z</time>
      </trkpt>
      <trkpt lat="36.8468970" lon="-4.3495870">
        <ele>860.9</ele>
        <time>2018-03-28T11:08:10Z</time>
      </trkpt>
      <trkpt lat="36.8468970" lon="-4.3495870">
        <ele>860.9</ele>
        <time>2018-03-28T11:08:11Z</time>
      </trkpt>
      <trkpt lat="36.8468200" lon="-4.3495880">
        <ele>860.9</ele>
        <time>2018-03-28T11:08:12Z</time>
      </trkpt>
      <trkpt lat="36.8467820" lon="-4.3495900">
        <ele>860.9</ele>
        <time>2018-03-28T11:08:13Z</time>
      </trkpt>
      <trkpt lat="36.8467820" lon="-4.3495900">
        <ele>860.9</ele>
        <time>2018-03-28T11:08:14Z</time>
      </trkpt>
      <trkpt lat="36.8467070" lon="-4.3495930">
        <ele>860.9</ele>
        <time>2018-03-28T11:08:15Z</time>
      </trkpt>
      <trkpt lat="36.8467070" lon="-4.3495930">
        <ele>861.9</ele>
        <time>2018-03-28T11:08:16Z</time>
      </trkpt>
      <trkpt lat="36.8466330" lon="-4.3496050">
        <ele>861.9</ele>
        <time>2018-03-28T11:08:17Z</time>
      </trkpt>
      <trkpt lat="36.8466330" lon="-4.3496050">
        <ele>861.9</ele>
        <time>2018-03-28T11:08:18Z</time>
      </trkpt>
      <trkpt lat="36.8465650" lon="-4.3496220">
        <ele>861.9</ele>
        <time>2018-03-28T11:08:19Z</time>
      </trkpt>
      <trkpt lat="36.8465330" lon="-4.3496250">
        <ele>862.9</ele>
        <time>2018-03-28T11:08:20Z</time>
      </trkpt>
      <trkpt lat="36.8465330" lon="-4.3496250">
        <ele>862.9</ele>
        <time>2018-03-28T11:08:21Z</time>
      </trkpt>
      <trkpt lat="36.8464680" lon="-4.3496230">
        <ele>862.9</ele>
        <time>2018-03-28T11:08:22Z</time>
      </trkpt>
      <trkpt lat="36.8464680" lon="-4.3496230">
        <ele>862.9</ele>
        <time>2018-03-28T11:08:23Z</time>
      </trkpt>
      <trkpt lat="36.8464050" lon="-4.3496170">
        <ele>862.9</ele>
        <time>2018-03-28T11:08:24Z</time>
      </trkpt>
      <trkpt lat="36.8463730" lon="-4.3496170">
        <ele>862.9</ele>
        <time>2018-03-28T11:08:25Z</time>
      </trkpt>
      <trkpt lat="36.8463730" lon="-4.3496170">
        <ele>863.9</ele>
        <time>2018-03-28T11:08:26Z</time>
      </trkpt>
      <trkpt lat="36.8463170" lon="-4.3496150">
        <ele>863.9</ele>
        <time>2018-03-28T11:08:27Z</time>
      </trkpt>
      <trkpt lat="36.8463170" lon="-4.3496150">
        <ele>863.9</ele>
        <time>2018-03-28T11:08:28Z</time>
      </trkpt>
      <trkpt lat="36.8462670" lon="-4.3496080">
        <ele>863.9</ele>
        <time>2018-03-28T11:08:29Z</time>
      </trkpt>
      <trkpt lat="36.8462420" lon="-4.3496030">
        <ele>863.9</ele>
        <time>2018-03-28T11:08:30Z</time>
      </trkpt>
      <trkpt lat="36.8462200" lon="-4.3496030">
        <ele>864.9</ele>
        <time>2018-03-28T11:08:31Z</time>
      </trkpt>
      <trkpt lat="36.8462200" lon="-4.3496030">
        <ele>864.9</ele>
        <time>2018-03-28T11:08:32Z</time>
      </trkpt>
      <trkpt lat="36.8461730" lon="-4.3495980">
        <ele>864.9</ele>
        <time>2018-03-28T11:08:33Z</time>
      </trkpt>
      <trkpt lat="36.8461730" lon="-4.3495980">
        <ele>864.9</ele>
        <time>2018-03-28T11:08:34Z</time>
      </trkpt>
      <trkpt lat="36.8461250" lon="-4.3495820">
        <ele>865.9</ele>
        <time>2018-03-28T11:08:35Z</time>
      </trkpt>
      <trkpt lat="36.8461250" lon="-4.3495820">
        <ele>865.9</ele>
        <time>2018-03-28T11:08:36Z</time>
      </trkpt>
      <trkpt lat="36.8460730" lon="-4.3495500">
        <ele>865.9</ele>
        <time>2018-03-28T11:08:37Z</time>
      </trkpt>
      <trkpt lat="36.8460730" lon="-4.3495500">
        <ele>865.9</ele>
        <time>2018-03-28T11:08:38Z</time>
      </trkpt>
      <trkpt lat="36.8460080" lon="-4.3495180">
        <ele>865.9</ele>
        <time>2018-03-28T11:08:39Z</time>
      </trkpt>
      <trkpt lat="36.8459800" lon="-4.3494980">
        <ele>865.9</ele>
        <time>2018-03-28T11:08:40Z</time>
      </trkpt>
      <trkpt lat="36.8459800" lon="-4.3494980">
        <ele>866.9</ele>
        <time>2018-03-28T11:08:41Z</time>
      </trkpt>
      <trkpt lat="36.8459320" lon="-4.3494620">
        <ele>866.9</ele>
        <time>2018-03-28T11:08:42Z</time>
      </trkpt>
      <trkpt lat="36.8459100" lon="-4.3494400">
        <ele>866.9</ele>
        <time>2018-03-28T11:08:43Z</time>
      </trkpt>
      <trkpt lat="36.8459100" lon="-4.3494400">
        <ele>866.9</ele>
        <time>2018-03-28T11:08:44Z</time>
      </trkpt>
      <trkpt lat="36.8458650" lon="-4.3493970">
        <ele>866.9</ele>
        <time>2018-03-28T11:08:45Z</time>
      </trkpt>
      <trkpt lat="36.8458650" lon="-4.3493970">
        <ele>866.9</ele>
        <time>2018-03-28T11:08:46Z</time>
      </trkpt>
      <trkpt lat="36.8458300" lon="-4.3493570">
        <ele>866.9</ele>
        <time>2018-03-28T11:08:47Z</time>
      </trkpt>
      <trkpt lat="36.8458300" lon="-4.3493570">
        <ele>867.9</ele>
        <time>2018-03-28T11:08:48Z</time>
      </trkpt>
      <trkpt lat="36.8457850" lon="-4.3493250">
        <ele>867.9</ele>
        <time>2018-03-28T11:08:49Z</time>
      </trkpt>
      <trkpt lat="36.8457850" lon="-4.3493250">
        <ele>867.9</ele>
        <time>2018-03-28T11:08:50Z</time>
      </trkpt>
      <trkpt lat="36.8457370" lon="-4.3492830">
        <ele>867.9</ele>
        <time>2018-03-28T11:08:51Z</time>
      </trkpt>
      <trkpt lat="36.8457370" lon="-4.3492830">
        <ele>867.9</ele>
        <time>2018-03-28T11:08:52Z</time>
      </trkpt>
      <trkpt lat="36.8456820" lon="-4.3492420">
        <ele>867.9</ele>
        <time>2018-03-28T11:08:53Z</time>
      </trkpt>
      <trkpt lat="36.8456600" lon="-4.3492170">
        <ele>868.9</ele>
        <time>2018-03-28T11:08:54Z</time>
      </trkpt>
      <trkpt lat="36.8456380" lon="-4.3491920">
        <ele>868.9</ele>
        <time>2018-03-28T11:08:55Z</time>
      </trkpt>
      <trkpt lat="36.8456380" lon="-4.3491920">
        <ele>868.9</ele>
        <time>2018-03-28T11:08:56Z</time>
      </trkpt>
      <trkpt lat="36.8455920" lon="-4.3491470">
        <ele>868.9</ele>
        <time>2018-03-28T11:08:57Z</time>
      </trkpt>
      <trkpt lat="36.8455920" lon="-4.3491470">
        <ele>869.9</ele>
        <time>2018-03-28T11:08:58Z</time>
      </trkpt>
      <trkpt lat="36.8455470" lon="-4.3490930">
        <ele>869.9</ele>
        <time>2018-03-28T11:08:59Z</time>
      </trkpt>
      <trkpt lat="36.8455250" lon="-4.3490670">
        <ele>869.9</ele>
        <time>2018-03-28T11:09:00Z</time>
      </trkpt>
      <trkpt lat="36.8455050" lon="-4.3490400">
        <ele>869.9</ele>
        <time>2018-03-28T11:09:01Z</time>
      </trkpt>
      <trkpt lat="36.8455050" lon="-4.3490400">
        <ele>869.9</ele>
        <time>2018-03-28T11:09:02Z</time>
      </trkpt>
      <trkpt lat="36.8454700" lon="-4.3489880">
        <ele>869.9</ele>
        <time>2018-03-28T11:09:03Z</time>
      </trkpt>
      <trkpt lat="36.8454700" lon="-4.3489880">
        <ele>869.9</ele>
        <time>2018-03-28T11:09:04Z</time>
      </trkpt>
      <trkpt lat="36.8454320" lon="-4.3489350">
        <ele>869.9</ele>
        <time>2018-03-28T11:09:05Z</time>
      </trkpt>
      <trkpt lat="36.8454100" lon="-4.3489180">
        <ele>869.9</ele>
        <time>2018-03-28T11:09:06Z</time>
      </trkpt>
      <trkpt lat="36.8453870" lon="-4.3489020">
        <ele>869.9</ele>
        <time>2018-03-28T11:09:07Z</time>
      </trkpt>
      <trkpt lat="36.8453870" lon="-4.3489020">
        <ele>869.9</ele>
        <time>2018-03-28T11:09:08Z</time>
      </trkpt>
      <trkpt lat="36.8453280" lon="-4.3488600">
        <ele>869.9</ele>
        <time>2018-03-28T11:09:09Z</time>
      </trkpt>
      <trkpt lat="36.8453280" lon="-4.3488600">
        <ele>870.9</ele>
        <time>2018-03-28T11:09:10Z</time>
      </trkpt>
      <trkpt lat="36.8452650" lon="-4.3488270">
        <ele>870.9</ele>
        <time>2018-03-28T11:09:11Z</time>
      </trkpt>
      <trkpt lat="36.8452650" lon="-4.3488270">
        <ele>870.9</ele>
        <time>2018-03-28T11:09:12Z</time>
      </trkpt>
      <trkpt lat="36.8452080" lon="-4.3488000">
        <ele>870.9</ele>
        <time>2018-03-28T11:09:13Z</time>
      </trkpt>
      <trkpt lat="36.8452080" lon="-4.3488000">
        <ele>870.9</ele>
        <time>2018-03-28T11:09:14Z</time>
      </trkpt>
      <trkpt lat="36.8451650" lon="-4.3487800">
        <ele>870.9</ele>
        <time>2018-03-28T11:09:15Z</time>
      </trkpt>
      <trkpt lat="36.8451380" lon="-4.3487680">
        <ele>871.9</ele>
        <time>2018-03-28T11:09:16Z</time>
      </trkpt>
      <trkpt lat="36.8451380" lon="-4.3487680">
        <ele>871.9</ele>
        <time>2018-03-28T11:09:17Z</time>
      </trkpt>
      <trkpt lat="36.8450870" lon="-4.3487500">
        <ele>871.9</ele>
        <time>2018-03-28T11:09:18Z</time>
      </trkpt>
      <trkpt lat="36.8450600" lon="-4.3487420">
        <ele>871.9</ele>
        <time>2018-03-28T11:09:19Z</time>
      </trkpt>
      <trkpt lat="36.8450600" lon="-4.3487420">
        <ele>872.9</ele>
        <time>2018-03-28T11:09:20Z</time>
      </trkpt>
      <trkpt lat="36.8450080" lon="-4.3487400">
        <ele>872.9</ele>
        <time>2018-03-28T11:09:21Z</time>
      </trkpt>
      <trkpt lat="36.8450080" lon="-4.3487400">
        <ele>872.9</ele>
        <time>2018-03-28T11:09:22Z</time>
      </trkpt>
      <trkpt lat="36.8449530" lon="-4.3487470">
        <ele>873.9</ele>
        <time>2018-03-28T11:09:23Z</time>
      </trkpt>
      <trkpt lat="36.8449300" lon="-4.3487480">
        <ele>873.9</ele>
        <time>2018-03-28T11:09:24Z</time>
      </trkpt>
      <trkpt lat="36.8449070" lon="-4.3487470">
        <ele>873.9</ele>
        <time>2018-03-28T11:09:25Z</time>
      </trkpt>
      <trkpt lat="36.8449070" lon="-4.3487470">
        <ele>873.9</ele>
        <time>2018-03-28T11:09:26Z</time>
      </trkpt>
      <trkpt lat="36.8448470" lon="-4.3487580">
        <ele>873.9</ele>
        <time>2018-03-28T11:09:27Z</time>
      </trkpt>
      <trkpt lat="36.8448220" lon="-4.3487650">
        <ele>874.9</ele>
        <time>2018-03-28T11:09:28Z</time>
      </trkpt>
      <trkpt lat="36.8448220" lon="-4.3487650">
        <ele>874.9</ele>
        <time>2018-03-28T11:09:29Z</time>
      </trkpt>
      <trkpt lat="36.8447730" lon="-4.3487820">
        <ele>874.9</ele>
        <time>2018-03-28T11:09:30Z</time>
      </trkpt>
      <trkpt lat="36.8447470" lon="-4.3487950">
        <ele>875.9</ele>
        <time>2018-03-28T11:09:31Z</time>
      </trkpt>
      <trkpt lat="36.8447200" lon="-4.3488030">
        <ele>875.9</ele>
        <time>2018-03-28T11:09:32Z</time>
      </trkpt>
      <trkpt lat="36.8447200" lon="-4.3488030">
        <ele>875.9</ele>
        <time>2018-03-28T11:09:33Z</time>
      </trkpt>
      <trkpt lat="36.8446670" lon="-4.3488370">
        <ele>875.9</ele>
        <time>2018-03-28T11:09:34Z</time>
      </trkpt>
      <trkpt lat="36.8446670" lon="-4.3488370">
        <ele>876.9</ele>
        <time>2018-03-28T11:09:35Z</time>
      </trkpt>
      <trkpt lat="36.8446150" lon="-4.3488700">
        <ele>876.9</ele>
        <time>2018-03-28T11:09:36Z</time>
      </trkpt>
      <trkpt lat="36.8445880" lon="-4.3488900">
        <ele>876.9</ele>
        <time>2018-03-28T11:09:37Z</time>
      </trkpt>
      <trkpt lat="36.8445880" lon="-4.3488900">
        <ele>876.9</ele>
        <time>2018-03-28T11:09:38Z</time>
      </trkpt>
      <trkpt lat="36.8445430" lon="-4.3489300">
        <ele>876.9</ele>
        <time>2018-03-28T11:09:39Z</time>
      </trkpt>
      <trkpt lat="36.8445250" lon="-4.3489500">
        <ele>876.9</ele>
        <time>2018-03-28T11:09:40Z</time>
      </trkpt>
      <trkpt lat="36.8445250" lon="-4.3489500">
        <ele>876.9</ele>
        <time>2018-03-28T11:09:41Z</time>
      </trkpt>
      <trkpt lat="36.8444850" lon="-4.3489800">
        <ele>876.9</ele>
        <time>2018-03-28T11:09:42Z</time>
      </trkpt>
      <trkpt lat="36.8444620" lon="-4.3489920">
        <ele>877.9</ele>
        <time>2018-03-28T11:09:43Z</time>
      </trkpt>
      <trkpt lat="36.8444620" lon="-4.3489920">
        <ele>877.9</ele>
        <time>2018-03-28T11:09:44Z</time>
      </trkpt>
      <trkpt lat="36.8444250" lon="-4.3490230">
        <ele>877.9</ele>
        <time>2018-03-28T11:09:45Z</time>
      </trkpt>
      <trkpt lat="36.8444030" lon="-4.3490370">
        <ele>877.9</ele>
        <time>2018-03-28T11:09:46Z</time>
      </trkpt>
      <trkpt lat="36.8444030" lon="-4.3490370">
        <ele>878.9</ele>
        <time>2018-03-28T11:09:47Z</time>
      </trkpt>
      <trkpt lat="36.8443750" lon="-4.3490630">
        <ele>878.9</ele>
        <time>2018-03-28T11:09:48Z</time>
      </trkpt>
      <trkpt lat="36.8443530" lon="-4.3490780">
        <ele>878.9</ele>
        <time>2018-03-28T11:09:49Z</time>
      </trkpt>
      <trkpt lat="36.8443530" lon="-4.3490780">
        <ele>878.9</ele>
        <time>2018-03-28T11:09:50Z</time>
      </trkpt>
      <trkpt lat="36.8443130" lon="-4.3491150">
        <ele>878.9</ele>
        <time>2018-03-28T11:09:51Z</time>
      </trkpt>
      <trkpt lat="36.8442950" lon="-4.3491330">
        <ele>879.9</ele>
        <time>2018-03-28T11:09:52Z</time>
      </trkpt>
      <trkpt lat="36.8442950" lon="-4.3491330">
        <ele>879.9</ele>
        <time>2018-03-28T11:09:53Z</time>
      </trkpt>
      <trkpt lat="36.8442390" lon="-4.3491600">
        <ele>879.9</ele>
        <time>2018-03-28T11:09:54Z</time>
      </trkpt>
      <trkpt lat="36.8442280" lon="-4.3491620">
        <ele>879.9</ele>
        <time>2018-03-28T11:09:55Z</time>
      </trkpt>
      <trkpt lat="36.8442280" lon="-4.3491620">
        <ele>880.9</ele>
        <time>2018-03-28T11:09:56Z</time>
      </trkpt>
      <trkpt lat="36.8441820" lon="-4.3492090">
        <ele>880.9</ele>
        <time>2018-03-28T11:09:57Z</time>
      </trkpt>
      <trkpt lat="36.8441730" lon="-4.3492200">
        <ele>880.9</ele>
        <time>2018-03-28T11:09:58Z</time>
      </trkpt>
      <trkpt lat="36.8441730" lon="-4.3492200">
        <ele>880.9</ele>
        <time>2018-03-28T11:09:59Z</time>
      </trkpt>
      <trkpt lat="36.8441370" lon="-4.3492470">
        <ele>880.9</ele>
        <time>2018-03-28T11:10:00Z</time>
      </trkpt>
      <trkpt lat="36.8441130" lon="-4.3492530">
        <ele>880.9</ele>
        <time>2018-03-28T11:10:01Z</time>
      </trkpt>
      <trkpt lat="36.8441130" lon="-4.3492530">
        <ele>881.9</ele>
        <time>2018-03-28T11:10:02Z</time>
      </trkpt>
      <trkpt lat="36.8440670" lon="-4.3492670">
        <ele>881.9</ele>
        <time>2018-03-28T11:10:03Z</time>
      </trkpt>
      <trkpt lat="36.8440670" lon="-4.3492670">
        <ele>881.9</ele>
        <time>2018-03-28T11:10:04Z</time>
      </trkpt>
      <trkpt lat="36.8440200" lon="-4.3492830">
        <ele>881.9</ele>
        <time>2018-03-28T11:10:05Z</time>
      </trkpt>
      <trkpt lat="36.8440200" lon="-4.3492830">
        <ele>881.9</ele>
        <time>2018-03-28T11:10:06Z</time>
      </trkpt>
      <trkpt lat="36.8439800" lon="-4.3492950">
        <ele>881.9</ele>
        <time>2018-03-28T11:10:07Z</time>
      </trkpt>
      <trkpt lat="36.8439800" lon="-4.3492950">
        <ele>881.9</ele>
        <time>2018-03-28T11:10:08Z</time>
      </trkpt>
      <trkpt lat="36.8439400" lon="-4.3493050">
        <ele>881.9</ele>
        <time>2018-03-28T11:10:09Z</time>
      </trkpt>
      <trkpt lat="36.8439400" lon="-4.3493050">
        <ele>882.9</ele>
        <time>2018-03-28T11:10:10Z</time>
      </trkpt>
      <trkpt lat="36.8439070" lon="-4.3493130">
        <ele>882.9</ele>
        <time>2018-03-28T11:10:11Z</time>
      </trkpt>
      <trkpt lat="36.8439070" lon="-4.3493130">
        <ele>882.9</ele>
        <time>2018-03-28T11:10:12Z</time>
      </trkpt>
      <trkpt lat="36.8438720" lon="-4.3493080">
        <ele>882.9</ele>
        <time>2018-03-28T11:10:13Z</time>
      </trkpt>
      <trkpt lat="36.8438520" lon="-4.3493070">
        <ele>883.9</ele>
        <time>2018-03-28T11:10:14Z</time>
      </trkpt>
      <trkpt lat="36.8438520" lon="-4.3493070">
        <ele>883.9</ele>
        <time>2018-03-28T11:10:15Z</time>
      </trkpt>
      <trkpt lat="36.8438170" lon="-4.3492970">
        <ele>883.9</ele>
        <time>2018-03-28T11:10:16Z</time>
      </trkpt>
      <trkpt lat="36.8438170" lon="-4.3492970">
        <ele>883.9</ele>
        <time>2018-03-28T11:10:17Z</time>
      </trkpt>
      <trkpt lat="36.8437750" lon="-4.3492780">
        <ele>883.9</ele>
        <time>2018-03-28T11:10:18Z</time>
      </trkpt>
      <trkpt lat="36.8437750" lon="-4.3492780">
        <ele>883.9</ele>
        <time>2018-03-28T11:10:19Z</time>
      </trkpt>
      <trkpt lat="36.8437300" lon="-4.3492530">
        <ele>884.9</ele>
        <time>2018-03-28T11:10:20Z</time>
      </trkpt>
      <trkpt lat="36.8437020" lon="-4.3492470">
        <ele>884.9</ele>
        <time>2018-03-28T11:10:21Z</time>
      </trkpt>
      <trkpt lat="36.8436750" lon="-4.3492400">
        <ele>884.9</ele>
        <time>2018-03-28T11:10:22Z</time>
      </trkpt>
      <trkpt lat="36.8436750" lon="-4.3492400">
        <ele>885.9</ele>
        <time>2018-03-28T11:10:23Z</time>
      </trkpt>
      <trkpt lat="36.8436300" lon="-4.3492320">
        <ele>885.9</ele>
        <time>2018-03-28T11:10:24Z</time>
      </trkpt>
      <trkpt lat="36.8436070" lon="-4.3492230">
        <ele>885.9</ele>
        <time>2018-03-28T11:10:25Z</time>
      </trkpt>
      <trkpt lat="36.8435900" lon="-4.3492100">
        <ele>885.9</ele>
        <time>2018-03-28T11:10:26Z</time>
      </trkpt>
      <trkpt lat="36.8435710" lon="-4.3491960">
        <ele>885.9</ele>
        <time>2018-03-28T11:10:27Z</time>
      </trkpt>
      <trkpt lat="36.8435520" lon="-4.3491820">
        <ele>885.9</ele>
        <time>2018-03-28T11:10:28Z</time>
      </trkpt>
      <trkpt lat="36.8435280" lon="-4.3491700">
        <ele>885.9</ele>
        <time>2018-03-28T11:10:29Z</time>
      </trkpt>
      <trkpt lat="36.8435280" lon="-4.3491700">
        <ele>885.9</ele>
        <time>2018-03-28T11:10:30Z</time>
      </trkpt>
      <trkpt lat="36.8434820" lon="-4.3491450">
        <ele>886.9</ele>
        <time>2018-03-28T11:10:31Z</time>
      </trkpt>
      <trkpt lat="36.8434820" lon="-4.3491450">
        <ele>886.9</ele>
        <time>2018-03-28T11:10:32Z</time>
      </trkpt>
      <trkpt lat="36.8434400" lon="-4.3491170">
        <ele>886.9</ele>
        <time>2018-03-28T11:10:33Z</time>
      </trkpt>
      <trkpt lat="36.8434400" lon="-4.3491170">
        <ele>886.9</ele>
        <time>2018-03-28T11:10:34Z</time>
      </trkpt>
      <trkpt lat="36.8433920" lon="-4.3490780">
        <ele>887.9</ele>
        <time>2018-03-28T11:10:35Z</time>
      </trkpt>
      <trkpt lat="36.8433920" lon="-4.3490780">
        <ele>887.9</ele>
        <time>2018-03-28T11:10:36Z</time>
      </trkpt>
      <trkpt lat="36.8433480" lon="-4.3490350">
        <ele>887.9</ele>
        <time>2018-03-28T11:10:37Z</time>
      </trkpt>
      <trkpt lat="36.8433480" lon="-4.3490350">
        <ele>887.9</ele>
        <time>2018-03-28T11:10:38Z</time>
      </trkpt>
      <trkpt lat="36.8433000" lon="-4.3490000">
        <ele>887.9</ele>
        <time>2018-03-28T11:10:39Z</time>
      </trkpt>
      <trkpt lat="36.8433000" lon="-4.3490000">
        <ele>887.9</ele>
        <time>2018-03-28T11:10:40Z</time>
      </trkpt>
      <trkpt lat="36.8432620" lon="-4.3489600">
        <ele>888.9</ele>
        <time>2018-03-28T11:10:41Z</time>
      </trkpt>
      <trkpt lat="36.8432620" lon="-4.3489600">
        <ele>888.9</ele>
        <time>2018-03-28T11:10:42Z</time>
      </trkpt>
      <trkpt lat="36.8432000" lon="-4.3489350">
        <ele>888.9</ele>
        <time>2018-03-28T11:10:43Z</time>
      </trkpt>
      <trkpt lat="36.8432000" lon="-4.3489350">
        <ele>888.9</ele>
        <time>2018-03-28T11:10:44Z</time>
      </trkpt>
      <trkpt lat="36.8431650" lon="-4.3488970">
        <ele>888.9</ele>
        <time>2018-03-28T11:10:45Z</time>
      </trkpt>
      <trkpt lat="36.8431650" lon="-4.3488970">
        <ele>888.9</ele>
        <time>2018-03-28T11:10:46Z</time>
      </trkpt>
      <trkpt lat="36.8431270" lon="-4.3488600">
        <ele>889.9</ele>
        <time>2018-03-28T11:10:47Z</time>
      </trkpt>
      <trkpt lat="36.8431270" lon="-4.3488600">
        <ele>889.9</ele>
        <time>2018-03-28T11:10:48Z</time>
      </trkpt>
      <trkpt lat="36.8430900" lon="-4.3488230">
        <ele>889.9</ele>
        <time>2018-03-28T11:10:49Z</time>
      </trkpt>
      <trkpt lat="36.8430900" lon="-4.3488230">
        <ele>889.9</ele>
        <time>2018-03-28T11:10:50Z</time>
      </trkpt>
      <trkpt lat="36.8430420" lon="-4.3487900">
        <ele>890.9</ele>
        <time>2018-03-28T11:10:51Z</time>
      </trkpt>
      <trkpt lat="36.8430150" lon="-4.3487820">
        <ele>890.9</ele>
        <time>2018-03-28T11:10:52Z</time>
      </trkpt>
      <trkpt lat="36.8429900" lon="-4.3487700">
        <ele>890.9</ele>
        <time>2018-03-28T11:10:53Z</time>
      </trkpt>
      <trkpt lat="36.8429900" lon="-4.3487700">
        <ele>890.9</ele>
        <time>2018-03-28T11:10:54Z</time>
      </trkpt>
      <trkpt lat="36.8429370" lon="-4.3487570">
        <ele>891.9</ele>
        <time>2018-03-28T11:10:55Z</time>
      </trkpt>
      <trkpt lat="36.8429370" lon="-4.3487570">
        <ele>891.9</ele>
        <time>2018-03-28T11:10:56Z</time>
      </trkpt>
      <trkpt lat="36.8428800" lon="-4.3487480">
        <ele>891.9</ele>
        <time>2018-03-28T11:10:57Z</time>
      </trkpt>
      <trkpt lat="36.8428530" lon="-4.3487430">
        <ele>891.9</ele>
        <time>2018-03-28T11:10:58Z</time>
      </trkpt>
      <trkpt lat="36.8428270" lon="-4.3487370">
        <ele>891.9</ele>
        <time>2018-03-28T11:10:59Z</time>
      </trkpt>
      <trkpt lat="36.8428270" lon="-4.3487370">
        <ele>891.9</ele>
        <time>2018-03-28T11:11:00Z</time>
      </trkpt>
      <trkpt lat="36.8427670" lon="-4.3487280">
        <ele>891.9</ele>
        <time>2018-03-28T11:11:01Z</time>
      </trkpt>
      <trkpt lat="36.8427670" lon="-4.3487280">
        <ele>891.9</ele>
        <time>2018-03-28T11:11:02Z</time>
      </trkpt>
      <trkpt lat="36.8427050" lon="-4.3487200">
        <ele>892.9</ele>
        <time>2018-03-28T11:11:03Z</time>
      </trkpt>
      <trkpt lat="36.8426780" lon="-4.3487150">
        <ele>892.9</ele>
        <time>2018-03-28T11:11:04Z</time>
      </trkpt>
      <trkpt lat="36.8426780" lon="-4.3487150">
        <ele>892.9</ele>
        <time>2018-03-28T11:11:05Z</time>
      </trkpt>
      <trkpt lat="36.8426300" lon="-4.3487070">
        <ele>892.9</ele>
        <time>2018-03-28T11:11:06Z</time>
      </trkpt>
      <trkpt lat="36.8426020" lon="-4.3487000">
        <ele>893.9</ele>
        <time>2018-03-28T11:11:07Z</time>
      </trkpt>
      <trkpt lat="36.8426020" lon="-4.3487000">
        <ele>893.9</ele>
        <time>2018-03-28T11:11:08Z</time>
      </trkpt>
      <trkpt lat="36.8425500" lon="-4.3486850">
        <ele>893.9</ele>
        <time>2018-03-28T11:11:09Z</time>
      </trkpt>
      <trkpt lat="36.8425250" lon="-4.3486730">
        <ele>893.9</ele>
        <time>2018-03-28T11:11:10Z</time>
      </trkpt>
      <trkpt lat="36.8425250" lon="-4.3486730">
        <ele>893.9</ele>
        <time>2018-03-28T11:11:11Z</time>
      </trkpt>
      <trkpt lat="36.8424570" lon="-4.3486570">
        <ele>893.9</ele>
        <time>2018-03-28T11:11:12Z</time>
      </trkpt>
      <trkpt lat="36.8424170" lon="-4.3486470">
        <ele>894.9</ele>
        <time>2018-03-28T11:11:13Z</time>
      </trkpt>
      <trkpt lat="36.8424170" lon="-4.3486470">
        <ele>894.9</ele>
        <time>2018-03-28T11:11:14Z</time>
      </trkpt>
      <trkpt lat="36.8423520" lon="-4.3486180">
        <ele>894.9</ele>
        <time>2018-03-28T11:11:15Z</time>
      </trkpt>
      <trkpt lat="36.8423520" lon="-4.3486180">
        <ele>894.9</ele>
        <time>2018-03-28T11:11:16Z</time>
      </trkpt>
      <trkpt lat="36.8423000" lon="-4.3485800">
        <ele>894.9</ele>
        <time>2018-03-28T11:11:17Z</time>
      </trkpt>
      <trkpt lat="36.8423000" lon="-4.3485800">
        <ele>894.9</ele>
        <time>2018-03-28T11:11:18Z</time>
      </trkpt>
      <trkpt lat="36.8422380" lon="-4.3485470">
        <ele>894.9</ele>
        <time>2018-03-28T11:11:19Z</time>
      </trkpt>
      <trkpt lat="36.8422380" lon="-4.3485470">
        <ele>894.9</ele>
        <time>2018-03-28T11:11:20Z</time>
      </trkpt>
      <trkpt lat="36.8421780" lon="-4.3485230">
        <ele>894.9</ele>
        <time>2018-03-28T11:11:21Z</time>
      </trkpt>
      <trkpt lat="36.8421570" lon="-4.3485070">
        <ele>894.9</ele>
        <time>2018-03-28T11:11:22Z</time>
      </trkpt>
      <trkpt lat="36.8421350" lon="-4.3484890">
        <ele>894.9</ele>
        <time>2018-03-28T11:11:23Z</time>
      </trkpt>
      <trkpt lat="36.8421130" lon="-4.3484720">
        <ele>895.9</ele>
        <time>2018-03-28T11:11:24Z</time>
      </trkpt>
      <trkpt lat="36.8420900" lon="-4.3484570">
        <ele>895.9</ele>
        <time>2018-03-28T11:11:25Z</time>
      </trkpt>
      <trkpt lat="36.8420900" lon="-4.3484570">
        <ele>895.9</ele>
        <time>2018-03-28T11:11:26Z</time>
      </trkpt>
      <trkpt lat="36.8420380" lon="-4.3484220">
        <ele>895.9</ele>
        <time>2018-03-28T11:11:27Z</time>
      </trkpt>
      <trkpt lat="36.8420380" lon="-4.3484220">
        <ele>896.9</ele>
        <time>2018-03-28T11:11:28Z</time>
      </trkpt>
      <trkpt lat="36.8419900" lon="-4.3483850">
        <ele>896.9</ele>
        <time>2018-03-28T11:11:29Z</time>
      </trkpt>
      <trkpt lat="36.8419900" lon="-4.3483850">
        <ele>896.9</ele>
        <time>2018-03-28T11:11:30Z</time>
      </trkpt>
      <trkpt lat="36.8419480" lon="-4.3483480">
        <ele>896.9</ele>
        <time>2018-03-28T11:11:31Z</time>
      </trkpt>
      <trkpt lat="36.8419480" lon="-4.3483480">
        <ele>897.9</ele>
        <time>2018-03-28T11:11:32Z</time>
      </trkpt>
      <trkpt lat="36.8419120" lon="-4.3483100">
        <ele>897.9</ele>
        <time>2018-03-28T11:11:33Z</time>
      </trkpt>
      <trkpt lat="36.8419120" lon="-4.3483100">
        <ele>897.9</ele>
        <time>2018-03-28T11:11:34Z</time>
      </trkpt>
      <trkpt lat="36.8418780" lon="-4.3482580">
        <ele>897.9</ele>
        <time>2018-03-28T11:11:35Z</time>
      </trkpt>
      <trkpt lat="36.8418580" lon="-4.3482300">
        <ele>898.9</ele>
        <time>2018-03-28T11:11:36Z</time>
      </trkpt>
      <trkpt lat="36.8418580" lon="-4.3482300">
        <ele>898.9</ele>
        <time>2018-03-28T11:11:37Z</time>
      </trkpt>
      <trkpt lat="36.8418180" lon="-4.3481820">
        <ele>898.9</ele>
        <time>2018-03-28T11:11:38Z</time>
      </trkpt>
      <trkpt lat="36.8418180" lon="-4.3481820">
        <ele>898.9</ele>
        <time>2018-03-28T11:11:39Z</time>
      </trkpt>
      <trkpt lat="36.8417850" lon="-4.3481270">
        <ele>899.9</ele>
        <time>2018-03-28T11:11:40Z</time>
      </trkpt>
      <trkpt lat="36.8417680" lon="-4.3480950">
        <ele>899.9</ele>
        <time>2018-03-28T11:11:41Z</time>
      </trkpt>
      <trkpt lat="36.8417530" lon="-4.3480630">
        <ele>899.9</ele>
        <time>2018-03-28T11:11:42Z</time>
      </trkpt>
      <trkpt lat="36.8417420" lon="-4.3480330">
        <ele>899.9</ele>
        <time>2018-03-28T11:11:43Z</time>
      </trkpt>
      <trkpt lat="36.8417420" lon="-4.3480330">
        <ele>900.9</ele>
        <time>2018-03-28T11:11:44Z</time>
      </trkpt>
      <trkpt lat="36.8417130" lon="-4.3479680">
        <ele>900.9</ele>
        <time>2018-03-28T11:11:45Z</time>
      </trkpt>
      <trkpt lat="36.8417130" lon="-4.3479680">
        <ele>900.9</ele>
        <time>2018-03-28T11:11:46Z</time>
      </trkpt>
      <trkpt lat="36.8416850" lon="-4.3479020">
        <ele>900.9</ele>
        <time>2018-03-28T11:11:47Z</time>
      </trkpt>
      <trkpt lat="36.8416710" lon="-4.3478720">
        <ele>900.9</ele>
        <time>2018-03-28T11:11:48Z</time>
      </trkpt>
      <trkpt lat="36.8416570" lon="-4.3478420">
        <ele>901.9</ele>
        <time>2018-03-28T11:11:49Z</time>
      </trkpt>
      <trkpt lat="36.8416420" lon="-4.3478100">
        <ele>901.9</ele>
        <time>2018-03-28T11:11:50Z</time>
      </trkpt>
      <trkpt lat="36.8416420" lon="-4.3478100">
        <ele>901.9</ele>
        <time>2018-03-28T11:11:51Z</time>
      </trkpt>
      <trkpt lat="36.8416030" lon="-4.3477550">
        <ele>901.9</ele>
        <time>2018-03-28T11:11:52Z</time>
      </trkpt>
      <trkpt lat="36.8416030" lon="-4.3477550">
        <ele>901.9</ele>
        <time>2018-03-28T11:11:53Z</time>
      </trkpt>
      <trkpt lat="36.8415580" lon="-4.3477200">
        <ele>901.9</ele>
        <time>2018-03-28T11:11:54Z</time>
      </trkpt>
      <trkpt lat="36.8415350" lon="-4.3477070">
        <ele>901.9</ele>
        <time>2018-03-28T11:11:55Z</time>
      </trkpt>
      <trkpt lat="36.8415350" lon="-4.3477070">
        <ele>901.9</ele>
        <time>2018-03-28T11:11:56Z</time>
      </trkpt>
      <trkpt lat="36.8414830" lon="-4.3476830">
        <ele>902.9</ele>
        <time>2018-03-28T11:11:57Z</time>
      </trkpt>
      <trkpt lat="36.8414830" lon="-4.3476830">
        <ele>902.9</ele>
        <time>2018-03-28T11:11:58Z</time>
      </trkpt>
      <trkpt lat="36.8414270" lon="-4.3476670">
        <ele>902.9</ele>
        <time>2018-03-28T11:11:59Z</time>
      </trkpt>
      <trkpt lat="36.8414270" lon="-4.3476670">
        <ele>902.9</ele>
        <time>2018-03-28T11:12:00Z</time>
      </trkpt>
      <trkpt lat="36.8413750" lon="-4.3476520">
        <ele>903.9</ele>
        <time>2018-03-28T11:12:01Z</time>
      </trkpt>
      <trkpt lat="36.8413750" lon="-4.3476520">
        <ele>903.9</ele>
        <time>2018-03-28T11:12:02Z</time>
      </trkpt>
      <trkpt lat="36.8413180" lon="-4.3476300">
        <ele>903.9</ele>
        <time>2018-03-28T11:12:03Z</time>
      </trkpt>
      <trkpt lat="36.8412930" lon="-4.3476200">
        <ele>903.9</ele>
        <time>2018-03-28T11:12:04Z</time>
      </trkpt>
      <trkpt lat="36.8412930" lon="-4.3476200">
        <ele>903.9</ele>
        <time>2018-03-28T11:12:05Z</time>
      </trkpt>
      <trkpt lat="36.8412470" lon="-4.3475900">
        <ele>903.9</ele>
        <time>2018-03-28T11:12:06Z</time>
      </trkpt>
      <trkpt lat="36.8412270" lon="-4.3475750">
        <ele>904.9</ele>
        <time>2018-03-28T11:12:07Z</time>
      </trkpt>
      <trkpt lat="36.8412270" lon="-4.3475750">
        <ele>904.9</ele>
        <time>2018-03-28T11:12:08Z</time>
      </trkpt>
      <trkpt lat="36.8411730" lon="-4.3475520">
        <ele>904.9</ele>
        <time>2018-03-28T11:12:09Z</time>
      </trkpt>
      <trkpt lat="36.8411730" lon="-4.3475520">
        <ele>904.9</ele>
        <time>2018-03-28T11:12:10Z</time>
      </trkpt>
      <trkpt lat="36.8411230" lon="-4.3475180">
        <ele>904.9</ele>
        <time>2018-03-28T11:12:11Z</time>
      </trkpt>
      <trkpt lat="36.8410930" lon="-4.3475100">
        <ele>904.9</ele>
        <time>2018-03-28T11:12:12Z</time>
      </trkpt>
      <trkpt lat="36.8410670" lon="-4.3475020">
        <ele>904.9</ele>
        <time>2018-03-28T11:12:13Z</time>
      </trkpt>
      <trkpt lat="36.8410670" lon="-4.3475020">
        <ele>904.9</ele>
        <time>2018-03-28T11:12:14Z</time>
      </trkpt>
      <trkpt lat="36.8409950" lon="-4.3474750">
        <ele>904.9</ele>
        <time>2018-03-28T11:12:15Z</time>
      </trkpt>
      <trkpt lat="36.8409670" lon="-4.3474600">
        <ele>904.9</ele>
        <time>2018-03-28T11:12:16Z</time>
      </trkpt>
      <trkpt lat="36.8409670" lon="-4.3474600">
        <ele>904.9</ele>
        <time>2018-03-28T11:12:17Z</time>
      </trkpt>
      <trkpt lat="36.8409150" lon="-4.3474320">
        <ele>905.9</ele>
        <time>2018-03-28T11:12:18Z</time>
      </trkpt>
      <trkpt lat="36.8408900" lon="-4.3474120">
        <ele>905.9</ele>
        <time>2018-03-28T11:12:19Z</time>
      </trkpt>
      <trkpt lat="36.8408900" lon="-4.3474120">
        <ele>905.9</ele>
        <time>2018-03-28T11:12:20Z</time>
      </trkpt>
      <trkpt lat="36.8408400" lon="-4.3473780">
        <ele>905.9</ele>
        <time>2018-03-28T11:12:21Z</time>
      </trkpt>
      <trkpt lat="36.8408180" lon="-4.3473630">
        <ele>905.9</ele>
        <time>2018-03-28T11:12:22Z</time>
      </trkpt>
      <trkpt lat="36.8408180" lon="-4.3473630">
        <ele>905.9</ele>
        <time>2018-03-28T11:12:23Z</time>
      </trkpt>
      <trkpt lat="36.8407750" lon="-4.3473280">
        <ele>906.9</ele>
        <time>2018-03-28T11:12:24Z</time>
      </trkpt>
      <trkpt lat="36.8407530" lon="-4.3473130">
        <ele>906.9</ele>
        <time>2018-03-28T11:12:25Z</time>
      </trkpt>
      <trkpt lat="36.8407530" lon="-4.3473130">
        <ele>906.9</ele>
        <time>2018-03-28T11:12:26Z</time>
      </trkpt>
      <trkpt lat="36.8407070" lon="-4.3472850">
        <ele>906.9</ele>
        <time>2018-03-28T11:12:27Z</time>
      </trkpt>
      <trkpt lat="36.8406800" lon="-4.3472700">
        <ele>906.9</ele>
        <time>2018-03-28T11:12:28Z</time>
      </trkpt>
      <trkpt lat="36.8406800" lon="-4.3472700">
        <ele>906.9</ele>
        <time>2018-03-28T11:12:29Z</time>
      </trkpt>
      <trkpt lat="36.8406280" lon="-4.3472280">
        <ele>906.9</ele>
        <time>2018-03-28T11:12:30Z</time>
      </trkpt>
      <trkpt lat="36.8406280" lon="-4.3472280">
        <ele>906.9</ele>
        <time>2018-03-28T11:12:31Z</time>
      </trkpt>
      <trkpt lat="36.8405750" lon="-4.3471920">
        <ele>907.9</ele>
        <time>2018-03-28T11:12:32Z</time>
      </trkpt>
      <trkpt lat="36.8405500" lon="-4.3471720">
        <ele>907.9</ele>
        <time>2018-03-28T11:12:33Z</time>
      </trkpt>
      <trkpt lat="36.8405500" lon="-4.3471720">
        <ele>907.9</ele>
        <time>2018-03-28T11:12:34Z</time>
      </trkpt>
      <trkpt lat="36.8404850" lon="-4.3471400">
        <ele>907.9</ele>
        <time>2018-03-28T11:12:35Z</time>
      </trkpt>
      <trkpt lat="36.8404600" lon="-4.3471180">
        <ele>907.9</ele>
        <time>2018-03-28T11:12:36Z</time>
      </trkpt>
      <trkpt lat="36.8404600" lon="-4.3471180">
        <ele>907.9</ele>
        <time>2018-03-28T11:12:37Z</time>
      </trkpt>
      <trkpt lat="36.8404020" lon="-4.3470780">
        <ele>908.9</ele>
        <time>2018-03-28T11:12:38Z</time>
      </trkpt>
      <trkpt lat="36.8404020" lon="-4.3470780">
        <ele>908.9</ele>
        <time>2018-03-28T11:12:39Z</time>
      </trkpt>
      <trkpt lat="36.8403530" lon="-4.3470350">
        <ele>908.9</ele>
        <time>2018-03-28T11:12:40Z</time>
      </trkpt>
      <trkpt lat="36.8403530" lon="-4.3470350">
        <ele>908.9</ele>
        <time>2018-03-28T11:12:41Z</time>
      </trkpt>
      <trkpt lat="36.8403050" lon="-4.3469850">
        <ele>908.9</ele>
        <time>2018-03-28T11:12:42Z</time>
      </trkpt>
      <trkpt lat="36.8402850" lon="-4.3469530">
        <ele>908.9</ele>
        <time>2018-03-28T11:12:43Z</time>
      </trkpt>
      <trkpt lat="36.8402850" lon="-4.3469530">
        <ele>908.9</ele>
        <time>2018-03-28T11:12:44Z</time>
      </trkpt>
      <trkpt lat="36.8402430" lon="-4.3469020">
        <ele>909.9</ele>
        <time>2018-03-28T11:12:45Z</time>
      </trkpt>
      <trkpt lat="36.8402380" lon="-4.3468780">
        <ele>909.9</ele>
        <time>2018-03-28T11:12:46Z</time>
      </trkpt>
      <trkpt lat="36.8402380" lon="-4.3468780">
        <ele>909.9</ele>
        <time>2018-03-28T11:12:47Z</time>
      </trkpt>
      <trkpt lat="36.8401930" lon="-4.3468350">
        <ele>909.9</ele>
        <time>2018-03-28T11:12:48Z</time>
      </trkpt>
      <trkpt lat="36.8401620" lon="-4.3468180">
        <ele>909.9</ele>
        <time>2018-03-28T11:12:49Z</time>
      </trkpt>
      <trkpt lat="36.8401620" lon="-4.3468180">
        <ele>909.9</ele>
        <time>2018-03-28T11:12:50Z</time>
      </trkpt>
      <trkpt lat="36.8400950" lon="-4.3467930">
        <ele>909.9</ele>
        <time>2018-03-28T11:12:51Z</time>
      </trkpt>
      <trkpt lat="36.8400950" lon="-4.3467930">
        <ele>909.9</ele>
        <time>2018-03-28T11:12:52Z</time>
      </trkpt>
      <trkpt lat="36.8400220" lon="-4.3467830">
        <ele>909.9</ele>
        <time>2018-03-28T11:12:53Z</time>
      </trkpt>
      <trkpt lat="36.8400220" lon="-4.3467830">
        <ele>909.9</ele>
        <time>2018-03-28T11:12:54Z</time>
      </trkpt>
      <trkpt lat="36.8399500" lon="-4.3468050">
        <ele>910.9</ele>
        <time>2018-03-28T11:12:55Z</time>
      </trkpt>
      <trkpt lat="36.8399500" lon="-4.3468050">
        <ele>910.9</ele>
        <time>2018-03-28T11:12:56Z</time>
      </trkpt>
      <trkpt lat="36.8398930" lon="-4.3468520">
        <ele>910.9</ele>
        <time>2018-03-28T11:12:57Z</time>
      </trkpt>
      <trkpt lat="36.8398930" lon="-4.3468520">
        <ele>910.9</ele>
        <time>2018-03-28T11:12:58Z</time>
      </trkpt>
      <trkpt lat="36.8398620" lon="-4.3469180">
        <ele>911.9</ele>
        <time>2018-03-28T11:12:59Z</time>
      </trkpt>
      <trkpt lat="36.8398500" lon="-4.3469550">
        <ele>911.9</ele>
        <time>2018-03-28T11:13:00Z</time>
      </trkpt>
      <trkpt lat="36.8398500" lon="-4.3469550">
        <ele>911.9</ele>
        <time>2018-03-28T11:13:01Z</time>
      </trkpt>
      <trkpt lat="36.8398320" lon="-4.3470330">
        <ele>911.9</ele>
        <time>2018-03-28T11:13:02Z</time>
      </trkpt>
      <trkpt lat="36.8398320" lon="-4.3470330">
        <ele>911.9</ele>
        <time>2018-03-28T11:13:03Z</time>
      </trkpt>
      <trkpt lat="36.8398220" lon="-4.3471200">
        <ele>911.9</ele>
        <time>2018-03-28T11:13:04Z</time>
      </trkpt>
      <trkpt lat="36.8398220" lon="-4.3471200">
        <ele>911.9</ele>
        <time>2018-03-28T11:13:05Z</time>
      </trkpt>
      <trkpt lat="36.8398130" lon="-4.3472120">
        <ele>911.9</ele>
        <time>2018-03-28T11:13:06Z</time>
      </trkpt>
      <trkpt lat="36.8398050" lon="-4.3472600">
        <ele>911.9</ele>
        <time>2018-03-28T11:13:07Z</time>
      </trkpt>
      <trkpt lat="36.8398050" lon="-4.3472600">
        <ele>911.9</ele>
        <time>2018-03-28T11:13:08Z</time>
      </trkpt>
      <trkpt lat="36.8397880" lon="-4.3473550">
        <ele>911.9</ele>
        <time>2018-03-28T11:13:09Z</time>
      </trkpt>
      <trkpt lat="36.8397880" lon="-4.3473550">
        <ele>911.9</ele>
        <time>2018-03-28T11:13:10Z</time>
      </trkpt>
      <trkpt lat="36.8397730" lon="-4.3474500">
        <ele>911.9</ele>
        <time>2018-03-28T11:13:11Z</time>
      </trkpt>
      <trkpt lat="36.8397700" lon="-4.3475000">
        <ele>911.9</ele>
        <time>2018-03-28T11:13:12Z</time>
      </trkpt>
      <trkpt lat="36.8397700" lon="-4.3475490">
        <ele>911.9</ele>
        <time>2018-03-28T11:13:13Z</time>
      </trkpt>
      <trkpt lat="36.8397700" lon="-4.3475980">
        <ele>911.9</ele>
        <time>2018-03-28T11:13:14Z</time>
      </trkpt>
      <trkpt lat="36.8397730" lon="-4.3476500">
        <ele>911.9</ele>
        <time>2018-03-28T11:13:15Z</time>
      </trkpt>
      <trkpt lat="36.8397750" lon="-4.3476980">
        <ele>911.9</ele>
        <time>2018-03-28T11:13:16Z</time>
      </trkpt>
      <trkpt lat="36.8397750" lon="-4.3476980">
        <ele>911.9</ele>
        <time>2018-03-28T11:13:17Z</time>
      </trkpt>
      <trkpt lat="36.8397820" lon="-4.3477920">
        <ele>911.9</ele>
        <time>2018-03-28T11:13:18Z</time>
      </trkpt>
      <trkpt lat="36.8397820" lon="-4.3477920">
        <ele>911.9</ele>
        <time>2018-03-28T11:13:19Z</time>
      </trkpt>
      <trkpt lat="36.8397830" lon="-4.3478930">
        <ele>911.9</ele>
        <time>2018-03-28T11:13:20Z</time>
      </trkpt>
      <trkpt lat="36.8397830" lon="-4.3478930">
        <ele>911.9</ele>
        <time>2018-03-28T11:13:21Z</time>
      </trkpt>
      <trkpt lat="36.8397770" lon="-4.3479930">
        <ele>911.9</ele>
        <time>2018-03-28T11:13:22Z</time>
      </trkpt>
      <trkpt lat="36.8397770" lon="-4.3479930">
        <ele>911.9</ele>
        <time>2018-03-28T11:13:23Z</time>
      </trkpt>
      <trkpt lat="36.8397680" lon="-4.3480920">
        <ele>912.9</ele>
        <time>2018-03-28T11:13:24Z</time>
      </trkpt>
      <trkpt lat="36.8397650" lon="-4.3481370">
        <ele>912.9</ele>
        <time>2018-03-28T11:13:25Z</time>
      </trkpt>
      <trkpt lat="36.8397650" lon="-4.3481370">
        <ele>912.9</ele>
        <time>2018-03-28T11:13:26Z</time>
      </trkpt>
      <trkpt lat="36.8397620" lon="-4.3482280">
        <ele>912.9</ele>
        <time>2018-03-28T11:13:27Z</time>
      </trkpt>
      <trkpt lat="36.8397620" lon="-4.3482280">
        <ele>912.9</ele>
        <time>2018-03-28T11:13:28Z</time>
      </trkpt>
      <trkpt lat="36.8397580" lon="-4.3483130">
        <ele>912.9</ele>
        <time>2018-03-28T11:13:29Z</time>
      </trkpt>
      <trkpt lat="36.8397580" lon="-4.3483130">
        <ele>913.9</ele>
        <time>2018-03-28T11:13:30Z</time>
      </trkpt>
      <trkpt lat="36.8397480" lon="-4.3483980">
        <ele>913.9</ele>
        <time>2018-03-28T11:13:31Z</time>
      </trkpt>
      <trkpt lat="36.8397420" lon="-4.3484380">
        <ele>913.9</ele>
        <time>2018-03-28T11:13:32Z</time>
      </trkpt>
      <trkpt lat="36.8397420" lon="-4.3484380">
        <ele>913.9</ele>
        <time>2018-03-28T11:13:33Z</time>
      </trkpt>
      <trkpt lat="36.8397330" lon="-4.3485170">
        <ele>914.9</ele>
        <time>2018-03-28T11:13:34Z</time>
      </trkpt>
      <trkpt lat="36.8397300" lon="-4.3485550">
        <ele>914.9</ele>
        <time>2018-03-28T11:13:35Z</time>
      </trkpt>
      <trkpt lat="36.8397250" lon="-4.3485920">
        <ele>914.9</ele>
        <time>2018-03-28T11:13:36Z</time>
      </trkpt>
      <trkpt lat="36.8397250" lon="-4.3485920">
        <ele>914.9</ele>
        <time>2018-03-28T11:13:37Z</time>
      </trkpt>
      <trkpt lat="36.8397150" lon="-4.3486630">
        <ele>914.9</ele>
        <time>2018-03-28T11:13:38Z</time>
      </trkpt>
      <trkpt lat="36.8397130" lon="-4.3487020">
        <ele>915.9</ele>
        <time>2018-03-28T11:13:39Z</time>
      </trkpt>
      <trkpt lat="36.8397130" lon="-4.3487020">
        <ele>915.9</ele>
        <time>2018-03-28T11:13:40Z</time>
      </trkpt>
      <trkpt lat="36.8397100" lon="-4.3487770">
        <ele>915.9</ele>
        <time>2018-03-28T11:13:41Z</time>
      </trkpt>
      <trkpt lat="36.8397100" lon="-4.3488120">
        <ele>915.9</ele>
        <time>2018-03-28T11:13:42Z</time>
      </trkpt>
      <trkpt lat="36.8397100" lon="-4.3488120">
        <ele>915.9</ele>
        <time>2018-03-28T11:13:43Z</time>
      </trkpt>
      <trkpt lat="36.8397070" lon="-4.3488800">
        <ele>915.9</ele>
        <time>2018-03-28T11:13:44Z</time>
      </trkpt>
      <trkpt lat="36.8397070" lon="-4.3488800">
        <ele>916.9</ele>
        <time>2018-03-28T11:13:45Z</time>
      </trkpt>
      <trkpt lat="36.8397000" lon="-4.3489520">
        <ele>916.9</ele>
        <time>2018-03-28T11:13:46Z</time>
      </trkpt>
      <trkpt lat="36.8397000" lon="-4.3489520">
        <ele>916.9</ele>
        <time>2018-03-28T11:13:47Z</time>
      </trkpt>
      <trkpt lat="36.8397050" lon="-4.3490250">
        <ele>916.9</ele>
        <time>2018-03-28T11:13:48Z</time>
      </trkpt>
      <trkpt lat="36.8397070" lon="-4.3490630">
        <ele>916.9</ele>
        <time>2018-03-28T11:13:49Z</time>
      </trkpt>
      <trkpt lat="36.8397070" lon="-4.3490630">
        <ele>916.9</ele>
        <time>2018-03-28T11:13:50Z</time>
      </trkpt>
      <trkpt lat="36.8397030" lon="-4.3491330">
        <ele>916.9</ele>
        <time>2018-03-28T11:13:51Z</time>
      </trkpt>
      <trkpt lat="36.8397030" lon="-4.3491330">
        <ele>916.9</ele>
        <time>2018-03-28T11:13:52Z</time>
      </trkpt>
      <trkpt lat="36.8396970" lon="-4.3491980">
        <ele>916.9</ele>
        <time>2018-03-28T11:13:53Z</time>
      </trkpt>
      <trkpt lat="36.8396970" lon="-4.3491980">
        <ele>917.9</ele>
        <time>2018-03-28T11:13:54Z</time>
      </trkpt>
      <trkpt lat="36.8396830" lon="-4.3492630">
        <ele>917.9</ele>
        <time>2018-03-28T11:13:55Z</time>
      </trkpt>
      <trkpt lat="36.8396780" lon="-4.3492930">
        <ele>917.9</ele>
        <time>2018-03-28T11:13:56Z</time>
      </trkpt>
      <trkpt lat="36.8396780" lon="-4.3492930">
        <ele>917.9</ele>
        <time>2018-03-28T11:13:57Z</time>
      </trkpt>
      <trkpt lat="36.8396750" lon="-4.3493550">
        <ele>917.9</ele>
        <time>2018-03-28T11:13:58Z</time>
      </trkpt>
      <trkpt lat="36.8396750" lon="-4.3493850">
        <ele>918.9</ele>
        <time>2018-03-28T11:13:59Z</time>
      </trkpt>
      <trkpt lat="36.8396750" lon="-4.3493850">
        <ele>918.9</ele>
        <time>2018-03-28T11:14:00Z</time>
      </trkpt>
      <trkpt lat="36.8396770" lon="-4.3494480">
        <ele>918.9</ele>
        <time>2018-03-28T11:14:01Z</time>
      </trkpt>
      <trkpt lat="36.8396770" lon="-4.3494480">
        <ele>918.9</ele>
        <time>2018-03-28T11:14:02Z</time>
      </trkpt>
      <trkpt lat="36.8396750" lon="-4.3495130">
        <ele>918.9</ele>
        <time>2018-03-28T11:14:03Z</time>
      </trkpt>
      <trkpt lat="36.8396750" lon="-4.3495130">
        <ele>918.9</ele>
        <time>2018-03-28T11:14:04Z</time>
      </trkpt>
      <trkpt lat="36.8396700" lon="-4.3495800">
        <ele>919.9</ele>
        <time>2018-03-28T11:14:05Z</time>
      </trkpt>
      <trkpt lat="36.8396670" lon="-4.3496150">
        <ele>919.9</ele>
        <time>2018-03-28T11:14:06Z</time>
      </trkpt>
      <trkpt lat="36.8396630" lon="-4.3496500">
        <ele>919.9</ele>
        <time>2018-03-28T11:14:07Z</time>
      </trkpt>
      <trkpt lat="36.8396580" lon="-4.3496850">
        <ele>919.9</ele>
        <time>2018-03-28T11:14:08Z</time>
      </trkpt>
      <trkpt lat="36.8396570" lon="-4.3497180">
        <ele>919.9</ele>
        <time>2018-03-28T11:14:09Z</time>
      </trkpt>
      <trkpt lat="36.8396530" lon="-4.3497530">
        <ele>919.9</ele>
        <time>2018-03-28T11:14:10Z</time>
      </trkpt>
      <trkpt lat="36.8396530" lon="-4.3497530">
        <ele>919.9</ele>
        <time>2018-03-28T11:14:11Z</time>
      </trkpt>
      <trkpt lat="36.8396480" lon="-4.3498350">
        <ele>919.9</ele>
        <time>2018-03-28T11:14:12Z</time>
      </trkpt>
      <trkpt lat="36.8396470" lon="-4.3498520">
        <ele>919.9</ele>
        <time>2018-03-28T11:14:13Z</time>
      </trkpt>
      <trkpt lat="36.8396430" lon="-4.3498850">
        <ele>919.9</ele>
        <time>2018-03-28T11:14:14Z</time>
      </trkpt>
      <trkpt lat="36.8396380" lon="-4.3499180">
        <ele>919.9</ele>
        <time>2018-03-28T11:14:15Z</time>
      </trkpt>
      <trkpt lat="36.8396300" lon="-4.3499500">
        <ele>920.9</ele>
        <time>2018-03-28T11:14:16Z</time>
      </trkpt>
      <trkpt lat="36.8396300" lon="-4.3499500">
        <ele>920.9</ele>
        <time>2018-03-28T11:14:17Z</time>
      </trkpt>
      <trkpt lat="36.8396220" lon="-4.3500200">
        <ele>920.9</ele>
        <time>2018-03-28T11:14:18Z</time>
      </trkpt>
      <trkpt lat="36.8396200" lon="-4.3500500">
        <ele>920.9</ele>
        <time>2018-03-28T11:14:19Z</time>
      </trkpt>
      <trkpt lat="36.8396150" lon="-4.3500830">
        <ele>920.9</ele>
        <time>2018-03-28T11:14:20Z</time>
      </trkpt>
      <trkpt lat="36.8396150" lon="-4.3500830">
        <ele>920.9</ele>
        <time>2018-03-28T11:14:21Z</time>
      </trkpt>
      <trkpt lat="36.8396050" lon="-4.3501480">
        <ele>921.9</ele>
        <time>2018-03-28T11:14:22Z</time>
      </trkpt>
      <trkpt lat="36.8396020" lon="-4.3501820">
        <ele>921.9</ele>
        <time>2018-03-28T11:14:23Z</time>
      </trkpt>
      <trkpt lat="36.8396020" lon="-4.3501820">
        <ele>921.9</ele>
        <time>2018-03-28T11:14:24Z</time>
      </trkpt>
      <trkpt lat="36.8395930" lon="-4.3502480">
        <ele>921.9</ele>
        <time>2018-03-28T11:14:25Z</time>
      </trkpt>
      <trkpt lat="36.8395930" lon="-4.3502480">
        <ele>921.9</ele>
        <time>2018-03-28T11:14:26Z</time>
      </trkpt>
      <trkpt lat="36.8395870" lon="-4.3503070">
        <ele>921.9</ele>
        <time>2018-03-28T11:14:27Z</time>
      </trkpt>
      <trkpt lat="36.8395870" lon="-4.3503070">
        <ele>921.9</ele>
        <time>2018-03-28T11:14:28Z</time>
      </trkpt>
      <trkpt lat="36.8395850" lon="-4.3503700">
        <ele>921.9</ele>
        <time>2018-03-28T11:14:29Z</time>
      </trkpt>
      <trkpt lat="36.8395830" lon="-4.3504020">
        <ele>921.9</ele>
        <time>2018-03-28T11:14:30Z</time>
      </trkpt>
      <trkpt lat="36.8395830" lon="-4.3504020">
        <ele>921.9</ele>
        <time>2018-03-28T11:14:31Z</time>
      </trkpt>
      <trkpt lat="36.8395800" lon="-4.3504650">
        <ele>922.9</ele>
        <time>2018-03-28T11:14:32Z</time>
      </trkpt>
      <trkpt lat="36.8395800" lon="-4.3504650">
        <ele>922.9</ele>
        <time>2018-03-28T11:14:33Z</time>
      </trkpt>
      <trkpt lat="36.8395730" lon="-4.3505280">
        <ele>922.9</ele>
        <time>2018-03-28T11:14:34Z</time>
      </trkpt>
      <trkpt lat="36.8395730" lon="-4.3505280">
        <ele>922.9</ele>
        <time>2018-03-28T11:14:35Z</time>
      </trkpt>
      <trkpt lat="36.8395650" lon="-4.3505880">
        <ele>923.9</ele>
        <time>2018-03-28T11:14:36Z</time>
      </trkpt>
      <trkpt lat="36.8395630" lon="-4.3506150">
        <ele>923.9</ele>
        <time>2018-03-28T11:14:37Z</time>
      </trkpt>
      <trkpt lat="36.8395630" lon="-4.3506150">
        <ele>923.9</ele>
        <time>2018-03-28T11:14:38Z</time>
      </trkpt>
      <trkpt lat="36.8395550" lon="-4.3506670">
        <ele>924.9</ele>
        <time>2018-03-28T11:14:39Z</time>
      </trkpt>
      <trkpt lat="36.8395500" lon="-4.3506870">
        <ele>924.9</ele>
        <time>2018-03-28T11:14:40Z</time>
      </trkpt>
      <trkpt lat="36.8395500" lon="-4.3506870">
        <ele>924.9</ele>
        <time>2018-03-28T11:14:41Z</time>
      </trkpt>
      <trkpt lat="36.8395480" lon="-4.3507280">
        <ele>924.9</ele>
        <time>2018-03-28T11:14:42Z</time>
      </trkpt>
      <trkpt lat="36.8395480" lon="-4.3507280">
        <ele>924.9</ele>
        <time>2018-03-28T11:14:43Z</time>
      </trkpt>
      <trkpt lat="36.8395480" lon="-4.3507730">
        <ele>924.9</ele>
        <time>2018-03-28T11:14:44Z</time>
      </trkpt>
      <trkpt lat="36.8395480" lon="-4.3507730">
        <ele>925.9</ele>
        <time>2018-03-28T11:14:45Z</time>
      </trkpt>
      <trkpt lat="36.8395620" lon="-4.3508520">
        <ele>925.9</ele>
        <time>2018-03-28T11:14:46Z</time>
      </trkpt>
      <trkpt lat="36.8395660" lon="-4.3508730">
        <ele>925.9</ele>
        <time>2018-03-28T11:14:47Z</time>
      </trkpt>
      <trkpt lat="36.8395700" lon="-4.3508930">
        <ele>925.9</ele>
        <time>2018-03-28T11:14:48Z</time>
      </trkpt>
      <trkpt lat="36.8395750" lon="-4.3509220">
        <ele>926.9</ele>
        <time>2018-03-28T11:14:49Z</time>
      </trkpt>
      <trkpt lat="36.8395750" lon="-4.3509220">
        <ele>926.9</ele>
        <time>2018-03-28T11:14:50Z</time>
      </trkpt>
      <trkpt lat="36.8395920" lon="-4.3509750">
        <ele>926.9</ele>
        <time>2018-03-28T11:14:51Z</time>
      </trkpt>
      <trkpt lat="36.8395880" lon="-4.3510020">
        <ele>926.9</ele>
        <time>2018-03-28T11:14:52Z</time>
      </trkpt>
      <trkpt lat="36.8395880" lon="-4.3510020">
        <ele>927.9</ele>
        <time>2018-03-28T11:14:53Z</time>
      </trkpt>
      <trkpt lat="36.8395970" lon="-4.3510650">
        <ele>927.9</ele>
        <time>2018-03-28T11:14:54Z</time>
      </trkpt>
      <trkpt lat="36.8395980" lon="-4.3510970">
        <ele>927.9</ele>
        <time>2018-03-28T11:14:55Z</time>
      </trkpt>
      <trkpt lat="36.8395980" lon="-4.3510970">
        <ele>927.9</ele>
        <time>2018-03-28T11:14:56Z</time>
      </trkpt>
      <trkpt lat="36.8396120" lon="-4.3511620">
        <ele>927.9</ele>
        <time>2018-03-28T11:14:57Z</time>
      </trkpt>
      <trkpt lat="36.8396120" lon="-4.3511620">
        <ele>927.9</ele>
        <time>2018-03-28T11:14:58Z</time>
      </trkpt>
      <trkpt lat="36.8396150" lon="-4.3512330">
        <ele>928.9</ele>
        <time>2018-03-28T11:14:59Z</time>
      </trkpt>
      <trkpt lat="36.8396140" lon="-4.3512440">
        <ele>928.9</ele>
        <time>2018-03-28T11:15:00Z</time>
      </trkpt>
      <trkpt lat="36.8396140" lon="-4.3512540">
        <ele>928.9</ele>
        <time>2018-03-28T11:15:01Z</time>
      </trkpt>
      <trkpt lat="36.8396120" lon="-4.3512850">
        <ele>928.9</ele>
        <time>2018-03-28T11:15:02Z</time>
      </trkpt>
      <trkpt lat="36.8396070" lon="-4.3513500">
        <ele>929.9</ele>
        <time>2018-03-28T11:15:03Z</time>
      </trkpt>
      <trkpt lat="36.8396070" lon="-4.3513500">
        <ele>929.9</ele>
        <time>2018-03-28T11:15:04Z</time>
      </trkpt>
      <trkpt lat="36.8395980" lon="-4.3514050">
        <ele>929.9</ele>
        <time>2018-03-28T11:15:05Z</time>
      </trkpt>
      <trkpt lat="36.8395920" lon="-4.3514320">
        <ele>930.9</ele>
        <time>2018-03-28T11:15:06Z</time>
      </trkpt>
      <trkpt lat="36.8395870" lon="-4.3514620">
        <ele>930.9</ele>
        <time>2018-03-28T11:15:07Z</time>
      </trkpt>
      <trkpt lat="36.8395870" lon="-4.3514620">
        <ele>931.9</ele>
        <time>2018-03-28T11:15:08Z</time>
      </trkpt>
      <trkpt lat="36.8395730" lon="-4.3515130">
        <ele>931.9</ele>
        <time>2018-03-28T11:15:09Z</time>
      </trkpt>
      <trkpt lat="36.8395700" lon="-4.3515400">
        <ele>931.9</ele>
        <time>2018-03-28T11:15:10Z</time>
      </trkpt>
      <trkpt lat="36.8395700" lon="-4.3515400">
        <ele>931.9</ele>
        <time>2018-03-28T11:15:11Z</time>
      </trkpt>
      <trkpt lat="36.8395600" lon="-4.3516000">
        <ele>931.9</ele>
        <time>2018-03-28T11:15:12Z</time>
      </trkpt>
      <trkpt lat="36.8395520" lon="-4.3516280">
        <ele>931.9</ele>
        <time>2018-03-28T11:15:13Z</time>
      </trkpt>
      <trkpt lat="36.8395520" lon="-4.3516280">
        <ele>932.9</ele>
        <time>2018-03-28T11:15:14Z</time>
      </trkpt>
      <trkpt lat="36.8395300" lon="-4.3516900">
        <ele>932.9</ele>
        <time>2018-03-28T11:15:15Z</time>
      </trkpt>
      <trkpt lat="36.8395170" lon="-4.3517180">
        <ele>932.9</ele>
        <time>2018-03-28T11:15:16Z</time>
      </trkpt>
      <trkpt lat="36.8395020" lon="-4.3517500">
        <ele>932.9</ele>
        <time>2018-03-28T11:15:17Z</time>
      </trkpt>
      <trkpt lat="36.8395020" lon="-4.3517500">
        <ele>932.9</ele>
        <time>2018-03-28T11:15:18Z</time>
      </trkpt>
      <trkpt lat="36.8394780" lon="-4.3518120">
        <ele>932.9</ele>
        <time>2018-03-28T11:15:19Z</time>
      </trkpt>
      <trkpt lat="36.8394780" lon="-4.3518120">
        <ele>932.9</ele>
        <time>2018-03-28T11:15:20Z</time>
      </trkpt>
      <trkpt lat="36.8394470" lon="-4.3518700">
        <ele>932.9</ele>
        <time>2018-03-28T11:15:21Z</time>
      </trkpt>
      <trkpt lat="36.8394370" lon="-4.3519030">
        <ele>932.9</ele>
        <time>2018-03-28T11:15:22Z</time>
      </trkpt>
      <trkpt lat="36.8394370" lon="-4.3519030">
        <ele>932.9</ele>
        <time>2018-03-28T11:15:23Z</time>
      </trkpt>
      <trkpt lat="36.8394220" lon="-4.3519670">
        <ele>932.9</ele>
        <time>2018-03-28T11:15:24Z</time>
      </trkpt>
      <trkpt lat="36.8394180" lon="-4.3519970">
        <ele>933.9</ele>
        <time>2018-03-28T11:15:25Z</time>
      </trkpt>
      <trkpt lat="36.8394120" lon="-4.3520270">
        <ele>933.9</ele>
        <time>2018-03-28T11:15:26Z</time>
      </trkpt>
      <trkpt lat="36.8394120" lon="-4.3520270">
        <ele>933.9</ele>
        <time>2018-03-28T11:15:27Z</time>
      </trkpt>
      <trkpt lat="36.8393870" lon="-4.3520900">
        <ele>933.9</ele>
        <time>2018-03-28T11:15:28Z</time>
      </trkpt>
      <trkpt lat="36.8393870" lon="-4.3520900">
        <ele>933.9</ele>
        <time>2018-03-28T11:15:29Z</time>
      </trkpt>
      <trkpt lat="36.8393630" lon="-4.3521570">
        <ele>933.9</ele>
        <time>2018-03-28T11:15:30Z</time>
      </trkpt>
      <trkpt lat="36.8393630" lon="-4.3521570">
        <ele>933.9</ele>
        <time>2018-03-28T11:15:31Z</time>
      </trkpt>
      <trkpt lat="36.8393430" lon="-4.3522180">
        <ele>933.9</ele>
        <time>2018-03-28T11:15:32Z</time>
      </trkpt>
      <trkpt lat="36.8393430" lon="-4.3522180">
        <ele>933.9</ele>
        <time>2018-03-28T11:15:33Z</time>
      </trkpt>
      <trkpt lat="36.8393280" lon="-4.3522800">
        <ele>933.9</ele>
        <time>2018-03-28T11:15:34Z</time>
      </trkpt>
      <trkpt lat="36.8393230" lon="-4.3523100">
        <ele>933.9</ele>
        <time>2018-03-28T11:15:35Z</time>
      </trkpt>
      <trkpt lat="36.8393150" lon="-4.3523400">
        <ele>933.9</ele>
        <time>2018-03-28T11:15:36Z</time>
      </trkpt>
      <trkpt lat="36.8393070" lon="-4.3523720">
        <ele>934.9</ele>
        <time>2018-03-28T11:15:37Z</time>
      </trkpt>
      <trkpt lat="36.8393070" lon="-4.3523720">
        <ele>934.9</ele>
        <time>2018-03-28T11:15:38Z</time>
      </trkpt>
      <trkpt lat="36.8392900" lon="-4.3524370">
        <ele>934.9</ele>
        <time>2018-03-28T11:15:39Z</time>
      </trkpt>
      <trkpt lat="36.8392780" lon="-4.3524670">
        <ele>934.9</ele>
        <time>2018-03-28T11:15:40Z</time>
      </trkpt>
      <trkpt lat="36.8392780" lon="-4.3524670">
        <ele>934.9</ele>
        <time>2018-03-28T11:15:41Z</time>
      </trkpt>
      <trkpt lat="36.8392630" lon="-4.3525280">
        <ele>934.9</ele>
        <time>2018-03-28T11:15:42Z</time>
      </trkpt>
      <trkpt lat="36.8392620" lon="-4.3525580">
        <ele>935.9</ele>
        <time>2018-03-28T11:15:43Z</time>
      </trkpt>
      <trkpt lat="36.8392540" lon="-4.3525880">
        <ele>935.9</ele>
        <time>2018-03-28T11:15:44Z</time>
      </trkpt>
      <trkpt lat="36.8392450" lon="-4.3526170">
        <ele>935.9</ele>
        <time>2018-03-28T11:15:45Z</time>
      </trkpt>
      <trkpt lat="36.8392450" lon="-4.3526170">
        <ele>935.9</ele>
        <time>2018-03-28T11:15:46Z</time>
      </trkpt>
      <trkpt lat="36.8392250" lon="-4.3526670">
        <ele>936.9</ele>
        <time>2018-03-28T11:15:47Z</time>
      </trkpt>
      <trkpt lat="36.8392250" lon="-4.3526670">
        <ele>936.9</ele>
        <time>2018-03-28T11:15:48Z</time>
      </trkpt>
      <trkpt lat="36.8392030" lon="-4.3527130">
        <ele>936.9</ele>
        <time>2018-03-28T11:15:49Z</time>
      </trkpt>
      <trkpt lat="36.8392030" lon="-4.3527130">
        <ele>936.9</ele>
        <time>2018-03-28T11:15:50Z</time>
      </trkpt>
      <trkpt lat="36.8391810" lon="-4.3527840">
        <ele>937.9</ele>
        <time>2018-03-28T11:15:51Z</time>
      </trkpt>
      <trkpt lat="36.8391780" lon="-4.3527980">
        <ele>937.9</ele>
        <time>2018-03-28T11:15:52Z</time>
      </trkpt>
      <trkpt lat="36.8391780" lon="-4.3527980">
        <ele>937.9</ele>
        <time>2018-03-28T11:15:53Z</time>
      </trkpt>
      <trkpt lat="36.8391580" lon="-4.3528450">
        <ele>937.9</ele>
        <time>2018-03-28T11:15:54Z</time>
      </trkpt>
      <trkpt lat="36.8391420" lon="-4.3528670">
        <ele>938.9</ele>
        <time>2018-03-28T11:15:55Z</time>
      </trkpt>
      <trkpt lat="36.8391420" lon="-4.3528670">
        <ele>938.9</ele>
        <time>2018-03-28T11:15:56Z</time>
      </trkpt>
      <trkpt lat="36.8391050" lon="-4.3529130">
        <ele>938.9</ele>
        <time>2018-03-28T11:15:57Z</time>
      </trkpt>
      <trkpt lat="36.8390920" lon="-4.3529380">
        <ele>938.9</ele>
        <time>2018-03-28T11:15:58Z</time>
      </trkpt>
      <trkpt lat="36.8390920" lon="-4.3529380">
        <ele>938.9</ele>
        <time>2018-03-28T11:15:59Z</time>
      </trkpt>
      <trkpt lat="36.8390530" lon="-4.3529770">
        <ele>938.9</ele>
        <time>2018-03-28T11:16:00Z</time>
      </trkpt>
      <trkpt lat="36.8390350" lon="-4.3529920">
        <ele>939.9</ele>
        <time>2018-03-28T11:16:01Z</time>
      </trkpt>
      <trkpt lat="36.8390090" lon="-4.3530040">
        <ele>939.9</ele>
        <time>2018-03-28T11:16:02Z</time>
      </trkpt>
      <trkpt lat="36.8389830" lon="-4.3530150">
        <ele>939.9</ele>
        <time>2018-03-28T11:16:03Z</time>
      </trkpt>
      <trkpt lat="36.8389650" lon="-4.3530200">
        <ele>939.9</ele>
        <time>2018-03-28T11:16:04Z</time>
      </trkpt>
      <trkpt lat="36.8389420" lon="-4.3530220">
        <ele>939.9</ele>
        <time>2018-03-28T11:16:05Z</time>
      </trkpt>
      <trkpt lat="36.8389420" lon="-4.3530220">
        <ele>939.9</ele>
        <time>2018-03-28T11:16:06Z</time>
      </trkpt>
      <trkpt lat="36.8388930" lon="-4.3530250">
        <ele>939.9</ele>
        <time>2018-03-28T11:16:07Z</time>
      </trkpt>
      <trkpt lat="36.8388930" lon="-4.3530250">
        <ele>939.9</ele>
        <time>2018-03-28T11:16:08Z</time>
      </trkpt>
      <trkpt lat="36.8388350" lon="-4.3530410">
        <ele>939.9</ele>
        <time>2018-03-28T11:16:09Z</time>
      </trkpt>
      <trkpt lat="36.8388220" lon="-4.3530450">
        <ele>940.9</ele>
        <time>2018-03-28T11:16:10Z</time>
      </trkpt>
      <trkpt lat="36.8388220" lon="-4.3530450">
        <ele>940.9</ele>
        <time>2018-03-28T11:16:11Z</time>
      </trkpt>
      <trkpt lat="36.8387630" lon="-4.3530550">
        <ele>940.9</ele>
        <time>2018-03-28T11:16:12Z</time>
      </trkpt>
      <trkpt lat="36.8387630" lon="-4.3530550">
        <ele>940.9</ele>
        <time>2018-03-28T11:16:13Z</time>
      </trkpt>
      <trkpt lat="36.8386930" lon="-4.3530600">
        <ele>940.9</ele>
        <time>2018-03-28T11:16:14Z</time>
      </trkpt>
      <trkpt lat="36.8386930" lon="-4.3530600">
        <ele>940.9</ele>
        <time>2018-03-28T11:16:15Z</time>
      </trkpt>
      <trkpt lat="36.8386130" lon="-4.3530650">
        <ele>940.9</ele>
        <time>2018-03-28T11:16:16Z</time>
      </trkpt>
      <trkpt lat="36.8386130" lon="-4.3530650">
        <ele>940.9</ele>
        <time>2018-03-28T11:16:17Z</time>
      </trkpt>
      <trkpt lat="36.8385160" lon="-4.3530750">
        <ele>940.9</ele>
        <time>2018-03-28T11:16:18Z</time>
      </trkpt>
      <trkpt lat="36.8384950" lon="-4.3530770">
        <ele>940.9</ele>
        <time>2018-03-28T11:16:19Z</time>
      </trkpt>
      <trkpt lat="36.8384950" lon="-4.3530770">
        <ele>940.9</ele>
        <time>2018-03-28T11:16:20Z</time>
      </trkpt>
      <trkpt lat="36.8384120" lon="-4.3530950">
        <ele>940.9</ele>
        <time>2018-03-28T11:16:21Z</time>
      </trkpt>
      <trkpt lat="36.8384120" lon="-4.3530950">
        <ele>940.9</ele>
        <time>2018-03-28T11:16:22Z</time>
      </trkpt>
      <trkpt lat="36.8383250" lon="-4.3531320">
        <ele>940.9</ele>
        <time>2018-03-28T11:16:23Z</time>
      </trkpt>
      <trkpt lat="36.8382820" lon="-4.3531570">
        <ele>940.9</ele>
        <time>2018-03-28T11:16:24Z</time>
      </trkpt>
      <trkpt lat="36.8382430" lon="-4.3531880">
        <ele>940.9</ele>
        <time>2018-03-28T11:16:25Z</time>
      </trkpt>
      <trkpt lat="36.8382430" lon="-4.3531880">
        <ele>940.9</ele>
        <time>2018-03-28T11:16:26Z</time>
      </trkpt>
      <trkpt lat="36.8381650" lon="-4.3532680">
        <ele>940.9</ele>
        <time>2018-03-28T11:16:27Z</time>
      </trkpt>
      <trkpt lat="36.8381270" lon="-4.3533080">
        <ele>940.9</ele>
        <time>2018-03-28T11:16:28Z</time>
      </trkpt>
      <trkpt lat="36.8381270" lon="-4.3533080">
        <ele>940.9</ele>
        <time>2018-03-28T11:16:29Z</time>
      </trkpt>
      <trkpt lat="36.8380430" lon="-4.3533820">
        <ele>940.9</ele>
        <time>2018-03-28T11:16:30Z</time>
      </trkpt>
      <trkpt lat="36.8379980" lon="-4.3534150">
        <ele>940.9</ele>
        <time>2018-03-28T11:16:31Z</time>
      </trkpt>
      <trkpt lat="36.8379980" lon="-4.3534150">
        <ele>940.9</ele>
        <time>2018-03-28T11:16:32Z</time>
      </trkpt>
      <trkpt lat="36.8379130" lon="-4.3534800">
        <ele>940.9</ele>
        <time>2018-03-28T11:16:33Z</time>
      </trkpt>
      <trkpt lat="36.8378700" lon="-4.3535000">
        <ele>940.9</ele>
        <time>2018-03-28T11:16:34Z</time>
      </trkpt>
      <trkpt lat="36.8378700" lon="-4.3535000">
        <ele>940.9</ele>
        <time>2018-03-28T11:16:35Z</time>
      </trkpt>
      <trkpt lat="36.8377870" lon="-4.3535280">
        <ele>940.9</ele>
        <time>2018-03-28T11:16:36Z</time>
      </trkpt>
      <trkpt lat="36.8377870" lon="-4.3535280">
        <ele>940.9</ele>
        <time>2018-03-28T11:16:37Z</time>
      </trkpt>
      <trkpt lat="36.8376930" lon="-4.3535350">
        <ele>940.9</ele>
        <time>2018-03-28T11:16:38Z</time>
      </trkpt>
      <trkpt lat="36.8376930" lon="-4.3535350">
        <ele>940.9</ele>
        <time>2018-03-28T11:16:39Z</time>
      </trkpt>
      <trkpt lat="36.8375870" lon="-4.3535180">
        <ele>940.9</ele>
        <time>2018-03-28T11:16:40Z</time>
      </trkpt>
      <trkpt lat="36.8375870" lon="-4.3535180">
        <ele>940.9</ele>
        <time>2018-03-28T11:16:41Z</time>
      </trkpt>
      <trkpt lat="36.8374770" lon="-4.3534970">
        <ele>940.9</ele>
        <time>2018-03-28T11:16:42Z</time>
      </trkpt>
      <trkpt lat="36.8374770" lon="-4.3534970">
        <ele>940.9</ele>
        <time>2018-03-28T11:16:43Z</time>
      </trkpt>
      <trkpt lat="36.8373600" lon="-4.3534780">
        <ele>940.9</ele>
        <time>2018-03-28T11:16:44Z</time>
      </trkpt>
      <trkpt lat="36.8373600" lon="-4.3534780">
        <ele>940.9</ele>
        <time>2018-03-28T11:16:45Z</time>
      </trkpt>
      <trkpt lat="36.8372400" lon="-4.3534630">
        <ele>940.9</ele>
        <time>2018-03-28T11:16:46Z</time>
      </trkpt>
      <trkpt lat="36.8372400" lon="-4.3534630">
        <ele>940.9</ele>
        <time>2018-03-28T11:16:47Z</time>
      </trkpt>
      <trkpt lat="36.8371320" lon="-4.3534770">
        <ele>940.9</ele>
        <time>2018-03-28T11:16:48Z</time>
      </trkpt>
      <trkpt lat="36.8370780" lon="-4.3535020">
        <ele>940.9</ele>
        <time>2018-03-28T11:16:49Z</time>
      </trkpt>
      <trkpt lat="36.8370780" lon="-4.3535020">
        <ele>940.9</ele>
        <time>2018-03-28T11:16:50Z</time>
      </trkpt>
      <trkpt lat="36.8369650" lon="-4.3535450">
        <ele>940.9</ele>
        <time>2018-03-28T11:16:51Z</time>
      </trkpt>
      <trkpt lat="36.8369650" lon="-4.3535450">
        <ele>940.9</ele>
        <time>2018-03-28T11:16:52Z</time>
      </trkpt>
      <trkpt lat="36.8368570" lon="-4.3535870">
        <ele>940.9</ele>
        <time>2018-03-28T11:16:53Z</time>
      </trkpt>
      <trkpt lat="36.8368020" lon="-4.3536100">
        <ele>940.9</ele>
        <time>2018-03-28T11:16:54Z</time>
      </trkpt>
      <trkpt lat="36.8367470" lon="-4.3536270">
        <ele>940.9</ele>
        <time>2018-03-28T11:16:55Z</time>
      </trkpt>
      <trkpt lat="36.8367470" lon="-4.3536270">
        <ele>940.9</ele>
        <time>2018-03-28T11:16:56Z</time>
      </trkpt>
      <trkpt lat="36.8366300" lon="-4.3536600">
        <ele>940.9</ele>
        <time>2018-03-28T11:16:57Z</time>
      </trkpt>
      <trkpt lat="36.8365700" lon="-4.3536750">
        <ele>940.9</ele>
        <time>2018-03-28T11:16:58Z</time>
      </trkpt>
      <trkpt lat="36.8365700" lon="-4.3536750">
        <ele>940.9</ele>
        <time>2018-03-28T11:16:59Z</time>
      </trkpt>
      <trkpt lat="36.8364240" lon="-4.3537080">
        <ele>940.9</ele>
        <time>2018-03-28T11:17:00Z</time>
      </trkpt>
      <trkpt lat="36.8364080" lon="-4.3537130">
        <ele>940.9</ele>
        <time>2018-03-28T11:17:01Z</time>
      </trkpt>
      <trkpt lat="36.8363440" lon="-4.3537340">
        <ele>940.9</ele>
        <time>2018-03-28T11:17:02Z</time>
      </trkpt>
      <trkpt lat="36.8363120" lon="-4.3537450">
        <ele>940.9</ele>
        <time>2018-03-28T11:17:03Z</time>
      </trkpt>
      <trkpt lat="36.8362480" lon="-4.3537670">
        <ele>940.9</ele>
        <time>2018-03-28T11:17:04Z</time>
      </trkpt>
      <trkpt lat="36.8361280" lon="-4.3538250">
        <ele>940.9</ele>
        <time>2018-03-28T11:17:05Z</time>
      </trkpt>
      <trkpt lat="36.8361280" lon="-4.3538250">
        <ele>940.9</ele>
        <time>2018-03-28T11:17:06Z</time>
      </trkpt>
      <trkpt lat="36.8360170" lon="-4.3538850">
        <ele>940.9</ele>
        <time>2018-03-28T11:17:07Z</time>
      </trkpt>
      <trkpt lat="36.8360170" lon="-4.3538850">
        <ele>940.9</ele>
        <time>2018-03-28T11:17:08Z</time>
      </trkpt>
      <trkpt lat="36.8359080" lon="-4.3539450">
        <ele>940.9</ele>
        <time>2018-03-28T11:17:09Z</time>
      </trkpt>
      <trkpt lat="36.8358550" lon="-4.3539770">
        <ele>940.9</ele>
        <time>2018-03-28T11:17:10Z</time>
      </trkpt>
      <trkpt lat="36.8358550" lon="-4.3539770">
        <ele>939.9</ele>
        <time>2018-03-28T11:17:11Z</time>
      </trkpt>
      <trkpt lat="36.8357550" lon="-4.3540380">
        <ele>939.9</ele>
        <time>2018-03-28T11:17:12Z</time>
      </trkpt>
      <trkpt lat="36.8357050" lon="-4.3540720">
        <ele>939.9</ele>
        <time>2018-03-28T11:17:13Z</time>
      </trkpt>
      <trkpt lat="36.8357050" lon="-4.3540720">
        <ele>939.9</ele>
        <time>2018-03-28T11:17:14Z</time>
      </trkpt>
      <trkpt lat="36.8356030" lon="-4.3541470">
        <ele>939.9</ele>
        <time>2018-03-28T11:17:15Z</time>
      </trkpt>
      <trkpt lat="36.8356030" lon="-4.3541470">
        <ele>939.9</ele>
        <time>2018-03-28T11:17:16Z</time>
      </trkpt>
      <trkpt lat="36.8354980" lon="-4.3542220">
        <ele>939.9</ele>
        <time>2018-03-28T11:17:17Z</time>
      </trkpt>
      <trkpt lat="36.8354980" lon="-4.3542220">
        <ele>939.9</ele>
        <time>2018-03-28T11:17:18Z</time>
      </trkpt>
      <trkpt lat="36.8353650" lon="-4.3543090">
        <ele>939.9</ele>
        <time>2018-03-28T11:17:19Z</time>
      </trkpt>
      <trkpt lat="36.8353370" lon="-4.3543260">
        <ele>939.9</ele>
        <time>2018-03-28T11:17:20Z</time>
      </trkpt>
      <trkpt lat="36.8352820" lon="-4.3543600">
        <ele>939.9</ele>
        <time>2018-03-28T11:17:21Z</time>
      </trkpt>
      <trkpt lat="36.8352250" lon="-4.3543930">
        <ele>939.9</ele>
        <time>2018-03-28T11:17:22Z</time>
      </trkpt>
      <trkpt lat="36.8352250" lon="-4.3543930">
        <ele>939.9</ele>
        <time>2018-03-28T11:17:23Z</time>
      </trkpt>
      <trkpt lat="36.8351100" lon="-4.3544530">
        <ele>939.9</ele>
        <time>2018-03-28T11:17:24Z</time>
      </trkpt>
      <trkpt lat="36.8350500" lon="-4.3544770">
        <ele>939.9</ele>
        <time>2018-03-28T11:17:25Z</time>
      </trkpt>
      <trkpt lat="36.8349900" lon="-4.3544920">
        <ele>939.9</ele>
        <time>2018-03-28T11:17:26Z</time>
      </trkpt>
      <trkpt lat="36.8349900" lon="-4.3544920">
        <ele>939.9</ele>
        <time>2018-03-28T11:17:27Z</time>
      </trkpt>
      <trkpt lat="36.8348720" lon="-4.3545120">
        <ele>939.9</ele>
        <time>2018-03-28T11:17:28Z</time>
      </trkpt>
      <trkpt lat="36.8348720" lon="-4.3545120">
        <ele>939.9</ele>
        <time>2018-03-28T11:17:29Z</time>
      </trkpt>
      <trkpt lat="36.8347620" lon="-4.3545420">
        <ele>939.9</ele>
        <time>2018-03-28T11:17:30Z</time>
      </trkpt>
      <trkpt lat="36.8347620" lon="-4.3545420">
        <ele>939.9</ele>
        <time>2018-03-28T11:17:31Z</time>
      </trkpt>
      <trkpt lat="36.8346480" lon="-4.3545850">
        <ele>939.9</ele>
        <time>2018-03-28T11:17:32Z</time>
      </trkpt>
      <trkpt lat="36.8346480" lon="-4.3545850">
        <ele>939.9</ele>
        <time>2018-03-28T11:17:33Z</time>
      </trkpt>
      <trkpt lat="36.8345380" lon="-4.3546450">
        <ele>939.9</ele>
        <time>2018-03-28T11:17:34Z</time>
      </trkpt>
      <trkpt lat="36.8344830" lon="-4.3546770">
        <ele>939.9</ele>
        <time>2018-03-28T11:17:35Z</time>
      </trkpt>
      <trkpt lat="36.8344830" lon="-4.3546770">
        <ele>939.9</ele>
        <time>2018-03-28T11:17:36Z</time>
      </trkpt>
      <trkpt lat="36.8343750" lon="-4.3547300">
        <ele>939.9</ele>
        <time>2018-03-28T11:17:37Z</time>
      </trkpt>
      <trkpt lat="36.8343750" lon="-4.3547300">
        <ele>939.9</ele>
        <time>2018-03-28T11:17:38Z</time>
      </trkpt>
      <trkpt lat="36.8342670" lon="-4.3547780">
        <ele>939.9</ele>
        <time>2018-03-28T11:17:39Z</time>
      </trkpt>
      <trkpt lat="36.8342130" lon="-4.3548080">
        <ele>939.9</ele>
        <time>2018-03-28T11:17:40Z</time>
      </trkpt>
      <trkpt lat="36.8341630" lon="-4.3548350">
        <ele>939.9</ele>
        <time>2018-03-28T11:17:41Z</time>
      </trkpt>
      <trkpt lat="36.8341630" lon="-4.3548350">
        <ele>939.9</ele>
        <time>2018-03-28T11:17:42Z</time>
      </trkpt>
      <trkpt lat="36.8340520" lon="-4.3548870">
        <ele>939.9</ele>
        <time>2018-03-28T11:17:43Z</time>
      </trkpt>
      <trkpt lat="36.8340520" lon="-4.3548870">
        <ele>939.9</ele>
        <time>2018-03-28T11:17:44Z</time>
      </trkpt>
      <trkpt lat="36.8339330" lon="-4.3549280">
        <ele>939.9</ele>
        <time>2018-03-28T11:17:45Z</time>
      </trkpt>
      <trkpt lat="36.8338750" lon="-4.3549430">
        <ele>939.9</ele>
        <time>2018-03-28T11:17:46Z</time>
      </trkpt>
      <trkpt lat="36.8338750" lon="-4.3549430">
        <ele>939.9</ele>
        <time>2018-03-28T11:17:47Z</time>
      </trkpt>
      <trkpt lat="36.8337430" lon="-4.3549430">
        <ele>939.9</ele>
        <time>2018-03-28T11:17:48Z</time>
      </trkpt>
      <trkpt lat="36.8336750" lon="-4.3549400">
        <ele>939.9</ele>
        <time>2018-03-28T11:17:49Z</time>
      </trkpt>
      <trkpt lat="36.8336750" lon="-4.3549400">
        <ele>939.9</ele>
        <time>2018-03-28T11:17:50Z</time>
      </trkpt>
      <trkpt lat="36.8335350" lon="-4.3549330">
        <ele>939.9</ele>
        <time>2018-03-28T11:17:51Z</time>
      </trkpt>
      <trkpt lat="36.8334630" lon="-4.3549280">
        <ele>938.9</ele>
        <time>2018-03-28T11:17:52Z</time>
      </trkpt>
      <trkpt lat="36.8334630" lon="-4.3549280">
        <ele>937.9</ele>
        <time>2018-03-28T11:17:53Z</time>
      </trkpt>
      <trkpt lat="36.8333130" lon="-4.3549070">
        <ele>937.9</ele>
        <time>2018-03-28T11:17:54Z</time>
      </trkpt>
      <trkpt lat="36.8332350" lon="-4.3548880">
        <ele>936.9</ele>
        <time>2018-03-28T11:17:55Z</time>
      </trkpt>
      <trkpt lat="36.8332350" lon="-4.3548880">
        <ele>936.9</ele>
        <time>2018-03-28T11:17:56Z</time>
      </trkpt>
      <trkpt lat="36.8330680" lon="-4.3548330">
        <ele>935.9</ele>
        <time>2018-03-28T11:17:57Z</time>
      </trkpt>
      <trkpt lat="36.8330680" lon="-4.3548330">
        <ele>935.9</ele>
        <time>2018-03-28T11:17:58Z</time>
      </trkpt>
      <trkpt lat="36.8329130" lon="-4.3547230">
        <ele>934.9</ele>
        <time>2018-03-28T11:17:59Z</time>
      </trkpt>
      <trkpt lat="36.8328400" lon="-4.3546450">
        <ele>934.9</ele>
        <time>2018-03-28T11:18:00Z</time>
      </trkpt>
      <trkpt lat="36.8327620" lon="-4.3545550">
        <ele>932.9</ele>
        <time>2018-03-28T11:18:01Z</time>
      </trkpt>
      <trkpt lat="36.8327620" lon="-4.3545550">
        <ele>932.9</ele>
        <time>2018-03-28T11:18:02Z</time>
      </trkpt>
      <trkpt lat="36.8326080" lon="-4.3543820">
        <ele>931.9</ele>
        <time>2018-03-28T11:18:03Z</time>
      </trkpt>
      <trkpt lat="36.8326080" lon="-4.3543820">
        <ele>931.9</ele>
        <time>2018-03-28T11:18:04Z</time>
      </trkpt>
      <trkpt lat="36.8324070" lon="-4.3541690">
        <ele>929.9</ele>
        <time>2018-03-28T11:18:05Z</time>
      </trkpt>
      <trkpt lat="36.8323630" lon="-4.3541270">
        <ele>929.9</ele>
        <time>2018-03-28T11:18:06Z</time>
      </trkpt>
      <trkpt lat="36.8322750" lon="-4.3540430">
        <ele>927.9</ele>
        <time>2018-03-28T11:18:07Z</time>
      </trkpt>
      <trkpt lat="36.8322750" lon="-4.3540430">
        <ele>927.9</ele>
        <time>2018-03-28T11:18:08Z</time>
      </trkpt>
      <trkpt lat="36.8320800" lon="-4.3539000">
        <ele>926.9</ele>
        <time>2018-03-28T11:18:09Z</time>
      </trkpt>
      <trkpt lat="36.8320800" lon="-4.3539000">
        <ele>926.9</ele>
        <time>2018-03-28T11:18:10Z</time>
      </trkpt>
      <trkpt lat="36.8318900" lon="-4.3537650">
        <ele>925.9</ele>
        <time>2018-03-28T11:18:11Z</time>
      </trkpt>
      <trkpt lat="36.8318900" lon="-4.3537650">
        <ele>925.9</ele>
        <time>2018-03-28T11:18:12Z</time>
      </trkpt>
      <trkpt lat="36.8316970" lon="-4.3536880">
        <ele>924.9</ele>
        <time>2018-03-28T11:18:13Z</time>
      </trkpt>
      <trkpt lat="36.8316970" lon="-4.3536880">
        <ele>924.9</ele>
        <time>2018-03-28T11:18:14Z</time>
      </trkpt>
      <trkpt lat="36.8315070" lon="-4.3537170">
        <ele>922.9</ele>
        <time>2018-03-28T11:18:15Z</time>
      </trkpt>
      <trkpt lat="36.8315070" lon="-4.3537170">
        <ele>922.9</ele>
        <time>2018-03-28T11:18:16Z</time>
      </trkpt>
      <trkpt lat="36.8313170" lon="-4.3537850">
        <ele>921.9</ele>
        <time>2018-03-28T11:18:17Z</time>
      </trkpt>
      <trkpt lat="36.8313170" lon="-4.3537850">
        <ele>921.9</ele>
        <time>2018-03-28T11:18:18Z</time>
      </trkpt>
      <trkpt lat="36.8311130" lon="-4.3538280">
        <ele>919.9</ele>
        <time>2018-03-28T11:18:19Z</time>
      </trkpt>
      <trkpt lat="36.8311130" lon="-4.3538280">
        <ele>919.9</ele>
        <time>2018-03-28T11:18:20Z</time>
      </trkpt>
      <trkpt lat="36.8308980" lon="-4.3538150">
        <ele>918.9</ele>
        <time>2018-03-28T11:18:21Z</time>
      </trkpt>
      <trkpt lat="36.8307870" lon="-4.3537980">
        <ele>917.9</ele>
        <time>2018-03-28T11:18:22Z</time>
      </trkpt>
      <trkpt lat="36.8307870" lon="-4.3537980">
        <ele>917.9</ele>
        <time>2018-03-28T11:18:23Z</time>
      </trkpt>
      <trkpt lat="36.8305650" lon="-4.3537680">
        <ele>916.9</ele>
        <time>2018-03-28T11:18:24Z</time>
      </trkpt>
      <trkpt lat="36.8304500" lon="-4.3537630">
        <ele>916.9</ele>
        <time>2018-03-28T11:18:25Z</time>
      </trkpt>
      <trkpt lat="36.8304500" lon="-4.3537630">
        <ele>915.9</ele>
        <time>2018-03-28T11:18:26Z</time>
      </trkpt>
      <trkpt lat="36.8302230" lon="-4.3537720">
        <ele>915.9</ele>
        <time>2018-03-28T11:18:27Z</time>
      </trkpt>
      <trkpt lat="36.8302230" lon="-4.3537720">
        <ele>914.9</ele>
        <time>2018-03-28T11:18:28Z</time>
      </trkpt>
      <trkpt lat="36.8299930" lon="-4.3538170">
        <ele>914.9</ele>
        <time>2018-03-28T11:18:29Z</time>
      </trkpt>
      <trkpt lat="36.8298820" lon="-4.3538280">
        <ele>913.9</ele>
        <time>2018-03-28T11:18:30Z</time>
      </trkpt>
      <trkpt lat="36.8297670" lon="-4.3538180">
        <ele>913.9</ele>
        <time>2018-03-28T11:18:31Z</time>
      </trkpt>
      <trkpt lat="36.8297670" lon="-4.3538180">
        <ele>912.9</ele>
        <time>2018-03-28T11:18:32Z</time>
      </trkpt>
      <trkpt lat="36.8295350" lon="-4.3537920">
        <ele>912.9</ele>
        <time>2018-03-28T11:18:33Z</time>
      </trkpt>
      <trkpt lat="36.8294200" lon="-4.3537780">
        <ele>911.9</ele>
        <time>2018-03-28T11:18:34Z</time>
      </trkpt>
      <trkpt lat="36.8293050" lon="-4.3537650">
        <ele>911.9</ele>
        <time>2018-03-28T11:18:35Z</time>
      </trkpt>
      <trkpt lat="36.8293050" lon="-4.3537650">
        <ele>910.9</ele>
        <time>2018-03-28T11:18:36Z</time>
      </trkpt>
      <trkpt lat="36.8290750" lon="-4.3537520">
        <ele>910.9</ele>
        <time>2018-03-28T11:18:37Z</time>
      </trkpt>
      <trkpt lat="36.8290750" lon="-4.3537520">
        <ele>910.9</ele>
        <time>2018-03-28T11:18:38Z</time>
      </trkpt>
      <trkpt lat="36.8288370" lon="-4.3537230">
        <ele>910.9</ele>
        <time>2018-03-28T11:18:39Z</time>
      </trkpt>
      <trkpt lat="36.8287250" lon="-4.3537050">
        <ele>909.9</ele>
        <time>2018-03-28T11:18:40Z</time>
      </trkpt>
      <trkpt lat="36.8287250" lon="-4.3537050">
        <ele>909.9</ele>
        <time>2018-03-28T11:18:41Z</time>
      </trkpt>
      <trkpt lat="36.8285030" lon="-4.3537030">
        <ele>908.9</ele>
        <time>2018-03-28T11:18:42Z</time>
      </trkpt>
      <trkpt lat="36.8284020" lon="-4.3537400">
        <ele>908.9</ele>
        <time>2018-03-28T11:18:43Z</time>
      </trkpt>
      <trkpt lat="36.8284020" lon="-4.3537400">
        <ele>908.9</ele>
        <time>2018-03-28T11:18:44Z</time>
      </trkpt>
      <trkpt lat="36.8282070" lon="-4.3538230">
        <ele>907.9</ele>
        <time>2018-03-28T11:18:45Z</time>
      </trkpt>
      <trkpt lat="36.8280980" lon="-4.3538500">
        <ele>907.9</ele>
        <time>2018-03-28T11:18:46Z</time>
      </trkpt>
      <trkpt lat="36.8280980" lon="-4.3538500">
        <ele>906.9</ele>
        <time>2018-03-28T11:18:47Z</time>
      </trkpt>
      <trkpt lat="36.8278820" lon="-4.3538580">
        <ele>906.9</ele>
        <time>2018-03-28T11:18:48Z</time>
      </trkpt>
      <trkpt lat="36.8277730" lon="-4.3538470">
        <ele>905.9</ele>
        <time>2018-03-28T11:18:49Z</time>
      </trkpt>
      <trkpt lat="36.8276940" lon="-4.3538240">
        <ele>904.9</ele>
        <time>2018-03-28T11:18:50Z</time>
      </trkpt>
      <trkpt lat="36.8276150" lon="-4.3538020">
        <ele>904.9</ele>
        <time>2018-03-28T11:18:51Z</time>
      </trkpt>
      <trkpt lat="36.8274570" lon="-4.3537580">
        <ele>903.9</ele>
        <time>2018-03-28T11:18:52Z</time>
      </trkpt>
      <trkpt lat="36.8274570" lon="-4.3537580">
        <ele>903.9</ele>
        <time>2018-03-28T11:18:53Z</time>
      </trkpt>
      <trkpt lat="36.8272480" lon="-4.3537150">
        <ele>902.9</ele>
        <time>2018-03-28T11:18:54Z</time>
      </trkpt>
      <trkpt lat="36.8272480" lon="-4.3537150">
        <ele>902.9</ele>
        <time>2018-03-28T11:18:55Z</time>
      </trkpt>
      <trkpt lat="36.8270330" lon="-4.3537050">
        <ele>901.9</ele>
        <time>2018-03-28T11:18:56Z</time>
      </trkpt>
      <trkpt lat="36.8270330" lon="-4.3537050">
        <ele>901.9</ele>
        <time>2018-03-28T11:18:57Z</time>
      </trkpt>
      <trkpt lat="36.8268070" lon="-4.3537280">
        <ele>900.9</ele>
        <time>2018-03-28T11:18:58Z</time>
      </trkpt>
      <trkpt lat="36.8268070" lon="-4.3537280">
        <ele>900.9</ele>
        <time>2018-03-28T11:18:59Z</time>
      </trkpt>
      <trkpt lat="36.8265870" lon="-4.3537430">
        <ele>899.9</ele>
        <time>2018-03-28T11:19:00Z</time>
      </trkpt>
      <trkpt lat="36.8264820" lon="-4.3537430">
        <ele>899.9</ele>
        <time>2018-03-28T11:19:01Z</time>
      </trkpt>
      <trkpt lat="36.8264820" lon="-4.3537430">
        <ele>898.9</ele>
        <time>2018-03-28T11:19:02Z</time>
      </trkpt>
      <trkpt lat="36.8262730" lon="-4.3537080">
        <ele>898.9</ele>
        <time>2018-03-28T11:19:03Z</time>
      </trkpt>
      <trkpt lat="36.8261630" lon="-4.3536920">
        <ele>897.9</ele>
        <time>2018-03-28T11:19:04Z</time>
      </trkpt>
      <trkpt lat="36.8261630" lon="-4.3536920">
        <ele>897.9</ele>
        <time>2018-03-28T11:19:05Z</time>
      </trkpt>
      <trkpt lat="36.8259580" lon="-4.3536420">
        <ele>896.9</ele>
        <time>2018-03-28T11:19:06Z</time>
      </trkpt>
      <trkpt lat="36.8258580" lon="-4.3536080">
        <ele>896.9</ele>
        <time>2018-03-28T11:19:07Z</time>
      </trkpt>
      <trkpt lat="36.8258580" lon="-4.3536080">
        <ele>896.9</ele>
        <time>2018-03-28T11:19:08Z</time>
      </trkpt>
      <trkpt lat="36.8256700" lon="-4.3535330">
        <ele>896.9</ele>
        <time>2018-03-28T11:19:09Z</time>
      </trkpt>
      <trkpt lat="36.8256700" lon="-4.3535330">
        <ele>896.9</ele>
        <time>2018-03-28T11:19:10Z</time>
      </trkpt>
      <trkpt lat="36.8254950" lon="-4.3534600">
        <ele>896.9</ele>
        <time>2018-03-28T11:19:11Z</time>
      </trkpt>
      <trkpt lat="36.8254950" lon="-4.3534600">
        <ele>896.9</ele>
        <time>2018-03-28T11:19:12Z</time>
      </trkpt>
      <trkpt lat="36.8253270" lon="-4.3534550">
        <ele>896.9</ele>
        <time>2018-03-28T11:19:13Z</time>
      </trkpt>
      <trkpt lat="36.8252530" lon="-4.3534680">
        <ele>896.9</ele>
        <time>2018-03-28T11:19:14Z</time>
      </trkpt>
      <trkpt lat="36.8252530" lon="-4.3534680">
        <ele>896.9</ele>
        <time>2018-03-28T11:19:15Z</time>
      </trkpt>
      <trkpt lat="36.8250850" lon="-4.3535350">
        <ele>896.9</ele>
        <time>2018-03-28T11:19:16Z</time>
      </trkpt>
      <trkpt lat="36.8250850" lon="-4.3535350">
        <ele>896.9</ele>
        <time>2018-03-28T11:19:17Z</time>
      </trkpt>
      <trkpt lat="36.8249330" lon="-4.3536050">
        <ele>895.9</ele>
        <time>2018-03-28T11:19:18Z</time>
      </trkpt>
      <trkpt lat="36.8249330" lon="-4.3536050">
        <ele>895.9</ele>
        <time>2018-03-28T11:19:19Z</time>
      </trkpt>
      <trkpt lat="36.8247920" lon="-4.3536650">
        <ele>895.9</ele>
        <time>2018-03-28T11:19:20Z</time>
      </trkpt>
      <trkpt lat="36.8247920" lon="-4.3536650">
        <ele>895.9</ele>
        <time>2018-03-28T11:19:21Z</time>
      </trkpt>
      <trkpt lat="36.8246630" lon="-4.3537320">
        <ele>895.9</ele>
        <time>2018-03-28T11:19:22Z</time>
      </trkpt>
      <trkpt lat="36.8246630" lon="-4.3537320">
        <ele>895.9</ele>
        <time>2018-03-28T11:19:23Z</time>
      </trkpt>
      <trkpt lat="36.8245300" lon="-4.3537850">
        <ele>895.9</ele>
        <time>2018-03-28T11:19:24Z</time>
      </trkpt>
      <trkpt lat="36.8245300" lon="-4.3537850">
        <ele>895.9</ele>
        <time>2018-03-28T11:19:25Z</time>
      </trkpt>
      <trkpt lat="36.8243950" lon="-4.3538180">
        <ele>895.9</ele>
        <time>2018-03-28T11:19:26Z</time>
      </trkpt>
      <trkpt lat="36.8243950" lon="-4.3538180">
        <ele>895.9</ele>
        <time>2018-03-28T11:19:27Z</time>
      </trkpt>
      <trkpt lat="36.8242620" lon="-4.3538220">
        <ele>895.9</ele>
        <time>2018-03-28T11:19:28Z</time>
      </trkpt>
      <trkpt lat="36.8242620" lon="-4.3538220">
        <ele>895.9</ele>
        <time>2018-03-28T11:19:29Z</time>
      </trkpt>
      <trkpt lat="36.8241380" lon="-4.3538150">
        <ele>895.9</ele>
        <time>2018-03-28T11:19:30Z</time>
      </trkpt>
      <trkpt lat="36.8240780" lon="-4.3538150">
        <ele>896.9</ele>
        <time>2018-03-28T11:19:31Z</time>
      </trkpt>
      <trkpt lat="36.8240780" lon="-4.3538150">
        <ele>896.9</ele>
        <time>2018-03-28T11:19:32Z</time>
      </trkpt>
      <trkpt lat="36.8239550" lon="-4.3538130">
        <ele>896.9</ele>
        <time>2018-03-28T11:19:33Z</time>
      </trkpt>
      <trkpt lat="36.8239550" lon="-4.3538130">
        <ele>896.9</ele>
        <time>2018-03-28T11:19:34Z</time>
      </trkpt>
      <trkpt lat="36.8238330" lon="-4.3538150">
        <ele>896.9</ele>
        <time>2018-03-28T11:19:35Z</time>
      </trkpt>
      <trkpt lat="36.8237730" lon="-4.3538150">
        <ele>896.9</ele>
        <time>2018-03-28T11:19:36Z</time>
      </trkpt>
      <trkpt lat="36.8237730" lon="-4.3538150">
        <ele>897.9</ele>
        <time>2018-03-28T11:19:37Z</time>
      </trkpt>
      <trkpt lat="36.8236530" lon="-4.3538170">
        <ele>897.9</ele>
        <time>2018-03-28T11:19:38Z</time>
      </trkpt>
      <trkpt lat="36.8236530" lon="-4.3538170">
        <ele>897.9</ele>
        <time>2018-03-28T11:19:39Z</time>
      </trkpt>
      <trkpt lat="36.8235220" lon="-4.3538130">
        <ele>897.9</ele>
        <time>2018-03-28T11:19:40Z</time>
      </trkpt>
      <trkpt lat="36.8234550" lon="-4.3538120">
        <ele>897.9</ele>
        <time>2018-03-28T11:19:41Z</time>
      </trkpt>
      <trkpt lat="36.8233920" lon="-4.3538080">
        <ele>897.9</ele>
        <time>2018-03-28T11:19:42Z</time>
      </trkpt>
      <trkpt lat="36.8233920" lon="-4.3538080">
        <ele>897.9</ele>
        <time>2018-03-28T11:19:43Z</time>
      </trkpt>
      <trkpt lat="36.8232650" lon="-4.3538070">
        <ele>897.9</ele>
        <time>2018-03-28T11:19:44Z</time>
      </trkpt>
      <trkpt lat="36.8232360" lon="-4.3538060">
        <ele>897.9</ele>
        <time>2018-03-28T11:19:45Z</time>
      </trkpt>
      <trkpt lat="36.8232060" lon="-4.3538060">
        <ele>897.9</ele>
        <time>2018-03-28T11:19:46Z</time>
      </trkpt>
      <trkpt lat="36.8231470" lon="-4.3538050">
        <ele>897.9</ele>
        <time>2018-03-28T11:19:47Z</time>
      </trkpt>
      <trkpt lat="36.8230280" lon="-4.3538170">
        <ele>897.9</ele>
        <time>2018-03-28T11:19:48Z</time>
      </trkpt>
      <trkpt lat="36.8229770" lon="-4.3538180">
        <ele>897.9</ele>
        <time>2018-03-28T11:19:49Z</time>
      </trkpt>
      <trkpt lat="36.8229280" lon="-4.3538180">
        <ele>897.9</ele>
        <time>2018-03-28T11:19:50Z</time>
      </trkpt>
      <trkpt lat="36.8229280" lon="-4.3538180">
        <ele>898.9</ele>
        <time>2018-03-28T11:19:51Z</time>
      </trkpt>
      <trkpt lat="36.8227980" lon="-4.3538250">
        <ele>898.9</ele>
        <time>2018-03-28T11:19:52Z</time>
      </trkpt>
      <trkpt lat="36.8227980" lon="-4.3538250">
        <ele>898.9</ele>
        <time>2018-03-28T11:19:53Z</time>
      </trkpt>
      <trkpt lat="36.8226770" lon="-4.3538200">
        <ele>898.9</ele>
        <time>2018-03-28T11:19:54Z</time>
      </trkpt>
      <trkpt lat="36.8226770" lon="-4.3538200">
        <ele>898.9</ele>
        <time>2018-03-28T11:19:55Z</time>
      </trkpt>
      <trkpt lat="36.8225620" lon="-4.3537980">
        <ele>898.9</ele>
        <time>2018-03-28T11:19:56Z</time>
      </trkpt>
      <trkpt lat="36.8225620" lon="-4.3537980">
        <ele>898.9</ele>
        <time>2018-03-28T11:19:57Z</time>
      </trkpt>
      <trkpt lat="36.8224400" lon="-4.3537650">
        <ele>898.9</ele>
        <time>2018-03-28T11:19:58Z</time>
      </trkpt>
      <trkpt lat="36.8224400" lon="-4.3537650">
        <ele>898.9</ele>
        <time>2018-03-28T11:19:59Z</time>
      </trkpt>
      <trkpt lat="36.8223200" lon="-4.3537200">
        <ele>898.9</ele>
        <time>2018-03-28T11:20:00Z</time>
      </trkpt>
      <trkpt lat="36.8223200" lon="-4.3537200">
        <ele>898.9</ele>
        <time>2018-03-28T11:20:01Z</time>
      </trkpt>
      <trkpt lat="36.8222000" lon="-4.3536750">
        <ele>898.9</ele>
        <time>2018-03-28T11:20:02Z</time>
      </trkpt>
      <trkpt lat="36.8222000" lon="-4.3536750">
        <ele>898.9</ele>
        <time>2018-03-28T11:20:03Z</time>
      </trkpt>
      <trkpt lat="36.8220830" lon="-4.3536370">
        <ele>898.9</ele>
        <time>2018-03-28T11:20:04Z</time>
      </trkpt>
      <trkpt lat="36.8220830" lon="-4.3536370">
        <ele>898.9</ele>
        <time>2018-03-28T11:20:05Z</time>
      </trkpt>
      <trkpt lat="36.8219650" lon="-4.3536100">
        <ele>898.9</ele>
        <time>2018-03-28T11:20:06Z</time>
      </trkpt>
      <trkpt lat="36.8219650" lon="-4.3536100">
        <ele>898.9</ele>
        <time>2018-03-28T11:20:07Z</time>
      </trkpt>
      <trkpt lat="36.8218570" lon="-4.3535870">
        <ele>898.9</ele>
        <time>2018-03-28T11:20:08Z</time>
      </trkpt>
      <trkpt lat="36.8218270" lon="-4.3535820">
        <ele>898.9</ele>
        <time>2018-03-28T11:20:09Z</time>
      </trkpt>
      <trkpt lat="36.8217970" lon="-4.3535780">
        <ele>898.9</ele>
        <time>2018-03-28T11:20:10Z</time>
      </trkpt>
      <trkpt lat="36.8217370" lon="-4.3535700">
        <ele>898.9</ele>
        <time>2018-03-28T11:20:11Z</time>
      </trkpt>
      <trkpt lat="36.8216150" lon="-4.3535470">
        <ele>898.9</ele>
        <time>2018-03-28T11:20:12Z</time>
      </trkpt>
      <trkpt lat="36.8216150" lon="-4.3535470">
        <ele>898.9</ele>
        <time>2018-03-28T11:20:13Z</time>
      </trkpt>
      <trkpt lat="36.8214950" lon="-4.3535220">
        <ele>898.9</ele>
        <time>2018-03-28T11:20:14Z</time>
      </trkpt>
      <trkpt lat="36.8214950" lon="-4.3535220">
        <ele>898.9</ele>
        <time>2018-03-28T11:20:15Z</time>
      </trkpt>
      <trkpt lat="36.8213750" lon="-4.3534980">
        <ele>898.9</ele>
        <time>2018-03-28T11:20:16Z</time>
      </trkpt>
      <trkpt lat="36.8213750" lon="-4.3534980">
        <ele>898.9</ele>
        <time>2018-03-28T11:20:17Z</time>
      </trkpt>
      <trkpt lat="36.8212570" lon="-4.3534900">
        <ele>898.9</ele>
        <time>2018-03-28T11:20:18Z</time>
      </trkpt>
      <trkpt lat="36.8211930" lon="-4.3534850">
        <ele>898.9</ele>
        <time>2018-03-28T11:20:19Z</time>
      </trkpt>
      <trkpt lat="36.8211320" lon="-4.3534780">
        <ele>898.9</ele>
        <time>2018-03-28T11:20:20Z</time>
      </trkpt>
      <trkpt lat="36.8211320" lon="-4.3534780">
        <ele>898.9</ele>
        <time>2018-03-28T11:20:21Z</time>
      </trkpt>
      <trkpt lat="36.8210020" lon="-4.3534650">
        <ele>898.9</ele>
        <time>2018-03-28T11:20:22Z</time>
      </trkpt>
      <trkpt lat="36.8210020" lon="-4.3534650">
        <ele>898.9</ele>
        <time>2018-03-28T11:20:23Z</time>
      </trkpt>
      <trkpt lat="36.8208620" lon="-4.3534500">
        <ele>897.9</ele>
        <time>2018-03-28T11:20:24Z</time>
      </trkpt>
      <trkpt lat="36.8207850" lon="-4.3534430">
        <ele>897.9</ele>
        <time>2018-03-28T11:20:25Z</time>
      </trkpt>
      <trkpt lat="36.8207850" lon="-4.3534430">
        <ele>897.9</ele>
        <time>2018-03-28T11:20:26Z</time>
      </trkpt>
      <trkpt lat="36.8206330" lon="-4.3534300">
        <ele>897.9</ele>
        <time>2018-03-28T11:20:27Z</time>
      </trkpt>
      <trkpt lat="36.8206330" lon="-4.3534300">
        <ele>897.9</ele>
        <time>2018-03-28T11:20:28Z</time>
      </trkpt>
      <trkpt lat="36.8204820" lon="-4.3534220">
        <ele>897.9</ele>
        <time>2018-03-28T11:20:29Z</time>
      </trkpt>
      <trkpt lat="36.8204820" lon="-4.3534220">
        <ele>896.9</ele>
        <time>2018-03-28T11:20:30Z</time>
      </trkpt>
      <trkpt lat="36.8203330" lon="-4.3534130">
        <ele>896.9</ele>
        <time>2018-03-28T11:20:31Z</time>
      </trkpt>
      <trkpt lat="36.8203330" lon="-4.3534130">
        <ele>896.9</ele>
        <time>2018-03-28T11:20:32Z</time>
      </trkpt>
      <trkpt lat="36.8201880" lon="-4.3534220">
        <ele>896.9</ele>
        <time>2018-03-28T11:20:33Z</time>
      </trkpt>
      <trkpt lat="36.8201180" lon="-4.3534330">
        <ele>895.9</ele>
        <time>2018-03-28T11:20:34Z</time>
      </trkpt>
      <trkpt lat="36.8200520" lon="-4.3534450">
        <ele>895.9</ele>
        <time>2018-03-28T11:20:35Z</time>
      </trkpt>
      <trkpt lat="36.8200520" lon="-4.3534450">
        <ele>895.9</ele>
        <time>2018-03-28T11:20:36Z</time>
      </trkpt>
      <trkpt lat="36.8199150" lon="-4.3534730">
        <ele>895.9</ele>
        <time>2018-03-28T11:20:37Z</time>
      </trkpt>
      <trkpt lat="36.8199150" lon="-4.3534730">
        <ele>895.9</ele>
        <time>2018-03-28T11:20:38Z</time>
      </trkpt>
      <trkpt lat="36.8197700" lon="-4.3535120">
        <ele>895.9</ele>
        <time>2018-03-28T11:20:39Z</time>
      </trkpt>
      <trkpt lat="36.8197700" lon="-4.3535120">
        <ele>895.9</ele>
        <time>2018-03-28T11:20:40Z</time>
      </trkpt>
      <trkpt lat="36.8196230" lon="-4.3535570">
        <ele>895.9</ele>
        <time>2018-03-28T11:20:41Z</time>
      </trkpt>
      <trkpt lat="36.8195520" lon="-4.3535830">
        <ele>895.9</ele>
        <time>2018-03-28T11:20:42Z</time>
      </trkpt>
      <trkpt lat="36.8195520" lon="-4.3535830">
        <ele>895.9</ele>
        <time>2018-03-28T11:20:43Z</time>
      </trkpt>
      <trkpt lat="36.8194130" lon="-4.3536370">
        <ele>895.9</ele>
        <time>2018-03-28T11:20:44Z</time>
      </trkpt>
      <trkpt lat="36.8194130" lon="-4.3536370">
        <ele>895.9</ele>
        <time>2018-03-28T11:20:45Z</time>
      </trkpt>
      <trkpt lat="36.8192750" lon="-4.3537050">
        <ele>895.9</ele>
        <time>2018-03-28T11:20:46Z</time>
      </trkpt>
      <trkpt lat="36.8192750" lon="-4.3537050">
        <ele>894.9</ele>
        <time>2018-03-28T11:20:47Z</time>
      </trkpt>
      <trkpt lat="36.8191670" lon="-4.3538120">
        <ele>894.9</ele>
        <time>2018-03-28T11:20:48Z</time>
      </trkpt>
      <trkpt lat="36.8191220" lon="-4.3538720">
        <ele>894.9</ele>
        <time>2018-03-28T11:20:49Z</time>
      </trkpt>
      <trkpt lat="36.8191220" lon="-4.3538720">
        <ele>894.9</ele>
        <time>2018-03-28T11:20:50Z</time>
      </trkpt>
      <trkpt lat="36.8190370" lon="-4.3539830">
        <ele>894.9</ele>
        <time>2018-03-28T11:20:51Z</time>
      </trkpt>
      <trkpt lat="36.8190370" lon="-4.3539830">
        <ele>894.9</ele>
        <time>2018-03-28T11:20:52Z</time>
      </trkpt>
      <trkpt lat="36.8189630" lon="-4.3540770">
        <ele>894.9</ele>
        <time>2018-03-28T11:20:53Z</time>
      </trkpt>
      <trkpt lat="36.8189630" lon="-4.3540770">
        <ele>894.9</ele>
        <time>2018-03-28T11:20:54Z</time>
      </trkpt>
      <trkpt lat="36.8188970" lon="-4.3541400">
        <ele>894.9</ele>
        <time>2018-03-28T11:20:55Z</time>
      </trkpt>
      <trkpt lat="36.8188970" lon="-4.3541400">
        <ele>894.9</ele>
        <time>2018-03-28T11:20:56Z</time>
      </trkpt>
      <trkpt lat="36.8188180" lon="-4.3542070">
        <ele>895.9</ele>
        <time>2018-03-28T11:20:57Z</time>
      </trkpt>
      <trkpt lat="36.8187700" lon="-4.3542220">
        <ele>895.9</ele>
        <time>2018-03-28T11:20:58Z</time>
      </trkpt>
      <trkpt lat="36.8187700" lon="-4.3542220">
        <ele>895.9</ele>
        <time>2018-03-28T11:20:59Z</time>
      </trkpt>
      <trkpt lat="36.8186770" lon="-4.3542550">
        <ele>895.9</ele>
        <time>2018-03-28T11:21:00Z</time>
      </trkpt>
      <trkpt lat="36.8186220" lon="-4.3542600">
        <ele>897.9</ele>
        <time>2018-03-28T11:21:01Z</time>
      </trkpt>
      <trkpt lat="36.8186220" lon="-4.3542600">
        <ele>897.9</ele>
        <time>2018-03-28T11:21:02Z</time>
      </trkpt>
      <trkpt lat="36.8185020" lon="-4.3542520">
        <ele>897.9</ele>
        <time>2018-03-28T11:21:03Z</time>
      </trkpt>
      <trkpt lat="36.8184780" lon="-4.3542500">
        <ele>897.9</ele>
        <time>2018-03-28T11:21:04Z</time>
      </trkpt>
      <trkpt lat="36.8184780" lon="-4.3542500">
        <ele>897.9</ele>
        <time>2018-03-28T11:21:05Z</time>
      </trkpt>
      <trkpt lat="36.8183780" lon="-4.3542330">
        <ele>897.9</ele>
        <time>2018-03-28T11:21:06Z</time>
      </trkpt>
      <trkpt lat="36.8183250" lon="-4.3542350">
        <ele>897.9</ele>
        <time>2018-03-28T11:21:07Z</time>
      </trkpt>
      <trkpt lat="36.8183250" lon="-4.3542350">
        <ele>897.9</ele>
        <time>2018-03-28T11:21:08Z</time>
      </trkpt>
      <trkpt lat="36.8182100" lon="-4.3542420">
        <ele>897.9</ele>
        <time>2018-03-28T11:21:09Z</time>
      </trkpt>
      <trkpt lat="36.8181530" lon="-4.3542530">
        <ele>897.9</ele>
        <time>2018-03-28T11:21:10Z</time>
      </trkpt>
      <trkpt lat="36.8181030" lon="-4.3542850">
        <ele>897.9</ele>
        <time>2018-03-28T11:21:11Z</time>
      </trkpt>
      <trkpt lat="36.8181030" lon="-4.3542850">
        <ele>897.9</ele>
        <time>2018-03-28T11:21:12Z</time>
      </trkpt>
      <trkpt lat="36.8180230" lon="-4.3543780">
        <ele>897.9</ele>
        <time>2018-03-28T11:21:13Z</time>
      </trkpt>
      <trkpt lat="36.8180230" lon="-4.3543780">
        <ele>897.9</ele>
        <time>2018-03-28T11:21:14Z</time>
      </trkpt>
      <trkpt lat="36.8179450" lon="-4.3544780">
        <ele>897.9</ele>
        <time>2018-03-28T11:21:15Z</time>
      </trkpt>
      <trkpt lat="36.8179240" lon="-4.3545020">
        <ele>898.9</ele>
        <time>2018-03-28T11:21:16Z</time>
      </trkpt>
      <trkpt lat="36.8179020" lon="-4.3545260">
        <ele>898.9</ele>
        <time>2018-03-28T11:21:17Z</time>
      </trkpt>
      <trkpt lat="36.8178580" lon="-4.3545730">
        <ele>898.9</ele>
        <time>2018-03-28T11:21:18Z</time>
      </trkpt>
      <trkpt lat="36.8177580" lon="-4.3546580">
        <ele>898.9</ele>
        <time>2018-03-28T11:21:19Z</time>
      </trkpt>
      <trkpt lat="36.8177580" lon="-4.3546580">
        <ele>898.9</ele>
        <time>2018-03-28T11:21:20Z</time>
      </trkpt>
      <trkpt lat="36.8176480" lon="-4.3547420">
        <ele>898.9</ele>
        <time>2018-03-28T11:21:21Z</time>
      </trkpt>
      <trkpt lat="36.8175980" lon="-4.3547830">
        <ele>898.9</ele>
        <time>2018-03-28T11:21:22Z</time>
      </trkpt>
      <trkpt lat="36.8175980" lon="-4.3547830">
        <ele>898.9</ele>
        <time>2018-03-28T11:21:23Z</time>
      </trkpt>
      <trkpt lat="36.8174980" lon="-4.3548580">
        <ele>898.9</ele>
        <time>2018-03-28T11:21:24Z</time>
      </trkpt>
      <trkpt lat="36.8174470" lon="-4.3549130">
        <ele>898.9</ele>
        <time>2018-03-28T11:21:25Z</time>
      </trkpt>
      <trkpt lat="36.8174470" lon="-4.3549130">
        <ele>898.9</ele>
        <time>2018-03-28T11:21:26Z</time>
      </trkpt>
      <trkpt lat="36.8173520" lon="-4.3549980">
        <ele>898.9</ele>
        <time>2018-03-28T11:21:27Z</time>
      </trkpt>
      <trkpt lat="36.8173120" lon="-4.3550480">
        <ele>898.9</ele>
        <time>2018-03-28T11:21:28Z</time>
      </trkpt>
      <trkpt lat="36.8172830" lon="-4.3551120">
        <ele>898.9</ele>
        <time>2018-03-28T11:21:29Z</time>
      </trkpt>
      <trkpt lat="36.8172530" lon="-4.3551750">
        <ele>898.9</ele>
        <time>2018-03-28T11:21:30Z</time>
      </trkpt>
      <trkpt lat="36.8172320" lon="-4.3552330">
        <ele>898.9</ele>
        <time>2018-03-28T11:21:31Z</time>
      </trkpt>
      <trkpt lat="36.8172320" lon="-4.3552330">
        <ele>898.9</ele>
        <time>2018-03-28T11:21:32Z</time>
      </trkpt>
      <trkpt lat="36.8171970" lon="-4.3553650">
        <ele>898.9</ele>
        <time>2018-03-28T11:21:33Z</time>
      </trkpt>
      <trkpt lat="36.8171800" lon="-4.3554320">
        <ele>898.9</ele>
        <time>2018-03-28T11:21:34Z</time>
      </trkpt>
      <trkpt lat="36.8171630" lon="-4.3554920">
        <ele>898.9</ele>
        <time>2018-03-28T11:21:35Z</time>
      </trkpt>
      <trkpt lat="36.8171630" lon="-4.3554920">
        <ele>898.9</ele>
        <time>2018-03-28T11:21:36Z</time>
      </trkpt>
      <trkpt lat="36.8171330" lon="-4.3556350">
        <ele>898.9</ele>
        <time>2018-03-28T11:21:37Z</time>
      </trkpt>
      <trkpt lat="36.8171330" lon="-4.3556350">
        <ele>898.9</ele>
        <time>2018-03-28T11:21:38Z</time>
      </trkpt>
      <trkpt lat="36.8171100" lon="-4.3557900">
        <ele>898.9</ele>
        <time>2018-03-28T11:21:39Z</time>
      </trkpt>
      <trkpt lat="36.8170950" lon="-4.3558630">
        <ele>898.9</ele>
        <time>2018-03-28T11:21:40Z</time>
      </trkpt>
      <trkpt lat="36.8170950" lon="-4.3558630">
        <ele>898.9</ele>
        <time>2018-03-28T11:21:41Z</time>
      </trkpt>
      <trkpt lat="36.8170640" lon="-4.3560650">
        <ele>898.9</ele>
        <time>2018-03-28T11:21:42Z</time>
      </trkpt>
      <trkpt lat="36.8170580" lon="-4.3561080">
        <ele>898.9</ele>
        <time>2018-03-28T11:21:43Z</time>
      </trkpt>
      <trkpt lat="36.8170450" lon="-4.3561930">
        <ele>898.9</ele>
        <time>2018-03-28T11:21:44Z</time>
      </trkpt>
      <trkpt lat="36.8170450" lon="-4.3561930">
        <ele>898.9</ele>
        <time>2018-03-28T11:21:45Z</time>
      </trkpt>
      <trkpt lat="36.8170350" lon="-4.3563770">
        <ele>898.9</ele>
        <time>2018-03-28T11:21:46Z</time>
      </trkpt>
      <trkpt lat="36.8170350" lon="-4.3563770">
        <ele>898.9</ele>
        <time>2018-03-28T11:21:47Z</time>
      </trkpt>
      <trkpt lat="36.8170330" lon="-4.3565500">
        <ele>898.9</ele>
        <time>2018-03-28T11:21:48Z</time>
      </trkpt>
      <trkpt lat="36.8170330" lon="-4.3565500">
        <ele>898.9</ele>
        <time>2018-03-28T11:21:49Z</time>
      </trkpt>
      <trkpt lat="36.8170500" lon="-4.3567200">
        <ele>897.9</ele>
        <time>2018-03-28T11:21:50Z</time>
      </trkpt>
      <trkpt lat="36.8170500" lon="-4.3567200">
        <ele>897.9</ele>
        <time>2018-03-28T11:21:51Z</time>
      </trkpt>
      <trkpt lat="36.8170720" lon="-4.3568980">
        <ele>897.9</ele>
        <time>2018-03-28T11:21:52Z</time>
      </trkpt>
      <trkpt lat="36.8170720" lon="-4.3568980">
        <ele>897.9</ele>
        <time>2018-03-28T11:21:53Z</time>
      </trkpt>
      <trkpt lat="36.8170780" lon="-4.3570570">
        <ele>897.9</ele>
        <time>2018-03-28T11:21:54Z</time>
      </trkpt>
      <trkpt lat="36.8170850" lon="-4.3571470">
        <ele>897.9</ele>
        <time>2018-03-28T11:21:55Z</time>
      </trkpt>
      <trkpt lat="36.8170850" lon="-4.3571470">
        <ele>897.9</ele>
        <time>2018-03-28T11:21:56Z</time>
      </trkpt>
      <trkpt lat="36.8170850" lon="-4.3573530">
        <ele>897.9</ele>
        <time>2018-03-28T11:21:57Z</time>
      </trkpt>
      <trkpt lat="36.8170850" lon="-4.3573530">
        <ele>897.9</ele>
        <time>2018-03-28T11:21:58Z</time>
      </trkpt>
      <trkpt lat="36.8170500" lon="-4.3575520">
        <ele>897.9</ele>
        <time>2018-03-28T11:21:59Z</time>
      </trkpt>
      <trkpt lat="36.8170500" lon="-4.3575520">
        <ele>896.9</ele>
        <time>2018-03-28T11:22:00Z</time>
      </trkpt>
      <trkpt lat="36.8169800" lon="-4.3577400">
        <ele>896.9</ele>
        <time>2018-03-28T11:22:01Z</time>
      </trkpt>
      <trkpt lat="36.8169800" lon="-4.3577400">
        <ele>896.9</ele>
        <time>2018-03-28T11:22:02Z</time>
      </trkpt>
      <trkpt lat="36.8169050" lon="-4.3579270">
        <ele>896.9</ele>
        <time>2018-03-28T11:22:03Z</time>
      </trkpt>
      <trkpt lat="36.8169050" lon="-4.3579270">
        <ele>894.9</ele>
        <time>2018-03-28T11:22:04Z</time>
      </trkpt>
      <trkpt lat="36.8168380" lon="-4.3581230">
        <ele>894.9</ele>
        <time>2018-03-28T11:22:05Z</time>
      </trkpt>
      <trkpt lat="36.8168380" lon="-4.3581230">
        <ele>894.9</ele>
        <time>2018-03-28T11:22:06Z</time>
      </trkpt>
      <trkpt lat="36.8168220" lon="-4.3583330">
        <ele>894.9</ele>
        <time>2018-03-28T11:22:07Z</time>
      </trkpt>
      <trkpt lat="36.8168220" lon="-4.3583330">
        <ele>893.9</ele>
        <time>2018-03-28T11:22:08Z</time>
      </trkpt>
      <trkpt lat="36.8168550" lon="-4.3585370">
        <ele>893.9</ele>
        <time>2018-03-28T11:22:09Z</time>
      </trkpt>
      <trkpt lat="36.8168780" lon="-4.3586350">
        <ele>893.9</ele>
        <time>2018-03-28T11:22:10Z</time>
      </trkpt>
      <trkpt lat="36.8168780" lon="-4.3586350">
        <ele>893.9</ele>
        <time>2018-03-28T11:22:11Z</time>
      </trkpt>
      <trkpt lat="36.8169300" lon="-4.3588230">
        <ele>892.9</ele>
        <time>2018-03-28T11:22:12Z</time>
      </trkpt>
      <trkpt lat="36.8169530" lon="-4.3589100">
        <ele>892.9</ele>
        <time>2018-03-28T11:22:13Z</time>
      </trkpt>
      <trkpt lat="36.8169530" lon="-4.3589100">
        <ele>892.9</ele>
        <time>2018-03-28T11:22:14Z</time>
      </trkpt>
      <trkpt lat="36.8169930" lon="-4.3590770">
        <ele>892.9</ele>
        <time>2018-03-28T11:22:15Z</time>
      </trkpt>
      <trkpt lat="36.8170100" lon="-4.3591550">
        <ele>892.9</ele>
        <time>2018-03-28T11:22:16Z</time>
      </trkpt>
      <trkpt lat="36.8170100" lon="-4.3591550">
        <ele>892.9</ele>
        <time>2018-03-28T11:22:17Z</time>
      </trkpt>
      <trkpt lat="36.8170420" lon="-4.3592970">
        <ele>892.9</ele>
        <time>2018-03-28T11:22:18Z</time>
      </trkpt>
      <trkpt lat="36.8170530" lon="-4.3593620">
        <ele>892.9</ele>
        <time>2018-03-28T11:22:19Z</time>
      </trkpt>
      <trkpt lat="36.8170530" lon="-4.3593620">
        <ele>892.9</ele>
        <time>2018-03-28T11:22:20Z</time>
      </trkpt>
      <trkpt lat="36.8170880" lon="-4.3594900">
        <ele>892.9</ele>
        <time>2018-03-28T11:22:21Z</time>
      </trkpt>
      <trkpt lat="36.8170960" lon="-4.3595400">
        <ele>892.9</ele>
        <time>2018-03-28T11:22:22Z</time>
      </trkpt>
      <trkpt lat="36.8171030" lon="-4.3595910">
        <ele>892.9</ele>
        <time>2018-03-28T11:22:23Z</time>
      </trkpt>
      <trkpt lat="36.8171180" lon="-4.3596920">
        <ele>892.9</ele>
        <time>2018-03-28T11:22:24Z</time>
      </trkpt>
      <trkpt lat="36.8171300" lon="-4.3597620">
        <ele>892.9</ele>
        <time>2018-03-28T11:22:25Z</time>
      </trkpt>
      <trkpt lat="36.8171300" lon="-4.3597620">
        <ele>893.9</ele>
        <time>2018-03-28T11:22:26Z</time>
      </trkpt>
      <trkpt lat="36.8171530" lon="-4.3598950">
        <ele>893.9</ele>
        <time>2018-03-28T11:22:27Z</time>
      </trkpt>
      <trkpt lat="36.8171620" lon="-4.3599630">
        <ele>893.9</ele>
        <time>2018-03-28T11:22:28Z</time>
      </trkpt>
      <trkpt lat="36.8171620" lon="-4.3599630">
        <ele>893.9</ele>
        <time>2018-03-28T11:22:29Z</time>
      </trkpt>
      <trkpt lat="36.8171670" lon="-4.3600900">
        <ele>894.9</ele>
        <time>2018-03-28T11:22:30Z</time>
      </trkpt>
      <trkpt lat="36.8171670" lon="-4.3600900">
        <ele>894.9</ele>
        <time>2018-03-28T11:22:31Z</time>
      </trkpt>
      <trkpt lat="36.8171720" lon="-4.3602070">
        <ele>894.9</ele>
        <time>2018-03-28T11:22:32Z</time>
      </trkpt>
      <trkpt lat="36.8171720" lon="-4.3602070">
        <ele>894.9</ele>
        <time>2018-03-28T11:22:33Z</time>
      </trkpt>
      <trkpt lat="36.8171580" lon="-4.3603280">
        <ele>894.9</ele>
        <time>2018-03-28T11:22:34Z</time>
      </trkpt>
      <trkpt lat="36.8171580" lon="-4.3603280">
        <ele>894.9</ele>
        <time>2018-03-28T11:22:35Z</time>
      </trkpt>
      <trkpt lat="36.8171140" lon="-4.3604780">
        <ele>895.9</ele>
        <time>2018-03-28T11:22:36Z</time>
      </trkpt>
      <trkpt lat="36.8171030" lon="-4.3605070">
        <ele>895.9</ele>
        <time>2018-03-28T11:22:37Z</time>
      </trkpt>
      <trkpt lat="36.8170800" lon="-4.3605650">
        <ele>895.9</ele>
        <time>2018-03-28T11:22:38Z</time>
      </trkpt>
      <trkpt lat="36.8170800" lon="-4.3605650">
        <ele>895.9</ele>
        <time>2018-03-28T11:22:39Z</time>
      </trkpt>
      <trkpt lat="36.8170120" lon="-4.3607260">
        <ele>895.9</ele>
        <time>2018-03-28T11:22:40Z</time>
      </trkpt>
      <trkpt lat="36.8169990" lon="-4.3607600">
        <ele>896.9</ele>
        <time>2018-03-28T11:22:41Z</time>
      </trkpt>
      <trkpt lat="36.8169730" lon="-4.3608270">
        <ele>896.9</ele>
        <time>2018-03-28T11:22:42Z</time>
      </trkpt>
      <trkpt lat="36.8169730" lon="-4.3608270">
        <ele>896.9</ele>
        <time>2018-03-28T11:22:43Z</time>
      </trkpt>
      <trkpt lat="36.8169280" lon="-4.3609680">
        <ele>896.9</ele>
        <time>2018-03-28T11:22:44Z</time>
      </trkpt>
      <trkpt lat="36.8169280" lon="-4.3609680">
        <ele>896.9</ele>
        <time>2018-03-28T11:22:45Z</time>
      </trkpt>
      <trkpt lat="36.8168800" lon="-4.3611150">
        <ele>896.9</ele>
        <time>2018-03-28T11:22:46Z</time>
      </trkpt>
      <trkpt lat="36.8168800" lon="-4.3611150">
        <ele>896.9</ele>
        <time>2018-03-28T11:22:47Z</time>
      </trkpt>
      <trkpt lat="36.8168450" lon="-4.3612680">
        <ele>896.9</ele>
        <time>2018-03-28T11:22:48Z</time>
      </trkpt>
      <trkpt lat="36.8168270" lon="-4.3613470">
        <ele>896.9</ele>
        <time>2018-03-28T11:22:49Z</time>
      </trkpt>
      <trkpt lat="36.8168270" lon="-4.3613470">
        <ele>896.9</ele>
        <time>2018-03-28T11:22:50Z</time>
      </trkpt>
      <trkpt lat="36.8167830" lon="-4.3614970">
        <ele>896.9</ele>
        <time>2018-03-28T11:22:51Z</time>
      </trkpt>
      <trkpt lat="36.8167830" lon="-4.3614970">
        <ele>896.9</ele>
        <time>2018-03-28T11:22:52Z</time>
      </trkpt>
      <trkpt lat="36.8167450" lon="-4.3616470">
        <ele>896.9</ele>
        <time>2018-03-28T11:22:53Z</time>
      </trkpt>
      <trkpt lat="36.8167270" lon="-4.3617200">
        <ele>896.9</ele>
        <time>2018-03-28T11:22:54Z</time>
      </trkpt>
      <trkpt lat="36.8167080" lon="-4.3617970">
        <ele>896.9</ele>
        <time>2018-03-28T11:22:55Z</time>
      </trkpt>
      <trkpt lat="36.8167080" lon="-4.3617970">
        <ele>896.9</ele>
        <time>2018-03-28T11:22:56Z</time>
      </trkpt>
      <trkpt lat="36.8166630" lon="-4.3619380">
        <ele>895.9</ele>
        <time>2018-03-28T11:22:57Z</time>
      </trkpt>
      <trkpt lat="36.8166630" lon="-4.3619380">
        <ele>895.9</ele>
        <time>2018-03-28T11:22:58Z</time>
      </trkpt>
      <trkpt lat="36.8166220" lon="-4.3620780">
        <ele>895.9</ele>
        <time>2018-03-28T11:22:59Z</time>
      </trkpt>
      <trkpt lat="36.8166220" lon="-4.3620780">
        <ele>895.9</ele>
        <time>2018-03-28T11:23:00Z</time>
      </trkpt>
      <trkpt lat="36.8165850" lon="-4.3622230">
        <ele>895.9</ele>
        <time>2018-03-28T11:23:01Z</time>
      </trkpt>
      <trkpt lat="36.8165850" lon="-4.3622230">
        <ele>895.9</ele>
        <time>2018-03-28T11:23:02Z</time>
      </trkpt>
      <trkpt lat="36.8165450" lon="-4.3623730">
        <ele>895.9</ele>
        <time>2018-03-28T11:23:03Z</time>
      </trkpt>
      <trkpt lat="36.8165270" lon="-4.3624500">
        <ele>895.9</ele>
        <time>2018-03-28T11:23:04Z</time>
      </trkpt>
      <trkpt lat="36.8165270" lon="-4.3624500">
        <ele>895.9</ele>
        <time>2018-03-28T11:23:05Z</time>
      </trkpt>
      <trkpt lat="36.8164950" lon="-4.3626080">
        <ele>895.9</ele>
        <time>2018-03-28T11:23:06Z</time>
      </trkpt>
      <trkpt lat="36.8164800" lon="-4.3626850">
        <ele>895.9</ele>
        <time>2018-03-28T11:23:07Z</time>
      </trkpt>
      <trkpt lat="36.8164800" lon="-4.3626850">
        <ele>895.9</ele>
        <time>2018-03-28T11:23:08Z</time>
      </trkpt>
      <trkpt lat="36.8164500" lon="-4.3628320">
        <ele>895.9</ele>
        <time>2018-03-28T11:23:09Z</time>
      </trkpt>
      <trkpt lat="36.8164370" lon="-4.3629050">
        <ele>895.9</ele>
        <time>2018-03-28T11:23:10Z</time>
      </trkpt>
      <trkpt lat="36.8164220" lon="-4.3629780">
        <ele>895.9</ele>
        <time>2018-03-28T11:23:11Z</time>
      </trkpt>
      <trkpt lat="36.8164070" lon="-4.3630480">
        <ele>895.9</ele>
        <time>2018-03-28T11:23:12Z</time>
      </trkpt>
      <trkpt lat="36.8164070" lon="-4.3630480">
        <ele>895.9</ele>
        <time>2018-03-28T11:23:13Z</time>
      </trkpt>
      <trkpt lat="36.8163770" lon="-4.3631780">
        <ele>895.9</ele>
        <time>2018-03-28T11:23:14Z</time>
      </trkpt>
      <trkpt lat="36.8163770" lon="-4.3631780">
        <ele>895.9</ele>
        <time>2018-03-28T11:23:15Z</time>
      </trkpt>
      <trkpt lat="36.8163400" lon="-4.3632980">
        <ele>895.9</ele>
        <time>2018-03-28T11:23:16Z</time>
      </trkpt>
      <trkpt lat="36.8163400" lon="-4.3632980">
        <ele>895.9</ele>
        <time>2018-03-28T11:23:17Z</time>
      </trkpt>
      <trkpt lat="36.8163000" lon="-4.3634120">
        <ele>895.9</ele>
        <time>2018-03-28T11:23:18Z</time>
      </trkpt>
      <trkpt lat="36.8162770" lon="-4.3634630">
        <ele>896.9</ele>
        <time>2018-03-28T11:23:19Z</time>
      </trkpt>
      <trkpt lat="36.8162770" lon="-4.3634630">
        <ele>896.9</ele>
        <time>2018-03-28T11:23:20Z</time>
      </trkpt>
      <trkpt lat="36.8162200" lon="-4.3635530">
        <ele>896.9</ele>
        <time>2018-03-28T11:23:21Z</time>
      </trkpt>
      <trkpt lat="36.8162200" lon="-4.3635530">
        <ele>896.9</ele>
        <time>2018-03-28T11:23:22Z</time>
      </trkpt>
      <trkpt lat="36.8161700" lon="-4.3636330">
        <ele>897.9</ele>
        <time>2018-03-28T11:23:23Z</time>
      </trkpt>
      <trkpt lat="36.8161500" lon="-4.3636730">
        <ele>897.9</ele>
        <time>2018-03-28T11:23:24Z</time>
      </trkpt>
      <trkpt lat="36.8161500" lon="-4.3636730">
        <ele>897.9</ele>
        <time>2018-03-28T11:23:25Z</time>
      </trkpt>
      <trkpt lat="36.8161030" lon="-4.3637470">
        <ele>897.9</ele>
        <time>2018-03-28T11:23:26Z</time>
      </trkpt>
      <trkpt lat="36.8161030" lon="-4.3637470">
        <ele>897.9</ele>
        <time>2018-03-28T11:23:27Z</time>
      </trkpt>
      <trkpt lat="36.8160470" lon="-4.3638170">
        <ele>898.9</ele>
        <time>2018-03-28T11:23:28Z</time>
      </trkpt>
      <trkpt lat="36.8160200" lon="-4.3638520">
        <ele>898.9</ele>
        <time>2018-03-28T11:23:29Z</time>
      </trkpt>
      <trkpt lat="36.8160200" lon="-4.3638520">
        <ele>898.9</ele>
        <time>2018-03-28T11:23:30Z</time>
      </trkpt>
      <trkpt lat="36.8159730" lon="-4.3639270">
        <ele>898.9</ele>
        <time>2018-03-28T11:23:31Z</time>
      </trkpt>
      <trkpt lat="36.8159500" lon="-4.3639650">
        <ele>899.9</ele>
        <time>2018-03-28T11:23:32Z</time>
      </trkpt>
      <trkpt lat="36.8159500" lon="-4.3639650">
        <ele>899.9</ele>
        <time>2018-03-28T11:23:33Z</time>
      </trkpt>
      <trkpt lat="36.8159050" lon="-4.3640380">
        <ele>899.9</ele>
        <time>2018-03-28T11:23:34Z</time>
      </trkpt>
      <trkpt lat="36.8159050" lon="-4.3640380">
        <ele>899.9</ele>
        <time>2018-03-28T11:23:35Z</time>
      </trkpt>
      <trkpt lat="36.8158460" lon="-4.3641350">
        <ele>899.9</ele>
        <time>2018-03-28T11:23:36Z</time>
      </trkpt>
      <trkpt lat="36.8158340" lon="-4.3641550">
        <ele>900.9</ele>
        <time>2018-03-28T11:23:37Z</time>
      </trkpt>
      <trkpt lat="36.8158100" lon="-4.3641950">
        <ele>900.9</ele>
        <time>2018-03-28T11:23:38Z</time>
      </trkpt>
      <trkpt lat="36.8157850" lon="-4.3642330">
        <ele>900.9</ele>
        <time>2018-03-28T11:23:39Z</time>
      </trkpt>
      <trkpt lat="36.8157850" lon="-4.3642330">
        <ele>900.9</ele>
        <time>2018-03-28T11:23:40Z</time>
      </trkpt>
      <trkpt lat="36.8157430" lon="-4.3643080">
        <ele>900.9</ele>
        <time>2018-03-28T11:23:41Z</time>
      </trkpt>
      <trkpt lat="36.8157230" lon="-4.3643430">
        <ele>900.9</ele>
        <time>2018-03-28T11:23:42Z</time>
      </trkpt>
      <trkpt lat="36.8157230" lon="-4.3643430">
        <ele>900.9</ele>
        <time>2018-03-28T11:23:43Z</time>
      </trkpt>
      <trkpt lat="36.8156800" lon="-4.3644070">
        <ele>900.9</ele>
        <time>2018-03-28T11:23:44Z</time>
      </trkpt>
      <trkpt lat="36.8156800" lon="-4.3644070">
        <ele>901.9</ele>
        <time>2018-03-28T11:23:45Z</time>
      </trkpt>
      <trkpt lat="36.8156450" lon="-4.3644700">
        <ele>901.9</ele>
        <time>2018-03-28T11:23:46Z</time>
      </trkpt>
      <trkpt lat="36.8156450" lon="-4.3644700">
        <ele>901.9</ele>
        <time>2018-03-28T11:23:47Z</time>
      </trkpt>
      <trkpt lat="36.8156020" lon="-4.3645370">
        <ele>901.9</ele>
        <time>2018-03-28T11:23:48Z</time>
      </trkpt>
      <trkpt lat="36.8155820" lon="-4.3645670">
        <ele>901.9</ele>
        <time>2018-03-28T11:23:49Z</time>
      </trkpt>
      <trkpt lat="36.8155820" lon="-4.3645670">
        <ele>902.9</ele>
        <time>2018-03-28T11:23:50Z</time>
      </trkpt>
      <trkpt lat="36.8155320" lon="-4.3646220">
        <ele>902.9</ele>
        <time>2018-03-28T11:23:51Z</time>
      </trkpt>
      <trkpt lat="36.8155320" lon="-4.3646220">
        <ele>902.9</ele>
        <time>2018-03-28T11:23:52Z</time>
      </trkpt>
      <trkpt lat="36.8154780" lon="-4.3646820">
        <ele>902.9</ele>
        <time>2018-03-28T11:23:53Z</time>
      </trkpt>
      <trkpt lat="36.8154530" lon="-4.3647150">
        <ele>903.9</ele>
        <time>2018-03-28T11:23:54Z</time>
      </trkpt>
      <trkpt lat="36.8154530" lon="-4.3647150">
        <ele>903.9</ele>
        <time>2018-03-28T11:23:55Z</time>
      </trkpt>
      <trkpt lat="36.8154050" lon="-4.3647770">
        <ele>903.9</ele>
        <time>2018-03-28T11:23:56Z</time>
      </trkpt>
      <trkpt lat="36.8154050" lon="-4.3647770">
        <ele>903.9</ele>
        <time>2018-03-28T11:23:57Z</time>
      </trkpt>
      <trkpt lat="36.8153600" lon="-4.3648300">
        <ele>904.9</ele>
        <time>2018-03-28T11:23:58Z</time>
      </trkpt>
      <trkpt lat="36.8153370" lon="-4.3648530">
        <ele>904.9</ele>
        <time>2018-03-28T11:23:59Z</time>
      </trkpt>
      <trkpt lat="36.8153370" lon="-4.3648530">
        <ele>904.9</ele>
        <time>2018-03-28T11:24:00Z</time>
      </trkpt>
      <trkpt lat="36.8152870" lon="-4.3648980">
        <ele>904.9</ele>
        <time>2018-03-28T11:24:01Z</time>
      </trkpt>
      <trkpt lat="36.8152630" lon="-4.3649200">
        <ele>904.9</ele>
        <time>2018-03-28T11:24:02Z</time>
      </trkpt>
      <trkpt lat="36.8152630" lon="-4.3649200">
        <ele>904.9</ele>
        <time>2018-03-28T11:24:03Z</time>
      </trkpt>
      <trkpt lat="36.8152320" lon="-4.3649700">
        <ele>904.9</ele>
        <time>2018-03-28T11:24:04Z</time>
      </trkpt>
      <trkpt lat="36.8152320" lon="-4.3649700">
        <ele>904.9</ele>
        <time>2018-03-28T11:24:05Z</time>
      </trkpt>
      <trkpt lat="36.8151980" lon="-4.3650220">
        <ele>904.9</ele>
        <time>2018-03-28T11:24:06Z</time>
      </trkpt>
      <trkpt lat="36.8151980" lon="-4.3650220">
        <ele>905.9</ele>
        <time>2018-03-28T11:24:07Z</time>
      </trkpt>
      <trkpt lat="36.8151600" lon="-4.3650750">
        <ele>905.9</ele>
        <time>2018-03-28T11:24:08Z</time>
      </trkpt>
      <trkpt lat="36.8151600" lon="-4.3650750">
        <ele>905.9</ele>
        <time>2018-03-28T11:24:09Z</time>
      </trkpt>
      <trkpt lat="36.8151230" lon="-4.3651230">
        <ele>905.9</ele>
        <time>2018-03-28T11:24:10Z</time>
      </trkpt>
      <trkpt lat="36.8151230" lon="-4.3651230">
        <ele>905.9</ele>
        <time>2018-03-28T11:24:11Z</time>
      </trkpt>
      <trkpt lat="36.8150830" lon="-4.3651700">
        <ele>905.9</ele>
        <time>2018-03-28T11:24:12Z</time>
      </trkpt>
      <trkpt lat="36.8150830" lon="-4.3651700">
        <ele>905.9</ele>
        <time>2018-03-28T11:24:13Z</time>
      </trkpt>
      <trkpt lat="36.8150420" lon="-4.3652220">
        <ele>905.9</ele>
        <time>2018-03-28T11:24:14Z</time>
      </trkpt>
      <trkpt lat="36.8150420" lon="-4.3652220">
        <ele>906.9</ele>
        <time>2018-03-28T11:24:15Z</time>
      </trkpt>
      <trkpt lat="36.8149950" lon="-4.3652730">
        <ele>906.9</ele>
        <time>2018-03-28T11:24:16Z</time>
      </trkpt>
      <trkpt lat="36.8149950" lon="-4.3652730">
        <ele>906.9</ele>
        <time>2018-03-28T11:24:17Z</time>
      </trkpt>
      <trkpt lat="36.8149550" lon="-4.3653370">
        <ele>906.9</ele>
        <time>2018-03-28T11:24:18Z</time>
      </trkpt>
      <trkpt lat="36.8149350" lon="-4.3653630">
        <ele>906.9</ele>
        <time>2018-03-28T11:24:19Z</time>
      </trkpt>
      <trkpt lat="36.8149350" lon="-4.3653630">
        <ele>906.9</ele>
        <time>2018-03-28T11:24:20Z</time>
      </trkpt>
      <trkpt lat="36.8148870" lon="-4.3654200">
        <ele>906.9</ele>
        <time>2018-03-28T11:24:21Z</time>
      </trkpt>
      <trkpt lat="36.8148870" lon="-4.3654200">
        <ele>906.9</ele>
        <time>2018-03-28T11:24:22Z</time>
      </trkpt>
      <trkpt lat="36.8148380" lon="-4.3654800">
        <ele>907.9</ele>
        <time>2018-03-28T11:24:23Z</time>
      </trkpt>
      <trkpt lat="36.8148130" lon="-4.3655120">
        <ele>907.9</ele>
        <time>2018-03-28T11:24:24Z</time>
      </trkpt>
      <trkpt lat="36.8147880" lon="-4.3655420">
        <ele>907.9</ele>
        <time>2018-03-28T11:24:25Z</time>
      </trkpt>
      <trkpt lat="36.8147880" lon="-4.3655420">
        <ele>907.9</ele>
        <time>2018-03-28T11:24:26Z</time>
      </trkpt>
      <trkpt lat="36.8147430" lon="-4.3656030">
        <ele>907.9</ele>
        <time>2018-03-28T11:24:27Z</time>
      </trkpt>
      <trkpt lat="36.8147430" lon="-4.3656030">
        <ele>907.9</ele>
        <time>2018-03-28T11:24:28Z</time>
      </trkpt>
      <trkpt lat="36.8146950" lon="-4.3656680">
        <ele>908.9</ele>
        <time>2018-03-28T11:24:29Z</time>
      </trkpt>
      <trkpt lat="36.8146750" lon="-4.3657000">
        <ele>908.9</ele>
        <time>2018-03-28T11:24:30Z</time>
      </trkpt>
      <trkpt lat="36.8146570" lon="-4.3657330">
        <ele>908.9</ele>
        <time>2018-03-28T11:24:31Z</time>
      </trkpt>
      <trkpt lat="36.8146570" lon="-4.3657330">
        <ele>908.9</ele>
        <time>2018-03-28T11:24:32Z</time>
      </trkpt>
      <trkpt lat="36.8146020" lon="-4.3658190">
        <ele>908.9</ele>
        <time>2018-03-28T11:24:33Z</time>
      </trkpt>
      <trkpt lat="36.8145920" lon="-4.3658370">
        <ele>909.9</ele>
        <time>2018-03-28T11:24:34Z</time>
      </trkpt>
      <trkpt lat="36.8145920" lon="-4.3658370">
        <ele>909.9</ele>
        <time>2018-03-28T11:24:35Z</time>
      </trkpt>
      <trkpt lat="36.8145530" lon="-4.3659100">
        <ele>909.9</ele>
        <time>2018-03-28T11:24:36Z</time>
      </trkpt>
      <trkpt lat="36.8145530" lon="-4.3659100">
        <ele>909.9</ele>
        <time>2018-03-28T11:24:37Z</time>
      </trkpt>
      <trkpt lat="36.8145100" lon="-4.3659780">
        <ele>909.9</ele>
        <time>2018-03-28T11:24:38Z</time>
      </trkpt>
      <trkpt lat="36.8145100" lon="-4.3659780">
        <ele>909.9</ele>
        <time>2018-03-28T11:24:39Z</time>
      </trkpt>
      <trkpt lat="36.8144730" lon="-4.3660470">
        <ele>910.9</ele>
        <time>2018-03-28T11:24:40Z</time>
      </trkpt>
      <trkpt lat="36.8144730" lon="-4.3660470">
        <ele>910.9</ele>
        <time>2018-03-28T11:24:41Z</time>
      </trkpt>
      <trkpt lat="36.8144370" lon="-4.3661100">
        <ele>910.9</ele>
        <time>2018-03-28T11:24:42Z</time>
      </trkpt>
      <trkpt lat="36.8144200" lon="-4.3661450">
        <ele>910.9</ele>
        <time>2018-03-28T11:24:43Z</time>
      </trkpt>
      <trkpt lat="36.8144200" lon="-4.3661450">
        <ele>910.9</ele>
        <time>2018-03-28T11:24:44Z</time>
      </trkpt>
      <trkpt lat="36.8143950" lon="-4.3662080">
        <ele>910.9</ele>
        <time>2018-03-28T11:24:45Z</time>
      </trkpt>
      <trkpt lat="36.8143950" lon="-4.3662080">
        <ele>910.9</ele>
        <time>2018-03-28T11:24:46Z</time>
      </trkpt>
      <trkpt lat="36.8143730" lon="-4.3662700">
        <ele>910.9</ele>
        <time>2018-03-28T11:24:47Z</time>
      </trkpt>
      <trkpt lat="36.8143730" lon="-4.3662700">
        <ele>910.9</ele>
        <time>2018-03-28T11:24:48Z</time>
      </trkpt>
      <trkpt lat="36.8143520" lon="-4.3663380">
        <ele>910.9</ele>
        <time>2018-03-28T11:24:49Z</time>
      </trkpt>
      <trkpt lat="36.8143520" lon="-4.3663380">
        <ele>910.9</ele>
        <time>2018-03-28T11:24:50Z</time>
      </trkpt>
      <trkpt lat="36.8143250" lon="-4.3664050">
        <ele>910.9</ele>
        <time>2018-03-28T11:24:51Z</time>
      </trkpt>
      <trkpt lat="36.8143050" lon="-4.3664380">
        <ele>910.9</ele>
        <time>2018-03-28T11:24:52Z</time>
      </trkpt>
      <trkpt lat="36.8143050" lon="-4.3664380">
        <ele>910.9</ele>
        <time>2018-03-28T11:24:53Z</time>
      </trkpt>
      <trkpt lat="36.8142700" lon="-4.3664970">
        <ele>911.9</ele>
        <time>2018-03-28T11:24:54Z</time>
      </trkpt>
      <trkpt lat="36.8142450" lon="-4.3665230">
        <ele>911.9</ele>
        <time>2018-03-28T11:24:55Z</time>
      </trkpt>
      <trkpt lat="36.8142450" lon="-4.3665230">
        <ele>911.9</ele>
        <time>2018-03-28T11:24:56Z</time>
      </trkpt>
      <trkpt lat="36.8142070" lon="-4.3665770">
        <ele>911.9</ele>
        <time>2018-03-28T11:24:57Z</time>
      </trkpt>
      <trkpt lat="36.8142070" lon="-4.3665770">
        <ele>911.9</ele>
        <time>2018-03-28T11:24:58Z</time>
      </trkpt>
      <trkpt lat="36.8141550" lon="-4.3666150">
        <ele>911.9</ele>
        <time>2018-03-28T11:24:59Z</time>
      </trkpt>
      <trkpt lat="36.8141320" lon="-4.3666320">
        <ele>913.9</ele>
        <time>2018-03-28T11:25:00Z</time>
      </trkpt>
      <trkpt lat="36.8141070" lon="-4.3666500">
        <ele>913.9</ele>
        <time>2018-03-28T11:25:01Z</time>
      </trkpt>
      <trkpt lat="36.8141070" lon="-4.3666500">
        <ele>913.9</ele>
        <time>2018-03-28T11:25:02Z</time>
      </trkpt>
      <trkpt lat="36.8140430" lon="-4.3666800">
        <ele>913.9</ele>
        <time>2018-03-28T11:25:03Z</time>
      </trkpt>
      <trkpt lat="36.8140080" lon="-4.3666970">
        <ele>913.9</ele>
        <time>2018-03-28T11:25:04Z</time>
      </trkpt>
      <trkpt lat="36.8140080" lon="-4.3666970">
        <ele>913.9</ele>
        <time>2018-03-28T11:25:05Z</time>
      </trkpt>
      <trkpt lat="36.8139380" lon="-4.3667250">
        <ele>913.9</ele>
        <time>2018-03-28T11:25:06Z</time>
      </trkpt>
      <trkpt lat="36.8139050" lon="-4.3667380">
        <ele>913.9</ele>
        <time>2018-03-28T11:25:07Z</time>
      </trkpt>
      <trkpt lat="36.8139050" lon="-4.3667380">
        <ele>913.9</ele>
        <time>2018-03-28T11:25:08Z</time>
      </trkpt>
      <trkpt lat="36.8138370" lon="-4.3667670">
        <ele>913.9</ele>
        <time>2018-03-28T11:25:09Z</time>
      </trkpt>
      <trkpt lat="36.8138370" lon="-4.3667670">
        <ele>913.9</ele>
        <time>2018-03-28T11:25:10Z</time>
      </trkpt>
      <trkpt lat="36.8137730" lon="-4.3668000">
        <ele>913.9</ele>
        <time>2018-03-28T11:25:11Z</time>
      </trkpt>
      <trkpt lat="36.8137730" lon="-4.3668000">
        <ele>913.9</ele>
        <time>2018-03-28T11:25:12Z</time>
      </trkpt>
      <trkpt lat="36.8137120" lon="-4.3668400">
        <ele>913.9</ele>
        <time>2018-03-28T11:25:13Z</time>
      </trkpt>
      <trkpt lat="36.8137120" lon="-4.3668400">
        <ele>913.9</ele>
        <time>2018-03-28T11:25:14Z</time>
      </trkpt>
      <trkpt lat="36.8136450" lon="-4.3668850">
        <ele>913.9</ele>
        <time>2018-03-28T11:25:15Z</time>
      </trkpt>
      <trkpt lat="36.8136170" lon="-4.3669080">
        <ele>913.9</ele>
        <time>2018-03-28T11:25:16Z</time>
      </trkpt>
      <trkpt lat="36.8136170" lon="-4.3669080">
        <ele>913.9</ele>
        <time>2018-03-28T11:25:17Z</time>
      </trkpt>
      <trkpt lat="36.8135620" lon="-4.3669530">
        <ele>913.9</ele>
        <time>2018-03-28T11:25:18Z</time>
      </trkpt>
      <trkpt lat="36.8135400" lon="-4.3669850">
        <ele>913.9</ele>
        <time>2018-03-28T11:25:19Z</time>
      </trkpt>
      <trkpt lat="36.8135400" lon="-4.3669850">
        <ele>914.9</ele>
        <time>2018-03-28T11:25:20Z</time>
      </trkpt>
      <trkpt lat="36.8134950" lon="-4.3670270">
        <ele>914.9</ele>
        <time>2018-03-28T11:25:21Z</time>
      </trkpt>
      <trkpt lat="36.8134950" lon="-4.3670270">
        <ele>914.9</ele>
        <time>2018-03-28T11:25:22Z</time>
      </trkpt>
      <trkpt lat="36.8134430" lon="-4.3670730">
        <ele>914.9</ele>
        <time>2018-03-28T11:25:23Z</time>
      </trkpt>
      <trkpt lat="36.8133990" lon="-4.3671110">
        <ele>914.9</ele>
        <time>2018-03-28T11:25:24Z</time>
      </trkpt>
      <trkpt lat="36.8133850" lon="-4.3671250">
        <ele>916.9</ele>
        <time>2018-03-28T11:25:25Z</time>
      </trkpt>
      <trkpt lat="36.8133850" lon="-4.3671250">
        <ele>916.9</ele>
        <time>2018-03-28T11:25:26Z</time>
      </trkpt>
      <trkpt lat="36.8133220" lon="-4.3671780">
        <ele>916.9</ele>
        <time>2018-03-28T11:25:27Z</time>
      </trkpt>
      <trkpt lat="36.8132880" lon="-4.3672050">
        <ele>916.9</ele>
        <time>2018-03-28T11:25:28Z</time>
      </trkpt>
      <trkpt lat="36.8132880" lon="-4.3672050">
        <ele>916.9</ele>
        <time>2018-03-28T11:25:29Z</time>
      </trkpt>
      <trkpt lat="36.8132280" lon="-4.3672580">
        <ele>917.9</ele>
        <time>2018-03-28T11:25:30Z</time>
      </trkpt>
      <trkpt lat="36.8132020" lon="-4.3672880">
        <ele>917.9</ele>
        <time>2018-03-28T11:25:31Z</time>
      </trkpt>
      <trkpt lat="36.8132020" lon="-4.3672880">
        <ele>917.9</ele>
        <time>2018-03-28T11:25:32Z</time>
      </trkpt>
      <trkpt lat="36.8131350" lon="-4.3673370">
        <ele>917.9</ele>
        <time>2018-03-28T11:25:33Z</time>
      </trkpt>
      <trkpt lat="36.8131350" lon="-4.3673370">
        <ele>917.9</ele>
        <time>2018-03-28T11:25:34Z</time>
      </trkpt>
      <trkpt lat="36.8130650" lon="-4.3673820">
        <ele>917.9</ele>
        <time>2018-03-28T11:25:35Z</time>
      </trkpt>
      <trkpt lat="36.8130650" lon="-4.3673820">
        <ele>917.9</ele>
        <time>2018-03-28T11:25:36Z</time>
      </trkpt>
      <trkpt lat="36.8130080" lon="-4.3674330">
        <ele>917.9</ele>
        <time>2018-03-28T11:25:37Z</time>
      </trkpt>
      <trkpt lat="36.8130080" lon="-4.3674330">
        <ele>917.9</ele>
        <time>2018-03-28T11:25:38Z</time>
      </trkpt>
      <trkpt lat="36.8129430" lon="-4.3674970">
        <ele>917.9</ele>
        <time>2018-03-28T11:25:39Z</time>
      </trkpt>
      <trkpt lat="36.8129430" lon="-4.3674970">
        <ele>917.9</ele>
        <time>2018-03-28T11:25:40Z</time>
      </trkpt>
      <trkpt lat="36.8128700" lon="-4.3675700">
        <ele>917.9</ele>
        <time>2018-03-28T11:25:41Z</time>
      </trkpt>
      <trkpt lat="36.8128700" lon="-4.3675700">
        <ele>917.9</ele>
        <time>2018-03-28T11:25:42Z</time>
      </trkpt>
      <trkpt lat="36.8127980" lon="-4.3676480">
        <ele>917.9</ele>
        <time>2018-03-28T11:25:43Z</time>
      </trkpt>
      <trkpt lat="36.8127980" lon="-4.3676480">
        <ele>917.9</ele>
        <time>2018-03-28T11:25:44Z</time>
      </trkpt>
      <trkpt lat="36.8127280" lon="-4.3677330">
        <ele>917.9</ele>
        <time>2018-03-28T11:25:45Z</time>
      </trkpt>
      <trkpt lat="36.8126970" lon="-4.3677780">
        <ele>918.9</ele>
        <time>2018-03-28T11:25:46Z</time>
      </trkpt>
      <trkpt lat="36.8126660" lon="-4.3678260">
        <ele>918.9</ele>
        <time>2018-03-28T11:25:47Z</time>
      </trkpt>
      <trkpt lat="36.8126350" lon="-4.3678730">
        <ele>918.9</ele>
        <time>2018-03-28T11:25:48Z</time>
      </trkpt>
      <trkpt lat="36.8126120" lon="-4.3679250">
        <ele>918.9</ele>
        <time>2018-03-28T11:25:49Z</time>
      </trkpt>
      <trkpt lat="36.8126120" lon="-4.3679250">
        <ele>918.9</ele>
        <time>2018-03-28T11:25:50Z</time>
      </trkpt>
      <trkpt lat="36.8125700" lon="-4.3680280">
        <ele>918.9</ele>
        <time>2018-03-28T11:25:51Z</time>
      </trkpt>
      <trkpt lat="36.8125700" lon="-4.3680280">
        <ele>918.9</ele>
        <time>2018-03-28T11:25:52Z</time>
      </trkpt>
      <trkpt lat="36.8125230" lon="-4.3681280">
        <ele>918.9</ele>
        <time>2018-03-28T11:25:53Z</time>
      </trkpt>
      <trkpt lat="36.8125230" lon="-4.3681280">
        <ele>918.9</ele>
        <time>2018-03-28T11:25:54Z</time>
      </trkpt>
      <trkpt lat="36.8124850" lon="-4.3682300">
        <ele>918.9</ele>
        <time>2018-03-28T11:25:55Z</time>
      </trkpt>
      <trkpt lat="36.8124850" lon="-4.3682300">
        <ele>918.9</ele>
        <time>2018-03-28T11:25:56Z</time>
      </trkpt>
      <trkpt lat="36.8124480" lon="-4.3683230">
        <ele>919.9</ele>
        <time>2018-03-28T11:25:57Z</time>
      </trkpt>
      <trkpt lat="36.8124480" lon="-4.3683230">
        <ele>919.9</ele>
        <time>2018-03-28T11:25:58Z</time>
      </trkpt>
      <trkpt lat="36.8124000" lon="-4.3684180">
        <ele>919.9</ele>
        <time>2018-03-28T11:25:59Z</time>
      </trkpt>
      <trkpt lat="36.8124000" lon="-4.3684180">
        <ele>919.9</ele>
        <time>2018-03-28T11:26:00Z</time>
      </trkpt>
      <trkpt lat="36.8123500" lon="-4.3685200">
        <ele>919.9</ele>
        <time>2018-03-28T11:26:01Z</time>
      </trkpt>
      <trkpt lat="36.8123300" lon="-4.3685720">
        <ele>919.9</ele>
        <time>2018-03-28T11:26:02Z</time>
      </trkpt>
      <trkpt lat="36.8123300" lon="-4.3685720">
        <ele>919.9</ele>
        <time>2018-03-28T11:26:03Z</time>
      </trkpt>
      <trkpt lat="36.8122870" lon="-4.3686680">
        <ele>920.9</ele>
        <time>2018-03-28T11:26:04Z</time>
      </trkpt>
      <trkpt lat="36.8122630" lon="-4.3687150">
        <ele>920.9</ele>
        <time>2018-03-28T11:26:05Z</time>
      </trkpt>
      <trkpt lat="36.8122630" lon="-4.3687150">
        <ele>920.9</ele>
        <time>2018-03-28T11:26:06Z</time>
      </trkpt>
      <trkpt lat="36.8121970" lon="-4.3687930">
        <ele>920.9</ele>
        <time>2018-03-28T11:26:07Z</time>
      </trkpt>
      <trkpt lat="36.8121550" lon="-4.3688270">
        <ele>920.9</ele>
        <time>2018-03-28T11:26:08Z</time>
      </trkpt>
      <trkpt lat="36.8121550" lon="-4.3688270">
        <ele>920.9</ele>
        <time>2018-03-28T11:26:09Z</time>
      </trkpt>
      <trkpt lat="36.8120680" lon="-4.3688850">
        <ele>920.9</ele>
        <time>2018-03-28T11:26:10Z</time>
      </trkpt>
      <trkpt lat="36.8120680" lon="-4.3688850">
        <ele>920.9</ele>
        <time>2018-03-28T11:26:11Z</time>
      </trkpt>
      <trkpt lat="36.8119820" lon="-4.3689150">
        <ele>920.9</ele>
        <time>2018-03-28T11:26:12Z</time>
      </trkpt>
      <trkpt lat="36.8119330" lon="-4.3689250">
        <ele>920.9</ele>
        <time>2018-03-28T11:26:13Z</time>
      </trkpt>
      <trkpt lat="36.8119330" lon="-4.3689250">
        <ele>920.9</ele>
        <time>2018-03-28T11:26:14Z</time>
      </trkpt>
      <trkpt lat="36.8118380" lon="-4.3689500">
        <ele>920.9</ele>
        <time>2018-03-28T11:26:15Z</time>
      </trkpt>
      <trkpt lat="36.8118380" lon="-4.3689500">
        <ele>920.9</ele>
        <time>2018-03-28T11:26:16Z</time>
      </trkpt>
      <trkpt lat="36.8117380" lon="-4.3689700">
        <ele>920.9</ele>
        <time>2018-03-28T11:26:17Z</time>
      </trkpt>
      <trkpt lat="36.8116880" lon="-4.3689850">
        <ele>920.9</ele>
        <time>2018-03-28T11:26:18Z</time>
      </trkpt>
      <trkpt lat="36.8116880" lon="-4.3689850">
        <ele>920.9</ele>
        <time>2018-03-28T11:26:19Z</time>
      </trkpt>
      <trkpt lat="36.8116000" lon="-4.3690400">
        <ele>920.9</ele>
        <time>2018-03-28T11:26:20Z</time>
      </trkpt>
      <trkpt lat="36.8116000" lon="-4.3690400">
        <ele>919.9</ele>
        <time>2018-03-28T11:26:21Z</time>
      </trkpt>
      <trkpt lat="36.8115050" lon="-4.3691200">
        <ele>919.9</ele>
        <time>2018-03-28T11:26:22Z</time>
      </trkpt>
      <trkpt lat="36.8115050" lon="-4.3691200">
        <ele>919.9</ele>
        <time>2018-03-28T11:26:23Z</time>
      </trkpt>
      <trkpt lat="36.8114430" lon="-4.3692480">
        <ele>919.9</ele>
        <time>2018-03-28T11:26:24Z</time>
      </trkpt>
      <trkpt lat="36.8114280" lon="-4.3693220">
        <ele>918.9</ele>
        <time>2018-03-28T11:26:25Z</time>
      </trkpt>
      <trkpt lat="36.8114280" lon="-4.3693220">
        <ele>918.9</ele>
        <time>2018-03-28T11:26:26Z</time>
      </trkpt>
      <trkpt lat="36.8114050" lon="-4.3694630">
        <ele>918.9</ele>
        <time>2018-03-28T11:26:27Z</time>
      </trkpt>
      <trkpt lat="36.8114020" lon="-4.3694980">
        <ele>918.9</ele>
        <time>2018-03-28T11:26:28Z</time>
      </trkpt>
      <trkpt lat="36.8113990" lon="-4.3695330">
        <ele>918.9</ele>
        <time>2018-03-28T11:26:29Z</time>
      </trkpt>
      <trkpt lat="36.8113920" lon="-4.3696030">
        <ele>917.9</ele>
        <time>2018-03-28T11:26:30Z</time>
      </trkpt>
      <trkpt lat="36.8113870" lon="-4.3697520">
        <ele>917.9</ele>
        <time>2018-03-28T11:26:31Z</time>
      </trkpt>
      <trkpt lat="36.8113870" lon="-4.3697520">
        <ele>917.9</ele>
        <time>2018-03-28T11:26:32Z</time>
      </trkpt>
      <trkpt lat="36.8113900" lon="-4.3699070">
        <ele>917.9</ele>
        <time>2018-03-28T11:26:33Z</time>
      </trkpt>
      <trkpt lat="36.8113950" lon="-4.3699850">
        <ele>917.9</ele>
        <time>2018-03-28T11:26:34Z</time>
      </trkpt>
      <trkpt lat="36.8113950" lon="-4.3699850">
        <ele>917.9</ele>
        <time>2018-03-28T11:26:35Z</time>
      </trkpt>
      <trkpt lat="36.8114280" lon="-4.3701430">
        <ele>917.9</ele>
        <time>2018-03-28T11:26:36Z</time>
      </trkpt>
      <trkpt lat="36.8114520" lon="-4.3702230">
        <ele>917.9</ele>
        <time>2018-03-28T11:26:37Z</time>
      </trkpt>
      <trkpt lat="36.8114520" lon="-4.3702230">
        <ele>917.9</ele>
        <time>2018-03-28T11:26:38Z</time>
      </trkpt>
      <trkpt lat="36.8115200" lon="-4.3703800">
        <ele>917.9</ele>
        <time>2018-03-28T11:26:39Z</time>
      </trkpt>
      <trkpt lat="36.8115200" lon="-4.3703800">
        <ele>916.9</ele>
        <time>2018-03-28T11:26:40Z</time>
      </trkpt>
      <trkpt lat="36.8115780" lon="-4.3705420">
        <ele>916.9</ele>
        <time>2018-03-28T11:26:41Z</time>
      </trkpt>
      <trkpt lat="36.8115780" lon="-4.3705420">
        <ele>916.9</ele>
        <time>2018-03-28T11:26:42Z</time>
      </trkpt>
      <trkpt lat="36.8115800" lon="-4.3707120">
        <ele>916.9</ele>
        <time>2018-03-28T11:26:43Z</time>
      </trkpt>
      <trkpt lat="36.8115800" lon="-4.3707120">
        <ele>916.9</ele>
        <time>2018-03-28T11:26:44Z</time>
      </trkpt>
      <trkpt lat="36.8115220" lon="-4.3708620">
        <ele>916.9</ele>
        <time>2018-03-28T11:26:45Z</time>
      </trkpt>
      <trkpt lat="36.8115220" lon="-4.3708620">
        <ele>916.9</ele>
        <time>2018-03-28T11:26:46Z</time>
      </trkpt>
      <trkpt lat="36.8114500" lon="-4.3709950">
        <ele>916.9</ele>
        <time>2018-03-28T11:26:47Z</time>
      </trkpt>
      <trkpt lat="36.8114500" lon="-4.3709950">
        <ele>916.9</ele>
        <time>2018-03-28T11:26:48Z</time>
      </trkpt>
      <trkpt lat="36.8113980" lon="-4.3711370">
        <ele>916.9</ele>
        <time>2018-03-28T11:26:49Z</time>
      </trkpt>
      <trkpt lat="36.8113980" lon="-4.3711370">
        <ele>915.9</ele>
        <time>2018-03-28T11:26:50Z</time>
      </trkpt>
      <trkpt lat="36.8113820" lon="-4.3712880">
        <ele>915.9</ele>
        <time>2018-03-28T11:26:51Z</time>
      </trkpt>
      <trkpt lat="36.8113820" lon="-4.3712880">
        <ele>915.9</ele>
        <time>2018-03-28T11:26:52Z</time>
      </trkpt>
      <trkpt lat="36.8114330" lon="-4.3714320">
        <ele>915.9</ele>
        <time>2018-03-28T11:26:53Z</time>
      </trkpt>
      <trkpt lat="36.8114800" lon="-4.3714880">
        <ele>915.9</ele>
        <time>2018-03-28T11:26:54Z</time>
      </trkpt>
      <trkpt lat="36.8115380" lon="-4.3715330">
        <ele>915.9</ele>
        <time>2018-03-28T11:26:55Z</time>
      </trkpt>
      <trkpt lat="36.8115380" lon="-4.3715330">
        <ele>915.9</ele>
        <time>2018-03-28T11:26:56Z</time>
      </trkpt>
      <trkpt lat="36.8116670" lon="-4.3715920">
        <ele>915.9</ele>
        <time>2018-03-28T11:26:57Z</time>
      </trkpt>
      <trkpt lat="36.8116670" lon="-4.3715920">
        <ele>915.9</ele>
        <time>2018-03-28T11:26:58Z</time>
      </trkpt>
      <trkpt lat="36.8118100" lon="-4.3716250">
        <ele>915.9</ele>
        <time>2018-03-28T11:26:59Z</time>
      </trkpt>
      <trkpt lat="36.8118100" lon="-4.3716250">
        <ele>915.9</ele>
        <time>2018-03-28T11:27:00Z</time>
      </trkpt>
      <trkpt lat="36.8119580" lon="-4.3716370">
        <ele>914.9</ele>
        <time>2018-03-28T11:27:01Z</time>
      </trkpt>
      <trkpt lat="36.8119580" lon="-4.3716370">
        <ele>914.9</ele>
        <time>2018-03-28T11:27:02Z</time>
      </trkpt>
      <trkpt lat="36.8121070" lon="-4.3716420">
        <ele>914.9</ele>
        <time>2018-03-28T11:27:03Z</time>
      </trkpt>
      <trkpt lat="36.8121070" lon="-4.3716420">
        <ele>914.9</ele>
        <time>2018-03-28T11:27:04Z</time>
      </trkpt>
      <trkpt lat="36.8122600" lon="-4.3716630">
        <ele>914.9</ele>
        <time>2018-03-28T11:27:05Z</time>
      </trkpt>
      <trkpt lat="36.8122600" lon="-4.3716630">
        <ele>914.9</ele>
        <time>2018-03-28T11:27:06Z</time>
      </trkpt>
      <trkpt lat="36.8124120" lon="-4.3716920">
        <ele>914.9</ele>
        <time>2018-03-28T11:27:07Z</time>
      </trkpt>
      <trkpt lat="36.8124120" lon="-4.3716920">
        <ele>914.9</ele>
        <time>2018-03-28T11:27:08Z</time>
      </trkpt>
      <trkpt lat="36.8125580" lon="-4.3717220">
        <ele>914.9</ele>
        <time>2018-03-28T11:27:09Z</time>
      </trkpt>
      <trkpt lat="36.8126300" lon="-4.3717450">
        <ele>914.9</ele>
        <time>2018-03-28T11:27:10Z</time>
      </trkpt>
      <trkpt lat="36.8126300" lon="-4.3717450">
        <ele>914.9</ele>
        <time>2018-03-28T11:27:11Z</time>
      </trkpt>
      <trkpt lat="36.8127700" lon="-4.3717950">
        <ele>914.9</ele>
        <time>2018-03-28T11:27:12Z</time>
      </trkpt>
      <trkpt lat="36.8128380" lon="-4.3718350">
        <ele>914.9</ele>
        <time>2018-03-28T11:27:13Z</time>
      </trkpt>
      <trkpt lat="36.8129020" lon="-4.3718950">
        <ele>913.9</ele>
        <time>2018-03-28T11:27:14Z</time>
      </trkpt>
      <trkpt lat="36.8129020" lon="-4.3718950">
        <ele>913.9</ele>
        <time>2018-03-28T11:27:15Z</time>
      </trkpt>
      <trkpt lat="36.8129980" lon="-4.3720520">
        <ele>913.9</ele>
        <time>2018-03-28T11:27:16Z</time>
      </trkpt>
      <trkpt lat="36.8129980" lon="-4.3720520">
        <ele>913.9</ele>
        <time>2018-03-28T11:27:17Z</time>
      </trkpt>
      <trkpt lat="36.8130320" lon="-4.3722620">
        <ele>912.9</ele>
        <time>2018-03-28T11:27:18Z</time>
      </trkpt>
      <trkpt lat="36.8130170" lon="-4.3723770">
        <ele>912.9</ele>
        <time>2018-03-28T11:27:19Z</time>
      </trkpt>
      <trkpt lat="36.8130170" lon="-4.3723770">
        <ele>911.9</ele>
        <time>2018-03-28T11:27:20Z</time>
      </trkpt>
      <trkpt lat="36.8129120" lon="-4.3725930">
        <ele>911.9</ele>
        <time>2018-03-28T11:27:21Z</time>
      </trkpt>
      <trkpt lat="36.8129120" lon="-4.3725930">
        <ele>910.9</ele>
        <time>2018-03-28T11:27:22Z</time>
      </trkpt>
      <trkpt lat="36.8127730" lon="-4.3728130">
        <ele>908.9</ele>
        <time>2018-03-28T11:27:23Z</time>
      </trkpt>
      <trkpt lat="36.8127030" lon="-4.3729300">
        <ele>908.9</ele>
        <time>2018-03-28T11:27:24Z</time>
      </trkpt>
      <trkpt lat="36.8126300" lon="-4.3730530">
        <ele>906.9</ele>
        <time>2018-03-28T11:27:25Z</time>
      </trkpt>
      <trkpt lat="36.8126300" lon="-4.3730530">
        <ele>906.9</ele>
        <time>2018-03-28T11:27:26Z</time>
      </trkpt>
      <trkpt lat="36.8124850" lon="-4.3733080">
        <ele>904.9</ele>
        <time>2018-03-28T11:27:27Z</time>
      </trkpt>
      <trkpt lat="36.8124850" lon="-4.3733080">
        <ele>904.9</ele>
        <time>2018-03-28T11:27:28Z</time>
      </trkpt>
      <trkpt lat="36.8123450" lon="-4.3736020">
        <ele>902.9</ele>
        <time>2018-03-28T11:27:29Z</time>
      </trkpt>
      <trkpt lat="36.8122820" lon="-4.3737550">
        <ele>902.9</ele>
        <time>2018-03-28T11:27:30Z</time>
      </trkpt>
      <trkpt lat="36.8121770" lon="-4.3739870">
        <ele>899.9</ele>
        <time>2018-03-28T11:27:31Z</time>
      </trkpt>
      <trkpt lat="36.8121410" lon="-4.3740660">
        <ele>899.9</ele>
        <time>2018-03-28T11:27:32Z</time>
      </trkpt>
      <trkpt lat="36.8120680" lon="-4.3742230">
        <ele>896.9</ele>
        <time>2018-03-28T11:27:33Z</time>
      </trkpt>
      <trkpt lat="36.8120680" lon="-4.3742230">
        <ele>896.9</ele>
        <time>2018-03-28T11:27:34Z</time>
      </trkpt>
      <trkpt lat="36.8119230" lon="-4.3745580">
        <ele>894.9</ele>
        <time>2018-03-28T11:27:35Z</time>
      </trkpt>
      <trkpt lat="36.8119230" lon="-4.3745580">
        <ele>894.9</ele>
        <time>2018-03-28T11:27:36Z</time>
      </trkpt>
      <trkpt lat="36.8117750" lon="-4.3748930">
        <ele>891.9</ele>
        <time>2018-03-28T11:27:37Z</time>
      </trkpt>
      <trkpt lat="36.8117750" lon="-4.3748930">
        <ele>891.9</ele>
        <time>2018-03-28T11:27:38Z</time>
      </trkpt>
      <trkpt lat="36.8116150" lon="-4.3752050">
        <ele>888.9</ele>
        <time>2018-03-28T11:27:39Z</time>
      </trkpt>
      <trkpt lat="36.8116150" lon="-4.3752050">
        <ele>888.9</ele>
        <time>2018-03-28T11:27:40Z</time>
      </trkpt>
      <trkpt lat="36.8114300" lon="-4.3754720">
        <ele>886.9</ele>
        <time>2018-03-28T11:27:41Z</time>
      </trkpt>
      <trkpt lat="36.8114300" lon="-4.3754720">
        <ele>886.9</ele>
        <time>2018-03-28T11:27:42Z</time>
      </trkpt>
      <trkpt lat="36.8112780" lon="-4.3756880">
        <ele>883.9</ele>
        <time>2018-03-28T11:27:43Z</time>
      </trkpt>
      <trkpt lat="36.8112780" lon="-4.3756880">
        <ele>883.9</ele>
        <time>2018-03-28T11:27:44Z</time>
      </trkpt>
      <trkpt lat="36.8111320" lon="-4.3758780">
        <ele>880.9</ele>
        <time>2018-03-28T11:27:45Z</time>
      </trkpt>
      <trkpt lat="36.8110420" lon="-4.3759500">
        <ele>880.9</ele>
        <time>2018-03-28T11:27:46Z</time>
      </trkpt>
      <trkpt lat="36.8110420" lon="-4.3759500">
        <ele>878.9</ele>
        <time>2018-03-28T11:27:47Z</time>
      </trkpt>
      <trkpt lat="36.8108400" lon="-4.3760250">
        <ele>878.9</ele>
        <time>2018-03-28T11:27:48Z</time>
      </trkpt>
      <trkpt lat="36.8108400" lon="-4.3760250">
        <ele>877.9</ele>
        <time>2018-03-28T11:27:49Z</time>
      </trkpt>
      <trkpt lat="36.8106070" lon="-4.3760620">
        <ele>877.9</ele>
        <time>2018-03-28T11:27:50Z</time>
      </trkpt>
      <trkpt lat="36.8106070" lon="-4.3760620">
        <ele>875.9</ele>
        <time>2018-03-28T11:27:51Z</time>
      </trkpt>
      <trkpt lat="36.8103730" lon="-4.3761620">
        <ele>873.9</ele>
        <time>2018-03-28T11:27:52Z</time>
      </trkpt>
      <trkpt lat="36.8102680" lon="-4.3762420">
        <ele>873.9</ele>
        <time>2018-03-28T11:27:53Z</time>
      </trkpt>
      <trkpt lat="36.8102680" lon="-4.3762420">
        <ele>872.9</ele>
        <time>2018-03-28T11:27:54Z</time>
      </trkpt>
      <trkpt lat="36.8100720" lon="-4.3764380">
        <ele>872.9</ele>
        <time>2018-03-28T11:27:55Z</time>
      </trkpt>
      <trkpt lat="36.8100720" lon="-4.3764380">
        <ele>870.9</ele>
        <time>2018-03-28T11:27:56Z</time>
      </trkpt>
      <trkpt lat="36.8098730" lon="-4.3766170">
        <ele>870.9</ele>
        <time>2018-03-28T11:27:57Z</time>
      </trkpt>
      <trkpt lat="36.8098730" lon="-4.3766170">
        <ele>869.9</ele>
        <time>2018-03-28T11:27:58Z</time>
      </trkpt>
      <trkpt lat="36.8096320" lon="-4.3767450">
        <ele>869.9</ele>
        <time>2018-03-28T11:27:59Z</time>
      </trkpt>
      <trkpt lat="36.8095020" lon="-4.3767930">
        <ele>867.9</ele>
        <time>2018-03-28T11:28:00Z</time>
      </trkpt>
      <trkpt lat="36.8095020" lon="-4.3767930">
        <ele>867.9</ele>
        <time>2018-03-28T11:28:01Z</time>
      </trkpt>
      <trkpt lat="36.8092420" lon="-4.3768600">
        <ele>865.9</ele>
        <time>2018-03-28T11:28:02Z</time>
      </trkpt>
      <trkpt lat="36.8092420" lon="-4.3768600">
        <ele>865.9</ele>
        <time>2018-03-28T11:28:03Z</time>
      </trkpt>
      <trkpt lat="36.8090070" lon="-4.3769530">
        <ele>863.9</ele>
        <time>2018-03-28T11:28:04Z</time>
      </trkpt>
      <trkpt lat="36.8090070" lon="-4.3769530">
        <ele>863.9</ele>
        <time>2018-03-28T11:28:05Z</time>
      </trkpt>
      <trkpt lat="36.8088110" lon="-4.3771320">
        <ele>861.9</ele>
        <time>2018-03-28T11:28:06Z</time>
      </trkpt>
      <trkpt lat="36.8087930" lon="-4.3771540">
        <ele>861.9</ele>
        <time>2018-03-28T11:28:07Z</time>
      </trkpt>
      <trkpt lat="36.8087570" lon="-4.3771970">
        <ele>858.9</ele>
        <time>2018-03-28T11:28:08Z</time>
      </trkpt>
      <trkpt lat="36.8086000" lon="-4.3773400">
        <ele>858.9</ele>
        <time>2018-03-28T11:28:09Z</time>
      </trkpt>
      <trkpt lat="36.8084970" lon="-4.3773670">
        <ele>857.9</ele>
        <time>2018-03-28T11:28:10Z</time>
      </trkpt>
      <trkpt lat="36.8083870" lon="-4.3773720">
        <ele>857.9</ele>
        <time>2018-03-28T11:28:11Z</time>
      </trkpt>
      <trkpt lat="36.8083870" lon="-4.3773720">
        <ele>856.9</ele>
        <time>2018-03-28T11:28:12Z</time>
      </trkpt>
      <trkpt lat="36.8081650" lon="-4.3773680">
        <ele>856.9</ele>
        <time>2018-03-28T11:28:13Z</time>
      </trkpt>
      <trkpt lat="36.8081650" lon="-4.3773680">
        <ele>854.9</ele>
        <time>2018-03-28T11:28:14Z</time>
      </trkpt>
      <trkpt lat="36.8079670" lon="-4.3774700">
        <ele>854.9</ele>
        <time>2018-03-28T11:28:15Z</time>
      </trkpt>
      <trkpt lat="36.8079670" lon="-4.3774700">
        <ele>853.9</ele>
        <time>2018-03-28T11:28:16Z</time>
      </trkpt>
      <trkpt lat="36.8077720" lon="-4.3776120">
        <ele>853.9</ele>
        <time>2018-03-28T11:28:17Z</time>
      </trkpt>
      <trkpt lat="36.8077720" lon="-4.3776120">
        <ele>852.9</ele>
        <time>2018-03-28T11:28:18Z</time>
      </trkpt>
      <trkpt lat="36.8075350" lon="-4.3776500">
        <ele>852.9</ele>
        <time>2018-03-28T11:28:19Z</time>
      </trkpt>
      <trkpt lat="36.8075350" lon="-4.3776500">
        <ele>850.9</ele>
        <time>2018-03-28T11:28:20Z</time>
      </trkpt>
      <trkpt lat="36.8072880" lon="-4.3776800">
        <ele>848.9</ele>
        <time>2018-03-28T11:28:21Z</time>
      </trkpt>
      <trkpt lat="36.8072880" lon="-4.3776800">
        <ele>848.9</ele>
        <time>2018-03-28T11:28:22Z</time>
      </trkpt>
      <trkpt lat="36.8070580" lon="-4.3778130">
        <ele>846.9</ele>
        <time>2018-03-28T11:28:23Z</time>
      </trkpt>
      <trkpt lat="36.8069520" lon="-4.3778980">
        <ele>846.9</ele>
        <time>2018-03-28T11:28:24Z</time>
      </trkpt>
      <trkpt lat="36.8068330" lon="-4.3779770">
        <ele>844.9</ele>
        <time>2018-03-28T11:28:25Z</time>
      </trkpt>
      <trkpt lat="36.8068330" lon="-4.3779770">
        <ele>844.9</ele>
        <time>2018-03-28T11:28:26Z</time>
      </trkpt>
      <trkpt lat="36.8066030" lon="-4.3781570">
        <ele>841.9</ele>
        <time>2018-03-28T11:28:27Z</time>
      </trkpt>
      <trkpt lat="36.8066030" lon="-4.3781570">
        <ele>841.9</ele>
        <time>2018-03-28T11:28:28Z</time>
      </trkpt>
      <trkpt lat="36.8063870" lon="-4.3783780">
        <ele>838.9</ele>
        <time>2018-03-28T11:28:29Z</time>
      </trkpt>
      <trkpt lat="36.8062830" lon="-4.3785050">
        <ele>838.9</ele>
        <time>2018-03-28T11:28:30Z</time>
      </trkpt>
      <trkpt lat="36.8061870" lon="-4.3786420">
        <ele>835.9</ele>
        <time>2018-03-28T11:28:31Z</time>
      </trkpt>
      <trkpt lat="36.8061870" lon="-4.3786420">
        <ele>835.9</ele>
        <time>2018-03-28T11:28:32Z</time>
      </trkpt>
      <trkpt lat="36.8060020" lon="-4.3789200">
        <ele>832.9</ele>
        <time>2018-03-28T11:28:33Z</time>
      </trkpt>
      <trkpt lat="36.8059120" lon="-4.3790600">
        <ele>832.9</ele>
        <time>2018-03-28T11:28:34Z</time>
      </trkpt>
      <trkpt lat="36.8058270" lon="-4.3791950">
        <ele>830.9</ele>
        <time>2018-03-28T11:28:35Z</time>
      </trkpt>
      <trkpt lat="36.8058270" lon="-4.3791950">
        <ele>830.9</ele>
        <time>2018-03-28T11:28:36Z</time>
      </trkpt>
      <trkpt lat="36.8056720" lon="-4.3794450">
        <ele>827.9</ele>
        <time>2018-03-28T11:28:37Z</time>
      </trkpt>
      <trkpt lat="36.8056720" lon="-4.3794450">
        <ele>827.9</ele>
        <time>2018-03-28T11:28:38Z</time>
      </trkpt>
      <trkpt lat="36.8055380" lon="-4.3796650">
        <ele>825.9</ele>
        <time>2018-03-28T11:28:39Z</time>
      </trkpt>
      <trkpt lat="36.8054700" lon="-4.3797630">
        <ele>825.9</ele>
        <time>2018-03-28T11:28:40Z</time>
      </trkpt>
      <trkpt lat="36.8054700" lon="-4.3797630">
        <ele>822.9</ele>
        <time>2018-03-28T11:28:41Z</time>
      </trkpt>
      <trkpt lat="36.8052820" lon="-4.3798820">
        <ele>822.9</ele>
        <time>2018-03-28T11:28:42Z</time>
      </trkpt>
      <trkpt lat="36.8052820" lon="-4.3798820">
        <ele>821.9</ele>
        <time>2018-03-28T11:28:43Z</time>
      </trkpt>
      <trkpt lat="36.8050780" lon="-4.3799000">
        <ele>821.9</ele>
        <time>2018-03-28T11:28:44Z</time>
      </trkpt>
      <trkpt lat="36.8049730" lon="-4.3798630">
        <ele>819.9</ele>
        <time>2018-03-28T11:28:45Z</time>
      </trkpt>
      <trkpt lat="36.8049730" lon="-4.3798630">
        <ele>819.9</ele>
        <time>2018-03-28T11:28:46Z</time>
      </trkpt>
      <trkpt lat="36.8047650" lon="-4.3797250">
        <ele>817.9</ele>
        <time>2018-03-28T11:28:47Z</time>
      </trkpt>
      <trkpt lat="36.8046600" lon="-4.3796380">
        <ele>817.9</ele>
        <time>2018-03-28T11:28:48Z</time>
      </trkpt>
      <trkpt lat="36.8046600" lon="-4.3796380">
        <ele>814.9</ele>
        <time>2018-03-28T11:28:49Z</time>
      </trkpt>
      <trkpt lat="36.8044570" lon="-4.3794650">
        <ele>812.9</ele>
        <time>2018-03-28T11:28:50Z</time>
      </trkpt>
      <trkpt lat="36.8044570" lon="-4.3794650">
        <ele>812.9</ele>
        <time>2018-03-28T11:28:51Z</time>
      </trkpt>
      <trkpt lat="36.8042450" lon="-4.3793430">
        <ele>811.9</ele>
        <time>2018-03-28T11:28:52Z</time>
      </trkpt>
      <trkpt lat="36.8042450" lon="-4.3793430">
        <ele>811.9</ele>
        <time>2018-03-28T11:28:53Z</time>
      </trkpt>
      <trkpt lat="36.8040030" lon="-4.3793300">
        <ele>808.9</ele>
        <time>2018-03-28T11:28:54Z</time>
      </trkpt>
      <trkpt lat="36.8038800" lon="-4.3793470">
        <ele>808.9</ele>
        <time>2018-03-28T11:28:55Z</time>
      </trkpt>
      <trkpt lat="36.8038800" lon="-4.3793470">
        <ele>806.9</ele>
        <time>2018-03-28T11:28:56Z</time>
      </trkpt>
      <trkpt lat="36.8036270" lon="-4.3793780">
        <ele>806.9</ele>
        <time>2018-03-28T11:28:57Z</time>
      </trkpt>
      <trkpt lat="36.8036270" lon="-4.3793780">
        <ele>803.9</ele>
        <time>2018-03-28T11:28:58Z</time>
      </trkpt>
      <trkpt lat="36.8033750" lon="-4.3793650">
        <ele>803.9</ele>
        <time>2018-03-28T11:28:59Z</time>
      </trkpt>
      <trkpt lat="36.8033750" lon="-4.3793650">
        <ele>801.9</ele>
        <time>2018-03-28T11:29:00Z</time>
      </trkpt>
      <trkpt lat="36.8031400" lon="-4.3793050">
        <ele>801.9</ele>
        <time>2018-03-28T11:29:01Z</time>
      </trkpt>
      <trkpt lat="36.8031400" lon="-4.3793050">
        <ele>799.9</ele>
        <time>2018-03-28T11:29:02Z</time>
      </trkpt>
      <trkpt lat="36.8029170" lon="-4.3791550">
        <ele>799.9</ele>
        <time>2018-03-28T11:29:03Z</time>
      </trkpt>
      <trkpt lat="36.8029170" lon="-4.3791550">
        <ele>797.9</ele>
        <time>2018-03-28T11:29:04Z</time>
      </trkpt>
      <trkpt lat="36.8026780" lon="-4.3789920">
        <ele>797.9</ele>
        <time>2018-03-28T11:29:05Z</time>
      </trkpt>
      <trkpt lat="36.8025670" lon="-4.3789280">
        <ele>795.9</ele>
        <time>2018-03-28T11:29:06Z</time>
      </trkpt>
      <trkpt lat="36.8024530" lon="-4.3788620">
        <ele>795.9</ele>
        <time>2018-03-28T11:29:07Z</time>
      </trkpt>
      <trkpt lat="36.8024530" lon="-4.3788620">
        <ele>793.9</ele>
        <time>2018-03-28T11:29:08Z</time>
      </trkpt>
      <trkpt lat="36.8022720" lon="-4.3787150">
        <ele>793.9</ele>
        <time>2018-03-28T11:29:09Z</time>
      </trkpt>
      <trkpt lat="36.8022020" lon="-4.3786530">
        <ele>792.9</ele>
        <time>2018-03-28T11:29:10Z</time>
      </trkpt>
      <trkpt lat="36.8022020" lon="-4.3786530">
        <ele>792.9</ele>
        <time>2018-03-28T11:29:11Z</time>
      </trkpt>
      <trkpt lat="36.8020330" lon="-4.3786050">
        <ele>790.9</ele>
        <time>2018-03-28T11:29:12Z</time>
      </trkpt>
      <trkpt lat="36.8019580" lon="-4.3786570">
        <ele>790.9</ele>
        <time>2018-03-28T11:29:13Z</time>
      </trkpt>
      <trkpt lat="36.8019580" lon="-4.3786570">
        <ele>788.9</ele>
        <time>2018-03-28T11:29:14Z</time>
      </trkpt>
      <trkpt lat="36.8017970" lon="-4.3788020">
        <ele>788.9</ele>
        <time>2018-03-28T11:29:15Z</time>
      </trkpt>
      <trkpt lat="36.8017970" lon="-4.3788020">
        <ele>786.9</ele>
        <time>2018-03-28T11:29:16Z</time>
      </trkpt>
      <trkpt lat="36.8016550" lon="-4.3790030">
        <ele>786.9</ele>
        <time>2018-03-28T11:29:17Z</time>
      </trkpt>
      <trkpt lat="36.8015900" lon="-4.3791170">
        <ele>784.9</ele>
        <time>2018-03-28T11:29:18Z</time>
      </trkpt>
      <trkpt lat="36.8015900" lon="-4.3791170">
        <ele>783.9</ele>
        <time>2018-03-28T11:29:19Z</time>
      </trkpt>
      <trkpt lat="36.8014680" lon="-4.3793500">
        <ele>783.9</ele>
        <time>2018-03-28T11:29:20Z</time>
      </trkpt>
      <trkpt lat="36.8014680" lon="-4.3793500">
        <ele>781.9</ele>
        <time>2018-03-28T11:29:21Z</time>
      </trkpt>
      <trkpt lat="36.8013330" lon="-4.3795720">
        <ele>781.9</ele>
        <time>2018-03-28T11:29:22Z</time>
      </trkpt>
      <trkpt lat="36.8013330" lon="-4.3795720">
        <ele>779.9</ele>
        <time>2018-03-28T11:29:23Z</time>
      </trkpt>
      <trkpt lat="36.8011470" lon="-4.3797330">
        <ele>779.9</ele>
        <time>2018-03-28T11:29:24Z</time>
      </trkpt>
      <trkpt lat="36.8010500" lon="-4.3798000">
        <ele>778.9</ele>
        <time>2018-03-28T11:29:25Z</time>
      </trkpt>
      <trkpt lat="36.8010500" lon="-4.3798000">
        <ele>778.9</ele>
        <time>2018-03-28T11:29:26Z</time>
      </trkpt>
      <trkpt lat="36.8008350" lon="-4.3799570">
        <ele>776.9</ele>
        <time>2018-03-28T11:29:27Z</time>
      </trkpt>
      <trkpt lat="36.8008350" lon="-4.3799570">
        <ele>776.9</ele>
        <time>2018-03-28T11:29:28Z</time>
      </trkpt>
      <trkpt lat="36.8006370" lon="-4.3801430">
        <ele>774.9</ele>
        <time>2018-03-28T11:29:29Z</time>
      </trkpt>
      <trkpt lat="36.8006370" lon="-4.3801430">
        <ele>774.9</ele>
        <time>2018-03-28T11:29:30Z</time>
      </trkpt>
      <trkpt lat="36.8004270" lon="-4.3803130">
        <ele>773.9</ele>
        <time>2018-03-28T11:29:31Z</time>
      </trkpt>
      <trkpt lat="36.8004270" lon="-4.3803130">
        <ele>773.9</ele>
        <time>2018-03-28T11:29:32Z</time>
      </trkpt>
      <trkpt lat="36.8002180" lon="-4.3804500">
        <ele>772.9</ele>
        <time>2018-03-28T11:29:33Z</time>
      </trkpt>
      <trkpt lat="36.8002180" lon="-4.3804500">
        <ele>772.9</ele>
        <time>2018-03-28T11:29:34Z</time>
      </trkpt>
      <trkpt lat="36.8000620" lon="-4.3806580">
        <ele>771.9</ele>
        <time>2018-03-28T11:29:35Z</time>
      </trkpt>
      <trkpt lat="36.8000620" lon="-4.3806580">
        <ele>771.9</ele>
        <time>2018-03-28T11:29:36Z</time>
      </trkpt>
      <trkpt lat="36.7999720" lon="-4.3809220">
        <ele>770.9</ele>
        <time>2018-03-28T11:29:37Z</time>
      </trkpt>
      <trkpt lat="36.7999720" lon="-4.3809220">
        <ele>770.9</ele>
        <time>2018-03-28T11:29:38Z</time>
      </trkpt>
      <trkpt lat="36.7999300" lon="-4.3811930">
        <ele>768.9</ele>
        <time>2018-03-28T11:29:39Z</time>
      </trkpt>
      <trkpt lat="36.7999300" lon="-4.3811930">
        <ele>768.9</ele>
        <time>2018-03-28T11:29:40Z</time>
      </trkpt>
      <trkpt lat="36.7999320" lon="-4.3814730">
        <ele>767.9</ele>
        <time>2018-03-28T11:29:41Z</time>
      </trkpt>
      <trkpt lat="36.7999320" lon="-4.3814730">
        <ele>767.9</ele>
        <time>2018-03-28T11:29:42Z</time>
      </trkpt>
      <trkpt lat="36.7999300" lon="-4.3817500">
        <ele>767.9</ele>
        <time>2018-03-28T11:29:43Z</time>
      </trkpt>
      <trkpt lat="36.7999300" lon="-4.3817500">
        <ele>767.9</ele>
        <time>2018-03-28T11:29:44Z</time>
      </trkpt>
      <trkpt lat="36.7999070" lon="-4.3819920">
        <ele>766.9</ele>
        <time>2018-03-28T11:29:45Z</time>
      </trkpt>
      <trkpt lat="36.7999070" lon="-4.3819920">
        <ele>766.9</ele>
        <time>2018-03-28T11:29:46Z</time>
      </trkpt>
      <trkpt lat="36.7998650" lon="-4.3821730">
        <ele>765.9</ele>
        <time>2018-03-28T11:29:47Z</time>
      </trkpt>
      <trkpt lat="36.7998650" lon="-4.3821730">
        <ele>765.9</ele>
        <time>2018-03-28T11:29:48Z</time>
      </trkpt>
      <trkpt lat="36.7997280" lon="-4.3822480">
        <ele>765.9</ele>
        <time>2018-03-28T11:29:49Z</time>
      </trkpt>
      <trkpt lat="36.7996550" lon="-4.3822220">
        <ele>764.9</ele>
        <time>2018-03-28T11:29:50Z</time>
      </trkpt>
      <trkpt lat="36.7996550" lon="-4.3822220">
        <ele>764.9</ele>
        <time>2018-03-28T11:29:51Z</time>
      </trkpt>
      <trkpt lat="36.7995620" lon="-4.3820920">
        <ele>764.9</ele>
        <time>2018-03-28T11:29:52Z</time>
      </trkpt>
      <trkpt lat="36.7995620" lon="-4.3820920">
        <ele>764.9</ele>
        <time>2018-03-28T11:29:53Z</time>
      </trkpt>
      <trkpt lat="36.7995300" lon="-4.3819020">
        <ele>763.9</ele>
        <time>2018-03-28T11:29:54Z</time>
      </trkpt>
      <trkpt lat="36.7995100" lon="-4.3817980">
        <ele>763.9</ele>
        <time>2018-03-28T11:29:55Z</time>
      </trkpt>
      <trkpt lat="36.7995100" lon="-4.3817980">
        <ele>762.9</ele>
        <time>2018-03-28T11:29:56Z</time>
      </trkpt>
      <trkpt lat="36.7994350" lon="-4.3815700">
        <ele>762.9</ele>
        <time>2018-03-28T11:29:57Z</time>
      </trkpt>
      <trkpt lat="36.7994350" lon="-4.3815700">
        <ele>761.9</ele>
        <time>2018-03-28T11:29:58Z</time>
      </trkpt>
      <trkpt lat="36.7993480" lon="-4.3813330">
        <ele>761.9</ele>
        <time>2018-03-28T11:29:59Z</time>
      </trkpt>
      <trkpt lat="36.7993480" lon="-4.3813330">
        <ele>760.9</ele>
        <time>2018-03-28T11:30:00Z</time>
      </trkpt>
      <trkpt lat="36.7992600" lon="-4.3810930">
        <ele>760.9</ele>
        <time>2018-03-28T11:30:01Z</time>
      </trkpt>
      <trkpt lat="36.7992600" lon="-4.3810930">
        <ele>759.9</ele>
        <time>2018-03-28T11:30:02Z</time>
      </trkpt>
      <trkpt lat="36.7991550" lon="-4.3808620">
        <ele>759.9</ele>
        <time>2018-03-28T11:30:03Z</time>
      </trkpt>
      <trkpt lat="36.7990830" lon="-4.3807580">
        <ele>758.9</ele>
        <time>2018-03-28T11:30:04Z</time>
      </trkpt>
      <trkpt lat="36.7990830" lon="-4.3807580">
        <ele>758.9</ele>
        <time>2018-03-28T11:30:05Z</time>
      </trkpt>
      <trkpt lat="36.7988970" lon="-4.3806320">
        <ele>757.9</ele>
        <time>2018-03-28T11:30:06Z</time>
      </trkpt>
      <trkpt lat="36.7987850" lon="-4.3805980">
        <ele>757.9</ele>
        <time>2018-03-28T11:30:07Z</time>
      </trkpt>
      <trkpt lat="36.7987850" lon="-4.3805980">
        <ele>755.9</ele>
        <time>2018-03-28T11:30:08Z</time>
      </trkpt>
      <trkpt lat="36.7985730" lon="-4.3805150">
        <ele>755.9</ele>
        <time>2018-03-28T11:30:09Z</time>
      </trkpt>
      <trkpt lat="36.7985730" lon="-4.3805150">
        <ele>754.9</ele>
        <time>2018-03-28T11:30:10Z</time>
      </trkpt>
      <trkpt lat="36.7983820" lon="-4.3804550">
        <ele>754.9</ele>
        <time>2018-03-28T11:30:11Z</time>
      </trkpt>
      <trkpt lat="36.7982750" lon="-4.3804870">
        <ele>753.9</ele>
        <time>2018-03-28T11:30:12Z</time>
      </trkpt>
      <trkpt lat="36.7981730" lon="-4.3805480">
        <ele>753.9</ele>
        <time>2018-03-28T11:30:13Z</time>
      </trkpt>
      <trkpt lat="36.7981730" lon="-4.3805480">
        <ele>751.9</ele>
        <time>2018-03-28T11:30:14Z</time>
      </trkpt>
      <trkpt lat="36.7979830" lon="-4.3806620">
        <ele>751.9</ele>
        <time>2018-03-28T11:30:15Z</time>
      </trkpt>
      <trkpt lat="36.7979830" lon="-4.3806620">
        <ele>749.9</ele>
        <time>2018-03-28T11:30:16Z</time>
      </trkpt>
      <trkpt lat="36.7977870" lon="-4.3806430">
        <ele>748.9</ele>
        <time>2018-03-28T11:30:17Z</time>
      </trkpt>
      <trkpt lat="36.7976830" lon="-4.3805930">
        <ele>748.9</ele>
        <time>2018-03-28T11:30:18Z</time>
      </trkpt>
      <trkpt lat="36.7976830" lon="-4.3805930">
        <ele>746.9</ele>
        <time>2018-03-28T11:30:19Z</time>
      </trkpt>
      <trkpt lat="36.7975150" lon="-4.3804530">
        <ele>746.9</ele>
        <time>2018-03-28T11:30:20Z</time>
      </trkpt>
      <trkpt lat="36.7974430" lon="-4.3803930">
        <ele>744.9</ele>
        <time>2018-03-28T11:30:21Z</time>
      </trkpt>
      <trkpt lat="36.7974430" lon="-4.3803930">
        <ele>744.9</ele>
        <time>2018-03-28T11:30:22Z</time>
      </trkpt>
      <trkpt lat="36.7972920" lon="-4.3803400">
        <ele>743.9</ele>
        <time>2018-03-28T11:30:23Z</time>
      </trkpt>
      <trkpt lat="36.7972050" lon="-4.3803620">
        <ele>743.9</ele>
        <time>2018-03-28T11:30:24Z</time>
      </trkpt>
      <trkpt lat="36.7971200" lon="-4.3804330">
        <ele>741.9</ele>
        <time>2018-03-28T11:30:25Z</time>
      </trkpt>
      <trkpt lat="36.7971200" lon="-4.3804330">
        <ele>741.9</ele>
        <time>2018-03-28T11:30:26Z</time>
      </trkpt>
      <trkpt lat="36.7969730" lon="-4.3806500">
        <ele>739.9</ele>
        <time>2018-03-28T11:30:27Z</time>
      </trkpt>
      <trkpt lat="36.7969730" lon="-4.3806500">
        <ele>739.9</ele>
        <time>2018-03-28T11:30:28Z</time>
      </trkpt>
      <trkpt lat="36.7968170" lon="-4.3808170">
        <ele>737.9</ele>
        <time>2018-03-28T11:30:29Z</time>
      </trkpt>
      <trkpt lat="36.7968170" lon="-4.3808170">
        <ele>737.9</ele>
        <time>2018-03-28T11:30:30Z</time>
      </trkpt>
      <trkpt lat="36.7966120" lon="-4.3809200">
        <ele>735.9</ele>
        <time>2018-03-28T11:30:31Z</time>
      </trkpt>
      <trkpt lat="36.7966120" lon="-4.3809200">
        <ele>735.9</ele>
        <time>2018-03-28T11:30:32Z</time>
      </trkpt>
      <trkpt lat="36.7963730" lon="-4.3809550">
        <ele>733.9</ele>
        <time>2018-03-28T11:30:33Z</time>
      </trkpt>
      <trkpt lat="36.7963730" lon="-4.3809550">
        <ele>733.9</ele>
        <time>2018-03-28T11:30:34Z</time>
      </trkpt>
      <trkpt lat="36.7961070" lon="-4.3809830">
        <ele>731.9</ele>
        <time>2018-03-28T11:30:35Z</time>
      </trkpt>
      <trkpt lat="36.7959700" lon="-4.3810000">
        <ele>731.9</ele>
        <time>2018-03-28T11:30:36Z</time>
      </trkpt>
      <trkpt lat="36.7959700" lon="-4.3810000">
        <ele>728.9</ele>
        <time>2018-03-28T11:30:37Z</time>
      </trkpt>
      <trkpt lat="36.7957230" lon="-4.3811150">
        <ele>728.9</ele>
        <time>2018-03-28T11:30:38Z</time>
      </trkpt>
      <trkpt lat="36.7957230" lon="-4.3811150">
        <ele>725.9</ele>
        <time>2018-03-28T11:30:39Z</time>
      </trkpt>
      <trkpt lat="36.7954770" lon="-4.3812580">
        <ele>725.9</ele>
        <time>2018-03-28T11:30:40Z</time>
      </trkpt>
      <trkpt lat="36.7954770" lon="-4.3812580">
        <ele>723.9</ele>
        <time>2018-03-28T11:30:41Z</time>
      </trkpt>
      <trkpt lat="36.7952050" lon="-4.3813500">
        <ele>723.9</ele>
        <time>2018-03-28T11:30:42Z</time>
      </trkpt>
      <trkpt lat="36.7952050" lon="-4.3813500">
        <ele>721.9</ele>
        <time>2018-03-28T11:30:43Z</time>
      </trkpt>
      <trkpt lat="36.7949040" lon="-4.3815010">
        <ele>721.9</ele>
        <time>2018-03-28T11:30:44Z</time>
      </trkpt>
      <trkpt lat="36.7948720" lon="-4.3815250">
        <ele>719.9</ele>
        <time>2018-03-28T11:30:45Z</time>
      </trkpt>
      <trkpt lat="36.7948080" lon="-4.3815720">
        <ele>716.9</ele>
        <time>2018-03-28T11:30:46Z</time>
      </trkpt>
      <trkpt lat="36.7945800" lon="-4.3817400">
        <ele>716.9</ele>
        <time>2018-03-28T11:30:47Z</time>
      </trkpt>
      <trkpt lat="36.7945800" lon="-4.3817400">
        <ele>714.9</ele>
        <time>2018-03-28T11:30:48Z</time>
      </trkpt>
      <trkpt lat="36.7943180" lon="-4.3818280">
        <ele>714.9</ele>
        <time>2018-03-28T11:30:49Z</time>
      </trkpt>
      <trkpt lat="36.7941830" lon="-4.3818420">
        <ele>713.9</ele>
        <time>2018-03-28T11:30:50Z</time>
      </trkpt>
      <trkpt lat="36.7941180" lon="-4.3818470">
        <ele>713.9</ele>
        <time>2018-03-28T11:30:51Z</time>
      </trkpt>
      <trkpt lat="36.7940530" lon="-4.3818520">
        <ele>711.9</ele>
        <time>2018-03-28T11:30:52Z</time>
      </trkpt>
      <trkpt lat="36.7939220" lon="-4.3818620">
        <ele>711.9</ele>
        <time>2018-03-28T11:30:53Z</time>
      </trkpt>
      <trkpt lat="36.7936900" lon="-4.3818930">
        <ele>710.9</ele>
        <time>2018-03-28T11:30:54Z</time>
      </trkpt>
      <trkpt lat="36.7935900" lon="-4.3819370">
        <ele>710.9</ele>
        <time>2018-03-28T11:30:55Z</time>
      </trkpt>
      <trkpt lat="36.7935900" lon="-4.3819370">
        <ele>709.9</ele>
        <time>2018-03-28T11:30:56Z</time>
      </trkpt>
      <trkpt lat="36.7933970" lon="-4.3820880">
        <ele>709.9</ele>
        <time>2018-03-28T11:30:57Z</time>
      </trkpt>
      <trkpt lat="36.7933970" lon="-4.3820880">
        <ele>708.9</ele>
        <time>2018-03-28T11:30:58Z</time>
      </trkpt>
      <trkpt lat="36.7932520" lon="-4.3822950">
        <ele>708.9</ele>
        <time>2018-03-28T11:30:59Z</time>
      </trkpt>
      <trkpt lat="36.7931800" lon="-4.3823900">
        <ele>708.9</ele>
        <time>2018-03-28T11:31:00Z</time>
      </trkpt>
      <trkpt lat="36.7931800" lon="-4.3823900">
        <ele>708.9</ele>
        <time>2018-03-28T11:31:01Z</time>
      </trkpt>
      <trkpt lat="36.7929920" lon="-4.3825100">
        <ele>707.9</ele>
        <time>2018-03-28T11:31:02Z</time>
      </trkpt>
      <trkpt lat="36.7929920" lon="-4.3825100">
        <ele>707.9</ele>
        <time>2018-03-28T11:31:03Z</time>
      </trkpt>
      <trkpt lat="36.7927850" lon="-4.3825530">
        <ele>706.9</ele>
        <time>2018-03-28T11:31:04Z</time>
      </trkpt>
      <trkpt lat="36.7927850" lon="-4.3825530">
        <ele>706.9</ele>
        <time>2018-03-28T11:31:05Z</time>
      </trkpt>
      <trkpt lat="36.7925580" lon="-4.3826120">
        <ele>704.9</ele>
        <time>2018-03-28T11:31:06Z</time>
      </trkpt>
      <trkpt lat="36.7924520" lon="-4.3826720">
        <ele>704.9</ele>
        <time>2018-03-28T11:31:07Z</time>
      </trkpt>
      <trkpt lat="36.7924520" lon="-4.3826720">
        <ele>703.9</ele>
        <time>2018-03-28T11:31:08Z</time>
      </trkpt>
      <trkpt lat="36.7922530" lon="-4.3828300">
        <ele>703.9</ele>
        <time>2018-03-28T11:31:09Z</time>
      </trkpt>
      <trkpt lat="36.7922530" lon="-4.3828300">
        <ele>701.9</ele>
        <time>2018-03-28T11:31:10Z</time>
      </trkpt>
      <trkpt lat="36.7920730" lon="-4.3829680">
        <ele>701.9</ele>
        <time>2018-03-28T11:31:11Z</time>
      </trkpt>
      <trkpt lat="36.7920730" lon="-4.3829680">
        <ele>699.9</ele>
        <time>2018-03-28T11:31:12Z</time>
      </trkpt>
      <trkpt lat="36.7919030" lon="-4.3830250">
        <ele>698.9</ele>
        <time>2018-03-28T11:31:13Z</time>
      </trkpt>
      <trkpt lat="36.7919030" lon="-4.3830250">
        <ele>698.9</ele>
        <time>2018-03-28T11:31:14Z</time>
      </trkpt>
      <trkpt lat="36.7917220" lon="-4.3829470">
        <ele>697.9</ele>
        <time>2018-03-28T11:31:15Z</time>
      </trkpt>
      <trkpt lat="36.7916370" lon="-4.3828820">
        <ele>697.9</ele>
        <time>2018-03-28T11:31:16Z</time>
      </trkpt>
      <trkpt lat="36.7916370" lon="-4.3828820">
        <ele>695.9</ele>
        <time>2018-03-28T11:31:17Z</time>
      </trkpt>
      <trkpt lat="36.7914870" lon="-4.3827100">
        <ele>695.9</ele>
        <time>2018-03-28T11:31:18Z</time>
      </trkpt>
      <trkpt lat="36.7914150" lon="-4.3826150">
        <ele>694.9</ele>
        <time>2018-03-28T11:31:19Z</time>
      </trkpt>
      <trkpt lat="36.7914150" lon="-4.3826150">
        <ele>694.9</ele>
        <time>2018-03-28T11:31:20Z</time>
      </trkpt>
      <trkpt lat="36.7912520" lon="-4.3824870">
        <ele>693.9</ele>
        <time>2018-03-28T11:31:21Z</time>
      </trkpt>
      <trkpt lat="36.7912520" lon="-4.3824870">
        <ele>693.9</ele>
        <time>2018-03-28T11:31:22Z</time>
      </trkpt>
      <trkpt lat="36.7910530" lon="-4.3824800">
        <ele>692.9</ele>
        <time>2018-03-28T11:31:23Z</time>
      </trkpt>
      <trkpt lat="36.7910530" lon="-4.3824800">
        <ele>692.9</ele>
        <time>2018-03-28T11:31:24Z</time>
      </trkpt>
      <trkpt lat="36.7908680" lon="-4.3825520">
        <ele>692.9</ele>
        <time>2018-03-28T11:31:25Z</time>
      </trkpt>
      <trkpt lat="36.7908680" lon="-4.3825520">
        <ele>692.9</ele>
        <time>2018-03-28T11:31:26Z</time>
      </trkpt>
      <trkpt lat="36.7906800" lon="-4.3826500">
        <ele>692.9</ele>
        <time>2018-03-28T11:31:27Z</time>
      </trkpt>
      <trkpt lat="36.7905850" lon="-4.3826920">
        <ele>692.9</ele>
        <time>2018-03-28T11:31:28Z</time>
      </trkpt>
      <trkpt lat="36.7905850" lon="-4.3826920">
        <ele>692.9</ele>
        <time>2018-03-28T11:31:29Z</time>
      </trkpt>
      <trkpt lat="36.7903700" lon="-4.3827150">
        <ele>692.9</ele>
        <time>2018-03-28T11:31:30Z</time>
      </trkpt>
      <trkpt lat="36.7903700" lon="-4.3827150">
        <ele>691.9</ele>
        <time>2018-03-28T11:31:31Z</time>
      </trkpt>
      <trkpt lat="36.7901600" lon="-4.3826920">
        <ele>691.9</ele>
        <time>2018-03-28T11:31:32Z</time>
      </trkpt>
      <trkpt lat="36.7901600" lon="-4.3826920">
        <ele>691.9</ele>
        <time>2018-03-28T11:31:33Z</time>
      </trkpt>
      <trkpt lat="36.7899420" lon="-4.3826850">
        <ele>690.9</ele>
        <time>2018-03-28T11:31:34Z</time>
      </trkpt>
      <trkpt lat="36.7898320" lon="-4.3826900">
        <ele>690.9</ele>
        <time>2018-03-28T11:31:35Z</time>
      </trkpt>
      <trkpt lat="36.7898320" lon="-4.3826900">
        <ele>689.9</ele>
        <time>2018-03-28T11:31:36Z</time>
      </trkpt>
      <trkpt lat="36.7896330" lon="-4.3827620">
        <ele>689.9</ele>
        <time>2018-03-28T11:31:37Z</time>
      </trkpt>
      <trkpt lat="36.7896330" lon="-4.3827620">
        <ele>689.9</ele>
        <time>2018-03-28T11:31:38Z</time>
      </trkpt>
      <trkpt lat="36.7894580" lon="-4.3829030">
        <ele>689.9</ele>
        <time>2018-03-28T11:31:39Z</time>
      </trkpt>
      <trkpt lat="36.7894580" lon="-4.3829030">
        <ele>688.9</ele>
        <time>2018-03-28T11:31:40Z</time>
      </trkpt>
      <trkpt lat="36.7893430" lon="-4.3831050">
        <ele>688.9</ele>
        <time>2018-03-28T11:31:41Z</time>
      </trkpt>
      <trkpt lat="36.7892570" lon="-4.3832050">
        <ele>688.9</ele>
        <time>2018-03-28T11:31:42Z</time>
      </trkpt>
      <trkpt lat="36.7892370" lon="-4.3832190">
        <ele>688.9</ele>
        <time>2018-03-28T11:31:43Z</time>
      </trkpt>
      <trkpt lat="36.7891970" lon="-4.3832480">
        <ele>688.9</ele>
        <time>2018-03-28T11:31:44Z</time>
      </trkpt>
      <trkpt lat="36.7890120" lon="-4.3832900">
        <ele>688.9</ele>
        <time>2018-03-28T11:31:45Z</time>
      </trkpt>
      <trkpt lat="36.7889220" lon="-4.3832920">
        <ele>688.9</ele>
        <time>2018-03-28T11:31:46Z</time>
      </trkpt>
      <trkpt lat="36.7889220" lon="-4.3832920">
        <ele>687.9</ele>
        <time>2018-03-28T11:31:47Z</time>
      </trkpt>
      <trkpt lat="36.7887370" lon="-4.3833200">
        <ele>687.9</ele>
        <time>2018-03-28T11:31:48Z</time>
      </trkpt>
      <trkpt lat="36.7886420" lon="-4.3833470">
        <ele>687.9</ele>
        <time>2018-03-28T11:31:49Z</time>
      </trkpt>
      <trkpt lat="36.7885470" lon="-4.3833780">
        <ele>687.9</ele>
        <time>2018-03-28T11:31:50Z</time>
      </trkpt>
      <trkpt lat="36.7885470" lon="-4.3833780">
        <ele>686.9</ele>
        <time>2018-03-28T11:31:51Z</time>
      </trkpt>
      <trkpt lat="36.7883680" lon="-4.3834650">
        <ele>686.9</ele>
        <time>2018-03-28T11:31:52Z</time>
      </trkpt>
      <trkpt lat="36.7883680" lon="-4.3834650">
        <ele>686.9</ele>
        <time>2018-03-28T11:31:53Z</time>
      </trkpt>
      <trkpt lat="36.7882120" lon="-4.3835820">
        <ele>686.9</ele>
        <time>2018-03-28T11:31:54Z</time>
      </trkpt>
      <trkpt lat="36.7881450" lon="-4.3836550">
        <ele>686.9</ele>
        <time>2018-03-28T11:31:55Z</time>
      </trkpt>
      <trkpt lat="36.7881450" lon="-4.3836550">
        <ele>686.9</ele>
        <time>2018-03-28T11:31:56Z</time>
      </trkpt>
      <trkpt lat="36.7879900" lon="-4.3837450">
        <ele>686.9</ele>
        <time>2018-03-28T11:31:57Z</time>
      </trkpt>
      <trkpt lat="36.7879900" lon="-4.3837450">
        <ele>686.9</ele>
        <time>2018-03-28T11:31:58Z</time>
      </trkpt>
      <trkpt lat="36.7878220" lon="-4.3837320">
        <ele>685.9</ele>
        <time>2018-03-28T11:31:59Z</time>
      </trkpt>
      <trkpt lat="36.7877430" lon="-4.3836930">
        <ele>685.9</ele>
        <time>2018-03-28T11:32:00Z</time>
      </trkpt>
      <trkpt lat="36.7876650" lon="-4.3836470">
        <ele>685.9</ele>
        <time>2018-03-28T11:32:01Z</time>
      </trkpt>
      <trkpt lat="36.7876650" lon="-4.3836470">
        <ele>685.9</ele>
        <time>2018-03-28T11:32:02Z</time>
      </trkpt>
      <trkpt lat="36.7875280" lon="-4.3835180">
        <ele>684.9</ele>
        <time>2018-03-28T11:32:03Z</time>
      </trkpt>
      <trkpt lat="36.7874730" lon="-4.3834610">
        <ele>684.9</ele>
        <time>2018-03-28T11:32:04Z</time>
      </trkpt>
      <trkpt lat="36.7874170" lon="-4.3834050">
        <ele>684.9</ele>
        <time>2018-03-28T11:32:05Z</time>
      </trkpt>
      <trkpt lat="36.7873050" lon="-4.3832920">
        <ele>684.9</ele>
        <time>2018-03-28T11:32:06Z</time>
      </trkpt>
      <trkpt lat="36.7872270" lon="-4.3832270">
        <ele>684.9</ele>
        <time>2018-03-28T11:32:07Z</time>
      </trkpt>
      <trkpt lat="36.7872270" lon="-4.3832270">
        <ele>684.9</ele>
        <time>2018-03-28T11:32:08Z</time>
      </trkpt>
      <trkpt lat="36.7870280" lon="-4.3831520">
        <ele>684.9</ele>
        <time>2018-03-28T11:32:09Z</time>
      </trkpt>
      <trkpt lat="36.7870280" lon="-4.3831520">
        <ele>682.9</ele>
        <time>2018-03-28T11:32:10Z</time>
      </trkpt>
      <trkpt lat="36.7868150" lon="-4.3831030">
        <ele>682.9</ele>
        <time>2018-03-28T11:32:11Z</time>
      </trkpt>
      <trkpt lat="36.7867170" lon="-4.3830700">
        <ele>682.9</ele>
        <time>2018-03-28T11:32:12Z</time>
      </trkpt>
      <trkpt lat="36.7867170" lon="-4.3830700">
        <ele>682.9</ele>
        <time>2018-03-28T11:32:13Z</time>
      </trkpt>
      <trkpt lat="36.7865220" lon="-4.3830330">
        <ele>681.9</ele>
        <time>2018-03-28T11:32:14Z</time>
      </trkpt>
      <trkpt lat="36.7865220" lon="-4.3830330">
        <ele>681.9</ele>
        <time>2018-03-28T11:32:15Z</time>
      </trkpt>
      <trkpt lat="36.7863370" lon="-4.3829950">
        <ele>680.9</ele>
        <time>2018-03-28T11:32:16Z</time>
      </trkpt>
      <trkpt lat="36.7863370" lon="-4.3829950">
        <ele>680.9</ele>
        <time>2018-03-28T11:32:17Z</time>
      </trkpt>
      <trkpt lat="36.7861630" lon="-4.3829030">
        <ele>679.9</ele>
        <time>2018-03-28T11:32:18Z</time>
      </trkpt>
      <trkpt lat="36.7861200" lon="-4.3828230">
        <ele>679.9</ele>
        <time>2018-03-28T11:32:19Z</time>
      </trkpt>
      <trkpt lat="36.7861200" lon="-4.3828230">
        <ele>678.9</ele>
        <time>2018-03-28T11:32:20Z</time>
      </trkpt>
      <trkpt lat="36.7860380" lon="-4.3826400">
        <ele>678.9</ele>
        <time>2018-03-28T11:32:21Z</time>
      </trkpt>
      <trkpt lat="36.7860380" lon="-4.3826400">
        <ele>678.9</ele>
        <time>2018-03-28T11:32:22Z</time>
      </trkpt>
      <trkpt lat="36.7860100" lon="-4.3824280">
        <ele>678.9</ele>
        <time>2018-03-28T11:32:23Z</time>
      </trkpt>
      <trkpt lat="36.7860100" lon="-4.3824280">
        <ele>678.9</ele>
        <time>2018-03-28T11:32:24Z</time>
      </trkpt>
      <trkpt lat="36.7860180" lon="-4.3822500">
        <ele>678.9</ele>
        <time>2018-03-28T11:32:25Z</time>
      </trkpt>
      <trkpt lat="36.7860180" lon="-4.3822500">
        <ele>678.9</ele>
        <time>2018-03-28T11:32:26Z</time>
      </trkpt>
      <trkpt lat="36.7859950" lon="-4.3820600">
        <ele>678.9</ele>
        <time>2018-03-28T11:32:27Z</time>
      </trkpt>
      <trkpt lat="36.7859750" lon="-4.3819630">
        <ele>678.9</ele>
        <time>2018-03-28T11:32:28Z</time>
      </trkpt>
      <trkpt lat="36.7859750" lon="-4.3819630">
        <ele>678.9</ele>
        <time>2018-03-28T11:32:29Z</time>
      </trkpt>
      <trkpt lat="36.7859300" lon="-4.3817780">
        <ele>679.9</ele>
        <time>2018-03-28T11:32:30Z</time>
      </trkpt>
      <trkpt lat="36.7859050" lon="-4.3816900">
        <ele>679.9</ele>
        <time>2018-03-28T11:32:31Z</time>
      </trkpt>
      <trkpt lat="36.7859050" lon="-4.3816900">
        <ele>679.9</ele>
        <time>2018-03-28T11:32:32Z</time>
      </trkpt>
      <trkpt lat="36.7858230" lon="-4.3815230">
        <ele>679.9</ele>
        <time>2018-03-28T11:32:33Z</time>
      </trkpt>
      <trkpt lat="36.7858230" lon="-4.3815230">
        <ele>679.9</ele>
        <time>2018-03-28T11:32:34Z</time>
      </trkpt>
      <trkpt lat="36.7857220" lon="-4.3813950">
        <ele>679.9</ele>
        <time>2018-03-28T11:32:35Z</time>
      </trkpt>
      <trkpt lat="36.7857220" lon="-4.3813950">
        <ele>679.9</ele>
        <time>2018-03-28T11:32:36Z</time>
      </trkpt>
      <trkpt lat="36.7855780" lon="-4.3813330">
        <ele>679.9</ele>
        <time>2018-03-28T11:32:37Z</time>
      </trkpt>
      <trkpt lat="36.7854950" lon="-4.3813170">
        <ele>679.9</ele>
        <time>2018-03-28T11:32:38Z</time>
      </trkpt>
      <trkpt lat="36.7854950" lon="-4.3813170">
        <ele>679.9</ele>
        <time>2018-03-28T11:32:39Z</time>
      </trkpt>
      <trkpt lat="36.7853250" lon="-4.3813020">
        <ele>679.9</ele>
        <time>2018-03-28T11:32:40Z</time>
      </trkpt>
      <trkpt lat="36.7853250" lon="-4.3813020">
        <ele>679.9</ele>
        <time>2018-03-28T11:32:41Z</time>
      </trkpt>
      <trkpt lat="36.7851450" lon="-4.3813380">
        <ele>679.9</ele>
        <time>2018-03-28T11:32:42Z</time>
      </trkpt>
      <trkpt lat="36.7850550" lon="-4.3813680">
        <ele>679.9</ele>
        <time>2018-03-28T11:32:43Z</time>
      </trkpt>
      <trkpt lat="36.7850550" lon="-4.3813680">
        <ele>678.9</ele>
        <time>2018-03-28T11:32:44Z</time>
      </trkpt>
      <trkpt lat="36.7848650" lon="-4.3814220">
        <ele>678.9</ele>
        <time>2018-03-28T11:32:45Z</time>
      </trkpt>
      <trkpt lat="36.7848650" lon="-4.3814220">
        <ele>677.9</ele>
        <time>2018-03-28T11:32:46Z</time>
      </trkpt>
      <trkpt lat="36.7846720" lon="-4.3814520">
        <ele>677.9</ele>
        <time>2018-03-28T11:32:47Z</time>
      </trkpt>
      <trkpt lat="36.7846720" lon="-4.3814520">
        <ele>676.9</ele>
        <time>2018-03-28T11:32:48Z</time>
      </trkpt>
      <trkpt lat="36.7844700" lon="-4.3814450">
        <ele>676.9</ele>
        <time>2018-03-28T11:32:49Z</time>
      </trkpt>
      <trkpt lat="36.7844700" lon="-4.3814450">
        <ele>674.9</ele>
        <time>2018-03-28T11:32:50Z</time>
      </trkpt>
      <trkpt lat="36.7842730" lon="-4.3814800">
        <ele>674.9</ele>
        <time>2018-03-28T11:32:51Z</time>
      </trkpt>
      <trkpt lat="36.7842730" lon="-4.3814800">
        <ele>673.9</ele>
        <time>2018-03-28T11:32:52Z</time>
      </trkpt>
      <trkpt lat="36.7840880" lon="-4.3815620">
        <ele>673.9</ele>
        <time>2018-03-28T11:32:53Z</time>
      </trkpt>
      <trkpt lat="36.7840880" lon="-4.3815620">
        <ele>671.9</ele>
        <time>2018-03-28T11:32:54Z</time>
      </trkpt>
      <trkpt lat="36.7839050" lon="-4.3815830">
        <ele>671.9</ele>
        <time>2018-03-28T11:32:55Z</time>
      </trkpt>
      <trkpt lat="36.7839050" lon="-4.3815830">
        <ele>670.9</ele>
        <time>2018-03-28T11:32:56Z</time>
      </trkpt>
      <trkpt lat="36.7837370" lon="-4.3814980">
        <ele>670.9</ele>
        <time>2018-03-28T11:32:57Z</time>
      </trkpt>
      <trkpt lat="36.7837370" lon="-4.3814980">
        <ele>669.9</ele>
        <time>2018-03-28T11:32:58Z</time>
      </trkpt>
      <trkpt lat="36.7836200" lon="-4.3813380">
        <ele>669.9</ele>
        <time>2018-03-28T11:32:59Z</time>
      </trkpt>
      <trkpt lat="36.7835780" lon="-4.3812570">
        <ele>668.9</ele>
        <time>2018-03-28T11:33:00Z</time>
      </trkpt>
      <trkpt lat="36.7835470" lon="-4.3811700">
        <ele>668.9</ele>
        <time>2018-03-28T11:33:01Z</time>
      </trkpt>
      <trkpt lat="36.7835470" lon="-4.3811700">
        <ele>668.9</ele>
        <time>2018-03-28T11:33:02Z</time>
      </trkpt>
      <trkpt lat="36.7835130" lon="-4.3809820">
        <ele>668.9</ele>
        <time>2018-03-28T11:33:03Z</time>
      </trkpt>
      <trkpt lat="36.7835130" lon="-4.3809820">
        <ele>668.9</ele>
        <time>2018-03-28T11:33:04Z</time>
      </trkpt>
      <trkpt lat="36.7834520" lon="-4.3808150">
        <ele>668.9</ele>
        <time>2018-03-28T11:33:05Z</time>
      </trkpt>
      <trkpt lat="36.7834520" lon="-4.3808150">
        <ele>668.9</ele>
        <time>2018-03-28T11:33:06Z</time>
      </trkpt>
      <trkpt lat="36.7833180" lon="-4.3807170">
        <ele>668.9</ele>
        <time>2018-03-28T11:33:07Z</time>
      </trkpt>
      <trkpt lat="36.7833180" lon="-4.3807170">
        <ele>668.9</ele>
        <time>2018-03-28T11:33:08Z</time>
      </trkpt>
      <trkpt lat="36.7831650" lon="-4.3807420">
        <ele>668.9</ele>
        <time>2018-03-28T11:33:09Z</time>
      </trkpt>
      <trkpt lat="36.7831650" lon="-4.3807420">
        <ele>668.9</ele>
        <time>2018-03-28T11:33:10Z</time>
      </trkpt>
      <trkpt lat="36.7830130" lon="-4.3808230">
        <ele>668.9</ele>
        <time>2018-03-28T11:33:11Z</time>
      </trkpt>
      <trkpt lat="36.7830130" lon="-4.3808230">
        <ele>668.9</ele>
        <time>2018-03-28T11:33:12Z</time>
      </trkpt>
      <trkpt lat="36.7828570" lon="-4.3808420">
        <ele>668.9</ele>
        <time>2018-03-28T11:33:13Z</time>
      </trkpt>
      <trkpt lat="36.7828570" lon="-4.3808420">
        <ele>668.9</ele>
        <time>2018-03-28T11:33:14Z</time>
      </trkpt>
      <trkpt lat="36.7827350" lon="-4.3807600">
        <ele>668.9</ele>
        <time>2018-03-28T11:33:15Z</time>
      </trkpt>
      <trkpt lat="36.7827350" lon="-4.3807600">
        <ele>668.9</ele>
        <time>2018-03-28T11:33:16Z</time>
      </trkpt>
      <trkpt lat="36.7826180" lon="-4.3806400">
        <ele>668.9</ele>
        <time>2018-03-28T11:33:17Z</time>
      </trkpt>
      <trkpt lat="36.7826180" lon="-4.3806400">
        <ele>668.9</ele>
        <time>2018-03-28T11:33:18Z</time>
      </trkpt>
      <trkpt lat="36.7825080" lon="-4.3804930">
        <ele>668.9</ele>
        <time>2018-03-28T11:33:19Z</time>
      </trkpt>
      <trkpt lat="36.7825080" lon="-4.3804930">
        <ele>668.9</ele>
        <time>2018-03-28T11:33:20Z</time>
      </trkpt>
      <trkpt lat="36.7824170" lon="-4.3803500">
        <ele>668.9</ele>
        <time>2018-03-28T11:33:21Z</time>
      </trkpt>
      <trkpt lat="36.7823480" lon="-4.3802980">
        <ele>668.9</ele>
        <time>2018-03-28T11:33:22Z</time>
      </trkpt>
      <trkpt lat="36.7823480" lon="-4.3802980">
        <ele>668.9</ele>
        <time>2018-03-28T11:33:23Z</time>
      </trkpt>
      <trkpt lat="36.7822170" lon="-4.3802500">
        <ele>668.9</ele>
        <time>2018-03-28T11:33:24Z</time>
      </trkpt>
      <trkpt lat="36.7821430" lon="-4.3802570">
        <ele>668.9</ele>
        <time>2018-03-28T11:33:25Z</time>
      </trkpt>
      <trkpt lat="36.7821430" lon="-4.3802570">
        <ele>668.9</ele>
        <time>2018-03-28T11:33:26Z</time>
      </trkpt>
      <trkpt lat="36.7820120" lon="-4.3803120">
        <ele>668.9</ele>
        <time>2018-03-28T11:33:27Z</time>
      </trkpt>
      <trkpt lat="36.7820120" lon="-4.3803120">
        <ele>668.9</ele>
        <time>2018-03-28T11:33:28Z</time>
      </trkpt>
      <trkpt lat="36.7818720" lon="-4.3803730">
        <ele>668.9</ele>
        <time>2018-03-28T11:33:29Z</time>
      </trkpt>
      <trkpt lat="36.7817970" lon="-4.3803950">
        <ele>668.9</ele>
        <time>2018-03-28T11:33:30Z</time>
      </trkpt>
      <trkpt lat="36.7817270" lon="-4.3803770">
        <ele>668.9</ele>
        <time>2018-03-28T11:33:31Z</time>
      </trkpt>
      <trkpt lat="36.7817270" lon="-4.3803770">
        <ele>668.9</ele>
        <time>2018-03-28T11:33:32Z</time>
      </trkpt>
      <trkpt lat="36.7815980" lon="-4.3802980">
        <ele>668.9</ele>
        <time>2018-03-28T11:33:33Z</time>
      </trkpt>
      <trkpt lat="36.7815090" lon="-4.3802240">
        <ele>668.9</ele>
        <time>2018-03-28T11:33:34Z</time>
      </trkpt>
      <trkpt lat="36.7814750" lon="-4.3802020">
        <ele>668.9</ele>
        <time>2018-03-28T11:33:35Z</time>
      </trkpt>
      <trkpt lat="36.7814070" lon="-4.3801570">
        <ele>668.9</ele>
        <time>2018-03-28T11:33:36Z</time>
      </trkpt>
      <trkpt lat="36.7813280" lon="-4.3801370">
        <ele>668.9</ele>
        <time>2018-03-28T11:33:37Z</time>
      </trkpt>
      <trkpt lat="36.7813280" lon="-4.3801370">
        <ele>668.9</ele>
        <time>2018-03-28T11:33:38Z</time>
      </trkpt>
      <trkpt lat="36.7811630" lon="-4.3801980">
        <ele>667.9</ele>
        <time>2018-03-28T11:33:39Z</time>
      </trkpt>
      <trkpt lat="36.7810750" lon="-4.3802470">
        <ele>667.9</ele>
        <time>2018-03-28T11:33:40Z</time>
      </trkpt>
      <trkpt lat="36.7810080" lon="-4.3802810">
        <ele>666.9</ele>
        <time>2018-03-28T11:33:41Z</time>
      </trkpt>
      <trkpt lat="36.7809410" lon="-4.3803150">
        <ele>666.9</ele>
        <time>2018-03-28T11:33:42Z</time>
      </trkpt>
      <trkpt lat="36.7808070" lon="-4.3803830">
        <ele>665.9</ele>
        <time>2018-03-28T11:33:43Z</time>
      </trkpt>
      <trkpt lat="36.7808070" lon="-4.3803830">
        <ele>665.9</ele>
        <time>2018-03-28T11:33:44Z</time>
      </trkpt>
      <trkpt lat="36.7806120" lon="-4.3804510">
        <ele>663.9</ele>
        <time>2018-03-28T11:33:45Z</time>
      </trkpt>
      <trkpt lat="36.7805880" lon="-4.3804540">
        <ele>663.9</ele>
        <time>2018-03-28T11:33:46Z</time>
      </trkpt>
      <trkpt lat="36.7805400" lon="-4.3804600">
        <ele>662.9</ele>
        <time>2018-03-28T11:33:47Z</time>
      </trkpt>
      <trkpt lat="36.7803570" lon="-4.3804070">
        <ele>662.9</ele>
        <time>2018-03-28T11:33:48Z</time>
      </trkpt>
      <trkpt lat="36.7802260" lon="-4.3803200">
        <ele>661.9</ele>
        <time>2018-03-28T11:33:49Z</time>
      </trkpt>
      <trkpt lat="36.7801790" lon="-4.3802900">
        <ele>661.9</ele>
        <time>2018-03-28T11:33:50Z</time>
      </trkpt>
      <trkpt lat="36.7800850" lon="-4.3802300">
        <ele>660.9</ele>
        <time>2018-03-28T11:33:51Z</time>
      </trkpt>
      <trkpt lat="36.7800850" lon="-4.3802300">
        <ele>660.9</ele>
        <time>2018-03-28T11:33:52Z</time>
      </trkpt>
      <trkpt lat="36.7798920" lon="-4.3801380">
        <ele>658.9</ele>
        <time>2018-03-28T11:33:53Z</time>
      </trkpt>
      <trkpt lat="36.7797870" lon="-4.3801230">
        <ele>658.9</ele>
        <time>2018-03-28T11:33:54Z</time>
      </trkpt>
      <trkpt lat="36.7796630" lon="-4.3801220">
        <ele>657.9</ele>
        <time>2018-03-28T11:33:55Z</time>
      </trkpt>
      <trkpt lat="36.7796630" lon="-4.3801220">
        <ele>657.9</ele>
        <time>2018-03-28T11:33:56Z</time>
      </trkpt>
      <trkpt lat="36.7794180" lon="-4.3801220">
        <ele>655.9</ele>
        <time>2018-03-28T11:33:57Z</time>
      </trkpt>
      <trkpt lat="36.7794180" lon="-4.3801220">
        <ele>655.9</ele>
        <time>2018-03-28T11:33:58Z</time>
      </trkpt>
      <trkpt lat="36.7791720" lon="-4.3801100">
        <ele>654.9</ele>
        <time>2018-03-28T11:33:59Z</time>
      </trkpt>
      <trkpt lat="36.7790600" lon="-4.3800880">
        <ele>654.9</ele>
        <time>2018-03-28T11:34:00Z</time>
      </trkpt>
      <trkpt lat="36.7789450" lon="-4.3800670">
        <ele>652.9</ele>
        <time>2018-03-28T11:34:01Z</time>
      </trkpt>
      <trkpt lat="36.7789450" lon="-4.3800670">
        <ele>652.9</ele>
        <time>2018-03-28T11:34:02Z</time>
      </trkpt>
      <trkpt lat="36.7786880" lon="-4.3800230">
        <ele>650.9</ele>
        <time>2018-03-28T11:34:03Z</time>
      </trkpt>
      <trkpt lat="36.7785580" lon="-4.3799950">
        <ele>650.9</ele>
        <time>2018-03-28T11:34:04Z</time>
      </trkpt>
      <trkpt lat="36.7785580" lon="-4.3799950">
        <ele>648.9</ele>
        <time>2018-03-28T11:34:05Z</time>
      </trkpt>
      <trkpt lat="36.7782950" lon="-4.3798870">
        <ele>648.9</ele>
        <time>2018-03-28T11:34:06Z</time>
      </trkpt>
      <trkpt lat="36.7781680" lon="-4.3798070">
        <ele>646.9</ele>
        <time>2018-03-28T11:34:07Z</time>
      </trkpt>
      <trkpt lat="36.7781680" lon="-4.3798070">
        <ele>644.9</ele>
        <time>2018-03-28T11:34:08Z</time>
      </trkpt>
      <trkpt lat="36.7778970" lon="-4.3796570">
        <ele>644.9</ele>
        <time>2018-03-28T11:34:09Z</time>
      </trkpt>
      <trkpt lat="36.7777500" lon="-4.3796080">
        <ele>641.9</ele>
        <time>2018-03-28T11:34:10Z</time>
      </trkpt>
      <trkpt lat="36.7777500" lon="-4.3796080">
        <ele>641.9</ele>
        <time>2018-03-28T11:34:11Z</time>
      </trkpt>
      <trkpt lat="36.7774500" lon="-4.3795480">
        <ele>639.9</ele>
        <time>2018-03-28T11:34:12Z</time>
      </trkpt>
      <trkpt lat="36.7774500" lon="-4.3795480">
        <ele>639.9</ele>
        <time>2018-03-28T11:34:13Z</time>
      </trkpt>
      <trkpt lat="36.7771530" lon="-4.3795130">
        <ele>637.9</ele>
        <time>2018-03-28T11:34:14Z</time>
      </trkpt>
      <trkpt lat="36.7771530" lon="-4.3795130">
        <ele>637.9</ele>
        <time>2018-03-28T11:34:15Z</time>
      </trkpt>
      <trkpt lat="36.7768920" lon="-4.3794580">
        <ele>636.9</ele>
        <time>2018-03-28T11:34:16Z</time>
      </trkpt>
      <trkpt lat="36.7768920" lon="-4.3794580">
        <ele>636.9</ele>
        <time>2018-03-28T11:34:17Z</time>
      </trkpt>
      <trkpt lat="36.7766700" lon="-4.3793650">
        <ele>634.9</ele>
        <time>2018-03-28T11:34:18Z</time>
      </trkpt>
      <trkpt lat="36.7765730" lon="-4.3793050">
        <ele>634.9</ele>
        <time>2018-03-28T11:34:19Z</time>
      </trkpt>
      <trkpt lat="36.7765730" lon="-4.3793050">
        <ele>633.9</ele>
        <time>2018-03-28T11:34:20Z</time>
      </trkpt>
      <trkpt lat="36.7764020" lon="-4.3791950">
        <ele>633.9</ele>
        <time>2018-03-28T11:34:21Z</time>
      </trkpt>
      <trkpt lat="36.7764020" lon="-4.3791950">
        <ele>632.9</ele>
        <time>2018-03-28T11:34:22Z</time>
      </trkpt>
      <trkpt lat="36.7762350" lon="-4.3791320">
        <ele>632.9</ele>
        <time>2018-03-28T11:34:23Z</time>
      </trkpt>
      <trkpt lat="36.7761480" lon="-4.3791420">
        <ele>631.9</ele>
        <time>2018-03-28T11:34:24Z</time>
      </trkpt>
      <trkpt lat="36.7760600" lon="-4.3791780">
        <ele>631.9</ele>
        <time>2018-03-28T11:34:25Z</time>
      </trkpt>
      <trkpt lat="36.7760600" lon="-4.3791780">
        <ele>630.9</ele>
        <time>2018-03-28T11:34:26Z</time>
      </trkpt>
      <trkpt lat="36.7759000" lon="-4.3793200">
        <ele>630.9</ele>
        <time>2018-03-28T11:34:27Z</time>
      </trkpt>
      <trkpt lat="36.7759000" lon="-4.3793200">
        <ele>628.9</ele>
        <time>2018-03-28T11:34:28Z</time>
      </trkpt>
      <trkpt lat="36.7758220" lon="-4.3795400">
        <ele>628.9</ele>
        <time>2018-03-28T11:34:29Z</time>
      </trkpt>
      <trkpt lat="36.7758200" lon="-4.3796470">
        <ele>627.9</ele>
        <time>2018-03-28T11:34:30Z</time>
      </trkpt>
      <trkpt lat="36.7758200" lon="-4.3796470">
        <ele>627.9</ele>
        <time>2018-03-28T11:34:31Z</time>
      </trkpt>
      <trkpt lat="36.7758780" lon="-4.3798580">
        <ele>626.9</ele>
        <time>2018-03-28T11:34:32Z</time>
      </trkpt>
      <trkpt lat="36.7758780" lon="-4.3798580">
        <ele>626.9</ele>
        <time>2018-03-28T11:34:33Z</time>
      </trkpt>
      <trkpt lat="36.7760100" lon="-4.3800150">
        <ele>624.9</ele>
        <time>2018-03-28T11:34:34Z</time>
      </trkpt>
      <trkpt lat="36.7760970" lon="-4.3800480">
        <ele>624.9</ele>
        <time>2018-03-28T11:34:35Z</time>
      </trkpt>
      <trkpt lat="36.7760970" lon="-4.3800480">
        <ele>623.9</ele>
        <time>2018-03-28T11:34:36Z</time>
      </trkpt>
      <trkpt lat="36.7762820" lon="-4.3800420">
        <ele>621.9</ele>
        <time>2018-03-28T11:34:37Z</time>
      </trkpt>
      <trkpt lat="36.7762820" lon="-4.3800420">
        <ele>621.9</ele>
        <time>2018-03-28T11:34:38Z</time>
      </trkpt>
      <trkpt lat="36.7764670" lon="-4.3799930">
        <ele>621.9</ele>
        <time>2018-03-28T11:34:39Z</time>
      </trkpt>
      <trkpt lat="36.7764670" lon="-4.3799930">
        <ele>621.9</ele>
        <time>2018-03-28T11:34:40Z</time>
      </trkpt>
      <trkpt lat="36.7766600" lon="-4.3799920">
        <ele>620.9</ele>
        <time>2018-03-28T11:34:41Z</time>
      </trkpt>
      <trkpt lat="36.7767630" lon="-4.3800150">
        <ele>620.9</ele>
        <time>2018-03-28T11:34:42Z</time>
      </trkpt>
      <trkpt lat="36.7767630" lon="-4.3800150">
        <ele>618.9</ele>
        <time>2018-03-28T11:34:43Z</time>
      </trkpt>
      <trkpt lat="36.7769700" lon="-4.3800730">
        <ele>618.9</ele>
        <time>2018-03-28T11:34:44Z</time>
      </trkpt>
      <trkpt lat="36.7769700" lon="-4.3800730">
        <ele>617.9</ele>
        <time>2018-03-28T11:34:45Z</time>
      </trkpt>
      <trkpt lat="36.7771530" lon="-4.3800500">
        <ele>617.9</ele>
        <time>2018-03-28T11:34:46Z</time>
      </trkpt>
      <trkpt lat="36.7772330" lon="-4.3799970">
        <ele>616.9</ele>
        <time>2018-03-28T11:34:47Z</time>
      </trkpt>
      <trkpt lat="36.7772330" lon="-4.3799970">
        <ele>616.9</ele>
        <time>2018-03-28T11:34:48Z</time>
      </trkpt>
      <trkpt lat="36.7773500" lon="-4.3798270">
        <ele>615.9</ele>
        <time>2018-03-28T11:34:49Z</time>
      </trkpt>
      <trkpt lat="36.7773500" lon="-4.3798270">
        <ele>615.9</ele>
        <time>2018-03-28T11:34:50Z</time>
      </trkpt>
      <trkpt lat="36.7774270" lon="-4.3796180">
        <ele>614.9</ele>
        <time>2018-03-28T11:34:51Z</time>
      </trkpt>
      <trkpt lat="36.7774270" lon="-4.3796180">
        <ele>614.9</ele>
        <time>2018-03-28T11:34:52Z</time>
      </trkpt>
      <trkpt lat="36.7774050" lon="-4.3793600">
        <ele>613.9</ele>
        <time>2018-03-28T11:34:53Z</time>
      </trkpt>
      <trkpt lat="36.7773500" lon="-4.3792230">
        <ele>613.9</ele>
        <time>2018-03-28T11:34:54Z</time>
      </trkpt>
      <trkpt lat="36.7772930" lon="-4.3790900">
        <ele>612.9</ele>
        <time>2018-03-28T11:34:55Z</time>
      </trkpt>
      <trkpt lat="36.7772930" lon="-4.3790900">
        <ele>612.9</ele>
        <time>2018-03-28T11:34:56Z</time>
      </trkpt>
      <trkpt lat="36.7770700" lon="-4.3789750">
        <ele>612.9</ele>
        <time>2018-03-28T11:34:57Z</time>
      </trkpt>
      <trkpt lat="36.7770070" lon="-4.3789680">
        <ele>611.9</ele>
        <time>2018-03-28T11:34:58Z</time>
      </trkpt>
      <trkpt lat="36.7768820" lon="-4.3789530">
        <ele>611.9</ele>
        <time>2018-03-28T11:34:59Z</time>
      </trkpt>
      <trkpt lat="36.7768820" lon="-4.3789530">
        <ele>610.9</ele>
        <time>2018-03-28T11:35:00Z</time>
      </trkpt>
      <trkpt lat="36.7766580" lon="-4.3788070">
        <ele>610.9</ele>
        <time>2018-03-28T11:35:01Z</time>
      </trkpt>
      <trkpt lat="36.7766580" lon="-4.3788070">
        <ele>609.9</ele>
        <time>2018-03-28T11:35:02Z</time>
      </trkpt>
      <trkpt lat="36.7764800" lon="-4.3786030">
        <ele>609.9</ele>
        <time>2018-03-28T11:35:03Z</time>
      </trkpt>
      <trkpt lat="36.7764100" lon="-4.3785000">
        <ele>607.9</ele>
        <time>2018-03-28T11:35:04Z</time>
      </trkpt>
      <trkpt lat="36.7764100" lon="-4.3785000">
        <ele>606.9</ele>
        <time>2018-03-28T11:35:05Z</time>
      </trkpt>
      <trkpt lat="36.7762800" lon="-4.3782950">
        <ele>606.9</ele>
        <time>2018-03-28T11:35:06Z</time>
      </trkpt>
      <trkpt lat="36.7762020" lon="-4.3782180">
        <ele>605.9</ele>
        <time>2018-03-28T11:35:07Z</time>
      </trkpt>
      <trkpt lat="36.7762020" lon="-4.3782180">
        <ele>605.9</ele>
        <time>2018-03-28T11:35:08Z</time>
      </trkpt>
      <trkpt lat="36.7760230" lon="-4.3781520">
        <ele>604.9</ele>
        <time>2018-03-28T11:35:09Z</time>
      </trkpt>
      <trkpt lat="36.7760230" lon="-4.3781520">
        <ele>604.9</ele>
        <time>2018-03-28T11:35:10Z</time>
      </trkpt>
      <trkpt lat="36.7758200" lon="-4.3781850">
        <ele>602.9</ele>
        <time>2018-03-28T11:35:11Z</time>
      </trkpt>
      <trkpt lat="36.7757170" lon="-4.3782230">
        <ele>602.9</ele>
        <time>2018-03-28T11:35:12Z</time>
      </trkpt>
      <trkpt lat="36.7757170" lon="-4.3782230">
        <ele>601.9</ele>
        <time>2018-03-28T11:35:13Z</time>
      </trkpt>
      <trkpt lat="36.7755180" lon="-4.3783030">
        <ele>601.9</ele>
        <time>2018-03-28T11:35:14Z</time>
      </trkpt>
      <trkpt lat="36.7754150" lon="-4.3783450">
        <ele>601.9</ele>
        <time>2018-03-28T11:35:15Z</time>
      </trkpt>
      <trkpt lat="36.7754150" lon="-4.3783450">
        <ele>600.9</ele>
        <time>2018-03-28T11:35:16Z</time>
      </trkpt>
      <trkpt lat="36.7752020" lon="-4.3784100">
        <ele>600.9</ele>
        <time>2018-03-28T11:35:17Z</time>
      </trkpt>
      <trkpt lat="36.7752020" lon="-4.3784100">
        <ele>598.9</ele>
        <time>2018-03-28T11:35:18Z</time>
      </trkpt>
      <trkpt lat="36.7749870" lon="-4.3784380">
        <ele>598.9</ele>
        <time>2018-03-28T11:35:19Z</time>
      </trkpt>
      <trkpt lat="36.7749870" lon="-4.3784380">
        <ele>597.9</ele>
        <time>2018-03-28T11:35:20Z</time>
      </trkpt>
      <trkpt lat="36.7747830" lon="-4.3784320">
        <ele>597.9</ele>
        <time>2018-03-28T11:35:21Z</time>
      </trkpt>
      <trkpt lat="36.7747830" lon="-4.3784320">
        <ele>596.9</ele>
        <time>2018-03-28T11:35:22Z</time>
      </trkpt>
      <trkpt lat="36.7746030" lon="-4.3784300">
        <ele>596.9</ele>
        <time>2018-03-28T11:35:23Z</time>
      </trkpt>
      <trkpt lat="36.7745050" lon="-4.3784380">
        <ele>595.9</ele>
        <time>2018-03-28T11:35:24Z</time>
      </trkpt>
      <trkpt lat="36.7744170" lon="-4.3784670">
        <ele>595.9</ele>
        <time>2018-03-28T11:35:25Z</time>
      </trkpt>
      <trkpt lat="36.7744170" lon="-4.3784670">
        <ele>594.9</ele>
        <time>2018-03-28T11:35:26Z</time>
      </trkpt>
      <trkpt lat="36.7742400" lon="-4.3785700">
        <ele>594.9</ele>
        <time>2018-03-28T11:35:27Z</time>
      </trkpt>
      <trkpt lat="36.7742400" lon="-4.3785700">
        <ele>592.9</ele>
        <time>2018-03-28T11:35:28Z</time>
      </trkpt>
      <trkpt lat="36.7741430" lon="-4.3787530">
        <ele>592.9</ele>
        <time>2018-03-28T11:35:29Z</time>
      </trkpt>
      <trkpt lat="36.7741430" lon="-4.3787530">
        <ele>591.9</ele>
        <time>2018-03-28T11:35:30Z</time>
      </trkpt>
      <trkpt lat="36.7741200" lon="-4.3789720">
        <ele>591.9</ele>
        <time>2018-03-28T11:35:31Z</time>
      </trkpt>
      <trkpt lat="36.7741200" lon="-4.3789720">
        <ele>590.9</ele>
        <time>2018-03-28T11:35:32Z</time>
      </trkpt>
      <trkpt lat="36.7741630" lon="-4.3791830">
        <ele>590.9</ele>
        <time>2018-03-28T11:35:33Z</time>
      </trkpt>
      <trkpt lat="36.7742050" lon="-4.3792780">
        <ele>589.9</ele>
        <time>2018-03-28T11:35:34Z</time>
      </trkpt>
      <trkpt lat="36.7742050" lon="-4.3792780">
        <ele>588.9</ele>
        <time>2018-03-28T11:35:35Z</time>
      </trkpt>
      <trkpt lat="36.7743630" lon="-4.3794030">
        <ele>588.9</ele>
        <time>2018-03-28T11:35:36Z</time>
      </trkpt>
      <trkpt lat="36.7743630" lon="-4.3794030">
        <ele>587.9</ele>
        <time>2018-03-28T11:35:37Z</time>
      </trkpt>
      <trkpt lat="36.7745400" lon="-4.3794700">
        <ele>587.9</ele>
        <time>2018-03-28T11:35:38Z</time>
      </trkpt>
      <trkpt lat="36.7746320" lon="-4.3794900">
        <ele>586.9</ele>
        <time>2018-03-28T11:35:39Z</time>
      </trkpt>
      <trkpt lat="36.7746780" lon="-4.3794950">
        <ele>586.9</ele>
        <time>2018-03-28T11:35:40Z</time>
      </trkpt>
      <trkpt lat="36.7747230" lon="-4.3795010">
        <ele>585.9</ele>
        <time>2018-03-28T11:35:41Z</time>
      </trkpt>
      <trkpt lat="36.7748130" lon="-4.3795130">
        <ele>585.9</ele>
        <time>2018-03-28T11:35:42Z</time>
      </trkpt>
      <trkpt lat="36.7749800" lon="-4.3794980">
        <ele>584.9</ele>
        <time>2018-03-28T11:35:43Z</time>
      </trkpt>
      <trkpt lat="36.7750630" lon="-4.3794590">
        <ele>584.9</ele>
        <time>2018-03-28T11:35:44Z</time>
      </trkpt>
      <trkpt lat="36.7751450" lon="-4.3794200">
        <ele>584.9</ele>
        <time>2018-03-28T11:35:45Z</time>
      </trkpt>
      <trkpt lat="36.7751450" lon="-4.3794200">
        <ele>584.9</ele>
        <time>2018-03-28T11:35:46Z</time>
      </trkpt>
      <trkpt lat="36.7752720" lon="-4.3792780">
        <ele>582.9</ele>
        <time>2018-03-28T11:35:47Z</time>
      </trkpt>
      <trkpt lat="36.7752720" lon="-4.3792780">
        <ele>582.9</ele>
        <time>2018-03-28T11:35:48Z</time>
      </trkpt>
      <trkpt lat="36.7753380" lon="-4.3790830">
        <ele>581.9</ele>
        <time>2018-03-28T11:35:49Z</time>
      </trkpt>
      <trkpt lat="36.7753380" lon="-4.3790830">
        <ele>581.9</ele>
        <time>2018-03-28T11:35:50Z</time>
      </trkpt>
      <trkpt lat="36.7753850" lon="-4.3788650">
        <ele>580.9</ele>
        <time>2018-03-28T11:35:51Z</time>
      </trkpt>
      <trkpt lat="36.7753850" lon="-4.3788650">
        <ele>580.9</ele>
        <time>2018-03-28T11:35:52Z</time>
      </trkpt>
      <trkpt lat="36.7754320" lon="-4.3786480">
        <ele>579.9</ele>
        <time>2018-03-28T11:35:53Z</time>
      </trkpt>
      <trkpt lat="36.7754320" lon="-4.3786480">
        <ele>579.9</ele>
        <time>2018-03-28T11:35:54Z</time>
      </trkpt>
      <trkpt lat="36.7754800" lon="-4.3784350">
        <ele>578.9</ele>
        <time>2018-03-28T11:35:55Z</time>
      </trkpt>
      <trkpt lat="36.7754800" lon="-4.3784350">
        <ele>578.9</ele>
        <time>2018-03-28T11:35:56Z</time>
      </trkpt>
      <trkpt lat="36.7754550" lon="-4.3780320">
        <ele>577.9</ele>
        <time>2018-03-28T11:35:57Z</time>
      </trkpt>
      <trkpt lat="36.7754080" lon="-4.3780120">
        <ele>577.9</ele>
        <time>2018-03-28T11:35:58Z</time>
      </trkpt>
      <trkpt lat="36.7753610" lon="-4.3779920">
        <ele>576.9</ele>
        <time>2018-03-28T11:35:59Z</time>
      </trkpt>
      <trkpt lat="36.7752670" lon="-4.3779530">
        <ele>576.9</ele>
        <time>2018-03-28T11:36:00Z</time>
      </trkpt>
      <trkpt lat="36.7747400" lon="-4.3780380">
        <ele>575.9</ele>
        <time>2018-03-28T11:36:01Z</time>
      </trkpt>
      <trkpt lat="36.7747400" lon="-4.3780380">
        <ele>575.9</ele>
        <time>2018-03-28T11:36:02Z</time>
      </trkpt>
      <trkpt lat="36.7744670" lon="-4.3779900">
        <ele>574.9</ele>
        <time>2018-03-28T11:36:03Z</time>
      </trkpt>
      <trkpt lat="36.7743330" lon="-4.3779850">
        <ele>573.9</ele>
        <time>2018-03-28T11:36:04Z</time>
      </trkpt>
      <trkpt lat="36.7742220" lon="-4.3779720">
        <ele>573.9</ele>
        <time>2018-03-28T11:36:05Z</time>
      </trkpt>
      <trkpt lat="36.7742220" lon="-4.3779720">
        <ele>572.9</ele>
        <time>2018-03-28T11:36:06Z</time>
      </trkpt>
      <trkpt lat="36.7739830" lon="-4.3779600">
        <ele>572.9</ele>
        <time>2018-03-28T11:36:07Z</time>
      </trkpt>
      <trkpt lat="36.7739830" lon="-4.3779600">
        <ele>570.9</ele>
        <time>2018-03-28T11:36:08Z</time>
      </trkpt>
      <trkpt lat="36.7737570" lon="-4.3779030">
        <ele>570.9</ele>
        <time>2018-03-28T11:36:09Z</time>
      </trkpt>
      <trkpt lat="36.7737570" lon="-4.3779030">
        <ele>569.9</ele>
        <time>2018-03-28T11:36:10Z</time>
      </trkpt>
      <trkpt lat="36.7735380" lon="-4.3777970">
        <ele>569.9</ele>
        <time>2018-03-28T11:36:11Z</time>
      </trkpt>
      <trkpt lat="36.7735380" lon="-4.3777970">
        <ele>568.9</ele>
        <time>2018-03-28T11:36:12Z</time>
      </trkpt>
      <trkpt lat="36.7732970" lon="-4.3776850">
        <ele>568.9</ele>
        <time>2018-03-28T11:36:13Z</time>
      </trkpt>
      <trkpt lat="36.7732970" lon="-4.3776850">
        <ele>566.9</ele>
        <time>2018-03-28T11:36:14Z</time>
      </trkpt>
      <trkpt lat="36.7730620" lon="-4.3775450">
        <ele>566.9</ele>
        <time>2018-03-28T11:36:15Z</time>
      </trkpt>
      <trkpt lat="36.7729520" lon="-4.3774650">
        <ele>565.9</ele>
        <time>2018-03-28T11:36:16Z</time>
      </trkpt>
      <trkpt lat="36.7729520" lon="-4.3774650">
        <ele>565.9</ele>
        <time>2018-03-28T11:36:17Z</time>
      </trkpt>
      <trkpt lat="36.7727350" lon="-4.3773000">
        <ele>563.9</ele>
        <time>2018-03-28T11:36:18Z</time>
      </trkpt>
      <trkpt lat="36.7726270" lon="-4.3772150">
        <ele>563.9</ele>
        <time>2018-03-28T11:36:19Z</time>
      </trkpt>
      <trkpt lat="36.7726270" lon="-4.3772150">
        <ele>562.9</ele>
        <time>2018-03-28T11:36:20Z</time>
      </trkpt>
      <trkpt lat="36.7724080" lon="-4.3770550">
        <ele>562.9</ele>
        <time>2018-03-28T11:36:21Z</time>
      </trkpt>
      <trkpt lat="36.7724080" lon="-4.3770550">
        <ele>560.9</ele>
        <time>2018-03-28T11:36:22Z</time>
      </trkpt>
      <trkpt lat="36.7721880" lon="-4.3768930">
        <ele>560.9</ele>
        <time>2018-03-28T11:36:23Z</time>
      </trkpt>
      <trkpt lat="36.7721880" lon="-4.3768930">
        <ele>559.9</ele>
        <time>2018-03-28T11:36:24Z</time>
      </trkpt>
      <trkpt lat="36.7719670" lon="-4.3767220">
        <ele>559.9</ele>
        <time>2018-03-28T11:36:25Z</time>
      </trkpt>
      <trkpt lat="36.7718570" lon="-4.3766330">
        <ele>558.9</ele>
        <time>2018-03-28T11:36:26Z</time>
      </trkpt>
      <trkpt lat="36.7718570" lon="-4.3766330">
        <ele>558.9</ele>
        <time>2018-03-28T11:36:27Z</time>
      </trkpt>
      <trkpt lat="36.7716320" lon="-4.3764700">
        <ele>556.9</ele>
        <time>2018-03-28T11:36:28Z</time>
      </trkpt>
      <trkpt lat="36.7716320" lon="-4.3764700">
        <ele>556.9</ele>
        <time>2018-03-28T11:36:29Z</time>
      </trkpt>
      <trkpt lat="36.7714150" lon="-4.3763100">
        <ele>554.9</ele>
        <time>2018-03-28T11:36:30Z</time>
      </trkpt>
      <trkpt lat="36.7713230" lon="-4.3762420">
        <ele>554.9</ele>
        <time>2018-03-28T11:36:31Z</time>
      </trkpt>
      <trkpt lat="36.7713230" lon="-4.3762420">
        <ele>553.9</ele>
        <time>2018-03-28T11:36:32Z</time>
      </trkpt>
      <trkpt lat="36.7711120" lon="-4.3760880">
        <ele>551.9</ele>
        <time>2018-03-28T11:36:33Z</time>
      </trkpt>
      <trkpt lat="36.7711120" lon="-4.3760880">
        <ele>551.9</ele>
        <time>2018-03-28T11:36:34Z</time>
      </trkpt>
      <trkpt lat="36.7708830" lon="-4.3759720">
        <ele>549.9</ele>
        <time>2018-03-28T11:36:35Z</time>
      </trkpt>
      <trkpt lat="36.7708830" lon="-4.3759720">
        <ele>549.9</ele>
        <time>2018-03-28T11:36:36Z</time>
      </trkpt>
      <trkpt lat="36.7706400" lon="-4.3759250">
        <ele>548.9</ele>
        <time>2018-03-28T11:36:37Z</time>
      </trkpt>
      <trkpt lat="36.7705170" lon="-4.3759170">
        <ele>548.9</ele>
        <time>2018-03-28T11:36:38Z</time>
      </trkpt>
      <trkpt lat="36.7705170" lon="-4.3759170">
        <ele>546.9</ele>
        <time>2018-03-28T11:36:39Z</time>
      </trkpt>
      <trkpt lat="36.7702620" lon="-4.3758970">
        <ele>546.9</ele>
        <time>2018-03-28T11:36:40Z</time>
      </trkpt>
      <trkpt lat="36.7701330" lon="-4.3758880">
        <ele>545.9</ele>
        <time>2018-03-28T11:36:41Z</time>
      </trkpt>
      <trkpt lat="36.7701330" lon="-4.3758880">
        <ele>545.9</ele>
        <time>2018-03-28T11:36:42Z</time>
      </trkpt>
      <trkpt lat="36.7698680" lon="-4.3758830">
        <ele>543.9</ele>
        <time>2018-03-28T11:36:43Z</time>
      </trkpt>
      <trkpt lat="36.7698030" lon="-4.3758800">
        <ele>543.9</ele>
        <time>2018-03-28T11:36:44Z</time>
      </trkpt>
      <trkpt lat="36.7697370" lon="-4.3758770">
        <ele>542.9</ele>
        <time>2018-03-28T11:36:45Z</time>
      </trkpt>
      <trkpt lat="36.7696050" lon="-4.3758720">
        <ele>542.9</ele>
        <time>2018-03-28T11:36:46Z</time>
      </trkpt>
      <trkpt lat="36.7693430" lon="-4.3758550">
        <ele>540.9</ele>
        <time>2018-03-28T11:36:47Z</time>
      </trkpt>
      <trkpt lat="36.7693430" lon="-4.3758550">
        <ele>540.9</ele>
        <time>2018-03-28T11:36:48Z</time>
      </trkpt>
      <trkpt lat="36.7690820" lon="-4.3758420">
        <ele>539.9</ele>
        <time>2018-03-28T11:36:49Z</time>
      </trkpt>
      <trkpt lat="36.7690820" lon="-4.3758420">
        <ele>539.9</ele>
        <time>2018-03-28T11:36:50Z</time>
      </trkpt>
      <trkpt lat="36.7688220" lon="-4.3758270">
        <ele>538.9</ele>
        <time>2018-03-28T11:36:51Z</time>
      </trkpt>
      <trkpt lat="36.7688220" lon="-4.3758270">
        <ele>538.9</ele>
        <time>2018-03-28T11:36:52Z</time>
      </trkpt>
      <trkpt lat="36.7685620" lon="-4.3758220">
        <ele>536.9</ele>
        <time>2018-03-28T11:36:53Z</time>
      </trkpt>
      <trkpt lat="36.7685620" lon="-4.3758220">
        <ele>536.9</ele>
        <time>2018-03-28T11:36:54Z</time>
      </trkpt>
      <trkpt lat="36.7683020" lon="-4.3758570">
        <ele>534.9</ele>
        <time>2018-03-28T11:36:55Z</time>
      </trkpt>
      <trkpt lat="36.7681730" lon="-4.3758830">
        <ele>534.9</ele>
        <time>2018-03-28T11:36:56Z</time>
      </trkpt>
      <trkpt lat="36.7681730" lon="-4.3758830">
        <ele>532.9</ele>
        <time>2018-03-28T11:36:57Z</time>
      </trkpt>
      <trkpt lat="36.7679170" lon="-4.3759280">
        <ele>532.9</ele>
        <time>2018-03-28T11:36:58Z</time>
      </trkpt>
      <trkpt lat="36.7679170" lon="-4.3759280">
        <ele>530.9</ele>
        <time>2018-03-28T11:36:59Z</time>
      </trkpt>
      <trkpt lat="36.7676620" lon="-4.3759420">
        <ele>530.9</ele>
        <time>2018-03-28T11:37:00Z</time>
      </trkpt>
      <trkpt lat="36.7675380" lon="-4.3759270">
        <ele>529.9</ele>
        <time>2018-03-28T11:37:01Z</time>
      </trkpt>
      <trkpt lat="36.7675380" lon="-4.3759270">
        <ele>527.9</ele>
        <time>2018-03-28T11:37:02Z</time>
      </trkpt>
      <trkpt lat="36.7673050" lon="-4.3758720">
        <ele>527.9</ele>
        <time>2018-03-28T11:37:03Z</time>
      </trkpt>
      <trkpt lat="36.7673050" lon="-4.3758720">
        <ele>525.9</ele>
        <time>2018-03-28T11:37:04Z</time>
      </trkpt>
      <trkpt lat="36.7671080" lon="-4.3758070">
        <ele>525.9</ele>
        <time>2018-03-28T11:37:05Z</time>
      </trkpt>
      <trkpt lat="36.7671080" lon="-4.3758070">
        <ele>525.9</ele>
        <time>2018-03-28T11:37:06Z</time>
      </trkpt>
      <trkpt lat="36.7669130" lon="-4.3757620">
        <ele>524.9</ele>
        <time>2018-03-28T11:37:07Z</time>
      </trkpt>
      <trkpt lat="36.7669130" lon="-4.3757620">
        <ele>524.9</ele>
        <time>2018-03-28T11:37:08Z</time>
      </trkpt>
      <trkpt lat="36.7667100" lon="-4.3757980">
        <ele>522.9</ele>
        <time>2018-03-28T11:37:09Z</time>
      </trkpt>
      <trkpt lat="36.7666150" lon="-4.3758480">
        <ele>522.9</ele>
        <time>2018-03-28T11:37:10Z</time>
      </trkpt>
      <trkpt lat="36.7666150" lon="-4.3758480">
        <ele>521.9</ele>
        <time>2018-03-28T11:37:11Z</time>
      </trkpt>
      <trkpt lat="36.7664700" lon="-4.3760050">
        <ele>521.9</ele>
        <time>2018-03-28T11:37:12Z</time>
      </trkpt>
      <trkpt lat="36.7664170" lon="-4.3761030">
        <ele>520.9</ele>
        <time>2018-03-28T11:37:13Z</time>
      </trkpt>
      <trkpt lat="36.7664170" lon="-4.3761030">
        <ele>520.9</ele>
        <time>2018-03-28T11:37:14Z</time>
      </trkpt>
      <trkpt lat="36.7663480" lon="-4.3763230">
        <ele>519.9</ele>
        <time>2018-03-28T11:37:15Z</time>
      </trkpt>
      <trkpt lat="36.7663480" lon="-4.3763230">
        <ele>519.9</ele>
        <time>2018-03-28T11:37:16Z</time>
      </trkpt>
      <trkpt lat="36.7663370" lon="-4.3765400">
        <ele>518.9</ele>
        <time>2018-03-28T11:37:17Z</time>
      </trkpt>
      <trkpt lat="36.7663370" lon="-4.3765400">
        <ele>518.9</ele>
        <time>2018-03-28T11:37:18Z</time>
      </trkpt>
      <trkpt lat="36.7663930" lon="-4.3767520">
        <ele>518.9</ele>
        <time>2018-03-28T11:37:19Z</time>
      </trkpt>
      <trkpt lat="36.7663930" lon="-4.3767520">
        <ele>518.9</ele>
        <time>2018-03-28T11:37:20Z</time>
      </trkpt>
      <trkpt lat="36.7664970" lon="-4.3769380">
        <ele>517.9</ele>
        <time>2018-03-28T11:37:21Z</time>
      </trkpt>
      <trkpt lat="36.7665680" lon="-4.3770120">
        <ele>517.9</ele>
        <time>2018-03-28T11:37:22Z</time>
      </trkpt>
      <trkpt lat="36.7665680" lon="-4.3770120">
        <ele>515.9</ele>
        <time>2018-03-28T11:37:23Z</time>
      </trkpt>
      <trkpt lat="36.7667450" lon="-4.3771170">
        <ele>515.9</ele>
        <time>2018-03-28T11:37:24Z</time>
      </trkpt>
      <trkpt lat="36.7667450" lon="-4.3771170">
        <ele>514.9</ele>
        <time>2018-03-28T11:37:25Z</time>
      </trkpt>
      <trkpt lat="36.7669520" lon="-4.3771520">
        <ele>514.9</ele>
        <time>2018-03-28T11:37:26Z</time>
      </trkpt>
      <trkpt lat="36.7669520" lon="-4.3771520">
        <ele>513.9</ele>
        <time>2018-03-28T11:37:27Z</time>
      </trkpt>
      <trkpt lat="36.7671680" lon="-4.3770970">
        <ele>513.9</ele>
        <time>2018-03-28T11:37:28Z</time>
      </trkpt>
      <trkpt lat="36.7672720" lon="-4.3770430">
        <ele>512.9</ele>
        <time>2018-03-28T11:37:29Z</time>
      </trkpt>
      <trkpt lat="36.7672720" lon="-4.3770430">
        <ele>511.9</ele>
        <time>2018-03-28T11:37:30Z</time>
      </trkpt>
      <trkpt lat="36.7674750" lon="-4.3769150">
        <ele>511.9</ele>
        <time>2018-03-28T11:37:31Z</time>
      </trkpt>
      <trkpt lat="36.7674750" lon="-4.3769150">
        <ele>510.9</ele>
        <time>2018-03-28T11:37:32Z</time>
      </trkpt>
      <trkpt lat="36.7676870" lon="-4.3767920">
        <ele>510.9</ele>
        <time>2018-03-28T11:37:33Z</time>
      </trkpt>
      <trkpt lat="36.7677920" lon="-4.3767270">
        <ele>509.9</ele>
        <time>2018-03-28T11:37:34Z</time>
      </trkpt>
      <trkpt lat="36.7677920" lon="-4.3767270">
        <ele>509.9</ele>
        <time>2018-03-28T11:37:35Z</time>
      </trkpt>
      <trkpt lat="36.7679930" lon="-4.3765950">
        <ele>508.9</ele>
        <time>2018-03-28T11:37:36Z</time>
      </trkpt>
      <trkpt lat="36.7680970" lon="-4.3765380">
        <ele>508.9</ele>
        <time>2018-03-28T11:37:37Z</time>
      </trkpt>
      <trkpt lat="36.7680970" lon="-4.3765380">
        <ele>507.9</ele>
        <time>2018-03-28T11:37:38Z</time>
      </trkpt>
      <trkpt lat="36.7683200" lon="-4.3764750">
        <ele>507.9</ele>
        <time>2018-03-28T11:37:39Z</time>
      </trkpt>
      <trkpt lat="36.7683200" lon="-4.3764750">
        <ele>505.9</ele>
        <time>2018-03-28T11:37:40Z</time>
      </trkpt>
      <trkpt lat="36.7685570" lon="-4.3764480">
        <ele>505.9</ele>
        <time>2018-03-28T11:37:41Z</time>
      </trkpt>
      <trkpt lat="36.7685570" lon="-4.3764480">
        <ele>504.9</ele>
        <time>2018-03-28T11:37:42Z</time>
      </trkpt>
      <trkpt lat="36.7687750" lon="-4.3764170">
        <ele>504.9</ele>
        <time>2018-03-28T11:37:43Z</time>
      </trkpt>
      <trkpt lat="36.7687750" lon="-4.3764170">
        <ele>503.9</ele>
        <time>2018-03-28T11:37:44Z</time>
      </trkpt>
      <trkpt lat="36.7689820" lon="-4.3764430">
        <ele>503.9</ele>
        <time>2018-03-28T11:37:45Z</time>
      </trkpt>
      <trkpt lat="36.7690780" lon="-4.3765000">
        <ele>501.9</ele>
        <time>2018-03-28T11:37:46Z</time>
      </trkpt>
      <trkpt lat="36.7690780" lon="-4.3765000">
        <ele>501.9</ele>
        <time>2018-03-28T11:37:47Z</time>
      </trkpt>
      <trkpt lat="36.7692430" lon="-4.3766670">
        <ele>500.9</ele>
        <time>2018-03-28T11:37:48Z</time>
      </trkpt>
      <trkpt lat="36.7692430" lon="-4.3766670">
        <ele>500.9</ele>
        <time>2018-03-28T11:37:49Z</time>
      </trkpt>
      <trkpt lat="36.7694000" lon="-4.3768480">
        <ele>498.9</ele>
        <time>2018-03-28T11:37:50Z</time>
      </trkpt>
      <trkpt lat="36.7694000" lon="-4.3768480">
        <ele>498.9</ele>
        <time>2018-03-28T11:37:51Z</time>
      </trkpt>
      <trkpt lat="36.7695420" lon="-4.3770080">
        <ele>496.9</ele>
        <time>2018-03-28T11:37:52Z</time>
      </trkpt>
      <trkpt lat="36.7695420" lon="-4.3770080">
        <ele>496.9</ele>
        <time>2018-03-28T11:37:53Z</time>
      </trkpt>
      <trkpt lat="36.7697080" lon="-4.3771030">
        <ele>495.9</ele>
        <time>2018-03-28T11:37:54Z</time>
      </trkpt>
      <trkpt lat="36.7697080" lon="-4.3771030">
        <ele>495.9</ele>
        <time>2018-03-28T11:37:55Z</time>
      </trkpt>
      <trkpt lat="36.7699030" lon="-4.3771170">
        <ele>494.9</ele>
        <time>2018-03-28T11:37:56Z</time>
      </trkpt>
      <trkpt lat="36.7700050" lon="-4.3771150">
        <ele>494.9</ele>
        <time>2018-03-28T11:37:57Z</time>
      </trkpt>
      <trkpt lat="36.7700050" lon="-4.3771150">
        <ele>492.9</ele>
        <time>2018-03-28T11:37:58Z</time>
      </trkpt>
      <trkpt lat="36.7702540" lon="-4.3771260">
        <ele>491.9</ele>
        <time>2018-03-28T11:37:59Z</time>
      </trkpt>
      <trkpt lat="36.7703000" lon="-4.3771400">
        <ele>491.9</ele>
        <time>2018-03-28T11:38:00Z</time>
      </trkpt>
      <trkpt lat="36.7703920" lon="-4.3771670">
        <ele>491.9</ele>
        <time>2018-03-28T11:38:01Z</time>
      </trkpt>
      <trkpt lat="36.7703920" lon="-4.3771670">
        <ele>491.9</ele>
        <time>2018-03-28T11:38:02Z</time>
      </trkpt>
      <trkpt lat="36.7705370" lon="-4.3773330">
        <ele>489.9</ele>
        <time>2018-03-28T11:38:03Z</time>
      </trkpt>
      <trkpt lat="36.7705920" lon="-4.3774480">
        <ele>489.9</ele>
        <time>2018-03-28T11:38:04Z</time>
      </trkpt>
      <trkpt lat="36.7705920" lon="-4.3774480">
        <ele>488.9</ele>
        <time>2018-03-28T11:38:05Z</time>
      </trkpt>
      <trkpt lat="36.7706920" lon="-4.3776750">
        <ele>488.9</ele>
        <time>2018-03-28T11:38:06Z</time>
      </trkpt>
      <trkpt lat="36.7706920" lon="-4.3776750">
        <ele>487.9</ele>
        <time>2018-03-28T11:38:07Z</time>
      </trkpt>
      <trkpt lat="36.7707880" lon="-4.3779150">
        <ele>487.9</ele>
        <time>2018-03-28T11:38:08Z</time>
      </trkpt>
      <trkpt lat="36.7707880" lon="-4.3779150">
        <ele>486.9</ele>
        <time>2018-03-28T11:38:09Z</time>
      </trkpt>
      <trkpt lat="36.7708780" lon="-4.3781620">
        <ele>486.9</ele>
        <time>2018-03-28T11:38:10Z</time>
      </trkpt>
      <trkpt lat="36.7708780" lon="-4.3781620">
        <ele>486.9</ele>
        <time>2018-03-28T11:38:11Z</time>
      </trkpt>
      <trkpt lat="36.7709720" lon="-4.3784030">
        <ele>486.9</ele>
        <time>2018-03-28T11:38:12Z</time>
      </trkpt>
      <trkpt lat="36.7709720" lon="-4.3784030">
        <ele>485.9</ele>
        <time>2018-03-28T11:38:13Z</time>
      </trkpt>
      <trkpt lat="36.7710650" lon="-4.3786400">
        <ele>485.9</ele>
        <time>2018-03-28T11:38:14Z</time>
      </trkpt>
      <trkpt lat="36.7710890" lon="-4.3787000">
        <ele>485.9</ele>
        <time>2018-03-28T11:38:15Z</time>
      </trkpt>
      <trkpt lat="36.7711120" lon="-4.3787600">
        <ele>485.9</ele>
        <time>2018-03-28T11:38:16Z</time>
      </trkpt>
      <trkpt lat="36.7711580" lon="-4.3788800">
        <ele>484.9</ele>
        <time>2018-03-28T11:38:17Z</time>
      </trkpt>
      <trkpt lat="36.7712480" lon="-4.3791150">
        <ele>484.9</ele>
        <time>2018-03-28T11:38:18Z</time>
      </trkpt>
      <trkpt lat="36.7712930" lon="-4.3792280">
        <ele>484.9</ele>
        <time>2018-03-28T11:38:19Z</time>
      </trkpt>
      <trkpt lat="36.7712930" lon="-4.3792280">
        <ele>484.9</ele>
        <time>2018-03-28T11:38:20Z</time>
      </trkpt>
      <trkpt lat="36.7713750" lon="-4.3794500">
        <ele>484.9</ele>
        <time>2018-03-28T11:38:21Z</time>
      </trkpt>
      <trkpt lat="36.7713750" lon="-4.3794500">
        <ele>484.9</ele>
        <time>2018-03-28T11:38:22Z</time>
      </trkpt>
      <trkpt lat="36.7714120" lon="-4.3796880">
        <ele>484.9</ele>
        <time>2018-03-28T11:38:23Z</time>
      </trkpt>
      <trkpt lat="36.7714070" lon="-4.3798130">
        <ele>484.9</ele>
        <time>2018-03-28T11:38:24Z</time>
      </trkpt>
      <trkpt lat="36.7714070" lon="-4.3798130">
        <ele>484.9</ele>
        <time>2018-03-28T11:38:25Z</time>
      </trkpt>
      <trkpt lat="36.7713430" lon="-4.3800530">
        <ele>484.9</ele>
        <time>2018-03-28T11:38:26Z</time>
      </trkpt>
      <trkpt lat="36.7712500" lon="-4.3802100">
        <ele>483.9</ele>
        <time>2018-03-28T11:38:27Z</time>
      </trkpt>
      <trkpt lat="36.7712170" lon="-4.3802610">
        <ele>483.9</ele>
        <time>2018-03-28T11:38:28Z</time>
      </trkpt>
      <trkpt lat="36.7711500" lon="-4.3803630">
        <ele>483.9</ele>
        <time>2018-03-28T11:38:29Z</time>
      </trkpt>
      <trkpt lat="36.7710960" lon="-4.3804440">
        <ele>481.9</ele>
        <time>2018-03-28T11:38:30Z</time>
      </trkpt>
      <trkpt lat="36.7710420" lon="-4.3805250">
        <ele>481.9</ele>
        <time>2018-03-28T11:38:31Z</time>
      </trkpt>
      <trkpt lat="36.7709330" lon="-4.3806870">
        <ele>479.9</ele>
        <time>2018-03-28T11:38:32Z</time>
      </trkpt>
      <trkpt lat="36.7709330" lon="-4.3806870">
        <ele>479.9</ele>
        <time>2018-03-28T11:38:33Z</time>
      </trkpt>
      <trkpt lat="36.7708000" lon="-4.3809250">
        <ele>478.9</ele>
        <time>2018-03-28T11:38:34Z</time>
      </trkpt>
      <trkpt lat="36.7708000" lon="-4.3809250">
        <ele>478.9</ele>
        <time>2018-03-28T11:38:35Z</time>
      </trkpt>
      <trkpt lat="36.7707100" lon="-4.3812000">
        <ele>476.9</ele>
        <time>2018-03-28T11:38:36Z</time>
      </trkpt>
      <trkpt lat="36.7707100" lon="-4.3812000">
        <ele>476.9</ele>
        <time>2018-03-28T11:38:37Z</time>
      </trkpt>
      <trkpt lat="36.7706600" lon="-4.3814950">
        <ele>475.9</ele>
        <time>2018-03-28T11:38:38Z</time>
      </trkpt>
      <trkpt lat="36.7706600" lon="-4.3814950">
        <ele>475.9</ele>
        <time>2018-03-28T11:38:39Z</time>
      </trkpt>
      <trkpt lat="36.7706630" lon="-4.3818020">
        <ele>473.9</ele>
        <time>2018-03-28T11:38:40Z</time>
      </trkpt>
      <trkpt lat="36.7706630" lon="-4.3818020">
        <ele>473.9</ele>
        <time>2018-03-28T11:38:41Z</time>
      </trkpt>
      <trkpt lat="36.7706880" lon="-4.3821150">
        <ele>472.9</ele>
        <time>2018-03-28T11:38:42Z</time>
      </trkpt>
      <trkpt lat="36.7706880" lon="-4.3821150">
        <ele>472.9</ele>
        <time>2018-03-28T11:38:43Z</time>
      </trkpt>
      <trkpt lat="36.7707150" lon="-4.3824300">
        <ele>470.9</ele>
        <time>2018-03-28T11:38:44Z</time>
      </trkpt>
      <trkpt lat="36.7707150" lon="-4.3824300">
        <ele>470.9</ele>
        <time>2018-03-28T11:38:45Z</time>
      </trkpt>
      <trkpt lat="36.7707500" lon="-4.3827470">
        <ele>469.9</ele>
        <time>2018-03-28T11:38:46Z</time>
      </trkpt>
      <trkpt lat="36.7707500" lon="-4.3827470">
        <ele>469.9</ele>
        <time>2018-03-28T11:38:47Z</time>
      </trkpt>
      <trkpt lat="36.7707800" lon="-4.3830750">
        <ele>468.9</ele>
        <time>2018-03-28T11:38:48Z</time>
      </trkpt>
      <trkpt lat="36.7707950" lon="-4.3832380">
        <ele>468.9</ele>
        <time>2018-03-28T11:38:49Z</time>
      </trkpt>
      <trkpt lat="36.7707950" lon="-4.3832380">
        <ele>466.9</ele>
        <time>2018-03-28T11:38:50Z</time>
      </trkpt>
      <trkpt lat="36.7708270" lon="-4.3835680">
        <ele>466.9</ele>
        <time>2018-03-28T11:38:51Z</time>
      </trkpt>
      <trkpt lat="36.7708270" lon="-4.3835680">
        <ele>464.9</ele>
        <time>2018-03-28T11:38:52Z</time>
      </trkpt>
      <trkpt lat="36.7708570" lon="-4.3839020">
        <ele>464.9</ele>
        <time>2018-03-28T11:38:53Z</time>
      </trkpt>
      <trkpt lat="36.7708650" lon="-4.3840700">
        <ele>462.9</ele>
        <time>2018-03-28T11:38:54Z</time>
      </trkpt>
      <trkpt lat="36.7708650" lon="-4.3840700">
        <ele>462.9</ele>
        <time>2018-03-28T11:38:55Z</time>
      </trkpt>
      <trkpt lat="36.7708930" lon="-4.3844050">
        <ele>461.9</ele>
        <time>2018-03-28T11:38:56Z</time>
      </trkpt>
      <trkpt lat="36.7708930" lon="-4.3844050">
        <ele>461.9</ele>
        <time>2018-03-28T11:38:57Z</time>
      </trkpt>
      <trkpt lat="36.7709170" lon="-4.3847430">
        <ele>458.9</ele>
        <time>2018-03-28T11:38:58Z</time>
      </trkpt>
      <trkpt lat="36.7709240" lon="-4.3849970">
        <ele>458.9</ele>
        <time>2018-03-28T11:38:59Z</time>
      </trkpt>
      <trkpt lat="36.7709250" lon="-4.3850820">
        <ele>456.9</ele>
        <time>2018-03-28T11:39:00Z</time>
      </trkpt>
      <trkpt lat="36.7709270" lon="-4.3852520">
        <ele>456.9</ele>
        <time>2018-03-28T11:39:01Z</time>
      </trkpt>
      <trkpt lat="36.7709270" lon="-4.3852520">
        <ele>454.9</ele>
        <time>2018-03-28T11:39:02Z</time>
      </trkpt>
      <trkpt lat="36.7709000" lon="-4.3855920">
        <ele>454.9</ele>
        <time>2018-03-28T11:39:03Z</time>
      </trkpt>
      <trkpt lat="36.7708820" lon="-4.3857620">
        <ele>452.9</ele>
        <time>2018-03-28T11:39:04Z</time>
      </trkpt>
      <trkpt lat="36.7708820" lon="-4.3857620">
        <ele>452.9</ele>
        <time>2018-03-28T11:39:05Z</time>
      </trkpt>
      <trkpt lat="36.7708180" lon="-4.3860870">
        <ele>450.9</ele>
        <time>2018-03-28T11:39:06Z</time>
      </trkpt>
      <trkpt lat="36.7708180" lon="-4.3860870">
        <ele>450.9</ele>
        <time>2018-03-28T11:39:07Z</time>
      </trkpt>
      <trkpt lat="36.7707600" lon="-4.3863820">
        <ele>449.9</ele>
        <time>2018-03-28T11:39:08Z</time>
      </trkpt>
      <trkpt lat="36.7707600" lon="-4.3863820">
        <ele>449.9</ele>
        <time>2018-03-28T11:39:09Z</time>
      </trkpt>
      <trkpt lat="36.7707900" lon="-4.3866850">
        <ele>447.9</ele>
        <time>2018-03-28T11:39:10Z</time>
      </trkpt>
      <trkpt lat="36.7708350" lon="-4.3868300">
        <ele>447.9</ele>
        <time>2018-03-28T11:39:11Z</time>
      </trkpt>
      <trkpt lat="36.7708350" lon="-4.3868300">
        <ele>446.9</ele>
        <time>2018-03-28T11:39:12Z</time>
      </trkpt>
      <trkpt lat="36.7709520" lon="-4.3870880">
        <ele>446.9</ele>
        <time>2018-03-28T11:39:13Z</time>
      </trkpt>
      <trkpt lat="36.7709520" lon="-4.3870880">
        <ele>444.9</ele>
        <time>2018-03-28T11:39:14Z</time>
      </trkpt>
      <trkpt lat="36.7710500" lon="-4.3873030">
        <ele>444.9</ele>
        <time>2018-03-28T11:39:15Z</time>
      </trkpt>
      <trkpt lat="36.7710500" lon="-4.3873030">
        <ele>443.9</ele>
        <time>2018-03-28T11:39:16Z</time>
      </trkpt>
      <trkpt lat="36.7711100" lon="-4.3875150">
        <ele>443.9</ele>
        <time>2018-03-28T11:39:17Z</time>
      </trkpt>
      <trkpt lat="36.7711100" lon="-4.3875150">
        <ele>442.9</ele>
        <time>2018-03-28T11:39:18Z</time>
      </trkpt>
      <trkpt lat="36.7710880" lon="-4.3877550">
        <ele>442.9</ele>
        <time>2018-03-28T11:39:19Z</time>
      </trkpt>
      <trkpt lat="36.7710880" lon="-4.3877550">
        <ele>441.9</ele>
        <time>2018-03-28T11:39:20Z</time>
      </trkpt>
      <trkpt lat="36.7710000" lon="-4.3879830">
        <ele>441.9</ele>
        <time>2018-03-28T11:39:21Z</time>
      </trkpt>
      <trkpt lat="36.7709370" lon="-4.3880700">
        <ele>439.9</ele>
        <time>2018-03-28T11:39:22Z</time>
      </trkpt>
      <trkpt lat="36.7709370" lon="-4.3880700">
        <ele>439.9</ele>
        <time>2018-03-28T11:39:23Z</time>
      </trkpt>
      <trkpt lat="36.7707520" lon="-4.3881970">
        <ele>438.9</ele>
        <time>2018-03-28T11:39:24Z</time>
      </trkpt>
      <trkpt lat="36.7706120" lon="-4.3882280">
        <ele>438.9</ele>
        <time>2018-03-28T11:39:25Z</time>
      </trkpt>
      <trkpt lat="36.7704900" lon="-4.3882770">
        <ele>437.9</ele>
        <time>2018-03-28T11:39:26Z</time>
      </trkpt>
      <trkpt lat="36.7704900" lon="-4.3882770">
        <ele>436.9</ele>
        <time>2018-03-28T11:39:27Z</time>
      </trkpt>
      <trkpt lat="36.7702420" lon="-4.3883620">
        <ele>436.9</ele>
        <time>2018-03-28T11:39:28Z</time>
      </trkpt>
      <trkpt lat="36.7702420" lon="-4.3883620">
        <ele>435.9</ele>
        <time>2018-03-28T11:39:29Z</time>
      </trkpt>
      <trkpt lat="36.7700220" lon="-4.3884850">
        <ele>435.9</ele>
        <time>2018-03-28T11:39:30Z</time>
      </trkpt>
      <trkpt lat="36.7699220" lon="-4.3885680">
        <ele>434.9</ele>
        <time>2018-03-28T11:39:31Z</time>
      </trkpt>
      <trkpt lat="36.7698400" lon="-4.3886820">
        <ele>434.9</ele>
        <time>2018-03-28T11:39:32Z</time>
      </trkpt>
      <trkpt lat="36.7698400" lon="-4.3886820">
        <ele>432.9</ele>
        <time>2018-03-28T11:39:33Z</time>
      </trkpt>
      <trkpt lat="36.7697180" lon="-4.3889380">
        <ele>432.9</ele>
        <time>2018-03-28T11:39:34Z</time>
      </trkpt>
      <trkpt lat="36.7697180" lon="-4.3889380">
        <ele>431.9</ele>
        <time>2018-03-28T11:39:35Z</time>
      </trkpt>
      <trkpt lat="36.7696050" lon="-4.3892080">
        <ele>431.9</ele>
        <time>2018-03-28T11:39:36Z</time>
      </trkpt>
      <trkpt lat="36.7695470" lon="-4.3893450">
        <ele>430.9</ele>
        <time>2018-03-28T11:39:37Z</time>
      </trkpt>
      <trkpt lat="36.7695470" lon="-4.3893450">
        <ele>430.9</ele>
        <time>2018-03-28T11:39:38Z</time>
      </trkpt>
      <trkpt lat="36.7694320" lon="-4.3896280">
        <ele>429.9</ele>
        <time>2018-03-28T11:39:39Z</time>
      </trkpt>
      <trkpt lat="36.7694320" lon="-4.3896280">
        <ele>429.9</ele>
        <time>2018-03-28T11:39:40Z</time>
      </trkpt>
      <trkpt lat="36.7693200" lon="-4.3899200">
        <ele>427.9</ele>
        <time>2018-03-28T11:39:41Z</time>
      </trkpt>
      <trkpt lat="36.7693200" lon="-4.3899200">
        <ele>427.9</ele>
        <time>2018-03-28T11:39:42Z</time>
      </trkpt>
      <trkpt lat="36.7692370" lon="-4.3902150">
        <ele>426.9</ele>
        <time>2018-03-28T11:39:43Z</time>
      </trkpt>
      <trkpt lat="36.7692080" lon="-4.3903680">
        <ele>426.9</ele>
        <time>2018-03-28T11:39:44Z</time>
      </trkpt>
      <trkpt lat="36.7692080" lon="-4.3903680">
        <ele>424.9</ele>
        <time>2018-03-28T11:39:45Z</time>
      </trkpt>
      <trkpt lat="36.7691580" lon="-4.3906850">
        <ele>424.9</ele>
        <time>2018-03-28T11:39:46Z</time>
      </trkpt>
      <trkpt lat="36.7691580" lon="-4.3906850">
        <ele>423.9</ele>
        <time>2018-03-28T11:39:47Z</time>
      </trkpt>
      <trkpt lat="36.7690950" lon="-4.3909980">
        <ele>423.9</ele>
        <time>2018-03-28T11:39:48Z</time>
      </trkpt>
      <trkpt lat="36.7690570" lon="-4.3911570">
        <ele>421.9</ele>
        <time>2018-03-28T11:39:49Z</time>
      </trkpt>
      <trkpt lat="36.7690570" lon="-4.3911570">
        <ele>421.9</ele>
        <time>2018-03-28T11:39:50Z</time>
      </trkpt>
      <trkpt lat="36.7689700" lon="-4.3914670">
        <ele>420.9</ele>
        <time>2018-03-28T11:39:51Z</time>
      </trkpt>
      <trkpt lat="36.7689250" lon="-4.3916200">
        <ele>420.9</ele>
        <time>2018-03-28T11:39:52Z</time>
      </trkpt>
      <trkpt lat="36.7689250" lon="-4.3916200">
        <ele>418.9</ele>
        <time>2018-03-28T11:39:53Z</time>
      </trkpt>
      <trkpt lat="36.7688280" lon="-4.3919180">
        <ele>418.9</ele>
        <time>2018-03-28T11:39:54Z</time>
      </trkpt>
      <trkpt lat="36.7687820" lon="-4.3920600">
        <ele>416.9</ele>
        <time>2018-03-28T11:39:55Z</time>
      </trkpt>
      <trkpt lat="36.7687820" lon="-4.3920600">
        <ele>414.9</ele>
        <time>2018-03-28T11:39:56Z</time>
      </trkpt>
      <trkpt lat="36.7687030" lon="-4.3923270">
        <ele>414.9</ele>
        <time>2018-03-28T11:39:57Z</time>
      </trkpt>
      <trkpt lat="36.7687030" lon="-4.3923270">
        <ele>413.9</ele>
        <time>2018-03-28T11:39:58Z</time>
      </trkpt>
      <trkpt lat="36.7687000" lon="-4.3926020">
        <ele>413.9</ele>
        <time>2018-03-28T11:39:59Z</time>
      </trkpt>
      <trkpt lat="36.7687000" lon="-4.3926020">
        <ele>411.9</ele>
        <time>2018-03-28T11:40:00Z</time>
      </trkpt>
      <trkpt lat="36.7687650" lon="-4.3928880">
        <ele>411.9</ele>
        <time>2018-03-28T11:40:01Z</time>
      </trkpt>
      <trkpt lat="36.7687650" lon="-4.3928880">
        <ele>410.9</ele>
        <time>2018-03-28T11:40:02Z</time>
      </trkpt>
      <trkpt lat="36.7688870" lon="-4.3931500">
        <ele>410.9</ele>
        <time>2018-03-28T11:40:03Z</time>
      </trkpt>
      <trkpt lat="36.7689450" lon="-4.3932720">
        <ele>409.9</ele>
        <time>2018-03-28T11:40:04Z</time>
      </trkpt>
      <trkpt lat="36.7689450" lon="-4.3932720">
        <ele>409.9</ele>
        <time>2018-03-28T11:40:05Z</time>
      </trkpt>
      <trkpt lat="36.7690370" lon="-4.3934980">
        <ele>408.9</ele>
        <time>2018-03-28T11:40:06Z</time>
      </trkpt>
      <trkpt lat="36.7690650" lon="-4.3936180">
        <ele>408.9</ele>
        <time>2018-03-28T11:40:07Z</time>
      </trkpt>
      <trkpt lat="36.7690650" lon="-4.3936180">
        <ele>407.9</ele>
        <time>2018-03-28T11:40:08Z</time>
      </trkpt>
      <trkpt lat="36.7690680" lon="-4.3938770">
        <ele>407.9</ele>
        <time>2018-03-28T11:40:09Z</time>
      </trkpt>
      <trkpt lat="36.7690280" lon="-4.3939930">
        <ele>406.9</ele>
        <time>2018-03-28T11:40:10Z</time>
      </trkpt>
      <trkpt lat="36.7690280" lon="-4.3939930">
        <ele>406.9</ele>
        <time>2018-03-28T11:40:11Z</time>
      </trkpt>
      <trkpt lat="36.7688880" lon="-4.3941950">
        <ele>404.9</ele>
        <time>2018-03-28T11:40:12Z</time>
      </trkpt>
      <trkpt lat="36.7688880" lon="-4.3941950">
        <ele>404.9</ele>
        <time>2018-03-28T11:40:13Z</time>
      </trkpt>
      <trkpt lat="36.7687020" lon="-4.3943600">
        <ele>403.9</ele>
        <time>2018-03-28T11:40:14Z</time>
      </trkpt>
      <trkpt lat="36.7687020" lon="-4.3943600">
        <ele>403.9</ele>
        <time>2018-03-28T11:40:15Z</time>
      </trkpt>
      <trkpt lat="36.7685220" lon="-4.3945370">
        <ele>402.9</ele>
        <time>2018-03-28T11:40:16Z</time>
      </trkpt>
      <trkpt lat="36.7684380" lon="-4.3946300">
        <ele>402.9</ele>
        <time>2018-03-28T11:40:17Z</time>
      </trkpt>
      <trkpt lat="36.7684380" lon="-4.3946300">
        <ele>400.9</ele>
        <time>2018-03-28T11:40:18Z</time>
      </trkpt>
      <trkpt lat="36.7683320" lon="-4.3948500">
        <ele>400.9</ele>
        <time>2018-03-28T11:40:19Z</time>
      </trkpt>
      <trkpt lat="36.7683320" lon="-4.3948500">
        <ele>399.9</ele>
        <time>2018-03-28T11:40:20Z</time>
      </trkpt>
      <trkpt lat="36.7683220" lon="-4.3950950">
        <ele>399.9</ele>
        <time>2018-03-28T11:40:21Z</time>
      </trkpt>
      <trkpt lat="36.7683420" lon="-4.3952280">
        <ele>398.9</ele>
        <time>2018-03-28T11:40:22Z</time>
      </trkpt>
      <trkpt lat="36.7683420" lon="-4.3952280">
        <ele>398.9</ele>
        <time>2018-03-28T11:40:23Z</time>
      </trkpt>
      <trkpt lat="36.7683820" lon="-4.3955050">
        <ele>397.9</ele>
        <time>2018-03-28T11:40:24Z</time>
      </trkpt>
      <trkpt lat="36.7684020" lon="-4.3956470">
        <ele>395.9</ele>
        <time>2018-03-28T11:40:25Z</time>
      </trkpt>
      <trkpt lat="36.7684020" lon="-4.3956470">
        <ele>395.9</ele>
        <time>2018-03-28T11:40:26Z</time>
      </trkpt>
      <trkpt lat="36.7684520" lon="-4.3959300">
        <ele>394.9</ele>
        <time>2018-03-28T11:40:27Z</time>
      </trkpt>
      <trkpt lat="36.7684570" lon="-4.3960010">
        <ele>394.9</ele>
        <time>2018-03-28T11:40:28Z</time>
      </trkpt>
      <trkpt lat="36.7684620" lon="-4.3960730">
        <ele>393.9</ele>
        <time>2018-03-28T11:40:29Z</time>
      </trkpt>
      <trkpt lat="36.7684720" lon="-4.3962170">
        <ele>393.9</ele>
        <time>2018-03-28T11:40:30Z</time>
      </trkpt>
      <trkpt lat="36.7683800" lon="-4.3964630">
        <ele>391.9</ele>
        <time>2018-03-28T11:40:31Z</time>
      </trkpt>
      <trkpt lat="36.7683500" lon="-4.3965240">
        <ele>391.9</ele>
        <time>2018-03-28T11:40:32Z</time>
      </trkpt>
      <trkpt lat="36.7683190" lon="-4.3965850">
        <ele>390.9</ele>
        <time>2018-03-28T11:40:33Z</time>
      </trkpt>
      <trkpt lat="36.7682570" lon="-4.3967070">
        <ele>390.9</ele>
        <time>2018-03-28T11:40:34Z</time>
      </trkpt>
      <trkpt lat="36.7681950" lon="-4.3969750">
        <ele>389.9</ele>
        <time>2018-03-28T11:40:35Z</time>
      </trkpt>
      <trkpt lat="36.7681950" lon="-4.3969750">
        <ele>389.9</ele>
        <time>2018-03-28T11:40:36Z</time>
      </trkpt>
      <trkpt lat="36.7682180" lon="-4.3972820">
        <ele>388.9</ele>
        <time>2018-03-28T11:40:37Z</time>
      </trkpt>
      <trkpt lat="36.7682180" lon="-4.3972820">
        <ele>388.9</ele>
        <time>2018-03-28T11:40:38Z</time>
      </trkpt>
      <trkpt lat="36.7682850" lon="-4.3975820">
        <ele>386.9</ele>
        <time>2018-03-28T11:40:39Z</time>
      </trkpt>
      <trkpt lat="36.7682850" lon="-4.3975820">
        <ele>386.9</ele>
        <time>2018-03-28T11:40:40Z</time>
      </trkpt>
      <trkpt lat="36.7683170" lon="-4.3978800">
        <ele>385.9</ele>
        <time>2018-03-28T11:40:41Z</time>
      </trkpt>
      <trkpt lat="36.7683180" lon="-4.3980250">
        <ele>385.9</ele>
        <time>2018-03-28T11:40:42Z</time>
      </trkpt>
      <trkpt lat="36.7683180" lon="-4.3980250">
        <ele>384.9</ele>
        <time>2018-03-28T11:40:43Z</time>
      </trkpt>
      <trkpt lat="36.7683120" lon="-4.3982930">
        <ele>384.9</ele>
        <time>2018-03-28T11:40:44Z</time>
      </trkpt>
      <trkpt lat="36.7683120" lon="-4.3982930">
        <ele>383.9</ele>
        <time>2018-03-28T11:40:45Z</time>
      </trkpt>
      <trkpt lat="36.7682820" lon="-4.3985130">
        <ele>383.9</ele>
        <time>2018-03-28T11:40:46Z</time>
      </trkpt>
      <trkpt lat="36.7682380" lon="-4.3986150">
        <ele>382.9</ele>
        <time>2018-03-28T11:40:47Z</time>
      </trkpt>
      <trkpt lat="36.7682380" lon="-4.3986150">
        <ele>382.9</ele>
        <time>2018-03-28T11:40:48Z</time>
      </trkpt>
      <trkpt lat="36.7680650" lon="-4.3987330">
        <ele>381.9</ele>
        <time>2018-03-28T11:40:49Z</time>
      </trkpt>
      <trkpt lat="36.7680650" lon="-4.3987330">
        <ele>381.9</ele>
        <time>2018-03-28T11:40:50Z</time>
      </trkpt>
      <trkpt lat="36.7678700" lon="-4.3987480">
        <ele>379.9</ele>
        <time>2018-03-28T11:40:51Z</time>
      </trkpt>
      <trkpt lat="36.7677730" lon="-4.3987080">
        <ele>379.9</ele>
        <time>2018-03-28T11:40:52Z</time>
      </trkpt>
      <trkpt lat="36.7677730" lon="-4.3987080">
        <ele>378.9</ele>
        <time>2018-03-28T11:40:53Z</time>
      </trkpt>
      <trkpt lat="36.7676120" lon="-4.3985480">
        <ele>377.9</ele>
        <time>2018-03-28T11:40:54Z</time>
      </trkpt>
      <trkpt lat="36.7675400" lon="-4.3984630">
        <ele>377.9</ele>
        <time>2018-03-28T11:40:55Z</time>
      </trkpt>
      <trkpt lat="36.7675400" lon="-4.3984630">
        <ele>376.9</ele>
        <time>2018-03-28T11:40:56Z</time>
      </trkpt>
      <trkpt lat="36.7674000" lon="-4.3983170">
        <ele>376.9</ele>
        <time>2018-03-28T11:40:57Z</time>
      </trkpt>
      <trkpt lat="36.7673200" lon="-4.3982630">
        <ele>374.9</ele>
        <time>2018-03-28T11:40:58Z</time>
      </trkpt>
      <trkpt lat="36.7673200" lon="-4.3982630">
        <ele>374.9</ele>
        <time>2018-03-28T11:40:59Z</time>
      </trkpt>
      <trkpt lat="36.7671380" lon="-4.3982580">
        <ele>373.9</ele>
        <time>2018-03-28T11:41:00Z</time>
      </trkpt>
      <trkpt lat="36.7671380" lon="-4.3982580">
        <ele>373.9</ele>
        <time>2018-03-28T11:41:01Z</time>
      </trkpt>
      <trkpt lat="36.7669630" lon="-4.3983620">
        <ele>373.9</ele>
        <time>2018-03-28T11:41:02Z</time>
      </trkpt>
      <trkpt lat="36.7669630" lon="-4.3983620">
        <ele>373.9</ele>
        <time>2018-03-28T11:41:03Z</time>
      </trkpt>
      <trkpt lat="36.7668770" lon="-4.3985750">
        <ele>372.9</ele>
        <time>2018-03-28T11:41:04Z</time>
      </trkpt>
      <trkpt lat="36.7668470" lon="-4.3986830">
        <ele>372.9</ele>
        <time>2018-03-28T11:41:05Z</time>
      </trkpt>
      <trkpt lat="36.7668200" lon="-4.3987970">
        <ele>372.9</ele>
        <time>2018-03-28T11:41:06Z</time>
      </trkpt>
      <trkpt lat="36.7668100" lon="-4.3988520">
        <ele>372.9</ele>
        <time>2018-03-28T11:41:07Z</time>
      </trkpt>
      <trkpt lat="36.7667990" lon="-4.3989060">
        <ele>371.9</ele>
        <time>2018-03-28T11:41:08Z</time>
      </trkpt>
      <trkpt lat="36.7667770" lon="-4.3990150">
        <ele>371.9</ele>
        <time>2018-03-28T11:41:09Z</time>
      </trkpt>
      <trkpt lat="36.7667430" lon="-4.3992380">
        <ele>371.9</ele>
        <time>2018-03-28T11:41:10Z</time>
      </trkpt>
      <trkpt lat="36.7667430" lon="-4.3992380">
        <ele>371.9</ele>
        <time>2018-03-28T11:41:11Z</time>
      </trkpt>
      <trkpt lat="36.7667150" lon="-4.3994750">
        <ele>371.9</ele>
        <time>2018-03-28T11:41:12Z</time>
      </trkpt>
      <trkpt lat="36.7667010" lon="-4.3996500">
        <ele>371.9</ele>
        <time>2018-03-28T11:41:13Z</time>
      </trkpt>
      <trkpt lat="36.7667000" lon="-4.3997100">
        <ele>370.9</ele>
        <time>2018-03-28T11:41:14Z</time>
      </trkpt>
      <trkpt lat="36.7666970" lon="-4.3998300">
        <ele>370.9</ele>
        <time>2018-03-28T11:41:15Z</time>
      </trkpt>
      <trkpt lat="36.7666970" lon="-4.3998300">
        <ele>369.9</ele>
        <time>2018-03-28T11:41:16Z</time>
      </trkpt>
      <trkpt lat="36.7667170" lon="-4.4000800">
        <ele>369.9</ele>
        <time>2018-03-28T11:41:17Z</time>
      </trkpt>
      <trkpt lat="36.7667170" lon="-4.4000800">
        <ele>368.9</ele>
        <time>2018-03-28T11:41:18Z</time>
      </trkpt>
      <trkpt lat="36.7667480" lon="-4.4003350">
        <ele>368.9</ele>
        <time>2018-03-28T11:41:19Z</time>
      </trkpt>
      <trkpt lat="36.7667620" lon="-4.4004650">
        <ele>367.9</ele>
        <time>2018-03-28T11:41:20Z</time>
      </trkpt>
      <trkpt lat="36.7667620" lon="-4.4004650">
        <ele>367.9</ele>
        <time>2018-03-28T11:41:21Z</time>
      </trkpt>
      <trkpt lat="36.7667880" lon="-4.4007220">
        <ele>366.9</ele>
        <time>2018-03-28T11:41:22Z</time>
      </trkpt>
      <trkpt lat="36.7667880" lon="-4.4007220">
        <ele>366.9</ele>
        <time>2018-03-28T11:41:23Z</time>
      </trkpt>
      <trkpt lat="36.7668150" lon="-4.4009780">
        <ele>366.9</ele>
        <time>2018-03-28T11:41:24Z</time>
      </trkpt>
      <trkpt lat="36.7668320" lon="-4.4011030">
        <ele>366.9</ele>
        <time>2018-03-28T11:41:25Z</time>
      </trkpt>
      <trkpt lat="36.7668320" lon="-4.4011030">
        <ele>366.9</ele>
        <time>2018-03-28T11:41:26Z</time>
      </trkpt>
      <trkpt lat="36.7668720" lon="-4.4014100">
        <ele>365.9</ele>
        <time>2018-03-28T11:41:27Z</time>
      </trkpt>
      <trkpt lat="36.7668800" lon="-4.4014710">
        <ele>365.9</ele>
        <time>2018-03-28T11:41:28Z</time>
      </trkpt>
      <trkpt lat="36.7669100" lon="-4.4016490">
        <ele>365.9</ele>
        <time>2018-03-28T11:41:29Z</time>
      </trkpt>
      <trkpt lat="36.7669230" lon="-4.4017070">
        <ele>365.9</ele>
        <time>2018-03-28T11:41:30Z</time>
      </trkpt>
      <trkpt lat="36.7669480" lon="-4.4018220">
        <ele>363.9</ele>
        <time>2018-03-28T11:41:31Z</time>
      </trkpt>
      <trkpt lat="36.7669480" lon="-4.4018220">
        <ele>363.9</ele>
        <time>2018-03-28T11:41:32Z</time>
      </trkpt>
      <trkpt lat="36.7670380" lon="-4.4020470">
        <ele>363.9</ele>
        <time>2018-03-28T11:41:33Z</time>
      </trkpt>
      <trkpt lat="36.7670380" lon="-4.4020470">
        <ele>363.9</ele>
        <time>2018-03-28T11:41:34Z</time>
      </trkpt>
      <trkpt lat="36.7671570" lon="-4.4022580">
        <ele>362.9</ele>
        <time>2018-03-28T11:41:35Z</time>
      </trkpt>
      <trkpt lat="36.7671570" lon="-4.4022580">
        <ele>362.9</ele>
        <time>2018-03-28T11:41:36Z</time>
      </trkpt>
      <trkpt lat="36.7672900" lon="-4.4024470">
        <ele>362.9</ele>
        <time>2018-03-28T11:41:37Z</time>
      </trkpt>
      <trkpt lat="36.7672900" lon="-4.4024470">
        <ele>362.9</ele>
        <time>2018-03-28T11:41:38Z</time>
      </trkpt>
      <trkpt lat="36.7674170" lon="-4.4026500">
        <ele>362.9</ele>
        <time>2018-03-28T11:41:39Z</time>
      </trkpt>
      <trkpt lat="36.7674630" lon="-4.4027570">
        <ele>362.9</ele>
        <time>2018-03-28T11:41:40Z</time>
      </trkpt>
      <trkpt lat="36.7674630" lon="-4.4027570">
        <ele>361.9</ele>
        <time>2018-03-28T11:41:41Z</time>
      </trkpt>
      <trkpt lat="36.7675380" lon="-4.4029920">
        <ele>361.9</ele>
        <time>2018-03-28T11:41:42Z</time>
      </trkpt>
      <trkpt lat="36.7675380" lon="-4.4029920">
        <ele>360.9</ele>
        <time>2018-03-28T11:41:43Z</time>
      </trkpt>
      <trkpt lat="36.7676180" lon="-4.4032350">
        <ele>360.9</ele>
        <time>2018-03-28T11:41:44Z</time>
      </trkpt>
      <trkpt lat="36.7676180" lon="-4.4032350">
        <ele>359.9</ele>
        <time>2018-03-28T11:41:45Z</time>
      </trkpt>
      <trkpt lat="36.7676830" lon="-4.4034800">
        <ele>359.9</ele>
        <time>2018-03-28T11:41:46Z</time>
      </trkpt>
      <trkpt lat="36.7676830" lon="-4.4034800">
        <ele>358.9</ele>
        <time>2018-03-28T11:41:47Z</time>
      </trkpt>
      <trkpt lat="36.7676880" lon="-4.4037080">
        <ele>358.9</ele>
        <time>2018-03-28T11:41:48Z</time>
      </trkpt>
      <trkpt lat="36.7676550" lon="-4.4038200">
        <ele>356.9</ele>
        <time>2018-03-28T11:41:49Z</time>
      </trkpt>
      <trkpt lat="36.7676550" lon="-4.4038200">
        <ele>356.9</ele>
        <time>2018-03-28T11:41:50Z</time>
      </trkpt>
      <trkpt lat="36.7675300" lon="-4.4040200">
        <ele>354.9</ele>
        <time>2018-03-28T11:41:51Z</time>
      </trkpt>
      <trkpt lat="36.7674480" lon="-4.4041150">
        <ele>354.9</ele>
        <time>2018-03-28T11:41:52Z</time>
      </trkpt>
      <trkpt lat="36.7673580" lon="-4.4042080">
        <ele>353.9</ele>
        <time>2018-03-28T11:41:53Z</time>
      </trkpt>
      <trkpt lat="36.7673580" lon="-4.4042080">
        <ele>351.9</ele>
        <time>2018-03-28T11:41:54Z</time>
      </trkpt>
      <trkpt lat="36.7671680" lon="-4.4044050">
        <ele>351.9</ele>
        <time>2018-03-28T11:41:55Z</time>
      </trkpt>
      <trkpt lat="36.7671680" lon="-4.4044050">
        <ele>349.9</ele>
        <time>2018-03-28T11:41:56Z</time>
      </trkpt>
      <trkpt lat="36.7669720" lon="-4.4046100">
        <ele>349.9</ele>
        <time>2018-03-28T11:41:57Z</time>
      </trkpt>
      <trkpt lat="36.7669720" lon="-4.4046100">
        <ele>347.9</ele>
        <time>2018-03-28T11:41:58Z</time>
      </trkpt>
      <trkpt lat="36.7667630" lon="-4.4048120">
        <ele>347.9</ele>
        <time>2018-03-28T11:41:59Z</time>
      </trkpt>
      <trkpt lat="36.7666570" lon="-4.4049120">
        <ele>345.9</ele>
        <time>2018-03-28T11:42:00Z</time>
      </trkpt>
      <trkpt lat="36.7665430" lon="-4.4050120">
        <ele>345.9</ele>
        <time>2018-03-28T11:42:01Z</time>
      </trkpt>
      <trkpt lat="36.7665430" lon="-4.4050120">
        <ele>342.9</ele>
        <time>2018-03-28T11:42:02Z</time>
      </trkpt>
      <trkpt lat="36.7662850" lon="-4.4051650">
        <ele>342.9</ele>
        <time>2018-03-28T11:42:03Z</time>
      </trkpt>
      <trkpt lat="36.7662850" lon="-4.4051650">
        <ele>339.9</ele>
        <time>2018-03-28T11:42:04Z</time>
      </trkpt>
      <trkpt lat="36.7660120" lon="-4.4052600">
        <ele>339.9</ele>
        <time>2018-03-28T11:42:05Z</time>
      </trkpt>
      <trkpt lat="36.7660120" lon="-4.4052600">
        <ele>337.9</ele>
        <time>2018-03-28T11:42:06Z</time>
      </trkpt>
      <trkpt lat="36.7657470" lon="-4.4053730">
        <ele>337.9</ele>
        <time>2018-03-28T11:42:07Z</time>
      </trkpt>
      <trkpt lat="36.7657470" lon="-4.4053730">
        <ele>335.9</ele>
        <time>2018-03-28T11:42:08Z</time>
      </trkpt>
      <trkpt lat="36.7655120" lon="-4.4055350">
        <ele>335.9</ele>
        <time>2018-03-28T11:42:09Z</time>
      </trkpt>
      <trkpt lat="36.7653970" lon="-4.4056280">
        <ele>332.9</ele>
        <time>2018-03-28T11:42:10Z</time>
      </trkpt>
      <trkpt lat="36.7652830" lon="-4.4057280">
        <ele>332.9</ele>
        <time>2018-03-28T11:42:11Z</time>
      </trkpt>
      <trkpt lat="36.7651750" lon="-4.4058320">
        <ele>330.9</ele>
        <time>2018-03-28T11:42:12Z</time>
      </trkpt>
      <trkpt lat="36.7651750" lon="-4.4058320">
        <ele>330.9</ele>
        <time>2018-03-28T11:42:13Z</time>
      </trkpt>
      <trkpt lat="36.7649730" lon="-4.4060200">
        <ele>328.9</ele>
        <time>2018-03-28T11:42:14Z</time>
      </trkpt>
      <trkpt lat="36.7649730" lon="-4.4060200">
        <ele>328.9</ele>
        <time>2018-03-28T11:42:15Z</time>
      </trkpt>
      <trkpt lat="36.7647450" lon="-4.4061280">
        <ele>326.9</ele>
        <time>2018-03-28T11:42:16Z</time>
      </trkpt>
      <trkpt lat="36.7647450" lon="-4.4061280">
        <ele>326.9</ele>
        <time>2018-03-28T11:42:17Z</time>
      </trkpt>
      <trkpt lat="36.7645170" lon="-4.4061420">
        <ele>325.9</ele>
        <time>2018-03-28T11:42:18Z</time>
      </trkpt>
      <trkpt lat="36.7644050" lon="-4.4061230">
        <ele>325.9</ele>
        <time>2018-03-28T11:42:19Z</time>
      </trkpt>
      <trkpt lat="36.7644050" lon="-4.4061230">
        <ele>324.9</ele>
        <time>2018-03-28T11:42:20Z</time>
      </trkpt>
      <trkpt lat="36.7641920" lon="-4.4060650">
        <ele>324.9</ele>
        <time>2018-03-28T11:42:21Z</time>
      </trkpt>
      <trkpt lat="36.7640950" lon="-4.4060370">
        <ele>323.9</ele>
        <time>2018-03-28T11:42:22Z</time>
      </trkpt>
      <trkpt lat="36.7640950" lon="-4.4060370">
        <ele>322.9</ele>
        <time>2018-03-28T11:42:23Z</time>
      </trkpt>
      <trkpt lat="36.7639330" lon="-4.4060100">
        <ele>322.9</ele>
        <time>2018-03-28T11:42:24Z</time>
      </trkpt>
      <trkpt lat="36.7638600" lon="-4.4060250">
        <ele>321.9</ele>
        <time>2018-03-28T11:42:25Z</time>
      </trkpt>
      <trkpt lat="36.7638600" lon="-4.4060250">
        <ele>321.9</ele>
        <time>2018-03-28T11:42:26Z</time>
      </trkpt>
      <trkpt lat="36.7637700" lon="-4.4061820">
        <ele>319.9</ele>
        <time>2018-03-28T11:42:27Z</time>
      </trkpt>
      <trkpt lat="36.7637700" lon="-4.4061820">
        <ele>319.9</ele>
        <time>2018-03-28T11:42:28Z</time>
      </trkpt>
      <trkpt lat="36.7637820" lon="-4.4064130">
        <ele>318.9</ele>
        <time>2018-03-28T11:42:29Z</time>
      </trkpt>
      <trkpt lat="36.7637820" lon="-4.4064130">
        <ele>318.9</ele>
        <time>2018-03-28T11:42:30Z</time>
      </trkpt>
      <trkpt lat="36.7637750" lon="-4.4066100">
        <ele>316.9</ele>
        <time>2018-03-28T11:42:31Z</time>
      </trkpt>
      <trkpt lat="36.7637750" lon="-4.4066100">
        <ele>316.9</ele>
        <time>2018-03-28T11:42:32Z</time>
      </trkpt>
      <trkpt lat="36.7636770" lon="-4.4067620">
        <ele>315.9</ele>
        <time>2018-03-28T11:42:33Z</time>
      </trkpt>
      <trkpt lat="36.7636770" lon="-4.4067620">
        <ele>315.9</ele>
        <time>2018-03-28T11:42:34Z</time>
      </trkpt>
      <trkpt lat="36.7635100" lon="-4.4068630">
        <ele>313.9</ele>
        <time>2018-03-28T11:42:35Z</time>
      </trkpt>
      <trkpt lat="36.7635100" lon="-4.4068630">
        <ele>313.9</ele>
        <time>2018-03-28T11:42:36Z</time>
      </trkpt>
      <trkpt lat="36.7633180" lon="-4.4069650">
        <ele>311.9</ele>
        <time>2018-03-28T11:42:37Z</time>
      </trkpt>
      <trkpt lat="36.7633180" lon="-4.4069650">
        <ele>311.9</ele>
        <time>2018-03-28T11:42:38Z</time>
      </trkpt>
      <trkpt lat="36.7631080" lon="-4.4070730">
        <ele>309.9</ele>
        <time>2018-03-28T11:42:39Z</time>
      </trkpt>
      <trkpt lat="36.7629970" lon="-4.4071300">
        <ele>309.9</ele>
        <time>2018-03-28T11:42:40Z</time>
      </trkpt>
      <trkpt lat="36.7629970" lon="-4.4071300">
        <ele>307.9</ele>
        <time>2018-03-28T11:42:41Z</time>
      </trkpt>
      <trkpt lat="36.7627700" lon="-4.4072500">
        <ele>307.9</ele>
        <time>2018-03-28T11:42:42Z</time>
      </trkpt>
      <trkpt lat="36.7626520" lon="-4.4073000">
        <ele>305.9</ele>
        <time>2018-03-28T11:42:43Z</time>
      </trkpt>
      <trkpt lat="36.7626520" lon="-4.4073000">
        <ele>305.9</ele>
        <time>2018-03-28T11:42:44Z</time>
      </trkpt>
      <trkpt lat="36.7624120" lon="-4.4073550">
        <ele>304.9</ele>
        <time>2018-03-28T11:42:45Z</time>
      </trkpt>
      <trkpt lat="36.7622920" lon="-4.4073630">
        <ele>304.9</ele>
        <time>2018-03-28T11:42:46Z</time>
      </trkpt>
      <trkpt lat="36.7622920" lon="-4.4073630">
        <ele>303.9</ele>
        <time>2018-03-28T11:42:47Z</time>
      </trkpt>
      <trkpt lat="36.7620630" lon="-4.4073300">
        <ele>303.9</ele>
        <time>2018-03-28T11:42:48Z</time>
      </trkpt>
      <trkpt lat="36.7619550" lon="-4.4072930">
        <ele>303.9</ele>
        <time>2018-03-28T11:42:49Z</time>
      </trkpt>
      <trkpt lat="36.7619550" lon="-4.4072930">
        <ele>303.9</ele>
        <time>2018-03-28T11:42:50Z</time>
      </trkpt>
      <trkpt lat="36.7617500" lon="-4.4071930">
        <ele>302.9</ele>
        <time>2018-03-28T11:42:51Z</time>
      </trkpt>
      <trkpt lat="36.7616480" lon="-4.4071330">
        <ele>302.9</ele>
        <time>2018-03-28T11:42:52Z</time>
      </trkpt>
      <trkpt lat="36.7616480" lon="-4.4071330">
        <ele>302.9</ele>
        <time>2018-03-28T11:42:53Z</time>
      </trkpt>
      <trkpt lat="36.7614570" lon="-4.4069720">
        <ele>301.9</ele>
        <time>2018-03-28T11:42:54Z</time>
      </trkpt>
      <trkpt lat="36.7613680" lon="-4.4068780">
        <ele>301.9</ele>
        <time>2018-03-28T11:42:55Z</time>
      </trkpt>
      <trkpt lat="36.7613680" lon="-4.4068780">
        <ele>299.9</ele>
        <time>2018-03-28T11:42:56Z</time>
      </trkpt>
      <trkpt lat="36.7611800" lon="-4.4067020">
        <ele>299.9</ele>
        <time>2018-03-28T11:42:57Z</time>
      </trkpt>
      <trkpt lat="36.7610800" lon="-4.4066330">
        <ele>298.9</ele>
        <time>2018-03-28T11:42:58Z</time>
      </trkpt>
      <trkpt lat="36.7609800" lon="-4.4065750">
        <ele>298.9</ele>
        <time>2018-03-28T11:42:59Z</time>
      </trkpt>
      <trkpt lat="36.7609800" lon="-4.4065750">
        <ele>297.9</ele>
        <time>2018-03-28T11:43:00Z</time>
      </trkpt>
      <trkpt lat="36.7607970" lon="-4.4064850">
        <ele>297.9</ele>
        <time>2018-03-28T11:43:01Z</time>
      </trkpt>
      <trkpt lat="36.7607970" lon="-4.4064850">
        <ele>296.9</ele>
        <time>2018-03-28T11:43:02Z</time>
      </trkpt>
      <trkpt lat="36.7606400" lon="-4.4064700">
        <ele>296.9</ele>
        <time>2018-03-28T11:43:03Z</time>
      </trkpt>
      <trkpt lat="36.7606400" lon="-4.4064700">
        <ele>295.9</ele>
        <time>2018-03-28T11:43:04Z</time>
      </trkpt>
      <trkpt lat="36.7605200" lon="-4.4065800">
        <ele>295.9</ele>
        <time>2018-03-28T11:43:05Z</time>
      </trkpt>
      <trkpt lat="36.7605200" lon="-4.4065800">
        <ele>294.9</ele>
        <time>2018-03-28T11:43:06Z</time>
      </trkpt>
      <trkpt lat="36.7604370" lon="-4.4067770">
        <ele>294.9</ele>
        <time>2018-03-28T11:43:07Z</time>
      </trkpt>
      <trkpt lat="36.7604370" lon="-4.4067770">
        <ele>292.9</ele>
        <time>2018-03-28T11:43:08Z</time>
      </trkpt>
      <trkpt lat="36.7603580" lon="-4.4069870">
        <ele>292.9</ele>
        <time>2018-03-28T11:43:09Z</time>
      </trkpt>
      <trkpt lat="36.7603580" lon="-4.4069870">
        <ele>291.9</ele>
        <time>2018-03-28T11:43:10Z</time>
      </trkpt>
      <trkpt lat="36.7603380" lon="-4.4071750">
        <ele>291.9</ele>
        <time>2018-03-28T11:43:11Z</time>
      </trkpt>
      <trkpt lat="36.7603380" lon="-4.4071750">
        <ele>290.9</ele>
        <time>2018-03-28T11:43:12Z</time>
      </trkpt>
      <trkpt lat="36.7604350" lon="-4.4073280">
        <ele>290.9</ele>
        <time>2018-03-28T11:43:13Z</time>
      </trkpt>
      <trkpt lat="36.7604350" lon="-4.4073280">
        <ele>289.9</ele>
        <time>2018-03-28T11:43:14Z</time>
      </trkpt>
      <trkpt lat="36.7605920" lon="-4.4073850">
        <ele>289.9</ele>
        <time>2018-03-28T11:43:15Z</time>
      </trkpt>
      <trkpt lat="36.7605920" lon="-4.4073850">
        <ele>288.9</ele>
        <time>2018-03-28T11:43:16Z</time>
      </trkpt>
      <trkpt lat="36.7607280" lon="-4.4074400">
        <ele>288.9</ele>
        <time>2018-03-28T11:43:17Z</time>
      </trkpt>
      <trkpt lat="36.7607280" lon="-4.4074400">
        <ele>288.9</ele>
        <time>2018-03-28T11:43:18Z</time>
      </trkpt>
      <trkpt lat="36.7607750" lon="-4.4075550">
        <ele>288.9</ele>
        <time>2018-03-28T11:43:19Z</time>
      </trkpt>
      <trkpt lat="36.7607270" lon="-4.4076130">
        <ele>287.9</ele>
        <time>2018-03-28T11:43:20Z</time>
      </trkpt>
      <trkpt lat="36.7607270" lon="-4.4076130">
        <ele>287.9</ele>
        <time>2018-03-28T11:43:21Z</time>
      </trkpt>
      <trkpt lat="36.7605970" lon="-4.4076600">
        <ele>287.9</ele>
        <time>2018-03-28T11:43:22Z</time>
      </trkpt>
      <trkpt lat="36.7605410" lon="-4.4076330">
        <ele>286.9</ele>
        <time>2018-03-28T11:43:23Z</time>
      </trkpt>
      <trkpt lat="36.7604850" lon="-4.4076060">
        <ele>286.9</ele>
        <time>2018-03-28T11:43:24Z</time>
      </trkpt>
      <trkpt lat="36.7603720" lon="-4.4075530">
        <ele>284.9</ele>
        <time>2018-03-28T11:43:25Z</time>
      </trkpt>
      <trkpt lat="36.7603720" lon="-4.4075530">
        <ele>284.9</ele>
        <time>2018-03-28T11:43:26Z</time>
      </trkpt>
      <trkpt lat="36.7601830" lon="-4.4075120">
        <ele>283.9</ele>
        <time>2018-03-28T11:43:27Z</time>
      </trkpt>
      <trkpt lat="36.7601830" lon="-4.4075120">
        <ele>283.9</ele>
        <time>2018-03-28T11:43:28Z</time>
      </trkpt>
      <trkpt lat="36.7599720" lon="-4.4075380">
        <ele>281.9</ele>
        <time>2018-03-28T11:43:29Z</time>
      </trkpt>
      <trkpt lat="36.7599720" lon="-4.4075380">
        <ele>281.9</ele>
        <time>2018-03-28T11:43:30Z</time>
      </trkpt>
      <trkpt lat="36.7597520" lon="-4.4076180">
        <ele>279.9</ele>
        <time>2018-03-28T11:43:31Z</time>
      </trkpt>
      <trkpt lat="36.7596350" lon="-4.4076670">
        <ele>279.9</ele>
        <time>2018-03-28T11:43:32Z</time>
      </trkpt>
      <trkpt lat="36.7596350" lon="-4.4076670">
        <ele>277.9</ele>
        <time>2018-03-28T11:43:33Z</time>
      </trkpt>
      <trkpt lat="36.7594030" lon="-4.4077870">
        <ele>277.9</ele>
        <time>2018-03-28T11:43:34Z</time>
      </trkpt>
      <trkpt lat="36.7594030" lon="-4.4077870">
        <ele>275.9</ele>
        <time>2018-03-28T11:43:35Z</time>
      </trkpt>
      <trkpt lat="36.7591830" lon="-4.4079020">
        <ele>275.9</ele>
        <time>2018-03-28T11:43:36Z</time>
      </trkpt>
      <trkpt lat="36.7590850" lon="-4.4079520">
        <ele>272.9</ele>
        <time>2018-03-28T11:43:37Z</time>
      </trkpt>
      <trkpt lat="36.7590850" lon="-4.4079520">
        <ele>272.9</ele>
        <time>2018-03-28T11:43:38Z</time>
      </trkpt>
      <trkpt lat="36.7589100" lon="-4.4080270">
        <ele>270.9</ele>
        <time>2018-03-28T11:43:39Z</time>
      </trkpt>
      <trkpt lat="36.7588250" lon="-4.4080270">
        <ele>270.9</ele>
        <time>2018-03-28T11:43:40Z</time>
      </trkpt>
      <trkpt lat="36.7588250" lon="-4.4080270">
        <ele>269.9</ele>
        <time>2018-03-28T11:43:41Z</time>
      </trkpt>
      <trkpt lat="36.7586630" lon="-4.4079420">
        <ele>269.9</ele>
        <time>2018-03-28T11:43:42Z</time>
      </trkpt>
      <trkpt lat="36.7586630" lon="-4.4079420">
        <ele>267.9</ele>
        <time>2018-03-28T11:43:43Z</time>
      </trkpt>
      <trkpt lat="36.7585220" lon="-4.4077800">
        <ele>267.9</ele>
        <time>2018-03-28T11:43:44Z</time>
      </trkpt>
      <trkpt lat="36.7585220" lon="-4.4077800">
        <ele>266.9</ele>
        <time>2018-03-28T11:43:45Z</time>
      </trkpt>
      <trkpt lat="36.7583570" lon="-4.4076930">
        <ele>266.9</ele>
        <time>2018-03-28T11:43:46Z</time>
      </trkpt>
      <trkpt lat="36.7583570" lon="-4.4076930">
        <ele>264.9</ele>
        <time>2018-03-28T11:43:47Z</time>
      </trkpt>
      <trkpt lat="36.7581900" lon="-4.4077170">
        <ele>264.9</ele>
        <time>2018-03-28T11:43:48Z</time>
      </trkpt>
      <trkpt lat="36.7581180" lon="-4.4077880">
        <ele>262.9</ele>
        <time>2018-03-28T11:43:49Z</time>
      </trkpt>
      <trkpt lat="36.7580500" lon="-4.4078800">
        <ele>260.9</ele>
        <time>2018-03-28T11:43:50Z</time>
      </trkpt>
      <trkpt lat="36.7580500" lon="-4.4078800">
        <ele>260.9</ele>
        <time>2018-03-28T11:43:51Z</time>
      </trkpt>
      <trkpt lat="36.7578820" lon="-4.4080470">
        <ele>258.9</ele>
        <time>2018-03-28T11:43:52Z</time>
      </trkpt>
      <trkpt lat="36.7578820" lon="-4.4080470">
        <ele>258.9</ele>
        <time>2018-03-28T11:43:53Z</time>
      </trkpt>
      <trkpt lat="36.7576730" lon="-4.4081480">
        <ele>256.9</ele>
        <time>2018-03-28T11:43:54Z</time>
      </trkpt>
      <trkpt lat="36.7575570" lon="-4.4081850">
        <ele>256.9</ele>
        <time>2018-03-28T11:43:55Z</time>
      </trkpt>
      <trkpt lat="36.7574370" lon="-4.4082220">
        <ele>253.9</ele>
        <time>2018-03-28T11:43:56Z</time>
      </trkpt>
      <trkpt lat="36.7574370" lon="-4.4082220">
        <ele>253.9</ele>
        <time>2018-03-28T11:43:57Z</time>
      </trkpt>
      <trkpt lat="36.7571900" lon="-4.4082870">
        <ele>252.9</ele>
        <time>2018-03-28T11:43:58Z</time>
      </trkpt>
      <trkpt lat="36.7570680" lon="-4.4083250">
        <ele>252.9</ele>
        <time>2018-03-28T11:43:59Z</time>
      </trkpt>
      <trkpt lat="36.7570680" lon="-4.4083250">
        <ele>250.9</ele>
        <time>2018-03-28T11:44:00Z</time>
      </trkpt>
      <trkpt lat="36.7568270" lon="-4.4083950">
        <ele>250.9</ele>
        <time>2018-03-28T11:44:01Z</time>
      </trkpt>
      <trkpt lat="36.7568270" lon="-4.4083950">
        <ele>248.9</ele>
        <time>2018-03-28T11:44:02Z</time>
      </trkpt>
      <trkpt lat="36.7565980" lon="-4.4083930">
        <ele>248.9</ele>
        <time>2018-03-28T11:44:03Z</time>
      </trkpt>
      <trkpt lat="36.7564880" lon="-4.4083500">
        <ele>247.9</ele>
        <time>2018-03-28T11:44:04Z</time>
      </trkpt>
      <trkpt lat="36.7564880" lon="-4.4083500">
        <ele>247.9</ele>
        <time>2018-03-28T11:44:05Z</time>
      </trkpt>
      <trkpt lat="36.7562950" lon="-4.4082030">
        <ele>245.9</ele>
        <time>2018-03-28T11:44:06Z</time>
      </trkpt>
      <trkpt lat="36.7562950" lon="-4.4082030">
        <ele>245.9</ele>
        <time>2018-03-28T11:44:07Z</time>
      </trkpt>
      <trkpt lat="36.7561220" lon="-4.4080350">
        <ele>244.9</ele>
        <time>2018-03-28T11:44:08Z</time>
      </trkpt>
      <trkpt lat="36.7561220" lon="-4.4080350">
        <ele>244.9</ele>
        <time>2018-03-28T11:44:09Z</time>
      </trkpt>
      <trkpt lat="36.7559500" lon="-4.4079170">
        <ele>243.9</ele>
        <time>2018-03-28T11:44:10Z</time>
      </trkpt>
      <trkpt lat="36.7559500" lon="-4.4079170">
        <ele>243.9</ele>
        <time>2018-03-28T11:44:11Z</time>
      </trkpt>
      <trkpt lat="36.7557550" lon="-4.4078880">
        <ele>241.9</ele>
        <time>2018-03-28T11:44:12Z</time>
      </trkpt>
      <trkpt lat="36.7556500" lon="-4.4079240">
        <ele>241.9</ele>
        <time>2018-03-28T11:44:13Z</time>
      </trkpt>
      <trkpt lat="36.7555450" lon="-4.4079600">
        <ele>239.9</ele>
        <time>2018-03-28T11:44:14Z</time>
      </trkpt>
      <trkpt lat="36.7554400" lon="-4.4079960">
        <ele>239.9</ele>
        <time>2018-03-28T11:44:15Z</time>
      </trkpt>
      <trkpt lat="36.7553320" lon="-4.4080400">
        <ele>238.9</ele>
        <time>2018-03-28T11:44:16Z</time>
      </trkpt>
      <trkpt lat="36.7553320" lon="-4.4080400">
        <ele>238.9</ele>
        <time>2018-03-28T11:44:17Z</time>
      </trkpt>
      <trkpt lat="36.7551070" lon="-4.4081150">
        <ele>236.9</ele>
        <time>2018-03-28T11:44:18Z</time>
      </trkpt>
      <trkpt lat="36.7549850" lon="-4.4081380">
        <ele>236.9</ele>
        <time>2018-03-28T11:44:19Z</time>
      </trkpt>
      <trkpt lat="36.7549850" lon="-4.4081380">
        <ele>234.9</ele>
        <time>2018-03-28T11:44:20Z</time>
      </trkpt>
      <trkpt lat="36.7547350" lon="-4.4081500">
        <ele>233.9</ele>
        <time>2018-03-28T11:44:21Z</time>
      </trkpt>
      <trkpt lat="36.7546410" lon="-4.4081540">
        <ele>233.9</ele>
        <time>2018-03-28T11:44:22Z</time>
      </trkpt>
      <trkpt lat="36.7545470" lon="-4.4081580">
        <ele>231.9</ele>
        <time>2018-03-28T11:44:23Z</time>
      </trkpt>
      <trkpt lat="36.7543580" lon="-4.4081650">
        <ele>231.9</ele>
        <time>2018-03-28T11:44:24Z</time>
      </trkpt>
      <trkpt lat="36.7542320" lon="-4.4081630">
        <ele>229.9</ele>
        <time>2018-03-28T11:44:25Z</time>
      </trkpt>
      <trkpt lat="36.7542320" lon="-4.4081630">
        <ele>229.9</ele>
        <time>2018-03-28T11:44:26Z</time>
      </trkpt>
      <trkpt lat="36.7539780" lon="-4.4081530">
        <ele>228.9</ele>
        <time>2018-03-28T11:44:27Z</time>
      </trkpt>
      <trkpt lat="36.7538500" lon="-4.4081380">
        <ele>228.9</ele>
        <time>2018-03-28T11:44:28Z</time>
      </trkpt>
      <trkpt lat="36.7538500" lon="-4.4081380">
        <ele>226.9</ele>
        <time>2018-03-28T11:44:29Z</time>
      </trkpt>
      <trkpt lat="36.7536050" lon="-4.4080870">
        <ele>226.9</ele>
        <time>2018-03-28T11:44:30Z</time>
      </trkpt>
      <trkpt lat="36.7534850" lon="-4.4080620">
        <ele>225.9</ele>
        <time>2018-03-28T11:44:31Z</time>
      </trkpt>
      <trkpt lat="36.7534850" lon="-4.4080620">
        <ele>225.9</ele>
        <time>2018-03-28T11:44:32Z</time>
      </trkpt>
      <trkpt lat="36.7532370" lon="-4.4080230">
        <ele>224.9</ele>
        <time>2018-03-28T11:44:33Z</time>
      </trkpt>
      <trkpt lat="36.7531150" lon="-4.4080250">
        <ele>224.9</ele>
        <time>2018-03-28T11:44:34Z</time>
      </trkpt>
      <trkpt lat="36.7531150" lon="-4.4080250">
        <ele>222.9</ele>
        <time>2018-03-28T11:44:35Z</time>
      </trkpt>
      <trkpt lat="36.7528730" lon="-4.4080880">
        <ele>222.9</ele>
        <time>2018-03-28T11:44:36Z</time>
      </trkpt>
      <trkpt lat="36.7527500" lon="-4.4081280">
        <ele>221.9</ele>
        <time>2018-03-28T11:44:37Z</time>
      </trkpt>
      <trkpt lat="36.7527500" lon="-4.4081280">
        <ele>221.9</ele>
        <time>2018-03-28T11:44:38Z</time>
      </trkpt>
      <trkpt lat="36.7524970" lon="-4.4081720">
        <ele>219.9</ele>
        <time>2018-03-28T11:44:39Z</time>
      </trkpt>
      <trkpt lat="36.7524970" lon="-4.4081720">
        <ele>219.9</ele>
        <time>2018-03-28T11:44:40Z</time>
      </trkpt>
      <trkpt lat="36.7522500" lon="-4.4081850">
        <ele>219.9</ele>
        <time>2018-03-28T11:44:41Z</time>
      </trkpt>
      <trkpt lat="36.7521270" lon="-4.4081830">
        <ele>219.9</ele>
        <time>2018-03-28T11:44:42Z</time>
      </trkpt>
      <trkpt lat="36.7521270" lon="-4.4081830">
        <ele>217.9</ele>
        <time>2018-03-28T11:44:43Z</time>
      </trkpt>
      <trkpt lat="36.7518850" lon="-4.4081780">
        <ele>217.9</ele>
        <time>2018-03-28T11:44:44Z</time>
      </trkpt>
      <trkpt lat="36.7518850" lon="-4.4081780">
        <ele>216.9</ele>
        <time>2018-03-28T11:44:45Z</time>
      </trkpt>
      <trkpt lat="36.7516470" lon="-4.4081650">
        <ele>216.9</ele>
        <time>2018-03-28T11:44:46Z</time>
      </trkpt>
      <trkpt lat="36.7516470" lon="-4.4081650">
        <ele>215.9</ele>
        <time>2018-03-28T11:44:47Z</time>
      </trkpt>
      <trkpt lat="36.7514100" lon="-4.4081570">
        <ele>215.9</ele>
        <time>2018-03-28T11:44:48Z</time>
      </trkpt>
      <trkpt lat="36.7512900" lon="-4.4081500">
        <ele>214.9</ele>
        <time>2018-03-28T11:44:49Z</time>
      </trkpt>
      <trkpt lat="36.7512900" lon="-4.4081500">
        <ele>213.9</ele>
        <time>2018-03-28T11:44:50Z</time>
      </trkpt>
      <trkpt lat="36.7510530" lon="-4.4081320">
        <ele>213.9</ele>
        <time>2018-03-28T11:44:51Z</time>
      </trkpt>
      <trkpt lat="36.7509380" lon="-4.4081170">
        <ele>212.9</ele>
        <time>2018-03-28T11:44:52Z</time>
      </trkpt>
      <trkpt lat="36.7509380" lon="-4.4081170">
        <ele>212.9</ele>
        <time>2018-03-28T11:44:53Z</time>
      </trkpt>
      <trkpt lat="36.7507220" lon="-4.4080350">
        <ele>211.9</ele>
        <time>2018-03-28T11:44:54Z</time>
      </trkpt>
      <trkpt lat="36.7506080" lon="-4.4079850">
        <ele>211.9</ele>
        <time>2018-03-28T11:44:55Z</time>
      </trkpt>
      <trkpt lat="36.7506080" lon="-4.4079850">
        <ele>210.9</ele>
        <time>2018-03-28T11:44:56Z</time>
      </trkpt>
      <trkpt lat="36.7503730" lon="-4.4079330">
        <ele>210.9</ele>
        <time>2018-03-28T11:44:57Z</time>
      </trkpt>
      <trkpt lat="36.7503730" lon="-4.4079330">
        <ele>208.9</ele>
        <time>2018-03-28T11:44:58Z</time>
      </trkpt>
      <trkpt lat="36.7501370" lon="-4.4079400">
        <ele>208.9</ele>
        <time>2018-03-28T11:44:59Z</time>
      </trkpt>
      <trkpt lat="36.7500220" lon="-4.4079370">
        <ele>208.9</ele>
        <time>2018-03-28T11:45:00Z</time>
      </trkpt>
      <trkpt lat="36.7500220" lon="-4.4079370">
        <ele>208.9</ele>
        <time>2018-03-28T11:45:01Z</time>
      </trkpt>
      <trkpt lat="36.7498070" lon="-4.4078620">
        <ele>206.9</ele>
        <time>2018-03-28T11:45:02Z</time>
      </trkpt>
      <trkpt lat="36.7498070" lon="-4.4078620">
        <ele>206.9</ele>
        <time>2018-03-28T11:45:03Z</time>
      </trkpt>
      <trkpt lat="36.7496230" lon="-4.4077050">
        <ele>205.9</ele>
        <time>2018-03-28T11:45:04Z</time>
      </trkpt>
      <trkpt lat="36.7496230" lon="-4.4077050">
        <ele>205.9</ele>
        <time>2018-03-28T11:45:05Z</time>
      </trkpt>
      <trkpt lat="36.7494500" lon="-4.4075300">
        <ele>204.9</ele>
        <time>2018-03-28T11:45:06Z</time>
      </trkpt>
      <trkpt lat="36.7493630" lon="-4.4074480">
        <ele>204.9</ele>
        <time>2018-03-28T11:45:07Z</time>
      </trkpt>
      <trkpt lat="36.7493630" lon="-4.4074480">
        <ele>203.9</ele>
        <time>2018-03-28T11:45:08Z</time>
      </trkpt>
      <trkpt lat="36.7491720" lon="-4.4073250">
        <ele>203.9</ele>
        <time>2018-03-28T11:45:09Z</time>
      </trkpt>
      <trkpt lat="36.7490630" lon="-4.4073000">
        <ele>203.9</ele>
        <time>2018-03-28T11:45:10Z</time>
      </trkpt>
      <trkpt lat="36.7490630" lon="-4.4073000">
        <ele>203.9</ele>
        <time>2018-03-28T11:45:11Z</time>
      </trkpt>
      <trkpt lat="36.7488570" lon="-4.4073330">
        <ele>202.9</ele>
        <time>2018-03-28T11:45:12Z</time>
      </trkpt>
      <trkpt lat="36.7487620" lon="-4.4073770">
        <ele>202.9</ele>
        <time>2018-03-28T11:45:13Z</time>
      </trkpt>
      <trkpt lat="36.7486730" lon="-4.4074300">
        <ele>202.9</ele>
        <time>2018-03-28T11:45:14Z</time>
      </trkpt>
      <trkpt lat="36.7486730" lon="-4.4074300">
        <ele>202.9</ele>
        <time>2018-03-28T11:45:15Z</time>
      </trkpt>
      <trkpt lat="36.7484930" lon="-4.4075420">
        <ele>201.9</ele>
        <time>2018-03-28T11:45:16Z</time>
      </trkpt>
      <trkpt lat="36.7484930" lon="-4.4075420">
        <ele>201.9</ele>
        <time>2018-03-28T11:45:17Z</time>
      </trkpt>
      <trkpt lat="36.7483130" lon="-4.4076470">
        <ele>201.9</ele>
        <time>2018-03-28T11:45:18Z</time>
      </trkpt>
      <trkpt lat="36.7482220" lon="-4.4077020">
        <ele>200.9</ele>
        <time>2018-03-28T11:45:19Z</time>
      </trkpt>
      <trkpt lat="36.7482220" lon="-4.4077020">
        <ele>200.9</ele>
        <time>2018-03-28T11:45:20Z</time>
      </trkpt>
      <trkpt lat="36.7480350" lon="-4.4078080">
        <ele>200.9</ele>
        <time>2018-03-28T11:45:21Z</time>
      </trkpt>
      <trkpt lat="36.7480350" lon="-4.4078080">
        <ele>200.9</ele>
        <time>2018-03-28T11:45:22Z</time>
      </trkpt>
      <trkpt lat="36.7478650" lon="-4.4079020">
        <ele>200.9</ele>
        <time>2018-03-28T11:45:23Z</time>
      </trkpt>
      <trkpt lat="36.7478650" lon="-4.4079020">
        <ele>199.9</ele>
        <time>2018-03-28T11:45:24Z</time>
      </trkpt>
      <trkpt lat="36.7476880" lon="-4.4079230">
        <ele>199.9</ele>
        <time>2018-03-28T11:45:25Z</time>
      </trkpt>
      <trkpt lat="36.7476880" lon="-4.4079230">
        <ele>198.9</ele>
        <time>2018-03-28T11:45:26Z</time>
      </trkpt>
      <trkpt lat="36.7475050" lon="-4.4078180">
        <ele>198.9</ele>
        <time>2018-03-28T11:45:27Z</time>
      </trkpt>
      <trkpt lat="36.7475050" lon="-4.4078180">
        <ele>196.9</ele>
        <time>2018-03-28T11:45:28Z</time>
      </trkpt>
      <trkpt lat="36.7473220" lon="-4.4076820">
        <ele>196.9</ele>
        <time>2018-03-28T11:45:29Z</time>
      </trkpt>
      <trkpt lat="36.7473220" lon="-4.4076820">
        <ele>194.9</ele>
        <time>2018-03-28T11:45:30Z</time>
      </trkpt>
      <trkpt lat="36.7471070" lon="-4.4076320">
        <ele>194.9</ele>
        <time>2018-03-28T11:45:31Z</time>
      </trkpt>
      <trkpt lat="36.7470530" lon="-4.4076480">
        <ele>192.9</ele>
        <time>2018-03-28T11:45:32Z</time>
      </trkpt>
      <trkpt lat="36.7469990" lon="-4.4076630">
        <ele>192.9</ele>
        <time>2018-03-28T11:45:33Z</time>
      </trkpt>
      <trkpt lat="36.7468900" lon="-4.4076930">
        <ele>190.9</ele>
        <time>2018-03-28T11:45:34Z</time>
      </trkpt>
      <trkpt lat="36.7466730" lon="-4.4077950">
        <ele>190.9</ele>
        <time>2018-03-28T11:45:35Z</time>
      </trkpt>
      <trkpt lat="36.7466730" lon="-4.4077950">
        <ele>188.9</ele>
        <time>2018-03-28T11:45:36Z</time>
      </trkpt>
      <trkpt lat="36.7464700" lon="-4.4079420">
        <ele>188.9</ele>
        <time>2018-03-28T11:45:37Z</time>
      </trkpt>
      <trkpt lat="36.7464700" lon="-4.4079420">
        <ele>185.9</ele>
        <time>2018-03-28T11:45:38Z</time>
      </trkpt>
      <trkpt lat="36.7463030" lon="-4.4081770">
        <ele>185.9</ele>
        <time>2018-03-28T11:45:39Z</time>
      </trkpt>
      <trkpt lat="36.7462270" lon="-4.4083000">
        <ele>183.9</ele>
        <time>2018-03-28T11:45:40Z</time>
      </trkpt>
      <trkpt lat="36.7462270" lon="-4.4083000">
        <ele>183.9</ele>
        <time>2018-03-28T11:45:41Z</time>
      </trkpt>
      <trkpt lat="36.7460830" lon="-4.4085420">
        <ele>182.9</ele>
        <time>2018-03-28T11:45:42Z</time>
      </trkpt>
      <trkpt lat="36.7460830" lon="-4.4085420">
        <ele>182.9</ele>
        <time>2018-03-28T11:45:43Z</time>
      </trkpt>
      <trkpt lat="36.7459080" lon="-4.4088090">
        <ele>181.9</ele>
        <time>2018-03-28T11:45:44Z</time>
      </trkpt>
      <trkpt lat="36.7458730" lon="-4.4088520">
        <ele>181.9</ele>
        <time>2018-03-28T11:45:45Z</time>
      </trkpt>
      <trkpt lat="36.7458030" lon="-4.4089380">
        <ele>180.9</ele>
        <time>2018-03-28T11:45:46Z</time>
      </trkpt>
      <trkpt lat="36.7457430" lon="-4.4090130">
        <ele>180.9</ele>
        <time>2018-03-28T11:45:47Z</time>
      </trkpt>
      <trkpt lat="36.7456880" lon="-4.4090900">
        <ele>179.9</ele>
        <time>2018-03-28T11:45:48Z</time>
      </trkpt>
      <trkpt lat="36.7456880" lon="-4.4090900">
        <ele>177.9</ele>
        <time>2018-03-28T11:45:49Z</time>
      </trkpt>
      <trkpt lat="36.7456070" lon="-4.4092420">
        <ele>177.9</ele>
        <time>2018-03-28T11:45:50Z</time>
      </trkpt>
      <trkpt lat="36.7456070" lon="-4.4092420">
        <ele>176.9</ele>
        <time>2018-03-28T11:45:51Z</time>
      </trkpt>
      <trkpt lat="36.7455800" lon="-4.4094020">
        <ele>176.9</ele>
        <time>2018-03-28T11:45:52Z</time>
      </trkpt>
      <trkpt lat="36.7455800" lon="-4.4094020">
        <ele>174.9</ele>
        <time>2018-03-28T11:45:53Z</time>
      </trkpt>
      <trkpt lat="36.7456580" lon="-4.4095650">
        <ele>174.9</ele>
        <time>2018-03-28T11:45:54Z</time>
      </trkpt>
      <trkpt lat="36.7457200" lon="-4.4096450">
        <ele>173.9</ele>
        <time>2018-03-28T11:45:55Z</time>
      </trkpt>
      <trkpt lat="36.7457200" lon="-4.4096450">
        <ele>173.9</ele>
        <time>2018-03-28T11:45:56Z</time>
      </trkpt>
      <trkpt lat="36.7458150" lon="-4.4098450">
        <ele>171.9</ele>
        <time>2018-03-28T11:45:57Z</time>
      </trkpt>
      <trkpt lat="36.7458150" lon="-4.4098450">
        <ele>171.9</ele>
        <time>2018-03-28T11:45:58Z</time>
      </trkpt>
      <trkpt lat="36.7458100" lon="-4.4100880">
        <ele>170.9</ele>
        <time>2018-03-28T11:45:59Z</time>
      </trkpt>
      <trkpt lat="36.7458100" lon="-4.4100880">
        <ele>170.9</ele>
        <time>2018-03-28T11:46:00Z</time>
      </trkpt>
      <trkpt lat="36.7457350" lon="-4.4103500">
        <ele>168.9</ele>
        <time>2018-03-28T11:46:01Z</time>
      </trkpt>
      <trkpt lat="36.7457350" lon="-4.4103500">
        <ele>168.9</ele>
        <time>2018-03-28T11:46:02Z</time>
      </trkpt>
      <trkpt lat="36.7456280" lon="-4.4106100">
        <ele>167.9</ele>
        <time>2018-03-28T11:46:03Z</time>
      </trkpt>
      <trkpt lat="36.7456280" lon="-4.4106100">
        <ele>167.9</ele>
        <time>2018-03-28T11:46:04Z</time>
      </trkpt>
      <trkpt lat="36.7454250" lon="-4.4107730">
        <ele>165.9</ele>
        <time>2018-03-28T11:46:05Z</time>
      </trkpt>
      <trkpt lat="36.7454250" lon="-4.4107730">
        <ele>165.9</ele>
        <time>2018-03-28T11:46:06Z</time>
      </trkpt>
      <trkpt lat="36.7452020" lon="-4.4108650">
        <ele>163.9</ele>
        <time>2018-03-28T11:46:07Z</time>
      </trkpt>
      <trkpt lat="36.7452020" lon="-4.4108650">
        <ele>163.9</ele>
        <time>2018-03-28T11:46:08Z</time>
      </trkpt>
      <trkpt lat="36.7449730" lon="-4.4109430">
        <ele>163.9</ele>
        <time>2018-03-28T11:46:09Z</time>
      </trkpt>
      <trkpt lat="36.7448520" lon="-4.4109750">
        <ele>161.9</ele>
        <time>2018-03-28T11:46:10Z</time>
      </trkpt>
      <trkpt lat="36.7448520" lon="-4.4109750">
        <ele>161.9</ele>
        <time>2018-03-28T11:46:11Z</time>
      </trkpt>
      <trkpt lat="36.7446120" lon="-4.4109950">
        <ele>158.9</ele>
        <time>2018-03-28T11:46:12Z</time>
      </trkpt>
      <trkpt lat="36.7444950" lon="-4.4109770">
        <ele>158.9</ele>
        <time>2018-03-28T11:46:13Z</time>
      </trkpt>
      <trkpt lat="36.7444950" lon="-4.4109770">
        <ele>157.9</ele>
        <time>2018-03-28T11:46:14Z</time>
      </trkpt>
      <trkpt lat="36.7442930" lon="-4.4108630">
        <ele>157.9</ele>
        <time>2018-03-28T11:46:15Z</time>
      </trkpt>
      <trkpt lat="36.7442930" lon="-4.4108630">
        <ele>155.9</ele>
        <time>2018-03-28T11:46:16Z</time>
      </trkpt>
      <trkpt lat="36.7441370" lon="-4.4106570">
        <ele>153.9</ele>
        <time>2018-03-28T11:46:17Z</time>
      </trkpt>
      <trkpt lat="36.7441370" lon="-4.4106570">
        <ele>153.9</ele>
        <time>2018-03-28T11:46:18Z</time>
      </trkpt>
      <trkpt lat="36.7440200" lon="-4.4104500">
        <ele>151.9</ele>
        <time>2018-03-28T11:46:19Z</time>
      </trkpt>
      <trkpt lat="36.7439550" lon="-4.4103820">
        <ele>151.9</ele>
        <time>2018-03-28T11:46:20Z</time>
      </trkpt>
      <trkpt lat="36.7439550" lon="-4.4103820">
        <ele>150.9</ele>
        <time>2018-03-28T11:46:21Z</time>
      </trkpt>
      <trkpt lat="36.7438070" lon="-4.4103400">
        <ele>150.9</ele>
        <time>2018-03-28T11:46:22Z</time>
      </trkpt>
      <trkpt lat="36.7438070" lon="-4.4103400">
        <ele>149.9</ele>
        <time>2018-03-28T11:46:23Z</time>
      </trkpt>
      <trkpt lat="36.7436650" lon="-4.4104180">
        <ele>149.9</ele>
        <time>2018-03-28T11:46:24Z</time>
      </trkpt>
      <trkpt lat="36.7436000" lon="-4.4104850">
        <ele>149.9</ele>
        <time>2018-03-28T11:46:25Z</time>
      </trkpt>
      <trkpt lat="36.7436000" lon="-4.4104850">
        <ele>149.9</ele>
        <time>2018-03-28T11:46:26Z</time>
      </trkpt>
      <trkpt lat="36.7434700" lon="-4.4106350">
        <ele>148.9</ele>
        <time>2018-03-28T11:46:27Z</time>
      </trkpt>
      <trkpt lat="36.7434700" lon="-4.4106350">
        <ele>148.9</ele>
        <time>2018-03-28T11:46:28Z</time>
      </trkpt>
      <trkpt lat="36.7433370" lon="-4.4107950">
        <ele>147.9</ele>
        <time>2018-03-28T11:46:29Z</time>
      </trkpt>
      <trkpt lat="36.7432600" lon="-4.4108680">
        <ele>147.9</ele>
        <time>2018-03-28T11:46:30Z</time>
      </trkpt>
      <trkpt lat="36.7431830" lon="-4.4109430">
        <ele>146.9</ele>
        <time>2018-03-28T11:46:31Z</time>
      </trkpt>
      <trkpt lat="36.7431830" lon="-4.4109430">
        <ele>146.9</ele>
        <time>2018-03-28T11:46:32Z</time>
      </trkpt>
      <trkpt lat="36.7430300" lon="-4.4110830">
        <ele>144.9</ele>
        <time>2018-03-28T11:46:33Z</time>
      </trkpt>
      <trkpt lat="36.7429530" lon="-4.4111530">
        <ele>144.9</ele>
        <time>2018-03-28T11:46:34Z</time>
      </trkpt>
      <trkpt lat="36.7429530" lon="-4.4111530">
        <ele>144.9</ele>
        <time>2018-03-28T11:46:35Z</time>
      </trkpt>
      <trkpt lat="36.7427840" lon="-4.4113120">
        <ele>144.9</ele>
        <time>2018-03-28T11:46:36Z</time>
      </trkpt>
      <trkpt lat="36.7427650" lon="-4.4113290">
        <ele>143.9</ele>
        <time>2018-03-28T11:46:37Z</time>
      </trkpt>
      <trkpt lat="36.7427270" lon="-4.4113630">
        <ele>143.9</ele>
        <time>2018-03-28T11:46:38Z</time>
      </trkpt>
      <trkpt lat="36.7425680" lon="-4.4115030">
        <ele>142.9</ele>
        <time>2018-03-28T11:46:39Z</time>
      </trkpt>
      <trkpt lat="36.7424870" lon="-4.4115720">
        <ele>142.9</ele>
        <time>2018-03-28T11:46:40Z</time>
      </trkpt>
      <trkpt lat="36.7424030" lon="-4.4116380">
        <ele>142.9</ele>
        <time>2018-03-28T11:46:41Z</time>
      </trkpt>
      <trkpt lat="36.7423620" lon="-4.4116720">
        <ele>142.9</ele>
        <time>2018-03-28T11:46:42Z</time>
      </trkpt>
      <trkpt lat="36.7423200" lon="-4.4117060">
        <ele>141.9</ele>
        <time>2018-03-28T11:46:43Z</time>
      </trkpt>
      <trkpt lat="36.7422370" lon="-4.4117730">
        <ele>141.9</ele>
        <time>2018-03-28T11:46:44Z</time>
      </trkpt>
      <trkpt lat="36.7420630" lon="-4.4118830">
        <ele>141.9</ele>
        <time>2018-03-28T11:46:45Z</time>
      </trkpt>
      <trkpt lat="36.7420630" lon="-4.4118830">
        <ele>140.9</ele>
        <time>2018-03-28T11:46:46Z</time>
      </trkpt>
      <trkpt lat="36.7418830" lon="-4.4119720">
        <ele>140.9</ele>
        <time>2018-03-28T11:46:47Z</time>
      </trkpt>
      <trkpt lat="36.7418830" lon="-4.4119720">
        <ele>140.9</ele>
        <time>2018-03-28T11:46:48Z</time>
      </trkpt>
      <trkpt lat="36.7416860" lon="-4.4120690">
        <ele>140.9</ele>
        <time>2018-03-28T11:46:49Z</time>
      </trkpt>
      <trkpt lat="36.7416630" lon="-4.4120790">
        <ele>139.9</ele>
        <time>2018-03-28T11:46:50Z</time>
      </trkpt>
      <trkpt lat="36.7416170" lon="-4.4121000">
        <ele>139.9</ele>
        <time>2018-03-28T11:46:51Z</time>
      </trkpt>
      <trkpt lat="36.7414380" lon="-4.4121750">
        <ele>139.9</ele>
        <time>2018-03-28T11:46:52Z</time>
      </trkpt>
      <trkpt lat="36.7414380" lon="-4.4121750">
        <ele>139.9</ele>
        <time>2018-03-28T11:46:53Z</time>
      </trkpt>
      <trkpt lat="36.7412700" lon="-4.4122520">
        <ele>139.9</ele>
        <time>2018-03-28T11:46:54Z</time>
      </trkpt>
      <trkpt lat="36.7411880" lon="-4.4122870">
        <ele>139.9</ele>
        <time>2018-03-28T11:46:55Z</time>
      </trkpt>
      <trkpt lat="36.7411880" lon="-4.4122870">
        <ele>139.9</ele>
        <time>2018-03-28T11:46:56Z</time>
      </trkpt>
      <trkpt lat="36.7410320" lon="-4.4123480">
        <ele>139.9</ele>
        <time>2018-03-28T11:46:57Z</time>
      </trkpt>
      <trkpt lat="36.7410320" lon="-4.4123480">
        <ele>139.9</ele>
        <time>2018-03-28T11:46:58Z</time>
      </trkpt>
      <trkpt lat="36.7408800" lon="-4.4123680">
        <ele>139.9</ele>
        <time>2018-03-28T11:46:59Z</time>
      </trkpt>
      <trkpt lat="36.7408120" lon="-4.4123550">
        <ele>140.9</ele>
        <time>2018-03-28T11:47:00Z</time>
      </trkpt>
      <trkpt lat="36.7407420" lon="-4.4123220">
        <ele>140.9</ele>
        <time>2018-03-28T11:47:01Z</time>
      </trkpt>
      <trkpt lat="36.7407420" lon="-4.4123220">
        <ele>140.9</ele>
        <time>2018-03-28T11:47:02Z</time>
      </trkpt>
      <trkpt lat="36.7405780" lon="-4.4122360">
        <ele>140.9</ele>
        <time>2018-03-28T11:47:03Z</time>
      </trkpt>
      <trkpt lat="36.7405580" lon="-4.4122280">
        <ele>140.9</ele>
        <time>2018-03-28T11:47:04Z</time>
      </trkpt>
      <trkpt lat="36.7405180" lon="-4.4122120">
        <ele>140.9</ele>
        <time>2018-03-28T11:47:05Z</time>
      </trkpt>
      <trkpt lat="36.7403530" lon="-4.4121370">
        <ele>139.9</ele>
        <time>2018-03-28T11:47:06Z</time>
      </trkpt>
      <trkpt lat="36.7402580" lon="-4.4120980">
        <ele>139.9</ele>
        <time>2018-03-28T11:47:07Z</time>
      </trkpt>
      <trkpt lat="36.7401570" lon="-4.4120680">
        <ele>138.9</ele>
        <time>2018-03-28T11:47:08Z</time>
      </trkpt>
      <trkpt lat="36.7401570" lon="-4.4120680">
        <ele>138.9</ele>
        <time>2018-03-28T11:47:09Z</time>
      </trkpt>
      <trkpt lat="36.7399450" lon="-4.4120330">
        <ele>137.9</ele>
        <time>2018-03-28T11:47:10Z</time>
      </trkpt>
      <trkpt lat="36.7399450" lon="-4.4120330">
        <ele>137.9</ele>
        <time>2018-03-28T11:47:11Z</time>
      </trkpt>
      <trkpt lat="36.7397230" lon="-4.4119870">
        <ele>135.9</ele>
        <time>2018-03-28T11:47:12Z</time>
      </trkpt>
      <trkpt lat="36.7397230" lon="-4.4119870">
        <ele>135.9</ele>
        <time>2018-03-28T11:47:13Z</time>
      </trkpt>
      <trkpt lat="36.7395080" lon="-4.4119930">
        <ele>134.9</ele>
        <time>2018-03-28T11:47:14Z</time>
      </trkpt>
      <trkpt lat="36.7395080" lon="-4.4119930">
        <ele>132.9</ele>
        <time>2018-03-28T11:47:15Z</time>
      </trkpt>
      <trkpt lat="36.7392970" lon="-4.4120720">
        <ele>132.9</ele>
        <time>2018-03-28T11:47:16Z</time>
      </trkpt>
      <trkpt lat="36.7392970" lon="-4.4120720">
        <ele>131.9</ele>
        <time>2018-03-28T11:47:17Z</time>
      </trkpt>
      <trkpt lat="36.7390900" lon="-4.4121950">
        <ele>131.9</ele>
        <time>2018-03-28T11:47:18Z</time>
      </trkpt>
      <trkpt lat="36.7389900" lon="-4.4122630">
        <ele>129.9</ele>
        <time>2018-03-28T11:47:19Z</time>
      </trkpt>
      <trkpt lat="36.7389900" lon="-4.4122630">
        <ele>129.9</ele>
        <time>2018-03-28T11:47:20Z</time>
      </trkpt>
      <trkpt lat="36.7387820" lon="-4.4123850">
        <ele>127.9</ele>
        <time>2018-03-28T11:47:21Z</time>
      </trkpt>
      <trkpt lat="36.7386650" lon="-4.4124300">
        <ele>127.9</ele>
        <time>2018-03-28T11:47:22Z</time>
      </trkpt>
      <trkpt lat="36.7386650" lon="-4.4124300">
        <ele>125.9</ele>
        <time>2018-03-28T11:47:23Z</time>
      </trkpt>
      <trkpt lat="36.7384230" lon="-4.4124920">
        <ele>125.9</ele>
        <time>2018-03-28T11:47:24Z</time>
      </trkpt>
      <trkpt lat="36.7382980" lon="-4.4125220">
        <ele>123.9</ele>
        <time>2018-03-28T11:47:25Z</time>
      </trkpt>
      <trkpt lat="36.7382980" lon="-4.4125220">
        <ele>123.9</ele>
        <time>2018-03-28T11:47:26Z</time>
      </trkpt>
      <trkpt lat="36.7380530" lon="-4.4125900">
        <ele>121.9</ele>
        <time>2018-03-28T11:47:27Z</time>
      </trkpt>
      <trkpt lat="36.7380530" lon="-4.4125900">
        <ele>121.9</ele>
        <time>2018-03-28T11:47:28Z</time>
      </trkpt>
      <trkpt lat="36.7378100" lon="-4.4126950">
        <ele>119.9</ele>
        <time>2018-03-28T11:47:29Z</time>
      </trkpt>
      <trkpt lat="36.7378100" lon="-4.4126950">
        <ele>119.9</ele>
        <time>2018-03-28T11:47:30Z</time>
      </trkpt>
      <trkpt lat="36.7376000" lon="-4.4128100">
        <ele>116.9</ele>
        <time>2018-03-28T11:47:31Z</time>
      </trkpt>
      <trkpt lat="36.7376000" lon="-4.4128100">
        <ele>116.9</ele>
        <time>2018-03-28T11:47:32Z</time>
      </trkpt>
      <trkpt lat="36.7374170" lon="-4.4128780">
        <ele>114.9</ele>
        <time>2018-03-28T11:47:33Z</time>
      </trkpt>
      <trkpt lat="36.7374170" lon="-4.4128780">
        <ele>114.9</ele>
        <time>2018-03-28T11:47:34Z</time>
      </trkpt>
      <trkpt lat="36.7372570" lon="-4.4128580">
        <ele>113.9</ele>
        <time>2018-03-28T11:47:35Z</time>
      </trkpt>
      <trkpt lat="36.7372570" lon="-4.4128580">
        <ele>113.9</ele>
        <time>2018-03-28T11:47:36Z</time>
      </trkpt>
      <trkpt lat="36.7371480" lon="-4.4127200">
        <ele>111.9</ele>
        <time>2018-03-28T11:47:37Z</time>
      </trkpt>
      <trkpt lat="36.7371480" lon="-4.4127200">
        <ele>111.9</ele>
        <time>2018-03-28T11:47:38Z</time>
      </trkpt>
      <trkpt lat="36.7371700" lon="-4.4125270">
        <ele>110.9</ele>
        <time>2018-03-28T11:47:39Z</time>
      </trkpt>
      <trkpt lat="36.7371700" lon="-4.4125270">
        <ele>110.9</ele>
        <time>2018-03-28T11:47:40Z</time>
      </trkpt>
      <trkpt lat="36.7372650" lon="-4.4123470">
        <ele>109.9</ele>
        <time>2018-03-28T11:47:41Z</time>
      </trkpt>
      <trkpt lat="36.7372650" lon="-4.4123470">
        <ele>109.9</ele>
        <time>2018-03-28T11:47:42Z</time>
      </trkpt>
      <trkpt lat="36.7374030" lon="-4.4122130">
        <ele>108.9</ele>
        <time>2018-03-28T11:47:43Z</time>
      </trkpt>
      <trkpt lat="36.7374030" lon="-4.4122130">
        <ele>107.9</ele>
        <time>2018-03-28T11:47:44Z</time>
      </trkpt>
      <trkpt lat="36.7374650" lon="-4.4120270">
        <ele>107.9</ele>
        <time>2018-03-28T11:47:45Z</time>
      </trkpt>
      <trkpt lat="36.7374650" lon="-4.4120270">
        <ele>106.9</ele>
        <time>2018-03-28T11:47:46Z</time>
      </trkpt>
      <trkpt lat="36.7374330" lon="-4.4118380">
        <ele>106.9</ele>
        <time>2018-03-28T11:47:47Z</time>
      </trkpt>
      <trkpt lat="36.7374330" lon="-4.4118380">
        <ele>105.9</ele>
        <time>2018-03-28T11:47:48Z</time>
      </trkpt>
      <trkpt lat="36.7373280" lon="-4.4117300">
        <ele>105.9</ele>
        <time>2018-03-28T11:47:49Z</time>
      </trkpt>
      <trkpt lat="36.7373280" lon="-4.4117300">
        <ele>105.9</ele>
        <time>2018-03-28T11:47:50Z</time>
      </trkpt>
      <trkpt lat="36.7371900" lon="-4.4117200">
        <ele>105.9</ele>
        <time>2018-03-28T11:47:51Z</time>
      </trkpt>
      <trkpt lat="36.7371900" lon="-4.4117200">
        <ele>104.9</ele>
        <time>2018-03-28T11:47:52Z</time>
      </trkpt>
      <trkpt lat="36.7370600" lon="-4.4118380">
        <ele>104.9</ele>
        <time>2018-03-28T11:47:53Z</time>
      </trkpt>
      <trkpt lat="36.7370340" lon="-4.4118830">
        <ele>103.9</ele>
        <time>2018-03-28T11:47:54Z</time>
      </trkpt>
      <trkpt lat="36.7370080" lon="-4.4119270">
        <ele>103.9</ele>
        <time>2018-03-28T11:47:55Z</time>
      </trkpt>
      <trkpt lat="36.7369550" lon="-4.4120150">
        <ele>102.9</ele>
        <time>2018-03-28T11:47:56Z</time>
      </trkpt>
      <trkpt lat="36.7368550" lon="-4.4122070">
        <ele>102.9</ele>
        <time>2018-03-28T11:47:57Z</time>
      </trkpt>
      <trkpt lat="36.7368550" lon="-4.4122070">
        <ele>101.9</ele>
        <time>2018-03-28T11:47:58Z</time>
      </trkpt>
      <trkpt lat="36.7367140" lon="-4.4124440">
        <ele>101.9</ele>
        <time>2018-03-28T11:47:59Z</time>
      </trkpt>
      <trkpt lat="36.7366850" lon="-4.4124930">
        <ele>101.9</ele>
        <time>2018-03-28T11:48:00Z</time>
      </trkpt>
      <trkpt lat="36.7366280" lon="-4.4125900">
        <ele>101.9</ele>
        <time>2018-03-28T11:48:01Z</time>
      </trkpt>
      <trkpt lat="36.7366280" lon="-4.4125900">
        <ele>100.9</ele>
        <time>2018-03-28T11:48:02Z</time>
      </trkpt>
      <trkpt lat="36.7365280" lon="-4.4127820">
        <ele>100.9</ele>
        <time>2018-03-28T11:48:03Z</time>
      </trkpt>
      <trkpt lat="36.7365280" lon="-4.4127820">
        <ele>99.9</ele>
        <time>2018-03-28T11:48:04Z</time>
      </trkpt>
      <trkpt lat="36.7364630" lon="-4.4129480">
        <ele>99.9</ele>
        <time>2018-03-28T11:48:05Z</time>
      </trkpt>
      <trkpt lat="36.7364630" lon="-4.4129480">
        <ele>98.9</ele>
        <time>2018-03-28T11:48:06Z</time>
      </trkpt>
      <trkpt lat="36.7364850" lon="-4.4131200">
        <ele>98.9</ele>
        <time>2018-03-28T11:48:07Z</time>
      </trkpt>
      <trkpt lat="36.7364850" lon="-4.4131200">
        <ele>97.9</ele>
        <time>2018-03-28T11:48:08Z</time>
      </trkpt>
      <trkpt lat="36.7365920" lon="-4.4132530">
        <ele>97.9</ele>
        <time>2018-03-28T11:48:09Z</time>
      </trkpt>
      <trkpt lat="36.7365920" lon="-4.4132530">
        <ele>96.9</ele>
        <time>2018-03-28T11:48:10Z</time>
      </trkpt>
      <trkpt lat="36.7367430" lon="-4.4133380">
        <ele>96.9</ele>
        <time>2018-03-28T11:48:11Z</time>
      </trkpt>
      <trkpt lat="36.7368300" lon="-4.4133820">
        <ele>95.9</ele>
        <time>2018-03-28T11:48:12Z</time>
      </trkpt>
      <trkpt lat="36.7368300" lon="-4.4133820">
        <ele>94.9</ele>
        <time>2018-03-28T11:48:13Z</time>
      </trkpt>
      <trkpt lat="36.7370120" lon="-4.4134720">
        <ele>94.9</ele>
        <time>2018-03-28T11:48:14Z</time>
      </trkpt>
      <trkpt lat="36.7370120" lon="-4.4134720">
        <ele>93.9</ele>
        <time>2018-03-28T11:48:15Z</time>
      </trkpt>
      <trkpt lat="36.7371970" lon="-4.4135580">
        <ele>93.9</ele>
        <time>2018-03-28T11:48:16Z</time>
      </trkpt>
      <trkpt lat="36.7372870" lon="-4.4135980">
        <ele>92.9</ele>
        <time>2018-03-28T11:48:17Z</time>
      </trkpt>
      <trkpt lat="36.7372870" lon="-4.4135980">
        <ele>92.9</ele>
        <time>2018-03-28T11:48:18Z</time>
      </trkpt>
      <trkpt lat="36.7374400" lon="-4.4136880">
        <ele>92.9</ele>
        <time>2018-03-28T11:48:19Z</time>
      </trkpt>
      <trkpt lat="36.7374400" lon="-4.4136880">
        <ele>92.9</ele>
        <time>2018-03-28T11:48:20Z</time>
      </trkpt>
      <trkpt lat="36.7375350" lon="-4.4138180">
        <ele>91.9</ele>
        <time>2018-03-28T11:48:21Z</time>
      </trkpt>
      <trkpt lat="36.7375300" lon="-4.4138970">
        <ele>91.9</ele>
        <time>2018-03-28T11:48:22Z</time>
      </trkpt>
      <trkpt lat="36.7375300" lon="-4.4138970">
        <ele>91.9</ele>
        <time>2018-03-28T11:48:23Z</time>
      </trkpt>
      <trkpt lat="36.7374230" lon="-4.4140030">
        <ele>91.9</ele>
        <time>2018-03-28T11:48:24Z</time>
      </trkpt>
      <trkpt lat="36.7373500" lon="-4.4140250">
        <ele>89.9</ele>
        <time>2018-03-28T11:48:25Z</time>
      </trkpt>
      <trkpt lat="36.7373500" lon="-4.4140250">
        <ele>89.9</ele>
        <time>2018-03-28T11:48:26Z</time>
      </trkpt>
      <trkpt lat="36.7371850" lon="-4.4140700">
        <ele>88.9</ele>
        <time>2018-03-28T11:48:27Z</time>
      </trkpt>
      <trkpt lat="36.7371850" lon="-4.4140700">
        <ele>88.9</ele>
        <time>2018-03-28T11:48:28Z</time>
      </trkpt>
      <trkpt lat="36.7370520" lon="-4.4141700">
        <ele>87.9</ele>
        <time>2018-03-28T11:48:29Z</time>
      </trkpt>
      <trkpt lat="36.7370520" lon="-4.4141700">
        <ele>87.9</ele>
        <time>2018-03-28T11:48:30Z</time>
      </trkpt>
      <trkpt lat="36.7369780" lon="-4.4143810">
        <ele>85.9</ele>
        <time>2018-03-28T11:48:31Z</time>
      </trkpt>
      <trkpt lat="36.7369730" lon="-4.4144080">
        <ele>85.9</ele>
        <time>2018-03-28T11:48:32Z</time>
      </trkpt>
      <trkpt lat="36.7369620" lon="-4.4144620">
        <ele>83.9</ele>
        <time>2018-03-28T11:48:33Z</time>
      </trkpt>
      <trkpt lat="36.7368650" lon="-4.4146530">
        <ele>83.9</ele>
        <time>2018-03-28T11:48:34Z</time>
      </trkpt>
      <trkpt lat="36.7367980" lon="-4.4147370">
        <ele>82.9</ele>
        <time>2018-03-28T11:48:35Z</time>
      </trkpt>
      <trkpt lat="36.7367980" lon="-4.4147370">
        <ele>82.9</ele>
        <time>2018-03-28T11:48:36Z</time>
      </trkpt>
      <trkpt lat="36.7366930" lon="-4.4149070">
        <ele>81.9</ele>
        <time>2018-03-28T11:48:37Z</time>
      </trkpt>
      <trkpt lat="36.7366930" lon="-4.4149070">
        <ele>81.9</ele>
        <time>2018-03-28T11:48:38Z</time>
      </trkpt>
      <trkpt lat="36.7365720" lon="-4.4151570">
        <ele>79.9</ele>
        <time>2018-03-28T11:48:39Z</time>
      </trkpt>
      <trkpt lat="36.7365490" lon="-4.4152110">
        <ele>79.9</ele>
        <time>2018-03-28T11:48:40Z</time>
      </trkpt>
      <trkpt lat="36.7365030" lon="-4.4153180">
        <ele>77.9</ele>
        <time>2018-03-28T11:48:41Z</time>
      </trkpt>
      <trkpt lat="36.7365030" lon="-4.4153180">
        <ele>75.9</ele>
        <time>2018-03-28T11:48:42Z</time>
      </trkpt>
      <trkpt lat="36.7364430" lon="-4.4155330">
        <ele>75.9</ele>
        <time>2018-03-28T11:48:43Z</time>
      </trkpt>
      <trkpt lat="36.7364430" lon="-4.4155330">
        <ele>74.9</ele>
        <time>2018-03-28T11:48:44Z</time>
      </trkpt>
      <trkpt lat="36.7363920" lon="-4.4157150">
        <ele>74.9</ele>
        <time>2018-03-28T11:48:45Z</time>
      </trkpt>
      <trkpt lat="36.7363920" lon="-4.4157150">
        <ele>72.9</ele>
        <time>2018-03-28T11:48:46Z</time>
      </trkpt>
      <trkpt lat="36.7363070" lon="-4.4158580">
        <ele>72.9</ele>
        <time>2018-03-28T11:48:47Z</time>
      </trkpt>
      <trkpt lat="36.7362530" lon="-4.4159230">
        <ele>71.9</ele>
        <time>2018-03-28T11:48:48Z</time>
      </trkpt>
      <trkpt lat="36.7361770" lon="-4.4159970">
        <ele>71.9</ele>
        <time>2018-03-28T11:48:49Z</time>
      </trkpt>
      <trkpt lat="36.7361470" lon="-4.4160100">
        <ele>69.9</ele>
        <time>2018-03-28T11:48:50Z</time>
      </trkpt>
      <trkpt lat="36.7360870" lon="-4.4160370">
        <ele>69.9</ele>
        <time>2018-03-28T11:48:51Z</time>
      </trkpt>
      <trkpt lat="36.7360870" lon="-4.4160370">
        <ele>68.9</ele>
        <time>2018-03-28T11:48:52Z</time>
      </trkpt>
      <trkpt lat="36.7359530" lon="-4.4160020">
        <ele>68.9</ele>
        <time>2018-03-28T11:48:53Z</time>
      </trkpt>
      <trkpt lat="36.7358780" lon="-4.4159900">
        <ele>67.9</ele>
        <time>2018-03-28T11:48:54Z</time>
      </trkpt>
      <trkpt lat="36.7357980" lon="-4.4159830">
        <ele>67.9</ele>
        <time>2018-03-28T11:48:55Z</time>
      </trkpt>
      <trkpt lat="36.7357980" lon="-4.4159830">
        <ele>65.9</ele>
        <time>2018-03-28T11:48:56Z</time>
      </trkpt>
      <trkpt lat="36.7356420" lon="-4.4159700">
        <ele>65.9</ele>
        <time>2018-03-28T11:48:57Z</time>
      </trkpt>
      <trkpt lat="36.7355730" lon="-4.4159700">
        <ele>64.9</ele>
        <time>2018-03-28T11:48:58Z</time>
      </trkpt>
      <trkpt lat="36.7355730" lon="-4.4159700">
        <ele>64.9</ele>
        <time>2018-03-28T11:48:59Z</time>
      </trkpt>
      <trkpt lat="36.7354620" lon="-4.4159750">
        <ele>63.9</ele>
        <time>2018-03-28T11:49:00Z</time>
      </trkpt>
      <trkpt lat="36.7354200" lon="-4.4159820">
        <ele>63.9</ele>
        <time>2018-03-28T11:49:01Z</time>
      </trkpt>
      <trkpt lat="36.7354200" lon="-4.4159820">
        <ele>62.9</ele>
        <time>2018-03-28T11:49:02Z</time>
      </trkpt>
      <trkpt lat="36.7353550" lon="-4.4159880">
        <ele>62.9</ele>
        <time>2018-03-28T11:49:03Z</time>
      </trkpt>
      <trkpt lat="36.7353270" lon="-4.4159930">
        <ele>62.9</ele>
        <time>2018-03-28T11:49:04Z</time>
      </trkpt>
      <trkpt lat="36.7352980" lon="-4.4159970">
        <ele>62.9</ele>
        <time>2018-03-28T11:49:05Z</time>
      </trkpt>
      <trkpt lat="36.7352980" lon="-4.4159970">
        <ele>61.9</ele>
        <time>2018-03-28T11:49:06Z</time>
      </trkpt>
      <trkpt lat="36.7352530" lon="-4.4160030">
        <ele>61.9</ele>
        <time>2018-03-28T11:49:07Z</time>
      </trkpt>
      <trkpt lat="36.7352530" lon="-4.4160030">
        <ele>61.9</ele>
        <time>2018-03-28T11:49:08Z</time>
      </trkpt>
      <trkpt lat="36.7352170" lon="-4.4160070">
        <ele>61.9</ele>
        <time>2018-03-28T11:49:09Z</time>
      </trkpt>
      <trkpt lat="36.7352170" lon="-4.4160070">
        <ele>60.9</ele>
        <time>2018-03-28T11:49:10Z</time>
      </trkpt>
      <trkpt lat="36.7351880" lon="-4.4160150">
        <ele>60.9</ele>
        <time>2018-03-28T11:49:11Z</time>
      </trkpt>
      <trkpt lat="36.7351700" lon="-4.4160220">
        <ele>60.9</ele>
        <time>2018-03-28T11:49:12Z</time>
      </trkpt>
      <trkpt lat="36.7351700" lon="-4.4160220">
        <ele>60.9</ele>
        <time>2018-03-28T11:49:13Z</time>
      </trkpt>
      <trkpt lat="36.7351280" lon="-4.4160270">
        <ele>60.9</ele>
        <time>2018-03-28T11:49:14Z</time>
      </trkpt>
      <trkpt lat="36.7351030" lon="-4.4160220">
        <ele>60.9</ele>
        <time>2018-03-28T11:49:15Z</time>
      </trkpt>
      <trkpt lat="36.7350780" lon="-4.4160170">
        <ele>60.9</ele>
        <time>2018-03-28T11:49:16Z</time>
      </trkpt>
      <trkpt lat="36.7350530" lon="-4.4160130">
        <ele>60.9</ele>
        <time>2018-03-28T11:49:17Z</time>
      </trkpt>
      <trkpt lat="36.7350280" lon="-4.4160080">
        <ele>60.9</ele>
        <time>2018-03-28T11:49:18Z</time>
      </trkpt>
      <trkpt lat="36.7350280" lon="-4.4160080">
        <ele>60.9</ele>
        <time>2018-03-28T11:49:19Z</time>
      </trkpt>
      <trkpt lat="36.7349470" lon="-4.4159920">
        <ele>60.9</ele>
        <time>2018-03-28T11:49:20Z</time>
      </trkpt>
      <trkpt lat="36.7349470" lon="-4.4159920">
        <ele>59.9</ele>
        <time>2018-03-28T11:49:21Z</time>
      </trkpt>
      <trkpt lat="36.7348480" lon="-4.4159930">
        <ele>59.9</ele>
        <time>2018-03-28T11:49:22Z</time>
      </trkpt>
      <trkpt lat="36.7347900" lon="-4.4159950">
        <ele>59.9</ele>
        <time>2018-03-28T11:49:23Z</time>
      </trkpt>
      <trkpt lat="36.7347900" lon="-4.4159950">
        <ele>59.9</ele>
        <time>2018-03-28T11:49:24Z</time>
      </trkpt>
      <trkpt lat="36.7346770" lon="-4.4159500">
        <ele>58.9</ele>
        <time>2018-03-28T11:49:25Z</time>
      </trkpt>
      <trkpt lat="36.7346770" lon="-4.4159500">
        <ele>58.9</ele>
        <time>2018-03-28T11:49:26Z</time>
      </trkpt>
      <trkpt lat="36.7345500" lon="-4.4159280">
        <ele>58.9</ele>
        <time>2018-03-28T11:49:27Z</time>
      </trkpt>
      <trkpt lat="36.7344770" lon="-4.4159100">
        <ele>58.9</ele>
        <time>2018-03-28T11:49:28Z</time>
      </trkpt>
      <trkpt lat="36.7344770" lon="-4.4159100">
        <ele>57.9</ele>
        <time>2018-03-28T11:49:29Z</time>
      </trkpt>
      <trkpt lat="36.7343120" lon="-4.4158820">
        <ele>57.9</ele>
        <time>2018-03-28T11:49:30Z</time>
      </trkpt>
      <trkpt lat="36.7342930" lon="-4.4158800">
        <ele>57.9</ele>
        <time>2018-03-28T11:49:31Z</time>
      </trkpt>
      <trkpt lat="36.7342550" lon="-4.4158750">
        <ele>57.9</ele>
        <time>2018-03-28T11:49:32Z</time>
      </trkpt>
      <trkpt lat="36.7340620" lon="-4.4159120">
        <ele>55.9</ele>
        <time>2018-03-28T11:49:33Z</time>
      </trkpt>
      <trkpt lat="36.7339400" lon="-4.4159200">
        <ele>55.9</ele>
        <time>2018-03-28T11:49:34Z</time>
      </trkpt>
      <trkpt lat="36.7339050" lon="-4.4159180">
        <ele>55.9</ele>
        <time>2018-03-28T11:49:35Z</time>
      </trkpt>
      <trkpt lat="36.7338350" lon="-4.4159150">
        <ele>55.9</ele>
        <time>2018-03-28T11:49:36Z</time>
      </trkpt>
      <trkpt lat="36.7337660" lon="-4.4159160">
        <ele>54.9</ele>
        <time>2018-03-28T11:49:37Z</time>
      </trkpt>
      <trkpt lat="36.7337550" lon="-4.4159160">
        <ele>54.9</ele>
        <time>2018-03-28T11:49:38Z</time>
      </trkpt>
      <trkpt lat="36.7337430" lon="-4.4159170">
        <ele>53.9</ele>
        <time>2018-03-28T11:49:39Z</time>
      </trkpt>
      <trkpt lat="36.7337070" lon="-4.4159180">
        <ele>53.9</ele>
        <time>2018-03-28T11:49:40Z</time>
      </trkpt>
      <trkpt lat="36.7336700" lon="-4.4159570">
        <ele>52.9</ele>
        <time>2018-03-28T11:49:41Z</time>
      </trkpt>
      <trkpt lat="36.7336620" lon="-4.4159620">
        <ele>52.9</ele>
        <time>2018-03-28T11:49:42Z</time>
      </trkpt>
      <trkpt lat="36.7336620" lon="-4.4159620">
        <ele>52.9</ele>
        <time>2018-03-28T11:49:43Z</time>
      </trkpt>
      <trkpt lat="36.7336250" lon="-4.4159920">
        <ele>52.9</ele>
        <time>2018-03-28T11:49:44Z</time>
      </trkpt>
      <trkpt lat="36.7336250" lon="-4.4159920">
        <ele>52.9</ele>
        <time>2018-03-28T11:49:45Z</time>
      </trkpt>
      <trkpt lat="36.7336250" lon="-4.4159920">
        <ele>52.9</ele>
        <time>2018-03-28T11:49:46Z</time>
      </trkpt>
      <trkpt lat="36.7336250" lon="-4.4159920">
        <ele>52.9</ele>
        <time>2018-03-28T11:49:47Z</time>
      </trkpt>
      <trkpt lat="36.7336250" lon="-4.4159920">
        <ele>52.9</ele>
        <time>2018-03-28T11:49:48Z</time>
      </trkpt>
      <trkpt lat="36.7335590" lon="-4.4159820">
        <ele>52.9</ele>
        <time>2018-03-28T11:49:49Z</time>
      </trkpt>
      <trkpt lat="36.7334930" lon="-4.4159720">
        <ele>52.9</ele>
        <time>2018-03-28T11:49:50Z</time>
      </trkpt>
      <trkpt lat="36.7334260" lon="-4.4159630">
        <ele>52.9</ele>
        <time>2018-03-28T11:50:10Z</time>
      </trkpt>
      <trkpt lat="36.7333600" lon="-4.4159530">
        <ele>52.9</ele>
        <time>2018-03-28T11:50:11Z</time>
      </trkpt>
      <trkpt lat="36.7332940" lon="-4.4159430">
        <ele>52.9</ele>
        <time>2018-03-28T11:50:12Z</time>
      </trkpt>
      <trkpt lat="36.7332600" lon="-4.4159550">
        <ele>51.9</ele>
        <time>2018-03-28T11:50:13Z</time>
      </trkpt>
      <trkpt lat="36.7332600" lon="-4.4159550">
        <ele>51.9</ele>
        <time>2018-03-28T11:50:14Z</time>
      </trkpt>
      <trkpt lat="36.7331950" lon="-4.4160080">
        <ele>51.9</ele>
        <time>2018-03-28T11:50:15Z</time>
      </trkpt>
      <trkpt lat="36.7331950" lon="-4.4160080">
        <ele>51.9</ele>
        <time>2018-03-28T11:50:16Z</time>
      </trkpt>
      <trkpt lat="36.7331230" lon="-4.4160950">
        <ele>50.9</ele>
        <time>2018-03-28T11:50:17Z</time>
      </trkpt>
      <trkpt lat="36.7331230" lon="-4.4160950">
        <ele>50.9</ele>
        <time>2018-03-28T11:50:18Z</time>
      </trkpt>
      <trkpt lat="36.7330080" lon="-4.4162070">
        <ele>50.9</ele>
        <time>2018-03-28T11:50:19Z</time>
      </trkpt>
      <trkpt lat="36.7329790" lon="-4.4162380">
        <ele>50.9</ele>
        <time>2018-03-28T11:50:20Z</time>
      </trkpt>
      <trkpt lat="36.7329500" lon="-4.4162700">
        <ele>50.9</ele>
        <time>2018-03-28T11:50:21Z</time>
      </trkpt>
      <trkpt lat="36.7329040" lon="-4.4163260">
        <ele>49.9</ele>
        <time>2018-03-28T11:50:22Z</time>
      </trkpt>
      <trkpt lat="36.7328580" lon="-4.4163830">
        <ele>49.9</ele>
        <time>2018-03-28T11:50:23Z</time>
      </trkpt>
      <trkpt lat="36.7328110" lon="-4.4164390">
        <ele>49.9</ele>
        <time>2018-03-28T11:50:24Z</time>
      </trkpt>
      <trkpt lat="36.7327650" lon="-4.4164950">
        <ele>49.9</ele>
        <time>2018-03-28T11:50:25Z</time>
      </trkpt>
      <trkpt lat="36.7327230" lon="-4.4165450">
        <ele>48.9</ele>
        <time>2018-03-28T11:50:26Z</time>
      </trkpt>
      <trkpt lat="36.7326810" lon="-4.4165950">
        <ele>48.9</ele>
        <time>2018-03-28T11:50:27Z</time>
      </trkpt>
      <trkpt lat="36.7326390" lon="-4.4166450">
        <ele>48.9</ele>
        <time>2018-03-28T11:50:28Z</time>
      </trkpt>
      <trkpt lat="36.7326150" lon="-4.4166780">
        <ele>48.9</ele>
        <time>2018-03-28T11:50:29Z</time>
      </trkpt>
      <trkpt lat="36.7324830" lon="-4.4168250">
        <ele>48.9</ele>
        <time>2018-03-28T11:50:30Z</time>
      </trkpt>
      <trkpt lat="36.7324650" lon="-4.4168480">
        <ele>48.9</ele>
        <time>2018-03-28T11:50:31Z</time>
      </trkpt>
      <trkpt lat="36.7324460" lon="-4.4168700">
        <ele>48.9</ele>
        <time>2018-03-28T11:50:32Z</time>
      </trkpt>
      <trkpt lat="36.7323460" lon="-4.4170010">
        <ele>48.9</ele>
        <time>2018-03-28T11:50:33Z</time>
      </trkpt>
      <trkpt lat="36.7323020" lon="-4.4170650">
        <ele>48.9</ele>
        <time>2018-03-28T11:50:34Z</time>
      </trkpt>
      <trkpt lat="36.7322580" lon="-4.4171290">
        <ele>48.9</ele>
        <time>2018-03-28T11:50:35Z</time>
      </trkpt>
      <trkpt lat="36.7322150" lon="-4.4171940">
        <ele>48.9</ele>
        <time>2018-03-28T11:50:36Z</time>
      </trkpt>
      <trkpt lat="36.7321710" lon="-4.4172580">
        <ele>48.9</ele>
        <time>2018-03-28T11:50:37Z</time>
      </trkpt>
      <trkpt lat="36.7321270" lon="-4.4173220">
        <ele>48.9</ele>
        <time>2018-03-28T11:50:38Z</time>
      </trkpt>
      <trkpt lat="36.7320830" lon="-4.4173860">
        <ele>47.9</ele>
        <time>2018-03-28T11:50:39Z</time>
      </trkpt>
      <trkpt lat="36.7319940" lon="-4.4175420">
        <ele>47.9</ele>
        <time>2018-03-28T11:50:40Z</time>
      </trkpt>
      <trkpt lat="36.7319700" lon="-4.4176270">
        <ele>47.9</ele>
        <time>2018-03-28T11:50:41Z</time>
      </trkpt>
      <trkpt lat="36.7319460" lon="-4.4177110">
        <ele>47.9</ele>
        <time>2018-03-28T11:50:42Z</time>
      </trkpt>
      <trkpt lat="36.7319210" lon="-4.4177950">
        <ele>46.9</ele>
        <time>2018-03-28T11:50:43Z</time>
      </trkpt>
      <trkpt lat="36.7318970" lon="-4.4178790">
        <ele>46.9</ele>
        <time>2018-03-28T11:50:44Z</time>
      </trkpt>
      <trkpt lat="36.7318730" lon="-4.4179640">
        <ele>46.9</ele>
        <time>2018-03-28T11:50:45Z</time>
      </trkpt>
      <trkpt lat="36.7318490" lon="-4.4180480">
        <ele>46.9</ele>
        <time>2018-03-28T11:50:46Z</time>
      </trkpt>
      <trkpt lat="36.7318120" lon="-4.4181530">
        <ele>45.9</ele>
        <time>2018-03-28T11:50:47Z</time>
      </trkpt>
      <trkpt lat="36.7317420" lon="-4.4183820">
        <ele>45.9</ele>
        <time>2018-03-28T11:50:48Z</time>
      </trkpt>
      <trkpt lat="36.7317420" lon="-4.4183820">
        <ele>44.9</ele>
        <time>2018-03-28T11:50:49Z</time>
      </trkpt>
      <trkpt lat="36.7316820" lon="-4.4186220">
        <ele>43.9</ele>
        <time>2018-03-28T11:50:50Z</time>
      </trkpt>
      <trkpt lat="36.7316310" lon="-4.4188070">
        <ele>43.9</ele>
        <time>2018-03-28T11:50:51Z</time>
      </trkpt>
      <trkpt lat="36.7316130" lon="-4.4188660">
        <ele>42.9</ele>
        <time>2018-03-28T11:50:52Z</time>
      </trkpt>
      <trkpt lat="36.7315600" lon="-4.4190450">
        <ele>42.9</ele>
        <time>2018-03-28T11:50:53Z</time>
      </trkpt>
      <trkpt lat="36.7315410" lon="-4.4191050">
        <ele>41.9</ele>
        <time>2018-03-28T11:50:54Z</time>
      </trkpt>
      <trkpt lat="36.7315030" lon="-4.4192250">
        <ele>41.9</ele>
        <time>2018-03-28T11:50:55Z</time>
      </trkpt>
      <trkpt lat="36.7314890" lon="-4.4192900">
        <ele>40.9</ele>
        <time>2018-03-28T11:50:56Z</time>
      </trkpt>
      <trkpt lat="36.7314750" lon="-4.4193540">
        <ele>40.9</ele>
        <time>2018-03-28T11:50:57Z</time>
      </trkpt>
      <trkpt lat="36.7314470" lon="-4.4194830">
        <ele>39.9</ele>
        <time>2018-03-28T11:50:58Z</time>
      </trkpt>
      <trkpt lat="36.7313900" lon="-4.4197420">
        <ele>39.9</ele>
        <time>2018-03-28T11:50:59Z</time>
      </trkpt>
      <trkpt lat="36.7313570" lon="-4.4198630">
        <ele>38.9</ele>
        <time>2018-03-28T11:51:00Z</time>
      </trkpt>
      <trkpt lat="36.7313040" lon="-4.4200910">
        <ele>38.9</ele>
        <time>2018-03-28T11:51:01Z</time>
      </trkpt>
      <trkpt lat="36.7312810" lon="-4.4201940">
        <ele>38.9</ele>
        <time>2018-03-28T11:51:02Z</time>
      </trkpt>
      <trkpt lat="36.7312570" lon="-4.4202970">
        <ele>37.9</ele>
        <time>2018-03-28T11:51:03Z</time>
      </trkpt>
      <trkpt lat="36.7312300" lon="-4.4204220">
        <ele>37.9</ele>
        <time>2018-03-28T11:51:04Z</time>
      </trkpt>
      <trkpt lat="36.7312160" lon="-4.4204840">
        <ele>35.9</ele>
        <time>2018-03-28T11:51:05Z</time>
      </trkpt>
      <trkpt lat="36.7311770" lon="-4.4206830">
        <ele>35.9</ele>
        <time>2018-03-28T11:51:06Z</time>
      </trkpt>
      <trkpt lat="36.7311650" lon="-4.4207570">
        <ele>34.9</ele>
        <time>2018-03-28T11:51:07Z</time>
      </trkpt>
      <trkpt lat="36.7311540" lon="-4.4208320">
        <ele>34.9</ele>
        <time>2018-03-28T11:51:08Z</time>
      </trkpt>
      <trkpt lat="36.7311480" lon="-4.4209370">
        <ele>34.9</ele>
        <time>2018-03-28T11:51:09Z</time>
      </trkpt>
      <trkpt lat="36.7311480" lon="-4.4209370">
        <ele>34.9</ele>
        <time>2018-03-28T11:51:10Z</time>
      </trkpt>
      <trkpt lat="36.7311650" lon="-4.4210930">
        <ele>34.9</ele>
        <time>2018-03-28T11:51:11Z</time>
      </trkpt>
      <trkpt lat="36.7311650" lon="-4.4210930">
        <ele>34.9</ele>
        <time>2018-03-28T11:51:12Z</time>
      </trkpt>
      <trkpt lat="36.7311880" lon="-4.4211830">
        <ele>33.9</ele>
        <time>2018-03-28T11:51:13Z</time>
      </trkpt>
      <trkpt lat="36.7311880" lon="-4.4211830">
        <ele>33.9</ele>
        <time>2018-03-28T11:51:14Z</time>
      </trkpt>
      <trkpt lat="36.7312020" lon="-4.4212300">
        <ele>33.9</ele>
        <time>2018-03-28T11:51:15Z</time>
      </trkpt>
      <trkpt lat="36.7312020" lon="-4.4212300">
        <ele>33.9</ele>
        <time>2018-03-28T11:51:16Z</time>
      </trkpt>
      <trkpt lat="36.7312170" lon="-4.4212700">
        <ele>33.9</ele>
        <time>2018-03-28T11:51:17Z</time>
      </trkpt>
      <trkpt lat="36.7312220" lon="-4.4212770">
        <ele>33.9</ele>
        <time>2018-03-28T11:51:18Z</time>
      </trkpt>
      <trkpt lat="36.7312170" lon="-4.4212900">
        <ele>32.9</ele>
        <time>2018-03-28T11:51:19Z</time>
      </trkpt>
      <trkpt lat="36.7312160" lon="-4.4212950">
        <ele>32.9</ele>
        <time>2018-03-28T11:51:20Z</time>
      </trkpt>
      <trkpt lat="36.7312150" lon="-4.4213000">
        <ele>32.9</ele>
        <time>2018-03-28T11:51:21Z</time>
      </trkpt>
      <trkpt lat="36.7312150" lon="-4.4213000">
        <ele>32.9</ele>
        <time>2018-03-28T11:51:22Z</time>
      </trkpt>
      <trkpt lat="36.7312150" lon="-4.4213000">
        <ele>32.9</ele>
        <time>2018-03-28T11:51:23Z</time>
      </trkpt>
      <trkpt lat="36.7312150" lon="-4.4213000">
        <ele>32.9</ele>
        <time>2018-03-28T11:51:24Z</time>
      </trkpt>
      <trkpt lat="36.7312150" lon="-4.4213000">
        <ele>32.9</ele>
        <time>2018-03-28T11:51:25Z</time>
      </trkpt>
      <trkpt lat="36.7312270" lon="-4.4213480">
        <ele>32.9</ele>
        <time>2018-03-28T11:51:26Z</time>
      </trkpt>
      <trkpt lat="36.7312380" lon="-4.4213960">
        <ele>32.9</ele>
        <time>2018-03-28T11:51:27Z</time>
      </trkpt>
      <trkpt lat="36.7312500" lon="-4.4214440">
        <ele>32.9</ele>
        <time>2018-03-28T11:51:49Z</time>
      </trkpt>
      <trkpt lat="36.7312610" lon="-4.4214920">
        <ele>32.9</ele>
        <time>2018-03-28T11:51:52Z</time>
      </trkpt>
      <trkpt lat="36.7312730" lon="-4.4215400">
        <ele>32.9</ele>
        <time>2018-03-28T11:51:53Z</time>
      </trkpt>
      <trkpt lat="36.7312870" lon="-4.4216320">
        <ele>32.9</ele>
        <time>2018-03-28T11:51:54Z</time>
      </trkpt>
      <trkpt lat="36.7313050" lon="-4.4217150">
        <ele>32.9</ele>
        <time>2018-03-28T11:51:55Z</time>
      </trkpt>
      <trkpt lat="36.7313050" lon="-4.4217150">
        <ele>32.9</ele>
        <time>2018-03-28T11:51:56Z</time>
      </trkpt>
      <trkpt lat="36.7313000" lon="-4.4218450">
        <ele>32.9</ele>
        <time>2018-03-28T11:51:57Z</time>
      </trkpt>
      <trkpt lat="36.7313000" lon="-4.4218450">
        <ele>32.9</ele>
        <time>2018-03-28T11:51:58Z</time>
      </trkpt>
      <trkpt lat="36.7312980" lon="-4.4219950">
        <ele>32.9</ele>
        <time>2018-03-28T11:51:59Z</time>
      </trkpt>
      <trkpt lat="36.7312940" lon="-4.4220350">
        <ele>31.9</ele>
        <time>2018-03-28T11:52:00Z</time>
      </trkpt>
      <trkpt lat="36.7312890" lon="-4.4220740">
        <ele>31.9</ele>
        <time>2018-03-28T11:52:01Z</time>
      </trkpt>
      <trkpt lat="36.7312770" lon="-4.4221940">
        <ele>31.9</ele>
        <time>2018-03-28T11:52:02Z</time>
      </trkpt>
      <trkpt lat="36.7312740" lon="-4.4222350">
        <ele>31.9</ele>
        <time>2018-03-28T11:52:03Z</time>
      </trkpt>
      <trkpt lat="36.7312650" lon="-4.4223880">
        <ele>31.9</ele>
        <time>2018-03-28T11:52:04Z</time>
      </trkpt>
      <trkpt lat="36.7312620" lon="-4.4224580">
        <ele>31.9</ele>
        <time>2018-03-28T11:52:05Z</time>
      </trkpt>
      <trkpt lat="36.7312590" lon="-4.4225290">
        <ele>31.9</ele>
        <time>2018-03-28T11:52:06Z</time>
      </trkpt>
      <trkpt lat="36.7312550" lon="-4.4225990">
        <ele>31.9</ele>
        <time>2018-03-28T11:52:07Z</time>
      </trkpt>
      <trkpt lat="36.7312520" lon="-4.4226690">
        <ele>31.9</ele>
        <time>2018-03-28T11:52:08Z</time>
      </trkpt>
      <trkpt lat="36.7312490" lon="-4.4227390">
        <ele>31.9</ele>
        <time>2018-03-28T11:52:09Z</time>
      </trkpt>
      <trkpt lat="36.7312420" lon="-4.4228220">
        <ele>31.9</ele>
        <time>2018-03-28T11:52:10Z</time>
      </trkpt>
      <trkpt lat="36.7312250" lon="-4.4229920">
        <ele>31.9</ele>
        <time>2018-03-28T11:52:11Z</time>
      </trkpt>
      <trkpt lat="36.7312250" lon="-4.4229920">
        <ele>31.9</ele>
        <time>2018-03-28T11:52:12Z</time>
      </trkpt>
      <trkpt lat="36.7312220" lon="-4.4231500">
        <ele>30.9</ele>
        <time>2018-03-28T11:52:13Z</time>
      </trkpt>
      <trkpt lat="36.7312220" lon="-4.4231500">
        <ele>30.9</ele>
        <time>2018-03-28T11:52:14Z</time>
      </trkpt>
      <trkpt lat="36.7311630" lon="-4.4232550">
        <ele>30.9</ele>
        <time>2018-03-28T11:52:15Z</time>
      </trkpt>
      <trkpt lat="36.7311630" lon="-4.4232550">
        <ele>30.9</ele>
        <time>2018-03-28T11:52:16Z</time>
      </trkpt>
      <trkpt lat="36.7310650" lon="-4.4232700">
        <ele>29.9</ele>
        <time>2018-03-28T11:52:17Z</time>
      </trkpt>
      <trkpt lat="36.7310070" lon="-4.4232650">
        <ele>29.9</ele>
        <time>2018-03-28T11:52:18Z</time>
      </trkpt>
      <trkpt lat="36.7310070" lon="-4.4232650">
        <ele>29.9</ele>
        <time>2018-03-28T11:52:19Z</time>
      </trkpt>
      <trkpt lat="36.7308830" lon="-4.4232580">
        <ele>29.9</ele>
        <time>2018-03-28T11:52:20Z</time>
      </trkpt>
      <trkpt lat="36.7308380" lon="-4.4232710">
        <ele>29.9</ele>
        <time>2018-03-28T11:52:21Z</time>
      </trkpt>
      <trkpt lat="36.7307920" lon="-4.4232830">
        <ele>29.9</ele>
        <time>2018-03-28T11:52:22Z</time>
      </trkpt>
      <trkpt lat="36.7307000" lon="-4.4233070">
        <ele>29.9</ele>
        <time>2018-03-28T11:52:23Z</time>
      </trkpt>
      <trkpt lat="36.7306700" lon="-4.4233080">
        <ele>29.9</ele>
        <time>2018-03-28T11:52:24Z</time>
      </trkpt>
      <trkpt lat="36.7306390" lon="-4.4233090">
        <ele>29.9</ele>
        <time>2018-03-28T11:52:25Z</time>
      </trkpt>
      <trkpt lat="36.7305780" lon="-4.4233100">
        <ele>29.9</ele>
        <time>2018-03-28T11:52:26Z</time>
      </trkpt>
      <trkpt lat="36.7304880" lon="-4.4234080">
        <ele>29.9</ele>
        <time>2018-03-28T11:52:27Z</time>
      </trkpt>
      <trkpt lat="36.7304870" lon="-4.4234920">
        <ele>29.9</ele>
        <time>2018-03-28T11:52:28Z</time>
      </trkpt>
      <trkpt lat="36.7304760" lon="-4.4235540">
        <ele>28.9</ele>
        <time>2018-03-28T11:52:29Z</time>
      </trkpt>
      <trkpt lat="36.7304640" lon="-4.4236170">
        <ele>28.9</ele>
        <time>2018-03-28T11:52:30Z</time>
      </trkpt>
      <trkpt lat="36.7304530" lon="-4.4236790">
        <ele>28.9</ele>
        <time>2018-03-28T11:52:31Z</time>
      </trkpt>
      <trkpt lat="36.7304420" lon="-4.4237150">
        <ele>28.9</ele>
        <time>2018-03-28T11:52:32Z</time>
      </trkpt>
      <trkpt lat="36.7304200" lon="-4.4238750">
        <ele>28.9</ele>
        <time>2018-03-28T11:52:33Z</time>
      </trkpt>
      <trkpt lat="36.7304080" lon="-4.4239600">
        <ele>28.9</ele>
        <time>2018-03-28T11:52:34Z</time>
      </trkpt>
      <trkpt lat="36.7303950" lon="-4.4240240">
        <ele>28.9</ele>
        <time>2018-03-28T11:52:35Z</time>
      </trkpt>
      <trkpt lat="36.7303820" lon="-4.4240870">
        <ele>28.9</ele>
        <time>2018-03-28T11:52:36Z</time>
      </trkpt>
      <trkpt lat="36.7303550" lon="-4.4242130">
        <ele>28.9</ele>
        <time>2018-03-28T11:52:37Z</time>
      </trkpt>
      <trkpt lat="36.7303390" lon="-4.4242820">
        <ele>28.9</ele>
        <time>2018-03-28T11:52:38Z</time>
      </trkpt>
      <trkpt lat="36.7303240" lon="-4.4243500">
        <ele>28.9</ele>
        <time>2018-03-28T11:52:39Z</time>
      </trkpt>
      <trkpt lat="36.7303080" lon="-4.4244190">
        <ele>28.9</ele>
        <time>2018-03-28T11:52:40Z</time>
      </trkpt>
      <trkpt lat="36.7302880" lon="-4.4245140">
        <ele>28.9</ele>
        <time>2018-03-28T11:52:41Z</time>
      </trkpt>
      <trkpt lat="36.7302800" lon="-4.4245690">
        <ele>28.9</ele>
        <time>2018-03-28T11:52:42Z</time>
      </trkpt>
      <trkpt lat="36.7302650" lon="-4.4246800">
        <ele>28.9</ele>
        <time>2018-03-28T11:52:43Z</time>
      </trkpt>
      <trkpt lat="36.7302610" lon="-4.4247150">
        <ele>28.9</ele>
        <time>2018-03-28T11:52:44Z</time>
      </trkpt>
      <trkpt lat="36.7302570" lon="-4.4247500">
        <ele>28.9</ele>
        <time>2018-03-28T11:52:45Z</time>
      </trkpt>
      <trkpt lat="36.7302380" lon="-4.4248830">
        <ele>28.9</ele>
        <time>2018-03-28T11:52:46Z</time>
      </trkpt>
      <trkpt lat="36.7302280" lon="-4.4249450">
        <ele>28.9</ele>
        <time>2018-03-28T11:52:47Z</time>
      </trkpt>
      <trkpt lat="36.7301850" lon="-4.4249800">
        <ele>28.9</ele>
        <time>2018-03-28T11:52:48Z</time>
      </trkpt>
      <trkpt lat="36.7301850" lon="-4.4249800">
        <ele>28.9</ele>
        <time>2018-03-28T11:52:49Z</time>
      </trkpt>
      <trkpt lat="36.7300920" lon="-4.4250370">
        <ele>28.9</ele>
        <time>2018-03-28T11:52:50Z</time>
      </trkpt>
      <trkpt lat="36.7300920" lon="-4.4250370">
        <ele>28.9</ele>
        <time>2018-03-28T11:52:51Z</time>
      </trkpt>
      <trkpt lat="36.7299950" lon="-4.4250470">
        <ele>27.9</ele>
        <time>2018-03-28T11:52:52Z</time>
      </trkpt>
      <trkpt lat="36.7299950" lon="-4.4250470">
        <ele>27.9</ele>
        <time>2018-03-28T11:52:53Z</time>
      </trkpt>
      <trkpt lat="36.7298930" lon="-4.4250370">
        <ele>27.9</ele>
        <time>2018-03-28T11:52:54Z</time>
      </trkpt>
      <trkpt lat="36.7298520" lon="-4.4250180">
        <ele>27.9</ele>
        <time>2018-03-28T11:52:55Z</time>
      </trkpt>
      <trkpt lat="36.7298520" lon="-4.4250180">
        <ele>27.9</ele>
        <time>2018-03-28T11:52:56Z</time>
      </trkpt>
      <trkpt lat="36.7297880" lon="-4.4249770">
        <ele>27.9</ele>
        <time>2018-03-28T11:52:57Z</time>
      </trkpt>
      <trkpt lat="36.7297880" lon="-4.4249770">
        <ele>26.9</ele>
        <time>2018-03-28T11:52:58Z</time>
      </trkpt>
      <trkpt lat="36.7297000" lon="-4.4249570">
        <ele>26.9</ele>
        <time>2018-03-28T11:52:59Z</time>
      </trkpt>
      <trkpt lat="36.7296820" lon="-4.4249570">
        <ele>26.9</ele>
        <time>2018-03-28T11:53:00Z</time>
      </trkpt>
      <trkpt lat="36.7296820" lon="-4.4249570">
        <ele>26.9</ele>
        <time>2018-03-28T11:53:01Z</time>
      </trkpt>
    </trkseg>
  </trk>
</gpx>
